<?xml version="1.0" encoding="UTF-8"?>
<gpx
  version="1.0"
  creator="GPSBabel - http://www.gpsbabel.org"
  xmlns:xsi="http://www.w3.org/2001/XMLSchema-instance"
  xmlns="http://www.topografix.com/GPX/1/0"
  xsi:schemaLocation="http://www.topografix.com/GPX/1/0 http://www.topografix.com/GPX/1/0/gpx.xsd">
<time>2011-10-13T12:03:28Z</time>
<bounds minlat="32.580730438" minlon="34.991794586" maxlat="32.597404480" maxlon="35.019977570"/>
<trk>
  <name>Holux2011/10/13_07:12</name>
<trkseg>
<trkpt lat="32.597377777" lon="35.004341125">
  <ele>96.234985</ele>
  <time>2011-10-13T05:12:13Z</time>
  <speed>0.090000</speed>
</trkpt>
<trkpt lat="32.597358704" lon="35.004322052">
  <ele>97.190063</ele>
  <time>2011-10-13T05:12:17Z</time>
</trkpt>
<trkpt lat="32.597332001" lon="35.004325867">
  <ele>97.180298</ele>
  <time>2011-10-13T05:12:22Z</time>
  <speed>0.150000</speed>
</trkpt>
<trkpt lat="32.597309113" lon="35.004306793">
  <ele>97.111938</ele>
  <time>2011-10-13T05:12:27Z</time>
  <speed>1.150000</speed>
</trkpt>
<trkpt lat="32.597278595" lon="35.004272461">
  <ele>97.207642</ele>
  <time>2011-10-13T05:12:30Z</time>
  <speed>2.060000</speed>
</trkpt>
<trkpt lat="32.597248077" lon="35.004238129">
  <ele>96.613892</ele>
  <time>2011-10-13T05:12:32Z</time>
  <speed>2.390000</speed>
</trkpt>
<trkpt lat="32.597209930" lon="35.004215240">
  <ele>96.026001</ele>
  <time>2011-10-13T05:12:34Z</time>
  <speed>1.940000</speed>
</trkpt>
<trkpt lat="32.597175598" lon="35.004199982">
  <ele>95.565063</ele>
  <time>2011-10-13T05:12:36Z</time>
  <speed>1.750000</speed>
</trkpt>
<trkpt lat="32.597145081" lon="35.004180908">
  <ele>95.332642</ele>
  <time>2011-10-13T05:12:39Z</time>
  <speed>0.910000</speed>
</trkpt>
<trkpt lat="32.597110748" lon="35.004177094">
  <ele>95.031860</ele>
  <time>2011-10-13T05:12:42Z</time>
  <speed>1.690000</speed>
</trkpt>
<trkpt lat="32.597084045" lon="35.004169464">
  <ele>94.488892</ele>
  <time>2011-10-13T05:12:44Z</time>
  <speed>1.780000</speed>
</trkpt>
<trkpt lat="32.597053528" lon="35.004165649">
  <ele>94.371704</ele>
  <time>2011-10-13T05:12:46Z</time>
  <speed>1.850000</speed>
</trkpt>
<trkpt lat="32.597015381" lon="35.004165649">
  <ele>94.233032</ele>
  <time>2011-10-13T05:12:48Z</time>
  <speed>2.010000</speed>
</trkpt>
<trkpt lat="32.596981049" lon="35.004169464">
  <ele>93.908813</ele>
  <time>2011-10-13T05:12:50Z</time>
  <speed>2.380000</speed>
</trkpt>
<trkpt lat="32.596942902" lon="35.004177094">
  <ele>94.033813</ele>
  <time>2011-10-13T05:12:52Z</time>
  <speed>1.850000</speed>
</trkpt>
<trkpt lat="32.596908569" lon="35.004184723">
  <ele>94.488892</ele>
  <time>2011-10-13T05:12:54Z</time>
  <speed>1.980000</speed>
</trkpt>
<trkpt lat="32.596866608" lon="35.004184723">
  <ele>93.902954</ele>
  <time>2011-10-13T05:12:56Z</time>
  <speed>2.300000</speed>
</trkpt>
<trkpt lat="32.596824646" lon="35.004180908">
  <ele>93.992798</ele>
  <time>2011-10-13T05:12:58Z</time>
  <speed>2.240000</speed>
</trkpt>
<trkpt lat="32.596782684" lon="35.004184723">
  <ele>93.930298</ele>
  <time>2011-10-13T05:13:00Z</time>
  <speed>2.060000</speed>
</trkpt>
<trkpt lat="32.596736908" lon="35.004192352">
  <ele>94.176392</ele>
  <time>2011-10-13T05:13:02Z</time>
  <speed>2.190000</speed>
</trkpt>
<trkpt lat="32.596691132" lon="35.004196167">
  <ele>94.006470</ele>
  <time>2011-10-13T05:13:04Z</time>
  <speed>2.390000</speed>
</trkpt>
<trkpt lat="32.596645355" lon="35.004211426">
  <ele>94.992798</ele>
  <time>2011-10-13T05:13:06Z</time>
  <speed>2.540000</speed>
</trkpt>
<trkpt lat="32.596599579" lon="35.004215240">
  <ele>94.397095</ele>
  <time>2011-10-13T05:13:08Z</time>
  <speed>2.590000</speed>
</trkpt>
<trkpt lat="32.596572876" lon="35.004226685">
  <ele>94.113892</ele>
  <time>2011-10-13T05:13:09Z</time>
  <speed>2.470000</speed>
</trkpt>
<trkpt lat="32.596538544" lon="35.004222870">
  <ele>94.678345</ele>
  <time>2011-10-13T05:13:11Z</time>
  <speed>2.160000</speed>
</trkpt>
<trkpt lat="32.596515656" lon="35.004203796">
  <ele>92.332642</ele>
  <time>2011-10-13T05:13:12Z</time>
  <speed>2.130000</speed>
</trkpt>
<trkpt lat="32.596485138" lon="35.004211426">
  <ele>91.799438</ele>
  <time>2011-10-13T05:13:14Z</time>
  <speed>2.310000</speed>
</trkpt>
<trkpt lat="32.596443176" lon="35.004226685">
  <ele>91.981079</ele>
  <time>2011-10-13T05:13:16Z</time>
  <speed>2.330000</speed>
</trkpt>
<trkpt lat="32.596401215" lon="35.004234314">
  <ele>93.215454</ele>
  <time>2011-10-13T05:13:18Z</time>
  <speed>2.470000</speed>
</trkpt>
<trkpt lat="32.596347809" lon="35.004241943">
  <ele>93.973267</ele>
  <time>2011-10-13T05:13:20Z</time>
  <speed>2.340000</speed>
</trkpt>
<trkpt lat="32.596290588" lon="35.004241943">
  <ele>94.182251</ele>
  <time>2011-10-13T05:13:22Z</time>
  <speed>2.510000</speed>
</trkpt>
<trkpt lat="32.596248627" lon="35.004241943">
  <ele>94.764282</ele>
  <time>2011-10-13T05:13:24Z</time>
  <speed>2.610000</speed>
</trkpt>
<trkpt lat="32.596199036" lon="35.004234314">
  <ele>94.496704</ele>
  <time>2011-10-13T05:13:26Z</time>
  <speed>1.850000</speed>
</trkpt>
<trkpt lat="32.596149445" lon="35.004238129">
  <ele>94.379517</ele>
  <time>2011-10-13T05:13:28Z</time>
  <speed>3.380000</speed>
</trkpt>
<trkpt lat="32.596115112" lon="35.004249573">
  <ele>93.711548</ele>
  <time>2011-10-13T05:13:29Z</time>
  <speed>3.410000</speed>
</trkpt>
<trkpt lat="32.596084595" lon="35.004253387">
  <ele>92.975220</ele>
  <time>2011-10-13T05:13:30Z</time>
  <speed>3.710000</speed>
</trkpt>
<trkpt lat="32.596046448" lon="35.004257202">
  <ele>92.508423</ele>
  <time>2011-10-13T05:13:31Z</time>
  <speed>4.080000</speed>
</trkpt>
<trkpt lat="32.596012115" lon="35.004253387">
  <ele>91.320923</ele>
  <time>2011-10-13T05:13:32Z</time>
  <speed>3.990000</speed>
</trkpt>
<trkpt lat="32.595970154" lon="35.004261017">
  <ele>90.858032</ele>
  <time>2011-10-13T05:13:33Z</time>
  <speed>4.470000</speed>
</trkpt>
<trkpt lat="32.595920563" lon="35.004272461">
  <ele>92.119751</ele>
  <time>2011-10-13T05:13:34Z</time>
  <speed>4.910000</speed>
</trkpt>
<trkpt lat="32.595882416" lon="35.004276276">
  <ele>91.465454</ele>
  <time>2011-10-13T05:13:35Z</time>
  <speed>5.160000</speed>
</trkpt>
<trkpt lat="32.595832825" lon="35.004280090">
  <ele>91.611938</ele>
  <time>2011-10-13T05:13:36Z</time>
  <speed>5.310000</speed>
</trkpt>
<trkpt lat="32.595771790" lon="35.004283905">
  <ele>90.609985</ele>
  <time>2011-10-13T05:13:37Z</time>
  <speed>6.570000</speed>
</trkpt>
<trkpt lat="32.595706940" lon="35.004287720">
  <ele>90.027954</ele>
  <time>2011-10-13T05:13:38Z</time>
  <speed>6.880000</speed>
</trkpt>
<trkpt lat="32.595645905" lon="35.004295349">
  <ele>89.625610</ele>
  <time>2011-10-13T05:13:39Z</time>
  <speed>6.700000</speed>
</trkpt>
<trkpt lat="32.595581055" lon="35.004302979">
  <ele>89.379517</ele>
  <time>2011-10-13T05:13:40Z</time>
  <speed>7.080000</speed>
</trkpt>
<trkpt lat="32.595504761" lon="35.004318237">
  <ele>88.947876</ele>
  <time>2011-10-13T05:13:41Z</time>
  <speed>7.730000</speed>
</trkpt>
<trkpt lat="32.595428467" lon="35.004322052">
  <ele>88.520142</ele>
  <time>2011-10-13T05:13:42Z</time>
  <speed>8.210000</speed>
</trkpt>
<trkpt lat="32.595348358" lon="35.004352570">
  <ele>89.123657</ele>
  <time>2011-10-13T05:13:43Z</time>
  <speed>8.050000</speed>
</trkpt>
<trkpt lat="32.595275879" lon="35.004356384">
  <ele>87.209595</ele>
  <time>2011-10-13T05:13:44Z</time>
  <speed>8.060000</speed>
</trkpt>
<trkpt lat="32.595207214" lon="35.004371643">
  <ele>85.842407</ele>
  <time>2011-10-13T05:13:45Z</time>
  <speed>7.810000</speed>
</trkpt>
<trkpt lat="32.595138550" lon="35.004386902">
  <ele>84.518188</ele>
  <time>2011-10-13T05:13:46Z</time>
  <speed>7.670000</speed>
</trkpt>
<trkpt lat="32.595073700" lon="35.004402161">
  <ele>83.709595</ele>
  <time>2011-10-13T05:13:47Z</time>
  <speed>7.020000</speed>
</trkpt>
<trkpt lat="32.595008850" lon="35.004417419">
  <ele>82.483032</ele>
  <time>2011-10-13T05:13:48Z</time>
  <speed>6.460000</speed>
</trkpt>
<trkpt lat="32.594951630" lon="35.004436493">
  <ele>81.268188</ele>
  <time>2011-10-13T05:13:49Z</time>
  <speed>6.750000</speed>
</trkpt>
<trkpt lat="32.594898224" lon="35.004459381">
  <ele>80.061157</ele>
  <time>2011-10-13T05:13:50Z</time>
  <speed>5.700000</speed>
</trkpt>
<trkpt lat="32.594856262" lon="35.004486084">
  <ele>79.572876</ele>
  <time>2011-10-13T05:13:51Z</time>
  <speed>5.410000</speed>
</trkpt>
<trkpt lat="32.594814301" lon="35.004505157">
  <ele>78.430298</ele>
  <time>2011-10-13T05:13:52Z</time>
  <speed>4.440000</speed>
</trkpt>
<trkpt lat="32.594779968" lon="35.004535675">
  <ele>77.789673</ele>
  <time>2011-10-13T05:13:53Z</time>
  <speed>4.550000</speed>
</trkpt>
<trkpt lat="32.594757080" lon="35.004566193">
  <ele>76.379517</ele>
  <time>2011-10-13T05:13:54Z</time>
  <speed>4.190000</speed>
</trkpt>
<trkpt lat="32.594730377" lon="35.004600525">
  <ele>75.272095</ele>
  <time>2011-10-13T05:13:55Z</time>
  <speed>4.390000</speed>
</trkpt>
<trkpt lat="32.594703674" lon="35.004627228">
  <ele>74.043579</ele>
  <time>2011-10-13T05:13:56Z</time>
  <speed>3.980000</speed>
</trkpt>
<trkpt lat="32.594673157" lon="35.004665375">
  <ele>73.594360</ele>
  <time>2011-10-13T05:13:57Z</time>
  <speed>3.740000</speed>
</trkpt>
<trkpt lat="32.594646454" lon="35.004684448">
  <ele>72.590454</ele>
  <time>2011-10-13T05:13:58Z</time>
  <speed>3.500000</speed>
</trkpt>
<trkpt lat="32.594619751" lon="35.004699707">
  <ele>71.660767</ele>
  <time>2011-10-13T05:13:59Z</time>
  <speed>3.410000</speed>
</trkpt>
<trkpt lat="32.594593048" lon="35.004699707">
  <ele>70.584595</ele>
  <time>2011-10-13T05:14:00Z</time>
  <speed>3.790000</speed>
</trkpt>
<trkpt lat="32.594562531" lon="35.004692078">
  <ele>69.635376</ele>
  <time>2011-10-13T05:14:01Z</time>
  <speed>3.980000</speed>
</trkpt>
<trkpt lat="32.594528198" lon="35.004692078">
  <ele>68.412720</ele>
  <time>2011-10-13T05:14:02Z</time>
  <speed>4.350000</speed>
</trkpt>
<trkpt lat="32.594486237" lon="35.004688263">
  <ele>67.160767</ele>
  <time>2011-10-13T05:14:03Z</time>
  <speed>4.530000</speed>
</trkpt>
<trkpt lat="32.594444275" lon="35.004680634">
  <ele>66.168579</ele>
  <time>2011-10-13T05:14:04Z</time>
  <speed>4.720000</speed>
</trkpt>
<trkpt lat="32.594402313" lon="35.004673004">
  <ele>65.207642</ele>
  <time>2011-10-13T05:14:05Z</time>
  <speed>4.650000</speed>
</trkpt>
<trkpt lat="32.594356537" lon="35.004661560">
  <ele>64.848267</ele>
  <time>2011-10-13T05:14:06Z</time>
  <speed>5.070000</speed>
</trkpt>
<trkpt lat="32.594310760" lon="35.004650116">
  <ele>63.611633</ele>
  <time>2011-10-13T05:14:07Z</time>
  <speed>5.410000</speed>
</trkpt>
<trkpt lat="32.594264984" lon="35.004627228">
  <ele>62.860657</ele>
  <time>2011-10-13T05:14:08Z</time>
  <speed>5.300000</speed>
</trkpt>
<trkpt lat="32.594223022" lon="35.004611969">
  <ele>62.138000</ele>
  <time>2011-10-13T05:14:09Z</time>
  <speed>4.790000</speed>
</trkpt>
<trkpt lat="32.594184875" lon="35.004615784">
  <ele>61.584290</ele>
  <time>2011-10-13T05:14:10Z</time>
  <speed>4.030000</speed>
</trkpt>
<trkpt lat="32.594158173" lon="35.004631042">
  <ele>60.564758</ele>
  <time>2011-10-13T05:14:11Z</time>
  <speed>3.400000</speed>
</trkpt>
<trkpt lat="32.594135284" lon="35.004661560">
  <ele>58.762024</ele>
  <time>2011-10-13T05:14:12Z</time>
  <speed>4.270000</speed>
</trkpt>
<trkpt lat="32.594112396" lon="35.004695892">
  <ele>57.515930</ele>
  <time>2011-10-13T05:14:13Z</time>
  <speed>4.040000</speed>
</trkpt>
<trkpt lat="32.594085693" lon="35.004730225">
  <ele>57.561829</ele>
  <time>2011-10-13T05:14:14Z</time>
  <speed>3.500000</speed>
</trkpt>
<trkpt lat="32.594058990" lon="35.004741669">
  <ele>56.918274</ele>
  <time>2011-10-13T05:14:15Z</time>
  <speed>3.510000</speed>
</trkpt>
<trkpt lat="32.594024658" lon="35.004749298">
  <ele>56.285461</ele>
  <time>2011-10-13T05:14:16Z</time>
  <speed>3.720000</speed>
</trkpt>
<trkpt lat="32.593986511" lon="35.004741669">
  <ele>55.642883</ele>
  <time>2011-10-13T05:14:17Z</time>
  <speed>4.020000</speed>
</trkpt>
<trkpt lat="32.593952179" lon="35.004722595">
  <ele>54.551086</ele>
  <time>2011-10-13T05:14:18Z</time>
  <speed>3.790000</speed>
</trkpt>
<trkpt lat="32.593917847" lon="35.004711151">
  <ele>53.622375</ele>
  <time>2011-10-13T05:14:19Z</time>
  <speed>4.120000</speed>
</trkpt>
<trkpt lat="32.593879700" lon="35.004703522">
  <ele>52.283508</ele>
  <time>2011-10-13T05:14:20Z</time>
  <speed>4.290000</speed>
</trkpt>
<trkpt lat="32.593833923" lon="35.004714966">
  <ele>51.412415</ele>
  <time>2011-10-13T05:14:21Z</time>
  <speed>5.090000</speed>
</trkpt>
<trkpt lat="32.593784332" lon="35.004737854">
  <ele>51.035461</ele>
  <time>2011-10-13T05:14:22Z</time>
  <speed>5.580000</speed>
</trkpt>
<trkpt lat="32.593727112" lon="35.004783630">
  <ele>53.188782</ele>
  <time>2011-10-13T05:14:23Z</time>
  <speed>5.950000</speed>
</trkpt>
<trkpt lat="32.593673706" lon="35.004806519">
  <ele>52.822571</ele>
  <time>2011-10-13T05:14:24Z</time>
  <speed>6.160000</speed>
</trkpt>
<trkpt lat="32.593624115" lon="35.004825592">
  <ele>51.769836</ele>
  <time>2011-10-13T05:14:25Z</time>
  <speed>5.450000</speed>
</trkpt>
<trkpt lat="32.593574524" lon="35.004844666">
  <ele>51.472961</ele>
  <time>2011-10-13T05:14:26Z</time>
  <speed>5.380000</speed>
</trkpt>
<trkpt lat="32.593528748" lon="35.004859924">
  <ele>51.444641</ele>
  <time>2011-10-13T05:14:27Z</time>
  <speed>4.610000</speed>
</trkpt>
<trkpt lat="32.593494415" lon="35.004875183">
  <ele>51.856750</ele>
  <time>2011-10-13T05:14:28Z</time>
  <speed>3.780000</speed>
</trkpt>
<trkpt lat="32.593460083" lon="35.004890442">
  <ele>52.762024</ele>
  <time>2011-10-13T05:14:29Z</time>
  <speed>3.240000</speed>
</trkpt>
<trkpt lat="32.593433380" lon="35.004901886">
  <ele>52.440735</ele>
  <time>2011-10-13T05:14:31Z</time>
  <speed>1.120000</speed>
</trkpt>
<trkpt lat="32.593402863" lon="35.004928589">
  <ele>52.744446</ele>
  <time>2011-10-13T05:14:53Z</time>
  <speed>1.880000</speed>
</trkpt>
<trkpt lat="32.593376160" lon="35.004943848">
  <ele>53.204407</ele>
  <time>2011-10-13T05:14:54Z</time>
  <speed>3.230000</speed>
</trkpt>
<trkpt lat="32.593353271" lon="35.004962921">
  <ele>53.039368</ele>
  <time>2011-10-13T05:14:55Z</time>
  <speed>3.570000</speed>
</trkpt>
<trkpt lat="32.593322754" lon="35.004978180">
  <ele>52.906555</ele>
  <time>2011-10-13T05:14:56Z</time>
  <speed>3.800000</speed>
</trkpt>
<trkpt lat="32.593288422" lon="35.004993439">
  <ele>52.763977</ele>
  <time>2011-10-13T05:14:57Z</time>
  <speed>3.910000</speed>
</trkpt>
<trkpt lat="32.593257904" lon="35.005016327">
  <ele>52.776672</ele>
  <time>2011-10-13T05:14:58Z</time>
  <speed>4.110000</speed>
</trkpt>
<trkpt lat="32.593219757" lon="35.005035400">
  <ele>53.186829</ele>
  <time>2011-10-13T05:14:59Z</time>
  <speed>4.270000</speed>
</trkpt>
<trkpt lat="32.593185425" lon="35.005062103">
  <ele>52.902649</ele>
  <time>2011-10-13T05:15:00Z</time>
  <speed>4.450000</speed>
</trkpt>
<trkpt lat="32.593151093" lon="35.005088806">
  <ele>53.196594</ele>
  <time>2011-10-13T05:15:01Z</time>
  <speed>4.090000</speed>
</trkpt>
<trkpt lat="32.593116760" lon="35.005115509">
  <ele>54.310852</ele>
  <time>2011-10-13T05:15:02Z</time>
  <speed>3.900000</speed>
</trkpt>
<trkpt lat="32.593082428" lon="35.005142212">
  <ele>54.847961</ele>
  <time>2011-10-13T05:15:03Z</time>
  <speed>3.920000</speed>
</trkpt>
<trkpt lat="32.593051910" lon="35.005161285">
  <ele>55.182922</ele>
  <time>2011-10-13T05:15:04Z</time>
  <speed>4.000000</speed>
</trkpt>
<trkpt lat="32.593017578" lon="35.005180359">
  <ele>55.026672</ele>
  <time>2011-10-13T05:15:05Z</time>
  <speed>4.140000</speed>
</trkpt>
<trkpt lat="32.592983246" lon="35.005195618">
  <ele>55.082336</ele>
  <time>2011-10-13T05:15:06Z</time>
  <speed>4.230000</speed>
</trkpt>
<trkpt lat="32.592948914" lon="35.005207062">
  <ele>54.717102</ele>
  <time>2011-10-13T05:15:07Z</time>
  <speed>4.190000</speed>
</trkpt>
<trkpt lat="32.592910767" lon="35.005222321">
  <ele>54.507141</ele>
  <time>2011-10-13T05:15:08Z</time>
  <speed>3.930000</speed>
</trkpt>
<trkpt lat="32.592880249" lon="35.005241394">
  <ele>53.945618</ele>
  <time>2011-10-13T05:15:09Z</time>
  <speed>4.190000</speed>
</trkpt>
<trkpt lat="32.592845917" lon="35.005260468">
  <ele>53.987610</ele>
  <time>2011-10-13T05:15:10Z</time>
  <speed>4.330000</speed>
</trkpt>
<trkpt lat="32.592811584" lon="35.005279541">
  <ele>53.484680</ele>
  <time>2011-10-13T05:15:11Z</time>
  <speed>4.290000</speed>
</trkpt>
<trkpt lat="32.592773438" lon="35.005298615">
  <ele>53.306946</ele>
  <time>2011-10-13T05:15:12Z</time>
  <speed>4.240000</speed>
</trkpt>
<trkpt lat="32.592739105" lon="35.005313873">
  <ele>52.933899</ele>
  <time>2011-10-13T05:15:13Z</time>
  <speed>4.380000</speed>
</trkpt>
<trkpt lat="32.592700958" lon="35.005336761">
  <ele>52.807922</ele>
  <time>2011-10-13T05:15:14Z</time>
  <speed>4.600000</speed>
</trkpt>
<trkpt lat="32.592658997" lon="35.005363464">
  <ele>52.642883</ele>
  <time>2011-10-13T05:15:15Z</time>
  <speed>5.480000</speed>
</trkpt>
<trkpt lat="32.592609406" lon="35.005390167">
  <ele>52.376282</ele>
  <time>2011-10-13T05:15:16Z</time>
  <speed>5.830000</speed>
</trkpt>
<trkpt lat="32.592559814" lon="35.005416870">
  <ele>51.901672</ele>
  <time>2011-10-13T05:15:17Z</time>
  <speed>6.080000</speed>
</trkpt>
<trkpt lat="32.592514038" lon="35.005439758">
  <ele>51.525696</ele>
  <time>2011-10-13T05:15:18Z</time>
  <speed>5.410000</speed>
</trkpt>
<trkpt lat="32.592472076" lon="35.005455017">
  <ele>51.388977</ele>
  <time>2011-10-13T05:15:19Z</time>
  <speed>4.230000</speed>
</trkpt>
<trkpt lat="32.592441559" lon="35.005462646">
  <ele>50.310852</ele>
  <time>2011-10-13T05:15:20Z</time>
  <speed>3.680000</speed>
</trkpt>
<trkpt lat="32.592411041" lon="35.005470276">
  <ele>49.999329</ele>
  <time>2011-10-13T05:15:21Z</time>
  <speed>4.020000</speed>
</trkpt>
<trkpt lat="32.592376709" lon="35.005474091">
  <ele>49.376282</ele>
  <time>2011-10-13T05:15:22Z</time>
  <speed>3.770000</speed>
</trkpt>
<trkpt lat="32.592342377" lon="35.005481720">
  <ele>48.969055</ele>
  <time>2011-10-13T05:15:23Z</time>
  <speed>4.190000</speed>
</trkpt>
<trkpt lat="32.592315674" lon="35.005493164">
  <ele>47.843079</ele>
  <time>2011-10-13T05:15:24Z</time>
  <speed>3.610000</speed>
</trkpt>
<trkpt lat="32.592285156" lon="35.005500793">
  <ele>47.482727</ele>
  <time>2011-10-13T05:15:25Z</time>
  <speed>4.060000</speed>
</trkpt>
<trkpt lat="32.592247009" lon="35.005500793">
  <ele>46.992493</ele>
  <time>2011-10-13T05:15:26Z</time>
  <speed>3.860000</speed>
</trkpt>
<trkpt lat="32.592212677" lon="35.005512238">
  <ele>46.224915</ele>
  <time>2011-10-13T05:15:27Z</time>
  <speed>4.170000</speed>
</trkpt>
<trkpt lat="32.592170715" lon="35.005535126">
  <ele>46.995422</ele>
  <time>2011-10-13T05:15:28Z</time>
  <speed>4.390000</speed>
</trkpt>
<trkpt lat="32.592136383" lon="35.005542755">
  <ele>46.340149</ele>
  <time>2011-10-13T05:15:29Z</time>
  <speed>4.260000</speed>
</trkpt>
<trkpt lat="32.592094421" lon="35.005546570">
  <ele>45.978821</ele>
  <time>2011-10-13T05:15:30Z</time>
  <speed>4.340000</speed>
</trkpt>
<trkpt lat="32.592048645" lon="35.005554199">
  <ele>46.085266</ele>
  <time>2011-10-13T05:15:31Z</time>
  <speed>4.530000</speed>
</trkpt>
<trkpt lat="32.592010498" lon="35.005558014">
  <ele>45.929993</ele>
  <time>2011-10-13T05:15:32Z</time>
  <speed>4.300000</speed>
</trkpt>
<trkpt lat="32.591972351" lon="35.005561829">
  <ele>45.348938</ele>
  <time>2011-10-13T05:15:33Z</time>
  <speed>4.230000</speed>
</trkpt>
<trkpt lat="32.591934204" lon="35.005565643">
  <ele>45.296204</ele>
  <time>2011-10-13T05:15:34Z</time>
  <speed>4.240000</speed>
</trkpt>
<trkpt lat="32.591892242" lon="35.005569458">
  <ele>44.792297</ele>
  <time>2011-10-13T05:15:35Z</time>
  <speed>4.890000</speed>
</trkpt>
<trkpt lat="32.591850281" lon="35.005577087">
  <ele>44.346985</ele>
  <time>2011-10-13T05:15:36Z</time>
  <speed>4.750000</speed>
</trkpt>
<trkpt lat="32.591804504" lon="35.005603790">
  <ele>44.146790</ele>
  <time>2011-10-13T05:15:37Z</time>
  <speed>5.110000</speed>
</trkpt>
<trkpt lat="32.591762543" lon="35.005668640">
  <ele>46.996399</ele>
  <time>2011-10-13T05:15:38Z</time>
  <speed>4.790000</speed>
</trkpt>
<trkpt lat="32.591743469" lon="35.005710602">
  <ele>46.974915</ele>
  <time>2011-10-13T05:15:39Z</time>
  <speed>3.260000</speed>
</trkpt>
<trkpt lat="32.591743469" lon="35.005748749">
  <ele>47.304993</ele>
  <time>2011-10-13T05:15:40Z</time>
  <speed>2.810000</speed>
</trkpt>
<trkpt lat="32.591751099" lon="35.005786896">
  <ele>47.782532</ele>
  <time>2011-10-13T05:15:41Z</time>
  <speed>3.500000</speed>
</trkpt>
<trkpt lat="32.591762543" lon="35.005840302">
  <ele>48.562805</ele>
  <time>2011-10-13T05:15:42Z</time>
  <speed>3.740000</speed>
</trkpt>
<trkpt lat="32.591770172" lon="35.005882263">
  <ele>49.027649</ele>
  <time>2011-10-13T05:15:43Z</time>
  <speed>3.640000</speed>
</trkpt>
<trkpt lat="32.591781616" lon="35.005924225">
  <ele>48.823547</ele>
  <time>2011-10-13T05:15:44Z</time>
  <speed>3.810000</speed>
</trkpt>
<trkpt lat="32.591785431" lon="35.005966187">
  <ele>49.229797</ele>
  <time>2011-10-13T05:15:45Z</time>
  <speed>3.530000</speed>
</trkpt>
<trkpt lat="32.591796875" lon="35.006011963">
  <ele>49.018860</ele>
  <time>2011-10-13T05:15:46Z</time>
  <speed>3.570000</speed>
</trkpt>
<trkpt lat="32.591796875" lon="35.006053925">
  <ele>49.506165</ele>
  <time>2011-10-13T05:15:47Z</time>
  <speed>3.470000</speed>
</trkpt>
<trkpt lat="32.591789246" lon="35.006092072">
  <ele>49.964172</ele>
  <time>2011-10-13T05:15:48Z</time>
  <speed>3.480000</speed>
</trkpt>
<trkpt lat="32.591781616" lon="35.006126404">
  <ele>49.763000</ele>
  <time>2011-10-13T05:15:49Z</time>
  <speed>3.520000</speed>
</trkpt>
<trkpt lat="32.591762543" lon="35.006156921">
  <ele>49.635071</ele>
  <time>2011-10-13T05:15:50Z</time>
  <speed>3.690000</speed>
</trkpt>
<trkpt lat="32.591739655" lon="35.006195068">
  <ele>49.669250</ele>
  <time>2011-10-13T05:15:51Z</time>
  <speed>4.030000</speed>
</trkpt>
<trkpt lat="32.591716766" lon="35.006229401">
  <ele>49.935852</ele>
  <time>2011-10-13T05:15:52Z</time>
  <speed>3.840000</speed>
</trkpt>
<trkpt lat="32.591690063" lon="35.006259918">
  <ele>50.065735</ele>
  <time>2011-10-13T05:15:53Z</time>
  <speed>4.320000</speed>
</trkpt>
<trkpt lat="32.591659546" lon="35.006286621">
  <ele>50.252258</ele>
  <time>2011-10-13T05:15:54Z</time>
  <speed>3.830000</speed>
</trkpt>
<trkpt lat="32.591629028" lon="35.006309509">
  <ele>50.482727</ele>
  <time>2011-10-13T05:15:55Z</time>
  <speed>3.940000</speed>
</trkpt>
<trkpt lat="32.591598511" lon="35.006332397">
  <ele>50.736633</ele>
  <time>2011-10-13T05:15:56Z</time>
  <speed>3.930000</speed>
</trkpt>
<trkpt lat="32.591567993" lon="35.006359100">
  <ele>51.214172</ele>
  <time>2011-10-13T05:15:57Z</time>
  <speed>4.090000</speed>
</trkpt>
<trkpt lat="32.591537476" lon="35.006385803">
  <ele>51.412415</ele>
  <time>2011-10-13T05:15:58Z</time>
  <speed>4.160000</speed>
</trkpt>
<trkpt lat="32.591499329" lon="35.006423950">
  <ele>52.428040</ele>
  <time>2011-10-13T05:15:59Z</time>
  <speed>4.180000</speed>
</trkpt>
<trkpt lat="32.591461182" lon="35.006443024">
  <ele>52.663391</ele>
  <time>2011-10-13T05:16:00Z</time>
  <speed>4.030000</speed>
</trkpt>
<trkpt lat="32.591423035" lon="35.006496429">
  <ele>54.221008</ele>
  <time>2011-10-13T05:16:01Z</time>
  <speed>3.710000</speed>
</trkpt>
<trkpt lat="32.591396332" lon="35.006515503">
  <ele>54.420227</ele>
  <time>2011-10-13T05:16:02Z</time>
  <speed>3.870000</speed>
</trkpt>
<trkpt lat="32.591369629" lon="35.006542206">
  <ele>54.554993</ele>
  <time>2011-10-13T05:16:03Z</time>
  <speed>3.610000</speed>
</trkpt>
<trkpt lat="32.591339111" lon="35.006576538">
  <ele>55.340149</ele>
  <time>2011-10-13T05:16:04Z</time>
  <speed>4.080000</speed>
</trkpt>
<trkpt lat="32.591304779" lon="35.006603241">
  <ele>55.781555</ele>
  <time>2011-10-13T05:16:05Z</time>
  <speed>3.730000</speed>
</trkpt>
<trkpt lat="32.591278076" lon="35.006626129">
  <ele>55.761047</ele>
  <time>2011-10-13T05:16:06Z</time>
  <speed>3.800000</speed>
</trkpt>
<trkpt lat="32.591255188" lon="35.006649017">
  <ele>55.764954</ele>
  <time>2011-10-13T05:16:07Z</time>
  <speed>3.820000</speed>
</trkpt>
<trkpt lat="32.591217041" lon="35.006668091">
  <ele>56.203430</ele>
  <time>2011-10-13T05:16:08Z</time>
  <speed>3.710000</speed>
</trkpt>
<trkpt lat="32.591194153" lon="35.006694794">
  <ele>56.579407</ele>
  <time>2011-10-13T05:16:09Z</time>
  <speed>3.830000</speed>
</trkpt>
<trkpt lat="32.591171265" lon="35.006717682">
  <ele>56.740540</ele>
  <time>2011-10-13T05:16:10Z</time>
  <speed>3.250000</speed>
</trkpt>
<trkpt lat="32.591144562" lon="35.006752014">
  <ele>57.496399</ele>
  <time>2011-10-13T05:16:11Z</time>
  <speed>2.490000</speed>
</trkpt>
<trkpt lat="32.591094971" lon="35.006797791">
  <ele>58.291321</ele>
  <time>2011-10-13T05:16:13Z</time>
  <speed>3.370000</speed>
</trkpt>
<trkpt lat="32.591072083" lon="35.006816864">
  <ele>58.638000</ele>
  <time>2011-10-13T05:16:14Z</time>
  <speed>2.980000</speed>
</trkpt>
<trkpt lat="32.591049194" lon="35.006820679">
  <ele>60.296204</ele>
  <time>2011-10-13T05:16:15Z</time>
  <speed>3.170000</speed>
</trkpt>
<trkpt lat="32.591022491" lon="35.006832123">
  <ele>60.076477</ele>
  <time>2011-10-13T05:16:16Z</time>
  <speed>3.210000</speed>
</trkpt>
<trkpt lat="32.590995789" lon="35.006839752">
  <ele>60.455383</ele>
  <time>2011-10-13T05:16:17Z</time>
  <speed>3.270000</speed>
</trkpt>
<trkpt lat="32.590965271" lon="35.006851196">
  <ele>60.988586</ele>
  <time>2011-10-13T05:16:18Z</time>
  <speed>3.020000</speed>
</trkpt>
<trkpt lat="32.590915680" lon="35.006835938">
  <ele>61.362610</ele>
  <time>2011-10-13T05:16:20Z</time>
  <speed>2.880000</speed>
</trkpt>
<trkpt lat="32.590888977" lon="35.006820679">
  <ele>61.320618</ele>
  <time>2011-10-13T05:16:21Z</time>
  <speed>3.190000</speed>
</trkpt>
<trkpt lat="32.590866089" lon="35.006763458">
  <ele>60.245422</ele>
  <time>2011-10-13T05:16:23Z</time>
  <speed>2.900000</speed>
</trkpt>
<trkpt lat="32.590866089" lon="35.006721497">
  <ele>59.691711</ele>
  <time>2011-10-13T05:16:24Z</time>
  <speed>3.180000</speed>
</trkpt>
<trkpt lat="32.590862274" lon="35.006683350">
  <ele>59.159485</ele>
  <time>2011-10-13T05:16:25Z</time>
  <speed>3.220000</speed>
</trkpt>
<trkpt lat="32.590858459" lon="35.006645203">
  <ele>58.880188</ele>
  <time>2011-10-13T05:16:26Z</time>
  <speed>2.880000</speed>
</trkpt>
<trkpt lat="32.590858459" lon="35.006607056">
  <ele>58.480774</ele>
  <time>2011-10-13T05:16:27Z</time>
  <speed>3.250000</speed>
</trkpt>
<trkpt lat="32.590854645" lon="35.006568909">
  <ele>58.118469</ele>
  <time>2011-10-13T05:16:28Z</time>
  <speed>3.220000</speed>
</trkpt>
<trkpt lat="32.590854645" lon="35.006534576">
  <ele>57.794250</ele>
  <time>2011-10-13T05:16:29Z</time>
  <speed>3.230000</speed>
</trkpt>
<trkpt lat="32.590847015" lon="35.006492615">
  <ele>57.304016</ele>
  <time>2011-10-13T05:16:30Z</time>
  <speed>3.290000</speed>
</trkpt>
<trkpt lat="32.590847015" lon="35.006454468">
  <ele>56.904602</ele>
  <time>2011-10-13T05:16:31Z</time>
  <speed>3.100000</speed>
</trkpt>
<trkpt lat="32.590839386" lon="35.006412506">
  <ele>55.998352</ele>
  <time>2011-10-13T05:16:32Z</time>
  <speed>3.620000</speed>
</trkpt>
<trkpt lat="32.590835571" lon="35.006381989">
  <ele>55.266907</ele>
  <time>2011-10-13T05:16:33Z</time>
  <speed>3.380000</speed>
</trkpt>
<trkpt lat="32.590824127" lon="35.006347656">
  <ele>54.903625</ele>
  <time>2011-10-13T05:16:34Z</time>
  <speed>3.280000</speed>
</trkpt>
<trkpt lat="32.590808868" lon="35.006317139">
  <ele>54.698547</ele>
  <time>2011-10-13T05:16:35Z</time>
  <speed>3.070000</speed>
</trkpt>
<trkpt lat="32.590801239" lon="35.006282806">
  <ele>53.907532</ele>
  <time>2011-10-13T05:16:36Z</time>
  <speed>2.890000</speed>
</trkpt>
<trkpt lat="32.590797424" lon="35.006248474">
  <ele>52.877258</ele>
  <time>2011-10-13T05:16:37Z</time>
  <speed>3.000000</speed>
</trkpt>
<trkpt lat="32.590785980" lon="35.006191254">
  <ele>51.544250</ele>
  <time>2011-10-13T05:16:39Z</time>
  <speed>3.260000</speed>
</trkpt>
<trkpt lat="32.590778351" lon="35.006153107">
  <ele>50.673157</ele>
  <time>2011-10-13T05:16:40Z</time>
  <speed>3.450000</speed>
</trkpt>
<trkpt lat="32.590770721" lon="35.006114960">
  <ele>50.326477</ele>
  <time>2011-10-13T05:16:41Z</time>
  <speed>3.290000</speed>
</trkpt>
<trkpt lat="32.590766907" lon="35.006080627">
  <ele>49.983704</ele>
  <time>2011-10-13T05:16:42Z</time>
  <speed>2.840000</speed>
</trkpt>
<trkpt lat="32.590759277" lon="35.006042480">
  <ele>49.978821</ele>
  <time>2011-10-13T05:16:43Z</time>
  <speed>3.180000</speed>
</trkpt>
<trkpt lat="32.590747833" lon="35.006004333">
  <ele>49.270813</ele>
  <time>2011-10-13T05:16:44Z</time>
  <speed>3.430000</speed>
</trkpt>
<trkpt lat="32.590740204" lon="35.005970001">
  <ele>48.978821</ele>
  <time>2011-10-13T05:16:45Z</time>
  <speed>2.910000</speed>
</trkpt>
<trkpt lat="32.590732574" lon="35.005939484">
  <ele>48.555969</ele>
  <time>2011-10-13T05:16:46Z</time>
  <speed>2.630000</speed>
</trkpt>
<trkpt lat="32.590724945" lon="35.005905151">
  <ele>48.403625</ele>
  <time>2011-10-13T05:16:47Z</time>
  <speed>2.650000</speed>
</trkpt>
<trkpt lat="32.590717316" lon="35.005870819">
  <ele>47.903625</ele>
  <time>2011-10-13T05:16:48Z</time>
  <speed>3.100000</speed>
</trkpt>
<trkpt lat="32.590717316" lon="35.005836487">
  <ele>47.537415</ele>
  <time>2011-10-13T05:16:49Z</time>
  <speed>2.680000</speed>
</trkpt>
<trkpt lat="32.590713501" lon="35.005790710">
  <ele>47.685852</ele>
  <time>2011-10-13T05:16:50Z</time>
  <speed>3.160000</speed>
</trkpt>
<trkpt lat="32.590702057" lon="35.005729675">
  <ele>47.039368</ele>
  <time>2011-10-13T05:16:52Z</time>
  <speed>2.440000</speed>
</trkpt>
<trkpt lat="32.590702057" lon="35.005695343">
  <ele>47.022766</ele>
  <time>2011-10-13T05:16:53Z</time>
  <speed>2.330000</speed>
</trkpt>
<trkpt lat="32.590702057" lon="35.005661011">
  <ele>46.998352</ele>
  <time>2011-10-13T05:16:54Z</time>
  <speed>2.440000</speed>
</trkpt>
<trkpt lat="32.590694427" lon="35.005580902">
  <ele>47.566711</ele>
  <time>2011-10-13T05:16:56Z</time>
  <speed>2.670000</speed>
</trkpt>
<trkpt lat="32.590690613" lon="35.005550385">
  <ele>47.377258</ele>
  <time>2011-10-13T05:16:57Z</time>
  <speed>2.970000</speed>
</trkpt>
<trkpt lat="32.590675354" lon="35.005496979">
  <ele>47.020813</ele>
  <time>2011-10-13T05:16:58Z</time>
  <speed>3.130000</speed>
</trkpt>
<trkpt lat="32.590663910" lon="35.005462646">
  <ele>46.254211</ele>
  <time>2011-10-13T05:16:59Z</time>
  <speed>3.080000</speed>
</trkpt>
<trkpt lat="32.590663910" lon="35.005424500">
  <ele>46.411438</ele>
  <time>2011-10-13T05:17:00Z</time>
  <speed>3.200000</speed>
</trkpt>
<trkpt lat="32.590663910" lon="35.005382538">
  <ele>46.551086</ele>
  <time>2011-10-13T05:17:01Z</time>
  <speed>3.190000</speed>
</trkpt>
<trkpt lat="32.590652466" lon="35.005352020">
  <ele>46.076477</ele>
  <time>2011-10-13T05:17:02Z</time>
  <speed>3.380000</speed>
</trkpt>
<trkpt lat="32.590660095" lon="35.005313873">
  <ele>46.157532</ele>
  <time>2011-10-13T05:17:03Z</time>
  <speed>3.170000</speed>
</trkpt>
<trkpt lat="32.590675354" lon="35.005264282">
  <ele>45.486633</ele>
  <time>2011-10-13T05:17:04Z</time>
  <speed>3.660000</speed>
</trkpt>
<trkpt lat="32.590663910" lon="35.005214691">
  <ele>46.278625</ele>
  <time>2011-10-13T05:17:05Z</time>
  <speed>3.510000</speed>
</trkpt>
<trkpt lat="32.590660095" lon="35.005176544">
  <ele>46.244446</ele>
  <time>2011-10-13T05:17:06Z</time>
  <speed>3.050000</speed>
</trkpt>
<trkpt lat="32.590652466" lon="35.005115509">
  <ele>46.872375</ele>
  <time>2011-10-13T05:17:08Z</time>
  <speed>3.490000</speed>
</trkpt>
<trkpt lat="32.590656281" lon="35.005073547">
  <ele>46.727844</ele>
  <time>2011-10-13T05:17:09Z</time>
  <speed>3.780000</speed>
</trkpt>
<trkpt lat="32.590648651" lon="35.005016327">
  <ele>46.949524</ele>
  <time>2011-10-13T05:17:10Z</time>
  <speed>4.060000</speed>
</trkpt>
<trkpt lat="32.590644836" lon="35.004970551">
  <ele>46.455383</ele>
  <time>2011-10-13T05:17:11Z</time>
  <speed>4.100000</speed>
</trkpt>
<trkpt lat="32.590648651" lon="35.004917145">
  <ele>45.860657</ele>
  <time>2011-10-13T05:17:12Z</time>
  <speed>3.980000</speed>
</trkpt>
<trkpt lat="32.590652466" lon="35.004875183">
  <ele>46.213196</ele>
  <time>2011-10-13T05:17:13Z</time>
  <speed>3.590000</speed>
</trkpt>
<trkpt lat="32.590652466" lon="35.004837036">
  <ele>46.429993</ele>
  <time>2011-10-13T05:17:14Z</time>
  <speed>3.590000</speed>
</trkpt>
<trkpt lat="32.590652466" lon="35.004791260">
  <ele>46.565735</ele>
  <time>2011-10-13T05:17:15Z</time>
  <speed>3.860000</speed>
</trkpt>
<trkpt lat="32.590656281" lon="35.004734039">
  <ele>46.591125</ele>
  <time>2011-10-13T05:17:16Z</time>
  <speed>4.570000</speed>
</trkpt>
<trkpt lat="32.590656281" lon="35.004676819">
  <ele>46.976868</ele>
  <time>2011-10-13T05:17:17Z</time>
  <speed>4.790000</speed>
</trkpt>
<trkpt lat="32.590656281" lon="35.004627228">
  <ele>46.936829</ele>
  <time>2011-10-13T05:17:18Z</time>
  <speed>4.590000</speed>
</trkpt>
<trkpt lat="32.590648651" lon="35.004554749">
  <ele>47.821594</ele>
  <time>2011-10-13T05:17:19Z</time>
  <speed>4.620000</speed>
</trkpt>
<trkpt lat="32.590644836" lon="35.004508972">
  <ele>47.377258</ele>
  <time>2011-10-13T05:17:20Z</time>
  <speed>4.070000</speed>
</trkpt>
<trkpt lat="32.590641022" lon="35.004467010">
  <ele>47.568665</ele>
  <time>2011-10-13T05:17:21Z</time>
  <speed>4.070000</speed>
</trkpt>
<trkpt lat="32.590641022" lon="35.004421234">
  <ele>47.497375</ele>
  <time>2011-10-13T05:17:22Z</time>
  <speed>4.440000</speed>
</trkpt>
<trkpt lat="32.590648651" lon="35.004375458">
  <ele>48.253235</ele>
  <time>2011-10-13T05:17:23Z</time>
  <speed>4.710000</speed>
</trkpt>
<trkpt lat="32.590641022" lon="35.004329681">
  <ele>48.430969</ele>
  <time>2011-10-13T05:17:24Z</time>
  <speed>4.430000</speed>
</trkpt>
<trkpt lat="32.590644836" lon="35.004253387">
  <ele>48.199524</ele>
  <time>2011-10-13T05:17:25Z</time>
  <speed>5.370000</speed>
</trkpt>
<trkpt lat="32.590648651" lon="35.004196167">
  <ele>48.040344</ele>
  <time>2011-10-13T05:17:26Z</time>
  <speed>5.060000</speed>
</trkpt>
<trkpt lat="32.590648651" lon="35.004135132">
  <ele>47.596985</ele>
  <time>2011-10-13T05:17:27Z</time>
  <speed>5.160000</speed>
</trkpt>
<trkpt lat="32.590644836" lon="35.004081726">
  <ele>47.381165</ele>
  <time>2011-10-13T05:17:28Z</time>
  <speed>5.740000</speed>
</trkpt>
<trkpt lat="32.590637207" lon="35.004024506">
  <ele>46.799133</ele>
  <time>2011-10-13T05:17:29Z</time>
  <speed>5.390000</speed>
</trkpt>
<trkpt lat="32.590629578" lon="35.003955841">
  <ele>46.137024</ele>
  <time>2011-10-13T05:17:30Z</time>
  <speed>5.840000</speed>
</trkpt>
<trkpt lat="32.590625763" lon="35.003883362">
  <ele>46.155579</ele>
  <time>2011-10-13T05:17:31Z</time>
  <speed>6.190000</speed>
</trkpt>
<trkpt lat="32.590621948" lon="35.003810883">
  <ele>45.735657</ele>
  <time>2011-10-13T05:17:32Z</time>
  <speed>7.110000</speed>
</trkpt>
<trkpt lat="32.590614319" lon="35.003734589">
  <ele>45.721985</ele>
  <time>2011-10-13T05:17:33Z</time>
  <speed>7.390000</speed>
</trkpt>
<trkpt lat="32.590595245" lon="35.003639221">
  <ele>45.632141</ele>
  <time>2011-10-13T05:17:34Z</time>
  <speed>7.260000</speed>
</trkpt>
<trkpt lat="32.590572357" lon="35.003551483">
  <ele>45.968079</ele>
  <time>2011-10-13T05:17:35Z</time>
  <speed>7.230000</speed>
</trkpt>
<trkpt lat="32.590549469" lon="35.003479004">
  <ele>45.493469</ele>
  <time>2011-10-13T05:17:36Z</time>
  <speed>7.150000</speed>
</trkpt>
<trkpt lat="32.590522766" lon="35.003402710">
  <ele>45.442688</ele>
  <time>2011-10-13T05:17:37Z</time>
  <speed>7.040000</speed>
</trkpt>
<trkpt lat="32.590499878" lon="35.003322601">
  <ele>45.465149</ele>
  <time>2011-10-13T05:17:38Z</time>
  <speed>6.720000</speed>
</trkpt>
<trkpt lat="32.590473175" lon="35.003261566">
  <ele>44.375305</ele>
  <time>2011-10-13T05:17:39Z</time>
  <speed>6.730000</speed>
</trkpt>
<trkpt lat="32.590457916" lon="35.003192902">
  <ele>44.304993</ele>
  <time>2011-10-13T05:17:40Z</time>
  <speed>6.350000</speed>
</trkpt>
<trkpt lat="32.590446472" lon="35.003128052">
  <ele>44.303040</ele>
  <time>2011-10-13T05:17:41Z</time>
  <speed>6.400000</speed>
</trkpt>
<trkpt lat="32.590435028" lon="35.003063202">
  <ele>45.232727</ele>
  <time>2011-10-13T05:17:42Z</time>
  <speed>5.950000</speed>
</trkpt>
<trkpt lat="32.590427399" lon="35.002994537">
  <ele>44.745422</ele>
  <time>2011-10-13T05:17:43Z</time>
  <speed>6.200000</speed>
</trkpt>
<trkpt lat="32.590419769" lon="35.002922058">
  <ele>45.086243</ele>
  <time>2011-10-13T05:17:44Z</time>
  <speed>5.760000</speed>
</trkpt>
<trkpt lat="32.590419769" lon="35.002857208">
  <ele>45.361633</ele>
  <time>2011-10-13T05:17:45Z</time>
  <speed>5.490000</speed>
</trkpt>
<trkpt lat="32.590412140" lon="35.002803802">
  <ele>45.355774</ele>
  <time>2011-10-13T05:17:46Z</time>
  <speed>4.540000</speed>
</trkpt>
<trkpt lat="32.590412140" lon="35.002750397">
  <ele>45.392883</ele>
  <time>2011-10-13T05:17:47Z</time>
  <speed>4.840000</speed>
</trkpt>
<trkpt lat="32.590412140" lon="35.002712250">
  <ele>45.052063</ele>
  <time>2011-10-13T05:17:48Z</time>
  <speed>4.940000</speed>
</trkpt>
<trkpt lat="32.590408325" lon="35.002662659">
  <ele>44.894836</ele>
  <time>2011-10-13T05:17:49Z</time>
  <speed>4.740000</speed>
</trkpt>
<trkpt lat="32.590408325" lon="35.002601624">
  <ele>45.167297</ele>
  <time>2011-10-13T05:17:50Z</time>
  <speed>4.650000</speed>
</trkpt>
<trkpt lat="32.590412140" lon="35.002552032">
  <ele>45.093079</ele>
  <time>2011-10-13T05:17:51Z</time>
  <speed>4.560000</speed>
</trkpt>
<trkpt lat="32.590412140" lon="35.002510071">
  <ele>45.119446</ele>
  <time>2011-10-13T05:17:52Z</time>
  <speed>4.490000</speed>
</trkpt>
<trkpt lat="32.590408325" lon="35.002464294">
  <ele>45.564758</ele>
  <time>2011-10-13T05:17:53Z</time>
  <speed>4.430000</speed>
</trkpt>
<trkpt lat="32.590415955" lon="35.002426147">
  <ele>45.486633</ele>
  <time>2011-10-13T05:17:54Z</time>
  <speed>4.170000</speed>
</trkpt>
<trkpt lat="32.590415955" lon="35.002384186">
  <ele>45.532532</ele>
  <time>2011-10-13T05:17:55Z</time>
  <speed>4.410000</speed>
</trkpt>
<trkpt lat="32.590419769" lon="35.002334595">
  <ele>45.468079</ele>
  <time>2011-10-13T05:17:56Z</time>
  <speed>4.300000</speed>
</trkpt>
<trkpt lat="32.590423584" lon="35.002288818">
  <ele>45.548157</ele>
  <time>2011-10-13T05:17:57Z</time>
  <speed>4.310000</speed>
</trkpt>
<trkpt lat="32.590427399" lon="35.002246857">
  <ele>45.582336</ele>
  <time>2011-10-13T05:17:58Z</time>
  <speed>4.150000</speed>
</trkpt>
<trkpt lat="32.590427399" lon="35.002204895">
  <ele>46.059875</ele>
  <time>2011-10-13T05:17:59Z</time>
  <speed>3.950000</speed>
</trkpt>
<trkpt lat="32.590438843" lon="35.002166748">
  <ele>46.214172</ele>
  <time>2011-10-13T05:18:00Z</time>
  <speed>4.070000</speed>
</trkpt>
<trkpt lat="32.590442657" lon="35.002120972">
  <ele>46.354797</ele>
  <time>2011-10-13T05:18:01Z</time>
  <speed>3.830000</speed>
</trkpt>
<trkpt lat="32.590450287" lon="35.002075195">
  <ele>46.580383</ele>
  <time>2011-10-13T05:18:02Z</time>
  <speed>4.530000</speed>
</trkpt>
<trkpt lat="32.590454102" lon="35.002029419">
  <ele>46.779602</ele>
  <time>2011-10-13T05:18:03Z</time>
  <speed>4.660000</speed>
</trkpt>
<trkpt lat="32.590454102" lon="35.001983643">
  <ele>46.758118</ele>
  <time>2011-10-13T05:18:04Z</time>
  <speed>4.420000</speed>
</trkpt>
<trkpt lat="32.590457916" lon="35.001934052">
  <ele>46.976868</ele>
  <time>2011-10-13T05:18:05Z</time>
  <speed>4.280000</speed>
</trkpt>
<trkpt lat="32.590461731" lon="35.001895905">
  <ele>47.043274</ele>
  <time>2011-10-13T05:18:06Z</time>
  <speed>2.940000</speed>
</trkpt>
<trkpt lat="32.590465546" lon="35.001865387">
  <ele>47.051086</ele>
  <time>2011-10-13T05:18:07Z</time>
  <speed>3.430000</speed>
</trkpt>
<trkpt lat="32.590465546" lon="35.001819611">
  <ele>46.747375</ele>
  <time>2011-10-13T05:18:08Z</time>
  <speed>3.810000</speed>
</trkpt>
<trkpt lat="32.590469360" lon="35.001773834">
  <ele>46.708313</ele>
  <time>2011-10-13T05:18:09Z</time>
  <speed>4.300000</speed>
</trkpt>
<trkpt lat="32.590465546" lon="35.001724243">
  <ele>46.998352</ele>
  <time>2011-10-13T05:18:10Z</time>
  <speed>4.270000</speed>
</trkpt>
<trkpt lat="32.590473175" lon="35.001678467">
  <ele>47.074524</ele>
  <time>2011-10-13T05:18:11Z</time>
  <speed>4.310000</speed>
</trkpt>
<trkpt lat="32.590476990" lon="35.001628876">
  <ele>47.096985</ele>
  <time>2011-10-13T05:18:12Z</time>
  <speed>4.470000</speed>
</trkpt>
<trkpt lat="32.590469360" lon="35.001552582">
  <ele>47.167297</ele>
  <time>2011-10-13T05:18:13Z</time>
  <speed>4.400000</speed>
</trkpt>
<trkpt lat="32.590473175" lon="35.001495361">
  <ele>47.450500</ele>
  <time>2011-10-13T05:18:14Z</time>
  <speed>4.660000</speed>
</trkpt>
<trkpt lat="32.590476990" lon="35.001441956">
  <ele>46.877258</ele>
  <time>2011-10-13T05:18:15Z</time>
  <speed>4.830000</speed>
</trkpt>
<trkpt lat="32.590484619" lon="35.001392365">
  <ele>47.088196</ele>
  <time>2011-10-13T05:18:16Z</time>
  <speed>4.650000</speed>
</trkpt>
<trkpt lat="32.590492249" lon="35.001335144">
  <ele>46.785461</ele>
  <time>2011-10-13T05:18:17Z</time>
  <speed>4.770000</speed>
</trkpt>
<trkpt lat="32.590496063" lon="35.001285553">
  <ele>46.929993</ele>
  <time>2011-10-13T05:18:18Z</time>
  <speed>4.320000</speed>
</trkpt>
<trkpt lat="32.590499878" lon="35.001239777">
  <ele>46.883118</ele>
  <time>2011-10-13T05:18:19Z</time>
  <speed>4.540000</speed>
</trkpt>
<trkpt lat="32.590507507" lon="35.001186371">
  <ele>47.250305</ele>
  <time>2011-10-13T05:18:20Z</time>
  <speed>4.450000</speed>
</trkpt>
<trkpt lat="32.590511322" lon="35.001136780">
  <ele>47.513000</ele>
  <time>2011-10-13T05:18:21Z</time>
  <speed>4.370000</speed>
</trkpt>
<trkpt lat="32.590515137" lon="35.001083374">
  <ele>47.249329</ele>
  <time>2011-10-13T05:18:22Z</time>
  <speed>4.720000</speed>
</trkpt>
<trkpt lat="32.590518951" lon="35.001029968">
  <ele>46.835266</ele>
  <time>2011-10-13T05:18:23Z</time>
  <speed>4.680000</speed>
</trkpt>
<trkpt lat="32.590518951" lon="35.000968933">
  <ele>47.072571</ele>
  <time>2011-10-13T05:18:24Z</time>
  <speed>4.750000</speed>
</trkpt>
<trkpt lat="32.590518951" lon="35.000911713">
  <ele>46.223938</ele>
  <time>2011-10-13T05:18:25Z</time>
  <speed>4.630000</speed>
</trkpt>
<trkpt lat="32.590522766" lon="35.000858307">
  <ele>45.573547</ele>
  <time>2011-10-13T05:18:26Z</time>
  <speed>4.590000</speed>
</trkpt>
<trkpt lat="32.590534210" lon="35.000816345">
  <ele>46.562805</ele>
  <time>2011-10-13T05:18:27Z</time>
  <speed>4.270000</speed>
</trkpt>
<trkpt lat="32.590534210" lon="35.000762939">
  <ele>46.197571</ele>
  <time>2011-10-13T05:18:28Z</time>
  <speed>4.610000</speed>
</trkpt>
<trkpt lat="32.590534210" lon="35.000720978">
  <ele>46.260071</ele>
  <time>2011-10-13T05:18:29Z</time>
  <speed>4.720000</speed>
</trkpt>
<trkpt lat="32.590538025" lon="35.000671387">
  <ele>46.215149</ele>
  <time>2011-10-13T05:18:30Z</time>
  <speed>4.430000</speed>
</trkpt>
<trkpt lat="32.590541840" lon="35.000617981">
  <ele>46.449524</ele>
  <time>2011-10-13T05:18:31Z</time>
  <speed>5.030000</speed>
</trkpt>
<trkpt lat="32.590549469" lon="35.000560760">
  <ele>46.346008</ele>
  <time>2011-10-13T05:18:32Z</time>
  <speed>5.090000</speed>
</trkpt>
<trkpt lat="32.590557098" lon="35.000503540">
  <ele>46.837219</ele>
  <time>2011-10-13T05:18:33Z</time>
  <speed>4.930000</speed>
</trkpt>
<trkpt lat="32.590557098" lon="35.000450134">
  <ele>46.954407</ele>
  <time>2011-10-13T05:18:34Z</time>
  <speed>4.740000</speed>
</trkpt>
<trkpt lat="32.590560913" lon="35.000400543">
  <ele>46.021790</ele>
  <time>2011-10-13T05:18:35Z</time>
  <speed>5.110000</speed>
</trkpt>
<trkpt lat="32.590564728" lon="35.000343323">
  <ele>45.489563</ele>
  <time>2011-10-13T05:18:36Z</time>
  <speed>4.980000</speed>
</trkpt>
<trkpt lat="32.590564728" lon="35.000282288">
  <ele>46.463196</ele>
  <time>2011-10-13T05:18:37Z</time>
  <speed>5.200000</speed>
</trkpt>
<trkpt lat="32.590564728" lon="35.000221252">
  <ele>46.411438</ele>
  <time>2011-10-13T05:18:38Z</time>
  <speed>5.090000</speed>
</trkpt>
<trkpt lat="32.590564728" lon="35.000164032">
  <ele>46.114563</ele>
  <time>2011-10-13T05:18:39Z</time>
  <speed>5.140000</speed>
</trkpt>
<trkpt lat="32.590568542" lon="35.000102997">
  <ele>45.373352</ele>
  <time>2011-10-13T05:18:40Z</time>
  <speed>4.970000</speed>
</trkpt>
<trkpt lat="32.590572357" lon="35.000049591">
  <ele>45.445618</ele>
  <time>2011-10-13T05:18:41Z</time>
  <speed>5.520000</speed>
</trkpt>
<trkpt lat="32.590572357" lon="35.000000000">
  <ele>45.667297</ele>
  <time>2011-10-13T05:18:42Z</time>
  <speed>5.370000</speed>
</trkpt>
<trkpt lat="32.590576172" lon="34.999935150">
  <ele>45.613586</ele>
  <time>2011-10-13T05:18:43Z</time>
  <speed>5.350000</speed>
</trkpt>
<trkpt lat="32.590583801" lon="34.999877930">
  <ele>45.919250</ele>
  <time>2011-10-13T05:18:44Z</time>
  <speed>5.060000</speed>
</trkpt>
<trkpt lat="32.590587616" lon="34.999824524">
  <ele>45.928040</ele>
  <time>2011-10-13T05:18:45Z</time>
  <speed>5.070000</speed>
</trkpt>
<trkpt lat="32.590587616" lon="34.999767303">
  <ele>46.009094</ele>
  <time>2011-10-13T05:18:46Z</time>
  <speed>5.130000</speed>
</trkpt>
<trkpt lat="32.590591431" lon="34.999717712">
  <ele>45.880188</ele>
  <time>2011-10-13T05:18:47Z</time>
  <speed>5.130000</speed>
</trkpt>
<trkpt lat="32.590591431" lon="34.999664307">
  <ele>45.717102</ele>
  <time>2011-10-13T05:18:48Z</time>
  <speed>4.650000</speed>
</trkpt>
<trkpt lat="32.590595245" lon="34.999614716">
  <ele>45.854797</ele>
  <time>2011-10-13T05:18:49Z</time>
  <speed>4.840000</speed>
</trkpt>
<trkpt lat="32.590602875" lon="34.999565125">
  <ele>46.302063</ele>
  <time>2011-10-13T05:18:50Z</time>
  <speed>4.750000</speed>
</trkpt>
<trkpt lat="32.590599060" lon="34.999523163">
  <ele>45.054993</ele>
  <time>2011-10-13T05:18:51Z</time>
  <speed>4.670000</speed>
</trkpt>
<trkpt lat="32.590599060" lon="34.999465942">
  <ele>44.588196</ele>
  <time>2011-10-13T05:18:52Z</time>
  <speed>4.800000</speed>
</trkpt>
<trkpt lat="32.590599060" lon="34.999408722">
  <ele>44.144836</ele>
  <time>2011-10-13T05:18:53Z</time>
  <speed>5.390000</speed>
</trkpt>
<trkpt lat="32.590595245" lon="34.999347687">
  <ele>43.513977</ele>
  <time>2011-10-13T05:18:54Z</time>
  <speed>5.320000</speed>
</trkpt>
<trkpt lat="32.590595245" lon="34.999298096">
  <ele>43.413391</ele>
  <time>2011-10-13T05:18:55Z</time>
  <speed>5.100000</speed>
</trkpt>
<trkpt lat="32.590591431" lon="34.999248505">
  <ele>43.431946</ele>
  <time>2011-10-13T05:18:56Z</time>
  <speed>4.930000</speed>
</trkpt>
<trkpt lat="32.590583801" lon="34.999195099">
  <ele>43.092102</ele>
  <time>2011-10-13T05:18:57Z</time>
  <speed>4.930000</speed>
</trkpt>
<trkpt lat="32.590576172" lon="34.999137878">
  <ele>43.185852</ele>
  <time>2011-10-13T05:18:58Z</time>
  <speed>5.090000</speed>
</trkpt>
<trkpt lat="32.590576172" lon="34.999084473">
  <ele>43.106750</ele>
  <time>2011-10-13T05:18:59Z</time>
  <speed>4.900000</speed>
</trkpt>
<trkpt lat="32.590579987" lon="34.999031067">
  <ele>42.847961</ele>
  <time>2011-10-13T05:19:00Z</time>
  <speed>4.740000</speed>
</trkpt>
<trkpt lat="32.590572357" lon="34.998977661">
  <ele>43.052063</ele>
  <time>2011-10-13T05:19:01Z</time>
  <speed>4.840000</speed>
</trkpt>
<trkpt lat="32.590557098" lon="34.998924255">
  <ele>42.216125</ele>
  <time>2011-10-13T05:19:02Z</time>
  <speed>5.240000</speed>
</trkpt>
<trkpt lat="32.590557098" lon="34.998863220">
  <ele>42.410461</ele>
  <time>2011-10-13T05:19:03Z</time>
  <speed>5.260000</speed>
</trkpt>
<trkpt lat="32.590541840" lon="34.998809814">
  <ele>42.448547</ele>
  <time>2011-10-13T05:19:04Z</time>
  <speed>5.110000</speed>
</trkpt>
<trkpt lat="32.590526581" lon="34.998760223">
  <ele>42.285461</ele>
  <time>2011-10-13T05:19:05Z</time>
  <speed>4.940000</speed>
</trkpt>
<trkpt lat="32.590515137" lon="34.998706818">
  <ele>42.099915</ele>
  <time>2011-10-13T05:19:06Z</time>
  <speed>5.100000</speed>
</trkpt>
<trkpt lat="32.590503693" lon="34.998653412">
  <ele>41.830383</ele>
  <time>2011-10-13T05:19:07Z</time>
  <speed>4.860000</speed>
</trkpt>
<trkpt lat="32.590488434" lon="34.998600006">
  <ele>41.596008</ele>
  <time>2011-10-13T05:19:08Z</time>
  <speed>5.130000</speed>
</trkpt>
<trkpt lat="32.590469360" lon="34.998550415">
  <ele>41.692688</ele>
  <time>2011-10-13T05:19:09Z</time>
  <speed>4.800000</speed>
</trkpt>
<trkpt lat="32.590450287" lon="34.998508453">
  <ele>41.316711</ele>
  <time>2011-10-13T05:19:10Z</time>
  <speed>4.380000</speed>
</trkpt>
<trkpt lat="32.590435028" lon="34.998462677">
  <ele>41.376282</ele>
  <time>2011-10-13T05:19:11Z</time>
  <speed>4.400000</speed>
</trkpt>
<trkpt lat="32.590412140" lon="34.998416901">
  <ele>40.999329</ele>
  <time>2011-10-13T05:19:12Z</time>
  <speed>4.860000</speed>
</trkpt>
<trkpt lat="32.590389252" lon="34.998371124">
  <ele>40.449524</ele>
  <time>2011-10-13T05:19:13Z</time>
  <speed>4.920000</speed>
</trkpt>
<trkpt lat="32.590377808" lon="34.998325348">
  <ele>40.266907</ele>
  <time>2011-10-13T05:19:14Z</time>
  <speed>4.570000</speed>
</trkpt>
<trkpt lat="32.590358734" lon="34.998279572">
  <ele>40.028625</ele>
  <time>2011-10-13T05:19:15Z</time>
  <speed>4.540000</speed>
</trkpt>
<trkpt lat="32.590339661" lon="34.998237610">
  <ele>39.739563</ele>
  <time>2011-10-13T05:19:16Z</time>
  <speed>4.660000</speed>
</trkpt>
<trkpt lat="32.590324402" lon="34.998191833">
  <ele>39.347961</ele>
  <time>2011-10-13T05:19:17Z</time>
  <speed>4.570000</speed>
</trkpt>
<trkpt lat="32.590309143" lon="34.998142242">
  <ele>39.336243</ele>
  <time>2011-10-13T05:19:18Z</time>
  <speed>4.490000</speed>
</trkpt>
<trkpt lat="32.590290070" lon="34.998104095">
  <ele>39.135071</ele>
  <time>2011-10-13T05:19:19Z</time>
  <speed>4.370000</speed>
</trkpt>
<trkpt lat="32.590274811" lon="34.998058319">
  <ele>38.924133</ele>
  <time>2011-10-13T05:19:20Z</time>
  <speed>4.460000</speed>
</trkpt>
<trkpt lat="32.590255737" lon="34.998012543">
  <ele>38.609680</ele>
  <time>2011-10-13T05:19:21Z</time>
  <speed>4.760000</speed>
</trkpt>
<trkpt lat="32.590240479" lon="34.997966766">
  <ele>38.378235</ele>
  <time>2011-10-13T05:19:22Z</time>
  <speed>4.570000</speed>
</trkpt>
<trkpt lat="32.590221405" lon="34.997924805">
  <ele>38.220032</ele>
  <time>2011-10-13T05:19:23Z</time>
  <speed>4.520000</speed>
</trkpt>
<trkpt lat="32.590206146" lon="34.997875214">
  <ele>37.917297</ele>
  <time>2011-10-13T05:19:24Z</time>
  <speed>4.500000</speed>
</trkpt>
<trkpt lat="32.590190887" lon="34.997825623">
  <ele>37.541321</ele>
  <time>2011-10-13T05:19:25Z</time>
  <speed>4.570000</speed>
</trkpt>
<trkpt lat="32.590164185" lon="34.997783661">
  <ele>37.102844</ele>
  <time>2011-10-13T05:19:26Z</time>
  <speed>4.460000</speed>
</trkpt>
<trkpt lat="32.590145111" lon="34.997741699">
  <ele>36.801086</ele>
  <time>2011-10-13T05:19:27Z</time>
  <speed>4.400000</speed>
</trkpt>
<trkpt lat="32.590129852" lon="34.997695923">
  <ele>36.551086</ele>
  <time>2011-10-13T05:19:28Z</time>
  <speed>4.590000</speed>
</trkpt>
<trkpt lat="32.590103149" lon="34.997653961">
  <ele>36.081360</ele>
  <time>2011-10-13T05:19:29Z</time>
  <speed>4.590000</speed>
</trkpt>
<trkpt lat="32.590080261" lon="34.997608185">
  <ele>35.623352</ele>
  <time>2011-10-13T05:19:30Z</time>
  <speed>4.570000</speed>
</trkpt>
<trkpt lat="32.590057373" lon="34.997562408">
  <ele>35.183899</ele>
  <time>2011-10-13T05:19:31Z</time>
  <speed>4.770000</speed>
</trkpt>
<trkpt lat="32.590038300" lon="34.997516632">
  <ele>34.807922</ele>
  <time>2011-10-13T05:19:32Z</time>
  <speed>4.450000</speed>
</trkpt>
<trkpt lat="32.590023041" lon="34.997467041">
  <ele>34.636047</ele>
  <time>2011-10-13T05:19:33Z</time>
  <speed>4.950000</speed>
</trkpt>
<trkpt lat="32.589996338" lon="34.997417450">
  <ele>34.706360</ele>
  <time>2011-10-13T05:19:34Z</time>
  <speed>5.360000</speed>
</trkpt>
<trkpt lat="32.589981079" lon="34.997367859">
  <ele>34.493469</ele>
  <time>2011-10-13T05:19:35Z</time>
  <speed>4.970000</speed>
</trkpt>
<trkpt lat="32.589958191" lon="34.997306824">
  <ele>33.924133</ele>
  <time>2011-10-13T05:19:36Z</time>
  <speed>5.440000</speed>
</trkpt>
<trkpt lat="32.589950562" lon="34.997234344">
  <ele>33.802063</ele>
  <time>2011-10-13T05:19:37Z</time>
  <speed>5.150000</speed>
</trkpt>
<trkpt lat="32.589931488" lon="34.997177124">
  <ele>34.445618</ele>
  <time>2011-10-13T05:19:38Z</time>
  <speed>4.770000</speed>
</trkpt>
<trkpt lat="32.589920044" lon="34.997131348">
  <ele>34.250305</ele>
  <time>2011-10-13T05:19:39Z</time>
  <speed>4.570000</speed>
</trkpt>
<trkpt lat="32.589900970" lon="34.997077942">
  <ele>34.042297</ele>
  <time>2011-10-13T05:19:40Z</time>
  <speed>4.790000</speed>
</trkpt>
<trkpt lat="32.589897156" lon="34.997020721">
  <ele>34.331360</ele>
  <time>2011-10-13T05:19:41Z</time>
  <speed>4.580000</speed>
</trkpt>
<trkpt lat="32.589881897" lon="34.996971130">
  <ele>34.543274</ele>
  <time>2011-10-13T05:19:42Z</time>
  <speed>4.560000</speed>
</trkpt>
<trkpt lat="32.589862823" lon="34.996932983">
  <ele>35.209290</ele>
  <time>2011-10-13T05:19:43Z</time>
  <speed>4.540000</speed>
</trkpt>
<trkpt lat="32.589851379" lon="34.996879578">
  <ele>35.355774</ele>
  <time>2011-10-13T05:19:44Z</time>
  <speed>4.710000</speed>
</trkpt>
<trkpt lat="32.589832306" lon="34.996829987">
  <ele>35.274719</ele>
  <time>2011-10-13T05:19:45Z</time>
  <speed>5.120000</speed>
</trkpt>
<trkpt lat="32.589813232" lon="34.996788025">
  <ele>35.270813</ele>
  <time>2011-10-13T05:19:46Z</time>
  <speed>5.030000</speed>
</trkpt>
<trkpt lat="32.589790344" lon="34.996738434">
  <ele>35.038391</ele>
  <time>2011-10-13T05:19:47Z</time>
  <speed>5.000000</speed>
</trkpt>
<trkpt lat="32.589771271" lon="34.996681213">
  <ele>35.016907</ele>
  <time>2011-10-13T05:19:48Z</time>
  <speed>5.000000</speed>
</trkpt>
<trkpt lat="32.589748383" lon="34.996631622">
  <ele>35.063782</ele>
  <time>2011-10-13T05:19:49Z</time>
  <speed>4.930000</speed>
</trkpt>
<trkpt lat="32.589733124" lon="34.996589661">
  <ele>35.069641</ele>
  <time>2011-10-13T05:19:50Z</time>
  <speed>4.540000</speed>
</trkpt>
<trkpt lat="32.589717865" lon="34.996555328">
  <ele>34.741516</ele>
  <time>2011-10-13T05:19:51Z</time>
  <speed>4.250000</speed>
</trkpt>
<trkpt lat="32.589702606" lon="34.996505737">
  <ele>34.622375</ele>
  <time>2011-10-13T05:19:52Z</time>
  <speed>4.980000</speed>
</trkpt>
<trkpt lat="32.589683533" lon="34.996452332">
  <ele>34.908508</ele>
  <time>2011-10-13T05:19:53Z</time>
  <speed>5.180000</speed>
</trkpt>
<trkpt lat="32.589660645" lon="34.996402740">
  <ele>34.876282</ele>
  <time>2011-10-13T05:19:54Z</time>
  <speed>5.090000</speed>
</trkpt>
<trkpt lat="32.589637756" lon="34.996353149">
  <ele>35.801086</ele>
  <time>2011-10-13T05:19:55Z</time>
  <speed>5.140000</speed>
</trkpt>
<trkpt lat="32.589607239" lon="34.996307373">
  <ele>35.496399</ele>
  <time>2011-10-13T05:19:56Z</time>
  <speed>4.950000</speed>
</trkpt>
<trkpt lat="32.589584351" lon="34.996253967">
  <ele>35.808899</ele>
  <time>2011-10-13T05:19:57Z</time>
  <speed>5.260000</speed>
</trkpt>
<trkpt lat="32.589565277" lon="34.996204376">
  <ele>35.757141</ele>
  <time>2011-10-13T05:19:58Z</time>
  <speed>5.040000</speed>
</trkpt>
<trkpt lat="32.589546204" lon="34.996154785">
  <ele>36.069641</ele>
  <time>2011-10-13T05:19:59Z</time>
  <speed>5.220000</speed>
</trkpt>
<trkpt lat="32.589523315" lon="34.996105194">
  <ele>35.981750</ele>
  <time>2011-10-13T05:20:00Z</time>
  <speed>5.140000</speed>
</trkpt>
<trkpt lat="32.589500427" lon="34.996051788">
  <ele>35.940735</ele>
  <time>2011-10-13T05:20:01Z</time>
  <speed>5.030000</speed>
</trkpt>
<trkpt lat="32.589481354" lon="34.996006012">
  <ele>35.942688</ele>
  <time>2011-10-13T05:20:02Z</time>
  <speed>4.940000</speed>
</trkpt>
<trkpt lat="32.589458466" lon="34.995956421">
  <ele>36.086243</ele>
  <time>2011-10-13T05:20:03Z</time>
  <speed>4.750000</speed>
</trkpt>
<trkpt lat="32.589443207" lon="34.995895386">
  <ele>36.960266</ele>
  <time>2011-10-13T05:20:04Z</time>
  <speed>5.030000</speed>
</trkpt>
<trkpt lat="32.589416504" lon="34.995849609">
  <ele>37.044250</ele>
  <time>2011-10-13T05:20:05Z</time>
  <speed>4.910000</speed>
</trkpt>
<trkpt lat="32.589393616" lon="34.995811462">
  <ele>37.507141</ele>
  <time>2011-10-13T05:20:06Z</time>
  <speed>4.820000</speed>
</trkpt>
<trkpt lat="32.589370728" lon="34.995761871">
  <ele>37.890930</ele>
  <time>2011-10-13T05:20:07Z</time>
  <speed>4.980000</speed>
</trkpt>
<trkpt lat="32.589347839" lon="34.995712280">
  <ele>38.419250</ele>
  <time>2011-10-13T05:20:08Z</time>
  <speed>5.160000</speed>
</trkpt>
<trkpt lat="32.589321136" lon="34.995674133">
  <ele>38.468079</ele>
  <time>2011-10-13T05:20:09Z</time>
  <speed>4.920000</speed>
</trkpt>
<trkpt lat="32.589294434" lon="34.995632172">
  <ele>38.754211</ele>
  <time>2011-10-13T05:20:10Z</time>
  <speed>4.900000</speed>
</trkpt>
<trkpt lat="32.589260101" lon="34.995594025">
  <ele>39.191711</ele>
  <time>2011-10-13T05:20:11Z</time>
  <speed>5.030000</speed>
</trkpt>
<trkpt lat="32.589233398" lon="34.995559692">
  <ele>39.591125</ele>
  <time>2011-10-13T05:20:12Z</time>
  <speed>4.780000</speed>
</trkpt>
<trkpt lat="32.589202881" lon="34.995525360">
  <ele>39.864563</ele>
  <time>2011-10-13T05:20:13Z</time>
  <speed>4.770000</speed>
</trkpt>
<trkpt lat="32.589172363" lon="34.995487213">
  <ele>40.138000</ele>
  <time>2011-10-13T05:20:14Z</time>
  <speed>4.870000</speed>
</trkpt>
<trkpt lat="32.589145660" lon="34.995441437">
  <ele>40.823547</ele>
  <time>2011-10-13T05:20:15Z</time>
  <speed>4.700000</speed>
</trkpt>
<trkpt lat="32.589118958" lon="34.995403290">
  <ele>40.951477</ele>
  <time>2011-10-13T05:20:16Z</time>
  <speed>4.860000</speed>
</trkpt>
<trkpt lat="32.589088440" lon="34.995365143">
  <ele>41.134094</ele>
  <time>2011-10-13T05:20:17Z</time>
  <speed>4.930000</speed>
</trkpt>
<trkpt lat="32.589054108" lon="34.995326996">
  <ele>41.290344</ele>
  <time>2011-10-13T05:20:18Z</time>
  <speed>4.940000</speed>
</trkpt>
<trkpt lat="32.589019775" lon="34.995288849">
  <ele>41.157532</ele>
  <time>2011-10-13T05:20:19Z</time>
  <speed>4.840000</speed>
</trkpt>
<trkpt lat="32.588989258" lon="34.995250702">
  <ele>41.231750</ele>
  <time>2011-10-13T05:20:20Z</time>
  <speed>4.690000</speed>
</trkpt>
<trkpt lat="32.588954926" lon="34.995216370">
  <ele>41.846008</ele>
  <time>2011-10-13T05:20:21Z</time>
  <speed>4.760000</speed>
</trkpt>
<trkpt lat="32.588920593" lon="34.995182037">
  <ele>42.119446</ele>
  <time>2011-10-13T05:20:22Z</time>
  <speed>4.800000</speed>
</trkpt>
<trkpt lat="32.588893890" lon="34.995143890">
  <ele>42.467102</ele>
  <time>2011-10-13T05:20:23Z</time>
  <speed>4.460000</speed>
</trkpt>
<trkpt lat="32.588863373" lon="34.995113373">
  <ele>42.400696</ele>
  <time>2011-10-13T05:20:24Z</time>
  <speed>4.360000</speed>
</trkpt>
<trkpt lat="32.588836670" lon="34.995082855">
  <ele>42.445618</ele>
  <time>2011-10-13T05:20:25Z</time>
  <speed>4.150000</speed>
</trkpt>
<trkpt lat="32.588802338" lon="34.995048523">
  <ele>42.611633</ele>
  <time>2011-10-13T05:20:26Z</time>
  <speed>4.560000</speed>
</trkpt>
<trkpt lat="32.588771820" lon="34.995014191">
  <ele>43.149719</ele>
  <time>2011-10-13T05:20:27Z</time>
  <speed>4.600000</speed>
</trkpt>
<trkpt lat="32.588741302" lon="34.994987488">
  <ele>43.018860</ele>
  <time>2011-10-13T05:20:28Z</time>
  <speed>3.870000</speed>
</trkpt>
<trkpt lat="32.588714600" lon="34.994960785">
  <ele>43.932922</ele>
  <time>2011-10-13T05:20:29Z</time>
  <speed>4.010000</speed>
</trkpt>
<trkpt lat="32.588684082" lon="34.994934082">
  <ele>44.370422</ele>
  <time>2011-10-13T05:20:30Z</time>
  <speed>4.260000</speed>
</trkpt>
<trkpt lat="32.588653564" lon="34.994907379">
  <ele>45.207336</ele>
  <time>2011-10-13T05:20:31Z</time>
  <speed>4.040000</speed>
</trkpt>
<trkpt lat="32.588619232" lon="34.994892120">
  <ele>45.584290</ele>
  <time>2011-10-13T05:20:32Z</time>
  <speed>3.770000</speed>
</trkpt>
<trkpt lat="32.588584900" lon="34.994873047">
  <ele>45.665344</ele>
  <time>2011-10-13T05:20:33Z</time>
  <speed>3.730000</speed>
</trkpt>
<trkpt lat="32.588558197" lon="34.994857788">
  <ele>46.132141</ele>
  <time>2011-10-13T05:20:34Z</time>
  <speed>3.840000</speed>
</trkpt>
<trkpt lat="32.588527679" lon="34.994834900">
  <ele>46.528625</ele>
  <time>2011-10-13T05:20:35Z</time>
  <speed>3.620000</speed>
</trkpt>
<trkpt lat="32.588497162" lon="34.994804382">
  <ele>47.893860</ele>
  <time>2011-10-13T05:20:36Z</time>
  <speed>3.980000</speed>
</trkpt>
<trkpt lat="32.588466644" lon="34.994781494">
  <ele>47.552063</ele>
  <time>2011-10-13T05:20:37Z</time>
  <speed>3.840000</speed>
</trkpt>
<trkpt lat="32.588436127" lon="34.994762421">
  <ele>47.761047</ele>
  <time>2011-10-13T05:20:38Z</time>
  <speed>3.890000</speed>
</trkpt>
<trkpt lat="32.588409424" lon="34.994743347">
  <ele>48.182922</ele>
  <time>2011-10-13T05:20:39Z</time>
  <speed>3.930000</speed>
</trkpt>
<trkpt lat="32.588378906" lon="34.994712830">
  <ele>48.701477</ele>
  <time>2011-10-13T05:20:40Z</time>
  <speed>3.760000</speed>
</trkpt>
<trkpt lat="32.588352203" lon="34.994693756">
  <ele>49.107727</ele>
  <time>2011-10-13T05:20:41Z</time>
  <speed>3.590000</speed>
</trkpt>
<trkpt lat="32.588321686" lon="34.994670868">
  <ele>49.073547</ele>
  <time>2011-10-13T05:20:42Z</time>
  <speed>3.380000</speed>
</trkpt>
<trkpt lat="32.588298798" lon="34.994651794">
  <ele>49.324524</ele>
  <time>2011-10-13T05:20:43Z</time>
  <speed>3.730000</speed>
</trkpt>
<trkpt lat="32.588272095" lon="34.994632721">
  <ele>50.110657</ele>
  <time>2011-10-13T05:20:44Z</time>
  <speed>3.730000</speed>
</trkpt>
<trkpt lat="32.588241577" lon="34.994617462">
  <ele>49.972961</ele>
  <time>2011-10-13T05:20:45Z</time>
  <speed>3.900000</speed>
</trkpt>
<trkpt lat="32.588211060" lon="34.994598389">
  <ele>50.569641</ele>
  <time>2011-10-13T05:20:46Z</time>
  <speed>3.610000</speed>
</trkpt>
<trkpt lat="32.588184357" lon="34.994579315">
  <ele>51.001282</ele>
  <time>2011-10-13T05:20:47Z</time>
  <speed>3.540000</speed>
</trkpt>
<trkpt lat="32.588142395" lon="34.994541168">
  <ele>52.147766</ele>
  <time>2011-10-13T05:20:49Z</time>
  <speed>3.310000</speed>
</trkpt>
<trkpt lat="32.588123322" lon="34.994522095">
  <ele>52.791321</ele>
  <time>2011-10-13T05:20:50Z</time>
  <speed>3.140000</speed>
</trkpt>
<trkpt lat="32.588100433" lon="34.994499207">
  <ele>53.489563</ele>
  <time>2011-10-13T05:20:51Z</time>
  <speed>3.600000</speed>
</trkpt>
<trkpt lat="32.588073730" lon="34.994476318">
  <ele>53.797180</ele>
  <time>2011-10-13T05:20:52Z</time>
  <speed>3.460000</speed>
</trkpt>
<trkpt lat="32.588047028" lon="34.994453430">
  <ele>54.258118</ele>
  <time>2011-10-13T05:20:53Z</time>
  <speed>3.450000</speed>
</trkpt>
<trkpt lat="32.588024139" lon="34.994430542">
  <ele>54.541321</ele>
  <time>2011-10-13T05:20:54Z</time>
  <speed>3.020000</speed>
</trkpt>
<trkpt lat="32.588005066" lon="34.994407654">
  <ele>54.849915</ele>
  <time>2011-10-13T05:20:55Z</time>
  <speed>3.090000</speed>
</trkpt>
<trkpt lat="32.587985992" lon="34.994384766">
  <ele>55.731750</ele>
  <time>2011-10-13T05:20:56Z</time>
  <speed>3.020000</speed>
</trkpt>
<trkpt lat="32.587944031" lon="34.994354248">
  <ele>56.846008</ele>
  <time>2011-10-13T05:20:58Z</time>
  <speed>3.220000</speed>
</trkpt>
<trkpt lat="32.587913513" lon="34.994327545">
  <ele>57.689758</ele>
  <time>2011-10-13T05:20:59Z</time>
  <speed>3.220000</speed>
</trkpt>
<trkpt lat="32.587890625" lon="34.994308472">
  <ele>58.050110</ele>
  <time>2011-10-13T05:21:00Z</time>
  <speed>3.200000</speed>
</trkpt>
<trkpt lat="32.587848663" lon="34.994270325">
  <ele>58.742493</ele>
  <time>2011-10-13T05:21:02Z</time>
  <speed>2.880000</speed>
</trkpt>
<trkpt lat="32.587810516" lon="34.994224548">
  <ele>59.762024</ele>
  <time>2011-10-13T05:21:04Z</time>
  <speed>2.610000</speed>
</trkpt>
<trkpt lat="32.587772369" lon="34.994194031">
  <ele>60.252258</ele>
  <time>2011-10-13T05:21:06Z</time>
  <speed>2.460000</speed>
</trkpt>
<trkpt lat="32.587738037" lon="34.994148254">
  <ele>60.476868</ele>
  <time>2011-10-13T05:21:08Z</time>
  <speed>2.900000</speed>
</trkpt>
<trkpt lat="32.587703705" lon="34.994106293">
  <ele>60.282532</ele>
  <time>2011-10-13T05:21:10Z</time>
  <speed>2.360000</speed>
</trkpt>
<trkpt lat="32.587677002" lon="34.994079590">
  <ele>60.915344</ele>
  <time>2011-10-13T05:21:12Z</time>
  <speed>2.290000</speed>
</trkpt>
<trkpt lat="32.587642670" lon="34.994045258">
  <ele>61.539368</ele>
  <time>2011-10-13T05:21:14Z</time>
  <speed>2.320000</speed>
</trkpt>
<trkpt lat="32.587604523" lon="34.994010925">
  <ele>61.729797</ele>
  <time>2011-10-13T05:21:16Z</time>
  <speed>2.860000</speed>
</trkpt>
<trkpt lat="32.587581635" lon="34.993991852">
  <ele>61.654602</ele>
  <time>2011-10-13T05:21:17Z</time>
  <speed>3.060000</speed>
</trkpt>
<trkpt lat="32.587551117" lon="34.993972778">
  <ele>61.916321</ele>
  <time>2011-10-13T05:21:18Z</time>
  <speed>2.760000</speed>
</trkpt>
<trkpt lat="32.587524414" lon="34.993957520">
  <ele>62.110657</ele>
  <time>2011-10-13T05:21:19Z</time>
  <speed>2.940000</speed>
</trkpt>
<trkpt lat="32.587493896" lon="34.993942261">
  <ele>62.136047</ele>
  <time>2011-10-13T05:21:20Z</time>
  <speed>3.150000</speed>
</trkpt>
<trkpt lat="32.587467194" lon="34.993930817">
  <ele>62.291321</ele>
  <time>2011-10-13T05:21:21Z</time>
  <speed>3.180000</speed>
</trkpt>
<trkpt lat="32.587417603" lon="34.993892670">
  <ele>62.208313</ele>
  <time>2011-10-13T05:21:23Z</time>
  <speed>3.120000</speed>
</trkpt>
<trkpt lat="32.587394714" lon="34.993877411">
  <ele>62.417297</ele>
  <time>2011-10-13T05:21:24Z</time>
  <speed>3.170000</speed>
</trkpt>
<trkpt lat="32.587352753" lon="34.993846893">
  <ele>62.608704</ele>
  <time>2011-10-13T05:21:26Z</time>
  <speed>2.380000</speed>
</trkpt>
<trkpt lat="32.587310791" lon="34.993831635">
  <ele>63.076477</ele>
  <time>2011-10-13T05:21:28Z</time>
  <speed>2.280000</speed>
</trkpt>
<trkpt lat="32.587268829" lon="34.993801117">
  <ele>63.120422</ele>
  <time>2011-10-13T05:21:30Z</time>
  <speed>2.670000</speed>
</trkpt>
<trkpt lat="32.587230682" lon="34.993762970">
  <ele>63.350891</ele>
  <time>2011-10-13T05:21:32Z</time>
  <speed>2.800000</speed>
</trkpt>
<trkpt lat="32.587188721" lon="34.993721008">
  <ele>63.685852</ele>
  <time>2011-10-13T05:21:34Z</time>
  <speed>3.230000</speed>
</trkpt>
<trkpt lat="32.587162018" lon="34.993698120">
  <ele>63.496399</ele>
  <time>2011-10-13T05:21:35Z</time>
  <speed>3.550000</speed>
</trkpt>
<trkpt lat="32.587139130" lon="34.993675232">
  <ele>63.418274</ele>
  <time>2011-10-13T05:21:36Z</time>
  <speed>3.470000</speed>
</trkpt>
<trkpt lat="32.587112427" lon="34.993644714">
  <ele>63.031555</ele>
  <time>2011-10-13T05:21:37Z</time>
  <speed>3.320000</speed>
</trkpt>
<trkpt lat="32.587089539" lon="34.993621826">
  <ele>62.789368</ele>
  <time>2011-10-13T05:21:38Z</time>
  <speed>3.280000</speed>
</trkpt>
<trkpt lat="32.587066650" lon="34.993595123">
  <ele>62.512024</ele>
  <time>2011-10-13T05:21:39Z</time>
  <speed>3.580000</speed>
</trkpt>
<trkpt lat="32.587039948" lon="34.993568420">
  <ele>61.434875</ele>
  <time>2011-10-13T05:21:40Z</time>
  <speed>3.670000</speed>
</trkpt>
<trkpt lat="32.587013245" lon="34.993537903">
  <ele>60.982727</ele>
  <time>2011-10-13T05:21:41Z</time>
  <speed>4.030000</speed>
</trkpt>
<trkpt lat="32.586986542" lon="34.993503571">
  <ele>60.324524</ele>
  <time>2011-10-13T05:21:42Z</time>
  <speed>4.050000</speed>
</trkpt>
<trkpt lat="32.586959839" lon="34.993469238">
  <ele>59.879211</ele>
  <time>2011-10-13T05:21:43Z</time>
  <speed>4.200000</speed>
</trkpt>
<trkpt lat="32.586933136" lon="34.993438721">
  <ele>59.286438</ele>
  <time>2011-10-13T05:21:44Z</time>
  <speed>4.110000</speed>
</trkpt>
<trkpt lat="32.586910248" lon="34.993408203">
  <ele>58.658508</ele>
  <time>2011-10-13T05:21:45Z</time>
  <speed>3.950000</speed>
</trkpt>
<trkpt lat="32.586883545" lon="34.993377686">
  <ele>58.096985</ele>
  <time>2011-10-13T05:21:46Z</time>
  <speed>4.190000</speed>
</trkpt>
<trkpt lat="32.586856842" lon="34.993343353">
  <ele>57.724915</ele>
  <time>2011-10-13T05:21:47Z</time>
  <speed>4.220000</speed>
</trkpt>
<trkpt lat="32.586826324" lon="34.993312836">
  <ele>57.369446</ele>
  <time>2011-10-13T05:21:48Z</time>
  <speed>4.080000</speed>
</trkpt>
<trkpt lat="32.586799622" lon="34.993274689">
  <ele>57.088196</ele>
  <time>2011-10-13T05:21:49Z</time>
  <speed>3.980000</speed>
</trkpt>
<trkpt lat="32.586776733" lon="34.993244171">
  <ele>56.661438</ele>
  <time>2011-10-13T05:21:50Z</time>
  <speed>4.110000</speed>
</trkpt>
<trkpt lat="32.586753845" lon="34.993213654">
  <ele>56.517883</ele>
  <time>2011-10-13T05:21:51Z</time>
  <speed>3.850000</speed>
</trkpt>
<trkpt lat="32.586730957" lon="34.993186951">
  <ele>56.425110</ele>
  <time>2011-10-13T05:21:52Z</time>
  <speed>3.390000</speed>
</trkpt>
<trkpt lat="32.586715698" lon="34.993160248">
  <ele>56.240540</ele>
  <time>2011-10-13T05:21:53Z</time>
  <speed>3.200000</speed>
</trkpt>
<trkpt lat="32.586692810" lon="34.993137360">
  <ele>56.146790</ele>
  <time>2011-10-13T05:21:54Z</time>
  <speed>2.880000</speed>
</trkpt>
<trkpt lat="32.586654663" lon="34.993091583">
  <ele>55.979797</ele>
  <time>2011-10-13T05:21:56Z</time>
  <speed>3.140000</speed>
</trkpt>
<trkpt lat="32.586635590" lon="34.993064880">
  <ele>56.031555</ele>
  <time>2011-10-13T05:21:57Z</time>
  <speed>3.270000</speed>
</trkpt>
<trkpt lat="32.586612701" lon="34.993041992">
  <ele>55.628235</ele>
  <time>2011-10-13T05:21:58Z</time>
  <speed>2.840000</speed>
</trkpt>
<trkpt lat="32.586570740" lon="34.993003845">
  <ele>55.071594</ele>
  <time>2011-10-13T05:22:00Z</time>
  <speed>2.870000</speed>
</trkpt>
<trkpt lat="32.586528778" lon="34.992961884">
  <ele>54.698547</ele>
  <time>2011-10-13T05:22:02Z</time>
  <speed>3.020000</speed>
</trkpt>
<trkpt lat="32.586509705" lon="34.992938995">
  <ele>54.944641</ele>
  <time>2011-10-13T05:22:03Z</time>
  <speed>2.890000</speed>
</trkpt>
<trkpt lat="32.586490631" lon="34.992912292">
  <ele>54.895813</ele>
  <time>2011-10-13T05:22:04Z</time>
  <speed>3.030000</speed>
</trkpt>
<trkpt lat="32.586460114" lon="34.992885590">
  <ele>54.333313</ele>
  <time>2011-10-13T05:22:05Z</time>
  <speed>3.320000</speed>
</trkpt>
<trkpt lat="32.586437225" lon="34.992858887">
  <ele>54.218079</ele>
  <time>2011-10-13T05:22:06Z</time>
  <speed>3.290000</speed>
</trkpt>
<trkpt lat="32.586414337" lon="34.992820740">
  <ele>54.256165</ele>
  <time>2011-10-13T05:22:07Z</time>
  <speed>3.510000</speed>
</trkpt>
<trkpt lat="32.586391449" lon="34.992797852">
  <ele>54.362610</ele>
  <time>2011-10-13T05:22:08Z</time>
  <speed>2.910000</speed>
</trkpt>
<trkpt lat="32.586368561" lon="34.992778778">
  <ele>54.779602</ele>
  <time>2011-10-13T05:22:09Z</time>
  <speed>3.070000</speed>
</trkpt>
<trkpt lat="32.586341858" lon="34.992759705">
  <ele>55.199524</ele>
  <time>2011-10-13T05:22:10Z</time>
  <speed>3.680000</speed>
</trkpt>
<trkpt lat="32.586318970" lon="34.992733002">
  <ele>55.452454</ele>
  <time>2011-10-13T05:22:11Z</time>
  <speed>3.270000</speed>
</trkpt>
<trkpt lat="32.586299896" lon="34.992710114">
  <ele>55.398743</ele>
  <time>2011-10-13T05:22:12Z</time>
  <speed>3.190000</speed>
</trkpt>
<trkpt lat="32.586265564" lon="34.992664337">
  <ele>55.865540</ele>
  <time>2011-10-13T05:22:14Z</time>
  <speed>3.210000</speed>
</trkpt>
<trkpt lat="32.586242676" lon="34.992641449">
  <ele>56.170227</ele>
  <time>2011-10-13T05:22:15Z</time>
  <speed>3.310000</speed>
</trkpt>
<trkpt lat="32.586219788" lon="34.992614746">
  <ele>56.187805</ele>
  <time>2011-10-13T05:22:16Z</time>
  <speed>3.540000</speed>
</trkpt>
<trkpt lat="32.586196899" lon="34.992584229">
  <ele>56.976868</ele>
  <time>2011-10-13T05:22:17Z</time>
  <speed>3.470000</speed>
</trkpt>
<trkpt lat="32.586174011" lon="34.992561340">
  <ele>57.303040</ele>
  <time>2011-10-13T05:22:18Z</time>
  <speed>3.580000</speed>
</trkpt>
<trkpt lat="32.586147308" lon="34.992534637">
  <ele>57.554016</ele>
  <time>2011-10-13T05:22:19Z</time>
  <speed>3.510000</speed>
</trkpt>
<trkpt lat="32.586120605" lon="34.992515564">
  <ele>58.060852</ele>
  <time>2011-10-13T05:22:20Z</time>
  <speed>3.510000</speed>
</trkpt>
<trkpt lat="32.586097717" lon="34.992492676">
  <ele>58.644836</ele>
  <time>2011-10-13T05:22:21Z</time>
  <speed>3.460000</speed>
</trkpt>
<trkpt lat="32.586067200" lon="34.992465973">
  <ele>58.980774</ele>
  <time>2011-10-13T05:22:22Z</time>
  <speed>3.740000</speed>
</trkpt>
<trkpt lat="32.586044312" lon="34.992446899">
  <ele>59.469055</ele>
  <time>2011-10-13T05:22:23Z</time>
  <speed>3.610000</speed>
</trkpt>
<trkpt lat="32.586013794" lon="34.992424011">
  <ele>59.896790</ele>
  <time>2011-10-13T05:22:24Z</time>
  <speed>3.660000</speed>
</trkpt>
<trkpt lat="32.585990906" lon="34.992401123">
  <ele>60.101868</ele>
  <time>2011-10-13T05:22:25Z</time>
  <speed>3.500000</speed>
</trkpt>
<trkpt lat="32.585964203" lon="34.992382050">
  <ele>59.910461</ele>
  <time>2011-10-13T05:22:26Z</time>
  <speed>3.530000</speed>
</trkpt>
<trkpt lat="32.585941315" lon="34.992355347">
  <ele>60.370422</ele>
  <time>2011-10-13T05:22:27Z</time>
  <speed>3.480000</speed>
</trkpt>
<trkpt lat="32.585918427" lon="34.992324829">
  <ele>60.621399</ele>
  <time>2011-10-13T05:22:28Z</time>
  <speed>3.330000</speed>
</trkpt>
<trkpt lat="32.585895538" lon="34.992301941">
  <ele>60.704407</ele>
  <time>2011-10-13T05:22:29Z</time>
  <speed>3.540000</speed>
</trkpt>
<trkpt lat="32.585872650" lon="34.992279053">
  <ele>60.858704</ele>
  <time>2011-10-13T05:22:30Z</time>
  <speed>3.540000</speed>
</trkpt>
<trkpt lat="32.585845947" lon="34.992256165">
  <ele>60.648743</ele>
  <time>2011-10-13T05:22:31Z</time>
  <speed>3.470000</speed>
</trkpt>
<trkpt lat="32.585823059" lon="34.992233276">
  <ele>61.194641</ele>
  <time>2011-10-13T05:22:32Z</time>
  <speed>3.430000</speed>
</trkpt>
<trkpt lat="32.585803986" lon="34.992210388">
  <ele>61.476868</ele>
  <time>2011-10-13T05:22:33Z</time>
  <speed>3.300000</speed>
</trkpt>
<trkpt lat="32.585781097" lon="34.992187500">
  <ele>61.359680</ele>
  <time>2011-10-13T05:22:34Z</time>
  <speed>3.140000</speed>
</trkpt>
<trkpt lat="32.585758209" lon="34.992160797">
  <ele>62.445618</ele>
  <time>2011-10-13T05:22:35Z</time>
  <speed>3.430000</speed>
</trkpt>
<trkpt lat="32.585731506" lon="34.992134094">
  <ele>62.328430</ele>
  <time>2011-10-13T05:22:36Z</time>
  <speed>3.460000</speed>
</trkpt>
<trkpt lat="32.585708618" lon="34.992111206">
  <ele>62.647766</ele>
  <time>2011-10-13T05:22:37Z</time>
  <speed>3.660000</speed>
</trkpt>
<trkpt lat="32.585678101" lon="34.992088318">
  <ele>63.088196</ele>
  <time>2011-10-13T05:22:38Z</time>
  <speed>3.480000</speed>
</trkpt>
<trkpt lat="32.585655212" lon="34.992069244">
  <ele>63.441711</ele>
  <time>2011-10-13T05:22:39Z</time>
  <speed>3.040000</speed>
</trkpt>
<trkpt lat="32.585628510" lon="34.992046356">
  <ele>63.528625</ele>
  <time>2011-10-13T05:22:40Z</time>
  <speed>2.900000</speed>
</trkpt>
<trkpt lat="32.585605621" lon="34.992023468">
  <ele>62.820618</ele>
  <time>2011-10-13T05:22:41Z</time>
  <speed>2.830000</speed>
</trkpt>
<trkpt lat="32.585582733" lon="34.992000580">
  <ele>63.448547</ele>
  <time>2011-10-13T05:22:42Z</time>
  <speed>3.380000</speed>
</trkpt>
<trkpt lat="32.585559845" lon="34.991977692">
  <ele>63.632141</ele>
  <time>2011-10-13T05:22:43Z</time>
  <speed>3.830000</speed>
</trkpt>
<trkpt lat="32.585536957" lon="34.991954803">
  <ele>63.339172</ele>
  <time>2011-10-13T05:22:44Z</time>
  <speed>2.930000</speed>
</trkpt>
<trkpt lat="32.585517883" lon="34.991931915">
  <ele>63.496399</ele>
  <time>2011-10-13T05:22:45Z</time>
  <speed>2.930000</speed>
</trkpt>
<trkpt lat="32.585472107" lon="34.991897583">
  <ele>63.541321</ele>
  <time>2011-10-13T05:22:47Z</time>
  <speed>3.380000</speed>
</trkpt>
<trkpt lat="32.585445404" lon="34.991882324">
  <ele>64.045532</ele>
  <time>2011-10-13T05:22:48Z</time>
  <speed>3.480000</speed>
</trkpt>
<trkpt lat="32.585422516" lon="34.991867065">
  <ele>64.848267</ele>
  <time>2011-10-13T05:22:49Z</time>
  <speed>3.140000</speed>
</trkpt>
<trkpt lat="32.585380554" lon="34.991832733">
  <ele>65.981079</ele>
  <time>2011-10-13T05:22:51Z</time>
  <speed>2.570000</speed>
</trkpt>
<trkpt lat="32.585342407" lon="34.991802216">
  <ele>64.863892</ele>
  <time>2011-10-13T05:22:53Z</time>
  <speed>1.820000</speed>
</trkpt>
<trkpt lat="32.585308075" lon="34.991798401">
  <ele>63.939758</ele>
  <time>2011-10-13T05:22:55Z</time>
  <speed>1.990000</speed>
</trkpt>
<trkpt lat="32.585273743" lon="34.991794586">
  <ele>64.301392</ele>
  <time>2011-10-13T05:22:57Z</time>
  <speed>2.210000</speed>
</trkpt>
<trkpt lat="32.585235596" lon="34.991809845">
  <ele>63.069641</ele>
  <time>2011-10-13T05:22:59Z</time>
  <speed>2.470000</speed>
</trkpt>
<trkpt lat="32.585197449" lon="34.991836548">
  <ele>63.723938</ele>
  <time>2011-10-13T05:23:01Z</time>
  <speed>2.700000</speed>
</trkpt>
<trkpt lat="32.585170746" lon="34.991859436">
  <ele>64.262329</ele>
  <time>2011-10-13T05:23:02Z</time>
  <speed>3.040000</speed>
</trkpt>
<trkpt lat="32.585151672" lon="34.991878510">
  <ele>64.406860</ele>
  <time>2011-10-13T05:23:03Z</time>
  <speed>3.230000</speed>
</trkpt>
<trkpt lat="32.585128784" lon="34.991901398">
  <ele>64.184204</ele>
  <time>2011-10-13T05:23:04Z</time>
  <speed>3.320000</speed>
</trkpt>
<trkpt lat="32.585109711" lon="34.991928101">
  <ele>64.104126</ele>
  <time>2011-10-13T05:23:05Z</time>
  <speed>3.230000</speed>
</trkpt>
<trkpt lat="32.585086823" lon="34.991958618">
  <ele>63.818665</ele>
  <time>2011-10-13T05:23:06Z</time>
  <speed>3.490000</speed>
</trkpt>
<trkpt lat="32.585067749" lon="34.991989136">
  <ele>63.606750</ele>
  <time>2011-10-13T05:23:07Z</time>
  <speed>3.000000</speed>
</trkpt>
<trkpt lat="32.585052490" lon="34.992042542">
  <ele>63.524719</ele>
  <time>2011-10-13T05:23:09Z</time>
  <speed>2.340000</speed>
</trkpt>
<trkpt lat="32.585044861" lon="34.992099762">
  <ele>62.970032</ele>
  <time>2011-10-13T05:23:11Z</time>
  <speed>2.670000</speed>
</trkpt>
<trkpt lat="32.585029602" lon="34.992156982">
  <ele>63.610657</ele>
  <time>2011-10-13T05:23:13Z</time>
  <speed>2.670000</speed>
</trkpt>
<trkpt lat="32.585029602" lon="34.992210388">
  <ele>63.871399</ele>
  <time>2011-10-13T05:23:15Z</time>
  <speed>2.390000</speed>
</trkpt>
<trkpt lat="32.585029602" lon="34.992263794">
  <ele>64.381470</ele>
  <time>2011-10-13T05:23:17Z</time>
  <speed>2.440000</speed>
</trkpt>
<trkpt lat="32.585041046" lon="34.992321014">
  <ele>64.797485</ele>
  <time>2011-10-13T05:23:19Z</time>
  <speed>2.290000</speed>
</trkpt>
<trkpt lat="32.585041046" lon="34.992362976">
  <ele>65.705688</ele>
  <time>2011-10-13T05:23:21Z</time>
  <speed>1.840000</speed>
</trkpt>
<trkpt lat="32.585025787" lon="34.992397308">
  <ele>64.619751</ele>
  <time>2011-10-13T05:23:23Z</time>
  <speed>1.810000</speed>
</trkpt>
<trkpt lat="32.585006714" lon="34.992431641">
  <ele>65.586548</ele>
  <time>2011-10-13T05:23:25Z</time>
  <speed>2.120000</speed>
</trkpt>
<trkpt lat="32.584983826" lon="34.992473602">
  <ele>65.283813</ele>
  <time>2011-10-13T05:23:27Z</time>
  <speed>2.370000</speed>
</trkpt>
<trkpt lat="32.584960938" lon="34.992504120">
  <ele>65.365845</ele>
  <time>2011-10-13T05:23:29Z</time>
  <speed>1.750000</speed>
</trkpt>
<trkpt lat="32.584960938" lon="34.992538452">
  <ele>65.820923</ele>
  <time>2011-10-13T05:23:31Z</time>
  <speed>1.990000</speed>
</trkpt>
<trkpt lat="32.584968567" lon="34.992576599">
  <ele>66.539673</ele>
  <time>2011-10-13T05:23:33Z</time>
  <speed>1.590000</speed>
</trkpt>
<trkpt lat="32.584999084" lon="34.992591858">
  <ele>67.393188</ele>
  <time>2011-10-13T05:23:35Z</time>
  <speed>1.900000</speed>
</trkpt>
<trkpt lat="32.585037231" lon="34.992603302">
  <ele>67.141235</ele>
  <time>2011-10-13T05:23:37Z</time>
  <speed>1.890000</speed>
</trkpt>
<trkpt lat="32.585079193" lon="34.992614746">
  <ele>67.363892</ele>
  <time>2011-10-13T05:23:39Z</time>
  <speed>1.810000</speed>
</trkpt>
<trkpt lat="32.585105896" lon="34.992626190">
  <ele>67.918579</ele>
  <time>2011-10-13T05:23:41Z</time>
  <speed>2.130000</speed>
</trkpt>
<trkpt lat="32.585144043" lon="34.992649078">
  <ele>67.674438</ele>
  <time>2011-10-13T05:23:43Z</time>
  <speed>1.800000</speed>
</trkpt>
<trkpt lat="32.585166931" lon="34.992671967">
  <ele>68.711548</ele>
  <time>2011-10-13T05:23:45Z</time>
  <speed>1.750000</speed>
</trkpt>
<trkpt lat="32.585201263" lon="34.992694855">
  <ele>68.668579</ele>
  <time>2011-10-13T05:23:47Z</time>
  <speed>1.710000</speed>
</trkpt>
<trkpt lat="32.585224152" lon="34.992710114">
  <ele>68.992798</ele>
  <time>2011-10-13T05:23:49Z</time>
  <speed>1.550000</speed>
</trkpt>
<trkpt lat="32.585243225" lon="34.992736816">
  <ele>69.625610</ele>
  <time>2011-10-13T05:23:51Z</time>
  <speed>1.600000</speed>
</trkpt>
<trkpt lat="32.585269928" lon="34.992774963">
  <ele>69.926392</ele>
  <time>2011-10-13T05:23:53Z</time>
  <speed>1.680000</speed>
</trkpt>
<trkpt lat="32.585285187" lon="34.992809296">
  <ele>70.770142</ele>
  <time>2011-10-13T05:23:55Z</time>
  <speed>1.880000</speed>
</trkpt>
<trkpt lat="32.585296631" lon="34.992847443">
  <ele>70.840454</ele>
  <time>2011-10-13T05:23:57Z</time>
  <speed>1.600000</speed>
</trkpt>
<trkpt lat="32.585292816" lon="34.992877960">
  <ele>71.811157</ele>
  <time>2011-10-13T05:23:59Z</time>
  <speed>1.750000</speed>
</trkpt>
<trkpt lat="32.585292816" lon="34.992919922">
  <ele>72.709595</ele>
  <time>2011-10-13T05:24:01Z</time>
  <speed>1.700000</speed>
</trkpt>
<trkpt lat="32.585292816" lon="34.992958069">
  <ele>73.891235</ele>
  <time>2011-10-13T05:24:03Z</time>
  <speed>1.840000</speed>
</trkpt>
<trkpt lat="32.585289001" lon="34.992996216">
  <ele>74.715454</ele>
  <time>2011-10-13T05:24:05Z</time>
  <speed>1.680000</speed>
</trkpt>
<trkpt lat="32.585289001" lon="34.993030548">
  <ele>75.803345</ele>
  <time>2011-10-13T05:24:07Z</time>
  <speed>1.910000</speed>
</trkpt>
<trkpt lat="32.585296631" lon="34.993068695">
  <ele>75.861938</ele>
  <time>2011-10-13T05:24:09Z</time>
  <speed>1.450000</speed>
</trkpt>
<trkpt lat="32.585304260" lon="34.993106842">
  <ele>76.240845</ele>
  <time>2011-10-13T05:24:11Z</time>
  <speed>1.570000</speed>
</trkpt>
<trkpt lat="32.585327148" lon="34.993137360">
  <ele>76.668579</ele>
  <time>2011-10-13T05:24:13Z</time>
  <speed>1.880000</speed>
</trkpt>
<trkpt lat="32.585346222" lon="34.993167877">
  <ele>77.570923</ele>
  <time>2011-10-13T05:24:15Z</time>
  <speed>1.650000</speed>
</trkpt>
<trkpt lat="32.585372925" lon="34.993198395">
  <ele>77.856079</ele>
  <time>2011-10-13T05:24:17Z</time>
  <speed>1.770000</speed>
</trkpt>
<trkpt lat="32.585388184" lon="34.993225098">
  <ele>77.815063</ele>
  <time>2011-10-13T05:24:19Z</time>
  <speed>1.760000</speed>
</trkpt>
<trkpt lat="32.585407257" lon="34.993259430">
  <ele>78.307251</ele>
  <time>2011-10-13T05:24:21Z</time>
  <speed>1.910000</speed>
</trkpt>
<trkpt lat="32.585418701" lon="34.993297577">
  <ele>77.912720</ele>
  <time>2011-10-13T05:24:23Z</time>
  <speed>1.720000</speed>
</trkpt>
<trkpt lat="32.585430145" lon="34.993328094">
  <ele>77.811157</ele>
  <time>2011-10-13T05:24:25Z</time>
  <speed>1.810000</speed>
</trkpt>
<trkpt lat="32.585456848" lon="34.993358612">
  <ele>77.486938</ele>
  <time>2011-10-13T05:24:27Z</time>
  <speed>1.730000</speed>
</trkpt>
<trkpt lat="32.585472107" lon="34.993389130">
  <ele>78.557251</ele>
  <time>2011-10-13T05:24:29Z</time>
  <speed>1.650000</speed>
</trkpt>
<trkpt lat="32.585483551" lon="34.993423462">
  <ele>78.807251</ele>
  <time>2011-10-13T05:24:31Z</time>
  <speed>1.610000</speed>
</trkpt>
<trkpt lat="32.585498810" lon="34.993469238">
  <ele>80.160767</ele>
  <time>2011-10-13T05:24:34Z</time>
  <speed>1.750000</speed>
</trkpt>
<trkpt lat="32.585506439" lon="34.993507385">
  <ele>80.731079</ele>
  <time>2011-10-13T05:24:36Z</time>
  <speed>1.470000</speed>
</trkpt>
<trkpt lat="32.585494995" lon="34.993537903">
  <ele>80.762329</ele>
  <time>2011-10-13T05:24:38Z</time>
  <speed>1.630000</speed>
</trkpt>
<trkpt lat="32.585483551" lon="34.993572235">
  <ele>82.039673</ele>
  <time>2011-10-13T05:24:40Z</time>
  <speed>1.830000</speed>
</trkpt>
<trkpt lat="32.585487366" lon="34.993606567">
  <ele>82.512329</ele>
  <time>2011-10-13T05:24:42Z</time>
  <speed>1.490000</speed>
</trkpt>
<trkpt lat="32.585491180" lon="34.993644714">
  <ele>82.436157</ele>
  <time>2011-10-13T05:24:44Z</time>
  <speed>1.400000</speed>
</trkpt>
<trkpt lat="32.585498810" lon="34.993675232">
  <ele>83.258423</ele>
  <time>2011-10-13T05:24:46Z</time>
  <speed>1.460000</speed>
</trkpt>
<trkpt lat="32.585510254" lon="34.993721008">
  <ele>83.688110</ele>
  <time>2011-10-13T05:24:48Z</time>
  <speed>2.020000</speed>
</trkpt>
<trkpt lat="32.585514069" lon="34.993755341">
  <ele>84.211548</ele>
  <time>2011-10-13T05:24:50Z</time>
  <speed>1.510000</speed>
</trkpt>
<trkpt lat="32.585517883" lon="34.993785858">
  <ele>84.774048</ele>
  <time>2011-10-13T05:24:52Z</time>
  <speed>1.360000</speed>
</trkpt>
<trkpt lat="32.585529327" lon="34.993824005">
  <ele>84.772095</ele>
  <time>2011-10-13T05:24:54Z</time>
  <speed>1.380000</speed>
</trkpt>
<trkpt lat="32.585533142" lon="34.993865967">
  <ele>86.338501</ele>
  <time>2011-10-13T05:24:57Z</time>
  <speed>1.330000</speed>
</trkpt>
<trkpt lat="32.585544586" lon="34.993904114">
  <ele>86.154907</ele>
  <time>2011-10-13T05:25:00Z</time>
  <speed>1.620000</speed>
</trkpt>
<trkpt lat="32.585552216" lon="34.993938446">
  <ele>86.643188</ele>
  <time>2011-10-13T05:25:02Z</time>
  <speed>1.340000</speed>
</trkpt>
<trkpt lat="32.585567474" lon="34.993968964">
  <ele>87.080688</ele>
  <time>2011-10-13T05:25:04Z</time>
  <speed>1.720000</speed>
</trkpt>
<trkpt lat="32.585586548" lon="34.993995667">
  <ele>87.940063</ele>
  <time>2011-10-13T05:25:06Z</time>
  <speed>1.440000</speed>
</trkpt>
<trkpt lat="32.585609436" lon="34.994026184">
  <ele>87.822876</ele>
  <time>2011-10-13T05:25:08Z</time>
  <speed>1.580000</speed>
</trkpt>
<trkpt lat="32.585620880" lon="34.994056702">
  <ele>89.006470</ele>
  <time>2011-10-13T05:25:10Z</time>
  <speed>1.620000</speed>
</trkpt>
<trkpt lat="32.585639954" lon="34.994094849">
  <ele>88.541626</ele>
  <time>2011-10-13T05:25:13Z</time>
  <speed>1.530000</speed>
</trkpt>
<trkpt lat="32.585655212" lon="34.994129181">
  <ele>88.936157</ele>
  <time>2011-10-13T05:25:15Z</time>
  <speed>1.780000</speed>
</trkpt>
<trkpt lat="32.585678101" lon="34.994155884">
  <ele>90.166626</ele>
  <time>2011-10-13T05:25:17Z</time>
  <speed>1.660000</speed>
</trkpt>
<trkpt lat="32.585697174" lon="34.994182587">
  <ele>90.824829</ele>
  <time>2011-10-13T05:25:19Z</time>
  <speed>1.600000</speed>
</trkpt>
<trkpt lat="32.585674286" lon="34.994213104">
  <ele>91.637329</ele>
  <time>2011-10-13T05:25:21Z</time>
  <speed>1.810000</speed>
</trkpt>
<trkpt lat="32.585655212" lon="34.994235992">
  <ele>92.289673</ele>
  <time>2011-10-13T05:25:23Z</time>
  <speed>1.720000</speed>
</trkpt>
<trkpt lat="32.585624695" lon="34.994243622">
  <ele>92.731079</ele>
  <time>2011-10-13T05:25:25Z</time>
  <speed>1.660000</speed>
</trkpt>
<trkpt lat="32.585590363" lon="34.994274139">
  <ele>93.500610</ele>
  <time>2011-10-13T05:25:28Z</time>
  <speed>1.920000</speed>
</trkpt>
<trkpt lat="32.585567474" lon="34.994297028">
  <ele>93.590454</ele>
  <time>2011-10-13T05:25:30Z</time>
  <speed>1.570000</speed>
</trkpt>
<trkpt lat="32.585548401" lon="34.994316101">
  <ele>94.760376</ele>
  <time>2011-10-13T05:25:31Z</time>
  <speed>1.580000</speed>
</trkpt>
<trkpt lat="32.585521698" lon="34.994331360">
  <ele>96.002563</ele>
  <time>2011-10-13T05:25:33Z</time>
  <speed>1.580000</speed>
</trkpt>
<trkpt lat="32.585506439" lon="34.994365692">
  <ele>96.309204</ele>
  <time>2011-10-13T05:25:35Z</time>
  <speed>1.880000</speed>
</trkpt>
<trkpt lat="32.585487366" lon="34.994392395">
  <ele>97.279907</ele>
  <time>2011-10-13T05:25:37Z</time>
  <speed>1.460000</speed>
</trkpt>
<trkpt lat="32.585475922" lon="34.994430542">
  <ele>99.063110</ele>
  <time>2011-10-13T05:25:40Z</time>
  <speed>1.510000</speed>
</trkpt>
<trkpt lat="32.585449219" lon="34.994461060">
  <ele>98.848267</ele>
  <time>2011-10-13T05:25:43Z</time>
  <speed>1.250000</speed>
</trkpt>
<trkpt lat="32.585418701" lon="34.994464874">
  <ele>99.012329</ele>
  <time>2011-10-13T05:25:46Z</time>
  <speed>1.480000</speed>
</trkpt>
<trkpt lat="32.585380554" lon="34.994483948">
  <ele>99.609985</ele>
  <time>2011-10-13T05:25:49Z</time>
  <speed>1.310000</speed>
</trkpt>
<trkpt lat="32.585365295" lon="34.994510651">
  <ele>99.248657</ele>
  <time>2011-10-13T05:25:51Z</time>
  <speed>1.210000</speed>
</trkpt>
<trkpt lat="32.585350037" lon="34.994541168">
  <ele>99.197876</ele>
  <time>2011-10-13T05:25:53Z</time>
  <speed>1.450000</speed>
</trkpt>
<trkpt lat="32.585350037" lon="34.994586945">
  <ele>100.014282</ele>
  <time>2011-10-13T05:25:56Z</time>
  <speed>1.660000</speed>
</trkpt>
<trkpt lat="32.585342407" lon="34.994617462">
  <ele>100.381470</ele>
  <time>2011-10-13T05:25:58Z</time>
  <speed>1.430000</speed>
</trkpt>
<trkpt lat="32.585327148" lon="34.994647980">
  <ele>98.975220</ele>
  <time>2011-10-13T05:26:01Z</time>
  <speed>1.220000</speed>
</trkpt>
<trkpt lat="32.585300446" lon="34.994674683">
  <ele>98.467407</ele>
  <time>2011-10-13T05:26:04Z</time>
  <speed>1.730000</speed>
</trkpt>
<trkpt lat="32.585285187" lon="34.994709015">
  <ele>98.510376</ele>
  <time>2011-10-13T05:26:06Z</time>
  <speed>1.430000</speed>
</trkpt>
<trkpt lat="32.585269928" lon="34.994739532">
  <ele>98.443970</ele>
  <time>2011-10-13T05:26:08Z</time>
  <speed>1.320000</speed>
</trkpt>
<trkpt lat="32.585254669" lon="34.994770050">
  <ele>97.965454</ele>
  <time>2011-10-13T05:26:10Z</time>
  <speed>1.190000</speed>
</trkpt>
<trkpt lat="32.585235596" lon="34.994808197">
  <ele>98.043579</ele>
  <time>2011-10-13T05:26:13Z</time>
  <speed>1.430000</speed>
</trkpt>
<trkpt lat="32.585208893" lon="34.994834900">
  <ele>97.676392</ele>
  <time>2011-10-13T05:26:16Z</time>
  <speed>1.440000</speed>
</trkpt>
<trkpt lat="32.585193634" lon="34.994865417">
  <ele>97.701782</ele>
  <time>2011-10-13T05:26:18Z</time>
  <speed>1.670000</speed>
</trkpt>
<trkpt lat="32.585174561" lon="34.994895935">
  <ele>97.555298</ele>
  <time>2011-10-13T05:26:20Z</time>
  <speed>1.580000</speed>
</trkpt>
<trkpt lat="32.585163116" lon="34.994926453">
  <ele>98.090454</ele>
  <time>2011-10-13T05:26:22Z</time>
  <speed>1.430000</speed>
</trkpt>
<trkpt lat="32.585151672" lon="34.994956970">
  <ele>98.590454</ele>
  <time>2011-10-13T05:26:24Z</time>
  <speed>1.550000</speed>
</trkpt>
<trkpt lat="32.585124969" lon="34.994987488">
  <ele>98.223267</ele>
  <time>2011-10-13T05:26:27Z</time>
  <speed>1.530000</speed>
</trkpt>
<trkpt lat="32.585121155" lon="34.995018005">
  <ele>98.854126</ele>
  <time>2011-10-13T05:26:29Z</time>
  <speed>1.820000</speed>
</trkpt>
<trkpt lat="32.585113525" lon="34.995052338">
  <ele>98.990845</ele>
  <time>2011-10-13T05:26:31Z</time>
  <speed>1.610000</speed>
</trkpt>
<trkpt lat="32.585117340" lon="34.995086670">
  <ele>99.385376</ele>
  <time>2011-10-13T05:26:33Z</time>
  <speed>1.650000</speed>
</trkpt>
<trkpt lat="32.585121155" lon="34.995132446">
  <ele>100.955688</ele>
  <time>2011-10-13T05:26:35Z</time>
  <speed>1.790000</speed>
</trkpt>
<trkpt lat="32.585140228" lon="34.995174408">
  <ele>101.861938</ele>
  <time>2011-10-13T05:26:37Z</time>
  <speed>1.580000</speed>
</trkpt>
<trkpt lat="32.585159302" lon="34.995208740">
  <ele>102.717407</ele>
  <time>2011-10-13T05:26:40Z</time>
  <speed>1.600000</speed>
</trkpt>
<trkpt lat="32.585186005" lon="34.995246887">
  <ele>102.930298</ele>
  <time>2011-10-13T05:26:42Z</time>
  <speed>1.930000</speed>
</trkpt>
<trkpt lat="32.585220337" lon="34.995265961">
  <ele>103.188110</ele>
  <time>2011-10-13T05:26:44Z</time>
  <speed>1.870000</speed>
</trkpt>
<trkpt lat="32.585235596" lon="34.995296478">
  <ele>103.934204</ele>
  <time>2011-10-13T05:26:46Z</time>
  <speed>1.960000</speed>
</trkpt>
<trkpt lat="32.585262299" lon="34.995319366">
  <ele>104.393188</ele>
  <time>2011-10-13T05:26:48Z</time>
  <speed>1.520000</speed>
</trkpt>
<trkpt lat="32.585289001" lon="34.995346069">
  <ele>104.529907</ele>
  <time>2011-10-13T05:26:50Z</time>
  <speed>1.870000</speed>
</trkpt>
<trkpt lat="32.585323334" lon="34.995365143">
  <ele>105.617798</ele>
  <time>2011-10-13T05:26:52Z</time>
  <speed>2.050000</speed>
</trkpt>
<trkpt lat="32.585353851" lon="34.995384216">
  <ele>105.510376</ele>
  <time>2011-10-13T05:26:54Z</time>
  <speed>1.360000</speed>
</trkpt>
<trkpt lat="32.585384369" lon="34.995365143">
  <ele>106.611938</ele>
  <time>2011-10-13T05:26:57Z</time>
  <speed>1.210000</speed>
</trkpt>
<trkpt lat="32.585411072" lon="34.995357513">
  <ele>106.129517</ele>
  <time>2011-10-13T05:27:00Z</time>
  <speed>1.460000</speed>
</trkpt>
<trkpt lat="32.585437775" lon="34.995346069">
  <ele>106.002563</ele>
  <time>2011-10-13T05:27:02Z</time>
  <speed>1.430000</speed>
</trkpt>
<trkpt lat="32.585472107" lon="34.995330811">
  <ele>105.738892</ele>
  <time>2011-10-13T05:27:05Z</time>
  <speed>1.210000</speed>
</trkpt>
<trkpt lat="32.585502625" lon="34.995315552">
  <ele>105.229126</ele>
  <time>2011-10-13T05:27:07Z</time>
  <speed>1.600000</speed>
</trkpt>
<trkpt lat="32.585533142" lon="34.995304108">
  <ele>104.795532</ele>
  <time>2011-10-13T05:27:09Z</time>
  <speed>1.700000</speed>
</trkpt>
<trkpt lat="32.585563660" lon="34.995307922">
  <ele>105.547485</ele>
  <time>2011-10-13T05:27:11Z</time>
  <speed>1.500000</speed>
</trkpt>
<trkpt lat="32.585594177" lon="34.995319366">
  <ele>106.145142</ele>
  <time>2011-10-13T05:27:13Z</time>
  <speed>1.660000</speed>
</trkpt>
<trkpt lat="32.585628510" lon="34.995334625">
  <ele>105.836548</ele>
  <time>2011-10-13T05:27:16Z</time>
  <speed>1.500000</speed>
</trkpt>
<trkpt lat="32.585651398" lon="34.995357513">
  <ele>106.793579</ele>
  <time>2011-10-13T05:27:18Z</time>
  <speed>1.710000</speed>
</trkpt>
<trkpt lat="32.585666656" lon="34.995395660">
  <ele>107.807251</ele>
  <time>2011-10-13T05:27:20Z</time>
  <speed>1.880000</speed>
</trkpt>
<trkpt lat="32.585693359" lon="34.995433807">
  <ele>108.524048</ele>
  <time>2011-10-13T05:27:22Z</time>
  <speed>1.870000</speed>
</trkpt>
<trkpt lat="32.585704803" lon="34.995471954">
  <ele>109.598267</ele>
  <time>2011-10-13T05:27:24Z</time>
  <speed>1.890000</speed>
</trkpt>
<trkpt lat="32.585716248" lon="34.995517731">
  <ele>110.350220</ele>
  <time>2011-10-13T05:27:26Z</time>
  <speed>2.270000</speed>
</trkpt>
<trkpt lat="32.585712433" lon="34.995555878">
  <ele>110.953735</ele>
  <time>2011-10-13T05:27:28Z</time>
  <speed>1.860000</speed>
</trkpt>
<trkpt lat="32.585704803" lon="34.995594025">
  <ele>110.215454</ele>
  <time>2011-10-13T05:27:30Z</time>
  <speed>1.600000</speed>
</trkpt>
<trkpt lat="32.585685730" lon="34.995632172">
  <ele>110.766235</ele>
  <time>2011-10-13T05:27:33Z</time>
  <speed>1.410000</speed>
</trkpt>
<trkpt lat="32.585666656" lon="34.995666504">
  <ele>110.184204</ele>
  <time>2011-10-13T05:27:36Z</time>
  <speed>1.410000</speed>
</trkpt>
<trkpt lat="32.585659027" lon="34.995712280">
  <ele>111.026001</ele>
  <time>2011-10-13T05:27:39Z</time>
  <speed>1.590000</speed>
</trkpt>
<trkpt lat="32.585674286" lon="34.995746613">
  <ele>112.043579</ele>
  <time>2011-10-13T05:27:41Z</time>
  <speed>1.180000</speed>
</trkpt>
<trkpt lat="32.585712433" lon="34.995765686">
  <ele>112.719360</ele>
  <time>2011-10-13T05:27:44Z</time>
  <speed>1.670000</speed>
</trkpt>
<trkpt lat="32.585750580" lon="34.995773315">
  <ele>112.693970</ele>
  <time>2011-10-13T05:27:47Z</time>
  <speed>1.660000</speed>
</trkpt>
<trkpt lat="32.585792542" lon="34.995773315">
  <ele>112.246704</ele>
  <time>2011-10-13T05:27:49Z</time>
  <speed>1.450000</speed>
</trkpt>
<trkpt lat="32.585826874" lon="34.995777130">
  <ele>112.055298</ele>
  <time>2011-10-13T05:27:52Z</time>
  <speed>1.720000</speed>
</trkpt>
<trkpt lat="32.585868835" lon="34.995773315">
  <ele>112.135376</ele>
  <time>2011-10-13T05:27:54Z</time>
  <speed>1.520000</speed>
</trkpt>
<trkpt lat="32.585899353" lon="34.995773315">
  <ele>112.326782</ele>
  <time>2011-10-13T05:27:56Z</time>
  <speed>1.710000</speed>
</trkpt>
<trkpt lat="32.585929871" lon="34.995769501">
  <ele>112.180298</ele>
  <time>2011-10-13T05:27:58Z</time>
  <speed>1.440000</speed>
</trkpt>
<trkpt lat="32.585971832" lon="34.995777130">
  <ele>111.541626</ele>
  <time>2011-10-13T05:28:00Z</time>
  <speed>1.650000</speed>
</trkpt>
<trkpt lat="32.586002350" lon="34.995769501">
  <ele>111.463501</ele>
  <time>2011-10-13T05:28:02Z</time>
  <speed>1.630000</speed>
</trkpt>
<trkpt lat="32.586036682" lon="34.995769501">
  <ele>109.918579</ele>
  <time>2011-10-13T05:28:04Z</time>
  <speed>1.700000</speed>
</trkpt>
<trkpt lat="32.586074829" lon="34.995769501">
  <ele>110.133423</ele>
  <time>2011-10-13T05:28:07Z</time>
  <speed>1.470000</speed>
</trkpt>
<trkpt lat="32.586105347" lon="34.995773315">
  <ele>110.024048</ele>
  <time>2011-10-13T05:28:09Z</time>
  <speed>1.640000</speed>
</trkpt>
<trkpt lat="32.586132050" lon="34.995769501">
  <ele>109.121704</ele>
  <time>2011-10-13T05:28:11Z</time>
  <speed>1.430000</speed>
</trkpt>
<trkpt lat="32.586162567" lon="34.995765686">
  <ele>108.881470</ele>
  <time>2011-10-13T05:28:13Z</time>
  <speed>1.700000</speed>
</trkpt>
<trkpt lat="32.586193085" lon="34.995758057">
  <ele>108.031860</ele>
  <time>2011-10-13T05:28:15Z</time>
  <speed>1.560000</speed>
</trkpt>
<trkpt lat="32.586223602" lon="34.995758057">
  <ele>108.301392</ele>
  <time>2011-10-13T05:28:17Z</time>
  <speed>1.800000</speed>
</trkpt>
<trkpt lat="32.586250305" lon="34.995765686">
  <ele>108.391235</ele>
  <time>2011-10-13T05:28:19Z</time>
  <speed>1.800000</speed>
</trkpt>
<trkpt lat="32.586280823" lon="34.995769501">
  <ele>108.674438</ele>
  <time>2011-10-13T05:28:21Z</time>
  <speed>1.780000</speed>
</trkpt>
<trkpt lat="32.586315155" lon="34.995769501">
  <ele>111.621704</ele>
  <time>2011-10-13T05:28:23Z</time>
  <speed>2.090000</speed>
</trkpt>
<trkpt lat="32.586338043" lon="34.995780945">
  <ele>112.647095</ele>
  <time>2011-10-13T05:28:25Z</time>
  <speed>1.810000</speed>
</trkpt>
<trkpt lat="32.586364746" lon="34.995792389">
  <ele>113.943970</ele>
  <time>2011-10-13T05:28:27Z</time>
  <speed>1.800000</speed>
</trkpt>
<trkpt lat="32.586391449" lon="34.995807648">
  <ele>114.697876</ele>
  <time>2011-10-13T05:28:29Z</time>
  <speed>1.860000</speed>
</trkpt>
<trkpt lat="32.586425781" lon="34.995830536">
  <ele>115.109985</ele>
  <time>2011-10-13T05:28:31Z</time>
  <speed>1.500000</speed>
</trkpt>
<trkpt lat="32.586456299" lon="34.995834351">
  <ele>114.795532</ele>
  <time>2011-10-13T05:28:33Z</time>
  <speed>1.870000</speed>
</trkpt>
<trkpt lat="32.586494446" lon="34.995819092">
  <ele>115.770142</ele>
  <time>2011-10-13T05:28:35Z</time>
  <speed>1.990000</speed>
</trkpt>
<trkpt lat="32.586524963" lon="34.995788574">
  <ele>115.260376</ele>
  <time>2011-10-13T05:28:37Z</time>
  <speed>3.020000</speed>
</trkpt>
<trkpt lat="32.586555481" lon="34.995777130">
  <ele>115.387329</ele>
  <time>2011-10-13T05:28:38Z</time>
  <speed>3.690000</speed>
</trkpt>
<trkpt lat="32.586593628" lon="34.995769501">
  <ele>114.861938</ele>
  <time>2011-10-13T05:28:39Z</time>
  <speed>4.470000</speed>
</trkpt>
<trkpt lat="32.586631775" lon="34.995777130">
  <ele>115.459595</ele>
  <time>2011-10-13T05:28:40Z</time>
  <speed>4.050000</speed>
</trkpt>
<trkpt lat="32.586666107" lon="34.995792389">
  <ele>115.986938</ele>
  <time>2011-10-13T05:28:41Z</time>
  <speed>3.730000</speed>
</trkpt>
<trkpt lat="32.586688995" lon="34.995819092">
  <ele>116.006470</ele>
  <time>2011-10-13T05:28:42Z</time>
  <speed>3.030000</speed>
</trkpt>
<trkpt lat="32.586704254" lon="34.995849609">
  <ele>116.996704</ele>
  <time>2011-10-13T05:28:43Z</time>
  <speed>2.420000</speed>
</trkpt>
<trkpt lat="32.586711884" lon="34.995891571">
  <ele>117.483032</ele>
  <time>2011-10-13T05:28:45Z</time>
  <speed>2.090000</speed>
</trkpt>
<trkpt lat="32.586711884" lon="34.995941162">
  <ele>118.859985</ele>
  <time>2011-10-13T05:28:47Z</time>
  <speed>1.890000</speed>
</trkpt>
<trkpt lat="32.586700439" lon="34.995986938">
  <ele>119.049438</ele>
  <time>2011-10-13T05:28:49Z</time>
  <speed>1.860000</speed>
</trkpt>
<trkpt lat="32.586677551" lon="34.996021271">
  <ele>119.438110</ele>
  <time>2011-10-13T05:28:51Z</time>
  <speed>2.200000</speed>
</trkpt>
<trkpt lat="32.586650848" lon="34.996051788">
  <ele>118.344360</ele>
  <time>2011-10-13T05:28:53Z</time>
  <speed>2.160000</speed>
</trkpt>
<trkpt lat="32.586631775" lon="34.996093750">
  <ele>120.139282</ele>
  <time>2011-10-13T05:28:55Z</time>
  <speed>1.980000</speed>
</trkpt>
<trkpt lat="32.586627960" lon="34.996128082">
  <ele>121.020142</ele>
  <time>2011-10-13T05:28:57Z</time>
  <speed>1.520000</speed>
</trkpt>
<trkpt lat="32.586631775" lon="34.996173859">
  <ele>121.600220</ele>
  <time>2011-10-13T05:28:59Z</time>
  <speed>2.080000</speed>
</trkpt>
<trkpt lat="32.586631775" lon="34.996227264">
  <ele>121.643188</ele>
  <time>2011-10-13T05:29:01Z</time>
  <speed>2.120000</speed>
</trkpt>
<trkpt lat="32.586635590" lon="34.996269226">
  <ele>122.412720</ele>
  <time>2011-10-13T05:29:03Z</time>
  <speed>1.810000</speed>
</trkpt>
<trkpt lat="32.586650848" lon="34.996307373">
  <ele>122.557251</ele>
  <time>2011-10-13T05:29:05Z</time>
  <speed>2.030000</speed>
</trkpt>
<trkpt lat="32.586662292" lon="34.996345520">
  <ele>122.522095</ele>
  <time>2011-10-13T05:29:07Z</time>
  <speed>1.820000</speed>
</trkpt>
<trkpt lat="32.586666107" lon="34.996379852">
  <ele>123.803345</ele>
  <time>2011-10-13T05:29:09Z</time>
  <speed>1.700000</speed>
</trkpt>
<trkpt lat="32.586677551" lon="34.996421814">
  <ele>125.067017</ele>
  <time>2011-10-13T05:29:11Z</time>
  <speed>1.940000</speed>
</trkpt>
<trkpt lat="32.586688995" lon="34.996463776">
  <ele>125.274048</ele>
  <time>2011-10-13T05:29:13Z</time>
  <speed>1.570000</speed>
</trkpt>
<trkpt lat="32.586696625" lon="34.996501923">
  <ele>126.070923</ele>
  <time>2011-10-13T05:29:15Z</time>
  <speed>2.090000</speed>
</trkpt>
<trkpt lat="32.586708069" lon="34.996547699">
  <ele>127.151001</ele>
  <time>2011-10-13T05:29:17Z</time>
  <speed>2.340000</speed>
</trkpt>
<trkpt lat="32.586719513" lon="34.996589661">
  <ele>127.879517</ele>
  <time>2011-10-13T05:29:19Z</time>
  <speed>1.830000</speed>
</trkpt>
<trkpt lat="32.586711884" lon="34.996627808">
  <ele>128.423096</ele>
  <time>2011-10-13T05:29:22Z</time>
  <speed>1.440000</speed>
</trkpt>
<trkpt lat="32.586719513" lon="34.996662140">
  <ele>128.360596</ele>
  <time>2011-10-13T05:29:24Z</time>
  <speed>1.690000</speed>
</trkpt>
<trkpt lat="32.586727142" lon="34.996696472">
  <ele>128.712158</ele>
  <time>2011-10-13T05:29:26Z</time>
  <speed>1.550000</speed>
</trkpt>
<trkpt lat="32.586730957" lon="34.996730804">
  <ele>129.251221</ele>
  <time>2011-10-13T05:29:28Z</time>
  <speed>1.360000</speed>
</trkpt>
<trkpt lat="32.586753845" lon="34.996768951">
  <ele>130.466064</ele>
  <time>2011-10-13T05:29:31Z</time>
  <speed>1.680000</speed>
</trkpt>
<trkpt lat="32.586769104" lon="34.996803284">
  <ele>131.540283</ele>
  <time>2011-10-13T05:29:33Z</time>
  <speed>1.350000</speed>
</trkpt>
<trkpt lat="32.586784363" lon="34.996837616">
  <ele>133.145752</ele>
  <time>2011-10-13T05:29:35Z</time>
  <speed>1.790000</speed>
</trkpt>
<trkpt lat="32.586799622" lon="34.996864319">
  <ele>133.622314</ele>
  <time>2011-10-13T05:29:37Z</time>
  <speed>1.270000</speed>
</trkpt>
<trkpt lat="32.586826324" lon="34.996891022">
  <ele>135.305908</ele>
  <time>2011-10-13T05:29:40Z</time>
  <speed>1.540000</speed>
</trkpt>
<trkpt lat="32.586833954" lon="34.996929169">
  <ele>135.712158</ele>
  <time>2011-10-13T05:29:43Z</time>
  <speed>1.150000</speed>
</trkpt>
<trkpt lat="32.586860657" lon="34.996959686">
  <ele>135.423096</ele>
  <time>2011-10-13T05:29:46Z</time>
  <speed>1.220000</speed>
</trkpt>
<trkpt lat="32.586860657" lon="34.996990204">
  <ele>134.798096</ele>
  <time>2011-10-13T05:29:48Z</time>
  <speed>1.880000</speed>
</trkpt>
<trkpt lat="32.586853027" lon="34.997028351">
  <ele>134.012939</ele>
  <time>2011-10-13T05:29:50Z</time>
  <speed>1.470000</speed>
</trkpt>
<trkpt lat="32.586837769" lon="34.997058868">
  <ele>133.481689</ele>
  <time>2011-10-13T05:29:52Z</time>
  <speed>1.510000</speed>
</trkpt>
<trkpt lat="32.586814880" lon="34.997097015">
  <ele>133.829346</ele>
  <time>2011-10-13T05:29:55Z</time>
  <speed>1.610000</speed>
</trkpt>
<trkpt lat="32.586799622" lon="34.997127533">
  <ele>133.927002</ele>
  <time>2011-10-13T05:29:57Z</time>
  <speed>1.520000</speed>
</trkpt>
<trkpt lat="32.586772919" lon="34.997154236">
  <ele>133.903564</ele>
  <time>2011-10-13T05:30:00Z</time>
  <speed>1.460000</speed>
</trkpt>
<trkpt lat="32.586761475" lon="34.997184753">
  <ele>133.317627</ele>
  <time>2011-10-13T05:30:02Z</time>
  <speed>1.530000</speed>
</trkpt>
<trkpt lat="32.586753845" lon="34.997219086">
  <ele>133.059814</ele>
  <time>2011-10-13T05:30:04Z</time>
  <speed>1.490000</speed>
</trkpt>
<trkpt lat="32.586742401" lon="34.997249603">
  <ele>133.774658</ele>
  <time>2011-10-13T05:30:06Z</time>
  <speed>1.280000</speed>
</trkpt>
<trkpt lat="32.586730957" lon="34.997291565">
  <ele>133.102783</ele>
  <time>2011-10-13T05:30:09Z</time>
  <speed>1.500000</speed>
</trkpt>
<trkpt lat="32.586719513" lon="34.997325897">
  <ele>132.825439</ele>
  <time>2011-10-13T05:30:11Z</time>
  <speed>1.730000</speed>
</trkpt>
<trkpt lat="32.586711884" lon="34.997360229">
  <ele>134.161377</ele>
  <time>2011-10-13T05:30:13Z</time>
  <speed>1.760000</speed>
</trkpt>
<trkpt lat="32.586730957" lon="34.997409821">
  <ele>134.856689</ele>
  <time>2011-10-13T05:30:16Z</time>
  <speed>1.830000</speed>
</trkpt>
<trkpt lat="32.586765289" lon="34.997409821">
  <ele>135.114502</ele>
  <time>2011-10-13T05:30:18Z</time>
  <speed>1.780000</speed>
</trkpt>
<trkpt lat="32.586803436" lon="34.997394562">
  <ele>135.864502</ele>
  <time>2011-10-13T05:30:20Z</time>
  <speed>1.950000</speed>
</trkpt>
<trkpt lat="32.586837769" lon="34.997367859">
  <ele>136.579346</ele>
  <time>2011-10-13T05:30:22Z</time>
  <speed>1.440000</speed>
</trkpt>
<trkpt lat="32.586856842" lon="34.997344971">
  <ele>136.696533</ele>
  <time>2011-10-13T05:30:24Z</time>
  <speed>1.340000</speed>
</trkpt>
<trkpt lat="32.586883545" lon="34.997322083">
  <ele>137.243408</ele>
  <time>2011-10-13T05:30:27Z</time>
  <speed>1.150000</speed>
</trkpt>
<trkpt lat="32.586898804" lon="34.997291565">
  <ele>138.087158</ele>
  <time>2011-10-13T05:30:29Z</time>
  <speed>1.340000</speed>
</trkpt>
<trkpt lat="32.586914063" lon="34.997264862">
  <ele>137.985596</ele>
  <time>2011-10-13T05:30:31Z</time>
  <speed>1.570000</speed>
</trkpt>
<trkpt lat="32.586936951" lon="34.997241974">
  <ele>137.794189</ele>
  <time>2011-10-13T05:30:33Z</time>
  <speed>1.550000</speed>
</trkpt>
<trkpt lat="32.586967468" lon="34.997219086">
  <ele>138.024658</ele>
  <time>2011-10-13T05:30:36Z</time>
  <speed>1.040000</speed>
</trkpt>
<trkpt lat="32.587001801" lon="34.997200012">
  <ele>137.825439</ele>
  <time>2011-10-13T05:30:39Z</time>
  <speed>1.520000</speed>
</trkpt>
<trkpt lat="32.587032318" lon="34.997165680">
  <ele>138.255127</ele>
  <time>2011-10-13T05:30:42Z</time>
  <speed>1.600000</speed>
</trkpt>
<trkpt lat="32.587059021" lon="34.997138977">
  <ele>137.841064</ele>
  <time>2011-10-13T05:30:44Z</time>
  <speed>1.880000</speed>
</trkpt>
<trkpt lat="32.587085724" lon="34.997119904">
  <ele>137.661377</ele>
  <time>2011-10-13T05:30:46Z</time>
  <speed>1.690000</speed>
</trkpt>
<trkpt lat="32.587104797" lon="34.997097015">
  <ele>137.516846</ele>
  <time>2011-10-13T05:30:48Z</time>
  <speed>1.440000</speed>
</trkpt>
<trkpt lat="32.587131500" lon="34.997085571">
  <ele>136.981689</ele>
  <time>2011-10-13T05:30:50Z</time>
  <speed>1.380000</speed>
</trkpt>
<trkpt lat="32.587154388" lon="34.997047424">
  <ele>136.884033</ele>
  <time>2011-10-13T05:30:53Z</time>
  <speed>1.980000</speed>
</trkpt>
<trkpt lat="32.587177277" lon="34.997016907">
  <ele>136.481689</ele>
  <time>2011-10-13T05:30:55Z</time>
  <speed>1.590000</speed>
</trkpt>
<trkpt lat="32.587200165" lon="34.996986389">
  <ele>136.208252</ele>
  <time>2011-10-13T05:30:57Z</time>
  <speed>1.550000</speed>
</trkpt>
<trkpt lat="32.587223053" lon="34.996959686">
  <ele>136.020752</ele>
  <time>2011-10-13T05:30:59Z</time>
  <speed>1.570000</speed>
</trkpt>
<trkpt lat="32.587253571" lon="34.996932983">
  <ele>136.333252</ele>
  <time>2011-10-13T05:31:02Z</time>
  <speed>1.460000</speed>
</trkpt>
<trkpt lat="32.587276459" lon="34.996917725">
  <ele>135.856689</ele>
  <time>2011-10-13T05:31:04Z</time>
  <speed>1.410000</speed>
</trkpt>
<trkpt lat="32.587306976" lon="34.996913910">
  <ele>135.262939</ele>
  <time>2011-10-13T05:31:06Z</time>
  <speed>1.550000</speed>
</trkpt>
<trkpt lat="32.587329865" lon="34.996894836">
  <ele>134.798096</ele>
  <time>2011-10-13T05:31:08Z</time>
  <speed>1.360000</speed>
</trkpt>
<trkpt lat="32.587356567" lon="34.996875763">
  <ele>135.149658</ele>
  <time>2011-10-13T05:31:10Z</time>
  <speed>1.660000</speed>
</trkpt>
<trkpt lat="32.587387085" lon="34.996856689">
  <ele>136.430908</ele>
  <time>2011-10-13T05:31:12Z</time>
  <speed>1.640000</speed>
</trkpt>
<trkpt lat="32.587421417" lon="34.996845245">
  <ele>136.723877</ele>
  <time>2011-10-13T05:31:14Z</time>
  <speed>1.820000</speed>
</trkpt>
<trkpt lat="32.587451935" lon="34.996841431">
  <ele>137.032471</ele>
  <time>2011-10-13T05:31:16Z</time>
  <speed>1.200000</speed>
</trkpt>
<trkpt lat="32.587486267" lon="34.996829987">
  <ele>136.973877</ele>
  <time>2011-10-13T05:31:19Z</time>
  <speed>1.490000</speed>
</trkpt>
<trkpt lat="32.587512970" lon="34.996807098">
  <ele>137.317627</ele>
  <time>2011-10-13T05:31:21Z</time>
  <speed>1.710000</speed>
</trkpt>
<trkpt lat="32.587539673" lon="34.996803284">
  <ele>137.485596</ele>
  <time>2011-10-13T05:31:23Z</time>
  <speed>1.490000</speed>
</trkpt>
<trkpt lat="32.587570190" lon="34.996807098">
  <ele>136.524658</ele>
  <time>2011-10-13T05:31:25Z</time>
  <speed>1.450000</speed>
</trkpt>
<trkpt lat="32.587612152" lon="34.996807098">
  <ele>136.669189</ele>
  <time>2011-10-13T05:31:28Z</time>
  <speed>1.640000</speed>
</trkpt>
<trkpt lat="32.587638855" lon="34.996807098">
  <ele>136.157471</ele>
  <time>2011-10-13T05:31:30Z</time>
  <speed>1.350000</speed>
</trkpt>
<trkpt lat="32.587677002" lon="34.996826172">
  <ele>134.997314</ele>
  <time>2011-10-13T05:31:33Z</time>
  <speed>1.520000</speed>
</trkpt>
<trkpt lat="32.587707520" lon="34.996845245">
  <ele>135.485596</ele>
  <time>2011-10-13T05:31:35Z</time>
  <speed>1.620000</speed>
</trkpt>
<trkpt lat="32.587741852" lon="34.996860504">
  <ele>136.735596</ele>
  <time>2011-10-13T05:31:38Z</time>
  <speed>1.500000</speed>
</trkpt>
<trkpt lat="32.587772369" lon="34.996891022">
  <ele>137.571533</ele>
  <time>2011-10-13T05:31:41Z</time>
  <speed>1.490000</speed>
</trkpt>
<trkpt lat="32.587802887" lon="34.996913910">
  <ele>137.841064</ele>
  <time>2011-10-13T05:31:43Z</time>
  <speed>1.390000</speed>
</trkpt>
<trkpt lat="32.587806702" lon="34.996955872">
  <ele>137.966064</ele>
  <time>2011-10-13T05:31:45Z</time>
  <speed>1.570000</speed>
</trkpt>
<trkpt lat="32.587818146" lon="34.996994019">
  <ele>138.036377</ele>
  <time>2011-10-13T05:31:47Z</time>
  <speed>1.670000</speed>
</trkpt>
<trkpt lat="32.587818146" lon="34.997028351">
  <ele>138.493408</ele>
  <time>2011-10-13T05:31:49Z</time>
  <speed>1.620000</speed>
</trkpt>
<trkpt lat="32.587821960" lon="34.997062683">
  <ele>139.216064</ele>
  <time>2011-10-13T05:31:51Z</time>
  <speed>1.610000</speed>
</trkpt>
<trkpt lat="32.587829590" lon="34.997097015">
  <ele>139.743408</ele>
  <time>2011-10-13T05:31:53Z</time>
  <speed>1.520000</speed>
</trkpt>
<trkpt lat="32.587818146" lon="34.997131348">
  <ele>140.661377</ele>
  <time>2011-10-13T05:31:55Z</time>
  <speed>1.570000</speed>
</trkpt>
<trkpt lat="32.587806702" lon="34.997173309">
  <ele>140.567627</ele>
  <time>2011-10-13T05:31:58Z</time>
  <speed>1.520000</speed>
</trkpt>
<trkpt lat="32.587818146" lon="34.997215271">
  <ele>141.251221</ele>
  <time>2011-10-13T05:32:00Z</time>
  <speed>1.610000</speed>
</trkpt>
<trkpt lat="32.587810516" lon="34.997249603">
  <ele>142.380127</ele>
  <time>2011-10-13T05:32:02Z</time>
  <speed>1.570000</speed>
</trkpt>
<trkpt lat="32.587806702" lon="34.997291565">
  <ele>143.403564</ele>
  <time>2011-10-13T05:32:05Z</time>
  <speed>1.650000</speed>
</trkpt>
<trkpt lat="32.587806702" lon="34.997325897">
  <ele>143.708252</ele>
  <time>2011-10-13T05:32:07Z</time>
  <speed>1.590000</speed>
</trkpt>
<trkpt lat="32.587810516" lon="34.997364044">
  <ele>143.969971</ele>
  <time>2011-10-13T05:32:09Z</time>
  <speed>1.640000</speed>
</trkpt>
<trkpt lat="32.587810516" lon="34.997409821">
  <ele>144.841064</ele>
  <time>2011-10-13T05:32:11Z</time>
  <speed>1.820000</speed>
</trkpt>
<trkpt lat="32.587799072" lon="34.997440338">
  <ele>145.524658</ele>
  <time>2011-10-13T05:32:13Z</time>
  <speed>1.620000</speed>
</trkpt>
<trkpt lat="32.587787628" lon="34.997470856">
  <ele>146.087158</ele>
  <time>2011-10-13T05:32:15Z</time>
  <speed>1.570000</speed>
</trkpt>
<trkpt lat="32.587772369" lon="34.997505188">
  <ele>146.692627</ele>
  <time>2011-10-13T05:32:17Z</time>
  <speed>1.590000</speed>
</trkpt>
<trkpt lat="32.587764740" lon="34.997535706">
  <ele>147.048096</ele>
  <time>2011-10-13T05:32:19Z</time>
  <speed>1.710000</speed>
</trkpt>
<trkpt lat="32.587753296" lon="34.997577667">
  <ele>147.528564</ele>
  <time>2011-10-13T05:32:21Z</time>
  <speed>1.420000</speed>
</trkpt>
<trkpt lat="32.587741852" lon="34.997608185">
  <ele>147.891846</ele>
  <time>2011-10-13T05:32:23Z</time>
  <speed>1.870000</speed>
</trkpt>
<trkpt lat="32.587726593" lon="34.997646332">
  <ele>148.673096</ele>
  <time>2011-10-13T05:32:25Z</time>
  <speed>1.650000</speed>
</trkpt>
<trkpt lat="32.587715149" lon="34.997680664">
  <ele>149.712158</ele>
  <time>2011-10-13T05:32:27Z</time>
  <speed>1.660000</speed>
</trkpt>
<trkpt lat="32.587718964" lon="34.997718811">
  <ele>150.770752</ele>
  <time>2011-10-13T05:32:29Z</time>
  <speed>1.750000</speed>
</trkpt>
<trkpt lat="32.587707520" lon="34.997745514">
  <ele>152.337158</ele>
  <time>2011-10-13T05:32:31Z</time>
  <speed>1.710000</speed>
</trkpt>
<trkpt lat="32.587699890" lon="34.997783661">
  <ele>152.942627</ele>
  <time>2011-10-13T05:32:33Z</time>
  <speed>1.590000</speed>
</trkpt>
<trkpt lat="32.587703705" lon="34.997829437">
  <ele>152.634033</ele>
  <time>2011-10-13T05:32:36Z</time>
  <speed>1.310000</speed>
</trkpt>
<trkpt lat="32.587703705" lon="34.997867584">
  <ele>152.778564</ele>
  <time>2011-10-13T05:32:39Z</time>
  <speed>1.360000</speed>
</trkpt>
<trkpt lat="32.587699890" lon="34.997905731">
  <ele>153.313721</ele>
  <time>2011-10-13T05:32:41Z</time>
  <speed>1.420000</speed>
</trkpt>
<trkpt lat="32.587699890" lon="34.997951508">
  <ele>153.946533</ele>
  <time>2011-10-13T05:32:44Z</time>
  <speed>1.320000</speed>
</trkpt>
<trkpt lat="32.587699890" lon="34.997993469">
  <ele>153.641846</ele>
  <time>2011-10-13T05:32:46Z</time>
  <speed>1.810000</speed>
</trkpt>
<trkpt lat="32.587692261" lon="34.998023987">
  <ele>153.723877</ele>
  <time>2011-10-13T05:32:48Z</time>
  <speed>1.370000</speed>
</trkpt>
<trkpt lat="32.587684631" lon="34.998069763">
  <ele>154.450439</ele>
  <time>2011-10-13T05:32:51Z</time>
  <speed>1.570000</speed>
</trkpt>
<trkpt lat="32.587661743" lon="34.998104095">
  <ele>154.755127</ele>
  <time>2011-10-13T05:32:54Z</time>
  <speed>1.560000</speed>
</trkpt>
<trkpt lat="32.587646484" lon="34.998138428">
  <ele>154.852783</ele>
  <time>2011-10-13T05:32:56Z</time>
  <speed>1.580000</speed>
</trkpt>
<trkpt lat="32.587635040" lon="34.998172760">
  <ele>155.333252</ele>
  <time>2011-10-13T05:32:58Z</time>
  <speed>1.370000</speed>
</trkpt>
<trkpt lat="32.587623596" lon="34.998207092">
  <ele>156.091064</ele>
  <time>2011-10-13T05:33:00Z</time>
  <speed>1.890000</speed>
</trkpt>
<trkpt lat="32.587608337" lon="34.998241425">
  <ele>156.294189</ele>
  <time>2011-10-13T05:33:02Z</time>
  <speed>1.700000</speed>
</trkpt>
<trkpt lat="32.587589264" lon="34.998271942">
  <ele>157.677002</ele>
  <time>2011-10-13T05:33:04Z</time>
  <speed>1.370000</speed>
</trkpt>
<trkpt lat="32.587551117" lon="34.998287201">
  <ele>158.614502</ele>
  <time>2011-10-13T05:33:07Z</time>
  <speed>1.820000</speed>
</trkpt>
<trkpt lat="32.587528229" lon="34.998313904">
  <ele>160.739502</ele>
  <time>2011-10-13T05:33:10Z</time>
  <speed>1.600000</speed>
</trkpt>
<trkpt lat="32.587535858" lon="34.998348236">
  <ele>161.782471</ele>
  <time>2011-10-13T05:33:12Z</time>
  <speed>1.640000</speed>
</trkpt>
<trkpt lat="32.587543488" lon="34.998382568">
  <ele>163.169189</ele>
  <time>2011-10-13T05:33:14Z</time>
  <speed>1.140000</speed>
</trkpt>
<trkpt lat="32.587551117" lon="34.998416901">
  <ele>163.231689</ele>
  <time>2011-10-13T05:33:16Z</time>
  <speed>1.590000</speed>
</trkpt>
<trkpt lat="32.587554932" lon="34.998451233">
  <ele>162.727783</ele>
  <time>2011-10-13T05:33:18Z</time>
  <speed>1.460000</speed>
</trkpt>
<trkpt lat="32.587554932" lon="34.998497009">
  <ele>162.829346</ele>
  <time>2011-10-13T05:33:21Z</time>
  <speed>1.420000</speed>
</trkpt>
<trkpt lat="32.587554932" lon="34.998527527">
  <ele>163.368408</ele>
  <time>2011-10-13T05:33:23Z</time>
  <speed>1.490000</speed>
</trkpt>
<trkpt lat="32.587554932" lon="34.998561859">
  <ele>163.872314</ele>
  <time>2011-10-13T05:33:25Z</time>
  <speed>1.310000</speed>
</trkpt>
<trkpt lat="32.587554932" lon="34.998600006">
  <ele>164.079346</ele>
  <time>2011-10-13T05:33:27Z</time>
  <speed>1.450000</speed>
</trkpt>
<trkpt lat="32.587554932" lon="34.998638153">
  <ele>165.380127</ele>
  <time>2011-10-13T05:33:31Z</time>
  <speed>0.960000</speed>
</trkpt>
<trkpt lat="32.587570190" lon="34.998672485">
  <ele>166.637939</ele>
  <time>2011-10-13T05:33:34Z</time>
  <speed>1.500000</speed>
</trkpt>
<trkpt lat="32.587585449" lon="34.998703003">
  <ele>166.489502</ele>
  <time>2011-10-13T05:33:37Z</time>
  <speed>1.020000</speed>
</trkpt>
<trkpt lat="32.587600708" lon="34.998744965">
  <ele>166.469971</ele>
  <time>2011-10-13T05:33:40Z</time>
  <speed>1.520000</speed>
</trkpt>
<trkpt lat="32.587615967" lon="34.998771667">
  <ele>166.911377</ele>
  <time>2011-10-13T05:33:42Z</time>
  <speed>1.410000</speed>
</trkpt>
<trkpt lat="32.587635040" lon="34.998813629">
  <ele>167.700439</ele>
  <time>2011-10-13T05:33:45Z</time>
  <speed>1.440000</speed>
</trkpt>
<trkpt lat="32.587650299" lon="34.998847961">
  <ele>168.020752</ele>
  <time>2011-10-13T05:33:48Z</time>
  <speed>1.180000</speed>
</trkpt>
<trkpt lat="32.587650299" lon="34.998882294">
  <ele>169.333252</ele>
  <time>2011-10-13T05:33:51Z</time>
  <speed>1.210000</speed>
</trkpt>
<trkpt lat="32.587661743" lon="34.998920441">
  <ele>169.524658</ele>
  <time>2011-10-13T05:33:54Z</time>
  <speed>1.010000</speed>
</trkpt>
<trkpt lat="32.587673187" lon="34.998962402">
  <ele>168.844971</ele>
  <time>2011-10-13T05:33:57Z</time>
  <speed>1.160000</speed>
</trkpt>
<trkpt lat="32.587703705" lon="34.998989105">
  <ele>169.098877</ele>
  <time>2011-10-13T05:34:00Z</time>
  <speed>1.190000</speed>
</trkpt>
<trkpt lat="32.587741852" lon="34.999008179">
  <ele>169.493408</ele>
  <time>2011-10-13T05:34:03Z</time>
  <speed>1.220000</speed>
</trkpt>
<trkpt lat="32.587764740" lon="34.999031067">
  <ele>169.196533</ele>
  <time>2011-10-13T05:34:06Z</time>
  <speed>1.170000</speed>
</trkpt>
<trkpt lat="32.587791443" lon="34.999046326">
  <ele>169.876221</ele>
  <time>2011-10-13T05:34:09Z</time>
  <speed>1.490000</speed>
</trkpt>
<trkpt lat="32.587799072" lon="34.999080658">
  <ele>170.677002</ele>
  <time>2011-10-13T05:34:12Z</time>
  <speed>1.060000</speed>
</trkpt>
<trkpt lat="32.587810516" lon="34.999114990">
  <ele>171.067627</ele>
  <time>2011-10-13T05:34:15Z</time>
  <speed>1.390000</speed>
</trkpt>
<trkpt lat="32.587821960" lon="34.999145508">
  <ele>170.802002</ele>
  <time>2011-10-13T05:34:17Z</time>
  <speed>1.120000</speed>
</trkpt>
<trkpt lat="32.587852478" lon="34.999168396">
  <ele>170.591064</ele>
  <time>2011-10-13T05:34:20Z</time>
  <speed>1.460000</speed>
</trkpt>
<trkpt lat="32.587879181" lon="34.999191284">
  <ele>169.380127</ele>
  <time>2011-10-13T05:34:23Z</time>
  <speed>1.270000</speed>
</trkpt>
<trkpt lat="32.587905884" lon="34.999221802">
  <ele>168.227783</ele>
  <time>2011-10-13T05:34:26Z</time>
  <speed>1.330000</speed>
</trkpt>
<trkpt lat="32.587924957" lon="34.999248505">
  <ele>167.364502</ele>
  <time>2011-10-13T05:34:29Z</time>
  <speed>1.420000</speed>
</trkpt>
<trkpt lat="32.587944031" lon="34.999279022">
  <ele>168.091064</ele>
  <time>2011-10-13T05:34:33Z</time>
  <speed>0.920000</speed>
</trkpt>
<trkpt lat="32.587974548" lon="34.999309540">
  <ele>169.341064</ele>
  <time>2011-10-13T05:34:36Z</time>
  <speed>1.490000</speed>
</trkpt>
<trkpt lat="32.587989807" lon="34.999343872">
  <ele>169.591064</ele>
  <time>2011-10-13T05:34:39Z</time>
  <speed>1.160000</speed>
</trkpt>
<trkpt lat="32.588012695" lon="34.999382019">
  <ele>170.106689</ele>
  <time>2011-10-13T05:34:42Z</time>
  <speed>1.400000</speed>
</trkpt>
<trkpt lat="32.588024139" lon="34.999408722">
  <ele>170.134033</ele>
  <time>2011-10-13T05:34:44Z</time>
  <speed>1.140000</speed>
</trkpt>
<trkpt lat="32.588050842" lon="34.999435425">
  <ele>168.927002</ele>
  <time>2011-10-13T05:34:46Z</time>
  <speed>1.560000</speed>
</trkpt>
<trkpt lat="32.588069916" lon="34.999462128">
  <ele>169.055908</ele>
  <time>2011-10-13T05:34:48Z</time>
  <speed>1.520000</speed>
</trkpt>
<trkpt lat="32.588081360" lon="34.999504089">
  <ele>168.759033</ele>
  <time>2011-10-13T05:34:51Z</time>
  <speed>1.520000</speed>
</trkpt>
<trkpt lat="32.588081360" lon="34.999542236">
  <ele>168.122314</ele>
  <time>2011-10-13T05:34:54Z</time>
  <speed>1.480000</speed>
</trkpt>
<trkpt lat="32.588100433" lon="34.999584198">
  <ele>168.196533</ele>
  <time>2011-10-13T05:34:57Z</time>
  <speed>1.470000</speed>
</trkpt>
<trkpt lat="32.588108063" lon="34.999614716">
  <ele>168.977783</ele>
  <time>2011-10-13T05:34:59Z</time>
  <speed>1.250000</speed>
</trkpt>
<trkpt lat="32.588134766" lon="34.999649048">
  <ele>169.817627</ele>
  <time>2011-10-13T05:35:02Z</time>
  <speed>1.760000</speed>
</trkpt>
<trkpt lat="32.588157654" lon="34.999675751">
  <ele>169.841064</ele>
  <time>2011-10-13T05:35:04Z</time>
  <speed>1.640000</speed>
</trkpt>
<trkpt lat="32.588157654" lon="34.999721527">
  <ele>171.516846</ele>
  <time>2011-10-13T05:35:07Z</time>
  <speed>1.380000</speed>
</trkpt>
<trkpt lat="32.588161469" lon="34.999752045">
  <ele>172.395752</ele>
  <time>2011-10-13T05:35:09Z</time>
  <speed>1.430000</speed>
</trkpt>
<trkpt lat="32.588161469" lon="34.999786377">
  <ele>172.591064</ele>
  <time>2011-10-13T05:35:11Z</time>
  <speed>1.460000</speed>
</trkpt>
<trkpt lat="32.588165283" lon="34.999824524">
  <ele>172.989502</ele>
  <time>2011-10-13T05:35:13Z</time>
  <speed>1.310000</speed>
</trkpt>
<trkpt lat="32.588165283" lon="34.999866486">
  <ele>174.782471</ele>
  <time>2011-10-13T05:35:16Z</time>
  <speed>1.480000</speed>
</trkpt>
<trkpt lat="32.588172913" lon="34.999904633">
  <ele>174.989502</ele>
  <time>2011-10-13T05:35:18Z</time>
  <speed>1.830000</speed>
</trkpt>
<trkpt lat="32.588157654" lon="34.999938965">
  <ele>174.696533</ele>
  <time>2011-10-13T05:35:20Z</time>
  <speed>1.660000</speed>
</trkpt>
<trkpt lat="32.588146210" lon="34.999969482">
  <ele>175.352783</ele>
  <time>2011-10-13T05:35:22Z</time>
  <speed>1.470000</speed>
</trkpt>
<trkpt lat="32.588146210" lon="35.000011444">
  <ele>175.266846</ele>
  <time>2011-10-13T05:35:25Z</time>
  <speed>1.390000</speed>
</trkpt>
<trkpt lat="32.588153839" lon="35.000049591">
  <ele>174.411377</ele>
  <time>2011-10-13T05:35:27Z</time>
  <speed>1.540000</speed>
</trkpt>
<trkpt lat="32.588150024" lon="35.000080109">
  <ele>173.509033</ele>
  <time>2011-10-13T05:35:29Z</time>
  <speed>1.710000</speed>
</trkpt>
<trkpt lat="32.588157654" lon="35.000122070">
  <ele>172.989502</ele>
  <time>2011-10-13T05:35:31Z</time>
  <speed>2.310000</speed>
</trkpt>
<trkpt lat="32.588176727" lon="35.000179291">
  <ele>172.813721</ele>
  <time>2011-10-13T05:35:33Z</time>
  <speed>2.790000</speed>
</trkpt>
<trkpt lat="32.588207245" lon="35.000228882">
  <ele>171.645752</ele>
  <time>2011-10-13T05:35:35Z</time>
  <speed>3.010000</speed>
</trkpt>
<trkpt lat="32.588211060" lon="35.000282288">
  <ele>171.833252</ele>
  <time>2011-10-13T05:35:37Z</time>
  <speed>2.290000</speed>
</trkpt>
<trkpt lat="32.588218689" lon="35.000320435">
  <ele>171.759033</ele>
  <time>2011-10-13T05:35:39Z</time>
  <speed>1.890000</speed>
</trkpt>
<trkpt lat="32.588230133" lon="35.000362396">
  <ele>171.368408</ele>
  <time>2011-10-13T05:35:41Z</time>
  <speed>1.780000</speed>
</trkpt>
<trkpt lat="32.588241577" lon="35.000408173">
  <ele>171.278564</ele>
  <time>2011-10-13T05:35:43Z</time>
  <speed>1.930000</speed>
</trkpt>
<trkpt lat="32.588245392" lon="35.000450134">
  <ele>171.688721</ele>
  <time>2011-10-13T05:35:45Z</time>
  <speed>1.730000</speed>
</trkpt>
<trkpt lat="32.588245392" lon="35.000488281">
  <ele>172.087158</ele>
  <time>2011-10-13T05:35:47Z</time>
  <speed>2.070000</speed>
</trkpt>
<trkpt lat="32.588241577" lon="35.000526428">
  <ele>172.536377</ele>
  <time>2011-10-13T05:35:49Z</time>
  <speed>1.560000</speed>
</trkpt>
<trkpt lat="32.588241577" lon="35.000560760">
  <ele>172.575439</ele>
  <time>2011-10-13T05:35:51Z</time>
  <speed>1.690000</speed>
</trkpt>
<trkpt lat="32.588245392" lon="35.000598907">
  <ele>173.583252</ele>
  <time>2011-10-13T05:35:53Z</time>
  <speed>1.950000</speed>
</trkpt>
<trkpt lat="32.588245392" lon="35.000640869">
  <ele>174.020752</ele>
  <time>2011-10-13T05:35:55Z</time>
  <speed>1.970000</speed>
</trkpt>
<trkpt lat="32.588253021" lon="35.000694275">
  <ele>174.087158</ele>
  <time>2011-10-13T05:35:57Z</time>
  <speed>2.080000</speed>
</trkpt>
<trkpt lat="32.588256836" lon="35.000740051">
  <ele>174.927002</ele>
  <time>2011-10-13T05:35:59Z</time>
  <speed>2.380000</speed>
</trkpt>
<trkpt lat="32.588268280" lon="35.000793457">
  <ele>175.833252</ele>
  <time>2011-10-13T05:36:01Z</time>
  <speed>2.770000</speed>
</trkpt>
<trkpt lat="32.588279724" lon="35.000827789">
  <ele>175.891846</ele>
  <time>2011-10-13T05:36:02Z</time>
  <speed>2.890000</speed>
</trkpt>
<trkpt lat="32.588283539" lon="35.000888824">
  <ele>176.161377</ele>
  <time>2011-10-13T05:36:04Z</time>
  <speed>2.560000</speed>
</trkpt>
<trkpt lat="32.588260651" lon="35.000949860">
  <ele>176.481689</ele>
  <time>2011-10-13T05:36:06Z</time>
  <speed>3.430000</speed>
</trkpt>
<trkpt lat="32.588245392" lon="35.000988007">
  <ele>176.567627</ele>
  <time>2011-10-13T05:36:07Z</time>
  <speed>2.890000</speed>
</trkpt>
<trkpt lat="32.588237762" lon="35.001018524">
  <ele>176.856689</ele>
  <time>2011-10-13T05:36:08Z</time>
  <speed>2.540000</speed>
</trkpt>
<trkpt lat="32.588230133" lon="35.001056671">
  <ele>177.071533</ele>
  <time>2011-10-13T05:36:09Z</time>
  <speed>2.680000</speed>
</trkpt>
<trkpt lat="32.588233948" lon="35.001087189">
  <ele>176.661377</ele>
  <time>2011-10-13T05:36:10Z</time>
  <speed>3.110000</speed>
</trkpt>
<trkpt lat="32.588233948" lon="35.001155853">
  <ele>176.274658</ele>
  <time>2011-10-13T05:36:12Z</time>
  <speed>3.990000</speed>
</trkpt>
<trkpt lat="32.588237762" lon="35.001201630">
  <ele>176.641846</ele>
  <time>2011-10-13T05:36:13Z</time>
  <speed>4.260000</speed>
</trkpt>
<trkpt lat="32.588253021" lon="35.001243591">
  <ele>176.927002</ele>
  <time>2011-10-13T05:36:14Z</time>
  <speed>4.170000</speed>
</trkpt>
<trkpt lat="32.588275909" lon="35.001289368">
  <ele>176.559814</ele>
  <time>2011-10-13T05:36:15Z</time>
  <speed>4.810000</speed>
</trkpt>
<trkpt lat="32.588291168" lon="35.001342773">
  <ele>175.641846</ele>
  <time>2011-10-13T05:36:16Z</time>
  <speed>5.180000</speed>
</trkpt>
<trkpt lat="32.588291168" lon="35.001392365">
  <ele>175.630127</ele>
  <time>2011-10-13T05:36:17Z</time>
  <speed>4.540000</speed>
</trkpt>
<trkpt lat="32.588275909" lon="35.001438141">
  <ele>175.372314</ele>
  <time>2011-10-13T05:36:18Z</time>
  <speed>4.910000</speed>
</trkpt>
<trkpt lat="32.588253021" lon="35.001495361">
  <ele>175.227783</ele>
  <time>2011-10-13T05:36:19Z</time>
  <speed>5.240000</speed>
</trkpt>
<trkpt lat="32.588230133" lon="35.001548767">
  <ele>175.677002</ele>
  <time>2011-10-13T05:36:20Z</time>
  <speed>5.160000</speed>
</trkpt>
<trkpt lat="32.588218689" lon="35.001605988">
  <ele>175.512939</ele>
  <time>2011-10-13T05:36:21Z</time>
  <speed>5.120000</speed>
</trkpt>
<trkpt lat="32.588222504" lon="35.001651764">
  <ele>174.481689</ele>
  <time>2011-10-13T05:36:22Z</time>
  <speed>4.130000</speed>
</trkpt>
<trkpt lat="32.588230133" lon="35.001701355">
  <ele>175.052002</ele>
  <time>2011-10-13T05:36:23Z</time>
  <speed>3.720000</speed>
</trkpt>
<trkpt lat="32.588249207" lon="35.001731873">
  <ele>174.669189</ele>
  <time>2011-10-13T05:36:24Z</time>
  <speed>3.930000</speed>
</trkpt>
<trkpt lat="32.588260651" lon="35.001773834">
  <ele>173.563721</ele>
  <time>2011-10-13T05:36:25Z</time>
  <speed>4.550000</speed>
</trkpt>
<trkpt lat="32.588256836" lon="35.001811981">
  <ele>172.856689</ele>
  <time>2011-10-13T05:36:26Z</time>
  <speed>3.780000</speed>
</trkpt>
<trkpt lat="32.588233948" lon="35.001842499">
  <ele>171.630127</ele>
  <time>2011-10-13T05:36:27Z</time>
  <speed>4.090000</speed>
</trkpt>
<trkpt lat="32.588218689" lon="35.001888275">
  <ele>170.251221</ele>
  <time>2011-10-13T05:36:28Z</time>
  <speed>4.780000</speed>
</trkpt>
<trkpt lat="32.588211060" lon="35.001937866">
  <ele>169.598877</ele>
  <time>2011-10-13T05:36:29Z</time>
  <speed>5.190000</speed>
</trkpt>
<trkpt lat="32.588214874" lon="35.001998901">
  <ele>168.872314</ele>
  <time>2011-10-13T05:36:30Z</time>
  <speed>5.140000</speed>
</trkpt>
<trkpt lat="32.588203430" lon="35.002056122">
  <ele>167.407471</ele>
  <time>2011-10-13T05:36:31Z</time>
  <speed>5.980000</speed>
</trkpt>
<trkpt lat="32.588176727" lon="35.002109528">
  <ele>166.446533</ele>
  <time>2011-10-13T05:36:32Z</time>
  <speed>4.690000</speed>
</trkpt>
<trkpt lat="32.588146210" lon="35.002143860">
  <ele>166.262939</ele>
  <time>2011-10-13T05:36:33Z</time>
  <speed>4.780000</speed>
</trkpt>
<trkpt lat="32.588119507" lon="35.002182007">
  <ele>165.540283</ele>
  <time>2011-10-13T05:36:34Z</time>
  <speed>4.560000</speed>
</trkpt>
<trkpt lat="32.588085175" lon="35.002216339">
  <ele>164.571533</ele>
  <time>2011-10-13T05:36:35Z</time>
  <speed>4.870000</speed>
</trkpt>
<trkpt lat="32.588050842" lon="35.002246857">
  <ele>163.391846</ele>
  <time>2011-10-13T05:36:36Z</time>
  <speed>4.530000</speed>
</trkpt>
<trkpt lat="32.588016510" lon="35.002269745">
  <ele>161.934814</ele>
  <time>2011-10-13T05:36:37Z</time>
  <speed>3.990000</speed>
</trkpt>
<trkpt lat="32.587985992" lon="35.002300262">
  <ele>161.536377</ele>
  <time>2011-10-13T05:36:38Z</time>
  <speed>4.110000</speed>
</trkpt>
<trkpt lat="32.587955475" lon="35.002334595">
  <ele>160.270752</ele>
  <time>2011-10-13T05:36:39Z</time>
  <speed>4.730000</speed>
</trkpt>
<trkpt lat="32.587924957" lon="35.002376556">
  <ele>159.309814</ele>
  <time>2011-10-13T05:36:40Z</time>
  <speed>4.910000</speed>
</trkpt>
<trkpt lat="32.587894440" lon="35.002422333">
  <ele>158.962158</ele>
  <time>2011-10-13T05:36:41Z</time>
  <speed>4.460000</speed>
</trkpt>
<trkpt lat="32.587871552" lon="35.002464294">
  <ele>158.583252</ele>
  <time>2011-10-13T05:36:42Z</time>
  <speed>4.270000</speed>
</trkpt>
<trkpt lat="32.587863922" lon="35.002510071">
  <ele>158.118408</ele>
  <time>2011-10-13T05:36:43Z</time>
  <speed>4.380000</speed>
</trkpt>
<trkpt lat="32.587867737" lon="35.002555847">
  <ele>157.106689</ele>
  <time>2011-10-13T05:36:44Z</time>
  <speed>4.170000</speed>
</trkpt>
<trkpt lat="32.587875366" lon="35.002601624">
  <ele>156.442627</ele>
  <time>2011-10-13T05:36:45Z</time>
  <speed>4.650000</speed>
</trkpt>
<trkpt lat="32.587886810" lon="35.002662659">
  <ele>157.594971</ele>
  <time>2011-10-13T05:36:46Z</time>
  <speed>4.480000</speed>
</trkpt>
<trkpt lat="32.587909698" lon="35.002712250">
  <ele>158.423096</ele>
  <time>2011-10-13T05:36:47Z</time>
  <speed>4.780000</speed>
</trkpt>
<trkpt lat="32.587936401" lon="35.002754211">
  <ele>158.231689</ele>
  <time>2011-10-13T05:36:48Z</time>
  <speed>4.700000</speed>
</trkpt>
<trkpt lat="32.587959290" lon="35.002792358">
  <ele>157.997314</ele>
  <time>2011-10-13T05:36:49Z</time>
  <speed>4.430000</speed>
</trkpt>
<trkpt lat="32.587963104" lon="35.002838135">
  <ele>157.743408</ele>
  <time>2011-10-13T05:36:50Z</time>
  <speed>4.330000</speed>
</trkpt>
<trkpt lat="32.587966919" lon="35.002883911">
  <ele>157.516846</ele>
  <time>2011-10-13T05:36:51Z</time>
  <speed>3.730000</speed>
</trkpt>
<trkpt lat="32.587963104" lon="35.002925873">
  <ele>157.555908</ele>
  <time>2011-10-13T05:36:52Z</time>
  <speed>3.610000</speed>
</trkpt>
<trkpt lat="32.587959290" lon="35.002960205">
  <ele>158.415283</ele>
  <time>2011-10-13T05:36:53Z</time>
  <speed>3.210000</speed>
</trkpt>
<trkpt lat="32.587963104" lon="35.003017426">
  <ele>159.098877</ele>
  <time>2011-10-13T05:36:55Z</time>
  <speed>2.300000</speed>
</trkpt>
<trkpt lat="32.587974548" lon="35.003059387">
  <ele>158.130127</ele>
  <time>2011-10-13T05:36:57Z</time>
  <speed>1.340000</speed>
</trkpt>
<trkpt lat="32.587982178" lon="35.003097534">
  <ele>158.594971</ele>
  <time>2011-10-13T05:37:30Z</time>
  <speed>1.630000</speed>
</trkpt>
<trkpt lat="32.587985992" lon="35.003139496">
  <ele>158.130127</ele>
  <time>2011-10-13T05:37:32Z</time>
  <speed>1.560000</speed>
</trkpt>
<trkpt lat="32.587985992" lon="35.003173828">
  <ele>157.962158</ele>
  <time>2011-10-13T05:37:34Z</time>
  <speed>1.550000</speed>
</trkpt>
<trkpt lat="32.587985992" lon="35.003219604">
  <ele>157.696533</ele>
  <time>2011-10-13T05:37:36Z</time>
  <speed>1.770000</speed>
</trkpt>
<trkpt lat="32.587993622" lon="35.003261566">
  <ele>157.591064</ele>
  <time>2011-10-13T05:37:38Z</time>
  <speed>1.690000</speed>
</trkpt>
<trkpt lat="32.587993622" lon="35.003303528">
  <ele>158.403564</ele>
  <time>2011-10-13T05:37:40Z</time>
  <speed>1.650000</speed>
</trkpt>
<trkpt lat="32.587993622" lon="35.003334045">
  <ele>158.532471</ele>
  <time>2011-10-13T05:37:42Z</time>
  <speed>2.040000</speed>
</trkpt>
<trkpt lat="32.587997437" lon="35.003379822">
  <ele>158.602783</ele>
  <time>2011-10-13T05:37:44Z</time>
  <speed>1.610000</speed>
</trkpt>
<trkpt lat="32.587993622" lon="35.003414154">
  <ele>158.950439</ele>
  <time>2011-10-13T05:37:46Z</time>
  <speed>1.670000</speed>
</trkpt>
<trkpt lat="32.587997437" lon="35.003448486">
  <ele>159.305908</ele>
  <time>2011-10-13T05:37:48Z</time>
  <speed>1.650000</speed>
</trkpt>
<trkpt lat="32.588001251" lon="35.003498077">
  <ele>159.657471</ele>
  <time>2011-10-13T05:37:50Z</time>
  <speed>1.680000</speed>
</trkpt>
<trkpt lat="32.588012695" lon="35.003528595">
  <ele>160.372314</ele>
  <time>2011-10-13T05:37:52Z</time>
  <speed>1.430000</speed>
</trkpt>
<trkpt lat="32.588008881" lon="35.003559113">
  <ele>161.102783</ele>
  <time>2011-10-13T05:37:54Z</time>
  <speed>1.570000</speed>
</trkpt>
<trkpt lat="32.588016510" lon="35.003597260">
  <ele>161.747314</ele>
  <time>2011-10-13T05:37:56Z</time>
  <speed>1.670000</speed>
</trkpt>
<trkpt lat="32.588024139" lon="35.003631592">
  <ele>162.755127</ele>
  <time>2011-10-13T05:37:58Z</time>
  <speed>1.600000</speed>
</trkpt>
<trkpt lat="32.588039398" lon="35.003669739">
  <ele>164.040283</ele>
  <time>2011-10-13T05:38:01Z</time>
  <speed>1.830000</speed>
</trkpt>
<trkpt lat="32.588050842" lon="35.003711700">
  <ele>164.794189</ele>
  <time>2011-10-13T05:38:03Z</time>
  <speed>1.720000</speed>
</trkpt>
<trkpt lat="32.588062286" lon="35.003734589">
  <ele>166.321533</ele>
  <time>2011-10-13T05:38:05Z</time>
  <speed>1.840000</speed>
</trkpt>
<trkpt lat="32.588077545" lon="35.003780365">
  <ele>166.649658</ele>
  <time>2011-10-13T05:38:08Z</time>
  <speed>1.710000</speed>
</trkpt>
<trkpt lat="32.588085175" lon="35.003814697">
  <ele>167.208252</ele>
  <time>2011-10-13T05:38:10Z</time>
  <speed>1.470000</speed>
</trkpt>
<trkpt lat="32.588092804" lon="35.003845215">
  <ele>167.180908</ele>
  <time>2011-10-13T05:38:12Z</time>
  <speed>1.450000</speed>
</trkpt>
<trkpt lat="32.588092804" lon="35.003887177">
  <ele>166.903564</ele>
  <time>2011-10-13T05:38:14Z</time>
  <speed>1.730000</speed>
</trkpt>
<trkpt lat="32.588088989" lon="35.003929138">
  <ele>167.290283</ele>
  <time>2011-10-13T05:38:16Z</time>
  <speed>1.760000</speed>
</trkpt>
<trkpt lat="32.588081360" lon="35.003963470">
  <ele>167.200439</ele>
  <time>2011-10-13T05:38:18Z</time>
  <speed>1.700000</speed>
</trkpt>
<trkpt lat="32.588081360" lon="35.003997803">
  <ele>167.919189</ele>
  <time>2011-10-13T05:38:20Z</time>
  <speed>1.340000</speed>
</trkpt>
<trkpt lat="32.588069916" lon="35.004028320">
  <ele>168.598877</ele>
  <time>2011-10-13T05:38:22Z</time>
  <speed>1.860000</speed>
</trkpt>
<trkpt lat="32.588035583" lon="35.004051208">
  <ele>169.438721</ele>
  <time>2011-10-13T05:38:25Z</time>
  <speed>1.640000</speed>
</trkpt>
<trkpt lat="32.588005066" lon="35.004070282">
  <ele>170.243408</ele>
  <time>2011-10-13T05:38:27Z</time>
  <speed>1.920000</speed>
</trkpt>
<trkpt lat="32.587997437" lon="35.004100800">
  <ele>170.618408</ele>
  <time>2011-10-13T05:38:29Z</time>
  <speed>1.500000</speed>
</trkpt>
<trkpt lat="32.587978363" lon="35.004138947">
  <ele>171.208252</ele>
  <time>2011-10-13T05:38:32Z</time>
  <speed>1.610000</speed>
</trkpt>
<trkpt lat="32.587951660" lon="35.004158020">
  <ele>171.302002</ele>
  <time>2011-10-13T05:38:35Z</time>
  <speed>1.520000</speed>
</trkpt>
<trkpt lat="32.587917328" lon="35.004173279">
  <ele>171.520752</ele>
  <time>2011-10-13T05:38:38Z</time>
  <speed>1.310000</speed>
</trkpt>
<trkpt lat="32.587894440" lon="35.004207611">
  <ele>172.321533</ele>
  <time>2011-10-13T05:38:41Z</time>
  <speed>1.220000</speed>
</trkpt>
<trkpt lat="32.587871552" lon="35.004234314">
  <ele>172.368408</ele>
  <time>2011-10-13T05:38:44Z</time>
  <speed>1.390000</speed>
</trkpt>
<trkpt lat="32.587856293" lon="35.004261017">
  <ele>172.434814</ele>
  <time>2011-10-13T05:38:46Z</time>
  <speed>1.240000</speed>
</trkpt>
<trkpt lat="32.587833405" lon="35.004287720">
  <ele>172.727783</ele>
  <time>2011-10-13T05:38:49Z</time>
  <speed>1.260000</speed>
</trkpt>
<trkpt lat="32.587821960" lon="35.004325867">
  <ele>172.868408</ele>
  <time>2011-10-13T05:38:52Z</time>
  <speed>1.360000</speed>
</trkpt>
<trkpt lat="32.587802887" lon="35.004352570">
  <ele>172.302002</ele>
  <time>2011-10-13T05:38:55Z</time>
  <speed>1.180000</speed>
</trkpt>
<trkpt lat="32.587791443" lon="35.004383087">
  <ele>171.454346</ele>
  <time>2011-10-13T05:38:58Z</time>
  <speed>0.920000</speed>
</trkpt>
<trkpt lat="32.587776184" lon="35.004402161">
  <ele>173.356689</ele>
  <time>2011-10-13T05:38:59Z</time>
  <speed>1.430000</speed>
</trkpt>
<trkpt lat="32.587745667" lon="35.004379272">
  <ele>173.614502</ele>
  <time>2011-10-13T05:39:02Z</time>
  <speed>1.340000</speed>
</trkpt>
<trkpt lat="32.587711334" lon="35.004352570">
  <ele>173.098877</ele>
  <time>2011-10-13T05:39:05Z</time>
  <speed>1.590000</speed>
</trkpt>
<trkpt lat="32.587684631" lon="35.004341125">
  <ele>173.001221</ele>
  <time>2011-10-13T05:39:07Z</time>
  <speed>1.350000</speed>
</trkpt>
<trkpt lat="32.587650299" lon="35.004356384">
  <ele>173.219971</ele>
  <time>2011-10-13T05:39:10Z</time>
  <speed>0.830000</speed>
</trkpt>
<trkpt lat="32.587635040" lon="35.004379272">
  <ele>171.825439</ele>
  <time>2011-10-13T05:41:36Z</time>
</trkpt>
<trkpt lat="32.587631226" lon="35.004409790">
  <ele>172.380127</ele>
  <time>2011-10-13T05:48:01Z</time>
</trkpt>
<trkpt lat="32.587631226" lon="35.004379272">
  <ele>172.423096</ele>
  <time>2011-10-13T05:52:01Z</time>
  <speed>0.120000</speed>
</trkpt>
<trkpt lat="32.587657928" lon="35.004364014">
  <ele>171.251221</ele>
  <time>2011-10-13T05:52:14Z</time>
  <speed>0.110000</speed>
</trkpt>
<trkpt lat="32.587692261" lon="35.004356384">
  <ele>170.040283</ele>
  <time>2011-10-13T05:54:02Z</time>
  <speed>1.530000</speed>
</trkpt>
<trkpt lat="32.587726593" lon="35.004360199">
  <ele>169.618408</ele>
  <time>2011-10-13T05:54:04Z</time>
  <speed>2.130000</speed>
</trkpt>
<trkpt lat="32.587768555" lon="35.004371643">
  <ele>169.016846</ele>
  <time>2011-10-13T05:54:06Z</time>
  <speed>2.460000</speed>
</trkpt>
<trkpt lat="32.587814331" lon="35.004402161">
  <ele>168.235596</ele>
  <time>2011-10-13T05:54:08Z</time>
  <speed>2.710000</speed>
</trkpt>
<trkpt lat="32.587833405" lon="35.004451752">
  <ele>167.259033</ele>
  <time>2011-10-13T05:54:10Z</time>
  <speed>2.450000</speed>
</trkpt>
<trkpt lat="32.587844849" lon="35.004486084">
  <ele>166.868408</ele>
  <time>2011-10-13T05:54:11Z</time>
  <speed>2.990000</speed>
</trkpt>
<trkpt lat="32.587848663" lon="35.004520416">
  <ele>166.653564</ele>
  <time>2011-10-13T05:54:12Z</time>
  <speed>3.010000</speed>
</trkpt>
<trkpt lat="32.587844849" lon="35.004558563">
  <ele>166.419189</ele>
  <time>2011-10-13T05:54:13Z</time>
  <speed>3.110000</speed>
</trkpt>
<trkpt lat="32.587841034" lon="35.004592896">
  <ele>166.200439</ele>
  <time>2011-10-13T05:54:14Z</time>
  <speed>3.490000</speed>
</trkpt>
<trkpt lat="32.587833405" lon="35.004631042">
  <ele>166.231689</ele>
  <time>2011-10-13T05:54:15Z</time>
  <speed>3.530000</speed>
</trkpt>
<trkpt lat="32.587825775" lon="35.004665375">
  <ele>165.911377</ele>
  <time>2011-10-13T05:54:16Z</time>
  <speed>3.780000</speed>
</trkpt>
<trkpt lat="32.587814331" lon="35.004707336">
  <ele>164.786377</ele>
  <time>2011-10-13T05:54:17Z</time>
  <speed>3.520000</speed>
</trkpt>
<trkpt lat="32.587814331" lon="35.004741669">
  <ele>164.333252</ele>
  <time>2011-10-13T05:54:18Z</time>
  <speed>3.250000</speed>
</trkpt>
<trkpt lat="32.587810516" lon="35.004810333">
  <ele>163.493408</ele>
  <time>2011-10-13T05:54:20Z</time>
  <speed>3.730000</speed>
</trkpt>
<trkpt lat="32.587795258" lon="35.004840851">
  <ele>163.532471</ele>
  <time>2011-10-13T05:54:21Z</time>
  <speed>3.010000</speed>
</trkpt>
<trkpt lat="32.587768555" lon="35.004898071">
  <ele>163.305908</ele>
  <time>2011-10-13T05:54:23Z</time>
  <speed>3.230000</speed>
</trkpt>
<trkpt lat="32.587753296" lon="35.004928589">
  <ele>162.567627</ele>
  <time>2011-10-13T05:54:24Z</time>
  <speed>3.410000</speed>
</trkpt>
<trkpt lat="32.587738037" lon="35.004955292">
  <ele>162.212158</ele>
  <time>2011-10-13T05:54:25Z</time>
  <speed>3.130000</speed>
</trkpt>
<trkpt lat="32.587722778" lon="35.004981995">
  <ele>161.614502</ele>
  <time>2011-10-13T05:54:26Z</time>
  <speed>2.980000</speed>
</trkpt>
<trkpt lat="32.587688446" lon="35.005020142">
  <ele>160.278564</ele>
  <time>2011-10-13T05:54:28Z</time>
  <speed>2.580000</speed>
</trkpt>
<trkpt lat="32.587669373" lon="35.005046844">
  <ele>159.509033</ele>
  <time>2011-10-13T05:54:30Z</time>
  <speed>1.430000</speed>
</trkpt>
<trkpt lat="32.587661743" lon="35.005084991">
  <ele>159.692627</ele>
  <time>2011-10-13T05:54:32Z</time>
  <speed>1.470000</speed>
</trkpt>
<trkpt lat="32.587654114" lon="35.005115509">
  <ele>159.012939</ele>
  <time>2011-10-13T05:54:34Z</time>
  <speed>1.200000</speed>
</trkpt>
<trkpt lat="32.587635040" lon="35.005134583">
  <ele>157.114502</ele>
  <time>2011-10-13T05:54:37Z</time>
  <speed>0.800000</speed>
</trkpt>
<trkpt lat="32.587627411" lon="35.005172729">
  <ele>158.380127</ele>
  <time>2011-10-13T05:54:39Z</time>
  <speed>0.800000</speed>
</trkpt>
<trkpt lat="32.587650299" lon="35.005203247">
  <ele>156.579346</ele>
  <time>2011-10-13T05:54:42Z</time>
  <speed>1.170000</speed>
</trkpt>
<trkpt lat="32.587665558" lon="35.005233765">
  <ele>155.403564</ele>
  <time>2011-10-13T05:54:44Z</time>
  <speed>1.660000</speed>
</trkpt>
<trkpt lat="32.587673187" lon="35.005275726">
  <ele>153.829346</ele>
  <time>2011-10-13T05:54:46Z</time>
  <speed>1.790000</speed>
</trkpt>
<trkpt lat="32.587650299" lon="35.005306244">
  <ele>152.805908</ele>
  <time>2011-10-13T05:54:48Z</time>
  <speed>2.130000</speed>
</trkpt>
<trkpt lat="32.587604523" lon="35.005321503">
  <ele>151.899658</ele>
  <time>2011-10-13T05:54:50Z</time>
  <speed>1.930000</speed>
</trkpt>
<trkpt lat="32.587570190" lon="35.005332947">
  <ele>151.243408</ele>
  <time>2011-10-13T05:54:52Z</time>
  <speed>1.640000</speed>
</trkpt>
<trkpt lat="32.587547302" lon="35.005367279">
  <ele>149.489502</ele>
  <time>2011-10-13T05:54:54Z</time>
  <speed>1.850000</speed>
</trkpt>
<trkpt lat="32.587539673" lon="35.005393982">
  <ele>148.606689</ele>
  <time>2011-10-13T05:54:55Z</time>
  <speed>1.990000</speed>
</trkpt>
<trkpt lat="32.587532043" lon="35.005435944">
  <ele>147.891846</ele>
  <time>2011-10-13T05:54:57Z</time>
  <speed>2.040000</speed>
</trkpt>
<trkpt lat="32.587520599" lon="35.005489349">
  <ele>147.165283</ele>
  <time>2011-10-13T05:54:59Z</time>
  <speed>2.180000</speed>
</trkpt>
<trkpt lat="32.587497711" lon="35.005527496">
  <ele>146.751221</ele>
  <time>2011-10-13T05:55:01Z</time>
  <speed>1.610000</speed>
</trkpt>
<trkpt lat="32.587482452" lon="35.005561829">
  <ele>146.177002</ele>
  <time>2011-10-13T05:55:03Z</time>
  <speed>1.870000</speed>
</trkpt>
<trkpt lat="32.587478638" lon="35.005599976">
  <ele>144.294189</ele>
  <time>2011-10-13T05:55:06Z</time>
  <speed>1.240000</speed>
</trkpt>
<trkpt lat="32.587467194" lon="35.005634308">
  <ele>143.016846</ele>
  <time>2011-10-13T05:55:08Z</time>
  <speed>1.730000</speed>
</trkpt>
<trkpt lat="32.587467194" lon="35.005668640">
  <ele>142.059814</ele>
  <time>2011-10-13T05:55:10Z</time>
  <speed>1.610000</speed>
</trkpt>
<trkpt lat="32.587463379" lon="35.005706787">
  <ele>141.235596</ele>
  <time>2011-10-13T05:55:12Z</time>
  <speed>2.000000</speed>
</trkpt>
<trkpt lat="32.587455750" lon="35.005748749">
  <ele>140.204346</ele>
  <time>2011-10-13T05:55:14Z</time>
  <speed>1.560000</speed>
</trkpt>
<trkpt lat="32.587463379" lon="35.005779266">
  <ele>138.786377</ele>
  <time>2011-10-13T05:55:15Z</time>
  <speed>2.180000</speed>
</trkpt>
<trkpt lat="32.587471008" lon="35.005809784">
  <ele>137.739502</ele>
  <time>2011-10-13T05:55:16Z</time>
  <speed>2.170000</speed>
</trkpt>
<trkpt lat="32.587490082" lon="35.005863190">
  <ele>135.802002</ele>
  <time>2011-10-13T05:55:18Z</time>
  <speed>2.250000</speed>
</trkpt>
<trkpt lat="32.587501526" lon="35.005916595">
  <ele>135.028564</ele>
  <time>2011-10-13T05:55:20Z</time>
  <speed>1.710000</speed>
</trkpt>
<trkpt lat="32.587516785" lon="35.005954742">
  <ele>132.087158</ele>
  <time>2011-10-13T05:55:22Z</time>
  <speed>2.010000</speed>
</trkpt>
<trkpt lat="32.587532043" lon="35.005992889">
  <ele>130.559814</ele>
  <time>2011-10-13T05:55:24Z</time>
  <speed>1.820000</speed>
</trkpt>
<trkpt lat="32.587535858" lon="35.006034851">
  <ele>129.442627</ele>
  <time>2011-10-13T05:55:26Z</time>
  <speed>1.680000</speed>
</trkpt>
<trkpt lat="32.587562561" lon="35.006065369">
  <ele>127.654907</ele>
  <time>2011-10-13T05:55:28Z</time>
  <speed>1.510000</speed>
</trkpt>
<trkpt lat="32.587585449" lon="35.006088257">
  <ele>126.018188</ele>
  <time>2011-10-13T05:55:30Z</time>
  <speed>1.070000</speed>
</trkpt>
<trkpt lat="32.587623596" lon="35.006103516">
  <ele>124.817017</ele>
  <time>2011-10-13T05:55:33Z</time>
  <speed>1.800000</speed>
</trkpt>
<trkpt lat="32.587665558" lon="35.006126404">
  <ele>124.379517</ele>
  <time>2011-10-13T05:55:35Z</time>
  <speed>2.580000</speed>
</trkpt>
<trkpt lat="32.587692261" lon="35.006137848">
  <ele>124.406860</ele>
  <time>2011-10-13T05:55:36Z</time>
  <speed>2.880000</speed>
</trkpt>
<trkpt lat="32.587722778" lon="35.006160736">
  <ele>124.262329</ele>
  <time>2011-10-13T05:55:37Z</time>
  <speed>2.950000</speed>
</trkpt>
<trkpt lat="32.587749481" lon="35.006187439">
  <ele>122.324829</ele>
  <time>2011-10-13T05:55:38Z</time>
  <speed>2.810000</speed>
</trkpt>
<trkpt lat="32.587764740" lon="35.006217957">
  <ele>122.037720</ele>
  <time>2011-10-13T05:55:39Z</time>
  <speed>2.970000</speed>
</trkpt>
<trkpt lat="32.587783813" lon="35.006256104">
  <ele>121.688110</ele>
  <time>2011-10-13T05:55:40Z</time>
  <speed>3.150000</speed>
</trkpt>
<trkpt lat="32.587806702" lon="35.006286621">
  <ele>121.518188</ele>
  <time>2011-10-13T05:55:41Z</time>
  <speed>2.730000</speed>
</trkpt>
<trkpt lat="32.587852478" lon="35.006317139">
  <ele>119.516235</ele>
  <time>2011-10-13T05:55:43Z</time>
  <speed>1.730000</speed>
</trkpt>
<trkpt lat="32.587867737" lon="35.006351471">
  <ele>118.320923</ele>
  <time>2011-10-13T05:55:45Z</time>
  <speed>1.680000</speed>
</trkpt>
<trkpt lat="32.587879181" lon="35.006401062">
  <ele>117.736938</ele>
  <time>2011-10-13T05:55:47Z</time>
  <speed>1.700000</speed>
</trkpt>
<trkpt lat="32.587909698" lon="35.006416321">
  <ele>115.949829</ele>
  <time>2011-10-13T05:55:49Z</time>
  <speed>1.700000</speed>
</trkpt>
<trkpt lat="32.587932587" lon="35.006435394">
  <ele>114.762329</ele>
  <time>2011-10-13T05:55:51Z</time>
  <speed>0.750000</speed>
</trkpt>
<trkpt lat="32.587936401" lon="35.006477356">
  <ele>112.871704</ele>
  <time>2011-10-13T05:55:54Z</time>
  <speed>1.290000</speed>
</trkpt>
<trkpt lat="32.587955475" lon="35.006515503">
  <ele>111.904907</ele>
  <time>2011-10-13T05:55:56Z</time>
  <speed>1.720000</speed>
</trkpt>
<trkpt lat="32.587993622" lon="35.006534576">
  <ele>111.207642</ele>
  <time>2011-10-13T05:55:58Z</time>
  <speed>1.660000</speed>
</trkpt>
<trkpt lat="32.588020325" lon="35.006538391">
  <ele>111.223267</ele>
  <time>2011-10-13T05:56:00Z</time>
  <speed>1.290000</speed>
</trkpt>
<trkpt lat="32.588043213" lon="35.006561279">
  <ele>110.926392</ele>
  <time>2011-10-13T05:56:02Z</time>
  <speed>1.450000</speed>
</trkpt>
<trkpt lat="32.588069916" lon="35.006565094">
  <ele>109.582642</ele>
  <time>2011-10-13T05:56:03Z</time>
  <speed>2.440000</speed>
</trkpt>
<trkpt lat="32.588081360" lon="35.006603241">
  <ele>109.613892</ele>
  <time>2011-10-13T05:56:05Z</time>
  <speed>1.560000</speed>
</trkpt>
<trkpt lat="32.588058472" lon="35.006641388">
  <ele>108.115845</ele>
  <time>2011-10-13T05:56:07Z</time>
  <speed>2.920000</speed>
</trkpt>
<trkpt lat="32.588043213" lon="35.006668091">
  <ele>107.762329</ele>
  <time>2011-10-13T05:56:08Z</time>
  <speed>2.880000</speed>
</trkpt>
<trkpt lat="32.588031769" lon="35.006702423">
  <ele>107.154907</ele>
  <time>2011-10-13T05:56:09Z</time>
  <speed>2.880000</speed>
</trkpt>
<trkpt lat="32.588024139" lon="35.006732941">
  <ele>106.277954</ele>
  <time>2011-10-13T05:56:10Z</time>
  <speed>2.850000</speed>
</trkpt>
<trkpt lat="32.588016510" lon="35.006763458">
  <ele>106.020142</ele>
  <time>2011-10-13T05:56:11Z</time>
  <speed>2.810000</speed>
</trkpt>
<trkpt lat="32.588008881" lon="35.006793976">
  <ele>105.385376</ele>
  <time>2011-10-13T05:56:12Z</time>
  <speed>2.330000</speed>
</trkpt>
<trkpt lat="32.587993622" lon="35.006835938">
  <ele>104.649048</ele>
  <time>2011-10-13T05:56:13Z</time>
  <speed>3.040000</speed>
</trkpt>
<trkpt lat="32.587985992" lon="35.006866455">
  <ele>104.729126</ele>
  <time>2011-10-13T05:56:14Z</time>
  <speed>2.460000</speed>
</trkpt>
<trkpt lat="32.587985992" lon="35.006912231">
  <ele>103.467407</ele>
  <time>2011-10-13T05:56:16Z</time>
  <speed>2.260000</speed>
</trkpt>
<trkpt lat="32.588005066" lon="35.006938934">
  <ele>102.803345</ele>
  <time>2011-10-13T05:56:17Z</time>
  <speed>2.980000</speed>
</trkpt>
<trkpt lat="32.588027954" lon="35.006965637">
  <ele>102.455688</ele>
  <time>2011-10-13T05:56:18Z</time>
  <speed>3.310000</speed>
</trkpt>
<trkpt lat="32.588058472" lon="35.006984711">
  <ele>101.938110</ele>
  <time>2011-10-13T05:56:19Z</time>
  <speed>3.460000</speed>
</trkpt>
<trkpt lat="32.588081360" lon="35.007007599">
  <ele>101.326782</ele>
  <time>2011-10-13T05:56:20Z</time>
  <speed>2.510000</speed>
</trkpt>
<trkpt lat="32.588096619" lon="35.007034302">
  <ele>100.502563</ele>
  <time>2011-10-13T05:56:21Z</time>
  <speed>2.410000</speed>
</trkpt>
<trkpt lat="32.588108063" lon="35.007064819">
  <ele>99.555298</ele>
  <time>2011-10-13T05:56:22Z</time>
  <speed>2.680000</speed>
</trkpt>
<trkpt lat="32.588092804" lon="35.007125854">
  <ele>98.588501</ele>
  <time>2011-10-13T05:56:24Z</time>
  <speed>2.250000</speed>
</trkpt>
<trkpt lat="32.588077545" lon="35.007160187">
  <ele>97.250610</ele>
  <time>2011-10-13T05:56:26Z</time>
  <speed>1.740000</speed>
</trkpt>
<trkpt lat="32.588058472" lon="35.007205963">
  <ele>96.455688</ele>
  <time>2011-10-13T05:56:28Z</time>
  <speed>2.150000</speed>
</trkpt>
<trkpt lat="32.588039398" lon="35.007266998">
  <ele>95.850220</ele>
  <time>2011-10-13T05:56:30Z</time>
  <speed>3.150000</speed>
</trkpt>
<trkpt lat="32.588024139" lon="35.007297516">
  <ele>94.291626</ele>
  <time>2011-10-13T05:56:31Z</time>
  <speed>3.050000</speed>
</trkpt>
<trkpt lat="32.588005066" lon="35.007328033">
  <ele>93.510376</ele>
  <time>2011-10-13T05:56:32Z</time>
  <speed>2.970000</speed>
</trkpt>
<trkpt lat="32.587989807" lon="35.007354736">
  <ele>92.627563</ele>
  <time>2011-10-13T05:56:33Z</time>
  <speed>2.370000</speed>
</trkpt>
<trkpt lat="32.587978363" lon="35.007377625">
  <ele>90.611938</ele>
  <time>2011-10-13T05:56:34Z</time>
  <speed>1.650000</speed>
</trkpt>
<trkpt lat="32.587985992" lon="35.007419586">
  <ele>89.320923</ele>
  <time>2011-10-13T05:56:36Z</time>
  <speed>1.700000</speed>
</trkpt>
<trkpt lat="32.588005066" lon="35.007457733">
  <ele>88.418579</ele>
  <time>2011-10-13T05:56:38Z</time>
  <speed>1.730000</speed>
</trkpt>
<trkpt lat="32.588035583" lon="35.007480621">
  <ele>87.445923</ele>
  <time>2011-10-13T05:56:40Z</time>
  <speed>1.510000</speed>
</trkpt>
<trkpt lat="32.588054657" lon="35.007472992">
  <ele>85.588501</ele>
  <time>2011-10-13T05:56:41Z</time>
  <speed>1.260000</speed>
</trkpt>
<trkpt lat="32.588081360" lon="35.007492065">
  <ele>83.752563</ele>
  <time>2011-10-13T05:56:43Z</time>
  <speed>1.580000</speed>
</trkpt>
<trkpt lat="32.588085175" lon="35.007526398">
  <ele>82.830688</ele>
  <time>2011-10-13T05:56:45Z</time>
  <speed>1.490000</speed>
</trkpt>
<trkpt lat="32.588077545" lon="35.007553101">
  <ele>81.276001</ele>
  <time>2011-10-13T05:56:47Z</time>
  <speed>1.110000</speed>
</trkpt>
<trkpt lat="32.588047028" lon="35.007572174">
  <ele>79.623657</ele>
  <time>2011-10-13T05:56:49Z</time>
  <speed>1.970000</speed>
</trkpt>
<trkpt lat="32.588012695" lon="35.007560730">
  <ele>78.859985</ele>
  <time>2011-10-13T05:56:51Z</time>
  <speed>1.700000</speed>
</trkpt>
<trkpt lat="32.587982178" lon="35.007537842">
  <ele>77.762329</ele>
  <time>2011-10-13T05:56:53Z</time>
  <speed>1.820000</speed>
</trkpt>
<trkpt lat="32.587959290" lon="35.007518768">
  <ele>76.315063</ele>
  <time>2011-10-13T05:56:55Z</time>
  <speed>1.800000</speed>
</trkpt>
<trkpt lat="32.587921143" lon="35.007514954">
  <ele>75.276001</ele>
  <time>2011-10-13T05:56:57Z</time>
  <speed>1.960000</speed>
</trkpt>
<trkpt lat="32.587886810" lon="35.007522583">
  <ele>74.133423</ele>
  <time>2011-10-13T05:56:59Z</time>
  <speed>1.440000</speed>
</trkpt>
<trkpt lat="32.587860107" lon="35.007518768">
  <ele>73.037720</ele>
  <time>2011-10-13T05:57:01Z</time>
  <speed>1.700000</speed>
</trkpt>
<trkpt lat="32.587818146" lon="35.007534027">
  <ele>72.584595</ele>
  <time>2011-10-13T05:57:03Z</time>
  <speed>2.650000</speed>
</trkpt>
<trkpt lat="32.587791443" lon="35.007549286">
  <ele>72.533813</ele>
  <time>2011-10-13T05:57:04Z</time>
  <speed>3.500000</speed>
</trkpt>
<trkpt lat="32.587753296" lon="35.007598877">
  <ele>72.373657</ele>
  <time>2011-10-13T05:57:05Z</time>
  <speed>7.170000</speed>
</trkpt>
<trkpt lat="32.587718964" lon="35.007644653">
  <ele>72.350220</ele>
  <time>2011-10-13T05:57:06Z</time>
  <speed>4.880000</speed>
</trkpt>
<trkpt lat="32.587707520" lon="35.007678986">
  <ele>72.514282</ele>
  <time>2011-10-13T05:57:07Z</time>
  <speed>2.410000</speed>
</trkpt>
<trkpt lat="32.587703705" lon="35.007720947">
  <ele>71.641235</ele>
  <time>2011-10-13T05:57:09Z</time>
  <speed>0.770000</speed>
</trkpt>
<trkpt lat="32.587703705" lon="35.007755280">
  <ele>71.635376</ele>
  <time>2011-10-13T05:57:23Z</time>
  <speed>0.770000</speed>
</trkpt>
<trkpt lat="32.587707520" lon="35.007789612">
  <ele>71.621704</ele>
  <time>2011-10-13T05:57:27Z</time>
  <speed>0.950000</speed>
</trkpt>
<trkpt lat="32.587703705" lon="35.007831573">
  <ele>71.615845</ele>
  <time>2011-10-13T05:57:31Z</time>
  <speed>0.900000</speed>
</trkpt>
<trkpt lat="32.587711334" lon="35.007869720">
  <ele>71.733032</ele>
  <time>2011-10-13T05:58:10Z</time>
  <speed>0.740000</speed>
</trkpt>
<trkpt lat="32.587722778" lon="35.007900238">
  <ele>71.881470</ele>
  <time>2011-10-13T05:58:26Z</time>
  <speed>0.700000</speed>
</trkpt>
<trkpt lat="32.587738037" lon="35.007930756">
  <ele>71.902954</ele>
  <time>2011-10-13T05:58:31Z</time>
  <speed>0.680000</speed>
</trkpt>
<trkpt lat="32.587749481" lon="35.007972717">
  <ele>71.971313</ele>
  <time>2011-10-13T05:58:42Z</time>
  <speed>0.890000</speed>
</trkpt>
<trkpt lat="32.587772369" lon="35.008010864">
  <ele>72.596313</ele>
  <time>2011-10-13T05:58:45Z</time>
  <speed>1.000000</speed>
</trkpt>
<trkpt lat="32.587795258" lon="35.008033752">
  <ele>73.543579</ele>
  <time>2011-10-13T05:58:47Z</time>
  <speed>0.850000</speed>
</trkpt>
<trkpt lat="32.587814331" lon="35.008056641">
  <ele>73.791626</ele>
  <time>2011-10-13T05:58:50Z</time>
  <speed>0.590000</speed>
</trkpt>
<trkpt lat="32.587833405" lon="35.008083344">
  <ele>74.524048</ele>
  <time>2011-10-13T05:58:52Z</time>
  <speed>0.530000</speed>
</trkpt>
<trkpt lat="32.587856293" lon="35.008110046">
  <ele>74.988892</ele>
  <time>2011-10-13T05:58:56Z</time>
  <speed>0.250000</speed>
</trkpt>
<trkpt lat="32.587875366" lon="35.008136749">
  <ele>75.061157</ele>
  <time>2011-10-13T05:58:59Z</time>
  <speed>0.940000</speed>
</trkpt>
<trkpt lat="32.587905884" lon="35.008163452">
  <ele>75.072876</ele>
  <time>2011-10-13T05:59:02Z</time>
  <speed>0.880000</speed>
</trkpt>
<trkpt lat="32.587924957" lon="35.008186340">
  <ele>75.004517</ele>
  <time>2011-10-13T05:59:04Z</time>
  <speed>1.050000</speed>
</trkpt>
<trkpt lat="32.587955475" lon="35.008213043">
  <ele>74.990845</ele>
  <time>2011-10-13T05:59:06Z</time>
  <speed>1.570000</speed>
</trkpt>
<trkpt lat="32.587978363" lon="35.008239746">
  <ele>74.926392</ele>
  <time>2011-10-13T05:59:08Z</time>
  <speed>1.660000</speed>
</trkpt>
<trkpt lat="32.588005066" lon="35.008270264">
  <ele>75.307251</ele>
  <time>2011-10-13T05:59:10Z</time>
  <speed>1.480000</speed>
</trkpt>
<trkpt lat="32.588035583" lon="35.008304596">
  <ele>75.231079</ele>
  <time>2011-10-13T05:59:12Z</time>
  <speed>1.950000</speed>
</trkpt>
<trkpt lat="32.588062286" lon="35.008354187">
  <ele>75.336548</ele>
  <time>2011-10-13T05:59:14Z</time>
  <speed>2.280000</speed>
</trkpt>
<trkpt lat="32.588096619" lon="35.008403778">
  <ele>76.164673</ele>
  <time>2011-10-13T05:59:16Z</time>
  <speed>2.480000</speed>
</trkpt>
<trkpt lat="32.588115692" lon="35.008426666">
  <ele>76.500610</ele>
  <time>2011-10-13T05:59:17Z</time>
  <speed>2.790000</speed>
</trkpt>
<trkpt lat="32.588146210" lon="35.008472443">
  <ele>76.613892</ele>
  <time>2011-10-13T05:59:19Z</time>
  <speed>2.350000</speed>
</trkpt>
<trkpt lat="32.588180542" lon="35.008510590">
  <ele>76.817017</ele>
  <time>2011-10-13T05:59:21Z</time>
  <speed>2.430000</speed>
</trkpt>
<trkpt lat="32.588214874" lon="35.008552551">
  <ele>77.568970</ele>
  <time>2011-10-13T05:59:23Z</time>
  <speed>2.150000</speed>
</trkpt>
<trkpt lat="32.588241577" lon="35.008590698">
  <ele>78.115845</ele>
  <time>2011-10-13T05:59:25Z</time>
  <speed>1.990000</speed>
</trkpt>
<trkpt lat="32.588256836" lon="35.008636475">
  <ele>78.178345</ele>
  <time>2011-10-13T05:59:27Z</time>
  <speed>2.490000</speed>
</trkpt>
<trkpt lat="32.588283539" lon="35.008659363">
  <ele>76.908813</ele>
  <time>2011-10-13T05:59:28Z</time>
  <speed>2.870000</speed>
</trkpt>
<trkpt lat="32.588291168" lon="35.008689880">
  <ele>76.863892</ele>
  <time>2011-10-13T05:59:29Z</time>
  <speed>3.080000</speed>
</trkpt>
<trkpt lat="32.588306427" lon="35.008731842">
  <ele>77.344360</ele>
  <time>2011-10-13T05:59:30Z</time>
  <speed>3.210000</speed>
</trkpt>
<trkpt lat="32.588321686" lon="35.008773804">
  <ele>78.504517</ele>
  <time>2011-10-13T05:59:31Z</time>
  <speed>3.210000</speed>
</trkpt>
<trkpt lat="32.588340759" lon="35.008800507">
  <ele>79.447876</ele>
  <time>2011-10-13T05:59:32Z</time>
  <speed>3.010000</speed>
</trkpt>
<trkpt lat="32.588363647" lon="35.008846283">
  <ele>79.922485</ele>
  <time>2011-10-13T05:59:34Z</time>
  <speed>2.030000</speed>
</trkpt>
<trkpt lat="32.588390350" lon="35.008876801">
  <ele>80.928345</ele>
  <time>2011-10-13T05:59:36Z</time>
  <speed>1.640000</speed>
</trkpt>
<trkpt lat="32.588405609" lon="35.008903503">
  <ele>81.699829</ele>
  <time>2011-10-13T05:59:38Z</time>
  <speed>1.670000</speed>
</trkpt>
<trkpt lat="32.588424683" lon="35.008937836">
  <ele>81.604126</ele>
  <time>2011-10-13T05:59:40Z</time>
  <speed>1.780000</speed>
</trkpt>
<trkpt lat="32.588432312" lon="35.008975983">
  <ele>82.402954</ele>
  <time>2011-10-13T05:59:42Z</time>
  <speed>1.680000</speed>
</trkpt>
<trkpt lat="32.588447571" lon="35.009006500">
  <ele>83.100220</ele>
  <time>2011-10-13T05:59:44Z</time>
  <speed>1.720000</speed>
</trkpt>
<trkpt lat="32.588459015" lon="35.009048462">
  <ele>84.041626</ele>
  <time>2011-10-13T05:59:46Z</time>
  <speed>1.930000</speed>
</trkpt>
<trkpt lat="32.588466644" lon="35.009082794">
  <ele>84.594360</ele>
  <time>2011-10-13T05:59:48Z</time>
  <speed>1.720000</speed>
</trkpt>
<trkpt lat="32.588485718" lon="35.009113312">
  <ele>85.145142</ele>
  <time>2011-10-13T05:59:50Z</time>
  <speed>2.190000</speed>
</trkpt>
<trkpt lat="32.588489532" lon="35.009155273">
  <ele>85.924438</ele>
  <time>2011-10-13T05:59:52Z</time>
  <speed>1.650000</speed>
</trkpt>
<trkpt lat="32.588500977" lon="35.009201050">
  <ele>86.818970</ele>
  <time>2011-10-13T05:59:54Z</time>
  <speed>2.180000</speed>
</trkpt>
<trkpt lat="32.588516235" lon="35.009235382">
  <ele>87.594360</ele>
  <time>2011-10-13T05:59:56Z</time>
  <speed>2.110000</speed>
</trkpt>
<trkpt lat="32.588523865" lon="35.009281158">
  <ele>87.893188</ele>
  <time>2011-10-13T05:59:58Z</time>
  <speed>2.440000</speed>
</trkpt>
<trkpt lat="32.588523865" lon="35.009334564">
  <ele>88.037720</ele>
  <time>2011-10-13T06:00:00Z</time>
  <speed>2.000000</speed>
</trkpt>
<trkpt lat="32.588516235" lon="35.009380341">
  <ele>88.447876</ele>
  <time>2011-10-13T06:00:02Z</time>
  <speed>2.110000</speed>
</trkpt>
<trkpt lat="32.588535309" lon="35.009426117">
  <ele>88.457642</ele>
  <time>2011-10-13T06:00:04Z</time>
  <speed>2.150000</speed>
</trkpt>
<trkpt lat="32.588523865" lon="35.009475708">
  <ele>88.824829</ele>
  <time>2011-10-13T06:00:06Z</time>
  <speed>1.830000</speed>
</trkpt>
<trkpt lat="32.588520050" lon="35.009521484">
  <ele>88.940063</ele>
  <time>2011-10-13T06:00:08Z</time>
  <speed>2.370000</speed>
</trkpt>
<trkpt lat="32.588516235" lon="35.009574890">
  <ele>89.158813</ele>
  <time>2011-10-13T06:00:10Z</time>
  <speed>2.330000</speed>
</trkpt>
<trkpt lat="32.588516235" lon="35.009624481">
  <ele>89.486938</ele>
  <time>2011-10-13T06:00:12Z</time>
  <speed>2.340000</speed>
</trkpt>
<trkpt lat="32.588520050" lon="35.009670258">
  <ele>89.543579</ele>
  <time>2011-10-13T06:00:14Z</time>
  <speed>2.060000</speed>
</trkpt>
<trkpt lat="32.588520050" lon="35.009712219">
  <ele>90.051392</ele>
  <time>2011-10-13T06:00:16Z</time>
  <speed>2.180000</speed>
</trkpt>
<trkpt lat="32.588531494" lon="35.009754181">
  <ele>90.738892</ele>
  <time>2011-10-13T06:00:18Z</time>
  <speed>2.170000</speed>
</trkpt>
<trkpt lat="32.588542938" lon="35.009799957">
  <ele>91.676392</ele>
  <time>2011-10-13T06:00:20Z</time>
  <speed>2.390000</speed>
</trkpt>
<trkpt lat="32.588527679" lon="35.009845734">
  <ele>92.322876</ele>
  <time>2011-10-13T06:00:22Z</time>
  <speed>2.100000</speed>
</trkpt>
<trkpt lat="32.588516235" lon="35.009895325">
  <ele>92.590454</ele>
  <time>2011-10-13T06:00:24Z</time>
  <speed>1.930000</speed>
</trkpt>
<trkpt lat="32.588497162" lon="35.009937286">
  <ele>93.201782</ele>
  <time>2011-10-13T06:00:26Z</time>
  <speed>2.410000</speed>
</trkpt>
<trkpt lat="32.588481903" lon="35.009975433">
  <ele>94.389282</ele>
  <time>2011-10-13T06:00:28Z</time>
  <speed>1.870000</speed>
</trkpt>
<trkpt lat="32.588470459" lon="35.010017395">
  <ele>94.725220</ele>
  <time>2011-10-13T06:00:30Z</time>
  <speed>1.890000</speed>
</trkpt>
<trkpt lat="32.588470459" lon="35.010063171">
  <ele>95.420532</ele>
  <time>2011-10-13T06:00:32Z</time>
  <speed>2.180000</speed>
</trkpt>
<trkpt lat="32.588470459" lon="35.010105133">
  <ele>96.328735</ele>
  <time>2011-10-13T06:00:34Z</time>
  <speed>2.080000</speed>
</trkpt>
<trkpt lat="32.588470459" lon="35.010147095">
  <ele>97.711548</ele>
  <time>2011-10-13T06:00:36Z</time>
  <speed>1.800000</speed>
</trkpt>
<trkpt lat="32.588474274" lon="35.010185242">
  <ele>97.703735</ele>
  <time>2011-10-13T06:00:38Z</time>
  <speed>1.610000</speed>
</trkpt>
<trkpt lat="32.588485718" lon="35.010234833">
  <ele>97.869751</ele>
  <time>2011-10-13T06:00:40Z</time>
  <speed>2.030000</speed>
</trkpt>
<trkpt lat="32.588493347" lon="35.010276794">
  <ele>98.932251</ele>
  <time>2011-10-13T06:00:42Z</time>
  <speed>2.210000</speed>
</trkpt>
<trkpt lat="32.588497162" lon="35.010334015">
  <ele>99.383423</ele>
  <time>2011-10-13T06:00:44Z</time>
  <speed>2.260000</speed>
</trkpt>
<trkpt lat="32.588500977" lon="35.010387421">
  <ele>100.346313</ele>
  <time>2011-10-13T06:00:46Z</time>
  <speed>2.260000</speed>
</trkpt>
<trkpt lat="32.588504791" lon="35.010440826">
  <ele>99.750610</ele>
  <time>2011-10-13T06:00:48Z</time>
  <speed>2.370000</speed>
</trkpt>
<trkpt lat="32.588523865" lon="35.010486603">
  <ele>100.029907</ele>
  <time>2011-10-13T06:00:50Z</time>
  <speed>2.290000</speed>
</trkpt>
<trkpt lat="32.588542938" lon="35.010540009">
  <ele>99.178345</ele>
  <time>2011-10-13T06:00:52Z</time>
  <speed>2.260000</speed>
</trkpt>
<trkpt lat="32.588558197" lon="35.010585785">
  <ele>99.518188</ele>
  <time>2011-10-13T06:00:54Z</time>
  <speed>2.090000</speed>
</trkpt>
<trkpt lat="32.588581085" lon="35.010635376">
  <ele>99.356079</ele>
  <time>2011-10-13T06:00:56Z</time>
  <speed>2.410000</speed>
</trkpt>
<trkpt lat="32.588584900" lon="35.010681152">
  <ele>99.789673</ele>
  <time>2011-10-13T06:00:58Z</time>
  <speed>2.210000</speed>
</trkpt>
<trkpt lat="32.588603973" lon="35.010726929">
  <ele>100.369751</ele>
  <time>2011-10-13T06:01:00Z</time>
  <speed>2.320000</speed>
</trkpt>
<trkpt lat="32.588623047" lon="35.010772705">
  <ele>100.391235</ele>
  <time>2011-10-13T06:01:02Z</time>
  <speed>2.040000</speed>
</trkpt>
<trkpt lat="32.588638306" lon="35.010818481">
  <ele>100.785767</ele>
  <time>2011-10-13T06:01:04Z</time>
  <speed>2.010000</speed>
</trkpt>
<trkpt lat="32.588649750" lon="35.010860443">
  <ele>100.760376</ele>
  <time>2011-10-13T06:01:06Z</time>
  <speed>1.880000</speed>
</trkpt>
<trkpt lat="32.588657379" lon="35.010917664">
  <ele>100.656860</ele>
  <time>2011-10-13T06:01:08Z</time>
  <speed>2.360000</speed>
</trkpt>
<trkpt lat="32.588668823" lon="35.010967255">
  <ele>100.022095</ele>
  <time>2011-10-13T06:01:10Z</time>
  <speed>2.070000</speed>
</trkpt>
<trkpt lat="32.588684082" lon="35.011009216">
  <ele>99.832642</ele>
  <time>2011-10-13T06:01:12Z</time>
  <speed>1.960000</speed>
</trkpt>
<trkpt lat="32.588691711" lon="35.011039734">
  <ele>99.432251</ele>
  <time>2011-10-13T06:01:13Z</time>
  <speed>2.470000</speed>
</trkpt>
<trkpt lat="32.588699341" lon="35.011070251">
  <ele>99.182251</ele>
  <time>2011-10-13T06:01:14Z</time>
  <speed>2.590000</speed>
</trkpt>
<trkpt lat="32.588703156" lon="35.011108398">
  <ele>100.858032</ele>
  <time>2011-10-13T06:01:15Z</time>
  <speed>2.170000</speed>
</trkpt>
<trkpt lat="32.588722229" lon="35.011161804">
  <ele>100.754517</ele>
  <time>2011-10-13T06:01:17Z</time>
  <speed>2.820000</speed>
</trkpt>
<trkpt lat="32.588733673" lon="35.011192322">
  <ele>100.262329</ele>
  <time>2011-10-13T06:01:18Z</time>
  <speed>2.690000</speed>
</trkpt>
<trkpt lat="32.588752747" lon="35.011241913">
  <ele>99.836548</ele>
  <time>2011-10-13T06:01:20Z</time>
  <speed>2.790000</speed>
</trkpt>
<trkpt lat="32.588760376" lon="35.011302948">
  <ele>99.701782</ele>
  <time>2011-10-13T06:01:22Z</time>
  <speed>2.720000</speed>
</trkpt>
<trkpt lat="32.588775635" lon="35.011360168">
  <ele>99.859985</ele>
  <time>2011-10-13T06:01:24Z</time>
  <speed>2.570000</speed>
</trkpt>
<trkpt lat="32.588779449" lon="35.011413574">
  <ele>99.359985</ele>
  <time>2011-10-13T06:01:26Z</time>
  <speed>2.380000</speed>
</trkpt>
<trkpt lat="32.588783264" lon="35.011478424">
  <ele>98.906860</ele>
  <time>2011-10-13T06:01:28Z</time>
  <speed>2.750000</speed>
</trkpt>
<trkpt lat="32.588790894" lon="35.011508942">
  <ele>98.498657</ele>
  <time>2011-10-13T06:01:29Z</time>
  <speed>2.680000</speed>
</trkpt>
<trkpt lat="32.588783264" lon="35.011566162">
  <ele>97.604126</ele>
  <time>2011-10-13T06:01:31Z</time>
  <speed>2.270000</speed>
</trkpt>
<trkpt lat="32.588768005" lon="35.011619568">
  <ele>96.133423</ele>
  <time>2011-10-13T06:01:33Z</time>
  <speed>2.420000</speed>
</trkpt>
<trkpt lat="32.588771820" lon="35.011669159">
  <ele>96.221313</ele>
  <time>2011-10-13T06:01:35Z</time>
  <speed>1.910000</speed>
</trkpt>
<trkpt lat="32.588771820" lon="35.011711121">
  <ele>95.760376</ele>
  <time>2011-10-13T06:01:37Z</time>
  <speed>1.990000</speed>
</trkpt>
<trkpt lat="32.588775635" lon="35.011749268">
  <ele>95.211548</ele>
  <time>2011-10-13T06:01:39Z</time>
  <speed>2.000000</speed>
</trkpt>
<trkpt lat="32.588775635" lon="35.011795044">
  <ele>94.547485</ele>
  <time>2011-10-13T06:01:41Z</time>
  <speed>2.270000</speed>
</trkpt>
<trkpt lat="32.588775635" lon="35.011829376">
  <ele>95.609985</ele>
  <time>2011-10-13T06:01:42Z</time>
  <speed>2.350000</speed>
</trkpt>
<trkpt lat="32.588787079" lon="35.011863708">
  <ele>96.457642</ele>
  <time>2011-10-13T06:01:43Z</time>
  <speed>2.550000</speed>
</trkpt>
<trkpt lat="32.588802338" lon="35.011894226">
  <ele>95.996704</ele>
  <time>2011-10-13T06:01:44Z</time>
  <speed>3.390000</speed>
</trkpt>
<trkpt lat="32.588809967" lon="35.011928558">
  <ele>96.098267</ele>
  <time>2011-10-13T06:01:45Z</time>
  <speed>2.840000</speed>
</trkpt>
<trkpt lat="32.588817596" lon="35.011962891">
  <ele>95.397095</ele>
  <time>2011-10-13T06:01:46Z</time>
  <speed>3.540000</speed>
</trkpt>
<trkpt lat="32.588825226" lon="35.011997223">
  <ele>95.299438</ele>
  <time>2011-10-13T06:01:47Z</time>
  <speed>2.540000</speed>
</trkpt>
<trkpt lat="32.588825226" lon="35.012046814">
  <ele>94.828735</ele>
  <time>2011-10-13T06:01:49Z</time>
  <speed>1.630000</speed>
</trkpt>
<trkpt lat="32.588836670" lon="35.012088776">
  <ele>94.883423</ele>
  <time>2011-10-13T06:01:52Z</time>
  <speed>1.710000</speed>
</trkpt>
<trkpt lat="32.588855743" lon="35.012126923">
  <ele>94.721313</ele>
  <time>2011-10-13T06:01:54Z</time>
  <speed>2.140000</speed>
</trkpt>
<trkpt lat="32.588890076" lon="35.012145996">
  <ele>94.973267</ele>
  <time>2011-10-13T06:01:56Z</time>
  <speed>1.940000</speed>
</trkpt>
<trkpt lat="32.588920593" lon="35.012142181">
  <ele>95.186157</ele>
  <time>2011-10-13T06:01:58Z</time>
  <speed>1.730000</speed>
</trkpt>
<trkpt lat="32.588947296" lon="35.012149811">
  <ele>95.111938</ele>
  <time>2011-10-13T06:02:00Z</time>
  <speed>1.870000</speed>
</trkpt>
<trkpt lat="32.588981628" lon="35.012153625">
  <ele>96.340454</ele>
  <time>2011-10-13T06:02:02Z</time>
  <speed>1.210000</speed>
</trkpt>
<trkpt lat="32.589012146" lon="35.012172699">
  <ele>97.289673</ele>
  <time>2011-10-13T06:02:05Z</time>
  <speed>1.500000</speed>
</trkpt>
<trkpt lat="32.589054108" lon="35.012165070">
  <ele>97.688110</ele>
  <time>2011-10-13T06:02:08Z</time>
  <speed>1.370000</speed>
</trkpt>
<trkpt lat="32.589088440" lon="35.012157440">
  <ele>97.670532</ele>
  <time>2011-10-13T06:02:10Z</time>
  <speed>1.360000</speed>
</trkpt>
<trkpt lat="32.589115143" lon="35.012176514">
  <ele>98.727173</ele>
  <time>2011-10-13T06:02:12Z</time>
  <speed>1.200000</speed>
</trkpt>
<trkpt lat="32.589149475" lon="35.012191772">
  <ele>98.672485</ele>
  <time>2011-10-13T06:02:15Z</time>
  <speed>0.910000</speed>
</trkpt>
<trkpt lat="32.589195251" lon="35.012191772">
  <ele>98.293579</ele>
  <time>2011-10-13T06:02:18Z</time>
  <speed>1.760000</speed>
</trkpt>
<trkpt lat="32.589229584" lon="35.012191772">
  <ele>97.570923</ele>
  <time>2011-10-13T06:02:20Z</time>
  <speed>1.890000</speed>
</trkpt>
<trkpt lat="32.589260101" lon="35.012195587">
  <ele>97.225220</ele>
  <time>2011-10-13T06:02:22Z</time>
  <speed>1.200000</speed>
</trkpt>
<trkpt lat="32.589290619" lon="35.012229919">
  <ele>96.877563</ele>
  <time>2011-10-13T06:02:25Z</time>
  <speed>1.490000</speed>
</trkpt>
<trkpt lat="32.589317322" lon="35.012279510">
  <ele>98.061157</ele>
  <time>2011-10-13T06:02:27Z</time>
  <speed>1.580000</speed>
</trkpt>
<trkpt lat="32.589347839" lon="35.012283325">
  <ele>98.129517</ele>
  <time>2011-10-13T06:02:29Z</time>
  <speed>1.440000</speed>
</trkpt>
<trkpt lat="32.589374542" lon="35.012302399">
  <ele>98.606079</ele>
  <time>2011-10-13T06:02:31Z</time>
  <speed>1.300000</speed>
</trkpt>
<trkpt lat="32.589401245" lon="35.012321472">
  <ele>98.365845</ele>
  <time>2011-10-13T06:02:33Z</time>
  <speed>1.480000</speed>
</trkpt>
<trkpt lat="32.589431763" lon="35.012336731">
  <ele>98.391235</ele>
  <time>2011-10-13T06:02:35Z</time>
  <speed>1.330000</speed>
</trkpt>
<trkpt lat="32.589466095" lon="35.012351990">
  <ele>100.242798</ele>
  <time>2011-10-13T06:02:37Z</time>
  <speed>1.720000</speed>
</trkpt>
<trkpt lat="32.589496613" lon="35.012367249">
  <ele>100.436157</ele>
  <time>2011-10-13T06:02:39Z</time>
  <speed>1.910000</speed>
</trkpt>
<trkpt lat="32.589527130" lon="35.012390137">
  <ele>100.969360</ele>
  <time>2011-10-13T06:02:41Z</time>
  <speed>1.180000</speed>
</trkpt>
<trkpt lat="32.589557648" lon="35.012401581">
  <ele>100.817017</ele>
  <time>2011-10-13T06:02:43Z</time>
  <speed>2.020000</speed>
</trkpt>
<trkpt lat="32.589595795" lon="35.012413025">
  <ele>100.375610</ele>
  <time>2011-10-13T06:02:45Z</time>
  <speed>1.940000</speed>
</trkpt>
<trkpt lat="32.589630127" lon="35.012424469">
  <ele>99.940063</ele>
  <time>2011-10-13T06:02:47Z</time>
  <speed>1.600000</speed>
</trkpt>
<trkpt lat="32.589664459" lon="35.012454987">
  <ele>99.879517</ele>
  <time>2011-10-13T06:02:49Z</time>
  <speed>2.200000</speed>
</trkpt>
<trkpt lat="32.589694977" lon="35.012477875">
  <ele>100.063110</ele>
  <time>2011-10-13T06:02:51Z</time>
  <speed>1.760000</speed>
</trkpt>
<trkpt lat="32.589717865" lon="35.012504578">
  <ele>99.979126</ele>
  <time>2011-10-13T06:02:53Z</time>
  <speed>2.000000</speed>
</trkpt>
<trkpt lat="32.589740753" lon="35.012523651">
  <ele>100.041626</ele>
  <time>2011-10-13T06:02:55Z</time>
  <speed>1.410000</speed>
</trkpt>
<trkpt lat="32.589767456" lon="35.012538910">
  <ele>100.684204</ele>
  <time>2011-10-13T06:02:57Z</time>
  <speed>1.110000</speed>
</trkpt>
<trkpt lat="32.589794159" lon="35.012542725">
  <ele>100.377563</ele>
  <time>2011-10-13T06:02:59Z</time>
  <speed>1.400000</speed>
</trkpt>
<trkpt lat="32.589817047" lon="35.012561798">
  <ele>100.682251</ele>
  <time>2011-10-13T06:03:01Z</time>
  <speed>1.710000</speed>
</trkpt>
<trkpt lat="32.589847565" lon="35.012592316">
  <ele>101.486938</ele>
  <time>2011-10-13T06:03:03Z</time>
  <speed>1.550000</speed>
</trkpt>
<trkpt lat="32.589866638" lon="35.012622833">
  <ele>101.963501</ele>
  <time>2011-10-13T06:03:05Z</time>
  <speed>1.370000</speed>
</trkpt>
<trkpt lat="32.589893341" lon="35.012641907">
  <ele>102.057251</ele>
  <time>2011-10-13T06:03:07Z</time>
  <speed>1.390000</speed>
</trkpt>
<trkpt lat="32.589935303" lon="35.012664795">
  <ele>101.805298</ele>
  <time>2011-10-13T06:03:10Z</time>
  <speed>1.810000</speed>
</trkpt>
<trkpt lat="32.589958191" lon="35.012695313">
  <ele>103.506470</ele>
  <time>2011-10-13T06:03:12Z</time>
  <speed>1.520000</speed>
</trkpt>
<trkpt lat="32.589984894" lon="35.012718201">
  <ele>103.957642</ele>
  <time>2011-10-13T06:03:14Z</time>
  <speed>1.770000</speed>
</trkpt>
<trkpt lat="32.590011597" lon="35.012741089">
  <ele>104.242798</ele>
  <time>2011-10-13T06:03:16Z</time>
  <speed>2.020000</speed>
</trkpt>
<trkpt lat="32.590045929" lon="35.012752533">
  <ele>103.740845</ele>
  <time>2011-10-13T06:03:18Z</time>
  <speed>1.800000</speed>
</trkpt>
<trkpt lat="32.590076447" lon="35.012775421">
  <ele>103.520142</ele>
  <time>2011-10-13T06:03:20Z</time>
  <speed>2.100000</speed>
</trkpt>
<trkpt lat="32.590110779" lon="35.012794495">
  <ele>103.981079</ele>
  <time>2011-10-13T06:03:22Z</time>
  <speed>1.690000</speed>
</trkpt>
<trkpt lat="32.590141296" lon="35.012809753">
  <ele>104.348267</ele>
  <time>2011-10-13T06:03:24Z</time>
  <speed>1.630000</speed>
</trkpt>
<trkpt lat="32.590171814" lon="35.012821198">
  <ele>104.317017</ele>
  <time>2011-10-13T06:03:26Z</time>
  <speed>1.720000</speed>
</trkpt>
<trkpt lat="32.590198517" lon="35.012840271">
  <ele>104.483032</ele>
  <time>2011-10-13T06:03:28Z</time>
  <speed>1.660000</speed>
</trkpt>
<trkpt lat="32.590229034" lon="35.012866974">
  <ele>104.520142</ele>
  <time>2011-10-13T06:03:30Z</time>
  <speed>1.370000</speed>
</trkpt>
<trkpt lat="32.590263367" lon="35.012882233">
  <ele>103.912720</ele>
  <time>2011-10-13T06:03:32Z</time>
  <speed>1.440000</speed>
</trkpt>
<trkpt lat="32.590290070" lon="35.012912750">
  <ele>104.416626</ele>
  <time>2011-10-13T06:03:34Z</time>
  <speed>1.750000</speed>
</trkpt>
<trkpt lat="32.590316772" lon="35.012935638">
  <ele>104.715454</ele>
  <time>2011-10-13T06:03:36Z</time>
  <speed>2.160000</speed>
</trkpt>
<trkpt lat="32.590354919" lon="35.012958527">
  <ele>104.576782</ele>
  <time>2011-10-13T06:03:38Z</time>
  <speed>1.770000</speed>
</trkpt>
<trkpt lat="32.590393066" lon="35.012977600">
  <ele>105.404907</ele>
  <time>2011-10-13T06:03:40Z</time>
  <speed>1.740000</speed>
</trkpt>
<trkpt lat="32.590415955" lon="35.013008118">
  <ele>105.918579</ele>
  <time>2011-10-13T06:03:42Z</time>
  <speed>1.940000</speed>
</trkpt>
<trkpt lat="32.590450287" lon="35.013027191">
  <ele>106.744751</ele>
  <time>2011-10-13T06:03:44Z</time>
  <speed>1.580000</speed>
</trkpt>
<trkpt lat="32.590488434" lon="35.013031006">
  <ele>107.137329</ele>
  <time>2011-10-13T06:03:46Z</time>
  <speed>1.720000</speed>
</trkpt>
<trkpt lat="32.590518951" lon="35.013053894">
  <ele>107.541626</ele>
  <time>2011-10-13T06:03:48Z</time>
  <speed>1.630000</speed>
</trkpt>
<trkpt lat="32.590545654" lon="35.013076782">
  <ele>108.108032</ele>
  <time>2011-10-13T06:03:50Z</time>
  <speed>2.010000</speed>
</trkpt>
<trkpt lat="32.590568542" lon="35.013099670">
  <ele>107.844360</ele>
  <time>2011-10-13T06:03:52Z</time>
  <speed>2.170000</speed>
</trkpt>
<trkpt lat="32.590602875" lon="35.013118744">
  <ele>107.893188</ele>
  <time>2011-10-13T06:03:54Z</time>
  <speed>1.820000</speed>
</trkpt>
<trkpt lat="32.590633392" lon="35.013137817">
  <ele>108.172485</ele>
  <time>2011-10-13T06:03:56Z</time>
  <speed>1.770000</speed>
</trkpt>
<trkpt lat="32.590663910" lon="35.013156891">
  <ele>108.430298</ele>
  <time>2011-10-13T06:03:58Z</time>
  <speed>1.910000</speed>
</trkpt>
<trkpt lat="32.590682983" lon="35.013187408">
  <ele>109.264282</ele>
  <time>2011-10-13T06:04:00Z</time>
  <speed>1.530000</speed>
</trkpt>
<trkpt lat="32.590702057" lon="35.013206482">
  <ele>111.693970</ele>
  <time>2011-10-13T06:04:01Z</time>
  <speed>1.620000</speed>
</trkpt>
<trkpt lat="32.590728760" lon="35.013233185">
  <ele>114.088501</ele>
  <time>2011-10-13T06:04:03Z</time>
  <speed>1.680000</speed>
</trkpt>
<trkpt lat="32.590747833" lon="35.013259888">
  <ele>116.477173</ele>
  <time>2011-10-13T06:04:05Z</time>
  <speed>1.760000</speed>
</trkpt>
<trkpt lat="32.590774536" lon="35.013286591">
  <ele>118.344360</ele>
  <time>2011-10-13T06:04:07Z</time>
  <speed>1.700000</speed>
</trkpt>
<trkpt lat="32.590801239" lon="35.013301849">
  <ele>119.469360</ele>
  <time>2011-10-13T06:04:09Z</time>
  <speed>1.770000</speed>
</trkpt>
<trkpt lat="32.590827942" lon="35.013305664">
  <ele>118.789673</ele>
  <time>2011-10-13T06:04:10Z</time>
  <speed>1.900000</speed>
</trkpt>
<trkpt lat="32.590866089" lon="35.013336182">
  <ele>119.637329</ele>
  <time>2011-10-13T06:04:12Z</time>
  <speed>2.010000</speed>
</trkpt>
<trkpt lat="32.590888977" lon="35.013366699">
  <ele>119.879517</ele>
  <time>2011-10-13T06:04:14Z</time>
  <speed>1.990000</speed>
</trkpt>
<trkpt lat="32.590911865" lon="35.013397217">
  <ele>120.193970</ele>
  <time>2011-10-13T06:04:16Z</time>
  <speed>1.770000</speed>
</trkpt>
<trkpt lat="32.590942383" lon="35.013416290">
  <ele>120.934204</ele>
  <time>2011-10-13T06:04:18Z</time>
  <speed>1.930000</speed>
</trkpt>
<trkpt lat="32.590969086" lon="35.013442993">
  <ele>120.840454</ele>
  <time>2011-10-13T06:04:20Z</time>
  <speed>1.990000</speed>
</trkpt>
<trkpt lat="32.590972900" lon="35.013484955">
  <ele>120.582642</ele>
  <time>2011-10-13T06:04:22Z</time>
  <speed>1.860000</speed>
</trkpt>
<trkpt lat="32.590972900" lon="35.013526917">
  <ele>120.430298</ele>
  <time>2011-10-13T06:04:24Z</time>
  <speed>2.070000</speed>
</trkpt>
<trkpt lat="32.590957642" lon="35.013568878">
  <ele>120.086548</ele>
  <time>2011-10-13T06:04:26Z</time>
  <speed>2.140000</speed>
</trkpt>
<trkpt lat="32.590942383" lon="35.013610840">
  <ele>119.936157</ele>
  <time>2011-10-13T06:04:28Z</time>
  <speed>1.930000</speed>
</trkpt>
<trkpt lat="32.590919495" lon="35.013648987">
  <ele>120.399048</ele>
  <time>2011-10-13T06:04:30Z</time>
  <speed>1.750000</speed>
</trkpt>
<trkpt lat="32.590892792" lon="35.013683319">
  <ele>120.293579</ele>
  <time>2011-10-13T06:04:32Z</time>
  <speed>2.220000</speed>
</trkpt>
<trkpt lat="32.590866089" lon="35.013713837">
  <ele>120.580688</ele>
  <time>2011-10-13T06:04:34Z</time>
  <speed>1.820000</speed>
</trkpt>
<trkpt lat="32.590835571" lon="35.013744354">
  <ele>120.160767</ele>
  <time>2011-10-13T06:04:36Z</time>
  <speed>1.510000</speed>
</trkpt>
<trkpt lat="32.590808868" lon="35.013771057">
  <ele>119.891235</ele>
  <time>2011-10-13T06:04:38Z</time>
  <speed>1.870000</speed>
</trkpt>
<trkpt lat="32.590770721" lon="35.013797760">
  <ele>119.672485</ele>
  <time>2011-10-13T06:04:40Z</time>
  <speed>1.760000</speed>
</trkpt>
<trkpt lat="32.590744019" lon="35.013809204">
  <ele>120.233032</ele>
  <time>2011-10-13T06:04:42Z</time>
  <speed>1.360000</speed>
</trkpt>
<trkpt lat="32.590713501" lon="35.013828278">
  <ele>120.158813</ele>
  <time>2011-10-13T06:04:44Z</time>
  <speed>1.540000</speed>
</trkpt>
<trkpt lat="32.590690613" lon="35.013843536">
  <ele>120.092407</ele>
  <time>2011-10-13T06:04:46Z</time>
  <speed>1.410000</speed>
</trkpt>
<trkpt lat="32.590660095" lon="35.013874054">
  <ele>120.276001</ele>
  <time>2011-10-13T06:04:49Z</time>
  <speed>1.810000</speed>
</trkpt>
<trkpt lat="32.590621948" lon="35.013896942">
  <ele>120.875610</ele>
  <time>2011-10-13T06:04:51Z</time>
  <speed>1.690000</speed>
</trkpt>
<trkpt lat="32.590579987" lon="35.013923645">
  <ele>121.940063</ele>
  <time>2011-10-13T06:04:53Z</time>
  <speed>1.750000</speed>
</trkpt>
<trkpt lat="32.590545654" lon="35.013931274">
  <ele>121.647095</ele>
  <time>2011-10-13T06:04:55Z</time>
  <speed>1.900000</speed>
</trkpt>
<trkpt lat="32.590503693" lon="35.013919830">
  <ele>122.133423</ele>
  <time>2011-10-13T06:04:57Z</time>
  <speed>1.780000</speed>
</trkpt>
<trkpt lat="32.590465546" lon="35.013919830">
  <ele>121.959595</ele>
  <time>2011-10-13T06:04:59Z</time>
  <speed>1.800000</speed>
</trkpt>
<trkpt lat="32.590438843" lon="35.013916016">
  <ele>121.869751</ele>
  <time>2011-10-13T06:05:01Z</time>
  <speed>1.950000</speed>
</trkpt>
<trkpt lat="32.590400696" lon="35.013916016">
  <ele>122.010376</ele>
  <time>2011-10-13T06:05:03Z</time>
  <speed>2.140000</speed>
</trkpt>
<trkpt lat="32.590358734" lon="35.013912201">
  <ele>123.516235</ele>
  <time>2011-10-13T06:05:05Z</time>
  <speed>1.910000</speed>
</trkpt>
<trkpt lat="32.590324402" lon="35.013908386">
  <ele>124.342407</ele>
  <time>2011-10-13T06:05:07Z</time>
  <speed>2.020000</speed>
</trkpt>
<trkpt lat="32.590282440" lon="35.013893127">
  <ele>124.555298</ele>
  <time>2011-10-13T06:05:09Z</time>
  <speed>2.030000</speed>
</trkpt>
<trkpt lat="32.590232849" lon="35.013881683">
  <ele>125.568970</ele>
  <time>2011-10-13T06:05:11Z</time>
  <speed>1.960000</speed>
</trkpt>
<trkpt lat="32.590190887" lon="35.013874054">
  <ele>126.346313</ele>
  <time>2011-10-13T06:05:13Z</time>
  <speed>2.200000</speed>
</trkpt>
<trkpt lat="32.590148926" lon="35.013866425">
  <ele>126.801392</ele>
  <time>2011-10-13T06:05:15Z</time>
  <speed>2.160000</speed>
</trkpt>
<trkpt lat="32.590106964" lon="35.013854980">
  <ele>127.026001</ele>
  <time>2011-10-13T06:05:17Z</time>
  <speed>2.090000</speed>
</trkpt>
<trkpt lat="32.590065002" lon="35.013858795">
  <ele>127.135376</ele>
  <time>2011-10-13T06:05:19Z</time>
  <speed>2.090000</speed>
</trkpt>
<trkpt lat="32.590030670" lon="35.013847351">
  <ele>128.387939</ele>
  <time>2011-10-13T06:05:21Z</time>
  <speed>1.080000</speed>
</trkpt>
<trkpt lat="32.590007782" lon="35.013839722">
  <ele>129.645752</ele>
  <time>2011-10-13T06:05:28Z</time>
  <speed>0.030000</speed>
</trkpt>
<trkpt lat="32.590015411" lon="35.013885498">
  <ele>130.770752</ele>
  <time>2011-10-13T06:07:49Z</time>
  <speed>2.000000</speed>
</trkpt>
<trkpt lat="32.589988708" lon="35.013942719">
  <ele>130.704346</ele>
  <time>2011-10-13T06:07:51Z</time>
  <speed>2.270000</speed>
</trkpt>
<trkpt lat="32.589942932" lon="35.013984680">
  <ele>130.462158</ele>
  <time>2011-10-13T06:07:53Z</time>
  <speed>3.260000</speed>
</trkpt>
<trkpt lat="32.589908600" lon="35.013996124">
  <ele>130.126221</ele>
  <time>2011-10-13T06:07:54Z</time>
  <speed>3.990000</speed>
</trkpt>
<trkpt lat="32.589870453" lon="35.014011383">
  <ele>130.040283</ele>
  <time>2011-10-13T06:07:55Z</time>
  <speed>4.360000</speed>
</trkpt>
<trkpt lat="32.589828491" lon="35.014015198">
  <ele>129.329346</ele>
  <time>2011-10-13T06:07:56Z</time>
  <speed>4.170000</speed>
</trkpt>
<trkpt lat="32.589790344" lon="35.014019012">
  <ele>128.329346</ele>
  <time>2011-10-13T06:07:57Z</time>
  <speed>3.870000</speed>
</trkpt>
<trkpt lat="32.589756012" lon="35.014022827">
  <ele>127.393188</ele>
  <time>2011-10-13T06:07:58Z</time>
  <speed>3.340000</speed>
</trkpt>
<trkpt lat="32.589721680" lon="35.014022827">
  <ele>126.484985</ele>
  <time>2011-10-13T06:07:59Z</time>
  <speed>3.560000</speed>
</trkpt>
<trkpt lat="32.589687347" lon="35.014026642">
  <ele>125.930298</ele>
  <time>2011-10-13T06:08:00Z</time>
  <speed>3.380000</speed>
</trkpt>
<trkpt lat="32.589653015" lon="35.014026642">
  <ele>126.096313</ele>
  <time>2011-10-13T06:08:01Z</time>
  <speed>3.530000</speed>
</trkpt>
<trkpt lat="32.589614868" lon="35.014022827">
  <ele>126.119751</ele>
  <time>2011-10-13T06:08:02Z</time>
  <speed>3.830000</speed>
</trkpt>
<trkpt lat="32.589576721" lon="35.014019012">
  <ele>125.596313</ele>
  <time>2011-10-13T06:08:03Z</time>
  <speed>4.050000</speed>
</trkpt>
<trkpt lat="32.589538574" lon="35.014019012">
  <ele>126.129517</ele>
  <time>2011-10-13T06:08:04Z</time>
  <speed>3.980000</speed>
</trkpt>
<trkpt lat="32.589496613" lon="35.014015198">
  <ele>126.305298</ele>
  <time>2011-10-13T06:08:05Z</time>
  <speed>4.480000</speed>
</trkpt>
<trkpt lat="32.589450836" lon="35.014019012">
  <ele>126.924438</ele>
  <time>2011-10-13T06:08:06Z</time>
  <speed>4.820000</speed>
</trkpt>
<trkpt lat="32.589405060" lon="35.014026642">
  <ele>126.018188</ele>
  <time>2011-10-13T06:08:07Z</time>
  <speed>4.240000</speed>
</trkpt>
<trkpt lat="32.589363098" lon="35.014030457">
  <ele>126.180298</ele>
  <time>2011-10-13T06:08:08Z</time>
  <speed>4.380000</speed>
</trkpt>
<trkpt lat="32.589328766" lon="35.014038086">
  <ele>125.776001</ele>
  <time>2011-10-13T06:08:09Z</time>
  <speed>4.290000</speed>
</trkpt>
<trkpt lat="32.589282990" lon="35.014045715">
  <ele>125.402954</ele>
  <time>2011-10-13T06:08:10Z</time>
  <speed>5.090000</speed>
</trkpt>
<trkpt lat="32.589237213" lon="35.014041901">
  <ele>124.559204</ele>
  <time>2011-10-13T06:08:11Z</time>
  <speed>5.060000</speed>
</trkpt>
<trkpt lat="32.589191437" lon="35.014034271">
  <ele>125.457642</ele>
  <time>2011-10-13T06:08:12Z</time>
  <speed>5.150000</speed>
</trkpt>
<trkpt lat="32.589145660" lon="35.014026642">
  <ele>125.572876</ele>
  <time>2011-10-13T06:08:13Z</time>
  <speed>5.120000</speed>
</trkpt>
<trkpt lat="32.589092255" lon="35.014019012">
  <ele>126.670532</ele>
  <time>2011-10-13T06:08:14Z</time>
  <speed>5.010000</speed>
</trkpt>
<trkpt lat="32.589054108" lon="35.014011383">
  <ele>126.287720</ele>
  <time>2011-10-13T06:08:15Z</time>
  <speed>4.310000</speed>
</trkpt>
<trkpt lat="32.589019775" lon="35.014019012">
  <ele>125.617798</ele>
  <time>2011-10-13T06:08:16Z</time>
  <speed>3.460000</speed>
</trkpt>
<trkpt lat="32.588985443" lon="35.014045715">
  <ele>125.168579</ele>
  <time>2011-10-13T06:08:17Z</time>
  <speed>4.530000</speed>
</trkpt>
<trkpt lat="32.588954926" lon="35.014064789">
  <ele>124.817017</ele>
  <time>2011-10-13T06:08:18Z</time>
  <speed>4.400000</speed>
</trkpt>
<trkpt lat="32.588916779" lon="35.014087677">
  <ele>124.651001</ele>
  <time>2011-10-13T06:08:19Z</time>
  <speed>4.910000</speed>
</trkpt>
<trkpt lat="32.588874817" lon="35.014099121">
  <ele>123.957642</ele>
  <time>2011-10-13T06:08:20Z</time>
  <speed>4.930000</speed>
</trkpt>
<trkpt lat="32.588825226" lon="35.014110565">
  <ele>124.643188</ele>
  <time>2011-10-13T06:08:21Z</time>
  <speed>4.950000</speed>
</trkpt>
<trkpt lat="32.588783264" lon="35.014122009">
  <ele>124.699829</ele>
  <time>2011-10-13T06:08:22Z</time>
  <speed>4.290000</speed>
</trkpt>
<trkpt lat="32.588752747" lon="35.014141083">
  <ele>123.256470</ele>
  <time>2011-10-13T06:08:23Z</time>
  <speed>3.880000</speed>
</trkpt>
<trkpt lat="32.588726044" lon="35.014167786">
  <ele>123.178345</ele>
  <time>2011-10-13T06:08:24Z</time>
  <speed>3.740000</speed>
</trkpt>
<trkpt lat="32.588699341" lon="35.014194489">
  <ele>123.188110</ele>
  <time>2011-10-13T06:08:25Z</time>
  <speed>3.720000</speed>
</trkpt>
<trkpt lat="32.588672638" lon="35.014221191">
  <ele>123.195923</ele>
  <time>2011-10-13T06:08:26Z</time>
  <speed>3.860000</speed>
</trkpt>
<trkpt lat="32.588649750" lon="35.014236450">
  <ele>122.463501</ele>
  <time>2011-10-13T06:08:27Z</time>
  <speed>3.440000</speed>
</trkpt>
<trkpt lat="32.588623047" lon="35.014251709">
  <ele>121.631470</ele>
  <time>2011-10-13T06:08:28Z</time>
  <speed>3.980000</speed>
</trkpt>
<trkpt lat="32.588584900" lon="35.014266968">
  <ele>120.856079</ele>
  <time>2011-10-13T06:08:29Z</time>
  <speed>4.590000</speed>
</trkpt>
<trkpt lat="32.588539124" lon="35.014278412">
  <ele>121.022095</ele>
  <time>2011-10-13T06:08:30Z</time>
  <speed>4.420000</speed>
</trkpt>
<trkpt lat="32.588500977" lon="35.014270782">
  <ele>121.172485</ele>
  <time>2011-10-13T06:08:31Z</time>
  <speed>4.110000</speed>
</trkpt>
<trkpt lat="32.588462830" lon="35.014263153">
  <ele>121.434204</ele>
  <time>2011-10-13T06:08:32Z</time>
  <speed>3.720000</speed>
</trkpt>
<trkpt lat="32.588432312" lon="35.014244080">
  <ele>121.844360</ele>
  <time>2011-10-13T06:08:33Z</time>
  <speed>3.870000</speed>
</trkpt>
<trkpt lat="32.588397980" lon="35.014228821">
  <ele>123.111938</ele>
  <time>2011-10-13T06:08:34Z</time>
  <speed>3.460000</speed>
</trkpt>
<trkpt lat="32.588367462" lon="35.014209747">
  <ele>121.766235</ele>
  <time>2011-10-13T06:08:35Z</time>
  <speed>3.870000</speed>
</trkpt>
<trkpt lat="32.588333130" lon="35.014190674">
  <ele>121.440063</ele>
  <time>2011-10-13T06:08:36Z</time>
  <speed>4.020000</speed>
</trkpt>
<trkpt lat="32.588298798" lon="35.014183044">
  <ele>121.813110</ele>
  <time>2011-10-13T06:08:37Z</time>
  <speed>3.910000</speed>
</trkpt>
<trkpt lat="32.588268280" lon="35.014179230">
  <ele>121.815063</ele>
  <time>2011-10-13T06:08:38Z</time>
  <speed>2.700000</speed>
</trkpt>
<trkpt lat="32.588241577" lon="35.014198303">
  <ele>121.760376</ele>
  <time>2011-10-13T06:08:39Z</time>
  <speed>2.880000</speed>
</trkpt>
<trkpt lat="32.588214874" lon="35.014217377">
  <ele>119.649048</ele>
  <time>2011-10-13T06:08:40Z</time>
  <speed>3.470000</speed>
</trkpt>
<trkpt lat="32.588184357" lon="35.014228821">
  <ele>118.404907</ele>
  <time>2011-10-13T06:08:41Z</time>
  <speed>3.160000</speed>
</trkpt>
<trkpt lat="32.588157654" lon="35.014251709">
  <ele>117.979126</ele>
  <time>2011-10-13T06:08:42Z</time>
  <speed>3.040000</speed>
</trkpt>
<trkpt lat="32.588134766" lon="35.014289856">
  <ele>116.375610</ele>
  <time>2011-10-13T06:08:43Z</time>
  <speed>2.730000</speed>
</trkpt>
<trkpt lat="32.588111877" lon="35.014331818">
  <ele>114.795532</ele>
  <time>2011-10-13T06:08:45Z</time>
  <speed>2.300000</speed>
</trkpt>
<trkpt lat="32.588085175" lon="35.014354706">
  <ele>114.174438</ele>
  <time>2011-10-13T06:08:46Z</time>
  <speed>3.940000</speed>
</trkpt>
<trkpt lat="32.588050842" lon="35.014369965">
  <ele>114.055298</ele>
  <time>2011-10-13T06:08:47Z</time>
  <speed>4.420000</speed>
</trkpt>
<trkpt lat="32.588012695" lon="35.014381409">
  <ele>113.848267</ele>
  <time>2011-10-13T06:08:48Z</time>
  <speed>4.040000</speed>
</trkpt>
<trkpt lat="32.587982178" lon="35.014400482">
  <ele>115.197876</ele>
  <time>2011-10-13T06:08:49Z</time>
  <speed>2.750000</speed>
</trkpt>
<trkpt lat="32.587936401" lon="35.014427185">
  <ele>114.311157</ele>
  <time>2011-10-13T06:08:51Z</time>
  <speed>2.290000</speed>
</trkpt>
<trkpt lat="32.587913513" lon="35.014450073">
  <ele>114.442017</ele>
  <time>2011-10-13T06:08:53Z</time>
  <speed>1.270000</speed>
</trkpt>
<trkpt lat="32.587894440" lon="35.014492035">
  <ele>113.453735</ele>
  <time>2011-10-13T06:08:57Z</time>
  <speed>0.630000</speed>
</trkpt>
<trkpt lat="32.587886810" lon="35.014522552">
  <ele>113.287720</ele>
  <time>2011-10-13T06:09:01Z</time>
  <speed>0.920000</speed>
</trkpt>
<trkpt lat="32.587856293" lon="35.014549255">
  <ele>112.715454</ele>
  <time>2011-10-13T06:09:04Z</time>
  <speed>1.470000</speed>
</trkpt>
<trkpt lat="32.587825775" lon="35.014568329">
  <ele>111.627563</ele>
  <time>2011-10-13T06:09:07Z</time>
  <speed>1.550000</speed>
</trkpt>
<trkpt lat="32.587795258" lon="35.014575958">
  <ele>111.303345</ele>
  <time>2011-10-13T06:09:09Z</time>
  <speed>1.530000</speed>
</trkpt>
<trkpt lat="32.587760925" lon="35.014595032">
  <ele>111.233032</ele>
  <time>2011-10-13T06:09:11Z</time>
  <speed>2.570000</speed>
</trkpt>
<trkpt lat="32.587738037" lon="35.014614105">
  <ele>111.231079</ele>
  <time>2011-10-13T06:09:12Z</time>
  <speed>2.930000</speed>
</trkpt>
<trkpt lat="32.587711334" lon="35.014652252">
  <ele>111.092407</ele>
  <time>2011-10-13T06:09:13Z</time>
  <speed>4.630000</speed>
</trkpt>
<trkpt lat="32.587684631" lon="35.014694214">
  <ele>111.098267</ele>
  <time>2011-10-13T06:09:14Z</time>
  <speed>4.470000</speed>
</trkpt>
<trkpt lat="32.587669373" lon="35.014728546">
  <ele>111.072876</ele>
  <time>2011-10-13T06:09:15Z</time>
  <speed>3.760000</speed>
</trkpt>
<trkpt lat="32.587669373" lon="35.014766693">
  <ele>110.711548</ele>
  <time>2011-10-13T06:09:16Z</time>
  <speed>1.350000</speed>
</trkpt>
<trkpt lat="32.587669373" lon="35.014816284">
  <ele>110.992798</ele>
  <time>2011-10-13T06:09:17Z</time>
  <speed>0.940000</speed>
</trkpt>
<trkpt lat="32.587638855" lon="35.014827728">
  <ele>109.943970</ele>
  <time>2011-10-13T06:09:22Z</time>
  <speed>0.630000</speed>
</trkpt>
<trkpt lat="32.587612152" lon="35.014827728">
  <ele>108.844360</ele>
  <time>2011-10-13T06:09:26Z</time>
  <speed>0.100000</speed>
</trkpt>
<trkpt lat="32.587566376" lon="35.014823914">
  <ele>109.498657</ele>
  <time>2011-10-13T06:10:14Z</time>
  <speed>0.790000</speed>
</trkpt>
<trkpt lat="32.587528229" lon="35.014816284">
  <ele>109.098267</ele>
  <time>2011-10-13T06:10:17Z</time>
  <speed>1.070000</speed>
</trkpt>
<trkpt lat="32.587493896" lon="35.014797211">
  <ele>109.756470</ele>
  <time>2011-10-13T06:10:19Z</time>
  <speed>0.770000</speed>
</trkpt>
<trkpt lat="32.587493896" lon="35.014762878">
  <ele>109.234985</ele>
  <time>2011-10-13T06:10:22Z</time>
  <speed>0.080000</speed>
</trkpt>
<trkpt lat="32.587467194" lon="35.014747620">
  <ele>109.022095</ele>
  <time>2011-10-13T06:10:34Z</time>
  <speed>0.600000</speed>
</trkpt>
<trkpt lat="32.587425232" lon="35.014732361">
  <ele>107.481079</ele>
  <time>2011-10-13T06:10:37Z</time>
  <speed>1.110000</speed>
</trkpt>
<trkpt lat="32.587390900" lon="35.014720917">
  <ele>106.617798</ele>
  <time>2011-10-13T06:10:39Z</time>
  <speed>1.040000</speed>
</trkpt>
<trkpt lat="32.587352753" lon="35.014720917">
  <ele>106.260376</ele>
  <time>2011-10-13T06:10:42Z</time>
  <speed>0.750000</speed>
</trkpt>
<trkpt lat="32.587318420" lon="35.014717102">
  <ele>105.990845</ele>
  <time>2011-10-13T06:10:46Z</time>
  <speed>0.820000</speed>
</trkpt>
<trkpt lat="32.587284088" lon="35.014705658">
  <ele>106.797485</ele>
  <time>2011-10-13T06:10:49Z</time>
  <speed>0.840000</speed>
</trkpt>
<trkpt lat="32.587249756" lon="35.014686584">
  <ele>107.094360</ele>
  <time>2011-10-13T06:10:52Z</time>
  <speed>0.840000</speed>
</trkpt>
<trkpt lat="32.587219238" lon="35.014667511">
  <ele>106.897095</ele>
  <time>2011-10-13T06:10:56Z</time>
  <speed>0.720000</speed>
</trkpt>
<trkpt lat="32.587177277" lon="35.014671326">
  <ele>106.106079</ele>
  <time>2011-10-13T06:11:00Z</time>
  <speed>0.740000</speed>
</trkpt>
<trkpt lat="32.587142944" lon="35.014663696">
  <ele>106.510376</ele>
  <time>2011-10-13T06:11:04Z</time>
  <speed>0.550000</speed>
</trkpt>
<trkpt lat="32.587104797" lon="35.014667511">
  <ele>106.861938</ele>
  <time>2011-10-13T06:11:07Z</time>
  <speed>0.910000</speed>
</trkpt>
<trkpt lat="32.587074280" lon="35.014671326">
  <ele>106.223267</ele>
  <time>2011-10-13T06:11:09Z</time>
  <speed>0.730000</speed>
</trkpt>
<trkpt lat="32.587047577" lon="35.014686584">
  <ele>106.199829</ele>
  <time>2011-10-13T06:11:14Z</time>
  <speed>0.380000</speed>
</trkpt>
<trkpt lat="32.587017059" lon="35.014678955">
  <ele>107.125610</ele>
  <time>2011-10-13T06:11:16Z</time>
  <speed>0.530000</speed>
</trkpt>
<trkpt lat="32.586990356" lon="35.014659882">
  <ele>106.852173</ele>
  <time>2011-10-13T06:11:21Z</time>
  <speed>1.070000</speed>
</trkpt>
<trkpt lat="32.586978912" lon="35.014709473">
  <ele>106.979126</ele>
  <time>2011-10-13T06:11:29Z</time>
  <speed>0.830000</speed>
</trkpt>
<trkpt lat="32.586959839" lon="35.014739990">
  <ele>106.975220</ele>
  <time>2011-10-13T06:11:32Z</time>
  <speed>0.820000</speed>
</trkpt>
<trkpt lat="32.586959839" lon="35.014774323">
  <ele>107.609985</ele>
  <time>2011-10-13T06:11:36Z</time>
  <speed>0.730000</speed>
</trkpt>
<trkpt lat="32.586975098" lon="35.014801025">
  <ele>107.766235</ele>
  <time>2011-10-13T06:11:40Z</time>
  <speed>0.810000</speed>
</trkpt>
<trkpt lat="32.587001801" lon="35.014823914">
  <ele>107.996704</ele>
  <time>2011-10-13T06:11:43Z</time>
  <speed>0.870000</speed>
</trkpt>
<trkpt lat="32.587028503" lon="35.014846802">
  <ele>108.219360</ele>
  <time>2011-10-13T06:11:47Z</time>
  <speed>0.680000</speed>
</trkpt>
<trkpt lat="32.587062836" lon="35.014862061">
  <ele>108.957642</ele>
  <time>2011-10-13T06:11:51Z</time>
  <speed>0.730000</speed>
</trkpt>
<trkpt lat="32.587089539" lon="35.014877319">
  <ele>109.576782</ele>
  <time>2011-10-13T06:11:54Z</time>
  <speed>0.920000</speed>
</trkpt>
<trkpt lat="32.587112427" lon="35.014896393">
  <ele>110.656860</ele>
  <time>2011-10-13T06:11:57Z</time>
  <speed>0.920000</speed>
</trkpt>
<trkpt lat="32.587135315" lon="35.014926910">
  <ele>111.787720</ele>
  <time>2011-10-13T06:12:00Z</time>
  <speed>0.980000</speed>
</trkpt>
<trkpt lat="32.587162018" lon="35.014949799">
  <ele>112.320923</ele>
  <time>2011-10-13T06:12:04Z</time>
  <speed>0.850000</speed>
</trkpt>
<trkpt lat="32.587188721" lon="35.014961243">
  <ele>112.076782</ele>
  <time>2011-10-13T06:12:07Z</time>
  <speed>0.800000</speed>
</trkpt>
<trkpt lat="32.587223053" lon="35.014968872">
  <ele>112.109985</ele>
  <time>2011-10-13T06:12:10Z</time>
  <speed>1.000000</speed>
</trkpt>
<trkpt lat="32.587249756" lon="35.014972687">
  <ele>112.467407</ele>
  <time>2011-10-13T06:12:13Z</time>
  <speed>0.470000</speed>
</trkpt>
<trkpt lat="32.587284088" lon="35.014965057">
  <ele>113.010376</ele>
  <time>2011-10-13T06:13:41Z</time>
  <speed>1.170000</speed>
</trkpt>
<trkpt lat="32.587306976" lon="35.014995575">
  <ele>113.166626</ele>
  <time>2011-10-13T06:13:43Z</time>
  <speed>1.430000</speed>
</trkpt>
<trkpt lat="32.587333679" lon="35.015018463">
  <ele>113.156860</ele>
  <time>2011-10-13T06:13:45Z</time>
  <speed>1.330000</speed>
</trkpt>
<trkpt lat="32.587345123" lon="35.015056610">
  <ele>112.643188</ele>
  <time>2011-10-13T06:13:47Z</time>
  <speed>2.460000</speed>
</trkpt>
<trkpt lat="32.587379456" lon="35.015083313">
  <ele>111.977173</ele>
  <time>2011-10-13T06:13:49Z</time>
  <speed>2.000000</speed>
</trkpt>
<trkpt lat="32.587409973" lon="35.015125275">
  <ele>112.168579</ele>
  <time>2011-10-13T06:13:51Z</time>
  <speed>1.950000</speed>
</trkpt>
<trkpt lat="32.587444305" lon="35.015155792">
  <ele>113.213501</ele>
  <time>2011-10-13T06:13:53Z</time>
  <speed>1.990000</speed>
</trkpt>
<trkpt lat="32.587474823" lon="35.015186310">
  <ele>113.424438</ele>
  <time>2011-10-13T06:13:55Z</time>
  <speed>1.650000</speed>
</trkpt>
<trkpt lat="32.587501526" lon="35.015213013">
  <ele>114.438110</ele>
  <time>2011-10-13T06:13:57Z</time>
  <speed>1.270000</speed>
</trkpt>
<trkpt lat="32.587543488" lon="35.015235901">
  <ele>115.164673</ele>
  <time>2011-10-13T06:13:59Z</time>
  <speed>1.980000</speed>
</trkpt>
<trkpt lat="32.587566376" lon="35.015270233">
  <ele>115.811157</ele>
  <time>2011-10-13T06:14:01Z</time>
  <speed>2.010000</speed>
</trkpt>
<trkpt lat="32.587581635" lon="35.015304565">
  <ele>116.213501</ele>
  <time>2011-10-13T06:14:03Z</time>
  <speed>1.840000</speed>
</trkpt>
<trkpt lat="32.587604523" lon="35.015331268">
  <ele>116.221313</ele>
  <time>2011-10-13T06:14:05Z</time>
  <speed>1.710000</speed>
</trkpt>
<trkpt lat="32.587623596" lon="35.015361786">
  <ele>115.904907</ele>
  <time>2011-10-13T06:14:07Z</time>
  <speed>1.930000</speed>
</trkpt>
<trkpt lat="32.587646484" lon="35.015396118">
  <ele>116.277954</ele>
  <time>2011-10-13T06:14:09Z</time>
  <speed>1.800000</speed>
</trkpt>
<trkpt lat="32.587665558" lon="35.015430450">
  <ele>116.801392</ele>
  <time>2011-10-13T06:14:11Z</time>
  <speed>1.760000</speed>
</trkpt>
<trkpt lat="32.587680817" lon="35.015460968">
  <ele>117.334595</ele>
  <time>2011-10-13T06:14:13Z</time>
  <speed>1.670000</speed>
</trkpt>
<trkpt lat="32.587699890" lon="35.015495300">
  <ele>118.680298</ele>
  <time>2011-10-13T06:14:15Z</time>
  <speed>1.690000</speed>
</trkpt>
<trkpt lat="32.587715149" lon="35.015544891">
  <ele>120.277954</ele>
  <time>2011-10-13T06:14:17Z</time>
  <speed>2.220000</speed>
</trkpt>
<trkpt lat="32.587734222" lon="35.015586853">
  <ele>120.871704</ele>
  <time>2011-10-13T06:14:19Z</time>
  <speed>2.180000</speed>
</trkpt>
<trkpt lat="32.587745667" lon="35.015628815">
  <ele>122.563110</ele>
  <time>2011-10-13T06:14:21Z</time>
  <speed>1.900000</speed>
</trkpt>
<trkpt lat="32.587741852" lon="35.015663147">
  <ele>122.774048</ele>
  <time>2011-10-13T06:14:23Z</time>
  <speed>1.630000</speed>
</trkpt>
<trkpt lat="32.587753296" lon="35.015697479">
  <ele>123.736938</ele>
  <time>2011-10-13T06:14:25Z</time>
  <speed>1.660000</speed>
</trkpt>
<trkpt lat="32.587757111" lon="35.015731812">
  <ele>124.428345</ele>
  <time>2011-10-13T06:14:27Z</time>
  <speed>1.740000</speed>
</trkpt>
<trkpt lat="32.587757111" lon="35.015769958">
  <ele>125.893188</ele>
  <time>2011-10-13T06:14:29Z</time>
  <speed>1.580000</speed>
</trkpt>
<trkpt lat="32.587764740" lon="35.015804291">
  <ele>126.514282</ele>
  <time>2011-10-13T06:14:31Z</time>
  <speed>1.670000</speed>
</trkpt>
<trkpt lat="32.587757111" lon="35.015842438">
  <ele>126.945923</ele>
  <time>2011-10-13T06:14:33Z</time>
  <speed>1.750000</speed>
</trkpt>
<trkpt lat="32.587749481" lon="35.015888214">
  <ele>127.777954</ele>
  <time>2011-10-13T06:14:35Z</time>
  <speed>2.010000</speed>
</trkpt>
<trkpt lat="32.587749481" lon="35.015930176">
  <ele>127.615845</ele>
  <time>2011-10-13T06:14:37Z</time>
  <speed>1.730000</speed>
</trkpt>
<trkpt lat="32.587741852" lon="35.015964508">
  <ele>127.828735</ele>
  <time>2011-10-13T06:14:39Z</time>
  <speed>1.520000</speed>
</trkpt>
<trkpt lat="32.587741852" lon="35.016010284">
  <ele>127.934204</ele>
  <time>2011-10-13T06:14:42Z</time>
  <speed>1.670000</speed>
</trkpt>
<trkpt lat="32.587745667" lon="35.016048431">
  <ele>128.669189</ele>
  <time>2011-10-13T06:14:44Z</time>
  <speed>1.550000</speed>
</trkpt>
<trkpt lat="32.587753296" lon="35.016082764">
  <ele>128.895752</ele>
  <time>2011-10-13T06:14:46Z</time>
  <speed>1.770000</speed>
</trkpt>
<trkpt lat="32.587757111" lon="35.016117096">
  <ele>129.165283</ele>
  <time>2011-10-13T06:14:48Z</time>
  <speed>1.510000</speed>
</trkpt>
<trkpt lat="32.587764740" lon="35.016151428">
  <ele>129.805908</ele>
  <time>2011-10-13T06:14:50Z</time>
  <speed>1.700000</speed>
</trkpt>
<trkpt lat="32.587776184" lon="35.016197205">
  <ele>130.384033</ele>
  <time>2011-10-13T06:14:52Z</time>
  <speed>1.750000</speed>
</trkpt>
<trkpt lat="32.587791443" lon="35.016239166">
  <ele>131.337158</ele>
  <time>2011-10-13T06:14:54Z</time>
  <speed>1.580000</speed>
</trkpt>
<trkpt lat="32.587795258" lon="35.016273499">
  <ele>131.520752</ele>
  <time>2011-10-13T06:14:56Z</time>
  <speed>1.680000</speed>
</trkpt>
<trkpt lat="32.587806702" lon="35.016311646">
  <ele>131.274658</ele>
  <time>2011-10-13T06:14:58Z</time>
  <speed>1.480000</speed>
</trkpt>
<trkpt lat="32.587821960" lon="35.016342163">
  <ele>131.192627</ele>
  <time>2011-10-13T06:15:00Z</time>
  <speed>1.710000</speed>
</trkpt>
<trkpt lat="32.587837219" lon="35.016376495">
  <ele>131.399658</ele>
  <time>2011-10-13T06:15:02Z</time>
  <speed>1.920000</speed>
</trkpt>
<trkpt lat="32.587856293" lon="35.016410828">
  <ele>131.235596</ele>
  <time>2011-10-13T06:15:04Z</time>
  <speed>1.720000</speed>
</trkpt>
<trkpt lat="32.587867737" lon="35.016448975">
  <ele>131.212158</ele>
  <time>2011-10-13T06:15:06Z</time>
  <speed>1.640000</speed>
</trkpt>
<trkpt lat="32.587898254" lon="35.016479492">
  <ele>131.891846</ele>
  <time>2011-10-13T06:15:08Z</time>
  <speed>1.820000</speed>
</trkpt>
<trkpt lat="32.587924957" lon="35.016506195">
  <ele>132.848877</ele>
  <time>2011-10-13T06:15:10Z</time>
  <speed>2.010000</speed>
</trkpt>
<trkpt lat="32.587966919" lon="35.016532898">
  <ele>132.559814</ele>
  <time>2011-10-13T06:15:12Z</time>
  <speed>2.580000</speed>
</trkpt>
<trkpt lat="32.588001251" lon="35.016567230">
  <ele>133.403564</ele>
  <time>2011-10-13T06:15:14Z</time>
  <speed>2.400000</speed>
</trkpt>
<trkpt lat="32.588031769" lon="35.016590118">
  <ele>133.962158</ele>
  <time>2011-10-13T06:15:16Z</time>
  <speed>1.730000</speed>
</trkpt>
<trkpt lat="32.588062286" lon="35.016609192">
  <ele>134.395752</ele>
  <time>2011-10-13T06:15:18Z</time>
  <speed>1.820000</speed>
</trkpt>
<trkpt lat="32.588096619" lon="35.016632080">
  <ele>134.594971</ele>
  <time>2011-10-13T06:15:20Z</time>
  <speed>1.840000</speed>
</trkpt>
<trkpt lat="32.588123322" lon="35.016658783">
  <ele>134.719971</ele>
  <time>2011-10-13T06:15:22Z</time>
  <speed>1.750000</speed>
</trkpt>
<trkpt lat="32.588146210" lon="35.016677856">
  <ele>134.661377</ele>
  <time>2011-10-13T06:15:25Z</time>
  <speed>1.910000</speed>
</trkpt>
<trkpt lat="32.588180542" lon="35.016693115">
  <ele>134.473877</ele>
  <time>2011-10-13T06:15:27Z</time>
  <speed>1.820000</speed>
</trkpt>
<trkpt lat="32.588207245" lon="35.016712189">
  <ele>134.227783</ele>
  <time>2011-10-13T06:15:29Z</time>
  <speed>2.000000</speed>
</trkpt>
<trkpt lat="32.588241577" lon="35.016731262">
  <ele>134.657471</ele>
  <time>2011-10-13T06:15:31Z</time>
  <speed>1.760000</speed>
</trkpt>
<trkpt lat="32.588279724" lon="35.016738892">
  <ele>134.259033</ele>
  <time>2011-10-13T06:15:33Z</time>
  <speed>1.650000</speed>
</trkpt>
<trkpt lat="32.588310242" lon="35.016754150">
  <ele>134.489502</ele>
  <time>2011-10-13T06:15:35Z</time>
  <speed>2.040000</speed>
</trkpt>
<trkpt lat="32.588340759" lon="35.016773224">
  <ele>134.485596</ele>
  <time>2011-10-13T06:15:37Z</time>
  <speed>1.770000</speed>
</trkpt>
<trkpt lat="32.588359833" lon="35.016792297">
  <ele>135.079346</ele>
  <time>2011-10-13T06:15:39Z</time>
  <speed>1.750000</speed>
</trkpt>
<trkpt lat="32.588394165" lon="35.016811371">
  <ele>135.106689</ele>
  <time>2011-10-13T06:15:41Z</time>
  <speed>1.960000</speed>
</trkpt>
<trkpt lat="32.588420868" lon="35.016838074">
  <ele>134.989502</ele>
  <time>2011-10-13T06:15:43Z</time>
  <speed>1.680000</speed>
</trkpt>
<trkpt lat="32.588455200" lon="35.016857147">
  <ele>135.212158</ele>
  <time>2011-10-13T06:15:45Z</time>
  <speed>1.890000</speed>
</trkpt>
<trkpt lat="32.588485718" lon="35.016880035">
  <ele>135.739502</ele>
  <time>2011-10-13T06:15:47Z</time>
  <speed>1.710000</speed>
</trkpt>
<trkpt lat="32.588512421" lon="35.016899109">
  <ele>135.540283</ele>
  <time>2011-10-13T06:15:49Z</time>
  <speed>1.330000</speed>
</trkpt>
<trkpt lat="32.588535309" lon="35.016937256">
  <ele>135.966064</ele>
  <time>2011-10-13T06:15:52Z</time>
  <speed>1.200000</speed>
</trkpt>
<trkpt lat="32.588562012" lon="35.016956329">
  <ele>136.739502</ele>
  <time>2011-10-13T06:15:54Z</time>
  <speed>1.810000</speed>
</trkpt>
<trkpt lat="32.588577271" lon="35.016990662">
  <ele>137.009033</ele>
  <time>2011-10-13T06:15:56Z</time>
  <speed>1.080000</speed>
</trkpt>
<trkpt lat="32.588596344" lon="35.017021179">
  <ele>137.153564</ele>
  <time>2011-10-13T06:15:59Z</time>
  <speed>1.530000</speed>
</trkpt>
<trkpt lat="32.588619232" lon="35.017051697">
  <ele>136.794189</ele>
  <time>2011-10-13T06:16:01Z</time>
  <speed>1.730000</speed>
</trkpt>
<trkpt lat="32.588634491" lon="35.017082214">
  <ele>137.669189</ele>
  <time>2011-10-13T06:16:03Z</time>
  <speed>1.790000</speed>
</trkpt>
<trkpt lat="32.588657379" lon="35.017116547">
  <ele>138.528564</ele>
  <time>2011-10-13T06:16:05Z</time>
  <speed>1.740000</speed>
</trkpt>
<trkpt lat="32.588672638" lon="35.017147064">
  <ele>139.126221</ele>
  <time>2011-10-13T06:16:07Z</time>
  <speed>1.630000</speed>
</trkpt>
<trkpt lat="32.588687897" lon="35.017181396">
  <ele>139.716064</ele>
  <time>2011-10-13T06:16:09Z</time>
  <speed>2.000000</speed>
</trkpt>
<trkpt lat="32.588699341" lon="35.017223358">
  <ele>139.868408</ele>
  <time>2011-10-13T06:16:11Z</time>
  <speed>1.890000</speed>
</trkpt>
<trkpt lat="32.588703156" lon="35.017265320">
  <ele>140.501221</ele>
  <time>2011-10-13T06:16:13Z</time>
  <speed>2.120000</speed>
</trkpt>
<trkpt lat="32.588710785" lon="35.017303467">
  <ele>140.915283</ele>
  <time>2011-10-13T06:16:15Z</time>
  <speed>2.180000</speed>
</trkpt>
<trkpt lat="32.588714600" lon="35.017349243">
  <ele>141.052002</ele>
  <time>2011-10-13T06:16:17Z</time>
  <speed>1.810000</speed>
</trkpt>
<trkpt lat="32.588718414" lon="35.017391205">
  <ele>141.110596</ele>
  <time>2011-10-13T06:16:19Z</time>
  <speed>1.860000</speed>
</trkpt>
<trkpt lat="32.588729858" lon="35.017425537">
  <ele>141.466064</ele>
  <time>2011-10-13T06:16:21Z</time>
  <speed>1.600000</speed>
</trkpt>
<trkpt lat="32.588729858" lon="35.017459869">
  <ele>142.192627</ele>
  <time>2011-10-13T06:16:23Z</time>
  <speed>1.640000</speed>
</trkpt>
<trkpt lat="32.588729858" lon="35.017494202">
  <ele>142.165283</ele>
  <time>2011-10-13T06:16:25Z</time>
  <speed>1.620000</speed>
</trkpt>
<trkpt lat="32.588729858" lon="35.017543793">
  <ele>142.895752</ele>
  <time>2011-10-13T06:16:28Z</time>
  <speed>1.800000</speed>
</trkpt>
<trkpt lat="32.588729858" lon="35.017581940">
  <ele>142.610596</ele>
  <time>2011-10-13T06:16:30Z</time>
  <speed>1.580000</speed>
</trkpt>
<trkpt lat="32.588737488" lon="35.017623901">
  <ele>142.985596</ele>
  <time>2011-10-13T06:16:32Z</time>
  <speed>1.750000</speed>
</trkpt>
<trkpt lat="32.588748932" lon="35.017662048">
  <ele>142.911377</ele>
  <time>2011-10-13T06:16:34Z</time>
  <speed>1.490000</speed>
</trkpt>
<trkpt lat="32.588748932" lon="35.017692566">
  <ele>142.204346</ele>
  <time>2011-10-13T06:16:36Z</time>
  <speed>1.450000</speed>
</trkpt>
<trkpt lat="32.588752747" lon="35.017745972">
  <ele>142.173096</ele>
  <time>2011-10-13T06:16:39Z</time>
  <speed>1.720000</speed>
</trkpt>
<trkpt lat="32.588752747" lon="35.017784119">
  <ele>142.184814</ele>
  <time>2011-10-13T06:16:41Z</time>
  <speed>1.910000</speed>
</trkpt>
<trkpt lat="32.588748932" lon="35.017833710">
  <ele>142.270752</ele>
  <time>2011-10-13T06:16:43Z</time>
  <speed>1.570000</speed>
</trkpt>
<trkpt lat="32.588748932" lon="35.017875671">
  <ele>142.282471</ele>
  <time>2011-10-13T06:16:45Z</time>
  <speed>1.680000</speed>
</trkpt>
<trkpt lat="32.588745117" lon="35.017910004">
  <ele>142.317627</ele>
  <time>2011-10-13T06:16:47Z</time>
  <speed>1.060000</speed>
</trkpt>
<trkpt lat="32.588741302" lon="35.017948151">
  <ele>140.923096</ele>
  <time>2011-10-13T06:16:49Z</time>
  <speed>1.750000</speed>
</trkpt>
<trkpt lat="32.588741302" lon="35.017990112">
  <ele>140.387939</ele>
  <time>2011-10-13T06:16:51Z</time>
  <speed>1.630000</speed>
</trkpt>
<trkpt lat="32.588741302" lon="35.018032074">
  <ele>139.548096</ele>
  <time>2011-10-13T06:16:53Z</time>
  <speed>1.690000</speed>
</trkpt>
<trkpt lat="32.588756561" lon="35.018089294">
  <ele>139.977783</ele>
  <time>2011-10-13T06:16:55Z</time>
  <speed>2.190000</speed>
</trkpt>
<trkpt lat="32.588764191" lon="35.018138885">
  <ele>139.868408</ele>
  <time>2011-10-13T06:16:57Z</time>
  <speed>2.450000</speed>
</trkpt>
<trkpt lat="32.588775635" lon="35.018180847">
  <ele>140.243408</ele>
  <time>2011-10-13T06:16:58Z</time>
  <speed>2.830000</speed>
</trkpt>
<trkpt lat="32.588779449" lon="35.018211365">
  <ele>140.407471</ele>
  <time>2011-10-13T06:16:59Z</time>
  <speed>2.930000</speed>
</trkpt>
<trkpt lat="32.588775635" lon="35.018253326">
  <ele>141.032471</ele>
  <time>2011-10-13T06:17:00Z</time>
  <speed>2.900000</speed>
</trkpt>
<trkpt lat="32.588771820" lon="35.018310547">
  <ele>141.255127</ele>
  <time>2011-10-13T06:17:02Z</time>
  <speed>2.410000</speed>
</trkpt>
<trkpt lat="32.588764191" lon="35.018360138">
  <ele>141.841064</ele>
  <time>2011-10-13T06:17:04Z</time>
  <speed>1.900000</speed>
</trkpt>
<trkpt lat="32.588752747" lon="35.018405914">
  <ele>141.852783</ele>
  <time>2011-10-13T06:17:06Z</time>
  <speed>2.400000</speed>
</trkpt>
<trkpt lat="32.588745117" lon="35.018455505">
  <ele>142.251221</ele>
  <time>2011-10-13T06:17:08Z</time>
  <speed>1.940000</speed>
</trkpt>
<trkpt lat="32.588741302" lon="35.018508911">
  <ele>142.489502</ele>
  <time>2011-10-13T06:17:10Z</time>
  <speed>1.880000</speed>
</trkpt>
<trkpt lat="32.588733673" lon="35.018558502">
  <ele>142.548096</ele>
  <time>2011-10-13T06:17:12Z</time>
  <speed>2.110000</speed>
</trkpt>
<trkpt lat="32.588726044" lon="35.018592834">
  <ele>142.009033</ele>
  <time>2011-10-13T06:17:14Z</time>
  <speed>1.610000</speed>
</trkpt>
<trkpt lat="32.588718414" lon="35.018634796">
  <ele>141.825439</ele>
  <time>2011-10-13T06:17:16Z</time>
  <speed>2.210000</speed>
</trkpt>
<trkpt lat="32.588706970" lon="35.018676758">
  <ele>140.762939</ele>
  <time>2011-10-13T06:17:18Z</time>
  <speed>1.940000</speed>
</trkpt>
<trkpt lat="32.588699341" lon="35.018707275">
  <ele>142.157471</ele>
  <time>2011-10-13T06:17:19Z</time>
  <speed>1.960000</speed>
</trkpt>
<trkpt lat="32.588699341" lon="35.018753052">
  <ele>142.118408</ele>
  <time>2011-10-13T06:17:21Z</time>
  <speed>1.830000</speed>
</trkpt>
<trkpt lat="32.588691711" lon="35.018787384">
  <ele>142.450439</ele>
  <time>2011-10-13T06:17:23Z</time>
  <speed>1.750000</speed>
</trkpt>
<trkpt lat="32.588691711" lon="35.018829346">
  <ele>143.516846</ele>
  <time>2011-10-13T06:17:24Z</time>
  <speed>2.080000</speed>
</trkpt>
<trkpt lat="32.588676453" lon="35.018875122">
  <ele>144.427002</ele>
  <time>2011-10-13T06:17:26Z</time>
  <speed>2.090000</speed>
</trkpt>
<trkpt lat="32.588657379" lon="35.018917084">
  <ele>144.657471</ele>
  <time>2011-10-13T06:17:28Z</time>
  <speed>2.110000</speed>
</trkpt>
<trkpt lat="32.588638306" lon="35.018974304">
  <ele>144.157471</ele>
  <time>2011-10-13T06:17:30Z</time>
  <speed>2.710000</speed>
</trkpt>
<trkpt lat="32.588619232" lon="35.019035339">
  <ele>144.552002</ele>
  <time>2011-10-13T06:17:32Z</time>
  <speed>2.290000</speed>
</trkpt>
<trkpt lat="32.588611603" lon="35.019088745">
  <ele>145.887939</ele>
  <time>2011-10-13T06:17:34Z</time>
  <speed>2.350000</speed>
</trkpt>
<trkpt lat="32.588596344" lon="35.019138336">
  <ele>146.196533</ele>
  <time>2011-10-13T06:17:36Z</time>
  <speed>2.520000</speed>
</trkpt>
<trkpt lat="32.588581085" lon="35.019184113">
  <ele>146.942627</ele>
  <time>2011-10-13T06:17:38Z</time>
  <speed>2.490000</speed>
</trkpt>
<trkpt lat="32.588573456" lon="35.019237518">
  <ele>146.903564</ele>
  <time>2011-10-13T06:17:40Z</time>
  <speed>2.010000</speed>
</trkpt>
<trkpt lat="32.588554382" lon="35.019279480">
  <ele>147.298096</ele>
  <time>2011-10-13T06:17:42Z</time>
  <speed>2.300000</speed>
</trkpt>
<trkpt lat="32.588539124" lon="35.019329071">
  <ele>147.067627</ele>
  <time>2011-10-13T06:17:44Z</time>
  <speed>2.420000</speed>
</trkpt>
<trkpt lat="32.588531494" lon="35.019378662">
  <ele>147.446533</ele>
  <time>2011-10-13T06:17:46Z</time>
  <speed>2.090000</speed>
</trkpt>
<trkpt lat="32.588516235" lon="35.019416809">
  <ele>147.884033</ele>
  <time>2011-10-13T06:17:48Z</time>
  <speed>1.650000</speed>
</trkpt>
<trkpt lat="32.588504791" lon="35.019454956">
  <ele>148.759033</ele>
  <time>2011-10-13T06:17:50Z</time>
  <speed>2.020000</speed>
</trkpt>
<trkpt lat="32.588478088" lon="35.019504547">
  <ele>148.794189</ele>
  <time>2011-10-13T06:17:52Z</time>
  <speed>2.400000</speed>
</trkpt>
<trkpt lat="32.588455200" lon="35.019554138">
  <ele>148.841064</ele>
  <time>2011-10-13T06:17:54Z</time>
  <speed>2.180000</speed>
</trkpt>
<trkpt lat="32.588439941" lon="35.019603729">
  <ele>149.196533</ele>
  <time>2011-10-13T06:17:56Z</time>
  <speed>2.300000</speed>
</trkpt>
<trkpt lat="32.588413239" lon="35.019641876">
  <ele>149.403564</ele>
  <time>2011-10-13T06:17:58Z</time>
  <speed>2.520000</speed>
</trkpt>
<trkpt lat="32.588378906" lon="35.019687653">
  <ele>147.891846</ele>
  <time>2011-10-13T06:18:00Z</time>
  <speed>2.130000</speed>
</trkpt>
<trkpt lat="32.588356018" lon="35.019744873">
  <ele>147.399658</ele>
  <time>2011-10-13T06:18:02Z</time>
  <speed>2.650000</speed>
</trkpt>
<trkpt lat="32.588340759" lon="35.019771576">
  <ele>148.094971</ele>
  <time>2011-10-13T06:18:03Z</time>
  <speed>2.340000</speed>
</trkpt>
<trkpt lat="32.588310242" lon="35.019809723">
  <ele>147.559814</ele>
  <time>2011-10-13T06:18:05Z</time>
  <speed>2.230000</speed>
</trkpt>
<trkpt lat="32.588291168" lon="35.019836426">
  <ele>148.196533</ele>
  <time>2011-10-13T06:18:06Z</time>
  <speed>2.450000</speed>
</trkpt>
<trkpt lat="32.588253021" lon="35.019866943">
  <ele>148.856689</ele>
  <time>2011-10-13T06:18:08Z</time>
  <speed>2.520000</speed>
</trkpt>
<trkpt lat="32.588203430" lon="35.019886017">
  <ele>147.825439</ele>
  <time>2011-10-13T06:18:10Z</time>
  <speed>2.630000</speed>
</trkpt>
<trkpt lat="32.588161469" lon="35.019908905">
  <ele>147.673096</ele>
  <time>2011-10-13T06:18:12Z</time>
  <speed>2.650000</speed>
</trkpt>
<trkpt lat="32.588119507" lon="35.019927979">
  <ele>146.997314</ele>
  <time>2011-10-13T06:18:14Z</time>
  <speed>1.790000</speed>
</trkpt>
<trkpt lat="32.588081360" lon="35.019935608">
  <ele>147.583252</ele>
  <time>2011-10-13T06:18:16Z</time>
  <speed>1.810000</speed>
</trkpt>
<trkpt lat="32.588039398" lon="35.019939423">
  <ele>147.860596</ele>
  <time>2011-10-13T06:18:18Z</time>
  <speed>2.130000</speed>
</trkpt>
<trkpt lat="32.587997437" lon="35.019939423">
  <ele>148.317627</ele>
  <time>2011-10-13T06:18:20Z</time>
  <speed>2.270000</speed>
</trkpt>
<trkpt lat="32.587944031" lon="35.019935608">
  <ele>147.848877</ele>
  <time>2011-10-13T06:18:22Z</time>
  <speed>2.710000</speed>
</trkpt>
<trkpt lat="32.587898254" lon="35.019920349">
  <ele>146.653564</ele>
  <time>2011-10-13T06:18:24Z</time>
  <speed>2.140000</speed>
</trkpt>
<trkpt lat="32.587875366" lon="35.019897461">
  <ele>145.165283</ele>
  <time>2011-10-13T06:18:26Z</time>
  <speed>1.640000</speed>
</trkpt>
<trkpt lat="32.587841034" lon="35.019893646">
  <ele>144.403564</ele>
  <time>2011-10-13T06:18:28Z</time>
  <speed>1.410000</speed>
</trkpt>
<trkpt lat="32.587806702" lon="35.019886017">
  <ele>144.333252</ele>
  <time>2011-10-13T06:18:30Z</time>
  <speed>1.840000</speed>
</trkpt>
<trkpt lat="32.587772369" lon="35.019870758">
  <ele>144.528564</ele>
  <time>2011-10-13T06:18:32Z</time>
  <speed>1.520000</speed>
</trkpt>
<trkpt lat="32.587738037" lon="35.019863129">
  <ele>145.169189</ele>
  <time>2011-10-13T06:18:34Z</time>
  <speed>1.820000</speed>
</trkpt>
<trkpt lat="32.587696075" lon="35.019847870">
  <ele>145.895752</ele>
  <time>2011-10-13T06:18:36Z</time>
  <speed>2.090000</speed>
</trkpt>
<trkpt lat="32.587657928" lon="35.019828796">
  <ele>146.329346</ele>
  <time>2011-10-13T06:18:38Z</time>
  <speed>2.210000</speed>
</trkpt>
<trkpt lat="32.587615967" lon="35.019809723">
  <ele>146.786377</ele>
  <time>2011-10-13T06:18:40Z</time>
  <speed>2.350000</speed>
</trkpt>
<trkpt lat="32.587570190" lon="35.019794464">
  <ele>146.669189</ele>
  <time>2011-10-13T06:18:42Z</time>
  <speed>2.680000</speed>
</trkpt>
<trkpt lat="32.587543488" lon="35.019790649">
  <ele>147.387939</ele>
  <time>2011-10-13T06:18:43Z</time>
  <speed>2.800000</speed>
</trkpt>
<trkpt lat="32.587516785" lon="35.019786835">
  <ele>147.798096</ele>
  <time>2011-10-13T06:18:44Z</time>
  <speed>3.190000</speed>
</trkpt>
<trkpt lat="32.587482452" lon="35.019779205">
  <ele>148.305908</ele>
  <time>2011-10-13T06:18:45Z</time>
  <speed>3.130000</speed>
</trkpt>
<trkpt lat="32.587429047" lon="35.019763947">
  <ele>149.200439</ele>
  <time>2011-10-13T06:18:47Z</time>
  <speed>2.890000</speed>
</trkpt>
<trkpt lat="32.587379456" lon="35.019752502">
  <ele>149.817627</ele>
  <time>2011-10-13T06:18:49Z</time>
  <speed>3.060000</speed>
</trkpt>
<trkpt lat="32.587352753" lon="35.019748688">
  <ele>148.930908</ele>
  <time>2011-10-13T06:18:50Z</time>
  <speed>2.910000</speed>
</trkpt>
<trkpt lat="32.587326050" lon="35.019741058">
  <ele>149.262939</ele>
  <time>2011-10-13T06:18:51Z</time>
  <speed>3.000000</speed>
</trkpt>
<trkpt lat="32.587295532" lon="35.019744873">
  <ele>149.813721</ele>
  <time>2011-10-13T06:18:52Z</time>
  <speed>2.650000</speed>
</trkpt>
<trkpt lat="32.587249756" lon="35.019733429">
  <ele>148.915283</ele>
  <time>2011-10-13T06:18:54Z</time>
  <speed>2.710000</speed>
</trkpt>
<trkpt lat="32.587211609" lon="35.019710541">
  <ele>148.188721</ele>
  <time>2011-10-13T06:18:56Z</time>
  <speed>2.630000</speed>
</trkpt>
<trkpt lat="32.587162018" lon="35.019695282">
  <ele>147.841064</ele>
  <time>2011-10-13T06:18:58Z</time>
  <speed>2.760000</speed>
</trkpt>
<trkpt lat="32.587135315" lon="35.019691467">
  <ele>147.860596</ele>
  <time>2011-10-13T06:18:59Z</time>
  <speed>2.890000</speed>
</trkpt>
<trkpt lat="32.587085724" lon="35.019680023">
  <ele>147.419189</ele>
  <time>2011-10-13T06:19:01Z</time>
  <speed>2.730000</speed>
</trkpt>
<trkpt lat="32.587032318" lon="35.019672394">
  <ele>148.067627</ele>
  <time>2011-10-13T06:19:03Z</time>
  <speed>2.900000</speed>
</trkpt>
<trkpt lat="32.586986542" lon="35.019664764">
  <ele>147.653564</ele>
  <time>2011-10-13T06:19:05Z</time>
  <speed>2.760000</speed>
</trkpt>
<trkpt lat="32.586933136" lon="35.019649506">
  <ele>147.762939</ele>
  <time>2011-10-13T06:19:07Z</time>
  <speed>2.850000</speed>
</trkpt>
<trkpt lat="32.586883545" lon="35.019641876">
  <ele>147.618408</ele>
  <time>2011-10-13T06:19:09Z</time>
  <speed>2.650000</speed>
</trkpt>
<trkpt lat="32.586856842" lon="35.019638062">
  <ele>148.005127</ele>
  <time>2011-10-13T06:19:10Z</time>
  <speed>2.840000</speed>
</trkpt>
<trkpt lat="32.586830139" lon="35.019630432">
  <ele>147.825439</ele>
  <time>2011-10-13T06:19:11Z</time>
  <speed>2.790000</speed>
</trkpt>
<trkpt lat="32.586788177" lon="35.019615173">
  <ele>147.485596</ele>
  <time>2011-10-13T06:19:13Z</time>
  <speed>2.310000</speed>
</trkpt>
<trkpt lat="32.586746216" lon="35.019603729">
  <ele>146.813721</ele>
  <time>2011-10-13T06:19:15Z</time>
  <speed>2.870000</speed>
</trkpt>
<trkpt lat="32.586696625" lon="35.019588470">
  <ele>146.743408</ele>
  <time>2011-10-13T06:19:17Z</time>
  <speed>2.720000</speed>
</trkpt>
<trkpt lat="32.586643219" lon="35.019580841">
  <ele>145.509033</ele>
  <time>2011-10-13T06:19:19Z</time>
  <speed>2.920000</speed>
</trkpt>
<trkpt lat="32.586589813" lon="35.019569397">
  <ele>144.942627</ele>
  <time>2011-10-13T06:19:21Z</time>
  <speed>2.870000</speed>
</trkpt>
<trkpt lat="32.586563110" lon="35.019565582">
  <ele>145.317627</ele>
  <time>2011-10-13T06:19:22Z</time>
  <speed>2.800000</speed>
</trkpt>
<trkpt lat="32.586517334" lon="35.019550323">
  <ele>144.520752</ele>
  <time>2011-10-13T06:19:24Z</time>
  <speed>2.780000</speed>
</trkpt>
<trkpt lat="32.586463928" lon="35.019546509">
  <ele>144.923096</ele>
  <time>2011-10-13T06:19:26Z</time>
  <speed>2.510000</speed>
</trkpt>
<trkpt lat="32.586414337" lon="35.019538879">
  <ele>144.692627</ele>
  <time>2011-10-13T06:19:28Z</time>
  <speed>2.510000</speed>
</trkpt>
<trkpt lat="32.586372375" lon="35.019527435">
  <ele>144.384033</ele>
  <time>2011-10-13T06:19:30Z</time>
  <speed>2.530000</speed>
</trkpt>
<trkpt lat="32.586318970" lon="35.019515991">
  <ele>144.387939</ele>
  <time>2011-10-13T06:19:32Z</time>
  <speed>3.190000</speed>
</trkpt>
<trkpt lat="32.586292267" lon="35.019512177">
  <ele>144.555908</ele>
  <time>2011-10-13T06:19:33Z</time>
  <speed>3.160000</speed>
</trkpt>
<trkpt lat="32.586235046" lon="35.019500732">
  <ele>144.391846</ele>
  <time>2011-10-13T06:19:35Z</time>
  <speed>3.380000</speed>
</trkpt>
<trkpt lat="32.586204529" lon="35.019500732">
  <ele>144.286377</ele>
  <time>2011-10-13T06:19:36Z</time>
  <speed>3.080000</speed>
</trkpt>
<trkpt lat="32.586177826" lon="35.019493103">
  <ele>144.352783</ele>
  <time>2011-10-13T06:19:37Z</time>
  <speed>3.270000</speed>
</trkpt>
<trkpt lat="32.586147308" lon="35.019493103">
  <ele>144.552002</ele>
  <time>2011-10-13T06:19:38Z</time>
  <speed>2.900000</speed>
</trkpt>
<trkpt lat="32.586116791" lon="35.019485474">
  <ele>144.688721</ele>
  <time>2011-10-13T06:19:39Z</time>
  <speed>2.800000</speed>
</trkpt>
<trkpt lat="32.586086273" lon="35.019477844">
  <ele>145.903564</ele>
  <time>2011-10-13T06:19:40Z</time>
  <speed>2.640000</speed>
</trkpt>
<trkpt lat="32.586059570" lon="35.019477844">
  <ele>146.501221</ele>
  <time>2011-10-13T06:19:41Z</time>
  <speed>2.620000</speed>
</trkpt>
<trkpt lat="32.586017609" lon="35.019458771">
  <ele>147.055908</ele>
  <time>2011-10-13T06:19:43Z</time>
  <speed>2.430000</speed>
</trkpt>
<trkpt lat="32.585968018" lon="35.019447327">
  <ele>147.137939</ele>
  <time>2011-10-13T06:19:45Z</time>
  <speed>2.740000</speed>
</trkpt>
<trkpt lat="32.585914612" lon="35.019439697">
  <ele>146.677002</ele>
  <time>2011-10-13T06:19:47Z</time>
  <speed>2.940000</speed>
</trkpt>
<trkpt lat="32.585887909" lon="35.019432068">
  <ele>146.274658</ele>
  <time>2011-10-13T06:19:48Z</time>
  <speed>3.190000</speed>
</trkpt>
<trkpt lat="32.585834503" lon="35.019424438">
  <ele>146.298096</ele>
  <time>2011-10-13T06:19:50Z</time>
  <speed>3.230000</speed>
</trkpt>
<trkpt lat="32.585803986" lon="35.019420624">
  <ele>145.735596</ele>
  <time>2011-10-13T06:19:51Z</time>
  <speed>3.590000</speed>
</trkpt>
<trkpt lat="32.585773468" lon="35.019412994">
  <ele>145.571533</ele>
  <time>2011-10-13T06:19:52Z</time>
  <speed>3.280000</speed>
</trkpt>
<trkpt lat="32.585742950" lon="35.019416809">
  <ele>146.552002</ele>
  <time>2011-10-13T06:19:53Z</time>
  <speed>3.410000</speed>
</trkpt>
<trkpt lat="32.585712433" lon="35.019412994">
  <ele>147.001221</ele>
  <time>2011-10-13T06:19:54Z</time>
  <speed>3.060000</speed>
</trkpt>
<trkpt lat="32.585662842" lon="35.019393921">
  <ele>147.063721</ele>
  <time>2011-10-13T06:19:56Z</time>
  <speed>3.110000</speed>
</trkpt>
<trkpt lat="32.585632324" lon="35.019386292">
  <ele>146.696533</ele>
  <time>2011-10-13T06:19:57Z</time>
  <speed>3.200000</speed>
</trkpt>
<trkpt lat="32.585597992" lon="35.019382477">
  <ele>147.555908</ele>
  <time>2011-10-13T06:19:58Z</time>
  <speed>3.100000</speed>
</trkpt>
<trkpt lat="32.585571289" lon="35.019378662">
  <ele>148.415283</ele>
  <time>2011-10-13T06:19:59Z</time>
  <speed>2.850000</speed>
</trkpt>
<trkpt lat="32.585521698" lon="35.019363403">
  <ele>147.469971</ele>
  <time>2011-10-13T06:20:01Z</time>
  <speed>2.660000</speed>
</trkpt>
<trkpt lat="32.585475922" lon="35.019329071">
  <ele>147.493408</ele>
  <time>2011-10-13T06:20:03Z</time>
  <speed>2.990000</speed>
</trkpt>
<trkpt lat="32.585453033" lon="35.019309998">
  <ele>147.032471</ele>
  <time>2011-10-13T06:20:04Z</time>
  <speed>2.840000</speed>
</trkpt>
<trkpt lat="32.585426331" lon="35.019302368">
  <ele>147.079346</ele>
  <time>2011-10-13T06:20:05Z</time>
  <speed>2.720000</speed>
</trkpt>
<trkpt lat="32.585388184" lon="35.019279480">
  <ele>147.614502</ele>
  <time>2011-10-13T06:20:07Z</time>
  <speed>2.250000</speed>
</trkpt>
<trkpt lat="32.585350037" lon="35.019268036">
  <ele>147.157471</ele>
  <time>2011-10-13T06:20:09Z</time>
  <speed>2.090000</speed>
</trkpt>
<trkpt lat="32.585315704" lon="35.019245148">
  <ele>147.341064</ele>
  <time>2011-10-13T06:20:11Z</time>
  <speed>2.270000</speed>
</trkpt>
<trkpt lat="32.585273743" lon="35.019226074">
  <ele>147.434814</ele>
  <time>2011-10-13T06:20:13Z</time>
  <speed>2.240000</speed>
</trkpt>
<trkpt lat="32.585235596" lon="35.019203186">
  <ele>147.024658</ele>
  <time>2011-10-13T06:20:15Z</time>
  <speed>2.250000</speed>
</trkpt>
<trkpt lat="32.585201263" lon="35.019168854">
  <ele>146.169189</ele>
  <time>2011-10-13T06:20:17Z</time>
  <speed>2.380000</speed>
</trkpt>
<trkpt lat="32.585174561" lon="35.019134521">
  <ele>145.262939</ele>
  <time>2011-10-13T06:20:19Z</time>
  <speed>2.150000</speed>
</trkpt>
<trkpt lat="32.585144043" lon="35.019100189">
  <ele>144.052002</ele>
  <time>2011-10-13T06:20:21Z</time>
  <speed>2.390000</speed>
</trkpt>
<trkpt lat="32.585109711" lon="35.019065857">
  <ele>142.059814</ele>
  <time>2011-10-13T06:20:23Z</time>
  <speed>2.460000</speed>
</trkpt>
<trkpt lat="32.585063934" lon="35.019039154">
  <ele>142.052002</ele>
  <time>2011-10-13T06:20:25Z</time>
  <speed>2.380000</speed>
</trkpt>
<trkpt lat="32.585029602" lon="35.018997192">
  <ele>140.450439</ele>
  <time>2011-10-13T06:20:27Z</time>
  <speed>2.270000</speed>
</trkpt>
<trkpt lat="32.584995270" lon="35.018955231">
  <ele>140.657471</ele>
  <time>2011-10-13T06:20:29Z</time>
  <speed>2.400000</speed>
</trkpt>
<trkpt lat="32.584964752" lon="35.018928528">
  <ele>141.290283</ele>
  <time>2011-10-13T06:20:31Z</time>
  <speed>1.800000</speed>
</trkpt>
<trkpt lat="32.584938049" lon="35.018898010">
  <ele>140.497314</ele>
  <time>2011-10-13T06:20:33Z</time>
  <speed>2.200000</speed>
</trkpt>
<trkpt lat="32.584903717" lon="35.018863678">
  <ele>140.110596</ele>
  <time>2011-10-13T06:20:35Z</time>
  <speed>2.310000</speed>
</trkpt>
<trkpt lat="32.584877014" lon="35.018859863">
  <ele>141.860596</ele>
  <time>2011-10-13T06:20:36Z</time>
  <speed>2.180000</speed>
</trkpt>
<trkpt lat="32.584846497" lon="35.018814087">
  <ele>141.001221</ele>
  <time>2011-10-13T06:20:38Z</time>
  <speed>2.230000</speed>
</trkpt>
<trkpt lat="32.584823608" lon="35.018787384">
  <ele>141.708252</ele>
  <time>2011-10-13T06:20:40Z</time>
  <speed>1.650000</speed>
</trkpt>
<trkpt lat="32.584800720" lon="35.018768311">
  <ele>142.481689</ele>
  <time>2011-10-13T06:20:41Z</time>
  <speed>2.110000</speed>
</trkpt>
<trkpt lat="32.584770203" lon="35.018741608">
  <ele>142.044189</ele>
  <time>2011-10-13T06:20:43Z</time>
  <speed>2.100000</speed>
</trkpt>
<trkpt lat="32.584735870" lon="35.018722534">
  <ele>142.165283</ele>
  <time>2011-10-13T06:20:45Z</time>
  <speed>1.740000</speed>
</trkpt>
<trkpt lat="32.584701538" lon="35.018699646">
  <ele>142.497314</ele>
  <time>2011-10-13T06:20:47Z</time>
  <speed>2.070000</speed>
</trkpt>
<trkpt lat="32.584671021" lon="35.018672943">
  <ele>141.731689</ele>
  <time>2011-10-13T06:20:49Z</time>
  <speed>1.260000</speed>
</trkpt>
<trkpt lat="32.584648132" lon="35.018665314">
  <ele>142.466064</ele>
  <time>2011-10-13T06:20:53Z</time>
  <speed>1.010000</speed>
</trkpt>
<trkpt lat="32.584613800" lon="35.018657684">
  <ele>142.239502</ele>
  <time>2011-10-13T06:20:56Z</time>
  <speed>0.730000</speed>
</trkpt>
<trkpt lat="32.584587097" lon="35.018646240">
  <ele>144.352783</ele>
  <time>2011-10-13T06:20:59Z</time>
  <speed>0.330000</speed>
</trkpt>
<trkpt lat="32.584560394" lon="35.018630981">
  <ele>144.071533</ele>
  <time>2011-10-13T06:21:22Z</time>
  <speed>0.500000</speed>
</trkpt>
<trkpt lat="32.584537506" lon="35.018615723">
  <ele>144.473877</ele>
  <time>2011-10-13T06:21:25Z</time>
  <speed>0.920000</speed>
</trkpt>
<trkpt lat="32.584510803" lon="35.018604279">
  <ele>145.743408</ele>
  <time>2011-10-13T06:21:26Z</time>
  <speed>0.790000</speed>
</trkpt>
<trkpt lat="32.584503174" lon="35.018573761">
  <ele>147.481689</ele>
  <time>2011-10-13T06:21:29Z</time>
  <speed>0.440000</speed>
</trkpt>
<trkpt lat="32.584499359" lon="35.018547058">
  <ele>149.598877</ele>
  <time>2011-10-13T06:21:33Z</time>
  <speed>0.350000</speed>
</trkpt>
<trkpt lat="32.584480286" lon="35.018516541">
  <ele>150.442627</ele>
  <time>2011-10-13T06:21:37Z</time>
  <speed>0.330000</speed>
</trkpt>
<trkpt lat="32.584461212" lon="35.018478394">
  <ele>151.536377</ele>
  <time>2011-10-13T06:21:43Z</time>
  <speed>0.540000</speed>
</trkpt>
<trkpt lat="32.584445953" lon="35.018444061">
  <ele>152.466064</ele>
  <time>2011-10-13T06:21:46Z</time>
  <speed>0.600000</speed>
</trkpt>
<trkpt lat="32.584434509" lon="35.018413544">
  <ele>153.098877</ele>
  <time>2011-10-13T06:21:52Z</time>
  <speed>0.610000</speed>
</trkpt>
<trkpt lat="32.584426880" lon="35.018383026">
  <ele>153.915283</ele>
  <time>2011-10-13T06:21:58Z</time>
  <speed>0.540000</speed>
</trkpt>
<trkpt lat="32.584415436" lon="35.018348694">
  <ele>154.110596</ele>
  <time>2011-10-13T06:22:02Z</time>
  <speed>0.610000</speed>
</trkpt>
<trkpt lat="32.584407806" lon="35.018318176">
  <ele>154.110596</ele>
  <time>2011-10-13T06:22:06Z</time>
  <speed>0.570000</speed>
</trkpt>
<trkpt lat="32.584400177" lon="35.018283844">
  <ele>154.977783</ele>
  <time>2011-10-13T06:22:09Z</time>
  <speed>0.740000</speed>
</trkpt>
<trkpt lat="32.584392548" lon="35.018245697">
  <ele>155.516846</ele>
  <time>2011-10-13T06:22:12Z</time>
  <speed>0.910000</speed>
</trkpt>
<trkpt lat="32.584377289" lon="35.018211365">
  <ele>155.880127</ele>
  <time>2011-10-13T06:22:14Z</time>
  <speed>0.820000</speed>
</trkpt>
<trkpt lat="32.584365845" lon="35.018180847">
  <ele>156.352783</ele>
  <time>2011-10-13T06:22:17Z</time>
  <speed>0.870000</speed>
</trkpt>
<trkpt lat="32.584362030" lon="35.018142700">
  <ele>157.216064</ele>
  <time>2011-10-13T06:22:22Z</time>
  <speed>0.720000</speed>
</trkpt>
<trkpt lat="32.584346771" lon="35.018115997">
  <ele>158.653564</ele>
  <time>2011-10-13T06:22:29Z</time>
  <speed>0.590000</speed>
</trkpt>
<trkpt lat="32.584320068" lon="35.018100739">
  <ele>159.833252</ele>
  <time>2011-10-13T06:22:35Z</time>
  <speed>0.400000</speed>
</trkpt>
<trkpt lat="32.584304810" lon="35.018062592">
  <ele>160.762939</ele>
  <time>2011-10-13T06:22:41Z</time>
  <speed>0.570000</speed>
</trkpt>
<trkpt lat="32.584281921" lon="35.018043518">
  <ele>162.880127</ele>
  <time>2011-10-13T06:22:45Z</time>
  <speed>0.960000</speed>
</trkpt>
<trkpt lat="32.584270477" lon="35.018009186">
  <ele>163.833252</ele>
  <time>2011-10-13T06:22:49Z</time>
  <speed>0.870000</speed>
</trkpt>
<trkpt lat="32.584259033" lon="35.017978668">
  <ele>164.891846</ele>
  <time>2011-10-13T06:22:52Z</time>
  <speed>0.940000</speed>
</trkpt>
<trkpt lat="32.584255219" lon="35.017948151">
  <ele>165.969971</ele>
  <time>2011-10-13T06:22:55Z</time>
  <speed>0.790000</speed>
</trkpt>
<trkpt lat="32.584255219" lon="35.017913818">
  <ele>167.833252</ele>
  <time>2011-10-13T06:22:59Z</time>
  <speed>0.090000</speed>
</trkpt>
<trkpt lat="32.584262848" lon="35.017879486">
  <ele>167.571533</ele>
  <time>2011-10-13T06:23:06Z</time>
  <speed>0.910000</speed>
</trkpt>
<trkpt lat="32.584259033" lon="35.017837524">
  <ele>167.376221</ele>
  <time>2011-10-13T06:23:10Z</time>
  <speed>0.960000</speed>
</trkpt>
<trkpt lat="32.584270477" lon="35.017807007">
  <ele>167.794189</ele>
  <time>2011-10-13T06:23:13Z</time>
  <speed>0.820000</speed>
</trkpt>
<trkpt lat="32.584281921" lon="35.017768860">
  <ele>168.137939</ele>
  <time>2011-10-13T06:23:16Z</time>
  <speed>1.020000</speed>
</trkpt>
<trkpt lat="32.584281921" lon="35.017730713">
  <ele>168.399658</ele>
  <time>2011-10-13T06:23:19Z</time>
  <speed>1.030000</speed>
</trkpt>
<trkpt lat="32.584274292" lon="35.017696381">
  <ele>168.563721</ele>
  <time>2011-10-13T06:23:22Z</time>
  <speed>0.600000</speed>
</trkpt>
<trkpt lat="32.584270477" lon="35.017650604">
  <ele>169.098877</ele>
  <time>2011-10-13T06:23:25Z</time>
  <speed>0.900000</speed>
</trkpt>
<trkpt lat="32.584262848" lon="35.017612457">
  <ele>169.872314</ele>
  <time>2011-10-13T06:23:28Z</time>
  <speed>0.760000</speed>
</trkpt>
<trkpt lat="32.584262848" lon="35.017581940">
  <ele>169.833252</ele>
  <time>2011-10-13T06:23:31Z</time>
  <speed>0.750000</speed>
</trkpt>
<trkpt lat="32.584274292" lon="35.017543793">
  <ele>170.641846</ele>
  <time>2011-10-13T06:23:35Z</time>
  <speed>0.690000</speed>
</trkpt>
<trkpt lat="32.584281921" lon="35.017509460">
  <ele>170.739502</ele>
  <time>2011-10-13T06:23:40Z</time>
  <speed>0.160000</speed>
</trkpt>
<trkpt lat="32.584270477" lon="35.017475128">
  <ele>171.540283</ele>
  <time>2011-10-13T06:23:48Z</time>
  <speed>1.050000</speed>
</trkpt>
<trkpt lat="32.584270477" lon="35.017433167">
  <ele>172.231689</ele>
  <time>2011-10-13T06:23:51Z</time>
  <speed>1.190000</speed>
</trkpt>
<trkpt lat="32.584274292" lon="35.017395020">
  <ele>172.829346</ele>
  <time>2011-10-13T06:23:54Z</time>
  <speed>0.920000</speed>
</trkpt>
<trkpt lat="32.584281921" lon="35.017356873">
  <ele>173.727783</ele>
  <time>2011-10-13T06:23:56Z</time>
  <speed>1.440000</speed>
</trkpt>
<trkpt lat="32.584278107" lon="35.017314911">
  <ele>174.930908</ele>
  <time>2011-10-13T06:23:58Z</time>
  <speed>1.960000</speed>
</trkpt>
<trkpt lat="32.584278107" lon="35.017276764">
  <ele>175.634033</ele>
  <time>2011-10-13T06:24:00Z</time>
  <speed>1.570000</speed>
</trkpt>
<trkpt lat="32.584285736" lon="35.017230988">
  <ele>175.923096</ele>
  <time>2011-10-13T06:24:02Z</time>
  <speed>1.790000</speed>
</trkpt>
<trkpt lat="32.584281921" lon="35.017181396">
  <ele>176.505127</ele>
  <time>2011-10-13T06:24:04Z</time>
  <speed>1.750000</speed>
</trkpt>
<trkpt lat="32.584281921" lon="35.017131805">
  <ele>177.512939</ele>
  <time>2011-10-13T06:24:06Z</time>
  <speed>1.830000</speed>
</trkpt>
<trkpt lat="32.584281921" lon="35.017082214">
  <ele>177.868408</ele>
  <time>2011-10-13T06:24:08Z</time>
  <speed>2.170000</speed>
</trkpt>
<trkpt lat="32.584289551" lon="35.017032623">
  <ele>179.137939</ele>
  <time>2011-10-13T06:24:10Z</time>
  <speed>2.030000</speed>
</trkpt>
<trkpt lat="32.584281921" lon="35.016979218">
  <ele>179.657471</ele>
  <time>2011-10-13T06:24:12Z</time>
  <speed>2.140000</speed>
</trkpt>
<trkpt lat="32.584285736" lon="35.016948700">
  <ele>180.751221</ele>
  <time>2011-10-13T06:24:13Z</time>
  <speed>2.380000</speed>
</trkpt>
<trkpt lat="32.584281921" lon="35.016902924">
  <ele>181.759033</ele>
  <time>2011-10-13T06:24:15Z</time>
  <speed>1.980000</speed>
</trkpt>
<trkpt lat="32.584278107" lon="35.016853333">
  <ele>182.895752</ele>
  <time>2011-10-13T06:24:17Z</time>
  <speed>2.160000</speed>
</trkpt>
<trkpt lat="32.584285736" lon="35.016803741">
  <ele>183.677002</ele>
  <time>2011-10-13T06:24:19Z</time>
  <speed>2.310000</speed>
</trkpt>
<trkpt lat="32.584293365" lon="35.016750336">
  <ele>184.887939</ele>
  <time>2011-10-13T06:24:21Z</time>
  <speed>2.530000</speed>
</trkpt>
<trkpt lat="32.584297180" lon="35.016700745">
  <ele>185.790283</ele>
  <time>2011-10-13T06:24:23Z</time>
  <speed>2.290000</speed>
</trkpt>
<trkpt lat="32.584297180" lon="35.016654968">
  <ele>185.829346</ele>
  <time>2011-10-13T06:24:25Z</time>
  <speed>2.210000</speed>
</trkpt>
<trkpt lat="32.584304810" lon="35.016605377">
  <ele>186.751221</ele>
  <time>2011-10-13T06:24:27Z</time>
  <speed>2.450000</speed>
</trkpt>
<trkpt lat="32.584304810" lon="35.016551971">
  <ele>188.200439</ele>
  <time>2011-10-13T06:24:29Z</time>
  <speed>2.690000</speed>
</trkpt>
<trkpt lat="32.584312439" lon="35.016498566">
  <ele>188.110596</ele>
  <time>2011-10-13T06:24:31Z</time>
  <speed>2.650000</speed>
</trkpt>
<trkpt lat="32.584323883" lon="35.016445160">
  <ele>188.141846</ele>
  <time>2011-10-13T06:24:33Z</time>
  <speed>2.400000</speed>
</trkpt>
<trkpt lat="32.584331512" lon="35.016395569">
  <ele>188.516846</ele>
  <time>2011-10-13T06:24:35Z</time>
  <speed>2.140000</speed>
</trkpt>
<trkpt lat="32.584331512" lon="35.016349792">
  <ele>187.946533</ele>
  <time>2011-10-13T06:24:37Z</time>
  <speed>2.390000</speed>
</trkpt>
<trkpt lat="32.584339142" lon="35.016300201">
  <ele>188.532471</ele>
  <time>2011-10-13T06:24:39Z</time>
  <speed>2.490000</speed>
</trkpt>
<trkpt lat="32.584350586" lon="35.016254425">
  <ele>188.094971</ele>
  <time>2011-10-13T06:24:41Z</time>
  <speed>2.320000</speed>
</trkpt>
<trkpt lat="32.584354401" lon="35.016204834">
  <ele>187.262939</ele>
  <time>2011-10-13T06:24:43Z</time>
  <speed>2.170000</speed>
</trkpt>
<trkpt lat="32.584365845" lon="35.016162872">
  <ele>186.563721</ele>
  <time>2011-10-13T06:24:45Z</time>
  <speed>2.100000</speed>
</trkpt>
<trkpt lat="32.584373474" lon="35.016120911">
  <ele>186.559814</ele>
  <time>2011-10-13T06:24:47Z</time>
  <speed>2.160000</speed>
</trkpt>
<trkpt lat="32.584381104" lon="35.016071320">
  <ele>185.778564</ele>
  <time>2011-10-13T06:24:49Z</time>
  <speed>2.510000</speed>
</trkpt>
<trkpt lat="32.584388733" lon="35.016025543">
  <ele>186.184814</ele>
  <time>2011-10-13T06:24:51Z</time>
  <speed>2.530000</speed>
</trkpt>
<trkpt lat="32.584384918" lon="35.015991211">
  <ele>186.087158</ele>
  <time>2011-10-13T06:24:52Z</time>
  <speed>2.420000</speed>
</trkpt>
<trkpt lat="32.584384918" lon="35.015930176">
  <ele>184.376221</ele>
  <time>2011-10-13T06:24:54Z</time>
  <speed>3.060000</speed>
</trkpt>
<trkpt lat="32.584388733" lon="35.015895844">
  <ele>184.274658</ele>
  <time>2011-10-13T06:24:55Z</time>
  <speed>2.890000</speed>
</trkpt>
<trkpt lat="32.584392548" lon="35.015865326">
  <ele>184.153564</ele>
  <time>2011-10-13T06:24:56Z</time>
  <speed>2.740000</speed>
</trkpt>
<trkpt lat="32.584403992" lon="35.015808105">
  <ele>184.618408</ele>
  <time>2011-10-13T06:24:58Z</time>
  <speed>2.570000</speed>
</trkpt>
<trkpt lat="32.584407806" lon="35.015754700">
  <ele>184.028564</ele>
  <time>2011-10-13T06:25:00Z</time>
  <speed>2.540000</speed>
</trkpt>
<trkpt lat="32.584415436" lon="35.015708923">
  <ele>184.091064</ele>
  <time>2011-10-13T06:25:02Z</time>
  <speed>2.170000</speed>
</trkpt>
<trkpt lat="32.584415436" lon="35.015651703">
  <ele>185.262939</ele>
  <time>2011-10-13T06:25:04Z</time>
  <speed>2.390000</speed>
</trkpt>
<trkpt lat="32.584415436" lon="35.015609741">
  <ele>185.141846</ele>
  <time>2011-10-13T06:25:06Z</time>
  <speed>2.690000</speed>
</trkpt>
<trkpt lat="32.584423065" lon="35.015575409">
  <ele>185.930908</ele>
  <time>2011-10-13T06:25:07Z</time>
  <speed>3.070000</speed>
</trkpt>
<trkpt lat="32.584430695" lon="35.015506744">
  <ele>185.540283</ele>
  <time>2011-10-13T06:25:09Z</time>
  <speed>3.370000</speed>
</trkpt>
<trkpt lat="32.584434509" lon="35.015472412">
  <ele>186.161377</ele>
  <time>2011-10-13T06:25:10Z</time>
  <speed>3.190000</speed>
</trkpt>
<trkpt lat="32.584438324" lon="35.015438080">
  <ele>185.973877</ele>
  <time>2011-10-13T06:25:11Z</time>
  <speed>3.260000</speed>
</trkpt>
<trkpt lat="32.584442139" lon="35.015403748">
  <ele>184.985596</ele>
  <time>2011-10-13T06:25:12Z</time>
  <speed>3.490000</speed>
</trkpt>
<trkpt lat="32.584445953" lon="35.015361786">
  <ele>185.321533</ele>
  <time>2011-10-13T06:25:13Z</time>
  <speed>3.330000</speed>
</trkpt>
<trkpt lat="32.584453583" lon="35.015327454">
  <ele>185.048096</ele>
  <time>2011-10-13T06:25:14Z</time>
  <speed>3.040000</speed>
</trkpt>
<trkpt lat="32.584449768" lon="35.015293121">
  <ele>185.387939</ele>
  <time>2011-10-13T06:25:15Z</time>
  <speed>3.260000</speed>
</trkpt>
<trkpt lat="32.584445953" lon="35.015258789">
  <ele>184.438721</ele>
  <time>2011-10-13T06:25:16Z</time>
  <speed>3.270000</speed>
</trkpt>
<trkpt lat="32.584453583" lon="35.015224457">
  <ele>183.544189</ele>
  <time>2011-10-13T06:25:17Z</time>
  <speed>3.020000</speed>
</trkpt>
<trkpt lat="32.584457397" lon="35.015190125">
  <ele>182.958252</ele>
  <time>2011-10-13T06:25:18Z</time>
  <speed>2.850000</speed>
</trkpt>
<trkpt lat="32.584461212" lon="35.015155792">
  <ele>182.802002</ele>
  <time>2011-10-13T06:25:19Z</time>
  <speed>2.680000</speed>
</trkpt>
<trkpt lat="32.584468842" lon="35.015102386">
  <ele>182.653564</ele>
  <time>2011-10-13T06:25:21Z</time>
  <speed>2.730000</speed>
</trkpt>
<trkpt lat="32.584472656" lon="35.015071869">
  <ele>182.829346</ele>
  <time>2011-10-13T06:25:22Z</time>
  <speed>2.740000</speed>
</trkpt>
<trkpt lat="32.584476471" lon="35.015018463">
  <ele>183.747314</ele>
  <time>2011-10-13T06:25:24Z</time>
  <speed>2.280000</speed>
</trkpt>
<trkpt lat="32.584476471" lon="35.014949799">
  <ele>186.262939</ele>
  <time>2011-10-13T06:25:26Z</time>
  <speed>2.580000</speed>
</trkpt>
<trkpt lat="32.584487915" lon="35.014888763">
  <ele>188.016846</ele>
  <time>2011-10-13T06:25:28Z</time>
  <speed>3.080000</speed>
</trkpt>
<trkpt lat="32.584487915" lon="35.014846802">
  <ele>188.188721</ele>
  <time>2011-10-13T06:25:29Z</time>
  <speed>3.680000</speed>
</trkpt>
<trkpt lat="32.584484100" lon="35.014808655">
  <ele>188.352783</ele>
  <time>2011-10-13T06:25:30Z</time>
  <speed>3.220000</speed>
</trkpt>
<trkpt lat="32.584487915" lon="35.014743805">
  <ele>188.493408</ele>
  <time>2011-10-13T06:25:32Z</time>
  <speed>2.810000</speed>
</trkpt>
<trkpt lat="32.584484100" lon="35.014709473">
  <ele>189.161377</ele>
  <time>2011-10-13T06:25:33Z</time>
  <speed>2.820000</speed>
</trkpt>
<trkpt lat="32.584484100" lon="35.014675140">
  <ele>188.821533</ele>
  <time>2011-10-13T06:25:34Z</time>
  <speed>2.920000</speed>
</trkpt>
<trkpt lat="32.584484100" lon="35.014640808">
  <ele>189.407471</ele>
  <time>2011-10-13T06:25:35Z</time>
  <speed>3.120000</speed>
</trkpt>
<trkpt lat="32.584484100" lon="35.014606476">
  <ele>189.177002</ele>
  <time>2011-10-13T06:25:36Z</time>
  <speed>3.520000</speed>
</trkpt>
<trkpt lat="32.584487915" lon="35.014568329">
  <ele>189.169189</ele>
  <time>2011-10-13T06:25:37Z</time>
  <speed>3.590000</speed>
</trkpt>
<trkpt lat="32.584491730" lon="35.014537811">
  <ele>188.114502</ele>
  <time>2011-10-13T06:25:38Z</time>
  <speed>3.310000</speed>
</trkpt>
<trkpt lat="32.584495544" lon="35.014503479">
  <ele>187.294189</ele>
  <time>2011-10-13T06:25:39Z</time>
  <speed>3.270000</speed>
</trkpt>
<trkpt lat="32.584491730" lon="35.014469147">
  <ele>186.442627</ele>
  <time>2011-10-13T06:25:40Z</time>
  <speed>3.070000</speed>
</trkpt>
<trkpt lat="32.584491730" lon="35.014431000">
  <ele>186.212158</ele>
  <time>2011-10-13T06:25:41Z</time>
  <speed>3.210000</speed>
</trkpt>
<trkpt lat="32.584495544" lon="35.014392853">
  <ele>185.805908</ele>
  <time>2011-10-13T06:25:42Z</time>
  <speed>3.330000</speed>
</trkpt>
<trkpt lat="32.584499359" lon="35.014331818">
  <ele>185.266846</ele>
  <time>2011-10-13T06:25:44Z</time>
  <speed>3.210000</speed>
</trkpt>
<trkpt lat="32.584506989" lon="35.014289856">
  <ele>185.837158</ele>
  <time>2011-10-13T06:25:45Z</time>
  <speed>3.590000</speed>
</trkpt>
<trkpt lat="32.584510803" lon="35.014251709">
  <ele>185.813721</ele>
  <time>2011-10-13T06:25:46Z</time>
  <speed>3.380000</speed>
</trkpt>
<trkpt lat="32.584514618" lon="35.014213562">
  <ele>185.602783</ele>
  <time>2011-10-13T06:25:47Z</time>
  <speed>3.320000</speed>
</trkpt>
<trkpt lat="32.584514618" lon="35.014179230">
  <ele>184.934814</ele>
  <time>2011-10-13T06:25:48Z</time>
  <speed>3.390000</speed>
</trkpt>
<trkpt lat="32.584514618" lon="35.014141083">
  <ele>185.493408</ele>
  <time>2011-10-13T06:25:49Z</time>
  <speed>3.460000</speed>
</trkpt>
<trkpt lat="32.584514618" lon="35.014106750">
  <ele>185.255127</ele>
  <time>2011-10-13T06:25:50Z</time>
  <speed>3.040000</speed>
</trkpt>
<trkpt lat="32.584514618" lon="35.014072418">
  <ele>184.567627</ele>
  <time>2011-10-13T06:25:51Z</time>
  <speed>2.990000</speed>
</trkpt>
<trkpt lat="32.584510803" lon="35.014041901">
  <ele>183.333252</ele>
  <time>2011-10-13T06:25:52Z</time>
  <speed>3.310000</speed>
</trkpt>
<trkpt lat="32.584499359" lon="35.013999939">
  <ele>184.012939</ele>
  <time>2011-10-13T06:25:53Z</time>
  <speed>3.460000</speed>
</trkpt>
<trkpt lat="32.584495544" lon="35.013961792">
  <ele>184.305908</ele>
  <time>2011-10-13T06:25:54Z</time>
  <speed>3.240000</speed>
</trkpt>
<trkpt lat="32.584484100" lon="35.013900757">
  <ele>183.012939</ele>
  <time>2011-10-13T06:25:56Z</time>
  <speed>3.210000</speed>
</trkpt>
<trkpt lat="32.584476471" lon="35.013866425">
  <ele>182.716064</ele>
  <time>2011-10-13T06:25:57Z</time>
  <speed>3.250000</speed>
</trkpt>
<trkpt lat="32.584468842" lon="35.013835907">
  <ele>182.614502</ele>
  <time>2011-10-13T06:25:58Z</time>
  <speed>3.140000</speed>
</trkpt>
<trkpt lat="32.584461212" lon="35.013801575">
  <ele>182.700439</ele>
  <time>2011-10-13T06:25:59Z</time>
  <speed>3.220000</speed>
</trkpt>
<trkpt lat="32.584457397" lon="35.013767242">
  <ele>182.294189</ele>
  <time>2011-10-13T06:26:00Z</time>
  <speed>2.960000</speed>
</trkpt>
<trkpt lat="32.584445953" lon="35.013736725">
  <ele>182.364502</ele>
  <time>2011-10-13T06:26:01Z</time>
  <speed>3.160000</speed>
</trkpt>
<trkpt lat="32.584434509" lon="35.013702393">
  <ele>181.915283</ele>
  <time>2011-10-13T06:26:02Z</time>
  <speed>3.280000</speed>
</trkpt>
<trkpt lat="32.584430695" lon="35.013668060">
  <ele>181.704346</ele>
  <time>2011-10-13T06:26:03Z</time>
  <speed>3.470000</speed>
</trkpt>
<trkpt lat="32.584430695" lon="35.013629913">
  <ele>181.641846</ele>
  <time>2011-10-13T06:26:04Z</time>
  <speed>3.590000</speed>
</trkpt>
<trkpt lat="32.584423065" lon="35.013587952">
  <ele>182.442627</ele>
  <time>2011-10-13T06:26:05Z</time>
  <speed>3.720000</speed>
</trkpt>
<trkpt lat="32.584403992" lon="35.013549805">
  <ele>183.450439</ele>
  <time>2011-10-13T06:26:06Z</time>
  <speed>3.260000</speed>
</trkpt>
<trkpt lat="32.584392548" lon="35.013519287">
  <ele>183.958252</ele>
  <time>2011-10-13T06:26:07Z</time>
  <speed>3.620000</speed>
</trkpt>
<trkpt lat="32.584381104" lon="35.013477325">
  <ele>184.141846</ele>
  <time>2011-10-13T06:26:08Z</time>
  <speed>3.720000</speed>
</trkpt>
<trkpt lat="32.584392548" lon="35.013423920">
  <ele>183.505127</ele>
  <time>2011-10-13T06:26:10Z</time>
  <speed>2.250000</speed>
</trkpt>
<trkpt lat="32.584407806" lon="35.013385773">
  <ele>183.594971</ele>
  <time>2011-10-13T06:26:12Z</time>
  <speed>1.070000</speed>
</trkpt>
<trkpt lat="32.584415436" lon="35.013351440">
  <ele>184.337158</ele>
  <time>2011-10-13T06:26:15Z</time>
  <speed>1.130000</speed>
</trkpt>
<trkpt lat="32.584426880" lon="35.013309479">
  <ele>184.927002</ele>
  <time>2011-10-13T06:26:19Z</time>
  <speed>0.920000</speed>
</trkpt>
<trkpt lat="32.584434509" lon="35.013271332">
  <ele>184.911377</ele>
  <time>2011-10-13T06:26:22Z</time>
  <speed>1.820000</speed>
</trkpt>
<trkpt lat="32.584461212" lon="35.013225555">
  <ele>185.497314</ele>
  <time>2011-10-13T06:26:24Z</time>
  <speed>1.930000</speed>
</trkpt>
<trkpt lat="32.584480286" lon="35.013183594">
  <ele>185.469971</ele>
  <time>2011-10-13T06:26:26Z</time>
  <speed>2.280000</speed>
</trkpt>
<trkpt lat="32.584495544" lon="35.013145447">
  <ele>184.262939</ele>
  <time>2011-10-13T06:26:28Z</time>
  <speed>1.620000</speed>
</trkpt>
<trkpt lat="32.584514618" lon="35.013118744">
  <ele>183.692627</ele>
  <time>2011-10-13T06:26:30Z</time>
  <speed>1.800000</speed>
</trkpt>
<trkpt lat="32.584529877" lon="35.013088226">
  <ele>182.657471</ele>
  <time>2011-10-13T06:26:32Z</time>
  <speed>1.360000</speed>
</trkpt>
<trkpt lat="32.584529877" lon="35.013038635">
  <ele>182.387939</ele>
  <time>2011-10-13T06:28:58Z</time>
  <speed>2.610000</speed>
</trkpt>
<trkpt lat="32.584545135" lon="35.013004303">
  <ele>182.817627</ele>
  <time>2011-10-13T06:28:59Z</time>
  <speed>2.750000</speed>
</trkpt>
<trkpt lat="32.584560394" lon="35.012966156">
  <ele>183.071533</ele>
  <time>2011-10-13T06:29:00Z</time>
  <speed>3.050000</speed>
</trkpt>
<trkpt lat="32.584568024" lon="35.012931824">
  <ele>182.634033</ele>
  <time>2011-10-13T06:29:01Z</time>
  <speed>2.780000</speed>
</trkpt>
<trkpt lat="32.584575653" lon="35.012889862">
  <ele>182.384033</ele>
  <time>2011-10-13T06:29:02Z</time>
  <speed>4.000000</speed>
</trkpt>
<trkpt lat="32.584590912" lon="35.012847900">
  <ele>182.075439</ele>
  <time>2011-10-13T06:29:03Z</time>
  <speed>4.180000</speed>
</trkpt>
<trkpt lat="32.584602356" lon="35.012805939">
  <ele>182.040283</ele>
  <time>2011-10-13T06:29:04Z</time>
  <speed>3.910000</speed>
</trkpt>
<trkpt lat="32.584617615" lon="35.012760162">
  <ele>181.762939</ele>
  <time>2011-10-13T06:29:05Z</time>
  <speed>4.440000</speed>
</trkpt>
<trkpt lat="32.584629059" lon="35.012714386">
  <ele>181.473877</ele>
  <time>2011-10-13T06:29:06Z</time>
  <speed>3.960000</speed>
</trkpt>
<trkpt lat="32.584644318" lon="35.012664795">
  <ele>181.430908</ele>
  <time>2011-10-13T06:29:07Z</time>
  <speed>4.410000</speed>
</trkpt>
<trkpt lat="32.584667206" lon="35.012622833">
  <ele>180.618408</ele>
  <time>2011-10-13T06:29:08Z</time>
  <speed>4.040000</speed>
</trkpt>
<trkpt lat="32.584686279" lon="35.012584686">
  <ele>180.766846</ele>
  <time>2011-10-13T06:29:09Z</time>
  <speed>4.350000</speed>
</trkpt>
<trkpt lat="32.584712982" lon="35.012546539">
  <ele>180.020752</ele>
  <time>2011-10-13T06:29:10Z</time>
  <speed>4.030000</speed>
</trkpt>
<trkpt lat="32.584747314" lon="35.012516022">
  <ele>179.618408</ele>
  <time>2011-10-13T06:29:11Z</time>
  <speed>4.750000</speed>
</trkpt>
<trkpt lat="32.584781647" lon="35.012481689">
  <ele>179.341064</ele>
  <time>2011-10-13T06:29:12Z</time>
  <speed>4.590000</speed>
</trkpt>
<trkpt lat="32.584819794" lon="35.012454987">
  <ele>178.587158</ele>
  <time>2011-10-13T06:29:13Z</time>
  <speed>4.740000</speed>
</trkpt>
<trkpt lat="32.584865570" lon="35.012424469">
  <ele>179.091064</ele>
  <time>2011-10-13T06:29:14Z</time>
  <speed>4.960000</speed>
</trkpt>
<trkpt lat="32.584911346" lon="35.012405396">
  <ele>178.352783</ele>
  <time>2011-10-13T06:29:15Z</time>
  <speed>5.190000</speed>
</trkpt>
<trkpt lat="32.584960938" lon="35.012386322">
  <ele>178.173096</ele>
  <time>2011-10-13T06:29:16Z</time>
  <speed>5.070000</speed>
</trkpt>
<trkpt lat="32.585002899" lon="35.012359619">
  <ele>177.927002</ele>
  <time>2011-10-13T06:29:17Z</time>
  <speed>5.240000</speed>
</trkpt>
<trkpt lat="32.585048676" lon="35.012336731">
  <ele>178.352783</ele>
  <time>2011-10-13T06:29:18Z</time>
  <speed>5.070000</speed>
</trkpt>
<trkpt lat="32.585086823" lon="35.012313843">
  <ele>178.298096</ele>
  <time>2011-10-13T06:29:19Z</time>
  <speed>4.040000</speed>
</trkpt>
<trkpt lat="32.585121155" lon="35.012298584">
  <ele>178.153564</ele>
  <time>2011-10-13T06:29:20Z</time>
  <speed>3.830000</speed>
</trkpt>
<trkpt lat="32.585159302" lon="35.012268066">
  <ele>177.774658</ele>
  <time>2011-10-13T06:29:21Z</time>
  <speed>4.740000</speed>
</trkpt>
<trkpt lat="32.585189819" lon="35.012226105">
  <ele>177.903564</ele>
  <time>2011-10-13T06:29:22Z</time>
  <speed>4.440000</speed>
</trkpt>
<trkpt lat="32.585220337" lon="35.012184143">
  <ele>177.489502</ele>
  <time>2011-10-13T06:29:23Z</time>
  <speed>4.350000</speed>
</trkpt>
<trkpt lat="32.585243225" lon="35.012142181">
  <ele>177.622314</ele>
  <time>2011-10-13T06:29:24Z</time>
  <speed>3.910000</speed>
</trkpt>
<trkpt lat="32.585266113" lon="35.012084961">
  <ele>178.255127</ele>
  <time>2011-10-13T06:29:25Z</time>
  <speed>4.350000</speed>
</trkpt>
<trkpt lat="32.585281372" lon="35.012031555">
  <ele>178.192627</ele>
  <time>2011-10-13T06:29:26Z</time>
  <speed>4.360000</speed>
</trkpt>
<trkpt lat="32.585296631" lon="35.011985779">
  <ele>178.481689</ele>
  <time>2011-10-13T06:29:27Z</time>
  <speed>4.490000</speed>
</trkpt>
<trkpt lat="32.585311890" lon="35.011940002">
  <ele>178.419189</ele>
  <time>2011-10-13T06:29:28Z</time>
  <speed>4.370000</speed>
</trkpt>
<trkpt lat="32.585334778" lon="35.011898041">
  <ele>178.196533</ele>
  <time>2011-10-13T06:29:29Z</time>
  <speed>4.380000</speed>
</trkpt>
<trkpt lat="32.585357666" lon="35.011856079">
  <ele>177.884033</ele>
  <time>2011-10-13T06:29:30Z</time>
  <speed>4.470000</speed>
</trkpt>
<trkpt lat="32.585376740" lon="35.011814117">
  <ele>177.907471</ele>
  <time>2011-10-13T06:29:31Z</time>
  <speed>4.170000</speed>
</trkpt>
<trkpt lat="32.585403442" lon="35.011772156">
  <ele>178.087158</ele>
  <time>2011-10-13T06:29:32Z</time>
  <speed>4.330000</speed>
</trkpt>
<trkpt lat="32.585426331" lon="35.011726379">
  <ele>176.821533</ele>
  <time>2011-10-13T06:29:33Z</time>
  <speed>4.070000</speed>
</trkpt>
<trkpt lat="32.585441589" lon="35.011684418">
  <ele>176.481689</ele>
  <time>2011-10-13T06:29:34Z</time>
  <speed>3.830000</speed>
</trkpt>
<trkpt lat="32.585449219" lon="35.011638641">
  <ele>176.282471</ele>
  <time>2011-10-13T06:29:35Z</time>
  <speed>3.950000</speed>
</trkpt>
<trkpt lat="32.585464478" lon="35.011589050">
  <ele>175.630127</ele>
  <time>2011-10-13T06:29:36Z</time>
  <speed>3.910000</speed>
</trkpt>
<trkpt lat="32.585472107" lon="35.011547089">
  <ele>175.110596</ele>
  <time>2011-10-13T06:29:37Z</time>
  <speed>3.910000</speed>
</trkpt>
<trkpt lat="32.585487366" lon="35.011512756">
  <ele>175.079346</ele>
  <time>2011-10-13T06:29:38Z</time>
  <speed>3.540000</speed>
</trkpt>
<trkpt lat="32.585506439" lon="35.011470795">
  <ele>176.403564</ele>
  <time>2011-10-13T06:29:39Z</time>
  <speed>3.940000</speed>
</trkpt>
<trkpt lat="32.585540771" lon="35.011432648">
  <ele>176.899658</ele>
  <time>2011-10-13T06:29:40Z</time>
  <speed>3.840000</speed>
</trkpt>
<trkpt lat="32.585567474" lon="35.011405945">
  <ele>177.044189</ele>
  <time>2011-10-13T06:29:41Z</time>
  <speed>3.710000</speed>
</trkpt>
<trkpt lat="32.585590363" lon="35.011379242">
  <ele>177.571533</ele>
  <time>2011-10-13T06:29:42Z</time>
  <speed>3.360000</speed>
</trkpt>
<trkpt lat="32.585601807" lon="35.011344910">
  <ele>177.852783</ele>
  <time>2011-10-13T06:29:43Z</time>
  <speed>3.170000</speed>
</trkpt>
<trkpt lat="32.585601807" lon="35.011306763">
  <ele>177.841064</ele>
  <time>2011-10-13T06:29:44Z</time>
  <speed>3.160000</speed>
</trkpt>
<trkpt lat="32.585597992" lon="35.011260986">
  <ele>178.094971</ele>
  <time>2011-10-13T06:29:45Z</time>
  <speed>3.730000</speed>
</trkpt>
<trkpt lat="32.585586548" lon="35.011211395">
  <ele>179.305908</ele>
  <time>2011-10-13T06:29:46Z</time>
  <speed>3.720000</speed>
</trkpt>
<trkpt lat="32.585590363" lon="35.011169434">
  <ele>180.427002</ele>
  <time>2011-10-13T06:29:47Z</time>
  <speed>3.420000</speed>
</trkpt>
<trkpt lat="32.585586548" lon="35.011135101">
  <ele>180.516846</ele>
  <time>2011-10-13T06:29:48Z</time>
  <speed>2.990000</speed>
</trkpt>
<trkpt lat="32.585582733" lon="35.011077881">
  <ele>181.063721</ele>
  <time>2011-10-13T06:29:50Z</time>
  <speed>2.630000</speed>
</trkpt>
<trkpt lat="32.585567474" lon="35.011047363">
  <ele>181.688721</ele>
  <time>2011-10-13T06:29:51Z</time>
  <speed>3.030000</speed>
</trkpt>
<trkpt lat="32.585552216" lon="35.011013031">
  <ele>182.805908</ele>
  <time>2011-10-13T06:29:52Z</time>
  <speed>3.780000</speed>
</trkpt>
<trkpt lat="32.585544586" lon="35.010982513">
  <ele>183.055908</ele>
  <time>2011-10-13T06:29:53Z</time>
  <speed>3.030000</speed>
</trkpt>
<trkpt lat="32.585536957" lon="35.010948181">
  <ele>182.727783</ele>
  <time>2011-10-13T06:29:54Z</time>
  <speed>3.370000</speed>
</trkpt>
<trkpt lat="32.585529327" lon="35.010894775">
  <ele>183.540283</ele>
  <time>2011-10-13T06:29:55Z</time>
  <speed>3.750000</speed>
</trkpt>
<trkpt lat="32.585540771" lon="35.010856628">
  <ele>183.509033</ele>
  <time>2011-10-13T06:29:56Z</time>
  <speed>3.140000</speed>
</trkpt>
<trkpt lat="32.585544586" lon="35.010818481">
  <ele>183.473877</ele>
  <time>2011-10-13T06:29:57Z</time>
  <speed>3.070000</speed>
</trkpt>
<trkpt lat="32.585548401" lon="35.010784149">
  <ele>183.512939</ele>
  <time>2011-10-13T06:29:58Z</time>
  <speed>2.900000</speed>
</trkpt>
<trkpt lat="32.585552216" lon="35.010753632">
  <ele>183.692627</ele>
  <time>2011-10-13T06:29:59Z</time>
  <speed>2.800000</speed>
</trkpt>
<trkpt lat="32.585548401" lon="35.010711670">
  <ele>184.919189</ele>
  <time>2011-10-13T06:30:00Z</time>
  <speed>2.770000</speed>
</trkpt>
<trkpt lat="32.585548401" lon="35.010677338">
  <ele>185.145752</ele>
  <time>2011-10-13T06:30:01Z</time>
  <speed>2.510000</speed>
</trkpt>
<trkpt lat="32.585540771" lon="35.010627747">
  <ele>184.833252</ele>
  <time>2011-10-13T06:30:03Z</time>
  <speed>2.450000</speed>
</trkpt>
<trkpt lat="32.585533142" lon="35.010574341">
  <ele>184.848877</ele>
  <time>2011-10-13T06:30:05Z</time>
  <speed>2.930000</speed>
</trkpt>
<trkpt lat="32.585521698" lon="35.010540009">
  <ele>185.137939</ele>
  <time>2011-10-13T06:30:06Z</time>
  <speed>2.940000</speed>
</trkpt>
<trkpt lat="32.585514069" lon="35.010509491">
  <ele>184.852783</ele>
  <time>2011-10-13T06:30:07Z</time>
  <speed>2.970000</speed>
</trkpt>
<trkpt lat="32.585510254" lon="35.010471344">
  <ele>184.907471</ele>
  <time>2011-10-13T06:30:08Z</time>
  <speed>2.950000</speed>
</trkpt>
<trkpt lat="32.585514069" lon="35.010414124">
  <ele>186.134033</ele>
  <time>2011-10-13T06:30:10Z</time>
  <speed>2.430000</speed>
</trkpt>
<trkpt lat="32.585502625" lon="35.010356903">
  <ele>187.036377</ele>
  <time>2011-10-13T06:30:12Z</time>
  <speed>2.980000</speed>
</trkpt>
<trkpt lat="32.585494995" lon="35.010326385">
  <ele>186.891846</ele>
  <time>2011-10-13T06:30:13Z</time>
  <speed>2.510000</speed>
</trkpt>
<trkpt lat="32.585483551" lon="35.010272980">
  <ele>186.938721</ele>
  <time>2011-10-13T06:30:15Z</time>
  <speed>2.660000</speed>
</trkpt>
<trkpt lat="32.585464478" lon="35.010227203">
  <ele>187.829346</ele>
  <time>2011-10-13T06:30:17Z</time>
  <speed>2.620000</speed>
</trkpt>
<trkpt lat="32.585456848" lon="35.010177612">
  <ele>189.509033</ele>
  <time>2011-10-13T06:30:19Z</time>
  <speed>2.240000</speed>
</trkpt>
<trkpt lat="32.585453033" lon="35.010135651">
  <ele>188.794189</ele>
  <time>2011-10-13T06:30:21Z</time>
  <speed>2.440000</speed>
</trkpt>
<trkpt lat="32.585441589" lon="35.010086060">
  <ele>188.110596</ele>
  <time>2011-10-13T06:30:23Z</time>
  <speed>2.290000</speed>
</trkpt>
<trkpt lat="32.585437775" lon="35.010051727">
  <ele>187.950439</ele>
  <time>2011-10-13T06:30:25Z</time>
  <speed>1.540000</speed>
</trkpt>
<trkpt lat="32.585441589" lon="35.010017395">
  <ele>186.762939</ele>
  <time>2011-10-13T06:30:27Z</time>
  <speed>1.860000</speed>
</trkpt>
<trkpt lat="32.585456848" lon="35.009971619">
  <ele>186.442627</ele>
  <time>2011-10-13T06:30:29Z</time>
  <speed>2.430000</speed>
</trkpt>
<trkpt lat="32.585460663" lon="35.009914398">
  <ele>187.622314</ele>
  <time>2011-10-13T06:30:31Z</time>
  <speed>2.090000</speed>
</trkpt>
<trkpt lat="32.585460663" lon="35.009864807">
  <ele>187.583252</ele>
  <time>2011-10-13T06:30:33Z</time>
  <speed>2.540000</speed>
</trkpt>
<trkpt lat="32.585456848" lon="35.009799957">
  <ele>188.071533</ele>
  <time>2011-10-13T06:30:35Z</time>
  <speed>2.640000</speed>
</trkpt>
<trkpt lat="32.585449219" lon="35.009765625">
  <ele>188.809814</ele>
  <time>2011-10-13T06:30:36Z</time>
  <speed>2.670000</speed>
</trkpt>
<trkpt lat="32.585453033" lon="35.009731293">
  <ele>189.302002</ele>
  <time>2011-10-13T06:30:37Z</time>
  <speed>2.660000</speed>
</trkpt>
<trkpt lat="32.585449219" lon="35.009677887">
  <ele>189.583252</ele>
  <time>2011-10-13T06:30:39Z</time>
  <speed>2.770000</speed>
</trkpt>
<trkpt lat="32.585437775" lon="35.009616852">
  <ele>190.161377</ele>
  <time>2011-10-13T06:30:41Z</time>
  <speed>3.140000</speed>
</trkpt>
<trkpt lat="32.585437775" lon="35.009582520">
  <ele>190.677002</ele>
  <time>2011-10-13T06:30:42Z</time>
  <speed>2.840000</speed>
</trkpt>
<trkpt lat="32.585433960" lon="35.009525299">
  <ele>190.977783</ele>
  <time>2011-10-13T06:30:44Z</time>
  <speed>2.860000</speed>
</trkpt>
<trkpt lat="32.585426331" lon="35.009490967">
  <ele>190.712158</ele>
  <time>2011-10-13T06:30:45Z</time>
  <speed>3.260000</speed>
</trkpt>
<trkpt lat="32.585426331" lon="35.009456635">
  <ele>190.618408</ele>
  <time>2011-10-13T06:30:46Z</time>
  <speed>3.330000</speed>
</trkpt>
<trkpt lat="32.585422516" lon="35.009422302">
  <ele>190.360596</ele>
  <time>2011-10-13T06:30:47Z</time>
  <speed>3.180000</speed>
</trkpt>
<trkpt lat="32.585414886" lon="35.009387970">
  <ele>190.395752</ele>
  <time>2011-10-13T06:30:48Z</time>
  <speed>3.500000</speed>
</trkpt>
<trkpt lat="32.585411072" lon="35.009346008">
  <ele>190.696533</ele>
  <time>2011-10-13T06:30:49Z</time>
  <speed>3.460000</speed>
</trkpt>
<trkpt lat="32.585399628" lon="35.009307861">
  <ele>190.981689</ele>
  <time>2011-10-13T06:30:50Z</time>
  <speed>3.610000</speed>
</trkpt>
<trkpt lat="32.585395813" lon="35.009265900">
  <ele>190.852783</ele>
  <time>2011-10-13T06:30:51Z</time>
  <speed>3.560000</speed>
</trkpt>
<trkpt lat="32.585422516" lon="35.009227753">
  <ele>188.876221</ele>
  <time>2011-10-13T06:30:53Z</time>
  <speed>3.220000</speed>
</trkpt>
<trkpt lat="32.585449219" lon="35.009201050">
  <ele>188.747314</ele>
  <time>2011-10-13T06:30:54Z</time>
  <speed>4.020000</speed>
</trkpt>
<trkpt lat="32.585475922" lon="35.009174347">
  <ele>188.415283</ele>
  <time>2011-10-13T06:30:55Z</time>
  <speed>3.540000</speed>
</trkpt>
<trkpt lat="32.585487366" lon="35.009132385">
  <ele>188.548096</ele>
  <time>2011-10-13T06:30:56Z</time>
  <speed>3.550000</speed>
</trkpt>
<trkpt lat="32.585487366" lon="35.009098053">
  <ele>188.286377</ele>
  <time>2011-10-13T06:30:57Z</time>
  <speed>3.750000</speed>
</trkpt>
<trkpt lat="32.585487366" lon="35.009056091">
  <ele>187.751221</ele>
  <time>2011-10-13T06:30:58Z</time>
  <speed>4.330000</speed>
</trkpt>
<trkpt lat="32.585483551" lon="35.009014130">
  <ele>187.290283</ele>
  <time>2011-10-13T06:30:59Z</time>
  <speed>4.060000</speed>
</trkpt>
<trkpt lat="32.585498810" lon="35.008968353">
  <ele>186.848877</ele>
  <time>2011-10-13T06:31:00Z</time>
  <speed>4.520000</speed>
</trkpt>
<trkpt lat="32.585514069" lon="35.008918762">
  <ele>186.169189</ele>
  <time>2011-10-13T06:31:01Z</time>
  <speed>4.620000</speed>
</trkpt>
<trkpt lat="32.585533142" lon="35.008872986">
  <ele>185.489502</ele>
  <time>2011-10-13T06:31:02Z</time>
  <speed>4.740000</speed>
</trkpt>
<trkpt lat="32.585536957" lon="35.008827209">
  <ele>184.411377</ele>
  <time>2011-10-13T06:31:03Z</time>
  <speed>4.020000</speed>
</trkpt>
<trkpt lat="32.585529327" lon="35.008777618">
  <ele>184.290283</ele>
  <time>2011-10-13T06:31:04Z</time>
  <speed>4.490000</speed>
</trkpt>
<trkpt lat="32.585517883" lon="35.008731842">
  <ele>184.309814</ele>
  <time>2011-10-13T06:31:05Z</time>
  <speed>4.650000</speed>
</trkpt>
<trkpt lat="32.585514069" lon="35.008682251">
  <ele>184.337158</ele>
  <time>2011-10-13T06:31:06Z</time>
  <speed>4.360000</speed>
</trkpt>
<trkpt lat="32.585521698" lon="35.008640289">
  <ele>183.719971</ele>
  <time>2011-10-13T06:31:07Z</time>
  <speed>3.990000</speed>
</trkpt>
<trkpt lat="32.585525513" lon="35.008598328">
  <ele>183.286377</ele>
  <time>2011-10-13T06:31:08Z</time>
  <speed>3.950000</speed>
</trkpt>
<trkpt lat="32.585529327" lon="35.008548737">
  <ele>182.778564</ele>
  <time>2011-10-13T06:31:09Z</time>
  <speed>4.050000</speed>
</trkpt>
<trkpt lat="32.585536957" lon="35.008506775">
  <ele>181.536377</ele>
  <time>2011-10-13T06:31:10Z</time>
  <speed>3.490000</speed>
</trkpt>
<trkpt lat="32.585548401" lon="35.008476257">
  <ele>180.075439</ele>
  <time>2011-10-13T06:31:12Z</time>
  <speed>1.020000</speed>
</trkpt>
<trkpt lat="32.585571289" lon="35.008499146">
  <ele>176.817627</ele>
  <time>2011-10-13T06:31:14Z</time>
  <speed>1.530000</speed>
</trkpt>
<trkpt lat="32.585594177" lon="35.008533478">
  <ele>174.419189</ele>
  <time>2011-10-13T06:31:16Z</time>
  <speed>1.410000</speed>
</trkpt>
<trkpt lat="32.585632324" lon="35.008518219">
  <ele>172.700439</ele>
  <time>2011-10-13T06:31:19Z</time>
  <speed>2.760000</speed>
</trkpt>
<trkpt lat="32.585647583" lon="35.008495331">
  <ele>171.548096</ele>
  <time>2011-10-13T06:31:20Z</time>
  <speed>2.500000</speed>
</trkpt>
<trkpt lat="32.585655212" lon="35.008430481">
  <ele>170.239502</ele>
  <time>2011-10-13T06:31:22Z</time>
  <speed>3.090000</speed>
</trkpt>
<trkpt lat="32.585651398" lon="35.008388519">
  <ele>170.509033</ele>
  <time>2011-10-13T06:31:23Z</time>
  <speed>3.310000</speed>
</trkpt>
<trkpt lat="32.585655212" lon="35.008346558">
  <ele>169.817627</ele>
  <time>2011-10-13T06:31:24Z</time>
  <speed>3.590000</speed>
</trkpt>
<trkpt lat="32.585662842" lon="35.008312225">
  <ele>169.059814</ele>
  <time>2011-10-13T06:31:25Z</time>
  <speed>2.570000</speed>
</trkpt>
<trkpt lat="32.585678101" lon="35.008281708">
  <ele>167.973877</ele>
  <time>2011-10-13T06:31:26Z</time>
  <speed>3.100000</speed>
</trkpt>
<trkpt lat="32.585681915" lon="35.008228302">
  <ele>166.180908</ele>
  <time>2011-10-13T06:31:28Z</time>
  <speed>3.180000</speed>
</trkpt>
<trkpt lat="32.585670471" lon="35.008193970">
  <ele>165.559814</ele>
  <time>2011-10-13T06:31:29Z</time>
  <speed>3.200000</speed>
</trkpt>
<trkpt lat="32.585659027" lon="35.008155823">
  <ele>165.376221</ele>
  <time>2011-10-13T06:31:30Z</time>
  <speed>3.440000</speed>
</trkpt>
<trkpt lat="32.585659027" lon="35.008121490">
  <ele>165.044189</ele>
  <time>2011-10-13T06:31:31Z</time>
  <speed>2.700000</speed>
</trkpt>
<trkpt lat="32.585678101" lon="35.008098602">
  <ele>164.825439</ele>
  <time>2011-10-13T06:31:32Z</time>
  <speed>2.970000</speed>
</trkpt>
<trkpt lat="32.585704803" lon="35.008083344">
  <ele>164.427002</ele>
  <time>2011-10-13T06:31:33Z</time>
  <speed>2.310000</speed>
</trkpt>
<trkpt lat="32.585746765" lon="35.008056641">
  <ele>164.024658</ele>
  <time>2011-10-13T06:31:35Z</time>
  <speed>2.330000</speed>
</trkpt>
<trkpt lat="32.585781097" lon="35.007999420">
  <ele>164.591064</ele>
  <time>2011-10-13T06:31:37Z</time>
  <speed>2.170000</speed>
</trkpt>
<trkpt lat="32.585781097" lon="35.007968903">
  <ele>164.067627</ele>
  <time>2011-10-13T06:31:39Z</time>
  <speed>1.410000</speed>
</trkpt>
<trkpt lat="32.585746765" lon="35.007926941">
  <ele>162.384033</ele>
  <time>2011-10-13T06:31:41Z</time>
  <speed>2.440000</speed>
</trkpt>
<trkpt lat="32.585731506" lon="35.007869720">
  <ele>160.743408</ele>
  <time>2011-10-13T06:31:43Z</time>
  <speed>2.560000</speed>
</trkpt>
<trkpt lat="32.585742950" lon="35.007839203">
  <ele>160.149658</ele>
  <time>2011-10-13T06:31:44Z</time>
  <speed>2.920000</speed>
</trkpt>
<trkpt lat="32.585746765" lon="35.007801056">
  <ele>159.446533</ele>
  <time>2011-10-13T06:31:45Z</time>
  <speed>3.040000</speed>
</trkpt>
<trkpt lat="32.585746765" lon="35.007743835">
  <ele>158.759033</ele>
  <time>2011-10-13T06:31:47Z</time>
  <speed>2.490000</speed>
</trkpt>
<trkpt lat="32.585739136" lon="35.007713318">
  <ele>158.427002</ele>
  <time>2011-10-13T06:31:48Z</time>
  <speed>2.760000</speed>
</trkpt>
<trkpt lat="32.585720062" lon="35.007686615">
  <ele>157.251221</ele>
  <time>2011-10-13T06:31:49Z</time>
  <speed>2.490000</speed>
</trkpt>
<trkpt lat="32.585697174" lon="35.007663727">
  <ele>156.188721</ele>
  <time>2011-10-13T06:31:50Z</time>
  <speed>2.650000</speed>
</trkpt>
<trkpt lat="32.585678101" lon="35.007640839">
  <ele>155.704346</ele>
  <time>2011-10-13T06:31:51Z</time>
  <speed>2.230000</speed>
</trkpt>
<trkpt lat="32.585662842" lon="35.007606506">
  <ele>155.446533</ele>
  <time>2011-10-13T06:31:52Z</time>
  <speed>2.830000</speed>
</trkpt>
<trkpt lat="32.585647583" lon="35.007575989">
  <ele>154.473877</ele>
  <time>2011-10-13T06:31:53Z</time>
  <speed>3.470000</speed>
</trkpt>
<trkpt lat="32.585632324" lon="35.007530212">
  <ele>154.036377</ele>
  <time>2011-10-13T06:31:54Z</time>
  <speed>3.540000</speed>
</trkpt>
<trkpt lat="32.585617065" lon="35.007492065">
  <ele>153.286377</ele>
  <time>2011-10-13T06:31:55Z</time>
  <speed>3.360000</speed>
</trkpt>
<trkpt lat="32.585575104" lon="35.007457733">
  <ele>152.001221</ele>
  <time>2011-10-13T06:31:57Z</time>
  <speed>3.210000</speed>
</trkpt>
<trkpt lat="32.585556030" lon="35.007434845">
  <ele>150.942627</ele>
  <time>2011-10-13T06:31:58Z</time>
  <speed>2.650000</speed>
</trkpt>
<trkpt lat="32.585552216" lon="35.007400513">
  <ele>150.360596</ele>
  <time>2011-10-13T06:31:59Z</time>
  <speed>3.370000</speed>
</trkpt>
<trkpt lat="32.585563660" lon="35.007366180">
  <ele>149.876221</ele>
  <time>2011-10-13T06:32:00Z</time>
  <speed>3.600000</speed>
</trkpt>
<trkpt lat="32.585586548" lon="35.007339478">
  <ele>149.278564</ele>
  <time>2011-10-13T06:32:01Z</time>
  <speed>2.990000</speed>
</trkpt>
<trkpt lat="32.585613251" lon="35.007316589">
  <ele>148.309814</ele>
  <time>2011-10-13T06:32:03Z</time>
  <speed>1.460000</speed>
</trkpt>
<trkpt lat="32.585620880" lon="35.007274628">
  <ele>146.864502</ele>
  <time>2011-10-13T06:32:05Z</time>
  <speed>2.220000</speed>
</trkpt>
<trkpt lat="32.585613251" lon="35.007236481">
  <ele>145.919189</ele>
  <time>2011-10-13T06:32:06Z</time>
  <speed>3.280000</speed>
</trkpt>
<trkpt lat="32.585597992" lon="35.007190704">
  <ele>145.255127</ele>
  <time>2011-10-13T06:32:07Z</time>
  <speed>4.220000</speed>
</trkpt>
<trkpt lat="32.585575104" lon="35.007156372">
  <ele>144.177002</ele>
  <time>2011-10-13T06:32:08Z</time>
  <speed>3.570000</speed>
</trkpt>
<trkpt lat="32.585544586" lon="35.007118225">
  <ele>143.177002</ele>
  <time>2011-10-13T06:32:09Z</time>
  <speed>4.110000</speed>
</trkpt>
<trkpt lat="32.585514069" lon="35.007083893">
  <ele>142.337158</ele>
  <time>2011-10-13T06:32:10Z</time>
  <speed>3.520000</speed>
</trkpt>
<trkpt lat="32.585483551" lon="35.007064819">
  <ele>141.552002</ele>
  <time>2011-10-13T06:32:11Z</time>
  <speed>3.050000</speed>
</trkpt>
<trkpt lat="32.585453033" lon="35.007041931">
  <ele>141.282471</ele>
  <time>2011-10-13T06:32:12Z</time>
  <speed>3.060000</speed>
</trkpt>
<trkpt lat="32.585418701" lon="35.007034302">
  <ele>141.430908</ele>
  <time>2011-10-13T06:32:13Z</time>
  <speed>3.120000</speed>
</trkpt>
<trkpt lat="32.585384369" lon="35.007019043">
  <ele>141.094971</ele>
  <time>2011-10-13T06:32:14Z</time>
  <speed>2.730000</speed>
</trkpt>
<trkpt lat="32.585357666" lon="35.006996155">
  <ele>140.708252</ele>
  <time>2011-10-13T06:32:15Z</time>
  <speed>3.080000</speed>
</trkpt>
<trkpt lat="32.585334778" lon="35.006973267">
  <ele>140.114502</ele>
  <time>2011-10-13T06:32:16Z</time>
  <speed>2.930000</speed>
</trkpt>
<trkpt lat="32.585311890" lon="35.006931305">
  <ele>139.848877</ele>
  <time>2011-10-13T06:32:17Z</time>
  <speed>3.800000</speed>
</trkpt>
<trkpt lat="32.585289001" lon="35.006896973">
  <ele>139.637939</ele>
  <time>2011-10-13T06:32:18Z</time>
  <speed>4.080000</speed>
</trkpt>
<trkpt lat="32.585262299" lon="35.006847382">
  <ele>139.177002</ele>
  <time>2011-10-13T06:32:19Z</time>
  <speed>5.030000</speed>
</trkpt>
<trkpt lat="32.585243225" lon="35.006797791">
  <ele>138.204346</ele>
  <time>2011-10-13T06:32:20Z</time>
  <speed>5.330000</speed>
</trkpt>
<trkpt lat="32.585212708" lon="35.006748199">
  <ele>137.438721</ele>
  <time>2011-10-13T06:32:21Z</time>
  <speed>6.280000</speed>
</trkpt>
<trkpt lat="32.585186005" lon="35.006702423">
  <ele>137.985596</ele>
  <time>2011-10-13T06:32:22Z</time>
  <speed>4.840000</speed>
</trkpt>
<trkpt lat="32.585155487" lon="35.006664276">
  <ele>137.473877</ele>
  <time>2011-10-13T06:32:23Z</time>
  <speed>4.520000</speed>
</trkpt>
<trkpt lat="32.585132599" lon="35.006626129">
  <ele>137.512939</ele>
  <time>2011-10-13T06:32:24Z</time>
  <speed>3.040000</speed>
</trkpt>
<trkpt lat="32.585117340" lon="35.006587982">
  <ele>138.899658</ele>
  <time>2011-10-13T06:32:26Z</time>
  <speed>1.690000</speed>
</trkpt>
<trkpt lat="32.585136414" lon="35.006546021">
  <ele>139.149658</ele>
  <time>2011-10-13T06:32:28Z</time>
  <speed>1.770000</speed>
</trkpt>
<trkpt lat="32.585151672" lon="35.006500244">
  <ele>139.446533</ele>
  <time>2011-10-13T06:32:30Z</time>
  <speed>2.110000</speed>
</trkpt>
<trkpt lat="32.585155487" lon="35.006465912">
  <ele>140.509033</ele>
  <time>2011-10-13T06:32:31Z</time>
  <speed>2.420000</speed>
</trkpt>
<trkpt lat="32.585174561" lon="35.006416321">
  <ele>140.255127</ele>
  <time>2011-10-13T06:32:33Z</time>
  <speed>2.570000</speed>
</trkpt>
<trkpt lat="32.585193634" lon="35.006393433">
  <ele>139.876221</ele>
  <time>2011-10-13T06:32:34Z</time>
  <speed>2.620000</speed>
</trkpt>
<trkpt lat="32.585205078" lon="35.006359100">
  <ele>140.458252</ele>
  <time>2011-10-13T06:32:35Z</time>
  <speed>2.820000</speed>
</trkpt>
<trkpt lat="32.585216522" lon="35.006328583">
  <ele>140.989502</ele>
  <time>2011-10-13T06:32:36Z</time>
  <speed>2.550000</speed>
</trkpt>
<trkpt lat="32.585227966" lon="35.006294250">
  <ele>141.321533</ele>
  <time>2011-10-13T06:32:37Z</time>
  <speed>2.580000</speed>
</trkpt>
<trkpt lat="32.585243225" lon="35.006233215">
  <ele>142.005127</ele>
  <time>2011-10-13T06:32:39Z</time>
  <speed>2.570000</speed>
</trkpt>
<trkpt lat="32.585250854" lon="35.006198883">
  <ele>142.751221</ele>
  <time>2011-10-13T06:32:40Z</time>
  <speed>2.580000</speed>
</trkpt>
<trkpt lat="32.585266113" lon="35.006145477">
  <ele>142.907471</ele>
  <time>2011-10-13T06:32:42Z</time>
  <speed>2.650000</speed>
</trkpt>
<trkpt lat="32.585292816" lon="35.006088257">
  <ele>143.259033</ele>
  <time>2011-10-13T06:32:44Z</time>
  <speed>3.130000</speed>
</trkpt>
<trkpt lat="32.585308075" lon="35.006057739">
  <ele>143.247314</ele>
  <time>2011-10-13T06:32:45Z</time>
  <speed>3.050000</speed>
</trkpt>
<trkpt lat="32.585319519" lon="35.006023407">
  <ele>143.969971</ele>
  <time>2011-10-13T06:32:46Z</time>
  <speed>2.850000</speed>
</trkpt>
<trkpt lat="32.585327148" lon="35.005992889">
  <ele>144.380127</ele>
  <time>2011-10-13T06:32:47Z</time>
  <speed>2.720000</speed>
</trkpt>
<trkpt lat="32.585338593" lon="35.005939484">
  <ele>145.856689</ele>
  <time>2011-10-13T06:32:49Z</time>
  <speed>2.700000</speed>
</trkpt>
<trkpt lat="32.585357666" lon="35.005878448">
  <ele>146.434814</ele>
  <time>2011-10-13T06:32:51Z</time>
  <speed>2.700000</speed>
</trkpt>
<trkpt lat="32.585357666" lon="35.005836487">
  <ele>148.360596</ele>
  <time>2011-10-13T06:32:52Z</time>
  <speed>2.790000</speed>
</trkpt>
<trkpt lat="32.585365295" lon="35.005805969">
  <ele>148.677002</ele>
  <time>2011-10-13T06:32:53Z</time>
  <speed>2.970000</speed>
</trkpt>
<trkpt lat="32.585369110" lon="35.005767822">
  <ele>149.067627</ele>
  <time>2011-10-13T06:32:54Z</time>
  <speed>2.920000</speed>
</trkpt>
<trkpt lat="32.585388184" lon="35.005710602">
  <ele>149.243408</ele>
  <time>2011-10-13T06:32:56Z</time>
  <speed>2.970000</speed>
</trkpt>
<trkpt lat="32.585422516" lon="35.005657196">
  <ele>148.634033</ele>
  <time>2011-10-13T06:32:58Z</time>
  <speed>3.220000</speed>
</trkpt>
<trkpt lat="32.585456848" lon="35.005607605">
  <ele>148.395752</ele>
  <time>2011-10-13T06:33:00Z</time>
  <speed>3.060000</speed>
</trkpt>
<trkpt lat="32.585479736" lon="35.005554199">
  <ele>148.927002</ele>
  <time>2011-10-13T06:33:02Z</time>
  <speed>2.950000</speed>
</trkpt>
<trkpt lat="32.585533142" lon="35.005519867">
  <ele>148.137939</ele>
  <time>2011-10-13T06:33:04Z</time>
  <speed>3.680000</speed>
</trkpt>
<trkpt lat="32.585563660" lon="35.005504608">
  <ele>147.712158</ele>
  <time>2011-10-13T06:33:05Z</time>
  <speed>3.890000</speed>
</trkpt>
<trkpt lat="32.585594177" lon="35.005489349">
  <ele>147.380127</ele>
  <time>2011-10-13T06:33:06Z</time>
  <speed>2.660000</speed>
</trkpt>
<trkpt lat="32.585609436" lon="35.005462646">
  <ele>148.137939</ele>
  <time>2011-10-13T06:33:07Z</time>
  <speed>3.390000</speed>
</trkpt>
<trkpt lat="32.585632324" lon="35.005432129">
  <ele>147.774658</ele>
  <time>2011-10-13T06:33:08Z</time>
  <speed>3.970000</speed>
</trkpt>
<trkpt lat="32.585655212" lon="35.005393982">
  <ele>147.298096</ele>
  <time>2011-10-13T06:33:09Z</time>
  <speed>3.880000</speed>
</trkpt>
<trkpt lat="32.585674286" lon="35.005359650">
  <ele>147.130127</ele>
  <time>2011-10-13T06:33:10Z</time>
  <speed>3.960000</speed>
</trkpt>
<trkpt lat="32.585697174" lon="35.005321503">
  <ele>146.919189</ele>
  <time>2011-10-13T06:33:11Z</time>
  <speed>4.690000</speed>
</trkpt>
<trkpt lat="32.585723877" lon="35.005271912">
  <ele>147.059814</ele>
  <time>2011-10-13T06:33:12Z</time>
  <speed>4.600000</speed>
</trkpt>
<trkpt lat="32.585750580" lon="35.005222321">
  <ele>146.794189</ele>
  <time>2011-10-13T06:33:13Z</time>
  <speed>4.200000</speed>
</trkpt>
<trkpt lat="32.585773468" lon="35.005191803">
  <ele>146.266846</ele>
  <time>2011-10-13T06:33:14Z</time>
  <speed>3.740000</speed>
</trkpt>
<trkpt lat="32.585800171" lon="35.005165100">
  <ele>146.083252</ele>
  <time>2011-10-13T06:33:15Z</time>
  <speed>3.760000</speed>
</trkpt>
<trkpt lat="32.585819244" lon="35.005130768">
  <ele>146.376221</ele>
  <time>2011-10-13T06:33:16Z</time>
  <speed>3.080000</speed>
</trkpt>
<trkpt lat="32.585819244" lon="35.005073547">
  <ele>145.903564</ele>
  <time>2011-10-13T06:33:18Z</time>
  <speed>2.680000</speed>
</trkpt>
<trkpt lat="32.585819244" lon="35.005008698">
  <ele>145.805908</ele>
  <time>2011-10-13T06:33:20Z</time>
  <speed>2.860000</speed>
</trkpt>
<trkpt lat="32.585830688" lon="35.004981995">
  <ele>144.458252</ele>
  <time>2011-10-13T06:33:21Z</time>
  <speed>3.060000</speed>
</trkpt>
<trkpt lat="32.585838318" lon="35.004947662">
  <ele>144.274658</ele>
  <time>2011-10-13T06:33:22Z</time>
  <speed>3.270000</speed>
</trkpt>
<trkpt lat="32.585849762" lon="35.004913330">
  <ele>145.075439</ele>
  <time>2011-10-13T06:33:23Z</time>
  <speed>2.660000</speed>
</trkpt>
<trkpt lat="32.585853577" lon="35.004871368">
  <ele>145.532471</ele>
  <time>2011-10-13T06:33:25Z</time>
  <speed>1.570000</speed>
</trkpt>
<trkpt lat="32.585826874" lon="35.004837036">
  <ele>145.802002</ele>
  <time>2011-10-13T06:33:27Z</time>
  <speed>2.210000</speed>
</trkpt>
<trkpt lat="32.585800171" lon="35.004825592">
  <ele>146.360596</ele>
  <time>2011-10-13T06:33:28Z</time>
  <speed>2.630000</speed>
</trkpt>
<trkpt lat="32.585769653" lon="35.004787445">
  <ele>147.805908</ele>
  <time>2011-10-13T06:33:30Z</time>
  <speed>2.310000</speed>
</trkpt>
<trkpt lat="32.585739136" lon="35.004756927">
  <ele>148.587158</ele>
  <time>2011-10-13T06:33:32Z</time>
  <speed>1.470000</speed>
</trkpt>
<trkpt lat="32.585689545" lon="35.004760742">
  <ele>148.817627</ele>
  <time>2011-10-13T06:33:34Z</time>
  <speed>2.540000</speed>
</trkpt>
<trkpt lat="32.585662842" lon="35.004764557">
  <ele>149.583252</ele>
  <time>2011-10-13T06:33:35Z</time>
  <speed>2.570000</speed>
</trkpt>
<trkpt lat="32.585617065" lon="35.004760742">
  <ele>149.091064</ele>
  <time>2011-10-13T06:33:37Z</time>
  <speed>2.180000</speed>
</trkpt>
<trkpt lat="32.585575104" lon="35.004749298">
  <ele>149.239502</ele>
  <time>2011-10-13T06:33:39Z</time>
  <speed>1.770000</speed>
</trkpt>
<trkpt lat="32.585544586" lon="35.004749298">
  <ele>149.934814</ele>
  <time>2011-10-13T06:33:41Z</time>
  <speed>1.380000</speed>
</trkpt>
<trkpt lat="32.585510254" lon="35.004737854">
  <ele>150.657471</ele>
  <time>2011-10-13T06:33:44Z</time>
  <speed>1.220000</speed>
</trkpt>
<trkpt lat="32.585483551" lon="35.004722595">
  <ele>150.407471</ele>
  <time>2011-10-13T06:33:47Z</time>
  <speed>1.100000</speed>
</trkpt>
<trkpt lat="32.585456848" lon="35.004703522">
  <ele>151.364502</ele>
  <time>2011-10-13T06:33:49Z</time>
  <speed>2.010000</speed>
</trkpt>
<trkpt lat="32.585449219" lon="35.004657745">
  <ele>152.509033</ele>
  <time>2011-10-13T06:33:51Z</time>
  <speed>1.900000</speed>
</trkpt>
<trkpt lat="32.585456848" lon="35.004611969">
  <ele>153.001221</ele>
  <time>2011-10-13T06:33:53Z</time>
  <speed>2.150000</speed>
</trkpt>
<trkpt lat="32.585449219" lon="35.004562378">
  <ele>153.094971</ele>
  <time>2011-10-13T06:33:55Z</time>
  <speed>2.760000</speed>
</trkpt>
<trkpt lat="32.585430145" lon="35.004535675">
  <ele>152.755127</ele>
  <time>2011-10-13T06:33:56Z</time>
  <speed>3.240000</speed>
</trkpt>
<trkpt lat="32.585403442" lon="35.004512787">
  <ele>152.477783</ele>
  <time>2011-10-13T06:33:57Z</time>
  <speed>3.270000</speed>
</trkpt>
<trkpt lat="32.585380554" lon="35.004493713">
  <ele>152.692627</ele>
  <time>2011-10-13T06:33:58Z</time>
  <speed>2.890000</speed>
</trkpt>
<trkpt lat="32.585353851" lon="35.004447937">
  <ele>152.305908</ele>
  <time>2011-10-13T06:34:00Z</time>
  <speed>2.440000</speed>
</trkpt>
<trkpt lat="32.585357666" lon="35.004405975">
  <ele>150.302002</ele>
  <time>2011-10-13T06:34:02Z</time>
  <speed>2.070000</speed>
</trkpt>
<trkpt lat="32.585338593" lon="35.004360199">
  <ele>149.759033</ele>
  <time>2011-10-13T06:34:04Z</time>
  <speed>2.280000</speed>
</trkpt>
<trkpt lat="32.585311890" lon="35.004329681">
  <ele>148.016846</ele>
  <time>2011-10-13T06:34:06Z</time>
  <speed>1.920000</speed>
</trkpt>
<trkpt lat="32.585289001" lon="35.004299164">
  <ele>146.790283</ele>
  <time>2011-10-13T06:34:08Z</time>
  <speed>1.730000</speed>
</trkpt>
<trkpt lat="32.585285187" lon="35.004261017">
  <ele>147.364502</ele>
  <time>2011-10-13T06:34:10Z</time>
  <speed>1.730000</speed>
</trkpt>
<trkpt lat="32.585277557" lon="35.004226685">
  <ele>147.048096</ele>
  <time>2011-10-13T06:34:12Z</time>
  <speed>2.100000</speed>
</trkpt>
<trkpt lat="32.585262299" lon="35.004196167">
  <ele>146.704346</ele>
  <time>2011-10-13T06:34:14Z</time>
  <speed>0.220000</speed>
</trkpt>
<trkpt lat="32.585285187" lon="35.004219055">
  <ele>145.887939</ele>
  <time>2011-10-13T06:34:29Z</time>
  <speed>0.820000</speed>
</trkpt>
<trkpt lat="32.585292816" lon="35.004261017">
  <ele>145.384033</ele>
  <time>2011-10-13T06:34:31Z</time>
  <speed>1.470000</speed>
</trkpt>
<trkpt lat="32.585289001" lon="35.004299164">
  <ele>145.134033</ele>
  <time>2011-10-13T06:34:33Z</time>
  <speed>1.000000</speed>
</trkpt>
<trkpt lat="32.585285187" lon="35.004333496">
  <ele>144.360596</ele>
  <time>2011-10-13T06:34:36Z</time>
  <speed>1.030000</speed>
</trkpt>
<trkpt lat="32.585289001" lon="35.004367828">
  <ele>144.165283</ele>
  <time>2011-10-13T06:34:38Z</time>
  <speed>1.000000</speed>
</trkpt>
<trkpt lat="32.585311890" lon="35.004386902">
  <ele>145.075439</ele>
  <time>2011-10-13T06:34:42Z</time>
  <speed>0.130000</speed>
</trkpt>
<trkpt lat="32.585304260" lon="35.004344940">
  <ele>145.856689</ele>
  <time>2011-10-13T06:34:53Z</time>
  <speed>1.210000</speed>
</trkpt>
<trkpt lat="32.585304260" lon="35.004306793">
  <ele>145.704346</ele>
  <time>2011-10-13T06:34:55Z</time>
  <speed>2.190000</speed>
</trkpt>
<trkpt lat="32.585300446" lon="35.004264832">
  <ele>145.645752</ele>
  <time>2011-10-13T06:34:57Z</time>
  <speed>1.840000</speed>
</trkpt>
<trkpt lat="32.585277557" lon="35.004226685">
  <ele>144.817627</ele>
  <time>2011-10-13T06:34:59Z</time>
  <speed>1.730000</speed>
</trkpt>
<trkpt lat="32.585254669" lon="35.004192352">
  <ele>143.919189</ele>
  <time>2011-10-13T06:35:01Z</time>
  <speed>1.500000</speed>
</trkpt>
<trkpt lat="32.585250854" lon="35.004161835">
  <ele>144.012939</ele>
  <time>2011-10-13T06:35:03Z</time>
  <speed>1.530000</speed>
</trkpt>
<trkpt lat="32.585262299" lon="35.004104614">
  <ele>143.692627</ele>
  <time>2011-10-13T06:35:05Z</time>
  <speed>2.460000</speed>
</trkpt>
<trkpt lat="32.585273743" lon="35.004051208">
  <ele>142.376221</ele>
  <time>2011-10-13T06:35:07Z</time>
  <speed>1.100000</speed>
</trkpt>
<trkpt lat="32.585269928" lon="35.004020691">
  <ele>142.235596</ele>
  <time>2011-10-13T06:35:08Z</time>
  <speed>2.130000</speed>
</trkpt>
<trkpt lat="32.585247040" lon="35.003974915">
  <ele>141.044189</ele>
  <time>2011-10-13T06:35:10Z</time>
  <speed>2.400000</speed>
</trkpt>
<trkpt lat="32.585227966" lon="35.003932953">
  <ele>139.591064</ele>
  <time>2011-10-13T06:35:12Z</time>
  <speed>2.620000</speed>
</trkpt>
<trkpt lat="32.585227966" lon="35.003902435">
  <ele>138.481689</ele>
  <time>2011-10-13T06:35:13Z</time>
  <speed>2.710000</speed>
</trkpt>
<trkpt lat="32.585208893" lon="35.003852844">
  <ele>137.302002</ele>
  <time>2011-10-13T06:35:15Z</time>
  <speed>2.240000</speed>
</trkpt>
<trkpt lat="32.585166931" lon="35.003822327">
  <ele>137.153564</ele>
  <time>2011-10-13T06:35:17Z</time>
  <speed>2.540000</speed>
</trkpt>
<trkpt lat="32.585170746" lon="35.003776550">
  <ele>135.958252</ele>
  <time>2011-10-13T06:35:19Z</time>
  <speed>1.970000</speed>
</trkpt>
<trkpt lat="32.585186005" lon="35.003723145">
  <ele>134.411377</ele>
  <time>2011-10-13T06:35:21Z</time>
  <speed>2.560000</speed>
</trkpt>
<trkpt lat="32.585205078" lon="35.003696442">
  <ele>134.094971</ele>
  <time>2011-10-13T06:35:22Z</time>
  <speed>3.230000</speed>
</trkpt>
<trkpt lat="32.585216522" lon="35.003662109">
  <ele>133.427002</ele>
  <time>2011-10-13T06:35:23Z</time>
  <speed>3.280000</speed>
</trkpt>
<trkpt lat="32.585224152" lon="35.003627777">
  <ele>132.594971</ele>
  <time>2011-10-13T06:35:24Z</time>
  <speed>2.780000</speed>
</trkpt>
<trkpt lat="32.585224152" lon="35.003570557">
  <ele>131.649658</ele>
  <time>2011-10-13T06:35:26Z</time>
  <speed>2.690000</speed>
</trkpt>
<trkpt lat="32.585216522" lon="35.003532410">
  <ele>131.356689</ele>
  <time>2011-10-13T06:35:27Z</time>
  <speed>2.920000</speed>
</trkpt>
<trkpt lat="32.585212708" lon="35.003494263">
  <ele>130.766846</ele>
  <time>2011-10-13T06:35:28Z</time>
  <speed>3.090000</speed>
</trkpt>
<trkpt lat="32.585208893" lon="35.003463745">
  <ele>130.637939</ele>
  <time>2011-10-13T06:35:29Z</time>
  <speed>2.510000</speed>
</trkpt>
<trkpt lat="32.585212708" lon="35.003417969">
  <ele>130.130127</ele>
  <time>2011-10-13T06:35:31Z</time>
  <speed>1.360000</speed>
</trkpt>
<trkpt lat="32.585205078" lon="35.003372192">
  <ele>129.399658</ele>
  <time>2011-10-13T06:35:33Z</time>
  <speed>2.130000</speed>
</trkpt>
<trkpt lat="32.585189819" lon="35.003341675">
  <ele>128.712158</ele>
  <time>2011-10-13T06:35:35Z</time>
  <speed>1.040000</speed>
</trkpt>
<trkpt lat="32.585170746" lon="35.003303528">
  <ele>128.907471</ele>
  <time>2011-10-13T06:35:37Z</time>
  <speed>1.410000</speed>
</trkpt>
<trkpt lat="32.585136414" lon="35.003280640">
  <ele>127.834595</ele>
  <time>2011-10-13T06:35:39Z</time>
  <speed>1.610000</speed>
</trkpt>
<trkpt lat="32.585102081" lon="35.003269196">
  <ele>125.781860</ele>
  <time>2011-10-13T06:35:41Z</time>
  <speed>2.220000</speed>
</trkpt>
<trkpt lat="32.585063934" lon="35.003253937">
  <ele>124.234985</ele>
  <time>2011-10-13T06:35:43Z</time>
  <speed>1.380000</speed>
</trkpt>
<trkpt lat="32.585033417" lon="35.003242493">
  <ele>123.303345</ele>
  <time>2011-10-13T06:35:45Z</time>
  <speed>1.470000</speed>
</trkpt>
<trkpt lat="32.585021973" lon="35.003204346">
  <ele>122.443970</ele>
  <time>2011-10-13T06:35:49Z</time>
  <speed>0.830000</speed>
</trkpt>
<trkpt lat="32.585021973" lon="35.003170013">
  <ele>121.260376</ele>
  <time>2011-10-13T06:35:52Z</time>
  <speed>1.200000</speed>
</trkpt>
<trkpt lat="32.585006714" lon="35.003135681">
  <ele>120.467407</ele>
  <time>2011-10-13T06:35:54Z</time>
  <speed>1.760000</speed>
</trkpt>
<trkpt lat="32.584987640" lon="35.003108978">
  <ele>119.922485</ele>
  <time>2011-10-13T06:35:55Z</time>
  <speed>1.820000</speed>
</trkpt>
<trkpt lat="32.584960938" lon="35.003070831">
  <ele>118.529907</ele>
  <time>2011-10-13T06:35:57Z</time>
  <speed>2.120000</speed>
</trkpt>
<trkpt lat="32.584949493" lon="35.003021240">
  <ele>117.447876</ele>
  <time>2011-10-13T06:35:59Z</time>
  <speed>1.890000</speed>
</trkpt>
<trkpt lat="32.584945679" lon="35.002956390">
  <ele>117.281860</ele>
  <time>2011-10-13T06:36:01Z</time>
  <speed>2.870000</speed>
</trkpt>
<trkpt lat="32.584938049" lon="35.002891541">
  <ele>115.910767</ele>
  <time>2011-10-13T06:36:03Z</time>
  <speed>2.200000</speed>
</trkpt>
<trkpt lat="32.584934235" lon="35.002834320">
  <ele>116.742798</ele>
  <time>2011-10-13T06:36:05Z</time>
  <speed>1.720000</speed>
</trkpt>
<trkpt lat="32.584930420" lon="35.002784729">
  <ele>115.695923</ele>
  <time>2011-10-13T06:36:07Z</time>
  <speed>2.520000</speed>
</trkpt>
<trkpt lat="32.584918976" lon="35.002754211">
  <ele>114.994751</ele>
  <time>2011-10-13T06:36:08Z</time>
  <speed>2.690000</speed>
</trkpt>
<trkpt lat="32.584896088" lon="35.002704620">
  <ele>112.684204</ele>
  <time>2011-10-13T06:36:10Z</time>
  <speed>2.680000</speed>
</trkpt>
<trkpt lat="32.584877014" lon="35.002677917">
  <ele>112.779907</ele>
  <time>2011-10-13T06:36:11Z</time>
  <speed>3.240000</speed>
</trkpt>
<trkpt lat="32.584854126" lon="35.002628326">
  <ele>111.561157</ele>
  <time>2011-10-13T06:36:13Z</time>
  <speed>2.000000</speed>
</trkpt>
<trkpt lat="32.584869385" lon="35.002605438">
  <ele>110.664673</ele>
  <time>2011-10-13T06:36:15Z</time>
  <speed>1.750000</speed>
</trkpt>
<trkpt lat="32.584899902" lon="35.002574921">
  <ele>110.350220</ele>
  <time>2011-10-13T06:36:17Z</time>
  <speed>2.180000</speed>
</trkpt>
<trkpt lat="32.584911346" lon="35.002521515">
  <ele>109.320923</ele>
  <time>2011-10-13T06:36:19Z</time>
  <speed>1.820000</speed>
</trkpt>
<trkpt lat="32.584922791" lon="35.002479553">
  <ele>107.631470</ele>
  <time>2011-10-13T06:36:21Z</time>
  <speed>2.560000</speed>
</trkpt>
<trkpt lat="32.584945679" lon="35.002429962">
  <ele>105.695923</ele>
  <time>2011-10-13T06:36:23Z</time>
  <speed>2.610000</speed>
</trkpt>
<trkpt lat="32.584960938" lon="35.002403259">
  <ele>104.854126</ele>
  <time>2011-10-13T06:36:24Z</time>
  <speed>2.320000</speed>
</trkpt>
<trkpt lat="32.584968567" lon="35.002342224">
  <ele>102.688110</ele>
  <time>2011-10-13T06:36:26Z</time>
  <speed>3.190000</speed>
</trkpt>
<trkpt lat="32.584960938" lon="35.002300262">
  <ele>102.285767</ele>
  <time>2011-10-13T06:36:27Z</time>
  <speed>3.300000</speed>
</trkpt>
<trkpt lat="32.584945679" lon="35.002258301">
  <ele>101.777954</ele>
  <time>2011-10-13T06:36:28Z</time>
  <speed>3.520000</speed>
</trkpt>
<trkpt lat="32.584926605" lon="35.002223969">
  <ele>101.686157</ele>
  <time>2011-10-13T06:36:29Z</time>
  <speed>3.480000</speed>
</trkpt>
<trkpt lat="32.584907532" lon="35.002185822">
  <ele>101.463501</ele>
  <time>2011-10-13T06:36:30Z</time>
  <speed>3.650000</speed>
</trkpt>
<trkpt lat="32.584884644" lon="35.002155304">
  <ele>102.217407</ele>
  <time>2011-10-13T06:36:31Z</time>
  <speed>3.190000</speed>
</trkpt>
<trkpt lat="32.584869385" lon="35.002117157">
  <ele>101.846313</ele>
  <time>2011-10-13T06:36:32Z</time>
  <speed>3.270000</speed>
</trkpt>
<trkpt lat="32.584854126" lon="35.002086639">
  <ele>101.580688</ele>
  <time>2011-10-13T06:36:33Z</time>
  <speed>2.920000</speed>
</trkpt>
<trkpt lat="32.584835052" lon="35.002063751">
  <ele>101.524048</ele>
  <time>2011-10-13T06:36:34Z</time>
  <speed>3.130000</speed>
</trkpt>
<trkpt lat="32.584812164" lon="35.002037048">
  <ele>101.340454</ele>
  <time>2011-10-13T06:36:35Z</time>
  <speed>2.980000</speed>
</trkpt>
<trkpt lat="32.584796906" lon="35.002014160">
  <ele>101.031860</ele>
  <time>2011-10-13T06:36:36Z</time>
  <speed>3.180000</speed>
</trkpt>
<trkpt lat="32.584766388" lon="35.001991272">
  <ele>100.807251</ele>
  <time>2011-10-13T06:36:37Z</time>
  <speed>3.280000</speed>
</trkpt>
<trkpt lat="32.584735870" lon="35.001972198">
  <ele>99.809204</ele>
  <time>2011-10-13T06:36:38Z</time>
  <speed>3.610000</speed>
</trkpt>
<trkpt lat="32.584701538" lon="35.001960754">
  <ele>99.016235</ele>
  <time>2011-10-13T06:36:39Z</time>
  <speed>3.510000</speed>
</trkpt>
<trkpt lat="32.584667206" lon="35.001960754">
  <ele>98.307251</ele>
  <time>2011-10-13T06:36:40Z</time>
  <speed>3.610000</speed>
</trkpt>
<trkpt lat="32.584632874" lon="35.001960754">
  <ele>97.151001</ele>
  <time>2011-10-13T06:36:41Z</time>
  <speed>2.990000</speed>
</trkpt>
<trkpt lat="32.584594727" lon="35.001953125">
  <ele>96.213501</ele>
  <time>2011-10-13T06:36:42Z</time>
  <speed>3.390000</speed>
</trkpt>
<trkpt lat="32.584552765" lon="35.001945496">
  <ele>95.592407</ele>
  <time>2011-10-13T06:36:43Z</time>
  <speed>4.140000</speed>
</trkpt>
<trkpt lat="32.584514618" lon="35.001937866">
  <ele>93.856079</ele>
  <time>2011-10-13T06:36:44Z</time>
  <speed>4.540000</speed>
</trkpt>
<trkpt lat="32.584472656" lon="35.001926422">
  <ele>92.467407</ele>
  <time>2011-10-13T06:36:45Z</time>
  <speed>4.780000</speed>
</trkpt>
<trkpt lat="32.584430695" lon="35.001907349">
  <ele>91.215454</ele>
  <time>2011-10-13T06:36:46Z</time>
  <speed>4.510000</speed>
</trkpt>
<trkpt lat="32.584392548" lon="35.001895905">
  <ele>89.799438</ele>
  <time>2011-10-13T06:36:47Z</time>
  <speed>3.710000</speed>
</trkpt>
<trkpt lat="32.584365845" lon="35.001884460">
  <ele>88.910767</ele>
  <time>2011-10-13T06:36:48Z</time>
  <speed>3.310000</speed>
</trkpt>
<trkpt lat="32.584316254" lon="35.001853943">
  <ele>87.449829</ele>
  <time>2011-10-13T06:36:50Z</time>
  <speed>2.550000</speed>
</trkpt>
<trkpt lat="32.584300995" lon="35.001823425">
  <ele>86.932251</ele>
  <time>2011-10-13T06:36:51Z</time>
  <speed>3.310000</speed>
</trkpt>
<trkpt lat="32.584281921" lon="35.001792908">
  <ele>86.859985</ele>
  <time>2011-10-13T06:36:52Z</time>
  <speed>3.590000</speed>
</trkpt>
<trkpt lat="32.584266663" lon="35.001762390">
  <ele>86.274048</ele>
  <time>2011-10-13T06:36:53Z</time>
  <speed>3.760000</speed>
</trkpt>
<trkpt lat="32.584236145" lon="35.001735687">
  <ele>86.904907</ele>
  <time>2011-10-13T06:36:54Z</time>
  <speed>3.650000</speed>
</trkpt>
<trkpt lat="32.584213257" lon="35.001716614">
  <ele>86.619751</ele>
  <time>2011-10-13T06:36:55Z</time>
  <speed>3.340000</speed>
</trkpt>
<trkpt lat="32.584186554" lon="35.001701355">
  <ele>86.865845</ele>
  <time>2011-10-13T06:36:56Z</time>
  <speed>2.920000</speed>
</trkpt>
<trkpt lat="32.584140778" lon="35.001689911">
  <ele>88.129517</ele>
  <time>2011-10-13T06:36:58Z</time>
  <speed>2.440000</speed>
</trkpt>
<trkpt lat="32.584091187" lon="35.001701355">
  <ele>88.088501</ele>
  <time>2011-10-13T06:37:00Z</time>
  <speed>2.690000</speed>
</trkpt>
<trkpt lat="32.584064484" lon="35.001712799">
  <ele>87.334595</ele>
  <time>2011-10-13T06:37:01Z</time>
  <speed>2.870000</speed>
</trkpt>
<trkpt lat="32.584033966" lon="35.001739502">
  <ele>87.910767</ele>
  <time>2011-10-13T06:37:03Z</time>
  <speed>1.390000</speed>
</trkpt>
<trkpt lat="32.584030151" lon="35.001777649">
  <ele>87.520142</ele>
  <time>2011-10-13T06:37:13Z</time>
  <speed>0.690000</speed>
</trkpt>
<trkpt lat="32.584022522" lon="35.001811981">
  <ele>88.000610</ele>
  <time>2011-10-13T06:38:08Z</time>
  <speed>0.930000</speed>
</trkpt>
<trkpt lat="32.584011078" lon="35.001850128">
  <ele>88.057251</ele>
  <time>2011-10-13T06:38:11Z</time>
  <speed>1.250000</speed>
</trkpt>
<trkpt lat="32.584011078" lon="35.001892090">
  <ele>88.481079</ele>
  <time>2011-10-13T06:38:13Z</time>
  <speed>1.270000</speed>
</trkpt>
<trkpt lat="32.584007263" lon="35.001922607">
  <ele>89.233032</ele>
  <time>2011-10-13T06:38:15Z</time>
  <speed>0.520000</speed>
</trkpt>
<trkpt lat="32.583988190" lon="35.001956940">
  <ele>89.576782</ele>
  <time>2011-10-13T06:38:19Z</time>
  <speed>1.730000</speed>
</trkpt>
<trkpt lat="32.583976746" lon="35.001991272">
  <ele>89.613892</ele>
  <time>2011-10-13T06:38:21Z</time>
  <speed>2.000000</speed>
</trkpt>
<trkpt lat="32.583969116" lon="35.002040863">
  <ele>89.908813</ele>
  <time>2011-10-13T06:38:23Z</time>
  <speed>1.970000</speed>
</trkpt>
<trkpt lat="32.583953857" lon="35.002086639">
  <ele>90.162720</ele>
  <time>2011-10-13T06:38:25Z</time>
  <speed>1.890000</speed>
</trkpt>
<trkpt lat="32.583938599" lon="35.002128601">
  <ele>90.203735</ele>
  <time>2011-10-13T06:38:27Z</time>
  <speed>2.010000</speed>
</trkpt>
<trkpt lat="32.583923340" lon="35.002162933">
  <ele>90.125610</ele>
  <time>2011-10-13T06:38:29Z</time>
  <speed>1.590000</speed>
</trkpt>
<trkpt lat="32.583908081" lon="35.002197266">
  <ele>89.986938</ele>
  <time>2011-10-13T06:38:31Z</time>
  <speed>1.760000</speed>
</trkpt>
<trkpt lat="32.583881378" lon="35.002223969">
  <ele>90.350220</ele>
  <time>2011-10-13T06:38:33Z</time>
  <speed>1.820000</speed>
</trkpt>
<trkpt lat="32.583862305" lon="35.002258301">
  <ele>89.365845</ele>
  <time>2011-10-13T06:38:35Z</time>
  <speed>1.710000</speed>
</trkpt>
<trkpt lat="32.583835602" lon="35.002281189">
  <ele>89.281860</ele>
  <time>2011-10-13T06:38:37Z</time>
  <speed>1.520000</speed>
</trkpt>
<trkpt lat="32.583812714" lon="35.002307892">
  <ele>88.965454</ele>
  <time>2011-10-13T06:38:39Z</time>
  <speed>1.950000</speed>
</trkpt>
<trkpt lat="32.583778381" lon="35.002326965">
  <ele>88.438110</ele>
  <time>2011-10-13T06:38:41Z</time>
  <speed>2.190000</speed>
</trkpt>
<trkpt lat="32.583744049" lon="35.002342224">
  <ele>87.631470</ele>
  <time>2011-10-13T06:38:43Z</time>
  <speed>2.120000</speed>
</trkpt>
<trkpt lat="32.583705902" lon="35.002368927">
  <ele>87.531860</ele>
  <time>2011-10-13T06:38:45Z</time>
  <speed>2.320000</speed>
</trkpt>
<trkpt lat="32.583671570" lon="35.002395630">
  <ele>86.836548</ele>
  <time>2011-10-13T06:38:47Z</time>
  <speed>2.280000</speed>
</trkpt>
<trkpt lat="32.583641052" lon="35.002418518">
  <ele>86.315063</ele>
  <time>2011-10-13T06:38:49Z</time>
  <speed>2.230000</speed>
</trkpt>
<trkpt lat="32.583610535" lon="35.002456665">
  <ele>85.656860</ele>
  <time>2011-10-13T06:38:51Z</time>
  <speed>2.220000</speed>
</trkpt>
<trkpt lat="32.583580017" lon="35.002483368">
  <ele>85.037720</ele>
  <time>2011-10-13T06:38:53Z</time>
  <speed>1.920000</speed>
</trkpt>
<trkpt lat="32.583549500" lon="35.002502441">
  <ele>84.356079</ele>
  <time>2011-10-13T06:38:55Z</time>
  <speed>1.920000</speed>
</trkpt>
<trkpt lat="32.583518982" lon="35.002525330">
  <ele>83.457642</ele>
  <time>2011-10-13T06:38:57Z</time>
  <speed>1.920000</speed>
</trkpt>
<trkpt lat="32.583492279" lon="35.002548218">
  <ele>82.356079</ele>
  <time>2011-10-13T06:38:59Z</time>
  <speed>1.770000</speed>
</trkpt>
<trkpt lat="32.583461761" lon="35.002578735">
  <ele>81.404907</ele>
  <time>2011-10-13T06:39:01Z</time>
  <speed>2.000000</speed>
</trkpt>
<trkpt lat="32.583438873" lon="35.002624512">
  <ele>80.354126</ele>
  <time>2011-10-13T06:39:03Z</time>
  <speed>2.090000</speed>
</trkpt>
<trkpt lat="32.583415985" lon="35.002666473">
  <ele>79.547485</ele>
  <time>2011-10-13T06:39:05Z</time>
  <speed>2.070000</speed>
</trkpt>
<trkpt lat="32.583377838" lon="35.002696991">
  <ele>78.670532</ele>
  <time>2011-10-13T06:39:07Z</time>
  <speed>1.960000</speed>
</trkpt>
<trkpt lat="32.583343506" lon="35.002716064">
  <ele>77.276001</ele>
  <time>2011-10-13T06:39:09Z</time>
  <speed>1.920000</speed>
</trkpt>
<trkpt lat="32.583305359" lon="35.002735138">
  <ele>76.404907</ele>
  <time>2011-10-13T06:39:11Z</time>
  <speed>2.300000</speed>
</trkpt>
<trkpt lat="32.583274841" lon="35.002754211">
  <ele>75.887329</ele>
  <time>2011-10-13T06:39:13Z</time>
  <speed>1.990000</speed>
</trkpt>
<trkpt lat="32.583240509" lon="35.002777100">
  <ele>74.984985</ele>
  <time>2011-10-13T06:39:15Z</time>
  <speed>2.080000</speed>
</trkpt>
<trkpt lat="32.583202362" lon="35.002799988">
  <ele>73.785767</ele>
  <time>2011-10-13T06:39:17Z</time>
  <speed>2.090000</speed>
</trkpt>
<trkpt lat="32.583175659" lon="35.002834320">
  <ele>73.449829</ele>
  <time>2011-10-13T06:39:19Z</time>
  <speed>2.020000</speed>
</trkpt>
<trkpt lat="32.583148956" lon="35.002861023">
  <ele>72.475220</ele>
  <time>2011-10-13T06:39:21Z</time>
  <speed>1.720000</speed>
</trkpt>
<trkpt lat="32.583110809" lon="35.002891541">
  <ele>72.354126</ele>
  <time>2011-10-13T06:39:23Z</time>
  <speed>2.110000</speed>
</trkpt>
<trkpt lat="32.583072662" lon="35.002918243">
  <ele>72.803345</ele>
  <time>2011-10-13T06:39:25Z</time>
  <speed>2.220000</speed>
</trkpt>
<trkpt lat="32.583045959" lon="35.002956390">
  <ele>72.479126</ele>
  <time>2011-10-13T06:39:27Z</time>
  <speed>2.290000</speed>
</trkpt>
<trkpt lat="32.583019257" lon="35.003002167">
  <ele>72.971313</ele>
  <time>2011-10-13T06:39:29Z</time>
  <speed>2.080000</speed>
</trkpt>
<trkpt lat="32.583000183" lon="35.003040314">
  <ele>73.029907</ele>
  <time>2011-10-13T06:39:31Z</time>
  <speed>1.650000</speed>
</trkpt>
<trkpt lat="32.582965851" lon="35.003074646">
  <ele>73.854126</ele>
  <time>2011-10-13T06:39:33Z</time>
  <speed>1.980000</speed>
</trkpt>
<trkpt lat="32.582920074" lon="35.003116608">
  <ele>76.082642</ele>
  <time>2011-10-13T06:39:35Z</time>
  <speed>2.390000</speed>
</trkpt>
<trkpt lat="32.582881927" lon="35.003135681">
  <ele>76.137329</ele>
  <time>2011-10-13T06:39:37Z</time>
  <speed>2.010000</speed>
</trkpt>
<trkpt lat="32.582851410" lon="35.003158569">
  <ele>76.201782</ele>
  <time>2011-10-13T06:39:39Z</time>
  <speed>2.180000</speed>
</trkpt>
<trkpt lat="32.582820892" lon="35.003200531">
  <ele>75.654907</ele>
  <time>2011-10-13T06:39:41Z</time>
  <speed>2.300000</speed>
</trkpt>
<trkpt lat="32.582794189" lon="35.003219604">
  <ele>75.281860</ele>
  <time>2011-10-13T06:39:42Z</time>
  <speed>3.150000</speed>
</trkpt>
<trkpt lat="32.582771301" lon="35.003246307">
  <ele>75.651001</ele>
  <time>2011-10-13T06:39:43Z</time>
  <speed>2.940000</speed>
</trkpt>
<trkpt lat="32.582748413" lon="35.003265381">
  <ele>75.592407</ele>
  <time>2011-10-13T06:39:44Z</time>
  <speed>2.750000</speed>
</trkpt>
<trkpt lat="32.582710266" lon="35.003295898">
  <ele>74.801392</ele>
  <time>2011-10-13T06:39:46Z</time>
  <speed>2.350000</speed>
</trkpt>
<trkpt lat="32.582668304" lon="35.003303528">
  <ele>76.412720</ele>
  <time>2011-10-13T06:39:48Z</time>
  <speed>1.630000</speed>
</trkpt>
<trkpt lat="32.582630157" lon="35.003314972">
  <ele>77.785767</ele>
  <time>2011-10-13T06:39:50Z</time>
  <speed>2.070000</speed>
</trkpt>
<trkpt lat="32.582584381" lon="35.003330231">
  <ele>79.246704</ele>
  <time>2011-10-13T06:39:52Z</time>
  <speed>2.270000</speed>
</trkpt>
<trkpt lat="32.582538605" lon="35.003349304">
  <ele>80.750610</ele>
  <time>2011-10-13T06:39:54Z</time>
  <speed>2.280000</speed>
</trkpt>
<trkpt lat="32.582492828" lon="35.003364563">
  <ele>82.094360</ele>
  <time>2011-10-13T06:39:56Z</time>
  <speed>2.380000</speed>
</trkpt>
<trkpt lat="32.582447052" lon="35.003387451">
  <ele>82.885376</ele>
  <time>2011-10-13T06:39:58Z</time>
  <speed>2.290000</speed>
</trkpt>
<trkpt lat="32.582412720" lon="35.003414154">
  <ele>83.225220</ele>
  <time>2011-10-13T06:40:00Z</time>
  <speed>2.290000</speed>
</trkpt>
<trkpt lat="32.582374573" lon="35.003444672">
  <ele>83.984985</ele>
  <time>2011-10-13T06:40:02Z</time>
  <speed>2.540000</speed>
</trkpt>
<trkpt lat="32.582328796" lon="35.003448486">
  <ele>84.213501</ele>
  <time>2011-10-13T06:40:04Z</time>
  <speed>2.860000</speed>
</trkpt>
<trkpt lat="32.582302094" lon="35.003440857">
  <ele>85.279907</ele>
  <time>2011-10-13T06:40:05Z</time>
  <speed>2.240000</speed>
</trkpt>
<trkpt lat="32.582256317" lon="35.003448486">
  <ele>86.617798</ele>
  <time>2011-10-13T06:40:07Z</time>
  <speed>2.060000</speed>
</trkpt>
<trkpt lat="32.582214355" lon="35.003456116">
  <ele>87.449829</ele>
  <time>2011-10-13T06:40:09Z</time>
  <speed>2.130000</speed>
</trkpt>
<trkpt lat="32.582168579" lon="35.003467560">
  <ele>88.246704</ele>
  <time>2011-10-13T06:40:11Z</time>
  <speed>2.090000</speed>
</trkpt>
<trkpt lat="32.582130432" lon="35.003479004">
  <ele>88.690063</ele>
  <time>2011-10-13T06:40:13Z</time>
  <speed>2.050000</speed>
</trkpt>
<trkpt lat="32.582096100" lon="35.003501892">
  <ele>89.281860</ele>
  <time>2011-10-13T06:40:15Z</time>
  <speed>1.980000</speed>
</trkpt>
<trkpt lat="32.582061768" lon="35.003524780">
  <ele>89.543579</ele>
  <time>2011-10-13T06:40:17Z</time>
  <speed>2.220000</speed>
</trkpt>
<trkpt lat="32.582023621" lon="35.003547668">
  <ele>89.623657</ele>
  <time>2011-10-13T06:40:19Z</time>
  <speed>2.510000</speed>
</trkpt>
<trkpt lat="32.581981659" lon="35.003578186">
  <ele>89.500610</ele>
  <time>2011-10-13T06:40:21Z</time>
  <speed>2.250000</speed>
</trkpt>
<trkpt lat="32.581954956" lon="35.003620148">
  <ele>90.301392</ele>
  <time>2011-10-13T06:40:23Z</time>
  <speed>2.030000</speed>
</trkpt>
<trkpt lat="32.581924438" lon="35.003646851">
  <ele>90.742798</ele>
  <time>2011-10-13T06:40:25Z</time>
  <speed>1.830000</speed>
</trkpt>
<trkpt lat="32.581882477" lon="35.003658295">
  <ele>90.859985</ele>
  <time>2011-10-13T06:40:27Z</time>
  <speed>1.890000</speed>
</trkpt>
<trkpt lat="32.581844330" lon="35.003681183">
  <ele>90.979126</ele>
  <time>2011-10-13T06:40:29Z</time>
  <speed>2.180000</speed>
</trkpt>
<trkpt lat="32.581809998" lon="35.003711700">
  <ele>91.399048</ele>
  <time>2011-10-13T06:40:31Z</time>
  <speed>1.940000</speed>
</trkpt>
<trkpt lat="32.581768036" lon="35.003730774">
  <ele>91.697876</ele>
  <time>2011-10-13T06:40:33Z</time>
  <speed>2.020000</speed>
</trkpt>
<trkpt lat="32.581733704" lon="35.003761292">
  <ele>91.797485</ele>
  <time>2011-10-13T06:40:35Z</time>
  <speed>2.060000</speed>
</trkpt>
<trkpt lat="32.581703186" lon="35.003784180">
  <ele>92.283813</ele>
  <time>2011-10-13T06:40:37Z</time>
  <speed>2.050000</speed>
</trkpt>
<trkpt lat="32.581668854" lon="35.003818512">
  <ele>93.490845</ele>
  <time>2011-10-13T06:40:39Z</time>
  <speed>2.080000</speed>
</trkpt>
<trkpt lat="32.581630707" lon="35.003852844">
  <ele>94.975220</ele>
  <time>2011-10-13T06:40:41Z</time>
  <speed>1.940000</speed>
</trkpt>
<trkpt lat="32.581592560" lon="35.003883362">
  <ele>96.861938</ele>
  <time>2011-10-13T06:40:43Z</time>
  <speed>2.110000</speed>
</trkpt>
<trkpt lat="32.581554413" lon="35.003913879">
  <ele>97.615845</ele>
  <time>2011-10-13T06:40:45Z</time>
  <speed>2.130000</speed>
</trkpt>
<trkpt lat="32.581523895" lon="35.003948212">
  <ele>98.541626</ele>
  <time>2011-10-13T06:40:47Z</time>
  <speed>1.920000</speed>
</trkpt>
<trkpt lat="32.581493378" lon="35.003978729">
  <ele>98.721313</ele>
  <time>2011-10-13T06:40:49Z</time>
  <speed>2.060000</speed>
</trkpt>
<trkpt lat="32.581455231" lon="35.003997803">
  <ele>99.145142</ele>
  <time>2011-10-13T06:40:51Z</time>
  <speed>2.090000</speed>
</trkpt>
<trkpt lat="32.581417084" lon="35.004032135">
  <ele>101.510376</ele>
  <time>2011-10-13T06:40:53Z</time>
  <speed>2.080000</speed>
</trkpt>
<trkpt lat="32.581386566" lon="35.004035950">
  <ele>103.770142</ele>
  <time>2011-10-13T06:40:54Z</time>
  <speed>2.030000</speed>
</trkpt>
<trkpt lat="32.581348419" lon="35.004055023">
  <ele>104.807251</ele>
  <time>2011-10-13T06:40:56Z</time>
  <speed>2.170000</speed>
</trkpt>
<trkpt lat="32.581317902" lon="35.004077911">
  <ele>105.445923</ele>
  <time>2011-10-13T06:40:58Z</time>
  <speed>2.180000</speed>
</trkpt>
<trkpt lat="32.581283569" lon="35.004100800">
  <ele>106.545532</ele>
  <time>2011-10-13T06:41:00Z</time>
  <speed>2.270000</speed>
</trkpt>
<trkpt lat="32.581249237" lon="35.004123688">
  <ele>106.604126</ele>
  <time>2011-10-13T06:41:02Z</time>
  <speed>2.110000</speed>
</trkpt>
<trkpt lat="32.581218719" lon="35.004150391">
  <ele>106.205688</ele>
  <time>2011-10-13T06:41:04Z</time>
  <speed>2.080000</speed>
</trkpt>
<trkpt lat="32.581192017" lon="35.004173279">
  <ele>106.176392</ele>
  <time>2011-10-13T06:41:06Z</time>
  <speed>1.860000</speed>
</trkpt>
<trkpt lat="32.581172943" lon="35.004203796">
  <ele>106.526001</ele>
  <time>2011-10-13T06:41:08Z</time>
  <speed>2.080000</speed>
</trkpt>
<trkpt lat="32.581150055" lon="35.004234314">
  <ele>107.291626</ele>
  <time>2011-10-13T06:41:10Z</time>
  <speed>1.980000</speed>
</trkpt>
<trkpt lat="32.581119537" lon="35.004261017">
  <ele>106.865845</ele>
  <time>2011-10-13T06:41:12Z</time>
  <speed>2.000000</speed>
</trkpt>
<trkpt lat="32.581092834" lon="35.004287720">
  <ele>106.578735</ele>
  <time>2011-10-13T06:41:14Z</time>
  <speed>1.860000</speed>
</trkpt>
<trkpt lat="32.581066132" lon="35.004329681">
  <ele>105.772095</ele>
  <time>2011-10-13T06:41:16Z</time>
  <speed>2.350000</speed>
</trkpt>
<trkpt lat="32.581035614" lon="35.004364014">
  <ele>105.479126</ele>
  <time>2011-10-13T06:41:18Z</time>
  <speed>2.130000</speed>
</trkpt>
<trkpt lat="32.581008911" lon="35.004390717">
  <ele>105.002563</ele>
  <time>2011-10-13T06:41:20Z</time>
  <speed>1.830000</speed>
</trkpt>
<trkpt lat="32.580989838" lon="35.004436493">
  <ele>106.332642</ele>
  <time>2011-10-13T06:41:22Z</time>
  <speed>1.730000</speed>
</trkpt>
<trkpt lat="32.580966949" lon="35.004474640">
  <ele>107.551392</ele>
  <time>2011-10-13T06:41:24Z</time>
  <speed>1.890000</speed>
</trkpt>
<trkpt lat="32.580947876" lon="35.004516602">
  <ele>108.199829</ele>
  <time>2011-10-13T06:41:26Z</time>
  <speed>2.020000</speed>
</trkpt>
<trkpt lat="32.580940247" lon="35.004547119">
  <ele>108.983032</ele>
  <time>2011-10-13T06:41:27Z</time>
  <speed>2.360000</speed>
</trkpt>
<trkpt lat="32.580928802" lon="35.004596710">
  <ele>108.961548</ele>
  <time>2011-10-13T06:41:29Z</time>
  <speed>2.380000</speed>
</trkpt>
<trkpt lat="32.580917358" lon="35.004642487">
  <ele>108.815063</ele>
  <time>2011-10-13T06:41:31Z</time>
  <speed>2.140000</speed>
</trkpt>
<trkpt lat="32.580902100" lon="35.004692078">
  <ele>110.350220</ele>
  <time>2011-10-13T06:41:33Z</time>
  <speed>1.900000</speed>
</trkpt>
<trkpt lat="32.580890656" lon="35.004722595">
  <ele>111.358032</ele>
  <time>2011-10-13T06:41:35Z</time>
  <speed>1.500000</speed>
</trkpt>
<trkpt lat="32.580894470" lon="35.004756927">
  <ele>111.916626</ele>
  <time>2011-10-13T06:41:37Z</time>
  <speed>1.870000</speed>
</trkpt>
<trkpt lat="32.580902100" lon="35.004810333">
  <ele>112.350220</ele>
  <time>2011-10-13T06:41:39Z</time>
  <speed>2.350000</speed>
</trkpt>
<trkpt lat="32.580913544" lon="35.004840851">
  <ele>112.693970</ele>
  <time>2011-10-13T06:41:40Z</time>
  <speed>2.880000</speed>
</trkpt>
<trkpt lat="32.580924988" lon="35.004871368">
  <ele>112.715454</ele>
  <time>2011-10-13T06:41:41Z</time>
  <speed>2.420000</speed>
</trkpt>
<trkpt lat="32.580921173" lon="35.004920959">
  <ele>112.875610</ele>
  <time>2011-10-13T06:41:43Z</time>
  <speed>2.290000</speed>
</trkpt>
<trkpt lat="32.580902100" lon="35.004966736">
  <ele>113.063110</ele>
  <time>2011-10-13T06:41:45Z</time>
  <speed>2.410000</speed>
</trkpt>
<trkpt lat="32.580894470" lon="35.005012512">
  <ele>113.522095</ele>
  <time>2011-10-13T06:41:47Z</time>
  <speed>2.210000</speed>
</trkpt>
<trkpt lat="32.580875397" lon="35.005062103">
  <ele>115.039673</ele>
  <time>2011-10-13T06:41:49Z</time>
  <speed>2.140000</speed>
</trkpt>
<trkpt lat="32.580883026" lon="35.005111694">
  <ele>115.897095</ele>
  <time>2011-10-13T06:41:51Z</time>
  <speed>1.990000</speed>
</trkpt>
<trkpt lat="32.580879211" lon="35.005157471">
  <ele>116.637329</ele>
  <time>2011-10-13T06:41:53Z</time>
  <speed>2.310000</speed>
</trkpt>
<trkpt lat="32.580867767" lon="35.005203247">
  <ele>116.709595</ele>
  <time>2011-10-13T06:41:55Z</time>
  <speed>2.240000</speed>
</trkpt>
<trkpt lat="32.580867767" lon="35.005252838">
  <ele>115.994751</ele>
  <time>2011-10-13T06:41:57Z</time>
  <speed>2.170000</speed>
</trkpt>
<trkpt lat="32.580863953" lon="35.005294800">
  <ele>115.719360</ele>
  <time>2011-10-13T06:41:59Z</time>
  <speed>2.210000</speed>
</trkpt>
<trkpt lat="32.580848694" lon="35.005336761">
  <ele>115.500610</ele>
  <time>2011-10-13T06:42:01Z</time>
  <speed>1.960000</speed>
</trkpt>
<trkpt lat="32.580837250" lon="35.005386353">
  <ele>117.217407</ele>
  <time>2011-10-13T06:42:03Z</time>
  <speed>2.470000</speed>
</trkpt>
<trkpt lat="32.580833435" lon="35.005435944">
  <ele>117.559204</ele>
  <time>2011-10-13T06:42:05Z</time>
  <speed>2.280000</speed>
</trkpt>
<trkpt lat="32.580825806" lon="35.005477905">
  <ele>117.668579</ele>
  <time>2011-10-13T06:42:07Z</time>
  <speed>2.240000</speed>
</trkpt>
<trkpt lat="32.580825806" lon="35.005527496">
  <ele>117.139282</ele>
  <time>2011-10-13T06:42:09Z</time>
  <speed>2.200000</speed>
</trkpt>
<trkpt lat="32.580829620" lon="35.005596161">
  <ele>118.574829</ele>
  <time>2011-10-13T06:42:11Z</time>
  <speed>2.610000</speed>
</trkpt>
<trkpt lat="32.580837250" lon="35.005626678">
  <ele>119.096313</ele>
  <time>2011-10-13T06:42:12Z</time>
  <speed>2.630000</speed>
</trkpt>
<trkpt lat="32.580833435" lon="35.005661011">
  <ele>120.246704</ele>
  <time>2011-10-13T06:42:13Z</time>
  <speed>2.330000</speed>
</trkpt>
<trkpt lat="32.580829620" lon="35.005710602">
  <ele>120.994751</ele>
  <time>2011-10-13T06:42:15Z</time>
  <speed>2.610000</speed>
</trkpt>
<trkpt lat="32.580825806" lon="35.005760193">
  <ele>121.971313</ele>
  <time>2011-10-13T06:42:17Z</time>
  <speed>2.360000</speed>
</trkpt>
<trkpt lat="32.580829620" lon="35.005809784">
  <ele>122.461548</ele>
  <time>2011-10-13T06:42:19Z</time>
  <speed>2.570000</speed>
</trkpt>
<trkpt lat="32.580833435" lon="35.005859375">
  <ele>122.469360</ele>
  <time>2011-10-13T06:42:21Z</time>
  <speed>2.310000</speed>
</trkpt>
<trkpt lat="32.580829620" lon="35.005912781">
  <ele>122.065063</ele>
  <time>2011-10-13T06:42:23Z</time>
  <speed>2.410000</speed>
</trkpt>
<trkpt lat="32.580833435" lon="35.005947113">
  <ele>122.565063</ele>
  <time>2011-10-13T06:42:24Z</time>
  <speed>2.570000</speed>
</trkpt>
<trkpt lat="32.580825806" lon="35.005996704">
  <ele>122.389282</ele>
  <time>2011-10-13T06:42:26Z</time>
  <speed>2.330000</speed>
</trkpt>
<trkpt lat="32.580825806" lon="35.006042480">
  <ele>122.953735</ele>
  <time>2011-10-13T06:42:28Z</time>
  <speed>2.410000</speed>
</trkpt>
<trkpt lat="32.580818176" lon="35.006092072">
  <ele>123.699829</ele>
  <time>2011-10-13T06:42:30Z</time>
  <speed>2.270000</speed>
</trkpt>
<trkpt lat="32.580818176" lon="35.006141663">
  <ele>124.326782</ele>
  <time>2011-10-13T06:42:32Z</time>
  <speed>2.050000</speed>
</trkpt>
<trkpt lat="32.580814362" lon="35.006187439">
  <ele>124.402954</ele>
  <time>2011-10-13T06:42:34Z</time>
  <speed>2.340000</speed>
</trkpt>
<trkpt lat="32.580799103" lon="35.006237030">
  <ele>124.211548</ele>
  <time>2011-10-13T06:42:36Z</time>
  <speed>2.370000</speed>
</trkpt>
<trkpt lat="32.580783844" lon="35.006290436">
  <ele>123.699829</ele>
  <time>2011-10-13T06:42:38Z</time>
  <speed>2.470000</speed>
</trkpt>
<trkpt lat="32.580776215" lon="35.006340027">
  <ele>123.289673</ele>
  <time>2011-10-13T06:42:40Z</time>
  <speed>2.440000</speed>
</trkpt>
<trkpt lat="32.580776215" lon="35.006389618">
  <ele>123.822876</ele>
  <time>2011-10-13T06:42:42Z</time>
  <speed>2.260000</speed>
</trkpt>
<trkpt lat="32.580780029" lon="35.006439209">
  <ele>125.483032</ele>
  <time>2011-10-13T06:42:44Z</time>
  <speed>2.480000</speed>
</trkpt>
<trkpt lat="32.580791473" lon="35.006488800">
  <ele>127.129517</ele>
  <time>2011-10-13T06:42:46Z</time>
  <speed>2.410000</speed>
</trkpt>
<trkpt lat="32.580791473" lon="35.006542206">
  <ele>127.361938</ele>
  <time>2011-10-13T06:42:48Z</time>
  <speed>2.400000</speed>
</trkpt>
<trkpt lat="32.580799103" lon="35.006603241">
  <ele>127.984985</ele>
  <time>2011-10-13T06:42:50Z</time>
  <speed>2.570000</speed>
</trkpt>
<trkpt lat="32.580776215" lon="35.006656647">
  <ele>126.934204</ele>
  <time>2011-10-13T06:42:52Z</time>
  <speed>3.050000</speed>
</trkpt>
<trkpt lat="32.580760956" lon="35.006702423">
  <ele>126.334595</ele>
  <time>2011-10-13T06:42:54Z</time>
  <speed>2.170000</speed>
</trkpt>
<trkpt lat="32.580753326" lon="35.006744385">
  <ele>126.570923</ele>
  <time>2011-10-13T06:42:56Z</time>
  <speed>2.000000</speed>
</trkpt>
<trkpt lat="32.580753326" lon="35.006782532">
  <ele>126.947876</ele>
  <time>2011-10-13T06:42:58Z</time>
  <speed>2.000000</speed>
</trkpt>
<trkpt lat="32.580749512" lon="35.006828308">
  <ele>126.426392</ele>
  <time>2011-10-13T06:43:00Z</time>
  <speed>2.300000</speed>
</trkpt>
<trkpt lat="32.580757141" lon="35.006881714">
  <ele>126.184204</ele>
  <time>2011-10-13T06:43:02Z</time>
  <speed>2.100000</speed>
</trkpt>
<trkpt lat="32.580753326" lon="35.006938934">
  <ele>125.838501</ele>
  <time>2011-10-13T06:43:04Z</time>
  <speed>2.260000</speed>
</trkpt>
<trkpt lat="32.580760956" lon="35.006992340">
  <ele>126.776001</ele>
  <time>2011-10-13T06:43:06Z</time>
  <speed>2.370000</speed>
</trkpt>
<trkpt lat="32.580776215" lon="35.007041931">
  <ele>126.578735</ele>
  <time>2011-10-13T06:43:08Z</time>
  <speed>2.420000</speed>
</trkpt>
<trkpt lat="32.580776215" lon="35.007091522">
  <ele>126.912720</ele>
  <time>2011-10-13T06:43:10Z</time>
  <speed>2.520000</speed>
</trkpt>
<trkpt lat="32.580776215" lon="35.007133484">
  <ele>127.252563</ele>
  <time>2011-10-13T06:43:12Z</time>
  <speed>2.380000</speed>
</trkpt>
<trkpt lat="32.580776215" lon="35.007183075">
  <ele>127.951782</ele>
  <time>2011-10-13T06:43:14Z</time>
  <speed>2.120000</speed>
</trkpt>
<trkpt lat="32.580776215" lon="35.007228851">
  <ele>127.791626</ele>
  <time>2011-10-13T06:43:16Z</time>
  <speed>1.910000</speed>
</trkpt>
<trkpt lat="32.580780029" lon="35.007274628">
  <ele>127.609985</ele>
  <time>2011-10-13T06:43:18Z</time>
  <speed>2.060000</speed>
</trkpt>
<trkpt lat="32.580780029" lon="35.007312775">
  <ele>127.264282</ele>
  <time>2011-10-13T06:43:20Z</time>
  <speed>2.060000</speed>
</trkpt>
<trkpt lat="32.580802917" lon="35.007358551">
  <ele>127.834595</ele>
  <time>2011-10-13T06:43:22Z</time>
  <speed>2.450000</speed>
</trkpt>
<trkpt lat="32.580814362" lon="35.007411957">
  <ele>128.665283</ele>
  <time>2011-10-13T06:43:24Z</time>
  <speed>2.490000</speed>
</trkpt>
<trkpt lat="32.580802917" lon="35.007453918">
  <ele>128.790283</ele>
  <time>2011-10-13T06:43:26Z</time>
  <speed>2.260000</speed>
</trkpt>
<trkpt lat="32.580795288" lon="35.007499695">
  <ele>129.747314</ele>
  <time>2011-10-13T06:43:28Z</time>
  <speed>2.090000</speed>
</trkpt>
<trkpt lat="32.580783844" lon="35.007549286">
  <ele>130.145752</ele>
  <time>2011-10-13T06:43:30Z</time>
  <speed>2.140000</speed>
</trkpt>
<trkpt lat="32.580780029" lon="35.007591248">
  <ele>128.794189</ele>
  <time>2011-10-13T06:43:32Z</time>
  <speed>2.100000</speed>
</trkpt>
<trkpt lat="32.580772400" lon="35.007629395">
  <ele>128.372314</ele>
  <time>2011-10-13T06:43:34Z</time>
  <speed>2.180000</speed>
</trkpt>
<trkpt lat="32.580760956" lon="35.007671356">
  <ele>128.255127</ele>
  <time>2011-10-13T06:43:36Z</time>
  <speed>2.180000</speed>
</trkpt>
<trkpt lat="32.580749512" lon="35.007709503">
  <ele>129.087158</ele>
  <time>2011-10-13T06:43:38Z</time>
  <speed>1.820000</speed>
</trkpt>
<trkpt lat="32.580741882" lon="35.007755280">
  <ele>128.997314</ele>
  <time>2011-10-13T06:43:40Z</time>
  <speed>2.120000</speed>
</trkpt>
<trkpt lat="32.580741882" lon="35.007797241">
  <ele>128.981689</ele>
  <time>2011-10-13T06:43:42Z</time>
  <speed>1.820000</speed>
</trkpt>
<trkpt lat="32.580730438" lon="35.007839203">
  <ele>128.669189</ele>
  <time>2011-10-13T06:43:44Z</time>
  <speed>1.880000</speed>
</trkpt>
<trkpt lat="32.580730438" lon="35.007881165">
  <ele>129.637939</ele>
  <time>2011-10-13T06:43:46Z</time>
  <speed>1.420000</speed>
</trkpt>
<trkpt lat="32.580738068" lon="35.007923126">
  <ele>131.559814</ele>
  <time>2011-10-13T06:43:48Z</time>
  <speed>1.040000</speed>
</trkpt>
<trkpt lat="32.580768585" lon="35.007946014">
  <ele>132.817627</ele>
  <time>2011-10-13T06:43:51Z</time>
  <speed>1.290000</speed>
</trkpt>
<trkpt lat="32.580802917" lon="35.007942200">
  <ele>133.208252</ele>
  <time>2011-10-13T06:43:53Z</time>
  <speed>1.750000</speed>
</trkpt>
<trkpt lat="32.580841064" lon="35.007934570">
  <ele>133.688721</ele>
  <time>2011-10-13T06:43:55Z</time>
  <speed>1.570000</speed>
</trkpt>
<trkpt lat="32.580875397" lon="35.007919312">
  <ele>134.298096</ele>
  <time>2011-10-13T06:43:57Z</time>
  <speed>1.730000</speed>
</trkpt>
<trkpt lat="32.580898285" lon="35.007896423">
  <ele>134.575439</ele>
  <time>2011-10-13T06:43:59Z</time>
  <speed>1.760000</speed>
</trkpt>
<trkpt lat="32.580932617" lon="35.007877350">
  <ele>135.282471</ele>
  <time>2011-10-13T06:44:01Z</time>
  <speed>2.010000</speed>
</trkpt>
<trkpt lat="32.580963135" lon="35.007858276">
  <ele>136.294189</ele>
  <time>2011-10-13T06:44:03Z</time>
  <speed>1.400000</speed>
</trkpt>
<trkpt lat="32.580993652" lon="35.007839203">
  <ele>136.829346</ele>
  <time>2011-10-13T06:44:05Z</time>
  <speed>1.490000</speed>
</trkpt>
<trkpt lat="32.581024170" lon="35.007820129">
  <ele>136.868408</ele>
  <time>2011-10-13T06:44:07Z</time>
  <speed>1.460000</speed>
</trkpt>
<trkpt lat="32.581043243" lon="35.007801056">
  <ele>137.630127</ele>
  <time>2011-10-13T06:44:10Z</time>
  <speed>1.480000</speed>
</trkpt>
<trkpt lat="32.581073761" lon="35.007781982">
  <ele>138.895752</ele>
  <time>2011-10-13T06:44:12Z</time>
  <speed>1.700000</speed>
</trkpt>
<trkpt lat="32.581115723" lon="35.007759094">
  <ele>138.821533</ele>
  <time>2011-10-13T06:44:15Z</time>
  <speed>1.870000</speed>
</trkpt>
<trkpt lat="32.581157684" lon="35.007747650">
  <ele>139.106689</ele>
  <time>2011-10-13T06:44:17Z</time>
  <speed>2.140000</speed>
</trkpt>
<trkpt lat="32.581203461" lon="35.007740021">
  <ele>138.434814</ele>
  <time>2011-10-13T06:44:19Z</time>
  <speed>2.130000</speed>
</trkpt>
<trkpt lat="32.581237793" lon="35.007736206">
  <ele>138.364502</ele>
  <time>2011-10-13T06:44:21Z</time>
  <speed>1.980000</speed>
</trkpt>
<trkpt lat="32.581279755" lon="35.007724762">
  <ele>139.001221</ele>
  <time>2011-10-13T06:44:23Z</time>
  <speed>2.060000</speed>
</trkpt>
<trkpt lat="32.581317902" lon="35.007717133">
  <ele>138.329346</ele>
  <time>2011-10-13T06:44:25Z</time>
  <speed>1.850000</speed>
</trkpt>
<trkpt lat="32.581352234" lon="35.007713318">
  <ele>138.833252</ele>
  <time>2011-10-13T06:44:27Z</time>
  <speed>1.940000</speed>
</trkpt>
<trkpt lat="32.581382751" lon="35.007698059">
  <ele>139.614502</ele>
  <time>2011-10-13T06:44:29Z</time>
  <speed>2.060000</speed>
</trkpt>
<trkpt lat="32.581432343" lon="35.007705688">
  <ele>139.751221</ele>
  <time>2011-10-13T06:44:31Z</time>
  <speed>2.180000</speed>
</trkpt>
<trkpt lat="32.581455231" lon="35.007705688">
  <ele>138.419189</ele>
  <time>2011-10-13T06:44:32Z</time>
  <speed>1.710000</speed>
</trkpt>
<trkpt lat="32.581485748" lon="35.007720947">
  <ele>138.173096</ele>
  <time>2011-10-13T06:44:34Z</time>
  <speed>1.740000</speed>
</trkpt>
<trkpt lat="32.581520081" lon="35.007724762">
  <ele>138.411377</ele>
  <time>2011-10-13T06:44:36Z</time>
  <speed>1.580000</speed>
</trkpt>
<trkpt lat="32.581550598" lon="35.007720947">
  <ele>138.196533</ele>
  <time>2011-10-13T06:44:38Z</time>
  <speed>1.350000</speed>
</trkpt>
<trkpt lat="32.581581116" lon="35.007720947">
  <ele>137.243408</ele>
  <time>2011-10-13T06:44:40Z</time>
  <speed>1.590000</speed>
</trkpt>
<trkpt lat="32.581615448" lon="35.007724762">
  <ele>136.231689</ele>
  <time>2011-10-13T06:44:42Z</time>
  <speed>1.420000</speed>
</trkpt>
<trkpt lat="32.581649780" lon="35.007736206">
  <ele>136.204346</ele>
  <time>2011-10-13T06:44:44Z</time>
  <speed>1.720000</speed>
</trkpt>
<trkpt lat="32.581687927" lon="35.007747650">
  <ele>136.962158</ele>
  <time>2011-10-13T06:44:46Z</time>
  <speed>2.110000</speed>
</trkpt>
<trkpt lat="32.581729889" lon="35.007759094">
  <ele>136.575439</ele>
  <time>2011-10-13T06:44:48Z</time>
  <speed>2.030000</speed>
</trkpt>
<trkpt lat="32.581760406" lon="35.007762909">
  <ele>137.219971</ele>
  <time>2011-10-13T06:44:49Z</time>
  <speed>2.310000</speed>
</trkpt>
<trkpt lat="32.581798553" lon="35.007766724">
  <ele>136.981689</ele>
  <time>2011-10-13T06:44:52Z</time>
  <speed>1.850000</speed>
</trkpt>
<trkpt lat="32.581844330" lon="35.007785797">
  <ele>136.411377</ele>
  <time>2011-10-13T06:44:54Z</time>
  <speed>1.920000</speed>
</trkpt>
<trkpt lat="32.581874847" lon="35.007808685">
  <ele>135.895752</ele>
  <time>2011-10-13T06:44:56Z</time>
  <speed>1.920000</speed>
</trkpt>
<trkpt lat="32.581909180" lon="35.007831573">
  <ele>135.798096</ele>
  <time>2011-10-13T06:44:58Z</time>
  <speed>2.170000</speed>
</trkpt>
<trkpt lat="32.581951141" lon="35.007850647">
  <ele>136.012939</ele>
  <time>2011-10-13T06:45:00Z</time>
  <speed>2.050000</speed>
</trkpt>
<trkpt lat="32.581993103" lon="35.007862091">
  <ele>136.552002</ele>
  <time>2011-10-13T06:45:02Z</time>
  <speed>1.870000</speed>
</trkpt>
<trkpt lat="32.582027435" lon="35.007877350">
  <ele>137.610596</ele>
  <time>2011-10-13T06:45:04Z</time>
  <speed>1.920000</speed>
</trkpt>
<trkpt lat="32.582057953" lon="35.007888794">
  <ele>137.141846</ele>
  <time>2011-10-13T06:45:06Z</time>
  <speed>1.980000</speed>
</trkpt>
<trkpt lat="32.582092285" lon="35.007900238">
  <ele>137.087158</ele>
  <time>2011-10-13T06:45:08Z</time>
  <speed>1.600000</speed>
</trkpt>
<trkpt lat="32.582122803" lon="35.007926941">
  <ele>136.423096</ele>
  <time>2011-10-13T06:45:10Z</time>
  <speed>2.120000</speed>
</trkpt>
<trkpt lat="32.582149506" lon="35.007953644">
  <ele>136.294189</ele>
  <time>2011-10-13T06:45:12Z</time>
  <speed>2.050000</speed>
</trkpt>
<trkpt lat="32.582180023" lon="35.007980347">
  <ele>137.208252</ele>
  <time>2011-10-13T06:45:14Z</time>
  <speed>1.800000</speed>
</trkpt>
<trkpt lat="32.582214355" lon="35.007991791">
  <ele>137.466064</ele>
  <time>2011-10-13T06:45:16Z</time>
  <speed>2.200000</speed>
</trkpt>
<trkpt lat="32.582244873" lon="35.008014679">
  <ele>137.825439</ele>
  <time>2011-10-13T06:45:18Z</time>
  <speed>1.910000</speed>
</trkpt>
<trkpt lat="32.582275391" lon="35.008045197">
  <ele>137.540283</ele>
  <time>2011-10-13T06:45:20Z</time>
  <speed>1.800000</speed>
</trkpt>
<trkpt lat="32.582298279" lon="35.008079529">
  <ele>137.446533</ele>
  <time>2011-10-13T06:45:22Z</time>
  <speed>2.000000</speed>
</trkpt>
<trkpt lat="32.582344055" lon="35.008106232">
  <ele>138.251221</ele>
  <time>2011-10-13T06:45:24Z</time>
  <speed>2.910000</speed>
</trkpt>
<trkpt lat="32.582374573" lon="35.008144379">
  <ele>139.278564</ele>
  <time>2011-10-13T06:45:26Z</time>
  <speed>2.270000</speed>
</trkpt>
<trkpt lat="32.582397461" lon="35.008193970">
  <ele>139.977783</ele>
  <time>2011-10-13T06:45:28Z</time>
  <speed>2.550000</speed>
</trkpt>
<trkpt lat="32.582420349" lon="35.008243561">
  <ele>140.747314</ele>
  <time>2011-10-13T06:45:30Z</time>
  <speed>2.180000</speed>
</trkpt>
<trkpt lat="32.582435608" lon="35.008304596">
  <ele>141.809814</ele>
  <time>2011-10-13T06:45:32Z</time>
  <speed>2.390000</speed>
</trkpt>
<trkpt lat="32.582450867" lon="35.008358002">
  <ele>143.622314</ele>
  <time>2011-10-13T06:45:34Z</time>
  <speed>2.100000</speed>
</trkpt>
<trkpt lat="32.582473755" lon="35.008403778">
  <ele>145.387939</ele>
  <time>2011-10-13T06:45:36Z</time>
  <speed>2.460000</speed>
</trkpt>
<trkpt lat="32.582481384" lon="35.008445740">
  <ele>146.911377</ele>
  <time>2011-10-13T06:45:38Z</time>
  <speed>2.400000</speed>
</trkpt>
<trkpt lat="32.582469940" lon="35.008495331">
  <ele>148.216064</ele>
  <time>2011-10-13T06:45:40Z</time>
  <speed>1.660000</speed>
</trkpt>
<trkpt lat="32.582485199" lon="35.008525848">
  <ele>148.114502</ele>
  <time>2011-10-13T06:45:42Z</time>
  <speed>1.980000</speed>
</trkpt>
<trkpt lat="32.582515717" lon="35.008560181">
  <ele>148.313721</ele>
  <time>2011-10-13T06:45:44Z</time>
  <speed>2.220000</speed>
</trkpt>
<trkpt lat="32.582553864" lon="35.008583069">
  <ele>148.407471</ele>
  <time>2011-10-13T06:45:46Z</time>
  <speed>2.350000</speed>
</trkpt>
<trkpt lat="32.582595825" lon="35.008602142">
  <ele>149.036377</ele>
  <time>2011-10-13T06:45:48Z</time>
  <speed>2.200000</speed>
</trkpt>
<trkpt lat="32.582630157" lon="35.008628845">
  <ele>148.969971</ele>
  <time>2011-10-13T06:45:50Z</time>
  <speed>1.770000</speed>
</trkpt>
<trkpt lat="32.582656860" lon="35.008651733">
  <ele>149.305908</ele>
  <time>2011-10-13T06:45:52Z</time>
  <speed>1.950000</speed>
</trkpt>
<trkpt lat="32.582683563" lon="35.008682251">
  <ele>149.016846</ele>
  <time>2011-10-13T06:45:54Z</time>
  <speed>1.870000</speed>
</trkpt>
<trkpt lat="32.582698822" lon="35.008716583">
  <ele>148.528564</ele>
  <time>2011-10-13T06:45:56Z</time>
  <speed>2.030000</speed>
</trkpt>
<trkpt lat="32.582717896" lon="35.008758545">
  <ele>148.145752</ele>
  <time>2011-10-13T06:45:58Z</time>
  <speed>2.080000</speed>
</trkpt>
<trkpt lat="32.582736969" lon="35.008789063">
  <ele>147.427002</ele>
  <time>2011-10-13T06:46:00Z</time>
  <speed>2.180000</speed>
</trkpt>
<trkpt lat="32.582763672" lon="35.008823395">
  <ele>147.594971</ele>
  <time>2011-10-13T06:46:02Z</time>
  <speed>1.890000</speed>
</trkpt>
<trkpt lat="32.582790375" lon="35.008850098">
  <ele>148.208252</ele>
  <time>2011-10-13T06:46:04Z</time>
  <speed>1.860000</speed>
</trkpt>
<trkpt lat="32.582813263" lon="35.008884430">
  <ele>147.930908</ele>
  <time>2011-10-13T06:46:06Z</time>
  <speed>1.730000</speed>
</trkpt>
<trkpt lat="32.582828522" lon="35.008926392">
  <ele>148.450439</ele>
  <time>2011-10-13T06:46:08Z</time>
  <speed>2.040000</speed>
</trkpt>
<trkpt lat="32.582839966" lon="35.008979797">
  <ele>149.403564</ele>
  <time>2011-10-13T06:46:10Z</time>
  <speed>1.990000</speed>
</trkpt>
<trkpt lat="32.582847595" lon="35.009025574">
  <ele>149.735596</ele>
  <time>2011-10-13T06:46:12Z</time>
  <speed>2.130000</speed>
</trkpt>
<trkpt lat="32.582847595" lon="35.009067535">
  <ele>150.149658</ele>
  <time>2011-10-13T06:46:14Z</time>
  <speed>2.130000</speed>
</trkpt>
<trkpt lat="32.582836151" lon="35.009105682">
  <ele>150.770752</ele>
  <time>2011-10-13T06:46:16Z</time>
  <speed>1.960000</speed>
</trkpt>
<trkpt lat="32.582832336" lon="35.009143829">
  <ele>150.884033</ele>
  <time>2011-10-13T06:46:18Z</time>
  <speed>1.870000</speed>
</trkpt>
<trkpt lat="32.582839966" lon="35.009189606">
  <ele>151.485596</ele>
  <time>2011-10-13T06:46:20Z</time>
  <speed>2.330000</speed>
</trkpt>
<trkpt lat="32.582832336" lon="35.009235382">
  <ele>151.653564</ele>
  <time>2011-10-13T06:46:22Z</time>
  <speed>1.750000</speed>
</trkpt>
<trkpt lat="32.582839966" lon="35.009281158">
  <ele>152.274658</ele>
  <time>2011-10-13T06:46:24Z</time>
  <speed>1.560000</speed>
</trkpt>
<trkpt lat="32.582847595" lon="35.009319305">
  <ele>152.243408</ele>
  <time>2011-10-13T06:46:26Z</time>
  <speed>1.930000</speed>
</trkpt>
<trkpt lat="32.582866669" lon="35.009361267">
  <ele>153.083252</ele>
  <time>2011-10-13T06:46:28Z</time>
  <speed>1.660000</speed>
</trkpt>
<trkpt lat="32.582881927" lon="35.009391785">
  <ele>153.497314</ele>
  <time>2011-10-13T06:46:30Z</time>
  <speed>1.400000</speed>
</trkpt>
<trkpt lat="32.582904816" lon="35.009418488">
  <ele>153.341064</ele>
  <time>2011-10-13T06:46:32Z</time>
  <speed>1.880000</speed>
</trkpt>
<trkpt lat="32.582931519" lon="35.009433746">
  <ele>153.270752</ele>
  <time>2011-10-13T06:46:34Z</time>
  <speed>1.480000</speed>
</trkpt>
<trkpt lat="32.582962036" lon="35.009452820">
  <ele>152.505127</ele>
  <time>2011-10-13T06:46:36Z</time>
  <speed>1.650000</speed>
</trkpt>
<trkpt lat="32.582984924" lon="35.009468079">
  <ele>151.712158</ele>
  <time>2011-10-13T06:46:38Z</time>
  <speed>1.520000</speed>
</trkpt>
<trkpt lat="32.583015442" lon="35.009483337">
  <ele>151.321533</ele>
  <time>2011-10-13T06:46:40Z</time>
  <speed>1.510000</speed>
</trkpt>
<trkpt lat="32.583042145" lon="35.009506226">
  <ele>151.661377</ele>
  <time>2011-10-13T06:46:42Z</time>
  <speed>1.700000</speed>
</trkpt>
<trkpt lat="32.583068848" lon="35.009536743">
  <ele>152.973877</ele>
  <time>2011-10-13T06:46:44Z</time>
  <speed>1.730000</speed>
</trkpt>
<trkpt lat="32.583099365" lon="35.009571075">
  <ele>153.016846</ele>
  <time>2011-10-13T06:46:46Z</time>
  <speed>1.950000</speed>
</trkpt>
<trkpt lat="32.583118439" lon="35.009605408">
  <ele>153.473877</ele>
  <time>2011-10-13T06:46:48Z</time>
  <speed>1.730000</speed>
</trkpt>
<trkpt lat="32.583133698" lon="35.009647369">
  <ele>153.770752</ele>
  <time>2011-10-13T06:46:50Z</time>
  <speed>1.850000</speed>
</trkpt>
<trkpt lat="32.583148956" lon="35.009685516">
  <ele>154.313721</ele>
  <time>2011-10-13T06:46:52Z</time>
  <speed>1.760000</speed>
</trkpt>
<trkpt lat="32.583168030" lon="35.009731293">
  <ele>155.044189</ele>
  <time>2011-10-13T06:46:54Z</time>
  <speed>2.030000</speed>
</trkpt>
<trkpt lat="32.583183289" lon="35.009769440">
  <ele>155.079346</ele>
  <time>2011-10-13T06:46:56Z</time>
  <speed>1.960000</speed>
</trkpt>
<trkpt lat="32.583209991" lon="35.009807587">
  <ele>155.833252</ele>
  <time>2011-10-13T06:46:58Z</time>
  <speed>1.940000</speed>
</trkpt>
<trkpt lat="32.583240509" lon="35.009841919">
  <ele>156.364502</ele>
  <time>2011-10-13T06:47:00Z</time>
  <speed>2.090000</speed>
</trkpt>
<trkpt lat="32.583282471" lon="35.009880066">
  <ele>157.552002</ele>
  <time>2011-10-13T06:47:02Z</time>
  <speed>2.210000</speed>
</trkpt>
<trkpt lat="32.583305359" lon="35.009922028">
  <ele>157.688721</ele>
  <time>2011-10-13T06:47:04Z</time>
  <speed>2.150000</speed>
</trkpt>
<trkpt lat="32.583320618" lon="35.009960175">
  <ele>158.208252</ele>
  <time>2011-10-13T06:47:06Z</time>
  <speed>2.170000</speed>
</trkpt>
<trkpt lat="32.583343506" lon="35.010002136">
  <ele>157.848877</ele>
  <time>2011-10-13T06:47:08Z</time>
  <speed>2.310000</speed>
</trkpt>
<trkpt lat="32.583374023" lon="35.010040283">
  <ele>158.102783</ele>
  <time>2011-10-13T06:47:10Z</time>
  <speed>2.280000</speed>
</trkpt>
<trkpt lat="32.583393097" lon="35.010078430">
  <ele>158.001221</ele>
  <time>2011-10-13T06:47:12Z</time>
  <speed>2.100000</speed>
</trkpt>
<trkpt lat="32.583408356" lon="35.010120392">
  <ele>157.727783</ele>
  <time>2011-10-13T06:47:14Z</time>
  <speed>2.270000</speed>
</trkpt>
<trkpt lat="32.583423615" lon="35.010162354">
  <ele>157.403564</ele>
  <time>2011-10-13T06:47:16Z</time>
  <speed>2.210000</speed>
</trkpt>
<trkpt lat="32.583450317" lon="35.010200500">
  <ele>157.395752</ele>
  <time>2011-10-13T06:47:18Z</time>
  <speed>2.380000</speed>
</trkpt>
<trkpt lat="32.583484650" lon="35.010231018">
  <ele>156.993408</ele>
  <time>2011-10-13T06:47:20Z</time>
  <speed>2.180000</speed>
</trkpt>
<trkpt lat="32.583507538" lon="35.010272980">
  <ele>156.969971</ele>
  <time>2011-10-13T06:47:22Z</time>
  <speed>2.340000</speed>
</trkpt>
<trkpt lat="32.583522797" lon="35.010318756">
  <ele>157.485596</ele>
  <time>2011-10-13T06:47:24Z</time>
  <speed>2.230000</speed>
</trkpt>
<trkpt lat="32.583541870" lon="35.010364532">
  <ele>158.063721</ele>
  <time>2011-10-13T06:47:26Z</time>
  <speed>2.340000</speed>
</trkpt>
<trkpt lat="32.583557129" lon="35.010391235">
  <ele>159.200439</ele>
  <time>2011-10-13T06:47:27Z</time>
  <speed>2.320000</speed>
</trkpt>
<trkpt lat="32.583568573" lon="35.010444641">
  <ele>159.958252</ele>
  <time>2011-10-13T06:47:29Z</time>
  <speed>2.220000</speed>
</trkpt>
<trkpt lat="32.583587646" lon="35.010482788">
  <ele>160.141846</ele>
  <time>2011-10-13T06:47:31Z</time>
  <speed>2.000000</speed>
</trkpt>
<trkpt lat="32.583614349" lon="35.010517120">
  <ele>160.821533</ele>
  <time>2011-10-13T06:47:33Z</time>
  <speed>2.290000</speed>
</trkpt>
<trkpt lat="32.583637238" lon="35.010555267">
  <ele>161.212158</ele>
  <time>2011-10-13T06:47:35Z</time>
  <speed>2.110000</speed>
</trkpt>
<trkpt lat="32.583663940" lon="35.010585785">
  <ele>160.985596</ele>
  <time>2011-10-13T06:47:37Z</time>
  <speed>2.090000</speed>
</trkpt>
<trkpt lat="32.583690643" lon="35.010620117">
  <ele>160.782471</ele>
  <time>2011-10-13T06:47:39Z</time>
  <speed>2.210000</speed>
</trkpt>
<trkpt lat="32.583728790" lon="35.010650635">
  <ele>160.212158</ele>
  <time>2011-10-13T06:47:41Z</time>
  <speed>2.620000</speed>
</trkpt>
<trkpt lat="32.583759308" lon="35.010673523">
  <ele>159.423096</ele>
  <time>2011-10-13T06:47:43Z</time>
  <speed>1.890000</speed>
</trkpt>
<trkpt lat="32.583774567" lon="35.010700226">
  <ele>159.317627</ele>
  <time>2011-10-13T06:47:45Z</time>
  <speed>1.700000</speed>
</trkpt>
<trkpt lat="32.583805084" lon="35.010738373">
  <ele>159.993408</ele>
  <time>2011-10-13T06:47:47Z</time>
  <speed>1.860000</speed>
</trkpt>
<trkpt lat="32.583816528" lon="35.010791779">
  <ele>159.899658</ele>
  <time>2011-10-13T06:47:49Z</time>
  <speed>2.070000</speed>
</trkpt>
<trkpt lat="32.583820343" lon="35.010841370">
  <ele>159.934814</ele>
  <time>2011-10-13T06:47:51Z</time>
  <speed>1.990000</speed>
</trkpt>
<trkpt lat="32.583820343" lon="35.010871887">
  <ele>160.708252</ele>
  <time>2011-10-13T06:47:52Z</time>
  <speed>2.230000</speed>
</trkpt>
<trkpt lat="32.583827972" lon="35.010913849">
  <ele>160.356689</ele>
  <time>2011-10-13T06:47:54Z</time>
  <speed>2.010000</speed>
</trkpt>
<trkpt lat="32.583831787" lon="35.010955811">
  <ele>161.204346</ele>
  <time>2011-10-13T06:47:56Z</time>
  <speed>2.090000</speed>
</trkpt>
<trkpt lat="32.583835602" lon="35.011001587">
  <ele>162.977783</ele>
  <time>2011-10-13T06:47:58Z</time>
  <speed>2.080000</speed>
</trkpt>
<trkpt lat="32.583827972" lon="35.011051178">
  <ele>164.454346</ele>
  <time>2011-10-13T06:48:00Z</time>
  <speed>2.210000</speed>
</trkpt>
<trkpt lat="32.583824158" lon="35.011089325">
  <ele>163.848877</ele>
  <time>2011-10-13T06:48:02Z</time>
  <speed>2.110000</speed>
</trkpt>
<trkpt lat="32.583820343" lon="35.011138916">
  <ele>164.005127</ele>
  <time>2011-10-13T06:48:04Z</time>
  <speed>1.870000</speed>
</trkpt>
<trkpt lat="32.583820343" lon="35.011188507">
  <ele>165.036377</ele>
  <time>2011-10-13T06:48:06Z</time>
  <speed>2.260000</speed>
</trkpt>
<trkpt lat="32.583820343" lon="35.011234283">
  <ele>165.536377</ele>
  <time>2011-10-13T06:48:08Z</time>
  <speed>2.070000</speed>
</trkpt>
<trkpt lat="32.583820343" lon="35.011276245">
  <ele>166.321533</ele>
  <time>2011-10-13T06:48:10Z</time>
  <speed>2.290000</speed>
</trkpt>
<trkpt lat="32.583805084" lon="35.011318207">
  <ele>166.489502</ele>
  <time>2011-10-13T06:48:12Z</time>
  <speed>2.250000</speed>
</trkpt>
<trkpt lat="32.583789825" lon="35.011356354">
  <ele>165.399658</ele>
  <time>2011-10-13T06:48:14Z</time>
  <speed>2.310000</speed>
</trkpt>
<trkpt lat="32.583759308" lon="35.011386871">
  <ele>163.907471</ele>
  <time>2011-10-13T06:48:16Z</time>
  <speed>1.850000</speed>
</trkpt>
<trkpt lat="32.583728790" lon="35.011413574">
  <ele>162.317627</ele>
  <time>2011-10-13T06:48:18Z</time>
  <speed>1.960000</speed>
</trkpt>
<trkpt lat="32.583705902" lon="35.011459351">
  <ele>162.098877</ele>
  <time>2011-10-13T06:48:20Z</time>
  <speed>2.090000</speed>
</trkpt>
<trkpt lat="32.583698273" lon="35.011497498">
  <ele>162.102783</ele>
  <time>2011-10-13T06:48:22Z</time>
  <speed>1.930000</speed>
</trkpt>
<trkpt lat="32.583683014" lon="35.011535645">
  <ele>163.149658</ele>
  <time>2011-10-13T06:48:24Z</time>
  <speed>1.640000</speed>
</trkpt>
<trkpt lat="32.583671570" lon="35.011569977">
  <ele>163.673096</ele>
  <time>2011-10-13T06:48:26Z</time>
  <speed>1.670000</speed>
</trkpt>
<trkpt lat="32.583663940" lon="35.011604309">
  <ele>163.634033</ele>
  <time>2011-10-13T06:48:28Z</time>
  <speed>1.470000</speed>
</trkpt>
<trkpt lat="32.583652496" lon="35.011650085">
  <ele>163.091064</ele>
  <time>2011-10-13T06:48:31Z</time>
  <speed>1.500000</speed>
</trkpt>
<trkpt lat="32.583652496" lon="35.011692047">
  <ele>164.376221</ele>
  <time>2011-10-13T06:48:33Z</time>
  <speed>1.880000</speed>
</trkpt>
<trkpt lat="32.583656311" lon="35.011730194">
  <ele>165.294189</ele>
  <time>2011-10-13T06:48:35Z</time>
  <speed>1.410000</speed>
</trkpt>
<trkpt lat="32.583656311" lon="35.011772156">
  <ele>166.981689</ele>
  <time>2011-10-13T06:48:37Z</time>
  <speed>1.700000</speed>
</trkpt>
<trkpt lat="32.583656311" lon="35.011821747">
  <ele>167.680908</ele>
  <time>2011-10-13T06:48:40Z</time>
  <speed>1.910000</speed>
</trkpt>
<trkpt lat="32.583648682" lon="35.011863708">
  <ele>168.036377</ele>
  <time>2011-10-13T06:48:42Z</time>
  <speed>1.750000</speed>
</trkpt>
<trkpt lat="32.583641052" lon="35.011898041">
  <ele>168.083252</ele>
  <time>2011-10-13T06:48:44Z</time>
  <speed>1.680000</speed>
</trkpt>
<trkpt lat="32.583637238" lon="35.011932373">
  <ele>168.497314</ele>
  <time>2011-10-13T06:48:46Z</time>
  <speed>1.640000</speed>
</trkpt>
<trkpt lat="32.583618164" lon="35.011962891">
  <ele>168.747314</ele>
  <time>2011-10-13T06:48:49Z</time>
  <speed>1.360000</speed>
</trkpt>
<trkpt lat="32.583591461" lon="35.012001038">
  <ele>168.555908</ele>
  <time>2011-10-13T06:48:52Z</time>
  <speed>1.710000</speed>
</trkpt>
<trkpt lat="32.583564758" lon="35.012023926">
  <ele>168.743408</ele>
  <time>2011-10-13T06:48:54Z</time>
  <speed>1.940000</speed>
</trkpt>
<trkpt lat="32.583541870" lon="35.012046814">
  <ele>168.411377</ele>
  <time>2011-10-13T06:48:56Z</time>
  <speed>1.640000</speed>
</trkpt>
<trkpt lat="32.583526611" lon="35.012077332">
  <ele>168.223877</ele>
  <time>2011-10-13T06:48:58Z</time>
  <speed>1.640000</speed>
</trkpt>
<trkpt lat="32.583507538" lon="35.012107849">
  <ele>168.427002</ele>
  <time>2011-10-13T06:49:00Z</time>
  <speed>1.680000</speed>
</trkpt>
<trkpt lat="32.583496094" lon="35.012142181">
  <ele>168.106689</ele>
  <time>2011-10-13T06:49:03Z</time>
  <speed>1.420000</speed>
</trkpt>
<trkpt lat="32.583488464" lon="35.012187958">
  <ele>168.739502</ele>
  <time>2011-10-13T06:49:05Z</time>
  <speed>1.370000</speed>
</trkpt>
<trkpt lat="32.583484650" lon="35.012222290">
  <ele>168.462158</ele>
  <time>2011-10-13T06:49:07Z</time>
  <speed>1.600000</speed>
</trkpt>
<trkpt lat="32.583477020" lon="35.012256622">
  <ele>168.020752</ele>
  <time>2011-10-13T06:49:09Z</time>
  <speed>1.500000</speed>
</trkpt>
<trkpt lat="32.583484650" lon="35.012306213">
  <ele>167.552002</ele>
  <time>2011-10-13T06:49:11Z</time>
  <speed>1.750000</speed>
</trkpt>
<trkpt lat="32.583492279" lon="35.012359619">
  <ele>168.891846</ele>
  <time>2011-10-13T06:49:14Z</time>
  <speed>1.930000</speed>
</trkpt>
<trkpt lat="32.583492279" lon="35.012409210">
  <ele>169.907471</ele>
  <time>2011-10-13T06:49:16Z</time>
  <speed>1.830000</speed>
</trkpt>
<trkpt lat="32.583503723" lon="35.012454987">
  <ele>170.809814</ele>
  <time>2011-10-13T06:49:18Z</time>
  <speed>1.770000</speed>
</trkpt>
<trkpt lat="32.583511353" lon="35.012496948">
  <ele>170.766846</ele>
  <time>2011-10-13T06:49:20Z</time>
  <speed>1.780000</speed>
</trkpt>
<trkpt lat="32.583522797" lon="35.012542725">
  <ele>171.266846</ele>
  <time>2011-10-13T06:49:22Z</time>
  <speed>1.970000</speed>
</trkpt>
<trkpt lat="32.583538055" lon="35.012577057">
  <ele>170.786377</ele>
  <time>2011-10-13T06:49:24Z</time>
  <speed>1.800000</speed>
</trkpt>
<trkpt lat="32.583549500" lon="35.012607574">
  <ele>170.993408</ele>
  <time>2011-10-13T06:49:26Z</time>
  <speed>1.800000</speed>
</trkpt>
<trkpt lat="32.583557129" lon="35.012641907">
  <ele>171.430908</ele>
  <time>2011-10-13T06:49:28Z</time>
  <speed>1.580000</speed>
</trkpt>
<trkpt lat="32.583568573" lon="35.012687683">
  <ele>172.247314</ele>
  <time>2011-10-13T06:49:30Z</time>
  <speed>1.540000</speed>
</trkpt>
<trkpt lat="32.583580017" lon="35.012718201">
  <ele>171.762939</ele>
  <time>2011-10-13T06:49:32Z</time>
  <speed>1.740000</speed>
</trkpt>
<trkpt lat="32.583587646" lon="35.012752533">
  <ele>171.973877</ele>
  <time>2011-10-13T06:49:34Z</time>
  <speed>1.640000</speed>
</trkpt>
<trkpt lat="32.583614349" lon="35.012794495">
  <ele>172.219971</ele>
  <time>2011-10-13T06:49:36Z</time>
  <speed>2.000000</speed>
</trkpt>
<trkpt lat="32.583633423" lon="35.012828827">
  <ele>173.040283</ele>
  <time>2011-10-13T06:49:38Z</time>
  <speed>1.810000</speed>
</trkpt>
<trkpt lat="32.583652496" lon="35.012859344">
  <ele>173.219971</ele>
  <time>2011-10-13T06:49:40Z</time>
  <speed>1.950000</speed>
</trkpt>
<trkpt lat="32.583656311" lon="35.012893677">
  <ele>173.266846</ele>
  <time>2011-10-13T06:49:42Z</time>
  <speed>1.710000</speed>
</trkpt>
<trkpt lat="32.583663940" lon="35.012931824">
  <ele>173.403564</ele>
  <time>2011-10-13T06:49:44Z</time>
  <speed>1.860000</speed>
</trkpt>
<trkpt lat="32.583667755" lon="35.012977600">
  <ele>173.489502</ele>
  <time>2011-10-13T06:49:46Z</time>
  <speed>1.680000</speed>
</trkpt>
<trkpt lat="32.583675385" lon="35.013019562">
  <ele>173.755127</ele>
  <time>2011-10-13T06:49:48Z</time>
  <speed>1.730000</speed>
</trkpt>
<trkpt lat="32.583683014" lon="35.013053894">
  <ele>174.040283</ele>
  <time>2011-10-13T06:49:50Z</time>
  <speed>1.930000</speed>
</trkpt>
<trkpt lat="32.583694458" lon="35.013095856">
  <ele>174.966064</ele>
  <time>2011-10-13T06:49:52Z</time>
  <speed>1.900000</speed>
</trkpt>
<trkpt lat="32.583690643" lon="35.013134003">
  <ele>175.184814</ele>
  <time>2011-10-13T06:49:54Z</time>
  <speed>1.770000</speed>
</trkpt>
<trkpt lat="32.583690643" lon="35.013175964">
  <ele>175.106689</ele>
  <time>2011-10-13T06:49:56Z</time>
  <speed>1.870000</speed>
</trkpt>
<trkpt lat="32.583694458" lon="35.013214111">
  <ele>174.356689</ele>
  <time>2011-10-13T06:49:58Z</time>
  <speed>1.940000</speed>
</trkpt>
<trkpt lat="32.583702087" lon="35.013256073">
  <ele>173.024658</ele>
  <time>2011-10-13T06:50:00Z</time>
  <speed>2.130000</speed>
</trkpt>
<trkpt lat="32.583724976" lon="35.013301849">
  <ele>172.684814</ele>
  <time>2011-10-13T06:50:02Z</time>
  <speed>2.000000</speed>
</trkpt>
<trkpt lat="32.583736420" lon="35.013328552">
  <ele>172.071533</ele>
  <time>2011-10-13T06:50:04Z</time>
  <speed>1.870000</speed>
</trkpt>
<trkpt lat="32.583759308" lon="35.013351440">
  <ele>171.555908</ele>
  <time>2011-10-13T06:50:06Z</time>
  <speed>1.670000</speed>
</trkpt>
<trkpt lat="32.583789825" lon="35.013378143">
  <ele>172.302002</ele>
  <time>2011-10-13T06:50:08Z</time>
  <speed>1.690000</speed>
</trkpt>
<trkpt lat="32.583824158" lon="35.013389587">
  <ele>171.700439</ele>
  <time>2011-10-13T06:50:10Z</time>
  <speed>1.880000</speed>
</trkpt>
<trkpt lat="32.583854675" lon="35.013412476">
  <ele>171.958252</ele>
  <time>2011-10-13T06:50:12Z</time>
  <speed>1.660000</speed>
</trkpt>
<trkpt lat="32.583904266" lon="35.013412476">
  <ele>172.528564</ele>
  <time>2011-10-13T06:50:14Z</time>
  <speed>2.200000</speed>
</trkpt>
<trkpt lat="32.583946228" lon="35.013408661">
  <ele>172.184814</ele>
  <time>2011-10-13T06:50:16Z</time>
  <speed>1.980000</speed>
</trkpt>
<trkpt lat="32.583988190" lon="35.013408661">
  <ele>172.528564</ele>
  <time>2011-10-13T06:50:18Z</time>
  <speed>2.020000</speed>
</trkpt>
<trkpt lat="32.584030151" lon="35.013408661">
  <ele>172.805908</ele>
  <time>2011-10-13T06:50:20Z</time>
  <speed>2.100000</speed>
</trkpt>
<trkpt lat="32.584068298" lon="35.013397217">
  <ele>173.856689</ele>
  <time>2011-10-13T06:50:22Z</time>
  <speed>1.780000</speed>
</trkpt>
<trkpt lat="32.584095001" lon="35.013378143">
  <ele>174.692627</ele>
  <time>2011-10-13T06:50:24Z</time>
  <speed>1.610000</speed>
</trkpt>
<trkpt lat="32.584121704" lon="35.013359070">
  <ele>174.872314</ele>
  <time>2011-10-13T06:50:26Z</time>
  <speed>1.860000</speed>
</trkpt>
<trkpt lat="32.584167480" lon="35.013324738">
  <ele>174.657471</ele>
  <time>2011-10-13T06:50:28Z</time>
  <speed>2.130000</speed>
</trkpt>
<trkpt lat="32.584197998" lon="35.013301849">
  <ele>174.427002</ele>
  <time>2011-10-13T06:50:30Z</time>
  <speed>1.690000</speed>
</trkpt>
<trkpt lat="32.584224701" lon="35.013282776">
  <ele>174.087158</ele>
  <time>2011-10-13T06:50:32Z</time>
  <speed>1.850000</speed>
</trkpt>
<trkpt lat="32.584255219" lon="35.013259888">
  <ele>173.884033</ele>
  <time>2011-10-13T06:50:34Z</time>
  <speed>1.800000</speed>
</trkpt>
<trkpt lat="32.584289551" lon="35.013244629">
  <ele>174.438721</ele>
  <time>2011-10-13T06:50:36Z</time>
  <speed>1.690000</speed>
</trkpt>
<trkpt lat="32.584320068" lon="35.013225555">
  <ele>174.411377</ele>
  <time>2011-10-13T06:50:38Z</time>
  <speed>1.820000</speed>
</trkpt>
<trkpt lat="32.584350586" lon="35.013206482">
  <ele>174.020752</ele>
  <time>2011-10-13T06:50:40Z</time>
  <speed>2.110000</speed>
</trkpt>
<trkpt lat="32.584384918" lon="35.013179779">
  <ele>173.786377</ele>
  <time>2011-10-13T06:50:42Z</time>
  <speed>1.950000</speed>
</trkpt>
<trkpt lat="32.584415436" lon="35.013149261">
  <ele>173.434814</ele>
  <time>2011-10-13T06:50:44Z</time>
  <speed>2.050000</speed>
</trkpt>
<trkpt lat="32.584434509" lon="35.013122559">
  <ele>172.915283</ele>
  <time>2011-10-13T06:50:46Z</time>
  <speed>1.520000</speed>
</trkpt>
<trkpt lat="32.584461212" lon="35.013095856">
  <ele>173.903564</ele>
  <time>2011-10-13T06:50:48Z</time>
  <speed>1.510000</speed>
</trkpt>
<trkpt lat="32.584480286" lon="35.013065338">
  <ele>174.727783</ele>
  <time>2011-10-13T06:50:50Z</time>
  <speed>1.330000</speed>
</trkpt>
<trkpt lat="32.584495544" lon="35.013038635">
  <ele>174.344971</ele>
  <time>2011-10-13T06:50:52Z</time>
  <speed>1.600000</speed>
</trkpt>
<trkpt lat="32.584526062" lon="35.013011932">
  <ele>173.981689</ele>
  <time>2011-10-13T06:50:54Z</time>
  <speed>1.560000</speed>
</trkpt>
<trkpt lat="32.584545135" lon="35.012989044">
  <ele>173.927002</ele>
  <time>2011-10-13T06:50:56Z</time>
  <speed>1.450000</speed>
</trkpt>
<trkpt lat="32.584537506" lon="35.012947083">
  <ele>173.805908</ele>
  <time>2011-10-13T06:50:58Z</time>
  <speed>1.180000</speed>
</trkpt>
<trkpt lat="32.584533691" lon="35.012901306">
  <ele>173.337158</ele>
  <time>2011-10-13T06:51:01Z</time>
  <speed>0.740000</speed>
</trkpt>
<trkpt lat="32.584537506" lon="35.012870789">
  <ele>173.860596</ele>
  <time>2011-10-13T06:55:15Z</time>
</trkpt>
<trkpt lat="32.584560394" lon="35.012836456">
  <ele>175.442627</ele>
  <time>2011-10-13T06:58:51Z</time>
  <speed>1.670000</speed>
</trkpt>
<trkpt lat="32.584579468" lon="35.012786865">
  <ele>175.419189</ele>
  <time>2011-10-13T06:58:53Z</time>
  <speed>2.310000</speed>
</trkpt>
<trkpt lat="32.584609985" lon="35.012737274">
  <ele>174.872314</ele>
  <time>2011-10-13T06:58:55Z</time>
  <speed>2.840000</speed>
</trkpt>
<trkpt lat="32.584644318" lon="35.012687683">
  <ele>174.469971</ele>
  <time>2011-10-13T06:58:57Z</time>
  <speed>3.130000</speed>
</trkpt>
<trkpt lat="32.584667206" lon="35.012660980">
  <ele>174.255127</ele>
  <time>2011-10-13T06:58:58Z</time>
  <speed>3.100000</speed>
</trkpt>
<trkpt lat="32.584682465" lon="35.012630463">
  <ele>173.809814</ele>
  <time>2011-10-13T06:58:59Z</time>
  <speed>3.140000</speed>
</trkpt>
<trkpt lat="32.584697723" lon="35.012603760">
  <ele>173.454346</ele>
  <time>2011-10-13T06:59:00Z</time>
  <speed>2.910000</speed>
</trkpt>
<trkpt lat="32.584720612" lon="35.012580872">
  <ele>173.469971</ele>
  <time>2011-10-13T06:59:01Z</time>
  <speed>3.010000</speed>
</trkpt>
<trkpt lat="32.584743500" lon="35.012554169">
  <ele>173.270752</ele>
  <time>2011-10-13T06:59:02Z</time>
  <speed>3.280000</speed>
</trkpt>
<trkpt lat="32.584762573" lon="35.012531281">
  <ele>172.919189</ele>
  <time>2011-10-13T06:59:03Z</time>
  <speed>2.850000</speed>
</trkpt>
<trkpt lat="32.584777832" lon="35.012500763">
  <ele>173.434814</ele>
  <time>2011-10-13T06:59:04Z</time>
  <speed>2.640000</speed>
</trkpt>
<trkpt lat="32.584823608" lon="35.012466431">
  <ele>173.337158</ele>
  <time>2011-10-13T06:59:06Z</time>
  <speed>2.790000</speed>
</trkpt>
<trkpt lat="32.584869385" lon="35.012432098">
  <ele>173.188721</ele>
  <time>2011-10-13T06:59:08Z</time>
  <speed>3.170000</speed>
</trkpt>
<trkpt lat="32.584896088" lon="35.012420654">
  <ele>173.563721</ele>
  <time>2011-10-13T06:59:09Z</time>
  <speed>3.280000</speed>
</trkpt>
<trkpt lat="32.584922791" lon="35.012413025">
  <ele>173.438721</ele>
  <time>2011-10-13T06:59:10Z</time>
  <speed>3.240000</speed>
</trkpt>
<trkpt lat="32.584953308" lon="35.012401581">
  <ele>173.419189</ele>
  <time>2011-10-13T06:59:11Z</time>
  <speed>3.800000</speed>
</trkpt>
<trkpt lat="32.584987640" lon="35.012371063">
  <ele>173.864502</ele>
  <time>2011-10-13T06:59:12Z</time>
  <speed>3.610000</speed>
</trkpt>
<trkpt lat="32.585018158" lon="35.012359619">
  <ele>174.184814</ele>
  <time>2011-10-13T06:59:13Z</time>
  <speed>3.650000</speed>
</trkpt>
<trkpt lat="32.585056305" lon="35.012351990">
  <ele>173.286377</ele>
  <time>2011-10-13T06:59:14Z</time>
  <speed>3.800000</speed>
</trkpt>
<trkpt lat="32.585083008" lon="35.012336731">
  <ele>173.958252</ele>
  <time>2011-10-13T06:59:15Z</time>
  <speed>3.350000</speed>
</trkpt>
<trkpt lat="32.585113525" lon="35.012317657">
  <ele>173.934814</ele>
  <time>2011-10-13T06:59:16Z</time>
  <speed>3.420000</speed>
</trkpt>
<trkpt lat="32.585140228" lon="35.012294769">
  <ele>174.204346</ele>
  <time>2011-10-13T06:59:17Z</time>
  <speed>3.100000</speed>
</trkpt>
<trkpt lat="32.585159302" lon="35.012264252">
  <ele>174.692627</ele>
  <time>2011-10-13T06:59:18Z</time>
  <speed>3.500000</speed>
</trkpt>
<trkpt lat="32.585182190" lon="35.012229919">
  <ele>174.380127</ele>
  <time>2011-10-13T06:59:19Z</time>
  <speed>3.440000</speed>
</trkpt>
<trkpt lat="32.585205078" lon="35.012203217">
  <ele>174.165283</ele>
  <time>2011-10-13T06:59:20Z</time>
  <speed>3.630000</speed>
</trkpt>
<trkpt lat="32.585224152" lon="35.012165070">
  <ele>173.997314</ele>
  <time>2011-10-13T06:59:21Z</time>
  <speed>3.570000</speed>
</trkpt>
<trkpt lat="32.585239410" lon="35.012130737">
  <ele>173.860596</ele>
  <time>2011-10-13T06:59:22Z</time>
  <speed>3.210000</speed>
</trkpt>
<trkpt lat="32.585254669" lon="35.012096405">
  <ele>173.825439</ele>
  <time>2011-10-13T06:59:23Z</time>
  <speed>3.460000</speed>
</trkpt>
<trkpt lat="32.585262299" lon="35.012050629">
  <ele>173.969971</ele>
  <time>2011-10-13T06:59:24Z</time>
  <speed>3.930000</speed>
</trkpt>
<trkpt lat="32.585277557" lon="35.012004852">
  <ele>174.368408</ele>
  <time>2011-10-13T06:59:25Z</time>
  <speed>3.950000</speed>
</trkpt>
<trkpt lat="32.585289001" lon="35.011966705">
  <ele>174.333252</ele>
  <time>2011-10-13T06:59:26Z</time>
  <speed>3.570000</speed>
</trkpt>
<trkpt lat="32.585308075" lon="35.011932373">
  <ele>174.411377</ele>
  <time>2011-10-13T06:59:27Z</time>
  <speed>3.710000</speed>
</trkpt>
<trkpt lat="32.585323334" lon="35.011890411">
  <ele>174.841064</ele>
  <time>2011-10-13T06:59:28Z</time>
  <speed>3.800000</speed>
</trkpt>
<trkpt lat="32.585338593" lon="35.011848450">
  <ele>175.536377</ele>
  <time>2011-10-13T06:59:29Z</time>
  <speed>3.690000</speed>
</trkpt>
<trkpt lat="32.585357666" lon="35.011810303">
  <ele>175.454346</ele>
  <time>2011-10-13T06:59:30Z</time>
  <speed>3.730000</speed>
</trkpt>
<trkpt lat="32.585376740" lon="35.011772156">
  <ele>175.809814</ele>
  <time>2011-10-13T06:59:31Z</time>
  <speed>3.770000</speed>
</trkpt>
<trkpt lat="32.585395813" lon="35.011741638">
  <ele>175.618408</ele>
  <time>2011-10-13T06:59:32Z</time>
  <speed>3.630000</speed>
</trkpt>
<trkpt lat="32.585407257" lon="35.011699677">
  <ele>175.321533</ele>
  <time>2011-10-13T06:59:33Z</time>
  <speed>3.630000</speed>
</trkpt>
<trkpt lat="32.585418701" lon="35.011661530">
  <ele>175.321533</ele>
  <time>2011-10-13T06:59:34Z</time>
  <speed>3.400000</speed>
</trkpt>
<trkpt lat="32.585426331" lon="35.011627197">
  <ele>175.274658</ele>
  <time>2011-10-13T06:59:35Z</time>
  <speed>3.460000</speed>
</trkpt>
<trkpt lat="32.585433960" lon="35.011585236">
  <ele>175.634033</ele>
  <time>2011-10-13T06:59:36Z</time>
  <speed>3.520000</speed>
</trkpt>
<trkpt lat="32.585445404" lon="35.011547089">
  <ele>175.927002</ele>
  <time>2011-10-13T06:59:37Z</time>
  <speed>3.640000</speed>
</trkpt>
<trkpt lat="32.585464478" lon="35.011508942">
  <ele>175.958252</ele>
  <time>2011-10-13T06:59:38Z</time>
  <speed>3.690000</speed>
</trkpt>
<trkpt lat="32.585491180" lon="35.011478424">
  <ele>175.493408</ele>
  <time>2011-10-13T06:59:39Z</time>
  <speed>3.380000</speed>
</trkpt>
<trkpt lat="32.585517883" lon="35.011455536">
  <ele>176.594971</ele>
  <time>2011-10-13T06:59:40Z</time>
  <speed>3.550000</speed>
</trkpt>
<trkpt lat="32.585544586" lon="35.011436462">
  <ele>176.419189</ele>
  <time>2011-10-13T06:59:41Z</time>
  <speed>3.070000</speed>
</trkpt>
<trkpt lat="32.585567474" lon="35.011402130">
  <ele>176.532471</ele>
  <time>2011-10-13T06:59:42Z</time>
  <speed>3.240000</speed>
</trkpt>
<trkpt lat="32.585582733" lon="35.011375427">
  <ele>176.653564</ele>
  <time>2011-10-13T06:59:43Z</time>
  <speed>2.960000</speed>
</trkpt>
<trkpt lat="32.585601807" lon="35.011348724">
  <ele>176.919189</ele>
  <time>2011-10-13T06:59:44Z</time>
  <speed>3.120000</speed>
</trkpt>
<trkpt lat="32.585609436" lon="35.011287689">
  <ele>176.958252</ele>
  <time>2011-10-13T06:59:46Z</time>
  <speed>2.930000</speed>
</trkpt>
<trkpt lat="32.585605621" lon="35.011253357">
  <ele>177.091064</ele>
  <time>2011-10-13T06:59:47Z</time>
  <speed>3.370000</speed>
</trkpt>
<trkpt lat="32.585597992" lon="35.011196136">
  <ele>178.934814</ele>
  <time>2011-10-13T06:59:48Z</time>
  <speed>3.350000</speed>
</trkpt>
<trkpt lat="32.585597992" lon="35.011161804">
  <ele>179.009033</ele>
  <time>2011-10-13T06:59:49Z</time>
  <speed>2.910000</speed>
</trkpt>
<trkpt lat="32.585597992" lon="35.011127472">
  <ele>179.192627</ele>
  <time>2011-10-13T06:59:50Z</time>
  <speed>3.830000</speed>
</trkpt>
<trkpt lat="32.585594177" lon="35.011089325">
  <ele>179.282471</ele>
  <time>2011-10-13T06:59:51Z</time>
  <speed>3.440000</speed>
</trkpt>
<trkpt lat="32.585586548" lon="35.011058807">
  <ele>178.427002</ele>
  <time>2011-10-13T06:59:52Z</time>
  <speed>2.950000</speed>
</trkpt>
<trkpt lat="32.585578918" lon="35.011024475">
  <ele>178.282471</ele>
  <time>2011-10-13T06:59:53Z</time>
  <speed>3.420000</speed>
</trkpt>
<trkpt lat="32.585563660" lon="35.010982513">
  <ele>178.204346</ele>
  <time>2011-10-13T06:59:54Z</time>
  <speed>3.590000</speed>
</trkpt>
<trkpt lat="32.585552216" lon="35.010948181">
  <ele>178.180908</ele>
  <time>2011-10-13T06:59:55Z</time>
  <speed>3.220000</speed>
</trkpt>
<trkpt lat="32.585552216" lon="35.010913849">
  <ele>178.790283</ele>
  <time>2011-10-13T06:59:56Z</time>
  <speed>3.280000</speed>
</trkpt>
<trkpt lat="32.585552216" lon="35.010871887">
  <ele>180.048096</ele>
  <time>2011-10-13T06:59:57Z</time>
  <speed>3.150000</speed>
</trkpt>
<trkpt lat="32.585559845" lon="35.010818481">
  <ele>179.102783</ele>
  <time>2011-10-13T06:59:59Z</time>
  <speed>2.960000</speed>
</trkpt>
<trkpt lat="32.585559845" lon="35.010780334">
  <ele>180.591064</ele>
  <time>2011-10-13T07:00:00Z</time>
  <speed>2.670000</speed>
</trkpt>
<trkpt lat="32.585559845" lon="35.010730743">
  <ele>181.415283</ele>
  <time>2011-10-13T07:00:02Z</time>
  <speed>2.040000</speed>
</trkpt>
<trkpt lat="32.585559845" lon="35.010696411">
  <ele>182.645752</ele>
  <time>2011-10-13T07:00:03Z</time>
  <speed>2.350000</speed>
</trkpt>
<trkpt lat="32.585559845" lon="35.010654449">
  <ele>182.454346</ele>
  <time>2011-10-13T07:00:05Z</time>
  <speed>1.730000</speed>
</trkpt>
<trkpt lat="32.585540771" lon="35.010601044">
  <ele>181.985596</ele>
  <time>2011-10-13T07:00:07Z</time>
  <speed>2.600000</speed>
</trkpt>
<trkpt lat="32.585521698" lon="35.010547638">
  <ele>181.872314</ele>
  <time>2011-10-13T07:00:09Z</time>
  <speed>2.920000</speed>
</trkpt>
<trkpt lat="32.585514069" lon="35.010513306">
  <ele>183.044189</ele>
  <time>2011-10-13T07:00:10Z</time>
  <speed>3.150000</speed>
</trkpt>
<trkpt lat="32.585514069" lon="35.010478973">
  <ele>183.548096</ele>
  <time>2011-10-13T07:00:11Z</time>
  <speed>2.880000</speed>
</trkpt>
<trkpt lat="32.585521698" lon="35.010421753">
  <ele>183.841064</ele>
  <time>2011-10-13T07:00:13Z</time>
  <speed>2.390000</speed>
</trkpt>
<trkpt lat="32.585510254" lon="35.010379791">
  <ele>184.587158</ele>
  <time>2011-10-13T07:00:14Z</time>
  <speed>2.530000</speed>
</trkpt>
<trkpt lat="32.585491180" lon="35.010318756">
  <ele>185.438721</ele>
  <time>2011-10-13T07:00:16Z</time>
  <speed>2.420000</speed>
</trkpt>
<trkpt lat="32.585475922" lon="35.010292053">
  <ele>185.145752</ele>
  <time>2011-10-13T07:00:17Z</time>
  <speed>2.550000</speed>
</trkpt>
<trkpt lat="32.585460663" lon="35.010246277">
  <ele>185.415283</ele>
  <time>2011-10-13T07:00:19Z</time>
  <speed>2.320000</speed>
</trkpt>
<trkpt lat="32.585445404" lon="35.010196686">
  <ele>185.012939</ele>
  <time>2011-10-13T07:00:21Z</time>
  <speed>2.420000</speed>
</trkpt>
<trkpt lat="32.585441589" lon="35.010143280">
  <ele>187.196533</ele>
  <time>2011-10-13T07:00:23Z</time>
  <speed>2.430000</speed>
</trkpt>
<trkpt lat="32.585433960" lon="35.010089874">
  <ele>188.098877</ele>
  <time>2011-10-13T07:00:25Z</time>
  <speed>2.590000</speed>
</trkpt>
<trkpt lat="32.585430145" lon="35.010051727">
  <ele>188.122314</ele>
  <time>2011-10-13T07:00:27Z</time>
  <speed>2.260000</speed>
</trkpt>
<trkpt lat="32.585437775" lon="35.009998322">
  <ele>187.876221</ele>
  <time>2011-10-13T07:00:29Z</time>
  <speed>2.540000</speed>
</trkpt>
<trkpt lat="32.585441589" lon="35.009952545">
  <ele>187.247314</ele>
  <time>2011-10-13T07:00:31Z</time>
  <speed>2.420000</speed>
</trkpt>
<trkpt lat="32.585441589" lon="35.009914398">
  <ele>187.942627</ele>
  <time>2011-10-13T07:00:32Z</time>
  <speed>2.400000</speed>
</trkpt>
<trkpt lat="32.585437775" lon="35.009864807">
  <ele>187.118408</ele>
  <time>2011-10-13T07:00:34Z</time>
  <speed>2.490000</speed>
</trkpt>
<trkpt lat="32.585437775" lon="35.009811401">
  <ele>187.524658</ele>
  <time>2011-10-13T07:00:36Z</time>
  <speed>2.530000</speed>
</trkpt>
<trkpt lat="32.585437775" lon="35.009742737">
  <ele>188.372314</ele>
  <time>2011-10-13T07:00:38Z</time>
  <speed>2.800000</speed>
</trkpt>
<trkpt lat="32.585437775" lon="35.009712219">
  <ele>188.665283</ele>
  <time>2011-10-13T07:00:39Z</time>
  <speed>2.780000</speed>
</trkpt>
<trkpt lat="32.585426331" lon="35.009643555">
  <ele>188.848877</ele>
  <time>2011-10-13T07:00:41Z</time>
  <speed>3.060000</speed>
</trkpt>
<trkpt lat="32.585422516" lon="35.009609222">
  <ele>188.891846</ele>
  <time>2011-10-13T07:00:42Z</time>
  <speed>2.890000</speed>
</trkpt>
<trkpt lat="32.585422516" lon="35.009578705">
  <ele>188.153564</ele>
  <time>2011-10-13T07:00:43Z</time>
  <speed>3.030000</speed>
</trkpt>
<trkpt lat="32.585418701" lon="35.009540558">
  <ele>188.177002</ele>
  <time>2011-10-13T07:00:44Z</time>
  <speed>3.190000</speed>
</trkpt>
<trkpt lat="32.585422516" lon="35.009475708">
  <ele>187.591064</ele>
  <time>2011-10-13T07:00:46Z</time>
  <speed>3.480000</speed>
</trkpt>
<trkpt lat="32.585418701" lon="35.009437561">
  <ele>187.302002</ele>
  <time>2011-10-13T07:00:47Z</time>
  <speed>3.340000</speed>
</trkpt>
<trkpt lat="32.585418701" lon="35.009399414">
  <ele>187.505127</ele>
  <time>2011-10-13T07:00:48Z</time>
  <speed>3.600000</speed>
</trkpt>
<trkpt lat="32.585411072" lon="35.009357452">
  <ele>187.684814</ele>
  <time>2011-10-13T07:00:49Z</time>
  <speed>3.520000</speed>
</trkpt>
<trkpt lat="32.585388184" lon="35.009323120">
  <ele>187.723877</ele>
  <time>2011-10-13T07:00:50Z</time>
  <speed>3.650000</speed>
</trkpt>
<trkpt lat="32.585369110" lon="35.009288788">
  <ele>187.614502</ele>
  <time>2011-10-13T07:00:51Z</time>
  <speed>3.450000</speed>
</trkpt>
<trkpt lat="32.585346222" lon="35.009262085">
  <ele>187.950439</ele>
  <time>2011-10-13T07:00:52Z</time>
  <speed>3.050000</speed>
</trkpt>
<trkpt lat="32.585323334" lon="35.009239197">
  <ele>187.411377</ele>
  <time>2011-10-13T07:00:53Z</time>
  <speed>3.020000</speed>
</trkpt>
<trkpt lat="32.585300446" lon="35.009220123">
  <ele>186.833252</ele>
  <time>2011-10-13T07:00:54Z</time>
  <speed>3.090000</speed>
</trkpt>
<trkpt lat="32.585269928" lon="35.009197235">
  <ele>187.173096</ele>
  <time>2011-10-13T07:00:55Z</time>
  <speed>3.370000</speed>
</trkpt>
<trkpt lat="32.585243225" lon="35.009181976">
  <ele>187.309814</ele>
  <time>2011-10-13T07:00:56Z</time>
  <speed>3.310000</speed>
</trkpt>
<trkpt lat="32.585208893" lon="35.009159088">
  <ele>187.567627</ele>
  <time>2011-10-13T07:00:57Z</time>
  <speed>3.640000</speed>
</trkpt>
<trkpt lat="32.585182190" lon="35.009136200">
  <ele>188.091064</ele>
  <time>2011-10-13T07:00:58Z</time>
  <speed>3.040000</speed>
</trkpt>
<trkpt lat="32.585159302" lon="35.009117126">
  <ele>188.509033</ele>
  <time>2011-10-13T07:00:59Z</time>
  <speed>2.920000</speed>
</trkpt>
<trkpt lat="32.585121155" lon="35.009071350">
  <ele>188.821533</ele>
  <time>2011-10-13T07:01:01Z</time>
  <speed>2.940000</speed>
</trkpt>
<trkpt lat="32.585079193" lon="35.009044647">
  <ele>188.677002</ele>
  <time>2011-10-13T07:01:03Z</time>
  <speed>2.690000</speed>
</trkpt>
<trkpt lat="32.585048676" lon="35.009040833">
  <ele>189.020752</ele>
  <time>2011-10-13T07:01:04Z</time>
  <speed>2.980000</speed>
</trkpt>
<trkpt lat="32.585021973" lon="35.009040833">
  <ele>188.641846</ele>
  <time>2011-10-13T07:01:05Z</time>
  <speed>2.660000</speed>
</trkpt>
<trkpt lat="32.584972382" lon="35.009033203">
  <ele>188.454346</ele>
  <time>2011-10-13T07:01:07Z</time>
  <speed>2.540000</speed>
</trkpt>
<trkpt lat="32.584934235" lon="35.009010315">
  <ele>187.723877</ele>
  <time>2011-10-13T07:01:09Z</time>
  <speed>2.620000</speed>
</trkpt>
<trkpt lat="32.584907532" lon="35.008991241">
  <ele>186.665283</ele>
  <time>2011-10-13T07:01:10Z</time>
  <speed>3.480000</speed>
</trkpt>
<trkpt lat="32.584869385" lon="35.008968353">
  <ele>187.661377</ele>
  <time>2011-10-13T07:01:11Z</time>
  <speed>3.930000</speed>
</trkpt>
<trkpt lat="32.584835052" lon="35.008945465">
  <ele>186.833252</ele>
  <time>2011-10-13T07:01:12Z</time>
  <speed>3.980000</speed>
</trkpt>
<trkpt lat="32.584796906" lon="35.008926392">
  <ele>186.208252</ele>
  <time>2011-10-13T07:01:13Z</time>
  <speed>4.270000</speed>
</trkpt>
<trkpt lat="32.584754944" lon="35.008907318">
  <ele>186.200439</ele>
  <time>2011-10-13T07:01:14Z</time>
  <speed>4.700000</speed>
</trkpt>
<trkpt lat="32.584716797" lon="35.008884430">
  <ele>186.102783</ele>
  <time>2011-10-13T07:01:15Z</time>
  <speed>4.370000</speed>
</trkpt>
<trkpt lat="32.584678650" lon="35.008865356">
  <ele>185.594971</ele>
  <time>2011-10-13T07:01:16Z</time>
  <speed>4.560000</speed>
</trkpt>
<trkpt lat="32.584640503" lon="35.008838654">
  <ele>184.798096</ele>
  <time>2011-10-13T07:01:17Z</time>
  <speed>4.500000</speed>
</trkpt>
<trkpt lat="32.584609985" lon="35.008800507">
  <ele>184.052002</ele>
  <time>2011-10-13T07:01:18Z</time>
  <speed>4.910000</speed>
</trkpt>
<trkpt lat="32.584579468" lon="35.008758545">
  <ele>183.817627</ele>
  <time>2011-10-13T07:01:19Z</time>
  <speed>4.990000</speed>
</trkpt>
<trkpt lat="32.584552765" lon="35.008716583">
  <ele>183.126221</ele>
  <time>2011-10-13T07:01:20Z</time>
  <speed>4.980000</speed>
</trkpt>
<trkpt lat="32.584514618" lon="35.008682251">
  <ele>182.989502</ele>
  <time>2011-10-13T07:01:21Z</time>
  <speed>4.940000</speed>
</trkpt>
<trkpt lat="32.584476471" lon="35.008651733">
  <ele>181.946533</ele>
  <time>2011-10-13T07:01:22Z</time>
  <speed>5.430000</speed>
</trkpt>
<trkpt lat="32.584442139" lon="35.008613586">
  <ele>181.141846</ele>
  <time>2011-10-13T07:01:23Z</time>
  <speed>4.960000</speed>
</trkpt>
<trkpt lat="32.584415436" lon="35.008575439">
  <ele>180.610596</ele>
  <time>2011-10-13T07:01:24Z</time>
  <speed>3.970000</speed>
</trkpt>
<trkpt lat="32.584384918" lon="35.008529663">
  <ele>181.966064</ele>
  <time>2011-10-13T07:01:25Z</time>
  <speed>4.410000</speed>
</trkpt>
<trkpt lat="32.584362030" lon="35.008491516">
  <ele>181.602783</ele>
  <time>2011-10-13T07:01:26Z</time>
  <speed>4.430000</speed>
</trkpt>
<trkpt lat="32.584331512" lon="35.008453369">
  <ele>181.825439</ele>
  <time>2011-10-13T07:01:27Z</time>
  <speed>4.450000</speed>
</trkpt>
<trkpt lat="32.584304810" lon="35.008419037">
  <ele>182.200439</ele>
  <time>2011-10-13T07:01:28Z</time>
  <speed>4.770000</speed>
</trkpt>
<trkpt lat="32.584281921" lon="35.008380890">
  <ele>181.180908</ele>
  <time>2011-10-13T07:01:29Z</time>
  <speed>4.610000</speed>
</trkpt>
<trkpt lat="32.584259033" lon="35.008342743">
  <ele>180.387939</ele>
  <time>2011-10-13T07:01:30Z</time>
  <speed>4.400000</speed>
</trkpt>
<trkpt lat="32.584232330" lon="35.008300781">
  <ele>180.278564</ele>
  <time>2011-10-13T07:01:31Z</time>
  <speed>4.810000</speed>
</trkpt>
<trkpt lat="32.584201813" lon="35.008255005">
  <ele>179.606689</ele>
  <time>2011-10-13T07:01:32Z</time>
  <speed>4.940000</speed>
</trkpt>
<trkpt lat="32.584175110" lon="35.008213043">
  <ele>177.938721</ele>
  <time>2011-10-13T07:01:33Z</time>
  <speed>5.900000</speed>
</trkpt>
<trkpt lat="32.584144592" lon="35.008163452">
  <ele>176.411377</ele>
  <time>2011-10-13T07:01:34Z</time>
  <speed>5.540000</speed>
</trkpt>
<trkpt lat="32.584106445" lon="35.008106232">
  <ele>176.520752</ele>
  <time>2011-10-13T07:01:35Z</time>
  <speed>5.920000</speed>
</trkpt>
<trkpt lat="32.584068298" lon="35.008056641">
  <ele>176.075439</ele>
  <time>2011-10-13T07:01:36Z</time>
  <speed>6.220000</speed>
</trkpt>
<trkpt lat="32.584026337" lon="35.008007050">
  <ele>174.844971</ele>
  <time>2011-10-13T07:01:37Z</time>
  <speed>6.510000</speed>
</trkpt>
<trkpt lat="32.583984375" lon="35.007953644">
  <ele>174.540283</ele>
  <time>2011-10-13T07:01:38Z</time>
  <speed>6.750000</speed>
</trkpt>
<trkpt lat="32.583942413" lon="35.007904053">
  <ele>173.665283</ele>
  <time>2011-10-13T07:01:39Z</time>
  <speed>6.640000</speed>
</trkpt>
<trkpt lat="32.583900452" lon="35.007854462">
  <ele>172.825439</ele>
  <time>2011-10-13T07:01:40Z</time>
  <speed>6.100000</speed>
</trkpt>
<trkpt lat="32.583869934" lon="35.007804871">
  <ele>173.001221</ele>
  <time>2011-10-13T07:01:41Z</time>
  <speed>5.820000</speed>
</trkpt>
<trkpt lat="32.583843231" lon="35.007747650">
  <ele>172.891846</ele>
  <time>2011-10-13T07:01:42Z</time>
  <speed>5.400000</speed>
</trkpt>
<trkpt lat="32.583835602" lon="35.007698059">
  <ele>172.270752</ele>
  <time>2011-10-13T07:01:43Z</time>
  <speed>4.900000</speed>
</trkpt>
<trkpt lat="32.583831787" lon="35.007644653">
  <ele>171.614502</ele>
  <time>2011-10-13T07:01:44Z</time>
  <speed>4.970000</speed>
</trkpt>
<trkpt lat="32.583827972" lon="35.007595062">
  <ele>171.294189</ele>
  <time>2011-10-13T07:01:45Z</time>
  <speed>4.530000</speed>
</trkpt>
<trkpt lat="32.583831787" lon="35.007549286">
  <ele>170.719971</ele>
  <time>2011-10-13T07:01:46Z</time>
  <speed>4.140000</speed>
</trkpt>
<trkpt lat="32.583835602" lon="35.007503510">
  <ele>170.528564</ele>
  <time>2011-10-13T07:01:47Z</time>
  <speed>4.550000</speed>
</trkpt>
<trkpt lat="32.583835602" lon="35.007461548">
  <ele>171.130127</ele>
  <time>2011-10-13T07:01:48Z</time>
  <speed>3.960000</speed>
</trkpt>
<trkpt lat="32.583827972" lon="35.007419586">
  <ele>172.059814</ele>
  <time>2011-10-13T07:01:49Z</time>
  <speed>2.920000</speed>
</trkpt>
<trkpt lat="32.583816528" lon="35.007385254">
  <ele>172.516846</ele>
  <time>2011-10-13T07:01:50Z</time>
  <speed>2.890000</speed>
</trkpt>
<trkpt lat="32.583786011" lon="35.007335663">
  <ele>173.094971</ele>
  <time>2011-10-13T07:01:52Z</time>
  <speed>2.770000</speed>
</trkpt>
<trkpt lat="32.583744049" lon="35.007297516">
  <ele>172.657471</ele>
  <time>2011-10-13T07:01:54Z</time>
  <speed>3.070000</speed>
</trkpt>
<trkpt lat="32.583717346" lon="35.007274628">
  <ele>172.751221</ele>
  <time>2011-10-13T07:01:55Z</time>
  <speed>3.270000</speed>
</trkpt>
<trkpt lat="32.583690643" lon="35.007255554">
  <ele>172.610596</ele>
  <time>2011-10-13T07:01:56Z</time>
  <speed>3.140000</speed>
</trkpt>
<trkpt lat="32.583663940" lon="35.007236481">
  <ele>172.954346</ele>
  <time>2011-10-13T07:01:57Z</time>
  <speed>3.140000</speed>
</trkpt>
<trkpt lat="32.583633423" lon="35.007221222">
  <ele>173.548096</ele>
  <time>2011-10-13T07:01:58Z</time>
  <speed>3.100000</speed>
</trkpt>
<trkpt lat="32.583610535" lon="35.007202148">
  <ele>173.442627</ele>
  <time>2011-10-13T07:01:59Z</time>
  <speed>3.200000</speed>
</trkpt>
<trkpt lat="32.583583832" lon="35.007183075">
  <ele>173.747314</ele>
  <time>2011-10-13T07:02:00Z</time>
  <speed>3.100000</speed>
</trkpt>
<trkpt lat="32.583553314" lon="35.007141113">
  <ele>173.700439</ele>
  <time>2011-10-13T07:02:02Z</time>
  <speed>2.510000</speed>
</trkpt>
<trkpt lat="32.583549500" lon="35.007087708">
  <ele>174.688721</ele>
  <time>2011-10-13T07:02:04Z</time>
  <speed>2.190000</speed>
</trkpt>
<trkpt lat="32.583553314" lon="35.007041931">
  <ele>175.270752</ele>
  <time>2011-10-13T07:02:06Z</time>
  <speed>1.950000</speed>
</trkpt>
<trkpt lat="32.583560944" lon="35.007003784">
  <ele>175.282471</ele>
  <time>2011-10-13T07:02:08Z</time>
  <speed>1.730000</speed>
</trkpt>
<trkpt lat="32.583560944" lon="35.006965637">
  <ele>176.372314</ele>
  <time>2011-10-13T07:02:09Z</time>
  <speed>2.450000</speed>
</trkpt>
<trkpt lat="32.583568573" lon="35.006912231">
  <ele>176.688721</ele>
  <time>2011-10-13T07:02:11Z</time>
  <speed>2.010000</speed>
</trkpt>
<trkpt lat="32.583557129" lon="35.006866455">
  <ele>177.368408</ele>
  <time>2011-10-13T07:02:13Z</time>
  <speed>1.830000</speed>
</trkpt>
<trkpt lat="32.583541870" lon="35.006839752">
  <ele>178.032471</ele>
  <time>2011-10-13T07:02:14Z</time>
  <speed>1.770000</speed>
</trkpt>
<trkpt lat="32.583526611" lon="35.006805420">
  <ele>178.169189</ele>
  <time>2011-10-13T07:02:16Z</time>
  <speed>1.890000</speed>
</trkpt>
<trkpt lat="32.583538055" lon="35.006771088">
  <ele>178.028564</ele>
  <time>2011-10-13T07:02:18Z</time>
  <speed>2.170000</speed>
</trkpt>
<trkpt lat="32.583549500" lon="35.006721497">
  <ele>178.641846</ele>
  <time>2011-10-13T07:02:20Z</time>
  <speed>2.480000</speed>
</trkpt>
<trkpt lat="32.583553314" lon="35.006664276">
  <ele>179.094971</ele>
  <time>2011-10-13T07:02:22Z</time>
  <speed>2.200000</speed>
</trkpt>
<trkpt lat="32.583564758" lon="35.006614685">
  <ele>179.829346</ele>
  <time>2011-10-13T07:02:24Z</time>
  <speed>2.360000</speed>
</trkpt>
<trkpt lat="32.583587646" lon="35.006572723">
  <ele>180.145752</ele>
  <time>2011-10-13T07:02:26Z</time>
  <speed>2.140000</speed>
</trkpt>
<trkpt lat="32.583610535" lon="35.006530762">
  <ele>180.489502</ele>
  <time>2011-10-13T07:02:28Z</time>
  <speed>2.360000</speed>
</trkpt>
<trkpt lat="32.583637238" lon="35.006484985">
  <ele>180.782471</ele>
  <time>2011-10-13T07:02:30Z</time>
  <speed>2.210000</speed>
</trkpt>
<trkpt lat="32.583652496" lon="35.006439209">
  <ele>180.876221</ele>
  <time>2011-10-13T07:02:32Z</time>
  <speed>1.820000</speed>
</trkpt>
<trkpt lat="32.583660126" lon="35.006401062">
  <ele>180.348877</ele>
  <time>2011-10-13T07:02:34Z</time>
  <speed>2.250000</speed>
</trkpt>
<trkpt lat="32.583652496" lon="35.006370544">
  <ele>180.294189</ele>
  <time>2011-10-13T07:02:35Z</time>
  <speed>1.960000</speed>
</trkpt>
<trkpt lat="32.583633423" lon="35.006317139">
  <ele>180.048096</ele>
  <time>2011-10-13T07:02:37Z</time>
  <speed>2.280000</speed>
</trkpt>
<trkpt lat="32.583599091" lon="35.006275177">
  <ele>179.509033</ele>
  <time>2011-10-13T07:02:39Z</time>
  <speed>2.280000</speed>
</trkpt>
<trkpt lat="32.583560944" lon="35.006233215">
  <ele>178.930908</ele>
  <time>2011-10-13T07:02:41Z</time>
  <speed>2.730000</speed>
</trkpt>
<trkpt lat="32.583534241" lon="35.006210327">
  <ele>179.841064</ele>
  <time>2011-10-13T07:02:42Z</time>
  <speed>2.490000</speed>
</trkpt>
<trkpt lat="32.583507538" lon="35.006202698">
  <ele>179.329346</ele>
  <time>2011-10-13T07:02:43Z</time>
  <speed>2.570000</speed>
</trkpt>
<trkpt lat="32.583457947" lon="35.006175995">
  <ele>180.427002</ele>
  <time>2011-10-13T07:02:45Z</time>
  <speed>2.510000</speed>
</trkpt>
<trkpt lat="32.583419800" lon="35.006141663">
  <ele>180.360596</ele>
  <time>2011-10-13T07:02:47Z</time>
  <speed>2.410000</speed>
</trkpt>
<trkpt lat="32.583381653" lon="35.006114960">
  <ele>180.669189</ele>
  <time>2011-10-13T07:02:49Z</time>
  <speed>2.410000</speed>
</trkpt>
<trkpt lat="32.583335876" lon="35.006088257">
  <ele>180.020752</ele>
  <time>2011-10-13T07:02:51Z</time>
  <speed>3.100000</speed>
</trkpt>
<trkpt lat="32.583312988" lon="35.006069183">
  <ele>179.923096</ele>
  <time>2011-10-13T07:02:52Z</time>
  <speed>3.110000</speed>
</trkpt>
<trkpt lat="32.583286285" lon="35.006057739">
  <ele>180.286377</ele>
  <time>2011-10-13T07:02:53Z</time>
  <speed>3.220000</speed>
</trkpt>
<trkpt lat="32.583251953" lon="35.006046295">
  <ele>180.598877</ele>
  <time>2011-10-13T07:02:54Z</time>
  <speed>3.220000</speed>
</trkpt>
<trkpt lat="32.583217621" lon="35.006038666">
  <ele>180.833252</ele>
  <time>2011-10-13T07:02:55Z</time>
  <speed>2.990000</speed>
</trkpt>
<trkpt lat="32.583187103" lon="35.006042480">
  <ele>181.110596</ele>
  <time>2011-10-13T07:02:56Z</time>
  <speed>2.430000</speed>
</trkpt>
<trkpt lat="32.583160400" lon="35.006061554">
  <ele>179.380127</ele>
  <time>2011-10-13T07:02:58Z</time>
  <speed>1.310000</speed>
</trkpt>
<trkpt lat="32.583137512" lon="35.006103516">
  <ele>178.802002</ele>
  <time>2011-10-13T07:03:00Z</time>
  <speed>2.130000</speed>
</trkpt>
<trkpt lat="32.583110809" lon="35.006118774">
  <ele>178.848877</ele>
  <time>2011-10-13T07:03:02Z</time>
  <speed>1.500000</speed>
</trkpt>
<trkpt lat="32.583103180" lon="35.006084442">
  <ele>178.555908</ele>
  <time>2011-10-13T07:03:05Z</time>
  <speed>1.890000</speed>
</trkpt>
<trkpt lat="32.583095551" lon="35.006050110">
  <ele>178.454346</ele>
  <time>2011-10-13T07:03:07Z</time>
  <speed>1.400000</speed>
</trkpt>
<trkpt lat="32.583072662" lon="35.006004333">
  <ele>177.981689</ele>
  <time>2011-10-13T07:03:59Z</time>
  <speed>2.980000</speed>
</trkpt>
<trkpt lat="32.583049774" lon="35.005985260">
  <ele>177.509033</ele>
  <time>2011-10-13T07:04:00Z</time>
  <speed>2.980000</speed>
</trkpt>
<trkpt lat="32.583023071" lon="35.005966187">
  <ele>177.305908</ele>
  <time>2011-10-13T07:04:01Z</time>
  <speed>3.310000</speed>
</trkpt>
<trkpt lat="32.582992554" lon="35.005947113">
  <ele>177.419189</ele>
  <time>2011-10-13T07:04:02Z</time>
  <speed>3.550000</speed>
</trkpt>
<trkpt lat="32.582958221" lon="35.005928040">
  <ele>176.735596</ele>
  <time>2011-10-13T07:04:03Z</time>
  <speed>3.250000</speed>
</trkpt>
<trkpt lat="32.582935333" lon="35.005905151">
  <ele>175.786377</ele>
  <time>2011-10-13T07:04:04Z</time>
  <speed>3.650000</speed>
</trkpt>
<trkpt lat="32.582927704" lon="35.005867004">
  <ele>175.016846</ele>
  <time>2011-10-13T07:04:05Z</time>
  <speed>4.360000</speed>
</trkpt>
<trkpt lat="32.582912445" lon="35.005817413">
  <ele>174.270752</ele>
  <time>2011-10-13T07:04:06Z</time>
  <speed>4.150000</speed>
</trkpt>
<trkpt lat="32.582904816" lon="35.005779266">
  <ele>173.262939</ele>
  <time>2011-10-13T07:04:07Z</time>
  <speed>3.900000</speed>
</trkpt>
<trkpt lat="32.582897186" lon="35.005741119">
  <ele>172.544189</ele>
  <time>2011-10-13T07:04:08Z</time>
  <speed>3.140000</speed>
</trkpt>
<trkpt lat="32.582881927" lon="35.005710602">
  <ele>171.821533</ele>
  <time>2011-10-13T07:04:09Z</time>
  <speed>3.020000</speed>
</trkpt>
<trkpt lat="32.582859039" lon="35.005676270">
  <ele>170.973877</ele>
  <time>2011-10-13T07:04:10Z</time>
  <speed>2.820000</speed>
</trkpt>
<trkpt lat="32.582828522" lon="35.005653381">
  <ele>170.262939</ele>
  <time>2011-10-13T07:04:11Z</time>
  <speed>3.290000</speed>
</trkpt>
<trkpt lat="32.582798004" lon="35.005630493">
  <ele>170.114502</ele>
  <time>2011-10-13T07:04:12Z</time>
  <speed>3.120000</speed>
</trkpt>
<trkpt lat="32.582771301" lon="35.005619049">
  <ele>169.969971</ele>
  <time>2011-10-13T07:04:13Z</time>
  <speed>1.770000</speed>
</trkpt>
<trkpt lat="32.582725525" lon="35.005641937">
  <ele>168.946533</ele>
  <time>2011-10-13T07:04:15Z</time>
  <speed>2.590000</speed>
</trkpt>
<trkpt lat="32.582679749" lon="35.005661011">
  <ele>167.942627</ele>
  <time>2011-10-13T07:04:17Z</time>
  <speed>2.530000</speed>
</trkpt>
<trkpt lat="32.582630157" lon="35.005645752">
  <ele>167.239502</ele>
  <time>2011-10-13T07:04:19Z</time>
  <speed>3.570000</speed>
</trkpt>
<trkpt lat="32.582607269" lon="35.005622864">
  <ele>166.575439</ele>
  <time>2011-10-13T07:04:20Z</time>
  <speed>3.600000</speed>
</trkpt>
<trkpt lat="32.582569122" lon="35.005603790">
  <ele>165.657471</ele>
  <time>2011-10-13T07:04:21Z</time>
  <speed>3.790000</speed>
</trkpt>
<trkpt lat="32.582550049" lon="35.005580902">
  <ele>164.833252</ele>
  <time>2011-10-13T07:04:22Z</time>
  <speed>3.090000</speed>
</trkpt>
<trkpt lat="32.582534790" lon="35.005542755">
  <ele>164.540283</ele>
  <time>2011-10-13T07:04:23Z</time>
  <speed>3.040000</speed>
</trkpt>
<trkpt lat="32.582515717" lon="35.005519867">
  <ele>163.677002</ele>
  <time>2011-10-13T07:04:24Z</time>
  <speed>2.800000</speed>
</trkpt>
<trkpt lat="32.582489014" lon="35.005496979">
  <ele>163.001221</ele>
  <time>2011-10-13T07:04:25Z</time>
  <speed>2.950000</speed>
</trkpt>
<trkpt lat="32.582454681" lon="35.005451202">
  <ele>162.704346</ele>
  <time>2011-10-13T07:04:27Z</time>
  <speed>2.370000</speed>
</trkpt>
<trkpt lat="32.582443237" lon="35.005420685">
  <ele>161.872314</ele>
  <time>2011-10-13T07:04:28Z</time>
  <speed>2.780000</speed>
</trkpt>
<trkpt lat="32.582420349" lon="35.005386353">
  <ele>162.505127</ele>
  <time>2011-10-13T07:04:29Z</time>
  <speed>2.530000</speed>
</trkpt>
<trkpt lat="32.582386017" lon="35.005348206">
  <ele>161.434814</ele>
  <time>2011-10-13T07:04:31Z</time>
  <speed>2.300000</speed>
</trkpt>
<trkpt lat="32.582344055" lon="35.005329132">
  <ele>160.419189</ele>
  <time>2011-10-13T07:04:33Z</time>
  <speed>2.380000</speed>
</trkpt>
<trkpt lat="32.582298279" lon="35.005310059">
  <ele>159.419189</ele>
  <time>2011-10-13T07:04:35Z</time>
  <speed>2.290000</speed>
</trkpt>
<trkpt lat="32.582279205" lon="35.005302429">
  <ele>157.645752</ele>
  <time>2011-10-13T07:04:36Z</time>
  <speed>2.270000</speed>
</trkpt>
<trkpt lat="32.582252502" lon="35.005279541">
  <ele>156.001221</ele>
  <time>2011-10-13T07:04:38Z</time>
  <speed>2.090000</speed>
</trkpt>
<trkpt lat="32.582248688" lon="35.005245209">
  <ele>154.579346</ele>
  <time>2011-10-13T07:04:40Z</time>
  <speed>1.510000</speed>
</trkpt>
<trkpt lat="32.582244873" lon="35.005210876">
  <ele>153.278564</ele>
  <time>2011-10-13T07:04:42Z</time>
  <speed>1.620000</speed>
</trkpt>
<trkpt lat="32.582221985" lon="35.005184174">
  <ele>153.204346</ele>
  <time>2011-10-13T07:04:44Z</time>
  <speed>1.530000</speed>
</trkpt>
<trkpt lat="32.582195282" lon="35.005168915">
  <ele>152.661377</ele>
  <time>2011-10-13T07:04:46Z</time>
  <speed>1.340000</speed>
</trkpt>
<trkpt lat="32.582168579" lon="35.005149841">
  <ele>151.497314</ele>
  <time>2011-10-13T07:04:48Z</time>
  <speed>1.990000</speed>
</trkpt>
<trkpt lat="32.582126617" lon="35.005138397">
  <ele>149.899658</ele>
  <time>2011-10-13T07:04:50Z</time>
  <speed>2.160000</speed>
</trkpt>
<trkpt lat="32.582077026" lon="35.005119324">
  <ele>147.942627</ele>
  <time>2011-10-13T07:04:52Z</time>
  <speed>2.660000</speed>
</trkpt>
<trkpt lat="32.582069397" lon="35.005077362">
  <ele>145.817627</ele>
  <time>2011-10-13T07:04:54Z</time>
  <speed>2.070000</speed>
</trkpt>
<trkpt lat="32.582073212" lon="35.005020142">
  <ele>145.540283</ele>
  <time>2011-10-13T07:04:56Z</time>
  <speed>2.840000</speed>
</trkpt>
<trkpt lat="32.582088470" lon="35.004993439">
  <ele>144.122314</ele>
  <time>2011-10-13T07:04:57Z</time>
  <speed>3.160000</speed>
</trkpt>
<trkpt lat="32.582103729" lon="35.004955292">
  <ele>143.653564</ele>
  <time>2011-10-13T07:04:58Z</time>
  <speed>3.100000</speed>
</trkpt>
<trkpt lat="32.582111359" lon="35.004901886">
  <ele>142.637939</ele>
  <time>2011-10-13T07:05:00Z</time>
  <speed>2.250000</speed>
</trkpt>
<trkpt lat="32.582111359" lon="35.004848480">
  <ele>141.325439</ele>
  <time>2011-10-13T07:05:02Z</time>
  <speed>2.370000</speed>
</trkpt>
<trkpt lat="32.582118988" lon="35.004817963">
  <ele>140.895752</ele>
  <time>2011-10-13T07:05:03Z</time>
  <speed>2.830000</speed>
</trkpt>
<trkpt lat="32.582138062" lon="35.004753113">
  <ele>140.188721</ele>
  <time>2011-10-13T07:05:05Z</time>
  <speed>3.620000</speed>
</trkpt>
<trkpt lat="32.582153320" lon="35.004714966">
  <ele>139.727783</ele>
  <time>2011-10-13T07:05:06Z</time>
  <speed>3.610000</speed>
</trkpt>
<trkpt lat="32.582157135" lon="35.004680634">
  <ele>138.450439</ele>
  <time>2011-10-13T07:05:07Z</time>
  <speed>3.280000</speed>
</trkpt>
<trkpt lat="32.582160950" lon="35.004650116">
  <ele>137.180908</ele>
  <time>2011-10-13T07:05:08Z</time>
  <speed>3.130000</speed>
</trkpt>
<trkpt lat="32.582180023" lon="35.004611969">
  <ele>135.255127</ele>
  <time>2011-10-13T07:05:10Z</time>
  <speed>2.120000</speed>
</trkpt>
<trkpt lat="32.582191467" lon="35.004577637">
  <ele>133.344971</ele>
  <time>2011-10-13T07:05:12Z</time>
  <speed>1.360000</speed>
</trkpt>
<trkpt lat="32.582172394" lon="35.004558563">
  <ele>131.934814</ele>
  <time>2011-10-13T07:05:14Z</time>
  <speed>1.420000</speed>
</trkpt>
<trkpt lat="32.582145691" lon="35.004558563">
  <ele>128.927002</ele>
  <time>2011-10-13T07:05:16Z</time>
  <speed>1.870000</speed>
</trkpt>
<trkpt lat="32.582118988" lon="35.004508972">
  <ele>128.278564</ele>
  <time>2011-10-13T07:05:18Z</time>
  <speed>2.670000</speed>
</trkpt>
<trkpt lat="32.582111359" lon="35.004451752">
  <ele>126.574829</ele>
  <time>2011-10-13T07:05:20Z</time>
  <speed>3.020000</speed>
</trkpt>
<trkpt lat="32.582118988" lon="35.004417419">
  <ele>126.586548</ele>
  <time>2011-10-13T07:05:21Z</time>
  <speed>3.000000</speed>
</trkpt>
<trkpt lat="32.582138062" lon="35.004390717">
  <ele>125.975220</ele>
  <time>2011-10-13T07:05:22Z</time>
  <speed>2.790000</speed>
</trkpt>
<trkpt lat="32.582160950" lon="35.004348755">
  <ele>125.557251</ele>
  <time>2011-10-13T07:05:24Z</time>
  <speed>2.310000</speed>
</trkpt>
<trkpt lat="32.582164764" lon="35.004322052">
  <ele>123.324829</ele>
  <time>2011-10-13T07:05:26Z</time>
  <speed>1.350000</speed>
</trkpt>
<trkpt lat="32.582138062" lon="35.004302979">
  <ele>122.402954</ele>
  <time>2011-10-13T07:05:28Z</time>
  <speed>1.500000</speed>
</trkpt>
<trkpt lat="32.582103729" lon="35.004283905">
  <ele>121.391235</ele>
  <time>2011-10-13T07:05:30Z</time>
  <speed>1.970000</speed>
</trkpt>
<trkpt lat="32.582069397" lon="35.004264832">
  <ele>119.752563</ele>
  <time>2011-10-13T07:05:32Z</time>
  <speed>2.210000</speed>
</trkpt>
<trkpt lat="32.582015991" lon="35.004226685">
  <ele>120.088501</ele>
  <time>2011-10-13T07:05:34Z</time>
  <speed>2.220000</speed>
</trkpt>
<trkpt lat="32.581981659" lon="35.004203796">
  <ele>118.236938</ele>
  <time>2011-10-13T07:05:36Z</time>
  <speed>1.750000</speed>
</trkpt>
<trkpt lat="32.581962585" lon="35.004173279">
  <ele>117.281860</ele>
  <time>2011-10-13T07:05:38Z</time>
  <speed>2.110000</speed>
</trkpt>
<trkpt lat="32.581943512" lon="35.004135132">
  <ele>116.967407</ele>
  <time>2011-10-13T07:05:40Z</time>
  <speed>1.290000</speed>
</trkpt>
<trkpt lat="32.581947327" lon="35.004100800">
  <ele>116.158813</ele>
  <time>2011-10-13T07:05:42Z</time>
  <speed>1.890000</speed>
</trkpt>
<trkpt lat="32.581974030" lon="35.004062653">
  <ele>114.408813</ele>
  <time>2011-10-13T07:05:44Z</time>
  <speed>2.550000</speed>
</trkpt>
<trkpt lat="32.582004547" lon="35.004016876">
  <ele>112.467407</ele>
  <time>2011-10-13T07:05:46Z</time>
  <speed>2.200000</speed>
</trkpt>
<trkpt lat="32.582015991" lon="35.003974915">
  <ele>110.225220</ele>
  <time>2011-10-13T07:05:48Z</time>
  <speed>2.670000</speed>
</trkpt>
<trkpt lat="32.582031250" lon="35.003925323">
  <ele>107.904907</ele>
  <time>2011-10-13T07:05:50Z</time>
  <speed>2.470000</speed>
</trkpt>
<trkpt lat="32.582035065" lon="35.003883362">
  <ele>107.981079</ele>
  <time>2011-10-13T07:05:51Z</time>
  <speed>2.640000</speed>
</trkpt>
<trkpt lat="32.582042694" lon="35.003849030">
  <ele>107.475220</ele>
  <time>2011-10-13T07:05:52Z</time>
  <speed>2.990000</speed>
</trkpt>
<trkpt lat="32.582050323" lon="35.003780365">
  <ele>106.133423</ele>
  <time>2011-10-13T07:05:54Z</time>
  <speed>2.540000</speed>
</trkpt>
<trkpt lat="32.582057953" lon="35.003753662">
  <ele>104.633423</ele>
  <time>2011-10-13T07:05:55Z</time>
  <speed>2.910000</speed>
</trkpt>
<trkpt lat="32.582077026" lon="35.003726959">
  <ele>104.059204</ele>
  <time>2011-10-13T07:05:56Z</time>
  <speed>2.830000</speed>
</trkpt>
<trkpt lat="32.582111359" lon="35.003684998">
  <ele>102.002563</ele>
  <time>2011-10-13T07:05:58Z</time>
  <speed>2.120000</speed>
</trkpt>
<trkpt lat="32.582118988" lon="35.003650665">
  <ele>101.205688</ele>
  <time>2011-10-13T07:05:59Z</time>
  <speed>1.700000</speed>
</trkpt>
<trkpt lat="32.582111359" lon="35.003608704">
  <ele>100.639282</ele>
  <time>2011-10-13T07:06:01Z</time>
  <speed>1.150000</speed>
</trkpt>
<trkpt lat="32.582077026" lon="35.003593445">
  <ele>99.770142</ele>
  <time>2011-10-13T07:06:04Z</time>
  <speed>0.650000</speed>
</trkpt>
<trkpt lat="32.582061768" lon="35.003604889">
  <ele>97.289673</ele>
  <time>2011-10-13T07:06:10Z</time>
  <speed>0.190000</speed>
</trkpt>
<trkpt lat="32.582035065" lon="35.003627777">
  <ele>96.365845</ele>
  <time>2011-10-13T07:06:43Z</time>
  <speed>1.000000</speed>
</trkpt>
<trkpt lat="32.582000732" lon="35.003643036">
  <ele>96.990845</ele>
  <time>2011-10-13T07:06:46Z</time>
  <speed>0.610000</speed>
</trkpt>
<trkpt lat="32.581977844" lon="35.003665924">
  <ele>97.518188</ele>
  <time>2011-10-13T07:06:50Z</time>
  <speed>0.130000</speed>
</trkpt>
<trkpt lat="32.581954956" lon="35.003669739">
  <ele>99.117798</ele>
  <time>2011-10-13T07:07:57Z</time>
  <speed>0.280000</speed>
</trkpt>
<trkpt lat="32.581928253" lon="35.003696442">
  <ele>100.283813</ele>
  <time>2011-10-13T07:08:03Z</time>
  <speed>0.480000</speed>
</trkpt>
<trkpt lat="32.581893921" lon="35.003704071">
  <ele>100.996704</ele>
  <time>2011-10-13T07:08:06Z</time>
  <speed>1.770000</speed>
</trkpt>
<trkpt lat="32.581851959" lon="35.003723145">
  <ele>101.449829</ele>
  <time>2011-10-13T07:08:08Z</time>
  <speed>2.340000</speed>
</trkpt>
<trkpt lat="32.581817627" lon="35.003734589">
  <ele>101.531860</ele>
  <time>2011-10-13T07:08:10Z</time>
  <speed>1.840000</speed>
</trkpt>
<trkpt lat="32.581794739" lon="35.003765106">
  <ele>101.820923</ele>
  <time>2011-10-13T07:08:12Z</time>
  <speed>1.740000</speed>
</trkpt>
<trkpt lat="32.581760406" lon="35.003787994">
  <ele>102.377563</ele>
  <time>2011-10-13T07:08:14Z</time>
  <speed>1.560000</speed>
</trkpt>
<trkpt lat="32.581726074" lon="35.003822327">
  <ele>102.606079</ele>
  <time>2011-10-13T07:08:17Z</time>
  <speed>2.200000</speed>
</trkpt>
<trkpt lat="32.581699371" lon="35.003837585">
  <ele>103.412720</ele>
  <time>2011-10-13T07:08:18Z</time>
  <speed>1.970000</speed>
</trkpt>
<trkpt lat="32.581661224" lon="35.003860474">
  <ele>103.611938</ele>
  <time>2011-10-13T07:08:20Z</time>
  <speed>2.150000</speed>
</trkpt>
<trkpt lat="32.581634521" lon="35.003890991">
  <ele>104.067017</ele>
  <time>2011-10-13T07:08:22Z</time>
  <speed>1.870000</speed>
</trkpt>
<trkpt lat="32.581596375" lon="35.003917694">
  <ele>104.578735</ele>
  <time>2011-10-13T07:08:24Z</time>
  <speed>2.120000</speed>
</trkpt>
<trkpt lat="32.581558228" lon="35.003952026">
  <ele>104.885376</ele>
  <time>2011-10-13T07:08:26Z</time>
  <speed>2.250000</speed>
</trkpt>
<trkpt lat="32.581527710" lon="35.003982544">
  <ele>104.731079</ele>
  <time>2011-10-13T07:08:28Z</time>
  <speed>2.180000</speed>
</trkpt>
<trkpt lat="32.581493378" lon="35.004013062">
  <ele>105.996704</ele>
  <time>2011-10-13T07:08:30Z</time>
  <speed>2.110000</speed>
</trkpt>
<trkpt lat="32.581451416" lon="35.004028320">
  <ele>106.811157</ele>
  <time>2011-10-13T07:08:32Z</time>
  <speed>2.200000</speed>
</trkpt>
<trkpt lat="32.581420898" lon="35.004043579">
  <ele>106.422485</ele>
  <time>2011-10-13T07:08:34Z</time>
  <speed>1.950000</speed>
</trkpt>
<trkpt lat="32.581382751" lon="35.004070282">
  <ele>106.957642</ele>
  <time>2011-10-13T07:08:36Z</time>
  <speed>1.910000</speed>
</trkpt>
<trkpt lat="32.581348419" lon="35.004100800">
  <ele>106.820923</ele>
  <time>2011-10-13T07:08:38Z</time>
  <speed>2.220000</speed>
</trkpt>
<trkpt lat="32.581317902" lon="35.004123688">
  <ele>106.693970</ele>
  <time>2011-10-13T07:08:40Z</time>
  <speed>2.110000</speed>
</trkpt>
<trkpt lat="32.581287384" lon="35.004142761">
  <ele>106.707642</ele>
  <time>2011-10-13T07:08:42Z</time>
  <speed>1.670000</speed>
</trkpt>
<trkpt lat="32.581256866" lon="35.004158020">
  <ele>106.936157</ele>
  <time>2011-10-13T07:08:44Z</time>
  <speed>1.700000</speed>
</trkpt>
<trkpt lat="32.581218719" lon="35.004173279">
  <ele>106.430298</ele>
  <time>2011-10-13T07:08:46Z</time>
  <speed>2.060000</speed>
</trkpt>
<trkpt lat="32.581199646" lon="35.004211426">
  <ele>106.715454</ele>
  <time>2011-10-13T07:08:48Z</time>
  <speed>1.920000</speed>
</trkpt>
<trkpt lat="32.581172943" lon="35.004238129">
  <ele>106.619751</ele>
  <time>2011-10-13T07:08:50Z</time>
  <speed>1.730000</speed>
</trkpt>
<trkpt lat="32.581150055" lon="35.004261017">
  <ele>106.359985</ele>
  <time>2011-10-13T07:08:51Z</time>
  <speed>2.220000</speed>
</trkpt>
<trkpt lat="32.581119537" lon="35.004283905">
  <ele>106.613892</ele>
  <time>2011-10-13T07:08:53Z</time>
  <speed>2.140000</speed>
</trkpt>
<trkpt lat="32.581085205" lon="35.004306793">
  <ele>107.195923</ele>
  <time>2011-10-13T07:08:55Z</time>
  <speed>1.970000</speed>
</trkpt>
<trkpt lat="32.581058502" lon="35.004341125">
  <ele>107.264282</ele>
  <time>2011-10-13T07:08:57Z</time>
  <speed>2.100000</speed>
</trkpt>
<trkpt lat="32.581039429" lon="35.004364014">
  <ele>107.801392</ele>
  <time>2011-10-13T07:08:58Z</time>
  <speed>2.240000</speed>
</trkpt>
<trkpt lat="32.581012726" lon="35.004394531">
  <ele>107.477173</ele>
  <time>2011-10-13T07:09:00Z</time>
  <speed>2.130000</speed>
</trkpt>
<trkpt lat="32.580997467" lon="35.004428864">
  <ele>107.494751</ele>
  <time>2011-10-13T07:09:02Z</time>
  <speed>1.700000</speed>
</trkpt>
<trkpt lat="32.580986023" lon="35.004467010">
  <ele>107.293579</ele>
  <time>2011-10-13T07:09:04Z</time>
  <speed>2.070000</speed>
</trkpt>
<trkpt lat="32.580966949" lon="35.004508972">
  <ele>108.406860</ele>
  <time>2011-10-13T07:09:06Z</time>
  <speed>2.180000</speed>
</trkpt>
<trkpt lat="32.580951691" lon="35.004543304">
  <ele>109.029907</ele>
  <time>2011-10-13T07:09:08Z</time>
  <speed>2.290000</speed>
</trkpt>
<trkpt lat="32.580928802" lon="35.004577637">
  <ele>109.043579</ele>
  <time>2011-10-13T07:09:10Z</time>
  <speed>2.030000</speed>
</trkpt>
<trkpt lat="32.580913544" lon="35.004623413">
  <ele>109.692017</ele>
  <time>2011-10-13T07:09:12Z</time>
  <speed>2.200000</speed>
</trkpt>
<trkpt lat="32.580898285" lon="35.004665375">
  <ele>109.102173</ele>
  <time>2011-10-13T07:09:14Z</time>
  <speed>1.910000</speed>
</trkpt>
<trkpt lat="32.580890656" lon="35.004711151">
  <ele>108.697876</ele>
  <time>2011-10-13T07:09:16Z</time>
  <speed>2.170000</speed>
</trkpt>
<trkpt lat="32.580883026" lon="35.004760742">
  <ele>109.088501</ele>
  <time>2011-10-13T07:09:18Z</time>
  <speed>2.160000</speed>
</trkpt>
<trkpt lat="32.580894470" lon="35.004817963">
  <ele>110.358032</ele>
  <time>2011-10-13T07:09:20Z</time>
  <speed>2.860000</speed>
</trkpt>
<trkpt lat="32.580909729" lon="35.004852295">
  <ele>111.692017</ele>
  <time>2011-10-13T07:09:21Z</time>
  <speed>2.680000</speed>
</trkpt>
<trkpt lat="32.580905914" lon="35.004905701">
  <ele>111.955688</ele>
  <time>2011-10-13T07:09:23Z</time>
  <speed>2.590000</speed>
</trkpt>
<trkpt lat="32.580886841" lon="35.004955292">
  <ele>112.315063</ele>
  <time>2011-10-13T07:09:25Z</time>
  <speed>2.220000</speed>
</trkpt>
<trkpt lat="32.580879211" lon="35.005012512">
  <ele>111.791626</ele>
  <time>2011-10-13T07:09:27Z</time>
  <speed>2.380000</speed>
</trkpt>
<trkpt lat="32.580867767" lon="35.005058289">
  <ele>112.070923</ele>
  <time>2011-10-13T07:09:29Z</time>
  <speed>2.140000</speed>
</trkpt>
<trkpt lat="32.580871582" lon="35.005107880">
  <ele>111.873657</ele>
  <time>2011-10-13T07:09:31Z</time>
  <speed>1.970000</speed>
</trkpt>
<trkpt lat="32.580871582" lon="35.005153656">
  <ele>111.201782</ele>
  <time>2011-10-13T07:09:33Z</time>
  <speed>2.130000</speed>
</trkpt>
<trkpt lat="32.580860138" lon="35.005203247">
  <ele>110.137329</ele>
  <time>2011-10-13T07:09:35Z</time>
  <speed>2.690000</speed>
</trkpt>
<trkpt lat="32.580856323" lon="35.005249023">
  <ele>109.318970</ele>
  <time>2011-10-13T07:09:37Z</time>
  <speed>2.050000</speed>
</trkpt>
<trkpt lat="32.580844879" lon="35.005298615">
  <ele>108.715454</ele>
  <time>2011-10-13T07:09:39Z</time>
  <speed>2.580000</speed>
</trkpt>
<trkpt lat="32.580837250" lon="35.005359650">
  <ele>107.449829</ele>
  <time>2011-10-13T07:09:41Z</time>
  <speed>2.430000</speed>
</trkpt>
<trkpt lat="32.580837250" lon="35.005393982">
  <ele>107.832642</ele>
  <time>2011-10-13T07:09:42Z</time>
  <speed>2.450000</speed>
</trkpt>
<trkpt lat="32.580833435" lon="35.005428314">
  <ele>107.838501</ele>
  <time>2011-10-13T07:09:43Z</time>
  <speed>2.680000</speed>
</trkpt>
<trkpt lat="32.580829620" lon="35.005470276">
  <ele>109.344360</ele>
  <time>2011-10-13T07:09:44Z</time>
  <speed>2.620000</speed>
</trkpt>
<trkpt lat="32.580825806" lon="35.005523682">
  <ele>109.713501</ele>
  <time>2011-10-13T07:09:46Z</time>
  <speed>2.580000</speed>
</trkpt>
<trkpt lat="32.580810547" lon="35.005580902">
  <ele>110.020142</ele>
  <time>2011-10-13T07:09:48Z</time>
  <speed>2.720000</speed>
</trkpt>
<trkpt lat="32.580810547" lon="35.005622864">
  <ele>111.229126</ele>
  <time>2011-10-13T07:09:49Z</time>
  <speed>2.910000</speed>
</trkpt>
<trkpt lat="32.580810547" lon="35.005657196">
  <ele>111.955688</ele>
  <time>2011-10-13T07:09:50Z</time>
  <speed>2.600000</speed>
</trkpt>
<trkpt lat="32.580806732" lon="35.005710602">
  <ele>112.151001</ele>
  <time>2011-10-13T07:09:52Z</time>
  <speed>2.410000</speed>
</trkpt>
<trkpt lat="32.580806732" lon="35.005767822">
  <ele>113.233032</ele>
  <time>2011-10-13T07:09:54Z</time>
  <speed>2.560000</speed>
</trkpt>
<trkpt lat="32.580814362" lon="35.005802155">
  <ele>114.024048</ele>
  <time>2011-10-13T07:09:55Z</time>
  <speed>2.820000</speed>
</trkpt>
<trkpt lat="32.580810547" lon="35.005832672">
  <ele>114.733032</ele>
  <time>2011-10-13T07:09:56Z</time>
  <speed>2.820000</speed>
</trkpt>
<trkpt lat="32.580810547" lon="35.005863190">
  <ele>115.891235</ele>
  <time>2011-10-13T07:09:57Z</time>
  <speed>2.660000</speed>
</trkpt>
<trkpt lat="32.580802917" lon="35.005920410">
  <ele>117.695923</ele>
  <time>2011-10-13T07:09:59Z</time>
  <speed>2.480000</speed>
</trkpt>
<trkpt lat="32.580802917" lon="35.005954742">
  <ele>118.779907</ele>
  <time>2011-10-13T07:10:00Z</time>
  <speed>2.790000</speed>
</trkpt>
<trkpt lat="32.580799103" lon="35.006004333">
  <ele>119.707642</ele>
  <time>2011-10-13T07:10:02Z</time>
  <speed>2.420000</speed>
</trkpt>
<trkpt lat="32.580795288" lon="35.006053925">
  <ele>120.049438</ele>
  <time>2011-10-13T07:10:04Z</time>
  <speed>2.300000</speed>
</trkpt>
<trkpt lat="32.580799103" lon="35.006084442">
  <ele>121.291626</ele>
  <time>2011-10-13T07:10:05Z</time>
  <speed>2.520000</speed>
</trkpt>
<trkpt lat="32.580806732" lon="35.006141663">
  <ele>121.859985</ele>
  <time>2011-10-13T07:10:07Z</time>
  <speed>2.470000</speed>
</trkpt>
<trkpt lat="32.580802917" lon="35.006198883">
  <ele>122.014282</ele>
  <time>2011-10-13T07:10:09Z</time>
  <speed>2.680000</speed>
</trkpt>
<trkpt lat="32.580799103" lon="35.006229401">
  <ele>122.656860</ele>
  <time>2011-10-13T07:10:10Z</time>
  <speed>2.830000</speed>
</trkpt>
<trkpt lat="32.580783844" lon="35.006278992">
  <ele>123.283813</ele>
  <time>2011-10-13T07:10:12Z</time>
  <speed>2.680000</speed>
</trkpt>
<trkpt lat="32.580776215" lon="35.006336212">
  <ele>123.756470</ele>
  <time>2011-10-13T07:10:14Z</time>
  <speed>2.610000</speed>
</trkpt>
<trkpt lat="32.580780029" lon="35.006389618">
  <ele>124.260376</ele>
  <time>2011-10-13T07:10:16Z</time>
  <speed>2.630000</speed>
</trkpt>
<trkpt lat="32.580787659" lon="35.006450653">
  <ele>124.965454</ele>
  <time>2011-10-13T07:10:18Z</time>
  <speed>2.600000</speed>
</trkpt>
<trkpt lat="32.580795288" lon="35.006511688">
  <ele>125.317017</ele>
  <time>2011-10-13T07:10:20Z</time>
  <speed>2.660000</speed>
</trkpt>
<trkpt lat="32.580799103" lon="35.006568909">
  <ele>125.977173</ele>
  <time>2011-10-13T07:10:22Z</time>
  <speed>2.470000</speed>
</trkpt>
<trkpt lat="32.580802917" lon="35.006603241">
  <ele>125.223267</ele>
  <time>2011-10-13T07:10:24Z</time>
  <speed>2.140000</speed>
</trkpt>
<trkpt lat="32.580787659" lon="35.006652832">
  <ele>124.842407</ele>
  <time>2011-10-13T07:10:26Z</time>
  <speed>2.790000</speed>
</trkpt>
<trkpt lat="32.580764771" lon="35.006710052">
  <ele>123.496704</ele>
  <time>2011-10-13T07:10:28Z</time>
  <speed>2.520000</speed>
</trkpt>
<trkpt lat="32.580764771" lon="35.006740570">
  <ele>124.430298</ele>
  <time>2011-10-13T07:10:29Z</time>
  <speed>2.380000</speed>
</trkpt>
<trkpt lat="32.580760956" lon="35.006797791">
  <ele>124.608032</ele>
  <time>2011-10-13T07:10:31Z</time>
  <speed>2.500000</speed>
</trkpt>
<trkpt lat="32.580768585" lon="35.006858826">
  <ele>125.363892</ele>
  <time>2011-10-13T07:10:33Z</time>
  <speed>2.720000</speed>
</trkpt>
<trkpt lat="32.580772400" lon="35.006893158">
  <ele>125.211548</ele>
  <time>2011-10-13T07:10:34Z</time>
  <speed>2.580000</speed>
</trkpt>
<trkpt lat="32.580772400" lon="35.006927490">
  <ele>126.328735</ele>
  <time>2011-10-13T07:10:35Z</time>
  <speed>2.740000</speed>
</trkpt>
<trkpt lat="32.580772400" lon="35.006980896">
  <ele>126.789673</ele>
  <time>2011-10-13T07:10:37Z</time>
  <speed>2.520000</speed>
</trkpt>
<trkpt lat="32.580783844" lon="35.007034302">
  <ele>127.455688</ele>
  <time>2011-10-13T07:10:39Z</time>
  <speed>2.910000</speed>
</trkpt>
<trkpt lat="32.580791473" lon="35.007091522">
  <ele>128.399658</ele>
  <time>2011-10-13T07:10:41Z</time>
  <speed>2.820000</speed>
</trkpt>
<trkpt lat="32.580783844" lon="35.007125854">
  <ele>128.774658</ele>
  <time>2011-10-13T07:10:42Z</time>
  <speed>3.160000</speed>
</trkpt>
<trkpt lat="32.580783844" lon="35.007160187">
  <ele>129.110596</ele>
  <time>2011-10-13T07:10:43Z</time>
  <speed>2.740000</speed>
</trkpt>
<trkpt lat="32.580791473" lon="35.007221222">
  <ele>129.208252</ele>
  <time>2011-10-13T07:10:45Z</time>
  <speed>2.290000</speed>
</trkpt>
<trkpt lat="32.580795288" lon="35.007278442">
  <ele>129.950439</ele>
  <time>2011-10-13T07:10:47Z</time>
  <speed>2.410000</speed>
</trkpt>
<trkpt lat="32.580791473" lon="35.007324219">
  <ele>129.356689</ele>
  <time>2011-10-13T07:10:49Z</time>
  <speed>2.350000</speed>
</trkpt>
<trkpt lat="32.580806732" lon="35.007369995">
  <ele>130.016846</ele>
  <time>2011-10-13T07:10:51Z</time>
  <speed>2.320000</speed>
</trkpt>
<trkpt lat="32.580814362" lon="35.007415771">
  <ele>131.200439</ele>
  <time>2011-10-13T07:10:53Z</time>
  <speed>2.360000</speed>
</trkpt>
<trkpt lat="32.580802917" lon="35.007457733">
  <ele>130.977783</ele>
  <time>2011-10-13T07:10:55Z</time>
  <speed>2.230000</speed>
</trkpt>
<trkpt lat="32.580806732" lon="35.007507324">
  <ele>130.610596</ele>
  <time>2011-10-13T07:10:57Z</time>
  <speed>2.170000</speed>
</trkpt>
<trkpt lat="32.580806732" lon="35.007553101">
  <ele>129.848877</ele>
  <time>2011-10-13T07:10:59Z</time>
  <speed>2.140000</speed>
</trkpt>
<trkpt lat="32.580795288" lon="35.007606506">
  <ele>129.524658</ele>
  <time>2011-10-13T07:11:01Z</time>
  <speed>2.250000</speed>
</trkpt>
<trkpt lat="32.580780029" lon="35.007656097">
  <ele>129.305908</ele>
  <time>2011-10-13T07:11:03Z</time>
  <speed>2.340000</speed>
</trkpt>
<trkpt lat="32.580772400" lon="35.007705688">
  <ele>128.598877</ele>
  <time>2011-10-13T07:11:05Z</time>
  <speed>2.320000</speed>
</trkpt>
<trkpt lat="32.580764771" lon="35.007747650">
  <ele>128.325439</ele>
  <time>2011-10-13T07:11:07Z</time>
  <speed>1.990000</speed>
</trkpt>
<trkpt lat="32.580753326" lon="35.007801056">
  <ele>127.859985</ele>
  <time>2011-10-13T07:11:09Z</time>
  <speed>2.060000</speed>
</trkpt>
<trkpt lat="32.580753326" lon="35.007846832">
  <ele>128.036377</ele>
  <time>2011-10-13T07:11:11Z</time>
  <speed>2.330000</speed>
</trkpt>
<trkpt lat="32.580738068" lon="35.007881165">
  <ele>127.611938</ele>
  <time>2011-10-13T07:11:13Z</time>
  <speed>1.680000</speed>
</trkpt>
<trkpt lat="32.580745697" lon="35.007919312">
  <ele>129.219971</ele>
  <time>2011-10-13T07:11:15Z</time>
  <speed>1.130000</speed>
</trkpt>
<trkpt lat="32.580783844" lon="35.007942200">
  <ele>129.243408</ele>
  <time>2011-10-13T07:11:17Z</time>
  <speed>1.870000</speed>
</trkpt>
<trkpt lat="32.580825806" lon="35.007961273">
  <ele>129.778564</ele>
  <time>2011-10-13T07:11:19Z</time>
  <speed>2.460000</speed>
</trkpt>
<trkpt lat="32.580867767" lon="35.007953644">
  <ele>130.009033</ele>
  <time>2011-10-13T07:11:21Z</time>
  <speed>1.840000</speed>
</trkpt>
<trkpt lat="32.580898285" lon="35.007942200">
  <ele>131.180908</ele>
  <time>2011-10-13T07:11:23Z</time>
  <speed>1.640000</speed>
</trkpt>
<trkpt lat="32.580936432" lon="35.007930756">
  <ele>131.329346</ele>
  <time>2011-10-13T07:11:25Z</time>
  <speed>1.570000</speed>
</trkpt>
<trkpt lat="32.580959320" lon="35.007892609">
  <ele>131.149658</ele>
  <time>2011-10-13T07:11:27Z</time>
  <speed>1.760000</speed>
</trkpt>
<trkpt lat="32.580978394" lon="35.007869720">
  <ele>131.993408</ele>
  <time>2011-10-13T07:11:29Z</time>
  <speed>1.630000</speed>
</trkpt>
<trkpt lat="32.581012726" lon="35.007850647">
  <ele>132.723877</ele>
  <time>2011-10-13T07:11:31Z</time>
  <speed>1.830000</speed>
</trkpt>
<trkpt lat="32.581047058" lon="35.007843018">
  <ele>133.223877</ele>
  <time>2011-10-13T07:11:33Z</time>
  <speed>1.830000</speed>
</trkpt>
<trkpt lat="32.581081390" lon="35.007823944">
  <ele>132.969971</ele>
  <time>2011-10-13T07:11:35Z</time>
  <speed>1.920000</speed>
</trkpt>
<trkpt lat="32.581108093" lon="35.007801056">
  <ele>132.673096</ele>
  <time>2011-10-13T07:11:37Z</time>
  <speed>1.740000</speed>
</trkpt>
<trkpt lat="32.581138611" lon="35.007785797">
  <ele>133.356689</ele>
  <time>2011-10-13T07:11:39Z</time>
  <speed>1.740000</speed>
</trkpt>
<trkpt lat="32.581172943" lon="35.007778168">
  <ele>133.462158</ele>
  <time>2011-10-13T07:11:41Z</time>
  <speed>1.970000</speed>
</trkpt>
<trkpt lat="32.581203461" lon="35.007770538">
  <ele>133.919189</ele>
  <time>2011-10-13T07:11:43Z</time>
  <speed>1.950000</speed>
</trkpt>
<trkpt lat="32.581245422" lon="35.007766724">
  <ele>134.485596</ele>
  <time>2011-10-13T07:11:45Z</time>
  <speed>1.870000</speed>
</trkpt>
<trkpt lat="32.581275940" lon="35.007759094">
  <ele>134.555908</ele>
  <time>2011-10-13T07:11:47Z</time>
  <speed>1.950000</speed>
</trkpt>
<trkpt lat="32.581314087" lon="35.007759094">
  <ele>134.184814</ele>
  <time>2011-10-13T07:11:49Z</time>
  <speed>1.940000</speed>
</trkpt>
<trkpt lat="32.581352234" lon="35.007755280">
  <ele>134.645752</ele>
  <time>2011-10-13T07:11:51Z</time>
  <speed>2.100000</speed>
</trkpt>
<trkpt lat="32.581390381" lon="35.007751465">
  <ele>135.024658</ele>
  <time>2011-10-13T07:11:53Z</time>
  <speed>2.160000</speed>
</trkpt>
<trkpt lat="32.581439972" lon="35.007751465">
  <ele>134.985596</ele>
  <time>2011-10-13T07:11:55Z</time>
  <speed>2.070000</speed>
</trkpt>
<trkpt lat="32.581474304" lon="35.007755280">
  <ele>134.977783</ele>
  <time>2011-10-13T07:11:57Z</time>
  <speed>1.810000</speed>
</trkpt>
<trkpt lat="32.581508636" lon="35.007759094">
  <ele>134.723877</ele>
  <time>2011-10-13T07:11:59Z</time>
  <speed>2.150000</speed>
</trkpt>
<trkpt lat="32.581542969" lon="35.007770538">
  <ele>133.719971</ele>
  <time>2011-10-13T07:12:01Z</time>
  <speed>1.810000</speed>
</trkpt>
<trkpt lat="32.581581116" lon="35.007781982">
  <ele>133.915283</ele>
  <time>2011-10-13T07:12:03Z</time>
  <speed>2.130000</speed>
</trkpt>
<trkpt lat="32.581623077" lon="35.007774353">
  <ele>134.587158</ele>
  <time>2011-10-13T07:12:05Z</time>
  <speed>2.230000</speed>
</trkpt>
<trkpt lat="32.581645966" lon="35.007770538">
  <ele>136.450439</ele>
  <time>2011-10-13T07:12:07Z</time>
  <speed>2.120000</speed>
</trkpt>
<trkpt lat="32.581687927" lon="35.007778168">
  <ele>136.770752</ele>
  <time>2011-10-13T07:12:09Z</time>
  <speed>2.260000</speed>
</trkpt>
<trkpt lat="32.581733704" lon="35.007785797">
  <ele>137.630127</ele>
  <time>2011-10-13T07:12:11Z</time>
  <speed>2.050000</speed>
</trkpt>
<trkpt lat="32.581768036" lon="35.007797241">
  <ele>138.454346</ele>
  <time>2011-10-13T07:12:13Z</time>
  <speed>2.050000</speed>
</trkpt>
<trkpt lat="32.581802368" lon="35.007812500">
  <ele>138.118408</ele>
  <time>2011-10-13T07:12:15Z</time>
  <speed>1.930000</speed>
</trkpt>
<trkpt lat="32.581840515" lon="35.007831573">
  <ele>137.716064</ele>
  <time>2011-10-13T07:12:17Z</time>
  <speed>2.270000</speed>
</trkpt>
<trkpt lat="32.581878662" lon="35.007846832">
  <ele>138.110596</ele>
  <time>2011-10-13T07:12:19Z</time>
  <speed>1.890000</speed>
</trkpt>
<trkpt lat="32.581916809" lon="35.007865906">
  <ele>138.680908</ele>
  <time>2011-10-13T07:12:21Z</time>
  <speed>2.060000</speed>
</trkpt>
<trkpt lat="32.581943512" lon="35.007881165">
  <ele>139.040283</ele>
  <time>2011-10-13T07:12:23Z</time>
  <speed>1.820000</speed>
</trkpt>
<trkpt lat="32.581985474" lon="35.007896423">
  <ele>139.200439</ele>
  <time>2011-10-13T07:12:25Z</time>
  <speed>2.250000</speed>
</trkpt>
<trkpt lat="32.582031250" lon="35.007911682">
  <ele>138.782471</ele>
  <time>2011-10-13T07:12:27Z</time>
  <speed>2.240000</speed>
</trkpt>
<trkpt lat="32.582065582" lon="35.007930756">
  <ele>138.575439</ele>
  <time>2011-10-13T07:12:29Z</time>
  <speed>1.830000</speed>
</trkpt>
<trkpt lat="32.582107544" lon="35.007946014">
  <ele>139.305908</ele>
  <time>2011-10-13T07:12:31Z</time>
  <speed>2.580000</speed>
</trkpt>
<trkpt lat="32.582145691" lon="35.007972717">
  <ele>139.462158</ele>
  <time>2011-10-13T07:12:33Z</time>
  <speed>2.350000</speed>
</trkpt>
<trkpt lat="32.582180023" lon="35.007999420">
  <ele>139.856689</ele>
  <time>2011-10-13T07:12:35Z</time>
  <speed>2.470000</speed>
</trkpt>
<trkpt lat="32.582225800" lon="35.008018494">
  <ele>140.091064</ele>
  <time>2011-10-13T07:12:37Z</time>
  <speed>2.640000</speed>
</trkpt>
<trkpt lat="32.582263947" lon="35.008045197">
  <ele>139.708252</ele>
  <time>2011-10-13T07:12:39Z</time>
  <speed>2.430000</speed>
</trkpt>
<trkpt lat="32.582290649" lon="35.008083344">
  <ele>139.524658</ele>
  <time>2011-10-13T07:12:41Z</time>
  <speed>1.890000</speed>
</trkpt>
<trkpt lat="32.582332611" lon="35.008106232">
  <ele>138.930908</ele>
  <time>2011-10-13T07:12:43Z</time>
  <speed>2.340000</speed>
</trkpt>
<trkpt lat="32.582363129" lon="35.008136749">
  <ele>139.743408</ele>
  <time>2011-10-13T07:12:45Z</time>
  <speed>2.410000</speed>
</trkpt>
<trkpt lat="32.582389832" lon="35.008178711">
  <ele>139.384033</ele>
  <time>2011-10-13T07:12:47Z</time>
  <speed>2.340000</speed>
</trkpt>
<trkpt lat="32.582401276" lon="35.008216858">
  <ele>138.876221</ele>
  <time>2011-10-13T07:12:49Z</time>
  <speed>2.170000</speed>
</trkpt>
<trkpt lat="32.582416534" lon="35.008270264">
  <ele>140.317627</ele>
  <time>2011-10-13T07:12:51Z</time>
  <speed>2.410000</speed>
</trkpt>
<trkpt lat="32.582431793" lon="35.008323669">
  <ele>140.352783</ele>
  <time>2011-10-13T07:12:53Z</time>
  <speed>2.230000</speed>
</trkpt>
<trkpt lat="32.582447052" lon="35.008361816">
  <ele>141.786377</ele>
  <time>2011-10-13T07:12:55Z</time>
  <speed>1.840000</speed>
</trkpt>
<trkpt lat="32.582469940" lon="35.008407593">
  <ele>142.200439</ele>
  <time>2011-10-13T07:12:57Z</time>
  <speed>2.080000</speed>
</trkpt>
<trkpt lat="32.582477570" lon="35.008445740">
  <ele>141.825439</ele>
  <time>2011-10-13T07:12:59Z</time>
  <speed>2.160000</speed>
</trkpt>
<trkpt lat="32.582481384" lon="35.008483887">
  <ele>142.583252</ele>
  <time>2011-10-13T07:13:01Z</time>
  <speed>2.140000</speed>
</trkpt>
<trkpt lat="32.582500458" lon="35.008514404">
  <ele>142.509033</ele>
  <time>2011-10-13T07:13:03Z</time>
  <speed>1.820000</speed>
</trkpt>
<trkpt lat="32.582527161" lon="35.008544922">
  <ele>143.173096</ele>
  <time>2011-10-13T07:13:05Z</time>
  <speed>1.870000</speed>
</trkpt>
<trkpt lat="32.582557678" lon="35.008579254">
  <ele>143.520752</ele>
  <time>2011-10-13T07:13:07Z</time>
  <speed>2.040000</speed>
</trkpt>
<trkpt lat="32.582595825" lon="35.008605957">
  <ele>144.673096</ele>
  <time>2011-10-13T07:13:09Z</time>
  <speed>2.120000</speed>
</trkpt>
<trkpt lat="32.582622528" lon="35.008636475">
  <ele>145.309814</ele>
  <time>2011-10-13T07:13:11Z</time>
  <speed>2.210000</speed>
</trkpt>
<trkpt lat="32.582645416" lon="35.008670807">
  <ele>146.485596</ele>
  <time>2011-10-13T07:13:13Z</time>
  <speed>2.100000</speed>
</trkpt>
<trkpt lat="32.582668304" lon="35.008701324">
  <ele>147.442627</ele>
  <time>2011-10-13T07:13:15Z</time>
  <speed>2.140000</speed>
</trkpt>
<trkpt lat="32.582698822" lon="35.008739471">
  <ele>148.075439</ele>
  <time>2011-10-13T07:13:17Z</time>
  <speed>2.070000</speed>
</trkpt>
<trkpt lat="32.582729340" lon="35.008777618">
  <ele>147.907471</ele>
  <time>2011-10-13T07:13:19Z</time>
  <speed>1.870000</speed>
</trkpt>
<trkpt lat="32.582756042" lon="35.008811951">
  <ele>148.274658</ele>
  <time>2011-10-13T07:13:21Z</time>
  <speed>2.060000</speed>
</trkpt>
<trkpt lat="32.582778931" lon="35.008842468">
  <ele>147.516846</ele>
  <time>2011-10-13T07:13:23Z</time>
  <speed>2.020000</speed>
</trkpt>
<trkpt lat="32.582801819" lon="35.008880615">
  <ele>147.712158</ele>
  <time>2011-10-13T07:13:25Z</time>
  <speed>2.350000</speed>
</trkpt>
<trkpt lat="32.582820892" lon="35.008922577">
  <ele>147.805908</ele>
  <time>2011-10-13T07:13:27Z</time>
  <speed>1.820000</speed>
</trkpt>
<trkpt lat="32.582832336" lon="35.008956909">
  <ele>147.493408</ele>
  <time>2011-10-13T07:13:29Z</time>
  <speed>1.740000</speed>
</trkpt>
<trkpt lat="32.582836151" lon="35.008995056">
  <ele>146.841064</ele>
  <time>2011-10-13T07:13:31Z</time>
  <speed>1.520000</speed>
</trkpt>
<trkpt lat="32.582851410" lon="35.009029388">
  <ele>147.751221</ele>
  <time>2011-10-13T07:13:33Z</time>
  <speed>1.870000</speed>
</trkpt>
<trkpt lat="32.582851410" lon="35.009071350">
  <ele>147.602783</ele>
  <time>2011-10-13T07:13:35Z</time>
  <speed>2.030000</speed>
</trkpt>
<trkpt lat="32.582862854" lon="35.009109497">
  <ele>147.696533</ele>
  <time>2011-10-13T07:13:37Z</time>
  <speed>2.030000</speed>
</trkpt>
<trkpt lat="32.582862854" lon="35.009151459">
  <ele>147.954346</ele>
  <time>2011-10-13T07:13:39Z</time>
  <speed>1.970000</speed>
</trkpt>
<trkpt lat="32.582859039" lon="35.009201050">
  <ele>148.610596</ele>
  <time>2011-10-13T07:13:41Z</time>
  <speed>1.960000</speed>
</trkpt>
<trkpt lat="32.582862854" lon="35.009246826">
  <ele>148.997314</ele>
  <time>2011-10-13T07:13:43Z</time>
  <speed>2.060000</speed>
</trkpt>
<trkpt lat="32.582874298" lon="35.009284973">
  <ele>150.309814</ele>
  <time>2011-10-13T07:13:45Z</time>
  <speed>1.730000</speed>
</trkpt>
<trkpt lat="32.582878113" lon="35.009330750">
  <ele>150.946533</ele>
  <time>2011-10-13T07:13:47Z</time>
  <speed>2.030000</speed>
</trkpt>
<trkpt lat="32.582878113" lon="35.009368896">
  <ele>151.012939</ele>
  <time>2011-10-13T07:13:49Z</time>
  <speed>1.520000</speed>
</trkpt>
<trkpt lat="32.582908630" lon="35.009407043">
  <ele>151.497314</ele>
  <time>2011-10-13T07:13:52Z</time>
  <speed>1.540000</speed>
</trkpt>
<trkpt lat="32.582931519" lon="35.009426117">
  <ele>150.708252</ele>
  <time>2011-10-13T07:13:54Z</time>
  <speed>1.890000</speed>
</trkpt>
<trkpt lat="32.582969666" lon="35.009445190">
  <ele>150.907471</ele>
  <time>2011-10-13T07:13:56Z</time>
  <speed>1.910000</speed>
</trkpt>
<trkpt lat="32.583000183" lon="35.009471893">
  <ele>151.223877</ele>
  <time>2011-10-13T07:13:58Z</time>
  <speed>1.860000</speed>
</trkpt>
<trkpt lat="32.583038330" lon="35.009494781">
  <ele>151.012939</ele>
  <time>2011-10-13T07:14:00Z</time>
  <speed>1.750000</speed>
</trkpt>
<trkpt lat="32.583065033" lon="35.009525299">
  <ele>151.395752</ele>
  <time>2011-10-13T07:14:02Z</time>
  <speed>1.640000</speed>
</trkpt>
<trkpt lat="32.583087921" lon="35.009548187">
  <ele>151.708252</ele>
  <time>2011-10-13T07:14:04Z</time>
  <speed>1.790000</speed>
</trkpt>
<trkpt lat="32.583114624" lon="35.009578705">
  <ele>152.075439</ele>
  <time>2011-10-13T07:14:06Z</time>
  <speed>1.970000</speed>
</trkpt>
<trkpt lat="32.583137512" lon="35.009613037">
  <ele>152.423096</ele>
  <time>2011-10-13T07:14:08Z</time>
  <speed>1.750000</speed>
</trkpt>
<trkpt lat="32.583152771" lon="35.009647369">
  <ele>153.016846</ele>
  <time>2011-10-13T07:14:10Z</time>
  <speed>2.030000</speed>
</trkpt>
<trkpt lat="32.583175659" lon="35.009681702">
  <ele>152.481689</ele>
  <time>2011-10-13T07:14:12Z</time>
  <speed>1.960000</speed>
</trkpt>
<trkpt lat="32.583194733" lon="35.009723663">
  <ele>153.009033</ele>
  <time>2011-10-13T07:14:14Z</time>
  <speed>1.760000</speed>
</trkpt>
<trkpt lat="32.583209991" lon="35.009765625">
  <ele>153.688721</ele>
  <time>2011-10-13T07:14:16Z</time>
  <speed>1.930000</speed>
</trkpt>
<trkpt lat="32.583229065" lon="35.009803772">
  <ele>154.044189</ele>
  <time>2011-10-13T07:14:18Z</time>
  <speed>1.890000</speed>
</trkpt>
<trkpt lat="32.583248138" lon="35.009838104">
  <ele>155.227783</ele>
  <time>2011-10-13T07:14:20Z</time>
  <speed>2.000000</speed>
</trkpt>
<trkpt lat="32.583274841" lon="35.009876251">
  <ele>156.012939</ele>
  <time>2011-10-13T07:14:22Z</time>
  <speed>2.250000</speed>
</trkpt>
<trkpt lat="32.583301544" lon="35.009922028">
  <ele>156.063721</ele>
  <time>2011-10-13T07:14:24Z</time>
  <speed>2.240000</speed>
</trkpt>
<trkpt lat="32.583320618" lon="35.009963989">
  <ele>155.587158</ele>
  <time>2011-10-13T07:14:26Z</time>
  <speed>2.480000</speed>
</trkpt>
<trkpt lat="32.583339691" lon="35.010005951">
  <ele>155.548096</ele>
  <time>2011-10-13T07:14:28Z</time>
  <speed>2.310000</speed>
</trkpt>
<trkpt lat="32.583358765" lon="35.010047913">
  <ele>155.677002</ele>
  <time>2011-10-13T07:14:30Z</time>
  <speed>2.390000</speed>
</trkpt>
<trkpt lat="32.583377838" lon="35.010089874">
  <ele>155.880127</ele>
  <time>2011-10-13T07:14:32Z</time>
  <speed>2.260000</speed>
</trkpt>
<trkpt lat="32.583400726" lon="35.010139465">
  <ele>156.329346</ele>
  <time>2011-10-13T07:14:34Z</time>
  <speed>2.620000</speed>
</trkpt>
<trkpt lat="32.583427429" lon="35.010181427">
  <ele>155.684814</ele>
  <time>2011-10-13T07:14:36Z</time>
  <speed>2.360000</speed>
</trkpt>
<trkpt lat="32.583457947" lon="35.010223389">
  <ele>155.903564</ele>
  <time>2011-10-13T07:14:38Z</time>
  <speed>2.190000</speed>
</trkpt>
<trkpt lat="32.583484650" lon="35.010269165">
  <ele>156.200439</ele>
  <time>2011-10-13T07:14:40Z</time>
  <speed>2.060000</speed>
</trkpt>
<trkpt lat="32.583499908" lon="35.010311127">
  <ele>156.122314</ele>
  <time>2011-10-13T07:14:42Z</time>
  <speed>2.290000</speed>
</trkpt>
<trkpt lat="32.583522797" lon="35.010353088">
  <ele>156.391846</ele>
  <time>2011-10-13T07:14:44Z</time>
  <speed>2.260000</speed>
</trkpt>
<trkpt lat="32.583534241" lon="35.010395050">
  <ele>156.915283</ele>
  <time>2011-10-13T07:14:46Z</time>
  <speed>2.370000</speed>
</trkpt>
<trkpt lat="32.583549500" lon="35.010444641">
  <ele>157.622314</ele>
  <time>2011-10-13T07:14:48Z</time>
  <speed>2.300000</speed>
</trkpt>
<trkpt lat="32.583568573" lon="35.010471344">
  <ele>158.161377</ele>
  <time>2011-10-13T07:14:49Z</time>
  <speed>2.390000</speed>
</trkpt>
<trkpt lat="32.583595276" lon="35.010520935">
  <ele>158.864502</ele>
  <time>2011-10-13T07:14:51Z</time>
  <speed>2.360000</speed>
</trkpt>
<trkpt lat="32.583618164" lon="35.010570526">
  <ele>158.766846</ele>
  <time>2011-10-13T07:14:53Z</time>
  <speed>2.250000</speed>
</trkpt>
<trkpt lat="32.583656311" lon="35.010604858">
  <ele>160.118408</ele>
  <time>2011-10-13T07:14:55Z</time>
  <speed>2.430000</speed>
</trkpt>
<trkpt lat="32.583679199" lon="35.010635376">
  <ele>158.727783</ele>
  <time>2011-10-13T07:14:57Z</time>
  <speed>2.310000</speed>
</trkpt>
<trkpt lat="32.583717346" lon="35.010662079">
  <ele>157.684814</ele>
  <time>2011-10-13T07:14:59Z</time>
  <speed>2.610000</speed>
</trkpt>
<trkpt lat="32.583747864" lon="35.010696411">
  <ele>157.919189</ele>
  <time>2011-10-13T07:15:01Z</time>
  <speed>2.350000</speed>
</trkpt>
<trkpt lat="32.583770752" lon="35.010746002">
  <ele>158.247314</ele>
  <time>2011-10-13T07:15:03Z</time>
  <speed>2.190000</speed>
</trkpt>
<trkpt lat="32.583789825" lon="35.010787964">
  <ele>158.841064</ele>
  <time>2011-10-13T07:15:05Z</time>
  <speed>2.190000</speed>
</trkpt>
<trkpt lat="32.583801270" lon="35.010837555">
  <ele>159.723877</ele>
  <time>2011-10-13T07:15:07Z</time>
  <speed>2.080000</speed>
</trkpt>
<trkpt lat="32.583808899" lon="35.010890961">
  <ele>160.481689</ele>
  <time>2011-10-13T07:15:09Z</time>
  <speed>2.310000</speed>
</trkpt>
<trkpt lat="32.583812714" lon="35.010932922">
  <ele>161.481689</ele>
  <time>2011-10-13T07:15:11Z</time>
  <speed>1.880000</speed>
</trkpt>
<trkpt lat="32.583816528" lon="35.010978699">
  <ele>162.430908</ele>
  <time>2011-10-13T07:15:13Z</time>
  <speed>2.220000</speed>
</trkpt>
<trkpt lat="32.583816528" lon="35.011024475">
  <ele>162.872314</ele>
  <time>2011-10-13T07:15:15Z</time>
  <speed>2.300000</speed>
</trkpt>
<trkpt lat="32.583812714" lon="35.011074066">
  <ele>162.841064</ele>
  <time>2011-10-13T07:15:17Z</time>
  <speed>2.160000</speed>
</trkpt>
<trkpt lat="32.583812714" lon="35.011112213">
  <ele>161.493408</ele>
  <time>2011-10-13T07:15:19Z</time>
  <speed>1.900000</speed>
</trkpt>
<trkpt lat="32.583812714" lon="35.011157990">
  <ele>161.180908</ele>
  <time>2011-10-13T07:15:21Z</time>
  <speed>2.010000</speed>
</trkpt>
<trkpt lat="32.583812714" lon="35.011199951">
  <ele>162.493408</ele>
  <time>2011-10-13T07:15:23Z</time>
  <speed>2.080000</speed>
</trkpt>
<trkpt lat="32.583808899" lon="35.011249542">
  <ele>162.278564</ele>
  <time>2011-10-13T07:15:25Z</time>
  <speed>2.350000</speed>
</trkpt>
<trkpt lat="32.583805084" lon="35.011291504">
  <ele>162.997314</ele>
  <time>2011-10-13T07:15:27Z</time>
  <speed>1.910000</speed>
</trkpt>
<trkpt lat="32.583797455" lon="35.011333466">
  <ele>163.719971</ele>
  <time>2011-10-13T07:15:29Z</time>
  <speed>2.080000</speed>
</trkpt>
<trkpt lat="32.583786011" lon="35.011371613">
  <ele>163.235596</ele>
  <time>2011-10-13T07:15:31Z</time>
  <speed>1.890000</speed>
</trkpt>
<trkpt lat="32.583766937" lon="35.011413574">
  <ele>163.216064</ele>
  <time>2011-10-13T07:15:33Z</time>
  <speed>2.080000</speed>
</trkpt>
<trkpt lat="32.583744049" lon="35.011447906">
  <ele>162.723877</ele>
  <time>2011-10-13T07:15:35Z</time>
  <speed>2.170000</speed>
</trkpt>
<trkpt lat="32.583713531" lon="35.011478424">
  <ele>162.930908</ele>
  <time>2011-10-13T07:15:37Z</time>
  <speed>2.070000</speed>
</trkpt>
<trkpt lat="32.583694458" lon="35.011512756">
  <ele>162.876221</ele>
  <time>2011-10-13T07:15:39Z</time>
  <speed>2.150000</speed>
</trkpt>
<trkpt lat="32.583686829" lon="35.011554718">
  <ele>164.364502</ele>
  <time>2011-10-13T07:15:41Z</time>
  <speed>1.850000</speed>
</trkpt>
<trkpt lat="32.583667755" lon="35.011596680">
  <ele>164.239502</ele>
  <time>2011-10-13T07:15:43Z</time>
  <speed>1.900000</speed>
</trkpt>
<trkpt lat="32.583667755" lon="35.011638641">
  <ele>164.040283</ele>
  <time>2011-10-13T07:15:45Z</time>
  <speed>1.930000</speed>
</trkpt>
<trkpt lat="32.583663940" lon="35.011684418">
  <ele>164.282471</ele>
  <time>2011-10-13T07:15:47Z</time>
  <speed>1.780000</speed>
</trkpt>
<trkpt lat="32.583663940" lon="35.011726379">
  <ele>164.770752</ele>
  <time>2011-10-13T07:15:49Z</time>
  <speed>1.740000</speed>
</trkpt>
<trkpt lat="32.583663940" lon="35.011764526">
  <ele>165.852783</ele>
  <time>2011-10-13T07:15:51Z</time>
  <speed>1.890000</speed>
</trkpt>
<trkpt lat="32.583663940" lon="35.011802673">
  <ele>165.688721</ele>
  <time>2011-10-13T07:15:53Z</time>
  <speed>1.780000</speed>
</trkpt>
<trkpt lat="32.583663940" lon="35.011852264">
  <ele>166.536377</ele>
  <time>2011-10-13T07:15:55Z</time>
  <speed>1.940000</speed>
</trkpt>
<trkpt lat="32.583660126" lon="35.011898041">
  <ele>167.032471</ele>
  <time>2011-10-13T07:15:57Z</time>
  <speed>1.990000</speed>
</trkpt>
<trkpt lat="32.583656311" lon="35.011932373">
  <ele>167.548096</ele>
  <time>2011-10-13T07:15:59Z</time>
  <speed>1.700000</speed>
</trkpt>
<trkpt lat="32.583644867" lon="35.011962891">
  <ele>167.911377</ele>
  <time>2011-10-13T07:16:01Z</time>
  <speed>1.610000</speed>
</trkpt>
<trkpt lat="32.583621979" lon="35.011993408">
  <ele>167.352783</ele>
  <time>2011-10-13T07:16:03Z</time>
  <speed>2.080000</speed>
</trkpt>
<trkpt lat="32.583595276" lon="35.012020111">
  <ele>167.091064</ele>
  <time>2011-10-13T07:16:05Z</time>
  <speed>1.790000</speed>
</trkpt>
<trkpt lat="32.583568573" lon="35.012042999">
  <ele>167.364502</ele>
  <time>2011-10-13T07:16:07Z</time>
  <speed>1.560000</speed>
</trkpt>
<trkpt lat="32.583541870" lon="35.012065887">
  <ele>167.262939</ele>
  <time>2011-10-13T07:16:09Z</time>
  <speed>1.740000</speed>
</trkpt>
<trkpt lat="32.583526611" lon="35.012107849">
  <ele>167.790283</ele>
  <time>2011-10-13T07:16:11Z</time>
  <speed>1.820000</speed>
</trkpt>
<trkpt lat="32.583511353" lon="35.012145996">
  <ele>167.774658</ele>
  <time>2011-10-13T07:16:13Z</time>
  <speed>2.000000</speed>
</trkpt>
<trkpt lat="32.583499908" lon="35.012199402">
  <ele>168.231689</ele>
  <time>2011-10-13T07:16:16Z</time>
  <speed>1.570000</speed>
</trkpt>
<trkpt lat="32.583492279" lon="35.012241364">
  <ele>168.516846</ele>
  <time>2011-10-13T07:16:19Z</time>
  <speed>1.610000</speed>
</trkpt>
<trkpt lat="32.583484650" lon="35.012275696">
  <ele>168.919189</ele>
  <time>2011-10-13T07:16:21Z</time>
  <speed>1.950000</speed>
</trkpt>
<trkpt lat="32.583484650" lon="35.012306213">
  <ele>169.610596</ele>
  <time>2011-10-13T07:16:22Z</time>
  <speed>2.120000</speed>
</trkpt>
<trkpt lat="32.583484650" lon="35.012351990">
  <ele>169.649658</ele>
  <time>2011-10-13T07:16:24Z</time>
  <speed>1.660000</speed>
</trkpt>
<trkpt lat="32.583488464" lon="35.012393951">
  <ele>169.821533</ele>
  <time>2011-10-13T07:16:26Z</time>
  <speed>1.760000</speed>
</trkpt>
<trkpt lat="32.583499908" lon="35.012435913">
  <ele>169.751221</ele>
  <time>2011-10-13T07:16:28Z</time>
  <speed>1.960000</speed>
</trkpt>
<trkpt lat="32.583511353" lon="35.012481689">
  <ele>169.419189</ele>
  <time>2011-10-13T07:16:30Z</time>
  <speed>1.880000</speed>
</trkpt>
<trkpt lat="32.583518982" lon="35.012519836">
  <ele>169.915283</ele>
  <time>2011-10-13T07:16:32Z</time>
  <speed>1.500000</speed>
</trkpt>
<trkpt lat="32.583541870" lon="35.012554169">
  <ele>169.899658</ele>
  <time>2011-10-13T07:16:34Z</time>
  <speed>1.690000</speed>
</trkpt>
<trkpt lat="32.583553314" lon="35.012584686">
  <ele>169.809814</ele>
  <time>2011-10-13T07:16:36Z</time>
  <speed>1.860000</speed>
</trkpt>
<trkpt lat="32.583576202" lon="35.012626648">
  <ele>170.208252</ele>
  <time>2011-10-13T07:16:38Z</time>
  <speed>2.240000</speed>
</trkpt>
<trkpt lat="32.583595276" lon="35.012683868">
  <ele>170.751221</ele>
  <time>2011-10-13T07:16:40Z</time>
  <speed>2.270000</speed>
</trkpt>
<trkpt lat="32.583614349" lon="35.012729645">
  <ele>171.032471</ele>
  <time>2011-10-13T07:16:42Z</time>
  <speed>2.500000</speed>
</trkpt>
<trkpt lat="32.583629608" lon="35.012771606">
  <ele>171.473877</ele>
  <time>2011-10-13T07:16:44Z</time>
  <speed>2.430000</speed>
</trkpt>
<trkpt lat="32.583637238" lon="35.012813568">
  <ele>171.544189</ele>
  <time>2011-10-13T07:16:46Z</time>
  <speed>2.020000</speed>
</trkpt>
<trkpt lat="32.583644867" lon="35.012859344">
  <ele>172.200439</ele>
  <time>2011-10-13T07:16:48Z</time>
  <speed>1.970000</speed>
</trkpt>
<trkpt lat="32.583667755" lon="35.012912750">
  <ele>172.759033</ele>
  <time>2011-10-13T07:16:50Z</time>
  <speed>2.580000</speed>
</trkpt>
<trkpt lat="32.583675385" lon="35.012943268">
  <ele>172.802002</ele>
  <time>2011-10-13T07:16:51Z</time>
  <speed>2.810000</speed>
</trkpt>
<trkpt lat="32.583690643" lon="35.013008118">
  <ele>172.430908</ele>
  <time>2011-10-13T07:16:53Z</time>
  <speed>2.980000</speed>
</trkpt>
<trkpt lat="32.583690643" lon="35.013046265">
  <ele>172.005127</ele>
  <time>2011-10-13T07:16:54Z</time>
  <speed>3.360000</speed>
</trkpt>
<trkpt lat="32.583702087" lon="35.013080597">
  <ele>172.778564</ele>
  <time>2011-10-13T07:16:55Z</time>
  <speed>3.260000</speed>
</trkpt>
<trkpt lat="32.583702087" lon="35.013111115">
  <ele>172.216064</ele>
  <time>2011-10-13T07:16:56Z</time>
  <speed>3.200000</speed>
</trkpt>
<trkpt lat="32.583705902" lon="35.013145447">
  <ele>172.110596</ele>
  <time>2011-10-13T07:16:57Z</time>
  <speed>3.190000</speed>
</trkpt>
<trkpt lat="32.583713531" lon="35.013202667">
  <ele>171.708252</ele>
  <time>2011-10-13T07:16:59Z</time>
  <speed>2.870000</speed>
</trkpt>
<trkpt lat="32.583732605" lon="35.013229370">
  <ele>171.790283</ele>
  <time>2011-10-13T07:17:00Z</time>
  <speed>2.460000</speed>
</trkpt>
<trkpt lat="32.583759308" lon="35.013263702">
  <ele>172.380127</ele>
  <time>2011-10-13T07:17:02Z</time>
  <speed>1.890000</speed>
</trkpt>
<trkpt lat="32.583789825" lon="35.013290405">
  <ele>172.649658</ele>
  <time>2011-10-13T07:17:04Z</time>
  <speed>1.600000</speed>
</trkpt>
<trkpt lat="32.583820343" lon="35.013313293">
  <ele>172.817627</ele>
  <time>2011-10-13T07:17:06Z</time>
  <speed>1.740000</speed>
</trkpt>
<trkpt lat="32.583850861" lon="35.013324738">
  <ele>172.434814</ele>
  <time>2011-10-13T07:17:08Z</time>
  <speed>1.780000</speed>
</trkpt>
<trkpt lat="32.583881378" lon="35.013339996">
  <ele>173.067627</ele>
  <time>2011-10-13T07:17:10Z</time>
  <speed>1.700000</speed>
</trkpt>
<trkpt lat="32.583915710" lon="35.013328552">
  <ele>173.075439</ele>
  <time>2011-10-13T07:17:12Z</time>
  <speed>1.440000</speed>
</trkpt>
<trkpt lat="32.583950043" lon="35.013336182">
  <ele>172.442627</ele>
  <time>2011-10-13T07:17:14Z</time>
  <speed>1.480000</speed>
</trkpt>
<trkpt lat="32.583980560" lon="35.013351440">
  <ele>172.075439</ele>
  <time>2011-10-13T07:17:16Z</time>
  <speed>2.050000</speed>
</trkpt>
<trkpt lat="32.584022522" lon="35.013362885">
  <ele>171.790283</ele>
  <time>2011-10-13T07:17:18Z</time>
  <speed>1.990000</speed>
</trkpt>
<trkpt lat="32.584064484" lon="35.013374329">
  <ele>172.305908</ele>
  <time>2011-10-13T07:17:20Z</time>
  <speed>1.850000</speed>
</trkpt>
<trkpt lat="32.584095001" lon="35.013378143">
  <ele>172.614502</ele>
  <time>2011-10-13T07:17:22Z</time>
  <speed>1.920000</speed>
</trkpt>
<trkpt lat="32.584133148" lon="35.013374329">
  <ele>172.993408</ele>
  <time>2011-10-13T07:17:24Z</time>
  <speed>1.530000</speed>
</trkpt>
<trkpt lat="32.584163666" lon="35.013359070">
  <ele>172.544189</ele>
  <time>2011-10-13T07:17:26Z</time>
  <speed>1.920000</speed>
</trkpt>
<trkpt lat="32.584201813" lon="35.013336182">
  <ele>173.165283</ele>
  <time>2011-10-13T07:17:28Z</time>
  <speed>1.960000</speed>
</trkpt>
<trkpt lat="32.584236145" lon="35.013309479">
  <ele>172.626221</ele>
  <time>2011-10-13T07:17:30Z</time>
  <speed>2.220000</speed>
</trkpt>
<trkpt lat="32.584274292" lon="35.013286591">
  <ele>172.368408</ele>
  <time>2011-10-13T07:17:32Z</time>
  <speed>2.270000</speed>
</trkpt>
<trkpt lat="32.584308624" lon="35.013271332">
  <ele>172.430908</ele>
  <time>2011-10-13T07:17:34Z</time>
  <speed>2.120000</speed>
</trkpt>
<trkpt lat="32.584358215" lon="35.013244629">
  <ele>172.907471</ele>
  <time>2011-10-13T07:17:36Z</time>
  <speed>2.890000</speed>
</trkpt>
<trkpt lat="32.584377289" lon="35.013217926">
  <ele>173.118408</ele>
  <time>2011-10-13T07:17:37Z</time>
  <speed>2.750000</speed>
</trkpt>
<trkpt lat="32.584392548" lon="35.013179779">
  <ele>174.798096</ele>
  <time>2011-10-13T07:17:38Z</time>
  <speed>2.880000</speed>
</trkpt>
<trkpt lat="32.584434509" lon="35.013149261">
  <ele>174.938721</ele>
  <time>2011-10-13T07:17:40Z</time>
  <speed>2.420000</speed>
</trkpt>
<trkpt lat="32.584461212" lon="35.013122559">
  <ele>174.446533</ele>
  <time>2011-10-13T07:17:42Z</time>
  <speed>1.680000</speed>
</trkpt>
<trkpt lat="32.584487915" lon="35.013107300">
  <ele>174.098877</ele>
  <time>2011-10-13T07:17:44Z</time>
  <speed>1.370000</speed>
</trkpt>
<trkpt lat="32.584503174" lon="35.013072968">
  <ele>174.067627</ele>
  <time>2011-10-13T07:17:46Z</time>
  <speed>1.640000</speed>
</trkpt>
<trkpt lat="32.584514618" lon="35.013042450">
  <ele>173.844971</ele>
  <time>2011-10-13T07:17:48Z</time>
  <speed>1.210000</speed>
</trkpt>
<trkpt lat="32.584533691" lon="35.013008118">
  <ele>173.227783</ele>
  <time>2011-10-13T07:17:51Z</time>
  <speed>1.380000</speed>
</trkpt>
<trkpt lat="32.584548950" lon="35.012977600">
  <ele>172.770752</ele>
  <time>2011-10-13T07:17:53Z</time>
  <speed>1.070000</speed>
</trkpt>
<trkpt lat="32.584545135" lon="35.012947083">
  <ele>172.075439</ele>
  <time>2011-10-13T07:17:56Z</time>
  <speed>1.000000</speed>
</trkpt>
<trkpt lat="32.584560394" lon="35.012916565">
  <ele>171.528564</ele>
  <time>2011-10-13T07:17:58Z</time>
  <speed>0.880000</speed>
</trkpt>
<trkpt lat="32.584575653" lon="35.012889862">
  <ele>171.368408</ele>
  <time>2011-10-13T07:18:03Z</time>
  <speed>0.180000</speed>
</trkpt>
<trkpt lat="32.584548950" lon="35.012889862">
  <ele>170.891846</ele>
  <time>2011-10-13T07:23:24Z</time>
</trkpt>
<trkpt lat="32.584556580" lon="35.012859344">
  <ele>171.891846</ele>
  <time>2011-10-13T07:27:34Z</time>
  <speed>0.200000</speed>
</trkpt>
<trkpt lat="32.584568024" lon="35.012832642">
  <ele>173.001221</ele>
  <time>2011-10-13T07:27:46Z</time>
  <speed>0.240000</speed>
</trkpt>
<trkpt lat="32.584579468" lon="35.012790680">
  <ele>174.419189</ele>
  <time>2011-10-13T07:27:56Z</time>
  <speed>0.700000</speed>
</trkpt>
<trkpt lat="32.584594727" lon="35.012748718">
  <ele>173.423096</ele>
  <time>2011-10-13T07:27:59Z</time>
  <speed>2.180000</speed>
</trkpt>
<trkpt lat="32.584621429" lon="35.012699127">
  <ele>174.188721</ele>
  <time>2011-10-13T07:28:01Z</time>
  <speed>2.570000</speed>
</trkpt>
<trkpt lat="32.584651947" lon="35.012660980">
  <ele>173.536377</ele>
  <time>2011-10-13T07:28:03Z</time>
  <speed>2.690000</speed>
</trkpt>
<trkpt lat="32.584663391" lon="35.012630463">
  <ele>173.606689</ele>
  <time>2011-10-13T07:28:04Z</time>
  <speed>2.870000</speed>
</trkpt>
<trkpt lat="32.584678650" lon="35.012599945">
  <ele>172.829346</ele>
  <time>2011-10-13T07:28:05Z</time>
  <speed>3.020000</speed>
</trkpt>
<trkpt lat="32.584693909" lon="35.012569427">
  <ele>172.028564</ele>
  <time>2011-10-13T07:28:06Z</time>
  <speed>2.720000</speed>
</trkpt>
<trkpt lat="32.584720612" lon="35.012535095">
  <ele>170.872314</ele>
  <time>2011-10-13T07:28:08Z</time>
  <speed>2.810000</speed>
</trkpt>
<trkpt lat="32.584743500" lon="35.012516022">
  <ele>170.184814</ele>
  <time>2011-10-13T07:28:09Z</time>
  <speed>2.860000</speed>
</trkpt>
<trkpt lat="32.584766388" lon="35.012493134">
  <ele>170.348877</ele>
  <time>2011-10-13T07:28:10Z</time>
  <speed>3.170000</speed>
</trkpt>
<trkpt lat="32.584789276" lon="35.012454987">
  <ele>171.454346</ele>
  <time>2011-10-13T07:28:11Z</time>
  <speed>3.430000</speed>
</trkpt>
<trkpt lat="32.584812164" lon="35.012432098">
  <ele>171.634033</ele>
  <time>2011-10-13T07:28:12Z</time>
  <speed>3.610000</speed>
</trkpt>
<trkpt lat="32.584838867" lon="35.012413025">
  <ele>171.981689</ele>
  <time>2011-10-13T07:28:13Z</time>
  <speed>3.280000</speed>
</trkpt>
<trkpt lat="32.584865570" lon="35.012401581">
  <ele>171.571533</ele>
  <time>2011-10-13T07:28:14Z</time>
  <speed>3.210000</speed>
</trkpt>
<trkpt lat="32.584892273" lon="35.012386322">
  <ele>172.344971</ele>
  <time>2011-10-13T07:28:15Z</time>
  <speed>3.040000</speed>
</trkpt>
<trkpt lat="32.584918976" lon="35.012371063">
  <ele>172.067627</ele>
  <time>2011-10-13T07:28:16Z</time>
  <speed>3.100000</speed>
</trkpt>
<trkpt lat="32.584941864" lon="35.012359619">
  <ele>172.700439</ele>
  <time>2011-10-13T07:28:17Z</time>
  <speed>3.080000</speed>
</trkpt>
<trkpt lat="32.584972382" lon="35.012344360">
  <ele>172.688721</ele>
  <time>2011-10-13T07:28:18Z</time>
  <speed>3.310000</speed>
</trkpt>
<trkpt lat="32.585018158" lon="35.012313843">
  <ele>173.067627</ele>
  <time>2011-10-13T07:28:20Z</time>
  <speed>3.060000</speed>
</trkpt>
<trkpt lat="32.585067749" lon="35.012298584">
  <ele>174.001221</ele>
  <time>2011-10-13T07:28:22Z</time>
  <speed>2.820000</speed>
</trkpt>
<trkpt lat="32.585098267" lon="35.012287140">
  <ele>173.528564</ele>
  <time>2011-10-13T07:28:23Z</time>
  <speed>3.280000</speed>
</trkpt>
<trkpt lat="32.585124969" lon="35.012264252">
  <ele>174.227783</ele>
  <time>2011-10-13T07:28:24Z</time>
  <speed>3.220000</speed>
</trkpt>
<trkpt lat="32.585163116" lon="35.012218475">
  <ele>174.122314</ele>
  <time>2011-10-13T07:28:26Z</time>
  <speed>3.420000</speed>
</trkpt>
<trkpt lat="32.585182190" lon="35.012172699">
  <ele>175.762939</ele>
  <time>2011-10-13T07:28:27Z</time>
  <speed>3.570000</speed>
</trkpt>
<trkpt lat="32.585201263" lon="35.012138367">
  <ele>175.876221</ele>
  <time>2011-10-13T07:28:28Z</time>
  <speed>3.550000</speed>
</trkpt>
<trkpt lat="32.585216522" lon="35.012104034">
  <ele>175.509033</ele>
  <time>2011-10-13T07:28:29Z</time>
  <speed>3.490000</speed>
</trkpt>
<trkpt lat="32.585231781" lon="35.012065887">
  <ele>175.884033</ele>
  <time>2011-10-13T07:28:30Z</time>
  <speed>3.680000</speed>
</trkpt>
<trkpt lat="32.585243225" lon="35.012031555">
  <ele>176.063721</ele>
  <time>2011-10-13T07:28:31Z</time>
  <speed>3.670000</speed>
</trkpt>
<trkpt lat="32.585254669" lon="35.011993408">
  <ele>176.055908</ele>
  <time>2011-10-13T07:28:32Z</time>
  <speed>3.720000</speed>
</trkpt>
<trkpt lat="32.585266113" lon="35.011962891">
  <ele>175.325439</ele>
  <time>2011-10-13T07:28:33Z</time>
  <speed>3.710000</speed>
</trkpt>
<trkpt lat="32.585281372" lon="35.011928558">
  <ele>174.552002</ele>
  <time>2011-10-13T07:28:34Z</time>
  <speed>3.530000</speed>
</trkpt>
<trkpt lat="32.585296631" lon="35.011882782">
  <ele>175.536377</ele>
  <time>2011-10-13T07:28:35Z</time>
  <speed>3.710000</speed>
</trkpt>
<trkpt lat="32.585311890" lon="35.011848450">
  <ele>175.505127</ele>
  <time>2011-10-13T07:28:36Z</time>
  <speed>3.690000</speed>
</trkpt>
<trkpt lat="32.585330963" lon="35.011814117">
  <ele>175.071533</ele>
  <time>2011-10-13T07:28:37Z</time>
  <speed>3.770000</speed>
</trkpt>
<trkpt lat="32.585350037" lon="35.011772156">
  <ele>175.653564</ele>
  <time>2011-10-13T07:28:38Z</time>
  <speed>3.850000</speed>
</trkpt>
<trkpt lat="32.585369110" lon="35.011737823">
  <ele>175.770752</ele>
  <time>2011-10-13T07:28:39Z</time>
  <speed>3.710000</speed>
</trkpt>
<trkpt lat="32.585380554" lon="35.011703491">
  <ele>176.446533</ele>
  <time>2011-10-13T07:28:40Z</time>
  <speed>3.540000</speed>
</trkpt>
<trkpt lat="32.585391998" lon="35.011665344">
  <ele>176.505127</ele>
  <time>2011-10-13T07:28:41Z</time>
  <speed>3.640000</speed>
</trkpt>
<trkpt lat="32.585403442" lon="35.011627197">
  <ele>176.532471</ele>
  <time>2011-10-13T07:28:42Z</time>
  <speed>3.680000</speed>
</trkpt>
<trkpt lat="32.585411072" lon="35.011592865">
  <ele>176.442627</ele>
  <time>2011-10-13T07:28:43Z</time>
  <speed>3.620000</speed>
</trkpt>
<trkpt lat="32.585422516" lon="35.011554718">
  <ele>176.356689</ele>
  <time>2011-10-13T07:28:44Z</time>
  <speed>3.710000</speed>
</trkpt>
<trkpt lat="32.585433960" lon="35.011524200">
  <ele>176.684814</ele>
  <time>2011-10-13T07:28:45Z</time>
  <speed>3.640000</speed>
</trkpt>
<trkpt lat="32.585456848" lon="35.011489868">
  <ele>176.555908</ele>
  <time>2011-10-13T07:28:46Z</time>
  <speed>3.690000</speed>
</trkpt>
<trkpt lat="32.585479736" lon="35.011463165">
  <ele>176.512939</ele>
  <time>2011-10-13T07:28:47Z</time>
  <speed>3.620000</speed>
</trkpt>
<trkpt lat="32.585502625" lon="35.011436462">
  <ele>176.684814</ele>
  <time>2011-10-13T07:28:48Z</time>
  <speed>3.340000</speed>
</trkpt>
<trkpt lat="32.585529327" lon="35.011421204">
  <ele>176.243408</ele>
  <time>2011-10-13T07:28:49Z</time>
  <speed>3.020000</speed>
</trkpt>
<trkpt lat="32.585548401" lon="35.011386871">
  <ele>177.005127</ele>
  <time>2011-10-13T07:28:50Z</time>
  <speed>3.000000</speed>
</trkpt>
<trkpt lat="32.585567474" lon="35.011356354">
  <ele>177.798096</ele>
  <time>2011-10-13T07:28:51Z</time>
  <speed>3.040000</speed>
</trkpt>
<trkpt lat="32.585586548" lon="35.011314392">
  <ele>177.704346</ele>
  <time>2011-10-13T07:28:53Z</time>
  <speed>2.430000</speed>
</trkpt>
<trkpt lat="32.585582733" lon="35.011260986">
  <ele>178.837158</ele>
  <time>2011-10-13T07:28:55Z</time>
  <speed>3.070000</speed>
</trkpt>
<trkpt lat="32.585582733" lon="35.011222839">
  <ele>178.712158</ele>
  <time>2011-10-13T07:28:56Z</time>
  <speed>3.600000</speed>
</trkpt>
<trkpt lat="32.585586548" lon="35.011188507">
  <ele>177.993408</ele>
  <time>2011-10-13T07:28:57Z</time>
  <speed>3.430000</speed>
</trkpt>
<trkpt lat="32.585586548" lon="35.011146545">
  <ele>177.833252</ele>
  <time>2011-10-13T07:28:58Z</time>
  <speed>3.330000</speed>
</trkpt>
<trkpt lat="32.585582733" lon="35.011116028">
  <ele>176.778564</ele>
  <time>2011-10-13T07:28:59Z</time>
  <speed>2.920000</speed>
</trkpt>
<trkpt lat="32.585571289" lon="35.011085510">
  <ele>176.235596</ele>
  <time>2011-10-13T07:29:00Z</time>
  <speed>2.890000</speed>
</trkpt>
<trkpt lat="32.585559845" lon="35.011054993">
  <ele>176.118408</ele>
  <time>2011-10-13T07:29:01Z</time>
  <speed>3.060000</speed>
</trkpt>
<trkpt lat="32.585548401" lon="35.011020660">
  <ele>176.352783</ele>
  <time>2011-10-13T07:29:02Z</time>
  <speed>3.070000</speed>
</trkpt>
<trkpt lat="32.585540771" lon="35.010986328">
  <ele>176.587158</ele>
  <time>2011-10-13T07:29:03Z</time>
  <speed>3.060000</speed>
</trkpt>
<trkpt lat="32.585536957" lon="35.010948181">
  <ele>177.075439</ele>
  <time>2011-10-13T07:29:04Z</time>
  <speed>3.210000</speed>
</trkpt>
<trkpt lat="32.585540771" lon="35.010913849">
  <ele>177.091064</ele>
  <time>2011-10-13T07:29:05Z</time>
  <speed>3.270000</speed>
</trkpt>
<trkpt lat="32.585556030" lon="35.010856628">
  <ele>175.942627</ele>
  <time>2011-10-13T07:29:07Z</time>
  <speed>2.950000</speed>
</trkpt>
<trkpt lat="32.585556030" lon="35.010818481">
  <ele>176.001221</ele>
  <time>2011-10-13T07:29:08Z</time>
  <speed>3.240000</speed>
</trkpt>
<trkpt lat="32.585559845" lon="35.010772705">
  <ele>175.391846</ele>
  <time>2011-10-13T07:29:10Z</time>
  <speed>2.560000</speed>
</trkpt>
<trkpt lat="32.585556030" lon="35.010738373">
  <ele>176.708252</ele>
  <time>2011-10-13T07:29:11Z</time>
  <speed>2.540000</speed>
</trkpt>
<trkpt lat="32.585552216" lon="35.010704041">
  <ele>177.216064</ele>
  <time>2011-10-13T07:29:12Z</time>
  <speed>2.680000</speed>
</trkpt>
<trkpt lat="32.585548401" lon="35.010673523">
  <ele>178.091064</ele>
  <time>2011-10-13T07:29:13Z</time>
  <speed>2.490000</speed>
</trkpt>
<trkpt lat="32.585536957" lon="35.010620117">
  <ele>178.688721</ele>
  <time>2011-10-13T07:29:15Z</time>
  <speed>2.830000</speed>
</trkpt>
<trkpt lat="32.585521698" lon="35.010566711">
  <ele>179.067627</ele>
  <time>2011-10-13T07:29:17Z</time>
  <speed>2.830000</speed>
</trkpt>
<trkpt lat="32.585514069" lon="35.010501862">
  <ele>179.368408</ele>
  <time>2011-10-13T07:29:19Z</time>
  <speed>2.790000</speed>
</trkpt>
<trkpt lat="32.585514069" lon="35.010452271">
  <ele>179.364502</ele>
  <time>2011-10-13T07:29:21Z</time>
  <speed>2.190000</speed>
</trkpt>
<trkpt lat="32.585494995" lon="35.010398865">
  <ele>180.157471</ele>
  <time>2011-10-13T07:29:23Z</time>
  <speed>2.260000</speed>
</trkpt>
<trkpt lat="32.585487366" lon="35.010353088">
  <ele>180.391846</ele>
  <time>2011-10-13T07:29:25Z</time>
  <speed>2.140000</speed>
</trkpt>
<trkpt lat="32.585468292" lon="35.010295868">
  <ele>181.399658</ele>
  <time>2011-10-13T07:29:27Z</time>
  <speed>2.650000</speed>
</trkpt>
<trkpt lat="32.585456848" lon="35.010238647">
  <ele>182.317627</ele>
  <time>2011-10-13T07:29:29Z</time>
  <speed>2.450000</speed>
</trkpt>
<trkpt lat="32.585445404" lon="35.010192871">
  <ele>182.626221</ele>
  <time>2011-10-13T07:29:31Z</time>
  <speed>1.980000</speed>
</trkpt>
<trkpt lat="32.585445404" lon="35.010147095">
  <ele>182.231689</ele>
  <time>2011-10-13T07:29:33Z</time>
  <speed>2.270000</speed>
</trkpt>
<trkpt lat="32.585433960" lon="35.010101318">
  <ele>183.204346</ele>
  <time>2011-10-13T07:29:35Z</time>
  <speed>2.230000</speed>
</trkpt>
<trkpt lat="32.585430145" lon="35.010063171">
  <ele>183.536377</ele>
  <time>2011-10-13T07:29:37Z</time>
  <speed>2.200000</speed>
</trkpt>
<trkpt lat="32.585449219" lon="35.010021210">
  <ele>182.966064</ele>
  <time>2011-10-13T07:29:39Z</time>
  <speed>2.340000</speed>
</trkpt>
<trkpt lat="32.585449219" lon="35.009963989">
  <ele>182.938721</ele>
  <time>2011-10-13T07:29:41Z</time>
  <speed>2.550000</speed>
</trkpt>
<trkpt lat="32.585449219" lon="35.009922028">
  <ele>181.630127</ele>
  <time>2011-10-13T07:29:43Z</time>
  <speed>1.950000</speed>
</trkpt>
<trkpt lat="32.585433960" lon="35.009876251">
  <ele>181.614502</ele>
  <time>2011-10-13T07:29:45Z</time>
  <speed>1.960000</speed>
</trkpt>
<trkpt lat="32.585437775" lon="35.009830475">
  <ele>181.962158</ele>
  <time>2011-10-13T07:29:47Z</time>
  <speed>1.980000</speed>
</trkpt>
<trkpt lat="32.585441589" lon="35.009788513">
  <ele>182.063721</ele>
  <time>2011-10-13T07:29:49Z</time>
  <speed>2.190000</speed>
</trkpt>
<trkpt lat="32.585437775" lon="35.009738922">
  <ele>181.802002</ele>
  <time>2011-10-13T07:29:51Z</time>
  <speed>2.160000</speed>
</trkpt>
<trkpt lat="32.585441589" lon="35.009689331">
  <ele>182.544189</ele>
  <time>2011-10-13T07:29:53Z</time>
  <speed>2.300000</speed>
</trkpt>
<trkpt lat="32.585441589" lon="35.009639740">
  <ele>182.680908</ele>
  <time>2011-10-13T07:29:55Z</time>
  <speed>2.400000</speed>
</trkpt>
<trkpt lat="32.585437775" lon="35.009590149">
  <ele>182.091064</ele>
  <time>2011-10-13T07:29:57Z</time>
  <speed>2.680000</speed>
</trkpt>
<trkpt lat="32.585430145" lon="35.009540558">
  <ele>182.481689</ele>
  <time>2011-10-13T07:29:59Z</time>
  <speed>2.290000</speed>
</trkpt>
<trkpt lat="32.585422516" lon="35.009498596">
  <ele>181.727783</ele>
  <time>2011-10-13T07:30:01Z</time>
  <speed>1.880000</speed>
</trkpt>
<trkpt lat="32.585414886" lon="35.009456635">
  <ele>181.923096</ele>
  <time>2011-10-13T07:30:03Z</time>
  <speed>1.860000</speed>
</trkpt>
<trkpt lat="32.585403442" lon="35.009410858">
  <ele>182.278564</ele>
  <time>2011-10-13T07:30:05Z</time>
  <speed>1.880000</speed>
</trkpt>
<trkpt lat="32.585399628" lon="35.009376526">
  <ele>182.087158</ele>
  <time>2011-10-13T07:30:07Z</time>
  <speed>1.740000</speed>
</trkpt>
<trkpt lat="32.585395813" lon="35.009342194">
  <ele>181.821533</ele>
  <time>2011-10-13T07:30:10Z</time>
  <speed>0.290000</speed>
</trkpt>
<trkpt lat="32.585403442" lon="35.009292603">
  <ele>181.454346</ele>
  <time>2011-10-13T07:30:39Z</time>
  <speed>1.610000</speed>
</trkpt>
<trkpt lat="32.585441589" lon="35.009258270">
  <ele>181.766846</ele>
  <time>2011-10-13T07:30:41Z</time>
  <speed>3.110000</speed>
</trkpt>
<trkpt lat="32.585468292" lon="35.009231567">
  <ele>181.626221</ele>
  <time>2011-10-13T07:30:42Z</time>
  <speed>3.230000</speed>
</trkpt>
<trkpt lat="32.585506439" lon="35.009201050">
  <ele>181.333252</ele>
  <time>2011-10-13T07:30:44Z</time>
  <speed>2.640000</speed>
</trkpt>
<trkpt lat="32.585533142" lon="35.009239197">
  <ele>180.587158</ele>
  <time>2011-10-13T07:30:46Z</time>
  <speed>1.850000</speed>
</trkpt>
<trkpt lat="32.585559845" lon="35.009265900">
  <ele>180.305908</ele>
  <time>2011-10-13T07:30:48Z</time>
  <speed>2.540000</speed>
</trkpt>
<trkpt lat="32.585586548" lon="35.009277344">
  <ele>179.770752</ele>
  <time>2011-10-13T07:30:49Z</time>
  <speed>3.170000</speed>
</trkpt>
<trkpt lat="32.585624695" lon="35.009292603">
  <ele>179.196533</ele>
  <time>2011-10-13T07:30:50Z</time>
  <speed>3.590000</speed>
</trkpt>
<trkpt lat="32.585655212" lon="35.009300232">
  <ele>179.344971</ele>
  <time>2011-10-13T07:30:51Z</time>
  <speed>3.460000</speed>
</trkpt>
<trkpt lat="32.585689545" lon="35.009307861">
  <ele>179.360596</ele>
  <time>2011-10-13T07:30:52Z</time>
  <speed>3.360000</speed>
</trkpt>
<trkpt lat="32.585723877" lon="35.009307861">
  <ele>178.848877</ele>
  <time>2011-10-13T07:30:53Z</time>
  <speed>3.360000</speed>
</trkpt>
<trkpt lat="32.585750580" lon="35.009300232">
  <ele>178.204346</ele>
  <time>2011-10-13T07:30:54Z</time>
  <speed>3.040000</speed>
</trkpt>
<trkpt lat="32.585777283" lon="35.009288788">
  <ele>176.860596</ele>
  <time>2011-10-13T07:30:55Z</time>
  <speed>2.090000</speed>
</trkpt>
<trkpt lat="32.585796356" lon="35.009262085">
  <ele>175.481689</ele>
  <time>2011-10-13T07:30:56Z</time>
  <speed>3.220000</speed>
</trkpt>
<trkpt lat="32.585815430" lon="35.009227753">
  <ele>174.188721</ele>
  <time>2011-10-13T07:30:57Z</time>
  <speed>3.110000</speed>
</trkpt>
<trkpt lat="32.585838318" lon="35.009208679">
  <ele>173.450439</ele>
  <time>2011-10-13T07:30:58Z</time>
  <speed>2.520000</speed>
</trkpt>
<trkpt lat="32.585865021" lon="35.009220123">
  <ele>172.325439</ele>
  <time>2011-10-13T07:31:00Z</time>
  <speed>2.090000</speed>
</trkpt>
<trkpt lat="32.585884094" lon="35.009262085">
  <ele>171.747314</ele>
  <time>2011-10-13T07:31:02Z</time>
  <speed>2.230000</speed>
</trkpt>
<trkpt lat="32.585926056" lon="35.009262085">
  <ele>170.259033</ele>
  <time>2011-10-13T07:31:03Z</time>
  <speed>2.290000</speed>
</trkpt>
<trkpt lat="32.585952759" lon="35.009246826">
  <ele>169.180908</ele>
  <time>2011-10-13T07:31:04Z</time>
  <speed>2.530000</speed>
</trkpt>
<trkpt lat="32.585998535" lon="35.009243011">
  <ele>168.012939</ele>
  <time>2011-10-13T07:31:06Z</time>
  <speed>2.280000</speed>
</trkpt>
<trkpt lat="32.586048126" lon="35.009262085">
  <ele>166.727783</ele>
  <time>2011-10-13T07:31:08Z</time>
  <speed>3.260000</speed>
</trkpt>
<trkpt lat="32.586071014" lon="35.009284973">
  <ele>165.770752</ele>
  <time>2011-10-13T07:31:09Z</time>
  <speed>3.400000</speed>
</trkpt>
<trkpt lat="32.586093903" lon="35.009300232">
  <ele>165.493408</ele>
  <time>2011-10-13T07:31:10Z</time>
  <speed>2.880000</speed>
</trkpt>
<trkpt lat="32.586120605" lon="35.009315491">
  <ele>164.934814</ele>
  <time>2011-10-13T07:31:11Z</time>
  <speed>2.720000</speed>
</trkpt>
<trkpt lat="32.586170197" lon="35.009330750">
  <ele>163.188721</ele>
  <time>2011-10-13T07:31:13Z</time>
  <speed>2.010000</speed>
</trkpt>
<trkpt lat="32.586189270" lon="35.009365082">
  <ele>161.044189</ele>
  <time>2011-10-13T07:31:15Z</time>
  <speed>2.000000</speed>
</trkpt>
<trkpt lat="32.586231232" lon="35.009399414">
  <ele>160.024658</ele>
  <time>2011-10-13T07:31:17Z</time>
  <speed>1.890000</speed>
</trkpt>
<trkpt lat="32.586288452" lon="35.009414673">
  <ele>157.602783</ele>
  <time>2011-10-13T07:31:19Z</time>
  <speed>2.620000</speed>
</trkpt>
<trkpt lat="32.586311340" lon="35.009418488">
  <ele>156.719971</ele>
  <time>2011-10-13T07:31:20Z</time>
  <speed>2.690000</speed>
</trkpt>
<trkpt lat="32.586357117" lon="35.009422302">
  <ele>155.938721</ele>
  <time>2011-10-13T07:31:22Z</time>
  <speed>2.200000</speed>
</trkpt>
<trkpt lat="32.586395264" lon="35.009426117">
  <ele>152.825439</ele>
  <time>2011-10-13T07:31:24Z</time>
  <speed>1.460000</speed>
</trkpt>
<trkpt lat="32.586383820" lon="35.009380341">
  <ele>152.059814</ele>
  <time>2011-10-13T07:31:26Z</time>
  <speed>1.580000</speed>
</trkpt>
<trkpt lat="32.586387634" lon="35.009326935">
  <ele>149.012939</ele>
  <time>2011-10-13T07:31:28Z</time>
  <speed>2.650000</speed>
</trkpt>
<trkpt lat="32.586402893" lon="35.009300232">
  <ele>147.313721</ele>
  <time>2011-10-13T07:31:29Z</time>
  <speed>2.250000</speed>
</trkpt>
<trkpt lat="32.586448669" lon="35.009281158">
  <ele>145.778564</ele>
  <time>2011-10-13T07:31:31Z</time>
  <speed>2.840000</speed>
</trkpt>
<trkpt lat="32.586479187" lon="35.009273529">
  <ele>144.977783</ele>
  <time>2011-10-13T07:31:32Z</time>
  <speed>2.260000</speed>
</trkpt>
<trkpt lat="32.586490631" lon="35.009235382">
  <ele>142.259033</ele>
  <time>2011-10-13T07:31:34Z</time>
  <speed>1.270000</speed>
</trkpt>
<trkpt lat="32.586486816" lon="35.009193420">
  <ele>141.723877</ele>
  <time>2011-10-13T07:31:36Z</time>
  <speed>1.360000</speed>
</trkpt>
<trkpt lat="32.586524963" lon="35.009170532">
  <ele>140.684814</ele>
  <time>2011-10-13T07:31:39Z</time>
  <speed>1.900000</speed>
</trkpt>
<trkpt lat="32.586547852" lon="35.009155273">
  <ele>139.169189</ele>
  <time>2011-10-13T07:31:41Z</time>
  <speed>1.460000</speed>
</trkpt>
<trkpt lat="32.586547852" lon="35.009113312">
  <ele>137.677002</ele>
  <time>2011-10-13T07:31:43Z</time>
  <speed>1.690000</speed>
</trkpt>
<trkpt lat="32.586532593" lon="35.009078979">
  <ele>136.762939</ele>
  <time>2011-10-13T07:31:45Z</time>
  <speed>1.440000</speed>
</trkpt>
<trkpt lat="32.586536407" lon="35.009040833">
  <ele>135.473877</ele>
  <time>2011-10-13T07:31:47Z</time>
  <speed>2.020000</speed>
</trkpt>
<trkpt lat="32.586547852" lon="35.009010315">
  <ele>134.610596</ele>
  <time>2011-10-13T07:31:48Z</time>
  <speed>2.650000</speed>
</trkpt>
<trkpt lat="32.586559296" lon="35.008964539">
  <ele>134.048096</ele>
  <time>2011-10-13T07:31:49Z</time>
  <speed>2.980000</speed>
</trkpt>
<trkpt lat="32.586559296" lon="35.008918762">
  <ele>133.052002</ele>
  <time>2011-10-13T07:31:50Z</time>
  <speed>3.180000</speed>
</trkpt>
<trkpt lat="32.586574554" lon="35.008876801">
  <ele>132.677002</ele>
  <time>2011-10-13T07:31:51Z</time>
  <speed>3.460000</speed>
</trkpt>
<trkpt lat="32.586585999" lon="35.008842468">
  <ele>131.567627</ele>
  <time>2011-10-13T07:31:52Z</time>
  <speed>2.910000</speed>
</trkpt>
<trkpt lat="32.586605072" lon="35.008815765">
  <ele>130.755127</ele>
  <time>2011-10-13T07:31:53Z</time>
  <speed>2.890000</speed>
</trkpt>
<trkpt lat="32.586616516" lon="35.008789063">
  <ele>129.731689</ele>
  <time>2011-10-13T07:31:54Z</time>
  <speed>2.560000</speed>
</trkpt>
<trkpt lat="32.586624146" lon="35.008747101">
  <ele>127.094360</ele>
  <time>2011-10-13T07:31:56Z</time>
  <speed>2.220000</speed>
</trkpt>
<trkpt lat="32.586627960" lon="35.008716583">
  <ele>125.436157</ele>
  <time>2011-10-13T07:31:57Z</time>
  <speed>3.160000</speed>
</trkpt>
<trkpt lat="32.586631775" lon="35.008666992">
  <ele>125.449829</ele>
  <time>2011-10-13T07:31:58Z</time>
  <speed>4.050000</speed>
</trkpt>
<trkpt lat="32.586635590" lon="35.008617401">
  <ele>124.584595</ele>
  <time>2011-10-13T07:31:59Z</time>
  <speed>4.070000</speed>
</trkpt>
<trkpt lat="32.586643219" lon="35.008567810">
  <ele>123.695923</ele>
  <time>2011-10-13T07:32:00Z</time>
  <speed>4.540000</speed>
</trkpt>
<trkpt lat="32.586650848" lon="35.008522034">
  <ele>122.942017</ele>
  <time>2011-10-13T07:32:01Z</time>
  <speed>3.940000</speed>
</trkpt>
<trkpt lat="32.586654663" lon="35.008476257">
  <ele>122.057251</ele>
  <time>2011-10-13T07:32:02Z</time>
  <speed>3.230000</speed>
</trkpt>
<trkpt lat="32.586681366" lon="35.008434296">
  <ele>120.594360</ele>
  <time>2011-10-13T07:32:04Z</time>
  <speed>1.610000</speed>
</trkpt>
<trkpt lat="32.586700439" lon="35.008377075">
  <ele>119.238892</ele>
  <time>2011-10-13T07:32:06Z</time>
  <speed>3.320000</speed>
</trkpt>
<trkpt lat="32.586708069" lon="35.008346558">
  <ele>118.317017</ele>
  <time>2011-10-13T07:32:07Z</time>
  <speed>2.800000</speed>
</trkpt>
<trkpt lat="32.586715698" lon="35.008308411">
  <ele>117.774048</ele>
  <time>2011-10-13T07:32:08Z</time>
  <speed>2.960000</speed>
</trkpt>
<trkpt lat="32.586723328" lon="35.008277893">
  <ele>117.055298</ele>
  <time>2011-10-13T07:32:09Z</time>
  <speed>2.330000</speed>
</trkpt>
<trkpt lat="32.586723328" lon="35.008232117">
  <ele>116.274048</ele>
  <time>2011-10-13T07:32:11Z</time>
  <speed>1.100000</speed>
</trkpt>
<trkpt lat="32.586692810" lon="35.008190155">
  <ele>115.949829</ele>
  <time>2011-10-13T07:32:14Z</time>
  <speed>1.100000</speed>
</trkpt>
<trkpt lat="32.586696625" lon="35.008159637">
  <ele>114.818970</ele>
  <time>2011-10-13T07:32:16Z</time>
  <speed>1.470000</speed>
</trkpt>
<trkpt lat="32.586704254" lon="35.008125305">
  <ele>114.305298</ele>
  <time>2011-10-13T07:32:18Z</time>
  <speed>1.020000</speed>
</trkpt>
<trkpt lat="32.586723328" lon="35.008079529">
  <ele>112.867798</ele>
  <time>2011-10-13T07:32:20Z</time>
  <speed>2.950000</speed>
</trkpt>
<trkpt lat="32.586746216" lon="35.008045197">
  <ele>111.703735</ele>
  <time>2011-10-13T07:32:21Z</time>
  <speed>3.420000</speed>
</trkpt>
<trkpt lat="32.586765289" lon="35.008010864">
  <ele>110.727173</ele>
  <time>2011-10-13T07:32:22Z</time>
  <speed>3.660000</speed>
</trkpt>
<trkpt lat="32.586784363" lon="35.007980347">
  <ele>109.945923</ele>
  <time>2011-10-13T07:32:23Z</time>
  <speed>3.110000</speed>
</trkpt>
<trkpt lat="32.586795807" lon="35.007930756">
  <ele>112.281860</ele>
  <time>2011-10-13T07:32:24Z</time>
  <speed>1.580000</speed>
</trkpt>
<trkpt lat="32.586822510" lon="35.007934570">
  <ele>111.734985</ele>
  <time>2011-10-13T07:32:26Z</time>
  <speed>2.200000</speed>
</trkpt>
<trkpt lat="32.586837769" lon="35.007968903">
  <ele>111.791626</ele>
  <time>2011-10-13T07:32:28Z</time>
  <speed>2.220000</speed>
</trkpt>
<trkpt lat="32.586872101" lon="35.007980347">
  <ele>111.000610</ele>
  <time>2011-10-13T07:32:31Z</time>
  <speed>1.620000</speed>
</trkpt>
<trkpt lat="32.586910248" lon="35.007946014">
  <ele>110.856079</ele>
  <time>2011-10-13T07:32:33Z</time>
  <speed>2.300000</speed>
</trkpt>
<trkpt lat="32.586944580" lon="35.007915497">
  <ele>110.432251</ele>
  <time>2011-10-13T07:32:35Z</time>
  <speed>1.640000</speed>
</trkpt>
<trkpt lat="32.586978912" lon="35.007911682">
  <ele>109.979126</ele>
  <time>2011-10-13T07:32:37Z</time>
  <speed>1.990000</speed>
</trkpt>
<trkpt lat="32.587001801" lon="35.007896423">
  <ele>108.805298</ele>
  <time>2011-10-13T07:32:39Z</time>
  <speed>1.540000</speed>
</trkpt>
<trkpt lat="32.587028503" lon="35.007881165">
  <ele>108.420532</ele>
  <time>2011-10-13T07:32:42Z</time>
  <speed>0.770000</speed>
</trkpt>
<trkpt lat="32.587055206" lon="35.007865906">
  <ele>107.596313</ele>
  <time>2011-10-13T07:32:45Z</time>
  <speed>1.100000</speed>
</trkpt>
<trkpt lat="32.587112427" lon="35.007850647">
  <ele>107.074829</ele>
  <time>2011-10-13T07:32:47Z</time>
  <speed>2.570000</speed>
</trkpt>
<trkpt lat="32.587158203" lon="35.007850647">
  <ele>105.389282</ele>
  <time>2011-10-13T07:32:49Z</time>
  <speed>2.010000</speed>
</trkpt>
<trkpt lat="32.587188721" lon="35.007873535">
  <ele>103.367798</ele>
  <time>2011-10-13T07:32:52Z</time>
  <speed>1.860000</speed>
</trkpt>
<trkpt lat="32.587226868" lon="35.007881165">
  <ele>101.539673</ele>
  <time>2011-10-13T07:32:54Z</time>
  <speed>2.610000</speed>
</trkpt>
<trkpt lat="32.587257385" lon="35.007915497">
  <ele>100.410767</ele>
  <time>2011-10-13T07:32:56Z</time>
  <speed>2.150000</speed>
</trkpt>
<trkpt lat="32.587280273" lon="35.007904053">
  <ele>98.748657</ele>
  <time>2011-10-13T07:32:58Z</time>
  <speed>0.590000</speed>
</trkpt>
<trkpt lat="32.587257385" lon="35.007881165">
  <ele>97.901001</ele>
  <time>2011-10-13T07:33:03Z</time>
  <speed>0.160000</speed>
</trkpt>
<trkpt lat="32.587284088" lon="35.007846832">
  <ele>95.943970</ele>
  <time>2011-10-13T07:33:08Z</time>
  <speed>1.200000</speed>
</trkpt>
<trkpt lat="32.587306976" lon="35.007827759">
  <ele>95.227173</ele>
  <time>2011-10-13T07:33:09Z</time>
  <speed>2.340000</speed>
</trkpt>
<trkpt lat="32.587314606" lon="35.007774353">
  <ele>94.883423</ele>
  <time>2011-10-13T07:33:11Z</time>
  <speed>3.300000</speed>
</trkpt>
<trkpt lat="32.587303162" lon="35.007740021">
  <ele>94.818970</ele>
  <time>2011-10-13T07:33:12Z</time>
  <speed>2.930000</speed>
</trkpt>
<trkpt lat="32.587287903" lon="35.007682800">
  <ele>94.445923</ele>
  <time>2011-10-13T07:33:14Z</time>
  <speed>2.620000</speed>
</trkpt>
<trkpt lat="32.587299347" lon="35.007629395">
  <ele>93.729126</ele>
  <time>2011-10-13T07:33:16Z</time>
  <speed>2.290000</speed>
</trkpt>
<trkpt lat="32.587329865" lon="35.007606506">
  <ele>92.863892</ele>
  <time>2011-10-13T07:33:18Z</time>
  <speed>1.930000</speed>
</trkpt>
<trkpt lat="32.587348938" lon="35.007625580">
  <ele>91.813110</ele>
  <time>2011-10-13T07:33:19Z</time>
  <speed>2.440000</speed>
</trkpt>
<trkpt lat="32.587398529" lon="35.007644653">
  <ele>90.803345</ele>
  <time>2011-10-13T07:33:21Z</time>
  <speed>3.030000</speed>
</trkpt>
<trkpt lat="32.587432861" lon="35.007652283">
  <ele>90.820923</ele>
  <time>2011-10-13T07:33:22Z</time>
  <speed>3.350000</speed>
</trkpt>
<trkpt lat="32.587471008" lon="35.007656097">
  <ele>90.018188</ele>
  <time>2011-10-13T07:33:23Z</time>
  <speed>3.950000</speed>
</trkpt>
<trkpt lat="32.587516785" lon="35.007652283">
  <ele>89.916626</ele>
  <time>2011-10-13T07:33:24Z</time>
  <speed>4.170000</speed>
</trkpt>
<trkpt lat="32.587570190" lon="35.007652283">
  <ele>89.238892</ele>
  <time>2011-10-13T07:33:25Z</time>
  <speed>4.290000</speed>
</trkpt>
<trkpt lat="32.587604523" lon="35.007648468">
  <ele>88.838501</ele>
  <time>2011-10-13T07:33:26Z</time>
  <speed>3.850000</speed>
</trkpt>
<trkpt lat="32.587650299" lon="35.007659912">
  <ele>87.188110</ele>
  <time>2011-10-13T07:33:27Z</time>
  <speed>4.340000</speed>
</trkpt>
<trkpt lat="32.587665558" lon="35.007709503">
  <ele>85.385376</ele>
  <time>2011-10-13T07:33:29Z</time>
  <speed>2.850000</speed>
</trkpt>
<trkpt lat="32.587650299" lon="35.007740021">
  <ele>84.346313</ele>
  <time>2011-10-13T07:33:31Z</time>
  <speed>1.300000</speed>
</trkpt>
<trkpt lat="32.587646484" lon="35.007762909">
  <ele>82.004517</ele>
  <time>2011-10-13T07:33:34Z</time>
  <speed>0.240000</speed>
</trkpt>
<trkpt lat="32.587650299" lon="35.007804871">
  <ele>82.188110</ele>
  <time>2011-10-13T07:33:38Z</time>
  <speed>1.150000</speed>
</trkpt>
<trkpt lat="32.587657928" lon="35.007835388">
  <ele>82.063110</ele>
  <time>2011-10-13T07:33:41Z</time>
  <speed>0.590000</speed>
</trkpt>
<trkpt lat="32.587665558" lon="35.007869720">
  <ele>82.172485</ele>
  <time>2011-10-13T07:33:44Z</time>
  <speed>0.760000</speed>
</trkpt>
<trkpt lat="32.587650299" lon="35.007904053">
  <ele>81.479126</ele>
  <time>2011-10-13T07:33:48Z</time>
  <speed>0.850000</speed>
</trkpt>
<trkpt lat="32.587638855" lon="35.007938385">
  <ele>81.207642</ele>
  <time>2011-10-13T07:33:51Z</time>
  <speed>0.890000</speed>
</trkpt>
<trkpt lat="32.587642670" lon="35.007972717">
  <ele>81.268188</ele>
  <time>2011-10-13T07:33:54Z</time>
  <speed>0.830000</speed>
</trkpt>
<trkpt lat="32.587661743" lon="35.008003235">
  <ele>83.162720</ele>
  <time>2011-10-13T07:35:12Z</time>
  <speed>0.740000</speed>
</trkpt>
<trkpt lat="32.587677002" lon="35.008037567">
  <ele>84.524048</ele>
  <time>2011-10-13T07:35:15Z</time>
  <speed>0.690000</speed>
</trkpt>
<trkpt lat="32.587696075" lon="35.008071899">
  <ele>85.951782</ele>
  <time>2011-10-13T07:35:18Z</time>
  <speed>1.030000</speed>
</trkpt>
<trkpt lat="32.587711334" lon="35.008102417">
  <ele>87.664673</ele>
  <time>2011-10-13T07:35:20Z</time>
  <speed>0.840000</speed>
</trkpt>
<trkpt lat="32.587734222" lon="35.008125305">
  <ele>88.568970</ele>
  <time>2011-10-13T07:35:23Z</time>
  <speed>1.110000</speed>
</trkpt>
<trkpt lat="32.587764740" lon="35.008148193">
  <ele>89.580688</ele>
  <time>2011-10-13T07:35:25Z</time>
  <speed>1.270000</speed>
</trkpt>
<trkpt lat="32.587787628" lon="35.008171082">
  <ele>90.125610</ele>
  <time>2011-10-13T07:35:28Z</time>
  <speed>1.280000</speed>
</trkpt>
<trkpt lat="32.587810516" lon="35.008197784">
  <ele>91.352173</ele>
  <time>2011-10-13T07:35:31Z</time>
  <speed>0.790000</speed>
</trkpt>
<trkpt lat="32.587833405" lon="35.008213043">
  <ele>92.537720</ele>
  <time>2011-10-13T07:35:34Z</time>
  <speed>0.860000</speed>
</trkpt>
<trkpt lat="32.587860107" lon="35.008228302">
  <ele>93.649048</ele>
  <time>2011-10-13T07:35:37Z</time>
  <speed>1.040000</speed>
</trkpt>
<trkpt lat="32.587882996" lon="35.008247375">
  <ele>94.484985</ele>
  <time>2011-10-13T07:35:43Z</time>
  <speed>0.730000</speed>
</trkpt>
<trkpt lat="32.587921143" lon="35.008258820">
  <ele>94.320923</ele>
  <time>2011-10-13T07:35:46Z</time>
  <speed>1.100000</speed>
</trkpt>
<trkpt lat="32.587947845" lon="35.008285522">
  <ele>95.186157</ele>
  <time>2011-10-13T07:35:49Z</time>
  <speed>1.090000</speed>
</trkpt>
<trkpt lat="32.587966919" lon="35.008308411">
  <ele>96.568970</ele>
  <time>2011-10-13T07:35:52Z</time>
  <speed>1.500000</speed>
</trkpt>
<trkpt lat="32.588001251" lon="35.008335114">
  <ele>96.984985</ele>
  <time>2011-10-13T07:35:54Z</time>
  <speed>2.340000</speed>
</trkpt>
<trkpt lat="32.588031769" lon="35.008369446">
  <ele>95.928345</ele>
  <time>2011-10-13T07:35:56Z</time>
  <speed>2.270000</speed>
</trkpt>
<trkpt lat="32.588062286" lon="35.008415222">
  <ele>95.750610</ele>
  <time>2011-10-13T07:35:58Z</time>
  <speed>2.330000</speed>
</trkpt>
<trkpt lat="32.588077545" lon="35.008441925">
  <ele>95.287720</ele>
  <time>2011-10-13T07:35:59Z</time>
  <speed>2.480000</speed>
</trkpt>
<trkpt lat="32.588096619" lon="35.008476257">
  <ele>94.352173</ele>
  <time>2011-10-13T07:36:01Z</time>
  <speed>2.610000</speed>
</trkpt>
<trkpt lat="32.588119507" lon="35.008499146">
  <ele>94.359985</ele>
  <time>2011-10-13T07:36:02Z</time>
  <speed>2.500000</speed>
</trkpt>
<trkpt lat="32.588146210" lon="35.008544922">
  <ele>94.334595</ele>
  <time>2011-10-13T07:36:04Z</time>
  <speed>2.320000</speed>
</trkpt>
<trkpt lat="32.588176727" lon="35.008579254">
  <ele>93.674438</ele>
  <time>2011-10-13T07:36:06Z</time>
  <speed>2.450000</speed>
</trkpt>
<trkpt lat="32.588191986" lon="35.008625031">
  <ele>93.555298</ele>
  <time>2011-10-13T07:36:08Z</time>
  <speed>2.470000</speed>
</trkpt>
<trkpt lat="32.588203430" lon="35.008678436">
  <ele>94.717407</ele>
  <time>2011-10-13T07:36:10Z</time>
  <speed>2.290000</speed>
</trkpt>
<trkpt lat="32.588218689" lon="35.008724213">
  <ele>95.221313</ele>
  <time>2011-10-13T07:36:12Z</time>
  <speed>2.150000</speed>
</trkpt>
<trkpt lat="32.588249207" lon="35.008766174">
  <ele>95.592407</ele>
  <time>2011-10-13T07:36:14Z</time>
  <speed>2.330000</speed>
</trkpt>
<trkpt lat="32.588272095" lon="35.008804321">
  <ele>94.793579</ele>
  <time>2011-10-13T07:36:16Z</time>
  <speed>2.540000</speed>
</trkpt>
<trkpt lat="32.588306427" lon="35.008850098">
  <ele>94.402954</ele>
  <time>2011-10-13T07:36:18Z</time>
  <speed>2.300000</speed>
</trkpt>
<trkpt lat="32.588333130" lon="35.008892059">
  <ele>93.399048</ele>
  <time>2011-10-13T07:36:20Z</time>
  <speed>2.690000</speed>
</trkpt>
<trkpt lat="32.588352203" lon="35.008914948">
  <ele>92.004517</ele>
  <time>2011-10-13T07:36:21Z</time>
  <speed>2.340000</speed>
</trkpt>
<trkpt lat="32.588378906" lon="35.008960724">
  <ele>91.057251</ele>
  <time>2011-10-13T07:36:23Z</time>
  <speed>2.420000</speed>
</trkpt>
<trkpt lat="32.588401794" lon="35.009014130">
  <ele>90.998657</ele>
  <time>2011-10-13T07:36:25Z</time>
  <speed>2.630000</speed>
</trkpt>
<trkpt lat="32.588424683" lon="35.009067535">
  <ele>91.877563</ele>
  <time>2011-10-13T07:36:27Z</time>
  <speed>2.620000</speed>
</trkpt>
<trkpt lat="32.588432312" lon="35.009117126">
  <ele>90.774048</ele>
  <time>2011-10-13T07:36:29Z</time>
  <speed>2.740000</speed>
</trkpt>
<trkpt lat="32.588436127" lon="35.009166718">
  <ele>90.356079</ele>
  <time>2011-10-13T07:36:31Z</time>
  <speed>2.320000</speed>
</trkpt>
<trkpt lat="32.588443756" lon="35.009216309">
  <ele>90.004517</ele>
  <time>2011-10-13T07:36:33Z</time>
  <speed>1.900000</speed>
</trkpt>
<trkpt lat="32.588447571" lon="35.009258270">
  <ele>89.285767</ele>
  <time>2011-10-13T07:36:35Z</time>
  <speed>1.850000</speed>
</trkpt>
<trkpt lat="32.588447571" lon="35.009307861">
  <ele>89.395142</ele>
  <time>2011-10-13T07:36:37Z</time>
  <speed>1.850000</speed>
</trkpt>
<trkpt lat="32.588436127" lon="35.009342194">
  <ele>89.395142</ele>
  <time>2011-10-13T07:36:39Z</time>
  <speed>1.360000</speed>
</trkpt>
<trkpt lat="32.588436127" lon="35.009391785">
  <ele>89.223267</ele>
  <time>2011-10-13T07:36:41Z</time>
  <speed>2.160000</speed>
</trkpt>
<trkpt lat="32.588447571" lon="35.009441376">
  <ele>89.399048</ele>
  <time>2011-10-13T07:36:43Z</time>
  <speed>2.080000</speed>
</trkpt>
<trkpt lat="32.588459015" lon="35.009487152">
  <ele>90.088501</ele>
  <time>2011-10-13T07:36:45Z</time>
  <speed>2.150000</speed>
</trkpt>
<trkpt lat="32.588451385" lon="35.009536743">
  <ele>90.410767</ele>
  <time>2011-10-13T07:36:47Z</time>
  <speed>1.900000</speed>
</trkpt>
<trkpt lat="32.588459015" lon="35.009582520">
  <ele>90.705688</ele>
  <time>2011-10-13T07:36:49Z</time>
  <speed>2.050000</speed>
</trkpt>
<trkpt lat="32.588462830" lon="35.009628296">
  <ele>91.084595</ele>
  <time>2011-10-13T07:36:51Z</time>
  <speed>1.770000</speed>
</trkpt>
<trkpt lat="32.588474274" lon="35.009666443">
  <ele>92.619751</ele>
  <time>2011-10-13T07:36:53Z</time>
  <speed>1.870000</speed>
</trkpt>
<trkpt lat="32.588485718" lon="35.009704590">
  <ele>92.863892</ele>
  <time>2011-10-13T07:36:55Z</time>
  <speed>2.050000</speed>
</trkpt>
<trkpt lat="32.588489532" lon="35.009761810">
  <ele>93.822876</ele>
  <time>2011-10-13T07:36:57Z</time>
  <speed>2.240000</speed>
</trkpt>
<trkpt lat="32.588481903" lon="35.009799957">
  <ele>95.121704</ele>
  <time>2011-10-13T07:36:59Z</time>
  <speed>1.850000</speed>
</trkpt>
<trkpt lat="32.588470459" lon="35.009841919">
  <ele>95.574829</ele>
  <time>2011-10-13T07:37:01Z</time>
  <speed>2.210000</speed>
</trkpt>
<trkpt lat="32.588459015" lon="35.009887695">
  <ele>95.195923</ele>
  <time>2011-10-13T07:37:03Z</time>
  <speed>2.140000</speed>
</trkpt>
<trkpt lat="32.588447571" lon="35.009929657">
  <ele>95.236938</ele>
  <time>2011-10-13T07:37:05Z</time>
  <speed>1.850000</speed>
</trkpt>
<trkpt lat="32.588436127" lon="35.009967804">
  <ele>95.430298</ele>
  <time>2011-10-13T07:37:07Z</time>
  <speed>1.590000</speed>
</trkpt>
<trkpt lat="32.588436127" lon="35.010017395">
  <ele>96.018188</ele>
  <time>2011-10-13T07:37:09Z</time>
  <speed>2.000000</speed>
</trkpt>
<trkpt lat="32.588436127" lon="35.010070801">
  <ele>97.119751</ele>
  <time>2011-10-13T07:37:11Z</time>
  <speed>1.840000</speed>
</trkpt>
<trkpt lat="32.588432312" lon="35.010105133">
  <ele>98.338501</ele>
  <time>2011-10-13T07:37:12Z</time>
  <speed>2.260000</speed>
</trkpt>
<trkpt lat="32.588432312" lon="35.010147095">
  <ele>98.301392</ele>
  <time>2011-10-13T07:37:14Z</time>
  <speed>1.860000</speed>
</trkpt>
<trkpt lat="32.588439941" lon="35.010185242">
  <ele>97.750610</ele>
  <time>2011-10-13T07:37:15Z</time>
  <speed>2.330000</speed>
</trkpt>
<trkpt lat="32.588455200" lon="35.010219574">
  <ele>97.783813</ele>
  <time>2011-10-13T07:37:16Z</time>
  <speed>2.350000</speed>
</trkpt>
<trkpt lat="32.588455200" lon="35.010257721">
  <ele>97.358032</ele>
  <time>2011-10-13T07:37:18Z</time>
  <speed>1.770000</speed>
</trkpt>
<trkpt lat="32.588459015" lon="35.010303497">
  <ele>96.813110</ele>
  <time>2011-10-13T07:37:20Z</time>
  <speed>2.070000</speed>
</trkpt>
<trkpt lat="32.588459015" lon="35.010349274">
  <ele>96.877563</ele>
  <time>2011-10-13T07:37:22Z</time>
  <speed>1.990000</speed>
</trkpt>
<trkpt lat="32.588459015" lon="35.010391235">
  <ele>96.551392</ele>
  <time>2011-10-13T07:37:24Z</time>
  <speed>1.750000</speed>
</trkpt>
<trkpt lat="32.588474274" lon="35.010437012">
  <ele>96.897095</ele>
  <time>2011-10-13T07:37:26Z</time>
  <speed>1.900000</speed>
</trkpt>
<trkpt lat="32.588485718" lon="35.010463715">
  <ele>98.106079</ele>
  <time>2011-10-13T07:37:27Z</time>
  <speed>1.700000</speed>
</trkpt>
<trkpt lat="32.588500977" lon="35.010498047">
  <ele>99.033813</ele>
  <time>2011-10-13T07:37:29Z</time>
  <speed>1.880000</speed>
</trkpt>
<trkpt lat="32.588520050" lon="35.010540009">
  <ele>98.748657</ele>
  <time>2011-10-13T07:37:31Z</time>
  <speed>1.600000</speed>
</trkpt>
<trkpt lat="32.588527679" lon="35.010581970">
  <ele>98.399048</ele>
  <time>2011-10-13T07:37:33Z</time>
  <speed>1.480000</speed>
</trkpt>
<trkpt lat="32.588527679" lon="35.010627747">
  <ele>98.514282</ele>
  <time>2011-10-13T07:37:35Z</time>
  <speed>1.670000</speed>
</trkpt>
<trkpt lat="32.588539124" lon="35.010677338">
  <ele>98.209595</ele>
  <time>2011-10-13T07:37:37Z</time>
  <speed>2.020000</speed>
</trkpt>
<trkpt lat="32.588546753" lon="35.010719299">
  <ele>97.777954</ele>
  <time>2011-10-13T07:37:39Z</time>
  <speed>2.140000</speed>
</trkpt>
<trkpt lat="32.588554382" lon="35.010761261">
  <ele>97.047485</ele>
  <time>2011-10-13T07:37:41Z</time>
  <speed>2.070000</speed>
</trkpt>
<trkpt lat="32.588569641" lon="35.010810852">
  <ele>96.231079</ele>
  <time>2011-10-13T07:37:43Z</time>
  <speed>2.180000</speed>
</trkpt>
<trkpt lat="32.588592529" lon="35.010848999">
  <ele>96.742798</ele>
  <time>2011-10-13T07:37:45Z</time>
  <speed>2.200000</speed>
</trkpt>
<trkpt lat="32.588596344" lon="35.010894775">
  <ele>96.842407</ele>
  <time>2011-10-13T07:37:47Z</time>
  <speed>1.360000</speed>
</trkpt>
<trkpt lat="32.588619232" lon="35.010936737">
  <ele>97.010376</ele>
  <time>2011-10-13T07:37:50Z</time>
  <speed>2.130000</speed>
</trkpt>
<trkpt lat="32.588626862" lon="35.010963440">
  <ele>95.518188</ele>
  <time>2011-10-13T07:37:51Z</time>
  <speed>2.230000</speed>
</trkpt>
<trkpt lat="32.588634491" lon="35.011009216">
  <ele>94.442017</ele>
  <time>2011-10-13T07:37:53Z</time>
  <speed>2.110000</speed>
</trkpt>
<trkpt lat="32.588634491" lon="35.011058807">
  <ele>93.434204</ele>
  <time>2011-10-13T07:37:55Z</time>
  <speed>2.460000</speed>
</trkpt>
<trkpt lat="32.588649750" lon="35.011089325">
  <ele>94.414673</ele>
  <time>2011-10-13T07:37:56Z</time>
  <speed>2.360000</speed>
</trkpt>
<trkpt lat="32.588657379" lon="35.011131287">
  <ele>94.367798</ele>
  <time>2011-10-13T07:37:58Z</time>
  <speed>2.410000</speed>
</trkpt>
<trkpt lat="32.588680267" lon="35.011192322">
  <ele>94.873657</ele>
  <time>2011-10-13T07:38:00Z</time>
  <speed>2.380000</speed>
</trkpt>
<trkpt lat="32.588699341" lon="35.011241913">
  <ele>93.828735</ele>
  <time>2011-10-13T07:38:02Z</time>
  <speed>2.420000</speed>
</trkpt>
<trkpt lat="32.588710785" lon="35.011272430">
  <ele>93.373657</ele>
  <time>2011-10-13T07:38:03Z</time>
  <speed>2.490000</speed>
</trkpt>
<trkpt lat="32.588729858" lon="35.011318207">
  <ele>93.766235</ele>
  <time>2011-10-13T07:38:05Z</time>
  <speed>2.180000</speed>
</trkpt>
<trkpt lat="32.588748932" lon="35.011360168">
  <ele>94.459595</ele>
  <time>2011-10-13T07:38:07Z</time>
  <speed>2.010000</speed>
</trkpt>
<trkpt lat="32.588764191" lon="35.011383057">
  <ele>95.326782</ele>
  <time>2011-10-13T07:38:08Z</time>
  <speed>1.920000</speed>
</trkpt>
<trkpt lat="32.588756561" lon="35.011428833">
  <ele>95.004517</ele>
  <time>2011-10-13T07:38:11Z</time>
  <speed>1.760000</speed>
</trkpt>
<trkpt lat="32.588764191" lon="35.011470795">
  <ele>94.789673</ele>
  <time>2011-10-13T07:38:13Z</time>
  <speed>2.250000</speed>
</trkpt>
<trkpt lat="32.588760376" lon="35.011516571">
  <ele>93.889282</ele>
  <time>2011-10-13T07:38:15Z</time>
  <speed>1.650000</speed>
</trkpt>
<trkpt lat="32.588752747" lon="35.011562347">
  <ele>94.992798</ele>
  <time>2011-10-13T07:38:16Z</time>
  <speed>2.100000</speed>
</trkpt>
<trkpt lat="32.588748932" lon="35.011615753">
  <ele>94.979126</ele>
  <time>2011-10-13T07:38:18Z</time>
  <speed>2.250000</speed>
</trkpt>
<trkpt lat="32.588741302" lon="35.011650085">
  <ele>95.227173</ele>
  <time>2011-10-13T07:38:19Z</time>
  <speed>2.070000</speed>
</trkpt>
<trkpt lat="32.588737488" lon="35.011695862">
  <ele>96.356079</ele>
  <time>2011-10-13T07:38:21Z</time>
  <speed>2.050000</speed>
</trkpt>
<trkpt lat="32.588741302" lon="35.011737823">
  <ele>97.918579</ele>
  <time>2011-10-13T07:38:22Z</time>
  <speed>2.110000</speed>
</trkpt>
<trkpt lat="32.588737488" lon="35.011779785">
  <ele>98.031860</ele>
  <time>2011-10-13T07:38:24Z</time>
  <speed>2.250000</speed>
</trkpt>
<trkpt lat="32.588748932" lon="35.011829376">
  <ele>99.233032</ele>
  <time>2011-10-13T07:38:26Z</time>
  <speed>2.410000</speed>
</trkpt>
<trkpt lat="32.588752747" lon="35.011863708">
  <ele>98.576782</ele>
  <time>2011-10-13T07:38:27Z</time>
  <speed>2.920000</speed>
</trkpt>
<trkpt lat="32.588756561" lon="35.011928558">
  <ele>99.674438</ele>
  <time>2011-10-13T07:38:29Z</time>
  <speed>3.190000</speed>
</trkpt>
<trkpt lat="32.588760376" lon="35.011962891">
  <ele>99.713501</ele>
  <time>2011-10-13T07:38:30Z</time>
  <speed>3.120000</speed>
</trkpt>
<trkpt lat="32.588771820" lon="35.011997223">
  <ele>99.852173</ele>
  <time>2011-10-13T07:38:31Z</time>
  <speed>2.930000</speed>
</trkpt>
<trkpt lat="32.588790894" lon="35.012050629">
  <ele>100.588501</ele>
  <time>2011-10-13T07:38:33Z</time>
  <speed>2.870000</speed>
</trkpt>
<trkpt lat="32.588798523" lon="35.012096405">
  <ele>101.272095</ele>
  <time>2011-10-13T07:38:35Z</time>
  <speed>1.670000</speed>
</trkpt>
<trkpt lat="32.588806152" lon="35.012138367">
  <ele>100.869751</ele>
  <time>2011-10-13T07:38:37Z</time>
  <speed>2.060000</speed>
</trkpt>
<trkpt lat="32.588832855" lon="35.012168884">
  <ele>101.020142</ele>
  <time>2011-10-13T07:38:39Z</time>
  <speed>2.090000</speed>
</trkpt>
<trkpt lat="32.588859558" lon="35.012176514">
  <ele>99.248657</ele>
  <time>2011-10-13T07:38:41Z</time>
  <speed>1.690000</speed>
</trkpt>
<trkpt lat="32.588893890" lon="35.012168884">
  <ele>99.168579</ele>
  <time>2011-10-13T07:38:43Z</time>
  <speed>1.210000</speed>
</trkpt>
<trkpt lat="32.588928223" lon="35.012184143">
  <ele>98.861938</ele>
  <time>2011-10-13T07:38:45Z</time>
  <speed>1.990000</speed>
</trkpt>
<trkpt lat="32.588962555" lon="35.012207031">
  <ele>99.000610</ele>
  <time>2011-10-13T07:38:47Z</time>
  <speed>1.580000</speed>
</trkpt>
<trkpt lat="32.588996887" lon="35.012207031">
  <ele>100.402954</ele>
  <time>2011-10-13T07:38:49Z</time>
  <speed>2.010000</speed>
</trkpt>
<trkpt lat="32.589031219" lon="35.012218475">
  <ele>101.113892</ele>
  <time>2011-10-13T07:38:51Z</time>
  <speed>2.010000</speed>
</trkpt>
<trkpt lat="32.589065552" lon="35.012210846">
  <ele>102.545532</ele>
  <time>2011-10-13T07:38:53Z</time>
  <speed>1.600000</speed>
</trkpt>
<trkpt lat="32.589096069" lon="35.012218475">
  <ele>102.424438</ele>
  <time>2011-10-13T07:38:55Z</time>
  <speed>1.860000</speed>
</trkpt>
<trkpt lat="32.589141846" lon="35.012222290">
  <ele>102.916626</ele>
  <time>2011-10-13T07:38:57Z</time>
  <speed>2.500000</speed>
</trkpt>
<trkpt lat="32.589183807" lon="35.012229919">
  <ele>103.643188</ele>
  <time>2011-10-13T07:38:59Z</time>
  <speed>2.370000</speed>
</trkpt>
<trkpt lat="32.589225769" lon="35.012260437">
  <ele>102.836548</ele>
  <time>2011-10-13T07:39:01Z</time>
  <speed>2.310000</speed>
</trkpt>
<trkpt lat="32.589260101" lon="35.012294769">
  <ele>102.945923</ele>
  <time>2011-10-13T07:39:03Z</time>
  <speed>2.400000</speed>
</trkpt>
<trkpt lat="32.589298248" lon="35.012317657">
  <ele>102.945923</ele>
  <time>2011-10-13T07:39:05Z</time>
  <speed>2.310000</speed>
</trkpt>
<trkpt lat="32.589332581" lon="35.012344360">
  <ele>102.906860</ele>
  <time>2011-10-13T07:39:07Z</time>
  <speed>2.450000</speed>
</trkpt>
<trkpt lat="32.589374542" lon="35.012359619">
  <ele>103.633423</ele>
  <time>2011-10-13T07:39:09Z</time>
  <speed>2.210000</speed>
</trkpt>
<trkpt lat="32.589408875" lon="35.012378693">
  <ele>103.541626</ele>
  <time>2011-10-13T07:39:11Z</time>
  <speed>1.840000</speed>
</trkpt>
<trkpt lat="32.589450836" lon="35.012397766">
  <ele>104.258423</ele>
  <time>2011-10-13T07:39:13Z</time>
  <speed>2.390000</speed>
</trkpt>
<trkpt lat="32.589481354" lon="35.012409210">
  <ele>104.205688</ele>
  <time>2011-10-13T07:39:15Z</time>
  <speed>1.970000</speed>
</trkpt>
<trkpt lat="32.589519501" lon="35.012428284">
  <ele>104.826782</ele>
  <time>2011-10-13T07:39:17Z</time>
  <speed>2.220000</speed>
</trkpt>
<trkpt lat="32.589553833" lon="35.012466431">
  <ele>104.711548</ele>
  <time>2011-10-13T07:39:19Z</time>
  <speed>2.400000</speed>
</trkpt>
<trkpt lat="32.589591980" lon="35.012485504">
  <ele>105.260376</ele>
  <time>2011-10-13T07:39:21Z</time>
  <speed>2.490000</speed>
</trkpt>
<trkpt lat="32.589641571" lon="35.012508392">
  <ele>105.740845</ele>
  <time>2011-10-13T07:39:23Z</time>
  <speed>2.200000</speed>
</trkpt>
<trkpt lat="32.589687347" lon="35.012538910">
  <ele>105.859985</ele>
  <time>2011-10-13T07:39:25Z</time>
  <speed>2.310000</speed>
</trkpt>
<trkpt lat="32.589717865" lon="35.012561798">
  <ele>104.736938</ele>
  <time>2011-10-13T07:39:27Z</time>
  <speed>2.490000</speed>
</trkpt>
<trkpt lat="32.589759827" lon="35.012580872">
  <ele>105.399048</ele>
  <time>2011-10-13T07:39:29Z</time>
  <speed>2.130000</speed>
</trkpt>
<trkpt lat="32.589797974" lon="35.012599945">
  <ele>105.672485</ele>
  <time>2011-10-13T07:39:31Z</time>
  <speed>2.200000</speed>
</trkpt>
<trkpt lat="32.589828491" lon="35.012634277">
  <ele>104.350220</ele>
  <time>2011-10-13T07:39:33Z</time>
  <speed>2.090000</speed>
</trkpt>
<trkpt lat="32.589855194" lon="35.012657166">
  <ele>104.684204</ele>
  <time>2011-10-13T07:39:35Z</time>
  <speed>2.270000</speed>
</trkpt>
<trkpt lat="32.589878082" lon="35.012687683">
  <ele>104.158813</ele>
  <time>2011-10-13T07:39:37Z</time>
  <speed>1.980000</speed>
</trkpt>
<trkpt lat="32.589916229" lon="35.012714386">
  <ele>104.557251</ele>
  <time>2011-10-13T07:39:39Z</time>
  <speed>2.530000</speed>
</trkpt>
<trkpt lat="32.589950562" lon="35.012733459">
  <ele>104.475220</ele>
  <time>2011-10-13T07:39:41Z</time>
  <speed>2.040000</speed>
</trkpt>
<trkpt lat="32.589973450" lon="35.012744904">
  <ele>106.334595</ele>
  <time>2011-10-13T07:39:42Z</time>
  <speed>2.020000</speed>
</trkpt>
<trkpt lat="32.590011597" lon="35.012767792">
  <ele>107.022095</ele>
  <time>2011-10-13T07:39:44Z</time>
  <speed>2.150000</speed>
</trkpt>
<trkpt lat="32.590042114" lon="35.012794495">
  <ele>108.713501</ele>
  <time>2011-10-13T07:39:46Z</time>
  <speed>2.320000</speed>
</trkpt>
<trkpt lat="32.590076447" lon="35.012821198">
  <ele>109.934204</ele>
  <time>2011-10-13T07:39:48Z</time>
  <speed>2.350000</speed>
</trkpt>
<trkpt lat="32.590103149" lon="35.012847900">
  <ele>110.668579</ele>
  <time>2011-10-13T07:39:50Z</time>
  <speed>2.140000</speed>
</trkpt>
<trkpt lat="32.590137482" lon="35.012859344">
  <ele>112.504517</ele>
  <time>2011-10-13T07:39:52Z</time>
  <speed>2.300000</speed>
</trkpt>
<trkpt lat="32.590171814" lon="35.012878418">
  <ele>112.557251</ele>
  <time>2011-10-13T07:39:54Z</time>
  <speed>2.380000</speed>
</trkpt>
<trkpt lat="32.590202332" lon="35.012905121">
  <ele>112.705688</ele>
  <time>2011-10-13T07:39:56Z</time>
  <speed>1.760000</speed>
</trkpt>
<trkpt lat="32.590225220" lon="35.012931824">
  <ele>112.832642</ele>
  <time>2011-10-13T07:39:58Z</time>
  <speed>1.860000</speed>
</trkpt>
<trkpt lat="32.590251923" lon="35.012962341">
  <ele>114.297485</ele>
  <time>2011-10-13T07:40:00Z</time>
  <speed>2.070000</speed>
</trkpt>
<trkpt lat="32.590290070" lon="35.012989044">
  <ele>116.266235</ele>
  <time>2011-10-13T07:40:02Z</time>
  <speed>2.100000</speed>
</trkpt>
<trkpt lat="32.590328217" lon="35.013008118">
  <ele>116.131470</ele>
  <time>2011-10-13T07:40:04Z</time>
  <speed>2.400000</speed>
</trkpt>
<trkpt lat="32.590358734" lon="35.013046265">
  <ele>116.014282</ele>
  <time>2011-10-13T07:40:06Z</time>
  <speed>1.980000</speed>
</trkpt>
<trkpt lat="32.590393066" lon="35.013065338">
  <ele>116.445923</ele>
  <time>2011-10-13T07:40:08Z</time>
  <speed>1.920000</speed>
</trkpt>
<trkpt lat="32.590427399" lon="35.013076782">
  <ele>116.887329</ele>
  <time>2011-10-13T07:40:10Z</time>
  <speed>1.950000</speed>
</trkpt>
<trkpt lat="32.590461731" lon="35.013099670">
  <ele>116.744751</ele>
  <time>2011-10-13T07:40:12Z</time>
  <speed>2.190000</speed>
</trkpt>
<trkpt lat="32.590496063" lon="35.013130188">
  <ele>116.483032</ele>
  <time>2011-10-13T07:40:14Z</time>
  <speed>2.230000</speed>
</trkpt>
<trkpt lat="32.590530396" lon="35.013156891">
  <ele>115.492798</ele>
  <time>2011-10-13T07:40:16Z</time>
  <speed>2.100000</speed>
</trkpt>
<trkpt lat="32.590564728" lon="35.013187408">
  <ele>115.270142</ele>
  <time>2011-10-13T07:40:18Z</time>
  <speed>2.210000</speed>
</trkpt>
<trkpt lat="32.590602875" lon="35.013202667">
  <ele>115.674438</ele>
  <time>2011-10-13T07:40:20Z</time>
  <speed>2.100000</speed>
</trkpt>
<trkpt lat="32.590637207" lon="35.013221741">
  <ele>116.529907</ele>
  <time>2011-10-13T07:40:22Z</time>
  <speed>2.180000</speed>
</trkpt>
<trkpt lat="32.590663910" lon="35.013240814">
  <ele>116.549438</ele>
  <time>2011-10-13T07:40:24Z</time>
  <speed>1.940000</speed>
</trkpt>
<trkpt lat="32.590690613" lon="35.013259888">
  <ele>116.486938</ele>
  <time>2011-10-13T07:40:26Z</time>
  <speed>1.990000</speed>
</trkpt>
<trkpt lat="32.590717316" lon="35.013278961">
  <ele>116.701782</ele>
  <time>2011-10-13T07:40:28Z</time>
  <speed>1.990000</speed>
</trkpt>
<trkpt lat="32.590747833" lon="35.013305664">
  <ele>116.744751</ele>
  <time>2011-10-13T07:40:30Z</time>
  <speed>1.980000</speed>
</trkpt>
<trkpt lat="32.590793610" lon="35.013317108">
  <ele>117.443970</ele>
  <time>2011-10-13T07:40:32Z</time>
  <speed>2.130000</speed>
</trkpt>
<trkpt lat="32.590839386" lon="35.013339996">
  <ele>117.272095</ele>
  <time>2011-10-13T07:40:34Z</time>
  <speed>2.240000</speed>
</trkpt>
<trkpt lat="32.590873718" lon="35.013370514">
  <ele>117.215454</ele>
  <time>2011-10-13T07:40:36Z</time>
  <speed>2.070000</speed>
</trkpt>
<trkpt lat="32.590915680" lon="35.013404846">
  <ele>116.350220</ele>
  <time>2011-10-13T07:40:38Z</time>
  <speed>2.150000</speed>
</trkpt>
<trkpt lat="32.590950012" lon="35.013427734">
  <ele>116.936157</ele>
  <time>2011-10-13T07:40:40Z</time>
  <speed>2.050000</speed>
</trkpt>
<trkpt lat="32.590965271" lon="35.013462067">
  <ele>117.475220</ele>
  <time>2011-10-13T07:40:42Z</time>
  <speed>1.850000</speed>
</trkpt>
<trkpt lat="32.590961456" lon="35.013504028">
  <ele>118.817017</ele>
  <time>2011-10-13T07:40:44Z</time>
  <speed>2.080000</speed>
</trkpt>
<trkpt lat="32.590957642" lon="35.013542175">
  <ele>120.543579</ele>
  <time>2011-10-13T07:40:46Z</time>
  <speed>2.060000</speed>
</trkpt>
<trkpt lat="32.590942383" lon="35.013584137">
  <ele>121.309204</ele>
  <time>2011-10-13T07:40:48Z</time>
  <speed>2.000000</speed>
</trkpt>
<trkpt lat="32.590919495" lon="35.013629913">
  <ele>121.731079</ele>
  <time>2011-10-13T07:40:50Z</time>
  <speed>2.360000</speed>
</trkpt>
<trkpt lat="32.590900421" lon="35.013668060">
  <ele>123.067017</ele>
  <time>2011-10-13T07:40:52Z</time>
  <speed>2.040000</speed>
</trkpt>
<trkpt lat="32.590877533" lon="35.013698578">
  <ele>123.426392</ele>
  <time>2011-10-13T07:40:54Z</time>
  <speed>1.860000</speed>
</trkpt>
<trkpt lat="32.590847015" lon="35.013725281">
  <ele>123.529907</ele>
  <time>2011-10-13T07:40:56Z</time>
  <speed>1.910000</speed>
</trkpt>
<trkpt lat="32.590824127" lon="35.013751984">
  <ele>122.947876</ele>
  <time>2011-10-13T07:40:58Z</time>
  <speed>1.720000</speed>
</trkpt>
<trkpt lat="32.590789795" lon="35.013790131">
  <ele>123.420532</ele>
  <time>2011-10-13T07:41:00Z</time>
  <speed>1.700000</speed>
</trkpt>
<trkpt lat="32.590763092" lon="35.013824463">
  <ele>123.877563</ele>
  <time>2011-10-13T07:41:02Z</time>
  <speed>1.930000</speed>
</trkpt>
<trkpt lat="32.590747833" lon="35.013854980">
  <ele>122.717407</ele>
  <time>2011-10-13T07:41:04Z</time>
  <speed>1.760000</speed>
</trkpt>
<trkpt lat="32.590713501" lon="35.013870239">
  <ele>122.063110</ele>
  <time>2011-10-13T07:41:06Z</time>
  <speed>1.870000</speed>
</trkpt>
<trkpt lat="32.590682983" lon="35.013885498">
  <ele>121.891235</ele>
  <time>2011-10-13T07:41:08Z</time>
  <speed>1.270000</speed>
</trkpt>
<trkpt lat="32.590656281" lon="35.013893127">
  <ele>121.709595</ele>
  <time>2011-10-13T07:41:10Z</time>
  <speed>1.210000</speed>
</trkpt>
<trkpt lat="32.590625763" lon="35.013916016">
  <ele>120.615845</ele>
  <time>2011-10-13T07:41:12Z</time>
  <speed>1.410000</speed>
</trkpt>
<trkpt lat="32.590595245" lon="35.013942719">
  <ele>119.750610</ele>
  <time>2011-10-13T07:41:13Z</time>
  <speed>2.210000</speed>
</trkpt>
<trkpt lat="32.590557098" lon="35.013950348">
  <ele>119.379517</ele>
  <time>2011-10-13T07:41:15Z</time>
  <speed>1.910000</speed>
</trkpt>
<trkpt lat="32.590511322" lon="35.013957977">
  <ele>119.695923</ele>
  <time>2011-10-13T07:41:17Z</time>
  <speed>2.210000</speed>
</trkpt>
<trkpt lat="32.590476990" lon="35.013957977">
  <ele>119.238892</ele>
  <time>2011-10-13T07:41:19Z</time>
  <speed>2.030000</speed>
</trkpt>
<trkpt lat="32.590427399" lon="35.013950348">
  <ele>119.190063</ele>
  <time>2011-10-13T07:41:21Z</time>
  <speed>1.750000</speed>
</trkpt>
<trkpt lat="32.590385437" lon="35.013957977">
  <ele>119.180298</ele>
  <time>2011-10-13T07:41:23Z</time>
  <speed>1.770000</speed>
</trkpt>
<trkpt lat="32.590335846" lon="35.013931274">
  <ele>119.625610</ele>
  <time>2011-10-13T07:41:24Z</time>
  <speed>1.940000</speed>
</trkpt>
<trkpt lat="32.590309143" lon="35.013931274">
  <ele>119.772095</ele>
  <time>2011-10-13T07:41:25Z</time>
  <speed>1.560000</speed>
</trkpt>
<trkpt lat="32.590278625" lon="35.013923645">
  <ele>118.731079</ele>
  <time>2011-10-13T07:41:27Z</time>
  <speed>1.770000</speed>
</trkpt>
<trkpt lat="32.590236664" lon="35.013927460">
  <ele>118.613892</ele>
  <time>2011-10-13T07:41:29Z</time>
  <speed>1.420000</speed>
</trkpt>
<trkpt lat="32.590194702" lon="35.013942719">
  <ele>118.758423</ele>
  <time>2011-10-13T07:41:32Z</time>
  <speed>1.830000</speed>
</trkpt>
<trkpt lat="32.590156555" lon="35.013946533">
  <ele>118.858032</ele>
  <time>2011-10-13T07:41:34Z</time>
  <speed>1.770000</speed>
</trkpt>
<trkpt lat="32.590133667" lon="35.013957977">
  <ele>119.752563</ele>
  <time>2011-10-13T07:41:36Z</time>
  <speed>1.640000</speed>
</trkpt>
<trkpt lat="32.590095520" lon="35.013950348">
  <ele>119.346313</ele>
  <time>2011-10-13T07:41:38Z</time>
  <speed>1.160000</speed>
</trkpt>
<trkpt lat="32.590068817" lon="35.013942719">
  <ele>118.731079</ele>
  <time>2011-10-13T07:41:40Z</time>
  <speed>0.990000</speed>
</trkpt>
<trkpt lat="32.590038300" lon="35.013946533">
  <ele>118.633423</ele>
  <time>2011-10-13T07:41:42Z</time>
  <speed>1.010000</speed>
</trkpt>
<trkpt lat="32.590007782" lon="35.013927460">
  <ele>119.436157</ele>
  <time>2011-10-13T07:41:43Z</time>
  <speed>0.660000</speed>
</trkpt>
<trkpt lat="32.589981079" lon="35.013931274">
  <ele>120.779907</ele>
  <time>2011-10-13T07:41:47Z</time>
  <speed>1.240000</speed>
</trkpt>
<trkpt lat="32.589958191" lon="35.013961792">
  <ele>120.885376</ele>
  <time>2011-10-13T07:41:49Z</time>
  <speed>2.050000</speed>
</trkpt>
<trkpt lat="32.589942932" lon="35.013999939">
  <ele>120.641235</ele>
  <time>2011-10-13T07:41:51Z</time>
  <speed>1.510000</speed>
</trkpt>
<trkpt lat="32.589904785" lon="35.014030457">
  <ele>120.305298</ele>
  <time>2011-10-13T07:41:53Z</time>
  <speed>2.170000</speed>
</trkpt>
<trkpt lat="32.589874268" lon="35.014049530">
  <ele>119.684204</ele>
  <time>2011-10-13T07:41:55Z</time>
  <speed>2.100000</speed>
</trkpt>
<trkpt lat="32.589817047" lon="35.014068604">
  <ele>119.236938</ele>
  <time>2011-10-13T07:41:57Z</time>
  <speed>2.880000</speed>
</trkpt>
<trkpt lat="32.589786530" lon="35.014076233">
  <ele>119.092407</ele>
  <time>2011-10-13T07:41:58Z</time>
  <speed>2.630000</speed>
</trkpt>
<trkpt lat="32.589736938" lon="35.014080048">
  <ele>119.002563</ele>
  <time>2011-10-13T07:41:59Z</time>
  <speed>2.890000</speed>
</trkpt>
<trkpt lat="32.589706421" lon="35.014076233">
  <ele>118.440063</ele>
  <time>2011-10-13T07:42:00Z</time>
  <speed>2.770000</speed>
</trkpt>
<trkpt lat="32.589675903" lon="35.014080048">
  <ele>118.149048</ele>
  <time>2011-10-13T07:42:01Z</time>
  <speed>3.170000</speed>
</trkpt>
<trkpt lat="32.589630127" lon="35.014080048">
  <ele>118.197876</ele>
  <time>2011-10-13T07:42:02Z</time>
  <speed>3.130000</speed>
</trkpt>
<trkpt lat="32.589576721" lon="35.014072418">
  <ele>118.852173</ele>
  <time>2011-10-13T07:42:03Z</time>
  <speed>3.530000</speed>
</trkpt>
<trkpt lat="32.589542389" lon="35.014072418">
  <ele>118.801392</ele>
  <time>2011-10-13T07:42:04Z</time>
  <speed>3.510000</speed>
</trkpt>
<trkpt lat="32.589488983" lon="35.014060974">
  <ele>119.518188</ele>
  <time>2011-10-13T07:42:05Z</time>
  <speed>3.190000</speed>
</trkpt>
<trkpt lat="32.589447021" lon="35.014053345">
  <ele>119.746704</ele>
  <time>2011-10-13T07:42:06Z</time>
  <speed>3.730000</speed>
</trkpt>
<trkpt lat="32.589408875" lon="35.014053345">
  <ele>119.649048</ele>
  <time>2011-10-13T07:42:07Z</time>
  <speed>3.950000</speed>
</trkpt>
<trkpt lat="32.589370728" lon="35.014053345">
  <ele>119.428345</ele>
  <time>2011-10-13T07:42:08Z</time>
  <speed>4.220000</speed>
</trkpt>
<trkpt lat="32.589324951" lon="35.014053345">
  <ele>119.070923</ele>
  <time>2011-10-13T07:42:09Z</time>
  <speed>4.240000</speed>
</trkpt>
<trkpt lat="32.589282990" lon="35.014057159">
  <ele>118.317017</ele>
  <time>2011-10-13T07:42:10Z</time>
  <speed>3.590000</speed>
</trkpt>
<trkpt lat="32.589248657" lon="35.014057159">
  <ele>118.008423</ele>
  <time>2011-10-13T07:42:11Z</time>
  <speed>3.690000</speed>
</trkpt>
<trkpt lat="32.589214325" lon="35.014072418">
  <ele>117.563110</ele>
  <time>2011-10-13T07:42:12Z</time>
  <speed>4.190000</speed>
</trkpt>
<trkpt lat="32.589179993" lon="35.014080048">
  <ele>116.977173</ele>
  <time>2011-10-13T07:42:13Z</time>
  <speed>3.710000</speed>
</trkpt>
<trkpt lat="32.589134216" lon="35.014087677">
  <ele>116.598267</ele>
  <time>2011-10-13T07:42:14Z</time>
  <speed>4.880000</speed>
</trkpt>
<trkpt lat="32.589073181" lon="35.014076233">
  <ele>116.365845</ele>
  <time>2011-10-13T07:42:15Z</time>
  <speed>5.260000</speed>
</trkpt>
<trkpt lat="32.589038849" lon="35.014076233">
  <ele>116.801392</ele>
  <time>2011-10-13T07:42:16Z</time>
  <speed>4.330000</speed>
</trkpt>
<trkpt lat="32.589000702" lon="35.014064789">
  <ele>116.582642</ele>
  <time>2011-10-13T07:42:17Z</time>
  <speed>4.080000</speed>
</trkpt>
<trkpt lat="32.588962555" lon="35.014053345">
  <ele>116.404907</ele>
  <time>2011-10-13T07:42:18Z</time>
  <speed>2.940000</speed>
</trkpt>
<trkpt lat="32.588932037" lon="35.014053345">
  <ele>116.332642</ele>
  <time>2011-10-13T07:42:19Z</time>
  <speed>2.740000</speed>
</trkpt>
<trkpt lat="32.588893890" lon="35.014087677">
  <ele>115.715454</ele>
  <time>2011-10-13T07:42:21Z</time>
  <speed>3.350000</speed>
</trkpt>
<trkpt lat="32.588867188" lon="35.014114380">
  <ele>115.082642</ele>
  <time>2011-10-13T07:42:22Z</time>
  <speed>3.660000</speed>
</trkpt>
<trkpt lat="32.588832855" lon="35.014122009">
  <ele>114.668579</ele>
  <time>2011-10-13T07:42:23Z</time>
  <speed>4.140000</speed>
</trkpt>
<trkpt lat="32.588794708" lon="35.014133453">
  <ele>114.289673</ele>
  <time>2011-10-13T07:42:24Z</time>
  <speed>4.060000</speed>
</trkpt>
<trkpt lat="32.588756561" lon="35.014141083">
  <ele>114.328735</ele>
  <time>2011-10-13T07:42:25Z</time>
  <speed>3.880000</speed>
</trkpt>
<trkpt lat="32.588722229" lon="35.014163971">
  <ele>113.611938</ele>
  <time>2011-10-13T07:42:26Z</time>
  <speed>3.780000</speed>
</trkpt>
<trkpt lat="32.588699341" lon="35.014183044">
  <ele>113.428345</ele>
  <time>2011-10-13T07:42:27Z</time>
  <speed>3.090000</speed>
</trkpt>
<trkpt lat="32.588672638" lon="35.014205933">
  <ele>113.115845</ele>
  <time>2011-10-13T07:42:28Z</time>
  <speed>3.770000</speed>
</trkpt>
<trkpt lat="32.588645935" lon="35.014228821">
  <ele>113.037720</ele>
  <time>2011-10-13T07:42:29Z</time>
  <speed>3.260000</speed>
</trkpt>
<trkpt lat="32.588630676" lon="35.014259338">
  <ele>112.264282</ele>
  <time>2011-10-13T07:42:30Z</time>
  <speed>3.120000</speed>
</trkpt>
<trkpt lat="32.588607788" lon="35.014282227">
  <ele>111.748657</ele>
  <time>2011-10-13T07:42:31Z</time>
  <speed>2.780000</speed>
</trkpt>
<trkpt lat="32.588581085" lon="35.014293671">
  <ele>111.371704</ele>
  <time>2011-10-13T07:42:32Z</time>
  <speed>2.920000</speed>
</trkpt>
<trkpt lat="32.588539124" lon="35.014293671">
  <ele>111.252563</ele>
  <time>2011-10-13T07:42:33Z</time>
  <speed>3.440000</speed>
</trkpt>
<trkpt lat="32.588512421" lon="35.014297485">
  <ele>110.828735</ele>
  <time>2011-10-13T07:42:34Z</time>
  <speed>3.150000</speed>
</trkpt>
<trkpt lat="32.588478088" lon="35.014301300">
  <ele>110.311157</ele>
  <time>2011-10-13T07:42:35Z</time>
  <speed>3.660000</speed>
</trkpt>
<trkpt lat="32.588447571" lon="35.014301300">
  <ele>109.914673</ele>
  <time>2011-10-13T07:42:36Z</time>
  <speed>3.040000</speed>
</trkpt>
<trkpt lat="32.588401794" lon="35.014293671">
  <ele>109.715454</ele>
  <time>2011-10-13T07:42:37Z</time>
  <speed>3.490000</speed>
</trkpt>
<trkpt lat="32.588367462" lon="35.014282227">
  <ele>109.457642</ele>
  <time>2011-10-13T07:42:38Z</time>
  <speed>4.060000</speed>
</trkpt>
<trkpt lat="32.588325500" lon="35.014274597">
  <ele>109.324829</ele>
  <time>2011-10-13T07:42:39Z</time>
  <speed>4.030000</speed>
</trkpt>
<trkpt lat="32.588264465" lon="35.014289856">
  <ele>109.125610</ele>
  <time>2011-10-13T07:42:40Z</time>
  <speed>3.480000</speed>
</trkpt>
<trkpt lat="32.588233948" lon="35.014270782">
  <ele>109.402954</ele>
  <time>2011-10-13T07:42:41Z</time>
  <speed>3.250000</speed>
</trkpt>
<trkpt lat="32.588203430" lon="35.014266968">
  <ele>109.381470</ele>
  <time>2011-10-13T07:42:42Z</time>
  <speed>3.560000</speed>
</trkpt>
<trkpt lat="32.588169098" lon="35.014266968">
  <ele>109.373657</ele>
  <time>2011-10-13T07:42:43Z</time>
  <speed>2.950000</speed>
</trkpt>
<trkpt lat="32.588138580" lon="35.014270782">
  <ele>109.197876</ele>
  <time>2011-10-13T07:42:44Z</time>
  <speed>2.930000</speed>
</trkpt>
<trkpt lat="32.588100433" lon="35.014305115">
  <ele>108.266235</ele>
  <time>2011-10-13T07:42:46Z</time>
  <speed>2.710000</speed>
</trkpt>
<trkpt lat="32.588054657" lon="35.014347076">
  <ele>107.619751</ele>
  <time>2011-10-13T07:42:48Z</time>
  <speed>2.650000</speed>
</trkpt>
<trkpt lat="32.588047028" lon="35.014404297">
  <ele>106.455688</ele>
  <time>2011-10-13T07:42:50Z</time>
  <speed>2.650000</speed>
</trkpt>
<trkpt lat="32.588024139" lon="35.014434814">
  <ele>105.910767</ele>
  <time>2011-10-13T07:42:51Z</time>
  <speed>4.540000</speed>
</trkpt>
<trkpt lat="32.587982178" lon="35.014453888">
  <ele>105.574829</ele>
  <time>2011-10-13T07:42:52Z</time>
  <speed>4.510000</speed>
</trkpt>
<trkpt lat="32.587947845" lon="35.014469147">
  <ele>105.104126</ele>
  <time>2011-10-13T07:42:53Z</time>
  <speed>3.870000</speed>
</trkpt>
<trkpt lat="32.587913513" lon="35.014488220">
  <ele>104.315063</ele>
  <time>2011-10-13T07:42:54Z</time>
  <speed>2.760000</speed>
</trkpt>
<trkpt lat="32.587886810" lon="35.014499664">
  <ele>103.973267</ele>
  <time>2011-10-13T07:42:55Z</time>
  <speed>2.350000</speed>
</trkpt>
<trkpt lat="32.587856293" lon="35.014526367">
  <ele>103.463501</ele>
  <time>2011-10-13T07:42:57Z</time>
  <speed>2.460000</speed>
</trkpt>
<trkpt lat="32.587814331" lon="35.014549255">
  <ele>102.750610</ele>
  <time>2011-10-13T07:42:59Z</time>
  <speed>1.540000</speed>
</trkpt>
<trkpt lat="32.587799072" lon="35.014579773">
  <ele>101.938110</ele>
  <time>2011-10-13T07:43:01Z</time>
  <speed>1.690000</speed>
</trkpt>
<trkpt lat="32.587787628" lon="35.014595032">
  <ele>99.811157</ele>
  <time>2011-10-13T07:43:06Z</time>
  <speed>0.100000</speed>
</trkpt>
<trkpt lat="32.587806702" lon="35.014583588">
  <ele>97.779907</ele>
  <time>2011-10-13T07:43:20Z</time>
  <speed>0.690000</speed>
</trkpt>
<trkpt lat="32.587821960" lon="35.014553070">
  <ele>97.815063</ele>
  <time>2011-10-13T07:43:24Z</time>
  <speed>1.060000</speed>
</trkpt>
<trkpt lat="32.587848663" lon="35.014545441">
  <ele>100.006470</ele>
  <time>2011-10-13T07:43:25Z</time>
  <speed>0.930000</speed>
</trkpt>
<trkpt lat="32.587875366" lon="35.014526367">
  <ele>102.102173</ele>
  <time>2011-10-13T07:43:28Z</time>
  <speed>0.770000</speed>
</trkpt>
<trkpt lat="32.587902069" lon="35.014518738">
  <ele>104.057251</ele>
  <time>2011-10-13T07:43:30Z</time>
  <speed>0.630000</speed>
</trkpt>
<trkpt lat="32.587932587" lon="35.014507294">
  <ele>106.012329</ele>
  <time>2011-10-13T07:43:33Z</time>
  <speed>0.960000</speed>
</trkpt>
<trkpt lat="32.587959290" lon="35.014492035">
  <ele>107.979126</ele>
  <time>2011-10-13T07:43:35Z</time>
  <speed>0.620000</speed>
</trkpt>
<trkpt lat="32.587985992" lon="35.014480591">
  <ele>110.293579</ele>
  <time>2011-10-13T07:43:38Z</time>
  <speed>0.780000</speed>
</trkpt>
<trkpt lat="32.588012695" lon="35.014484406">
  <ele>112.203735</ele>
  <time>2011-10-13T07:43:40Z</time>
  <speed>0.970000</speed>
</trkpt>
<trkpt lat="32.588050842" lon="35.014484406">
  <ele>114.631470</ele>
  <time>2011-10-13T07:43:42Z</time>
  <speed>1.210000</speed>
</trkpt>
<trkpt lat="32.588027954" lon="35.014472961">
  <ele>116.250610</ele>
  <time>2011-10-13T07:44:30Z</time>
  <speed>1.200000</speed>
</trkpt>
<trkpt lat="32.587985992" lon="35.014476776">
  <ele>116.406860</ele>
  <time>2011-10-13T07:44:32Z</time>
  <speed>1.590000</speed>
</trkpt>
<trkpt lat="32.587951660" lon="35.014484406">
  <ele>116.414673</ele>
  <time>2011-10-13T07:44:34Z</time>
  <speed>1.080000</speed>
</trkpt>
<trkpt lat="32.587917328" lon="35.014511108">
  <ele>116.434204</ele>
  <time>2011-10-13T07:44:37Z</time>
  <speed>0.980000</speed>
</trkpt>
<trkpt lat="32.587886810" lon="35.014537811">
  <ele>115.875610</ele>
  <time>2011-10-13T07:44:40Z</time>
  <speed>1.140000</speed>
</trkpt>
<trkpt lat="32.587886810" lon="35.014572144">
  <ele>115.492798</ele>
  <time>2011-10-13T07:44:42Z</time>
  <speed>1.650000</speed>
</trkpt>
<trkpt lat="32.587863922" lon="35.014595032">
  <ele>115.152954</ele>
  <time>2011-10-13T07:44:45Z</time>
  <speed>1.120000</speed>
</trkpt>
<trkpt lat="32.587837219" lon="35.014610291">
  <ele>114.670532</ele>
  <time>2011-10-13T07:44:47Z</time>
  <speed>1.170000</speed>
</trkpt>
<trkpt lat="32.587802887" lon="35.014617920">
  <ele>113.859985</ele>
  <time>2011-10-13T07:44:50Z</time>
  <speed>1.380000</speed>
</trkpt>
<trkpt lat="32.587776184" lon="35.014633179">
  <ele>113.408813</ele>
  <time>2011-10-13T07:44:52Z</time>
  <speed>1.200000</speed>
</trkpt>
<trkpt lat="32.587745667" lon="35.014652252">
  <ele>112.559204</ele>
  <time>2011-10-13T07:44:53Z</time>
  <speed>1.340000</speed>
</trkpt>
<trkpt lat="32.587722778" lon="35.014675140">
  <ele>112.416626</ele>
  <time>2011-10-13T07:44:54Z</time>
  <speed>1.890000</speed>
</trkpt>
<trkpt lat="32.587692261" lon="35.014720917">
  <ele>111.992798</ele>
  <time>2011-10-13T07:44:56Z</time>
  <speed>0.830000</speed>
</trkpt>
<trkpt lat="32.587684631" lon="35.014755249">
  <ele>110.975220</ele>
  <time>2011-10-13T07:44:59Z</time>
  <speed>0.300000</speed>
</trkpt>
<trkpt lat="32.587673187" lon="35.014793396">
  <ele>111.598267</ele>
  <time>2011-10-13T07:45:01Z</time>
  <speed>0.270000</speed>
</trkpt>
<trkpt lat="32.587650299" lon="35.014827728">
  <ele>111.924438</ele>
  <time>2011-10-13T07:45:03Z</time>
  <speed>0.480000</speed>
</trkpt>
<trkpt lat="32.587600708" lon="35.014835358">
  <ele>109.938110</ele>
  <time>2011-10-13T07:45:06Z</time>
  <speed>0.980000</speed>
</trkpt>
<trkpt lat="32.587562561" lon="35.014827728">
  <ele>108.875610</ele>
  <time>2011-10-13T07:45:09Z</time>
  <speed>1.020000</speed>
</trkpt>
<trkpt lat="32.587535858" lon="35.014820099">
  <ele>108.391235</ele>
  <time>2011-10-13T07:45:12Z</time>
  <speed>0.850000</speed>
</trkpt>
<trkpt lat="32.587505341" lon="35.014820099">
  <ele>106.846313</ele>
  <time>2011-10-13T07:45:17Z</time>
  <speed>0.740000</speed>
</trkpt>
<trkpt lat="32.587451935" lon="35.014827728">
  <ele>106.410767</ele>
  <time>2011-10-13T07:45:20Z</time>
  <speed>0.760000</speed>
</trkpt>
<trkpt lat="32.587409973" lon="35.014842987">
  <ele>105.121704</ele>
  <time>2011-10-13T07:45:22Z</time>
  <speed>0.920000</speed>
</trkpt>
<trkpt lat="32.587379456" lon="35.014839172">
  <ele>104.951782</ele>
  <time>2011-10-13T07:45:25Z</time>
  <speed>0.930000</speed>
</trkpt>
<trkpt lat="32.587352753" lon="35.014835358">
  <ele>104.608032</ele>
  <time>2011-10-13T07:45:28Z</time>
  <speed>0.970000</speed>
</trkpt>
<trkpt lat="32.587322235" lon="35.014820099">
  <ele>104.965454</ele>
  <time>2011-10-13T07:45:30Z</time>
  <speed>0.910000</speed>
</trkpt>
<trkpt lat="32.587291718" lon="35.014804840">
  <ele>105.287720</ele>
  <time>2011-10-13T07:45:33Z</time>
  <speed>0.980000</speed>
</trkpt>
<trkpt lat="32.587261200" lon="35.014789581">
  <ele>105.184204</ele>
  <time>2011-10-13T07:45:37Z</time>
  <speed>1.000000</speed>
</trkpt>
<trkpt lat="32.587219238" lon="35.014778137">
  <ele>105.354126</ele>
  <time>2011-10-13T07:45:40Z</time>
  <speed>1.050000</speed>
</trkpt>
<trkpt lat="32.587192535" lon="35.014797211">
  <ele>105.332642</ele>
  <time>2011-10-13T07:45:42Z</time>
  <speed>1.020000</speed>
</trkpt>
<trkpt lat="32.587154388" lon="35.014785767">
  <ele>104.836548</ele>
  <time>2011-10-13T07:45:45Z</time>
  <speed>1.020000</speed>
</trkpt>
<trkpt lat="32.587123871" lon="35.014793396">
  <ele>103.953735</ele>
  <time>2011-10-13T07:45:49Z</time>
  <speed>0.940000</speed>
</trkpt>
<trkpt lat="32.587085724" lon="35.014781952">
  <ele>102.354126</ele>
  <time>2011-10-13T07:45:52Z</time>
  <speed>0.200000</speed>
</trkpt>
<trkpt lat="32.587055206" lon="35.014778137">
  <ele>101.576782</ele>
  <time>2011-10-13T07:46:00Z</time>
  <speed>0.740000</speed>
</trkpt>
<trkpt lat="32.587024689" lon="35.014774323">
  <ele>102.705688</ele>
  <time>2011-10-13T07:46:07Z</time>
  <speed>0.870000</speed>
</trkpt>
<trkpt lat="32.586997986" lon="35.014759064">
  <ele>103.399048</ele>
  <time>2011-10-13T07:46:11Z</time>
  <speed>0.710000</speed>
</trkpt>
<trkpt lat="32.586963654" lon="35.014766693">
  <ele>103.141235</ele>
  <time>2011-10-13T07:46:15Z</time>
  <speed>0.810000</speed>
</trkpt>
<trkpt lat="32.586914063" lon="35.014778137">
  <ele>103.805298</ele>
  <time>2011-10-13T07:46:18Z</time>
  <speed>1.010000</speed>
</trkpt>
<trkpt lat="32.586891174" lon="35.014789581">
  <ele>105.106079</ele>
  <time>2011-10-13T07:46:22Z</time>
  <speed>0.830000</speed>
</trkpt>
<trkpt lat="32.586906433" lon="35.014827728">
  <ele>105.844360</ele>
  <time>2011-10-13T07:46:26Z</time>
  <speed>0.960000</speed>
</trkpt>
<trkpt lat="32.586933136" lon="35.014854431">
  <ele>107.256470</ele>
  <time>2011-10-13T07:46:30Z</time>
  <speed>1.220000</speed>
</trkpt>
<trkpt lat="32.586959839" lon="35.014877319">
  <ele>109.199829</ele>
  <time>2011-10-13T07:46:32Z</time>
  <speed>1.220000</speed>
</trkpt>
<trkpt lat="32.586982727" lon="35.014911652">
  <ele>110.766235</ele>
  <time>2011-10-13T07:46:34Z</time>
  <speed>1.170000</speed>
</trkpt>
<trkpt lat="32.587020874" lon="35.014915466">
  <ele>112.672485</ele>
  <time>2011-10-13T07:46:37Z</time>
  <speed>0.870000</speed>
</trkpt>
<trkpt lat="32.587051392" lon="35.014923096">
  <ele>114.697876</ele>
  <time>2011-10-13T07:46:40Z</time>
  <speed>0.930000</speed>
</trkpt>
<trkpt lat="32.587078094" lon="35.014934540">
  <ele>116.643188</ele>
  <time>2011-10-13T07:46:43Z</time>
  <speed>0.870000</speed>
</trkpt>
<trkpt lat="32.587112427" lon="35.014945984">
  <ele>118.207642</ele>
  <time>2011-10-13T07:46:46Z</time>
  <speed>1.130000</speed>
</trkpt>
<trkpt lat="32.587131500" lon="35.014961243">
  <ele>120.443970</ele>
  <time>2011-10-13T07:46:49Z</time>
  <speed>0.470000</speed>
</trkpt>
<trkpt lat="32.587165833" lon="35.014965057">
  <ele>120.617798</ele>
  <time>2011-10-13T07:46:51Z</time>
  <speed>0.580000</speed>
</trkpt>
<trkpt lat="32.587192535" lon="35.014976501">
  <ele>121.643188</ele>
  <time>2011-10-13T07:46:54Z</time>
  <speed>0.770000</speed>
</trkpt>
<trkpt lat="32.587215424" lon="35.014995575">
  <ele>123.752563</ele>
  <time>2011-10-13T07:46:58Z</time>
  <speed>0.860000</speed>
</trkpt>
<trkpt lat="32.587242126" lon="35.015010834">
  <ele>124.580688</ele>
  <time>2011-10-13T07:47:01Z</time>
  <speed>0.980000</speed>
</trkpt>
<trkpt lat="32.587268829" lon="35.015029907">
  <ele>124.268188</ele>
  <time>2011-10-13T07:47:09Z</time>
  <speed>0.350000</speed>
</trkpt>
<trkpt lat="32.587295532" lon="35.015041351">
  <ele>124.373657</ele>
  <time>2011-10-13T07:47:12Z</time>
  <speed>1.320000</speed>
</trkpt>
<trkpt lat="32.587322235" lon="35.015064240">
  <ele>124.766235</ele>
  <time>2011-10-13T07:47:14Z</time>
  <speed>2.490000</speed>
</trkpt>
<trkpt lat="32.587364197" lon="35.015090942">
  <ele>124.465454</ele>
  <time>2011-10-13T07:47:16Z</time>
  <speed>1.820000</speed>
</trkpt>
<trkpt lat="32.587394714" lon="35.015125275">
  <ele>124.231079</ele>
  <time>2011-10-13T07:47:18Z</time>
  <speed>2.320000</speed>
</trkpt>
<trkpt lat="32.587425232" lon="35.015163422">
  <ele>124.859985</ele>
  <time>2011-10-13T07:47:20Z</time>
  <speed>2.140000</speed>
</trkpt>
<trkpt lat="32.587451935" lon="35.015201569">
  <ele>124.365845</ele>
  <time>2011-10-13T07:47:22Z</time>
  <speed>2.040000</speed>
</trkpt>
<trkpt lat="32.587486267" lon="35.015235901">
  <ele>123.865845</ele>
  <time>2011-10-13T07:47:24Z</time>
  <speed>1.970000</speed>
</trkpt>
<trkpt lat="32.587512970" lon="35.015277863">
  <ele>123.879517</ele>
  <time>2011-10-13T07:47:26Z</time>
  <speed>2.060000</speed>
</trkpt>
<trkpt lat="32.587539673" lon="35.015316010">
  <ele>125.287720</ele>
  <time>2011-10-13T07:47:28Z</time>
  <speed>2.310000</speed>
</trkpt>
<trkpt lat="32.587570190" lon="35.015346527">
  <ele>126.529907</ele>
  <time>2011-10-13T07:47:30Z</time>
  <speed>2.290000</speed>
</trkpt>
<trkpt lat="32.587593079" lon="35.015388489">
  <ele>127.285767</ele>
  <time>2011-10-13T07:47:32Z</time>
  <speed>2.100000</speed>
</trkpt>
<trkpt lat="32.587612152" lon="35.015419006">
  <ele>127.893188</ele>
  <time>2011-10-13T07:47:34Z</time>
  <speed>1.980000</speed>
</trkpt>
<trkpt lat="32.587631226" lon="35.015449524">
  <ele>127.811157</ele>
  <time>2011-10-13T07:47:36Z</time>
  <speed>2.060000</speed>
</trkpt>
<trkpt lat="32.587654114" lon="35.015480042">
  <ele>129.055908</ele>
  <time>2011-10-13T07:47:38Z</time>
  <speed>1.800000</speed>
</trkpt>
<trkpt lat="32.587673187" lon="35.015510559">
  <ele>129.876221</ele>
  <time>2011-10-13T07:47:40Z</time>
  <speed>1.820000</speed>
</trkpt>
<trkpt lat="32.587688446" lon="35.015544891">
  <ele>130.009033</ele>
  <time>2011-10-13T07:47:42Z</time>
  <speed>1.840000</speed>
</trkpt>
<trkpt lat="32.587696075" lon="35.015583038">
  <ele>129.891846</ele>
  <time>2011-10-13T07:47:44Z</time>
  <speed>2.020000</speed>
</trkpt>
<trkpt lat="32.587711334" lon="35.015621185">
  <ele>130.161377</ele>
  <time>2011-10-13T07:47:46Z</time>
  <speed>1.960000</speed>
</trkpt>
<trkpt lat="32.587718964" lon="35.015659332">
  <ele>130.563721</ele>
  <time>2011-10-13T07:47:48Z</time>
  <speed>1.860000</speed>
</trkpt>
<trkpt lat="32.587738037" lon="35.015697479">
  <ele>132.141846</ele>
  <time>2011-10-13T07:47:50Z</time>
  <speed>1.890000</speed>
</trkpt>
<trkpt lat="32.587749481" lon="35.015743256">
  <ele>132.637939</ele>
  <time>2011-10-13T07:47:52Z</time>
  <speed>1.880000</speed>
</trkpt>
<trkpt lat="32.587753296" lon="35.015785217">
  <ele>133.091064</ele>
  <time>2011-10-13T07:47:54Z</time>
  <speed>1.920000</speed>
</trkpt>
<trkpt lat="32.587753296" lon="35.015827179">
  <ele>132.114502</ele>
  <time>2011-10-13T07:47:56Z</time>
  <speed>2.140000</speed>
</trkpt>
<trkpt lat="32.587757111" lon="35.015872955">
  <ele>133.477783</ele>
  <time>2011-10-13T07:47:58Z</time>
  <speed>1.870000</speed>
</trkpt>
<trkpt lat="32.587760925" lon="35.015914917">
  <ele>134.751221</ele>
  <time>2011-10-13T07:48:00Z</time>
  <speed>1.890000</speed>
</trkpt>
<trkpt lat="32.587753296" lon="35.015964508">
  <ele>134.747314</ele>
  <time>2011-10-13T07:48:02Z</time>
  <speed>2.360000</speed>
</trkpt>
<trkpt lat="32.587757111" lon="35.016010284">
  <ele>135.169189</ele>
  <time>2011-10-13T07:48:04Z</time>
  <speed>2.080000</speed>
</trkpt>
<trkpt lat="32.587764740" lon="35.016048431">
  <ele>134.196533</ele>
  <time>2011-10-13T07:48:06Z</time>
  <speed>1.540000</speed>
</trkpt>
<trkpt lat="32.587768555" lon="35.016086578">
  <ele>134.645752</ele>
  <time>2011-10-13T07:48:08Z</time>
  <speed>1.790000</speed>
</trkpt>
<trkpt lat="32.587776184" lon="35.016124725">
  <ele>135.075439</ele>
  <time>2011-10-13T07:48:10Z</time>
  <speed>1.740000</speed>
</trkpt>
<trkpt lat="32.587783813" lon="35.016166687">
  <ele>135.048096</ele>
  <time>2011-10-13T07:48:12Z</time>
  <speed>1.890000</speed>
</trkpt>
<trkpt lat="32.587787628" lon="35.016216278">
  <ele>135.200439</ele>
  <time>2011-10-13T07:48:14Z</time>
  <speed>1.900000</speed>
</trkpt>
<trkpt lat="32.587787628" lon="35.016258240">
  <ele>136.044189</ele>
  <time>2011-10-13T07:48:16Z</time>
  <speed>1.880000</speed>
</trkpt>
<trkpt lat="32.587806702" lon="35.016296387">
  <ele>135.427002</ele>
  <time>2011-10-13T07:48:18Z</time>
  <speed>2.040000</speed>
</trkpt>
<trkpt lat="32.587821960" lon="35.016342163">
  <ele>135.540283</ele>
  <time>2011-10-13T07:48:20Z</time>
  <speed>2.040000</speed>
</trkpt>
<trkpt lat="32.587841034" lon="35.016384125">
  <ele>135.516846</ele>
  <time>2011-10-13T07:48:22Z</time>
  <speed>1.840000</speed>
</trkpt>
<trkpt lat="32.587852478" lon="35.016433716">
  <ele>135.434814</ele>
  <time>2011-10-13T07:48:24Z</time>
  <speed>2.120000</speed>
</trkpt>
<trkpt lat="32.587875366" lon="35.016479492">
  <ele>135.719971</ele>
  <time>2011-10-13T07:48:26Z</time>
  <speed>2.380000</speed>
</trkpt>
<trkpt lat="32.587905884" lon="35.016517639">
  <ele>136.040283</ele>
  <time>2011-10-13T07:48:28Z</time>
  <speed>2.180000</speed>
</trkpt>
<trkpt lat="32.587936401" lon="35.016559601">
  <ele>135.305908</ele>
  <time>2011-10-13T07:48:30Z</time>
  <speed>3.050000</speed>
</trkpt>
<trkpt lat="32.587959290" lon="35.016578674">
  <ele>135.044189</ele>
  <time>2011-10-13T07:48:31Z</time>
  <speed>3.010000</speed>
</trkpt>
<trkpt lat="32.587982178" lon="35.016601563">
  <ele>135.645752</ele>
  <time>2011-10-13T07:48:32Z</time>
  <speed>2.590000</speed>
</trkpt>
<trkpt lat="32.588005066" lon="35.016616821">
  <ele>134.712158</ele>
  <time>2011-10-13T07:48:33Z</time>
  <speed>3.100000</speed>
</trkpt>
<trkpt lat="32.588039398" lon="35.016647339">
  <ele>134.583252</ele>
  <time>2011-10-13T07:48:35Z</time>
  <speed>2.510000</speed>
</trkpt>
<trkpt lat="32.588066101" lon="35.016662598">
  <ele>134.559814</ele>
  <time>2011-10-13T07:48:36Z</time>
  <speed>2.800000</speed>
</trkpt>
<trkpt lat="32.588092804" lon="35.016681671">
  <ele>135.321533</ele>
  <time>2011-10-13T07:48:37Z</time>
  <speed>2.840000</speed>
</trkpt>
<trkpt lat="32.588115692" lon="35.016700745">
  <ele>134.364502</ele>
  <time>2011-10-13T07:48:38Z</time>
  <speed>2.980000</speed>
</trkpt>
<trkpt lat="32.588138580" lon="35.016716003">
  <ele>134.063721</ele>
  <time>2011-10-13T07:48:39Z</time>
  <speed>2.730000</speed>
</trkpt>
<trkpt lat="32.588180542" lon="35.016735077">
  <ele>134.606689</ele>
  <time>2011-10-13T07:48:41Z</time>
  <speed>2.490000</speed>
</trkpt>
<trkpt lat="32.588222504" lon="35.016754150">
  <ele>134.516846</ele>
  <time>2011-10-13T07:48:43Z</time>
  <speed>2.540000</speed>
</trkpt>
<trkpt lat="32.588264465" lon="35.016784668">
  <ele>134.341064</ele>
  <time>2011-10-13T07:48:45Z</time>
  <speed>2.600000</speed>
</trkpt>
<trkpt lat="32.588310242" lon="35.016799927">
  <ele>133.817627</ele>
  <time>2011-10-13T07:48:47Z</time>
  <speed>2.450000</speed>
</trkpt>
<trkpt lat="32.588352203" lon="35.016830444">
  <ele>133.641846</ele>
  <time>2011-10-13T07:48:49Z</time>
  <speed>2.660000</speed>
</trkpt>
<trkpt lat="32.588386536" lon="35.016860962">
  <ele>133.805908</ele>
  <time>2011-10-13T07:48:51Z</time>
  <speed>2.380000</speed>
</trkpt>
<trkpt lat="32.588409424" lon="35.016868591">
  <ele>134.938721</ele>
  <time>2011-10-13T07:48:52Z</time>
  <speed>2.510000</speed>
</trkpt>
<trkpt lat="32.588455200" lon="35.016899109">
  <ele>135.376221</ele>
  <time>2011-10-13T07:48:54Z</time>
  <speed>2.700000</speed>
</trkpt>
<trkpt lat="32.588478088" lon="35.016914368">
  <ele>135.798096</ele>
  <time>2011-10-13T07:48:55Z</time>
  <speed>2.440000</speed>
</trkpt>
<trkpt lat="32.588516235" lon="35.016937256">
  <ele>136.235596</ele>
  <time>2011-10-13T07:48:57Z</time>
  <speed>2.250000</speed>
</trkpt>
<trkpt lat="32.588546753" lon="35.016967773">
  <ele>137.052002</ele>
  <time>2011-10-13T07:48:59Z</time>
  <speed>2.390000</speed>
</trkpt>
<trkpt lat="32.588581085" lon="35.016998291">
  <ele>137.052002</ele>
  <time>2011-10-13T07:49:01Z</time>
  <speed>2.050000</speed>
</trkpt>
<trkpt lat="32.588607788" lon="35.017032623">
  <ele>136.930908</ele>
  <time>2011-10-13T07:49:03Z</time>
  <speed>2.220000</speed>
</trkpt>
<trkpt lat="32.588638306" lon="35.017082214">
  <ele>136.919189</ele>
  <time>2011-10-13T07:49:05Z</time>
  <speed>2.810000</speed>
</trkpt>
<trkpt lat="32.588657379" lon="35.017127991">
  <ele>136.899658</ele>
  <time>2011-10-13T07:49:07Z</time>
  <speed>2.130000</speed>
</trkpt>
<trkpt lat="32.588676453" lon="35.017173767">
  <ele>136.985596</ele>
  <time>2011-10-13T07:49:09Z</time>
  <speed>2.340000</speed>
</trkpt>
<trkpt lat="32.588691711" lon="35.017211914">
  <ele>136.997314</ele>
  <time>2011-10-13T07:49:11Z</time>
  <speed>2.280000</speed>
</trkpt>
<trkpt lat="32.588710785" lon="35.017253876">
  <ele>137.825439</ele>
  <time>2011-10-13T07:49:13Z</time>
  <speed>2.020000</speed>
</trkpt>
<trkpt lat="32.588718414" lon="35.017303467">
  <ele>138.192627</ele>
  <time>2011-10-13T07:49:15Z</time>
  <speed>1.900000</speed>
</trkpt>
<trkpt lat="32.588722229" lon="35.017345428">
  <ele>138.024658</ele>
  <time>2011-10-13T07:49:17Z</time>
  <speed>1.690000</speed>
</trkpt>
<trkpt lat="32.588733673" lon="35.017391205">
  <ele>138.102783</ele>
  <time>2011-10-13T07:49:19Z</time>
  <speed>2.170000</speed>
</trkpt>
<trkpt lat="32.588737488" lon="35.017440796">
  <ele>138.598877</ele>
  <time>2011-10-13T07:49:21Z</time>
  <speed>2.020000</speed>
</trkpt>
<trkpt lat="32.588733673" lon="35.017478943">
  <ele>138.813721</ele>
  <time>2011-10-13T07:49:23Z</time>
  <speed>2.060000</speed>
</trkpt>
<trkpt lat="32.588729858" lon="35.017524719">
  <ele>139.321533</ele>
  <time>2011-10-13T07:49:25Z</time>
  <speed>1.980000</speed>
</trkpt>
<trkpt lat="32.588726044" lon="35.017559052">
  <ele>139.677002</ele>
  <time>2011-10-13T07:49:27Z</time>
  <speed>1.980000</speed>
</trkpt>
<trkpt lat="32.588718414" lon="35.017612457">
  <ele>139.919189</ele>
  <time>2011-10-13T07:49:29Z</time>
  <speed>1.940000</speed>
</trkpt>
<trkpt lat="32.588722229" lon="35.017658234">
  <ele>140.298096</ele>
  <time>2011-10-13T07:49:31Z</time>
  <speed>2.060000</speed>
</trkpt>
<trkpt lat="32.588722229" lon="35.017704010">
  <ele>140.231689</ele>
  <time>2011-10-13T07:49:33Z</time>
  <speed>2.200000</speed>
</trkpt>
<trkpt lat="32.588726044" lon="35.017753601">
  <ele>139.727783</ele>
  <time>2011-10-13T07:49:35Z</time>
  <speed>1.990000</speed>
</trkpt>
<trkpt lat="32.588726044" lon="35.017803192">
  <ele>139.677002</ele>
  <time>2011-10-13T07:49:37Z</time>
  <speed>2.060000</speed>
</trkpt>
<trkpt lat="32.588726044" lon="35.017845154">
  <ele>139.434814</ele>
  <time>2011-10-13T07:49:39Z</time>
  <speed>1.960000</speed>
</trkpt>
<trkpt lat="32.588729858" lon="35.017883301">
  <ele>138.606689</ele>
  <time>2011-10-13T07:49:40Z</time>
  <speed>2.170000</speed>
</trkpt>
<trkpt lat="32.588722229" lon="35.017917633">
  <ele>138.024658</ele>
  <time>2011-10-13T07:49:41Z</time>
  <speed>2.350000</speed>
</trkpt>
<trkpt lat="32.588714600" lon="35.017974854">
  <ele>137.649658</ele>
  <time>2011-10-13T07:49:43Z</time>
  <speed>2.080000</speed>
</trkpt>
<trkpt lat="32.588718414" lon="35.018020630">
  <ele>138.415283</ele>
  <time>2011-10-13T07:49:45Z</time>
  <speed>2.060000</speed>
</trkpt>
<trkpt lat="32.588722229" lon="35.018077850">
  <ele>138.536377</ele>
  <time>2011-10-13T07:49:47Z</time>
  <speed>2.620000</speed>
</trkpt>
<trkpt lat="32.588726044" lon="35.018142700">
  <ele>138.841064</ele>
  <time>2011-10-13T07:49:49Z</time>
  <speed>2.590000</speed>
</trkpt>
<trkpt lat="32.588741302" lon="35.018173218">
  <ele>138.442627</ele>
  <time>2011-10-13T07:49:50Z</time>
  <speed>2.720000</speed>
</trkpt>
<trkpt lat="32.588748932" lon="35.018203735">
  <ele>138.766846</ele>
  <time>2011-10-13T07:49:51Z</time>
  <speed>2.810000</speed>
</trkpt>
<trkpt lat="32.588764191" lon="35.018268585">
  <ele>139.712158</ele>
  <time>2011-10-13T07:49:53Z</time>
  <speed>2.890000</speed>
</trkpt>
<trkpt lat="32.588771820" lon="35.018299103">
  <ele>140.001221</ele>
  <time>2011-10-13T07:49:54Z</time>
  <speed>2.950000</speed>
</trkpt>
<trkpt lat="32.588771820" lon="35.018337250">
  <ele>139.610596</ele>
  <time>2011-10-13T07:49:55Z</time>
  <speed>2.820000</speed>
</trkpt>
<trkpt lat="32.588768005" lon="35.018371582">
  <ele>139.469971</ele>
  <time>2011-10-13T07:49:56Z</time>
  <speed>2.160000</speed>
</trkpt>
<trkpt lat="32.588760376" lon="35.018421173">
  <ele>139.591064</ele>
  <time>2011-10-13T07:49:58Z</time>
  <speed>2.170000</speed>
</trkpt>
<trkpt lat="32.588752747" lon="35.018455505">
  <ele>139.759033</ele>
  <time>2011-10-13T07:50:00Z</time>
  <speed>1.860000</speed>
</trkpt>
<trkpt lat="32.588752747" lon="35.018497467">
  <ele>139.966064</ele>
  <time>2011-10-13T07:50:02Z</time>
  <speed>2.130000</speed>
</trkpt>
<trkpt lat="32.588741302" lon="35.018543243">
  <ele>139.864502</ele>
  <time>2011-10-13T07:50:04Z</time>
  <speed>2.110000</speed>
</trkpt>
<trkpt lat="32.588729858" lon="35.018592834">
  <ele>139.516846</ele>
  <time>2011-10-13T07:50:06Z</time>
  <speed>2.360000</speed>
</trkpt>
<trkpt lat="32.588718414" lon="35.018638611">
  <ele>139.415283</ele>
  <time>2011-10-13T07:50:08Z</time>
  <speed>2.500000</speed>
</trkpt>
<trkpt lat="32.588710785" lon="35.018684387">
  <ele>139.622314</ele>
  <time>2011-10-13T07:50:10Z</time>
  <speed>2.150000</speed>
</trkpt>
<trkpt lat="32.588703156" lon="35.018737793">
  <ele>139.493408</ele>
  <time>2011-10-13T07:50:12Z</time>
  <speed>2.340000</speed>
</trkpt>
<trkpt lat="32.588691711" lon="35.018791199">
  <ele>139.356689</ele>
  <time>2011-10-13T07:50:14Z</time>
  <speed>2.350000</speed>
</trkpt>
<trkpt lat="32.588668823" lon="35.018821716">
  <ele>139.509033</ele>
  <time>2011-10-13T07:50:16Z</time>
  <speed>1.940000</speed>
</trkpt>
<trkpt lat="32.588653564" lon="35.018863678">
  <ele>139.294189</ele>
  <time>2011-10-13T07:50:18Z</time>
  <speed>1.990000</speed>
</trkpt>
<trkpt lat="32.588634491" lon="35.018909454">
  <ele>138.790283</ele>
  <time>2011-10-13T07:50:20Z</time>
  <speed>1.870000</speed>
</trkpt>
<trkpt lat="32.588623047" lon="35.018951416">
  <ele>139.247314</ele>
  <time>2011-10-13T07:50:22Z</time>
  <speed>2.440000</speed>
</trkpt>
<trkpt lat="32.588600159" lon="35.019012451">
  <ele>139.622314</ele>
  <time>2011-10-13T07:50:24Z</time>
  <speed>2.510000</speed>
</trkpt>
<trkpt lat="32.588592529" lon="35.019042969">
  <ele>140.575439</ele>
  <time>2011-10-13T07:50:25Z</time>
  <speed>2.840000</speed>
</trkpt>
<trkpt lat="32.588573456" lon="35.019096375">
  <ele>141.313721</ele>
  <time>2011-10-13T07:50:27Z</time>
  <speed>2.660000</speed>
</trkpt>
<trkpt lat="32.588562012" lon="35.019161224">
  <ele>141.739502</ele>
  <time>2011-10-13T07:50:29Z</time>
  <speed>2.850000</speed>
</trkpt>
<trkpt lat="32.588539124" lon="35.019214630">
  <ele>141.817627</ele>
  <time>2011-10-13T07:50:31Z</time>
  <speed>2.340000</speed>
</trkpt>
<trkpt lat="32.588535309" lon="35.019268036">
  <ele>141.891846</ele>
  <time>2011-10-13T07:50:33Z</time>
  <speed>2.180000</speed>
</trkpt>
<trkpt lat="32.588523865" lon="35.019317627">
  <ele>140.876221</ele>
  <time>2011-10-13T07:50:35Z</time>
  <speed>2.190000</speed>
</trkpt>
<trkpt lat="32.588512421" lon="35.019367218">
  <ele>140.778564</ele>
  <time>2011-10-13T07:50:37Z</time>
  <speed>2.380000</speed>
</trkpt>
<trkpt lat="32.588493347" lon="35.019420624">
  <ele>140.446533</ele>
  <time>2011-10-13T07:50:39Z</time>
  <speed>2.500000</speed>
</trkpt>
<trkpt lat="32.588485718" lon="35.019451141">
  <ele>140.317627</ele>
  <time>2011-10-13T07:50:40Z</time>
  <speed>2.290000</speed>
</trkpt>
<trkpt lat="32.588459015" lon="35.019500732">
  <ele>139.305908</ele>
  <time>2011-10-13T07:50:42Z</time>
  <speed>2.780000</speed>
</trkpt>
<trkpt lat="32.588432312" lon="35.019550323">
  <ele>138.798096</ele>
  <time>2011-10-13T07:50:44Z</time>
  <speed>2.500000</speed>
</trkpt>
<trkpt lat="32.588397980" lon="35.019588470">
  <ele>138.602783</ele>
  <time>2011-10-13T07:50:46Z</time>
  <speed>2.510000</speed>
</trkpt>
<trkpt lat="32.588367462" lon="35.019634247">
  <ele>137.677002</ele>
  <time>2011-10-13T07:50:48Z</time>
  <speed>2.740000</speed>
</trkpt>
<trkpt lat="32.588344574" lon="35.019683838">
  <ele>137.259033</ele>
  <time>2011-10-13T07:50:50Z</time>
  <speed>2.380000</speed>
</trkpt>
<trkpt lat="32.588314056" lon="35.019721985">
  <ele>136.782471</ele>
  <time>2011-10-13T07:50:52Z</time>
  <speed>2.770000</speed>
</trkpt>
<trkpt lat="32.588287354" lon="35.019779205">
  <ele>136.067627</ele>
  <time>2011-10-13T07:50:54Z</time>
  <speed>2.710000</speed>
</trkpt>
<trkpt lat="32.588249207" lon="35.019817352">
  <ele>135.313721</ele>
  <time>2011-10-13T07:50:56Z</time>
  <speed>2.670000</speed>
</trkpt>
<trkpt lat="32.588211060" lon="35.019844055">
  <ele>134.641846</ele>
  <time>2011-10-13T07:50:58Z</time>
  <speed>2.700000</speed>
</trkpt>
<trkpt lat="32.588169098" lon="35.019886017">
  <ele>134.739502</ele>
  <time>2011-10-13T07:51:00Z</time>
  <speed>2.900000</speed>
</trkpt>
<trkpt lat="32.588146210" lon="35.019905090">
  <ele>134.645752</ele>
  <time>2011-10-13T07:51:01Z</time>
  <speed>2.980000</speed>
</trkpt>
<trkpt lat="32.588104248" lon="35.019924164">
  <ele>134.024658</ele>
  <time>2011-10-13T07:51:03Z</time>
  <speed>2.440000</speed>
</trkpt>
<trkpt lat="32.588062286" lon="35.019939423">
  <ele>133.321533</ele>
  <time>2011-10-13T07:51:05Z</time>
  <speed>2.620000</speed>
</trkpt>
<trkpt lat="32.588016510" lon="35.019943237">
  <ele>132.387939</ele>
  <time>2011-10-13T07:51:07Z</time>
  <speed>2.440000</speed>
</trkpt>
<trkpt lat="32.587966919" lon="35.019958496">
  <ele>131.977783</ele>
  <time>2011-10-13T07:51:09Z</time>
  <speed>2.630000</speed>
</trkpt>
<trkpt lat="32.587913513" lon="35.019950867">
  <ele>131.184814</ele>
  <time>2011-10-13T07:51:11Z</time>
  <speed>2.980000</speed>
</trkpt>
<trkpt lat="32.587882996" lon="35.019954681">
  <ele>130.989502</ele>
  <time>2011-10-13T07:51:12Z</time>
  <speed>3.020000</speed>
</trkpt>
<trkpt lat="32.587848663" lon="35.019977570">
  <ele>131.622314</ele>
  <time>2011-10-13T07:51:13Z</time>
  <speed>3.060000</speed>
</trkpt>
<trkpt lat="32.587795258" lon="35.019966125">
  <ele>130.958252</ele>
  <time>2011-10-13T07:51:15Z</time>
  <speed>2.840000</speed>
</trkpt>
<trkpt lat="32.587768555" lon="35.019962311">
  <ele>130.684814</ele>
  <time>2011-10-13T07:51:16Z</time>
  <speed>2.700000</speed>
</trkpt>
<trkpt lat="32.587741852" lon="35.019954681">
  <ele>130.524658</ele>
  <time>2011-10-13T07:51:17Z</time>
  <speed>2.680000</speed>
</trkpt>
<trkpt lat="32.587692261" lon="35.019939423">
  <ele>130.653564</ele>
  <time>2011-10-13T07:51:19Z</time>
  <speed>2.810000</speed>
</trkpt>
<trkpt lat="32.587650299" lon="35.019927979">
  <ele>130.802002</ele>
  <time>2011-10-13T07:51:20Z</time>
  <speed>2.890000</speed>
</trkpt>
<trkpt lat="32.587612152" lon="35.019920349">
  <ele>130.337158</ele>
  <time>2011-10-13T07:51:21Z</time>
  <speed>2.790000</speed>
</trkpt>
<trkpt lat="32.587585449" lon="35.019908905">
  <ele>130.719971</ele>
  <time>2011-10-13T07:51:22Z</time>
  <speed>2.970000</speed>
</trkpt>
<trkpt lat="32.587535858" lon="35.019878387">
  <ele>131.427002</ele>
  <time>2011-10-13T07:51:24Z</time>
  <speed>3.000000</speed>
</trkpt>
<trkpt lat="32.587509155" lon="35.019870758">
  <ele>131.403564</ele>
  <time>2011-10-13T07:51:25Z</time>
  <speed>2.770000</speed>
</trkpt>
<trkpt lat="32.587459564" lon="35.019859314">
  <ele>131.610596</ele>
  <time>2011-10-13T07:51:27Z</time>
  <speed>2.870000</speed>
</trkpt>
<trkpt lat="32.587432861" lon="35.019859314">
  <ele>132.645752</ele>
  <time>2011-10-13T07:51:28Z</time>
  <speed>2.790000</speed>
</trkpt>
<trkpt lat="32.587402344" lon="35.019847870">
  <ele>133.200439</ele>
  <time>2011-10-13T07:51:29Z</time>
  <speed>2.750000</speed>
</trkpt>
<trkpt lat="32.587375641" lon="35.019847870">
  <ele>133.419189</ele>
  <time>2011-10-13T07:51:30Z</time>
  <speed>2.770000</speed>
</trkpt>
<trkpt lat="32.587322235" lon="35.019821167">
  <ele>134.216064</ele>
  <time>2011-10-13T07:51:32Z</time>
  <speed>2.370000</speed>
</trkpt>
<trkpt lat="32.587272644" lon="35.019805908">
  <ele>134.192627</ele>
  <time>2011-10-13T07:51:34Z</time>
  <speed>2.970000</speed>
</trkpt>
<trkpt lat="32.587223053" lon="35.019794464">
  <ele>134.395752</ele>
  <time>2011-10-13T07:51:36Z</time>
  <speed>3.290000</speed>
</trkpt>
<trkpt lat="32.587173462" lon="35.019779205">
  <ele>134.708252</ele>
  <time>2011-10-13T07:51:38Z</time>
  <speed>3.070000</speed>
</trkpt>
<trkpt lat="32.587146759" lon="35.019767761">
  <ele>134.880127</ele>
  <time>2011-10-13T07:51:39Z</time>
  <speed>3.150000</speed>
</trkpt>
<trkpt lat="32.587100983" lon="35.019741058">
  <ele>135.020752</ele>
  <time>2011-10-13T07:51:41Z</time>
  <speed>3.020000</speed>
</trkpt>
<trkpt lat="32.587051392" lon="35.019725800">
  <ele>135.341064</ele>
  <time>2011-10-13T07:51:43Z</time>
  <speed>3.040000</speed>
</trkpt>
<trkpt lat="32.587017059" lon="35.019733429">
  <ele>135.247314</ele>
  <time>2011-10-13T07:51:44Z</time>
  <speed>2.820000</speed>
</trkpt>
<trkpt lat="32.586967468" lon="35.019721985">
  <ele>135.298096</ele>
  <time>2011-10-13T07:51:46Z</time>
  <speed>2.840000</speed>
</trkpt>
<trkpt lat="32.586940765" lon="35.019714355">
  <ele>135.559814</ele>
  <time>2011-10-13T07:51:47Z</time>
  <speed>2.960000</speed>
</trkpt>
<trkpt lat="32.586887360" lon="35.019702911">
  <ele>136.407471</ele>
  <time>2011-10-13T07:51:49Z</time>
  <speed>2.940000</speed>
</trkpt>
<trkpt lat="32.586833954" lon="35.019687653">
  <ele>136.969971</ele>
  <time>2011-10-13T07:51:51Z</time>
  <speed>2.830000</speed>
</trkpt>
<trkpt lat="32.586784363" lon="35.019680023">
  <ele>137.341064</ele>
  <time>2011-10-13T07:51:53Z</time>
  <speed>2.510000</speed>
</trkpt>
<trkpt lat="32.586742401" lon="35.019672394">
  <ele>137.911377</ele>
  <time>2011-10-13T07:51:55Z</time>
  <speed>2.320000</speed>
</trkpt>
<trkpt lat="32.586708069" lon="35.019660950">
  <ele>137.962158</ele>
  <time>2011-10-13T07:51:57Z</time>
  <speed>2.550000</speed>
</trkpt>
<trkpt lat="32.586654663" lon="35.019645691">
  <ele>138.520752</ele>
  <time>2011-10-13T07:51:59Z</time>
  <speed>2.380000</speed>
</trkpt>
<trkpt lat="32.586624146" lon="35.019649506">
  <ele>139.563721</ele>
  <time>2011-10-13T07:52:00Z</time>
  <speed>2.800000</speed>
</trkpt>
<trkpt lat="32.586570740" lon="35.019641876">
  <ele>140.141846</ele>
  <time>2011-10-13T07:52:02Z</time>
  <speed>2.860000</speed>
</trkpt>
<trkpt lat="32.586544037" lon="35.019634247">
  <ele>140.227783</ele>
  <time>2011-10-13T07:52:03Z</time>
  <speed>2.680000</speed>
</trkpt>
<trkpt lat="32.586513519" lon="35.019630432">
  <ele>140.165283</ele>
  <time>2011-10-13T07:52:04Z</time>
  <speed>3.120000</speed>
</trkpt>
<trkpt lat="32.586471558" lon="35.019630432">
  <ele>139.454346</ele>
  <time>2011-10-13T07:52:05Z</time>
  <speed>3.300000</speed>
</trkpt>
<trkpt lat="32.586437225" lon="35.019622803">
  <ele>140.059814</ele>
  <time>2011-10-13T07:52:06Z</time>
  <speed>3.120000</speed>
</trkpt>
<trkpt lat="32.586410522" lon="35.019611359">
  <ele>140.591064</ele>
  <time>2011-10-13T07:52:07Z</time>
  <speed>2.750000</speed>
</trkpt>
<trkpt lat="32.586380005" lon="35.019603729">
  <ele>141.130127</ele>
  <time>2011-10-13T07:52:08Z</time>
  <speed>2.640000</speed>
</trkpt>
<trkpt lat="32.586353302" lon="35.019596100">
  <ele>141.762939</ele>
  <time>2011-10-13T07:52:09Z</time>
  <speed>2.710000</speed>
</trkpt>
<trkpt lat="32.586311340" lon="35.019588470">
  <ele>142.485596</ele>
  <time>2011-10-13T07:52:11Z</time>
  <speed>2.660000</speed>
</trkpt>
<trkpt lat="32.586284637" lon="35.019577026">
  <ele>142.930908</ele>
  <time>2011-10-13T07:52:12Z</time>
  <speed>2.850000</speed>
</trkpt>
<trkpt lat="32.586235046" lon="35.019561768">
  <ele>143.466064</ele>
  <time>2011-10-13T07:52:14Z</time>
  <speed>2.700000</speed>
</trkpt>
<trkpt lat="32.586185455" lon="35.019546509">
  <ele>144.524658</ele>
  <time>2011-10-13T07:52:16Z</time>
  <speed>2.650000</speed>
</trkpt>
<trkpt lat="32.586143494" lon="35.019531250">
  <ele>145.094971</ele>
  <time>2011-10-13T07:52:18Z</time>
  <speed>2.620000</speed>
</trkpt>
<trkpt lat="32.586090088" lon="35.019519806">
  <ele>145.731689</ele>
  <time>2011-10-13T07:52:20Z</time>
  <speed>2.960000</speed>
</trkpt>
<trkpt lat="32.586059570" lon="35.019512177">
  <ele>146.059814</ele>
  <time>2011-10-13T07:52:21Z</time>
  <speed>3.220000</speed>
</trkpt>
<trkpt lat="32.586025238" lon="35.019508362">
  <ele>146.235596</ele>
  <time>2011-10-13T07:52:22Z</time>
  <speed>3.090000</speed>
</trkpt>
<trkpt lat="32.585998535" lon="35.019496918">
  <ele>146.614502</ele>
  <time>2011-10-13T07:52:23Z</time>
  <speed>2.960000</speed>
</trkpt>
<trkpt lat="32.585948944" lon="35.019481659">
  <ele>147.317627</ele>
  <time>2011-10-13T07:52:25Z</time>
  <speed>2.530000</speed>
</trkpt>
<trkpt lat="32.585926056" lon="35.019466400">
  <ele>147.524658</ele>
  <time>2011-10-13T07:52:26Z</time>
  <speed>2.740000</speed>
</trkpt>
<trkpt lat="32.585876465" lon="35.019458771">
  <ele>148.048096</ele>
  <time>2011-10-13T07:52:28Z</time>
  <speed>2.850000</speed>
</trkpt>
<trkpt lat="32.585849762" lon="35.019458771">
  <ele>148.130127</ele>
  <time>2011-10-13T07:52:29Z</time>
  <speed>3.230000</speed>
</trkpt>
<trkpt lat="32.585823059" lon="35.019451141">
  <ele>148.290283</ele>
  <time>2011-10-13T07:52:30Z</time>
  <speed>3.000000</speed>
</trkpt>
<trkpt lat="32.585792542" lon="35.019435883">
  <ele>148.032471</ele>
  <time>2011-10-13T07:52:31Z</time>
  <speed>3.260000</speed>
</trkpt>
<trkpt lat="32.585762024" lon="35.019432068">
  <ele>148.177002</ele>
  <time>2011-10-13T07:52:32Z</time>
  <speed>3.040000</speed>
</trkpt>
<trkpt lat="32.585735321" lon="35.019428253">
  <ele>148.438721</ele>
  <time>2011-10-13T07:52:33Z</time>
  <speed>3.130000</speed>
</trkpt>
<trkpt lat="32.585693359" lon="35.019424438">
  <ele>149.262939</ele>
  <time>2011-10-13T07:52:34Z</time>
  <speed>3.250000</speed>
</trkpt>
<trkpt lat="32.585651398" lon="35.019416809">
  <ele>149.079346</ele>
  <time>2011-10-13T07:52:35Z</time>
  <speed>3.300000</speed>
</trkpt>
<trkpt lat="32.585620880" lon="35.019409180">
  <ele>149.395752</ele>
  <time>2011-10-13T07:52:36Z</time>
  <speed>3.340000</speed>
</trkpt>
<trkpt lat="32.585582733" lon="35.019401550">
  <ele>149.841064</ele>
  <time>2011-10-13T07:52:37Z</time>
  <speed>3.630000</speed>
</trkpt>
<trkpt lat="32.585529327" lon="35.019412994">
  <ele>148.665283</ele>
  <time>2011-10-13T07:52:38Z</time>
  <speed>3.460000</speed>
</trkpt>
<trkpt lat="32.585502625" lon="35.019397736">
  <ele>148.509033</ele>
  <time>2011-10-13T07:52:39Z</time>
  <speed>3.660000</speed>
</trkpt>
<trkpt lat="32.585468292" lon="35.019382477">
  <ele>148.118408</ele>
  <time>2011-10-13T07:52:40Z</time>
  <speed>3.400000</speed>
</trkpt>
<trkpt lat="32.585441589" lon="35.019374847">
  <ele>147.950439</ele>
  <time>2011-10-13T07:52:41Z</time>
  <speed>3.480000</speed>
</trkpt>
<trkpt lat="32.585395813" lon="35.019374847">
  <ele>145.977783</ele>
  <time>2011-10-13T07:52:42Z</time>
  <speed>3.450000</speed>
</trkpt>
<trkpt lat="32.585372925" lon="35.019359589">
  <ele>146.177002</ele>
  <time>2011-10-13T07:52:43Z</time>
  <speed>2.660000</speed>
</trkpt>
<trkpt lat="32.585330963" lon="35.019344330">
  <ele>145.055908</ele>
  <time>2011-10-13T07:52:45Z</time>
  <speed>2.780000</speed>
</trkpt>
<trkpt lat="32.585273743" lon="35.019336700">
  <ele>142.919189</ele>
  <time>2011-10-13T07:52:47Z</time>
  <speed>3.100000</speed>
</trkpt>
<trkpt lat="32.585231781" lon="35.019309998">
  <ele>142.274658</ele>
  <time>2011-10-13T07:52:49Z</time>
  <speed>2.560000</speed>
</trkpt>
<trkpt lat="32.585193634" lon="35.019279480">
  <ele>141.630127</ele>
  <time>2011-10-13T07:52:51Z</time>
  <speed>2.410000</speed>
</trkpt>
<trkpt lat="32.585155487" lon="35.019245148">
  <ele>141.044189</ele>
  <time>2011-10-13T07:52:53Z</time>
  <speed>2.860000</speed>
</trkpt>
<trkpt lat="32.585113525" lon="35.019214630">
  <ele>140.809814</ele>
  <time>2011-10-13T07:52:55Z</time>
  <speed>2.650000</speed>
</trkpt>
<trkpt lat="32.585075378" lon="35.019172668">
  <ele>140.364502</ele>
  <time>2011-10-13T07:52:57Z</time>
  <speed>2.570000</speed>
</trkpt>
<trkpt lat="32.585044861" lon="35.019130707">
  <ele>140.540283</ele>
  <time>2011-10-13T07:52:59Z</time>
  <speed>2.710000</speed>
</trkpt>
<trkpt lat="32.584999084" lon="35.019088745">
  <ele>140.024658</ele>
  <time>2011-10-13T07:53:01Z</time>
  <speed>2.830000</speed>
</trkpt>
<trkpt lat="32.584976196" lon="35.019069672">
  <ele>139.856689</ele>
  <time>2011-10-13T07:53:02Z</time>
  <speed>3.340000</speed>
</trkpt>
<trkpt lat="32.584953308" lon="35.019046783">
  <ele>139.587158</ele>
  <time>2011-10-13T07:53:03Z</time>
  <speed>3.230000</speed>
</trkpt>
<trkpt lat="32.584930420" lon="35.019020081">
  <ele>139.645752</ele>
  <time>2011-10-13T07:53:04Z</time>
  <speed>3.830000</speed>
</trkpt>
<trkpt lat="32.584903717" lon="35.018997192">
  <ele>139.895752</ele>
  <time>2011-10-13T07:53:05Z</time>
  <speed>3.600000</speed>
</trkpt>
<trkpt lat="32.584877014" lon="35.018978119">
  <ele>140.028564</ele>
  <time>2011-10-13T07:53:06Z</time>
  <speed>3.310000</speed>
</trkpt>
<trkpt lat="32.584850311" lon="35.018959045">
  <ele>140.548096</ele>
  <time>2011-10-13T07:53:07Z</time>
  <speed>3.050000</speed>
</trkpt>
<trkpt lat="32.584812164" lon="35.018920898">
  <ele>140.887939</ele>
  <time>2011-10-13T07:53:09Z</time>
  <speed>2.610000</speed>
</trkpt>
<trkpt lat="32.584796906" lon="35.018898010">
  <ele>140.380127</ele>
  <time>2011-10-13T07:53:10Z</time>
  <speed>2.650000</speed>
</trkpt>
<trkpt lat="32.584766388" lon="35.018875122">
  <ele>141.173096</ele>
  <time>2011-10-13T07:53:11Z</time>
  <speed>2.890000</speed>
</trkpt>
<trkpt lat="32.584739685" lon="35.018859863">
  <ele>140.841064</ele>
  <time>2011-10-13T07:53:12Z</time>
  <speed>3.220000</speed>
</trkpt>
<trkpt lat="32.584712982" lon="35.018833160">
  <ele>141.161377</ele>
  <time>2011-10-13T07:53:13Z</time>
  <speed>2.970000</speed>
</trkpt>
<trkpt lat="32.584671021" lon="35.018791199">
  <ele>141.552002</ele>
  <time>2011-10-13T07:53:15Z</time>
  <speed>2.360000</speed>
</trkpt>
<trkpt lat="32.584636688" lon="35.018760681">
  <ele>140.880127</ele>
  <time>2011-10-13T07:53:17Z</time>
  <speed>2.150000</speed>
</trkpt>
<trkpt lat="32.584613800" lon="35.018745422">
  <ele>141.391846</ele>
  <time>2011-10-13T07:53:18Z</time>
  <speed>2.470000</speed>
</trkpt>
<trkpt lat="32.584571838" lon="35.018741608">
  <ele>141.641846</ele>
  <time>2011-10-13T07:53:20Z</time>
  <speed>1.570000</speed>
</trkpt>
<trkpt lat="32.584564209" lon="35.018772125">
  <ele>144.196533</ele>
  <time>2011-10-13T07:53:23Z</time>
  <speed>0.080000</speed>
</trkpt>
<trkpt lat="32.584587097" lon="35.018756866">
  <ele>146.981689</ele>
  <time>2011-10-13T07:53:24Z</time>
  <speed>0.420000</speed>
</trkpt>
<trkpt lat="32.584556580" lon="35.018737793">
  <ele>146.915283</ele>
  <time>2011-10-13T07:53:29Z</time>
  <speed>0.550000</speed>
</trkpt>
<trkpt lat="32.584537506" lon="35.018707275">
  <ele>146.673096</ele>
  <time>2011-10-13T07:53:34Z</time>
  <speed>0.670000</speed>
</trkpt>
<trkpt lat="32.584499359" lon="35.018699646">
  <ele>146.704346</ele>
  <time>2011-10-13T07:53:38Z</time>
  <speed>0.890000</speed>
</trkpt>
<trkpt lat="32.584484100" lon="35.018672943">
  <ele>147.911377</ele>
  <time>2011-10-13T07:53:42Z</time>
  <speed>0.580000</speed>
</trkpt>
<trkpt lat="32.584468842" lon="35.018638611">
  <ele>148.391846</ele>
  <time>2011-10-13T07:53:46Z</time>
  <speed>0.680000</speed>
</trkpt>
<trkpt lat="32.584442139" lon="35.018619537">
  <ele>148.497314</ele>
  <time>2011-10-13T07:53:50Z</time>
  <speed>0.620000</speed>
</trkpt>
<trkpt lat="32.584426880" lon="35.018589020">
  <ele>148.317627</ele>
  <time>2011-10-13T07:53:54Z</time>
  <speed>0.670000</speed>
</trkpt>
<trkpt lat="32.584400177" lon="35.018585205">
  <ele>147.985596</ele>
  <time>2011-10-13T07:53:56Z</time>
  <speed>0.410000</speed>
</trkpt>
<trkpt lat="32.584403992" lon="35.018547058">
  <ele>148.770752</ele>
  <time>2011-10-13T07:53:59Z</time>
  <speed>0.520000</speed>
</trkpt>
<trkpt lat="32.584403992" lon="35.018512726">
  <ele>149.673096</ele>
  <time>2011-10-13T07:54:03Z</time>
  <speed>0.490000</speed>
</trkpt>
<trkpt lat="32.584407806" lon="35.018474579">
  <ele>151.466064</ele>
  <time>2011-10-13T07:54:07Z</time>
  <speed>0.590000</speed>
</trkpt>
<trkpt lat="32.584400177" lon="35.018432617">
  <ele>153.134033</ele>
  <time>2011-10-13T07:54:09Z</time>
  <speed>0.730000</speed>
</trkpt>
<trkpt lat="32.584388733" lon="35.018394470">
  <ele>153.473877</ele>
  <time>2011-10-13T07:54:13Z</time>
  <speed>1.130000</speed>
</trkpt>
<trkpt lat="32.584392548" lon="35.018356323">
  <ele>154.266846</ele>
  <time>2011-10-13T07:54:17Z</time>
  <speed>0.800000</speed>
</trkpt>
<trkpt lat="32.584381104" lon="35.018325806">
  <ele>154.837158</ele>
  <time>2011-10-13T07:54:19Z</time>
  <speed>1.180000</speed>
</trkpt>
<trkpt lat="32.584377289" lon="35.018295288">
  <ele>155.876221</ele>
  <time>2011-10-13T07:54:22Z</time>
  <speed>0.630000</speed>
</trkpt>
<trkpt lat="32.584365845" lon="35.018264771">
  <ele>156.555908</ele>
  <time>2011-10-13T07:54:27Z</time>
  <speed>0.720000</speed>
</trkpt>
<trkpt lat="32.584369659" lon="35.018238068">
  <ele>158.438721</ele>
  <time>2011-10-13T07:54:29Z</time>
  <speed>0.590000</speed>
</trkpt>
<trkpt lat="32.584354401" lon="35.018207550">
  <ele>159.520752</ele>
  <time>2011-10-13T07:54:34Z</time>
  <speed>0.760000</speed>
</trkpt>
<trkpt lat="32.584342957" lon="35.018177032">
  <ele>160.161377</ele>
  <time>2011-10-13T07:54:39Z</time>
  <speed>0.700000</speed>
</trkpt>
<trkpt lat="32.584335327" lon="35.018138885">
  <ele>160.227783</ele>
  <time>2011-10-13T07:54:43Z</time>
  <speed>0.990000</speed>
</trkpt>
<trkpt lat="32.584323883" lon="35.018112183">
  <ele>160.520752</ele>
  <time>2011-10-13T07:54:48Z</time>
  <speed>0.670000</speed>
</trkpt>
<trkpt lat="32.584297180" lon="35.018096924">
  <ele>160.626221</ele>
  <time>2011-10-13T07:54:52Z</time>
  <speed>0.600000</speed>
</trkpt>
<trkpt lat="32.584274292" lon="35.018077850">
  <ele>160.927002</ele>
  <time>2011-10-13T07:54:57Z</time>
  <speed>0.640000</speed>
</trkpt>
<trkpt lat="32.584262848" lon="35.018051147">
  <ele>162.501221</ele>
  <time>2011-10-13T07:54:59Z</time>
  <speed>0.790000</speed>
</trkpt>
<trkpt lat="32.584247589" lon="35.018016815">
  <ele>162.766846</ele>
  <time>2011-10-13T07:55:04Z</time>
  <speed>0.920000</speed>
</trkpt>
<trkpt lat="32.584262848" lon="35.017978668">
  <ele>164.313721</ele>
  <time>2011-10-13T07:55:07Z</time>
  <speed>0.660000</speed>
</trkpt>
<trkpt lat="32.584266663" lon="35.017936707">
  <ele>166.173096</ele>
  <time>2011-10-13T07:55:10Z</time>
  <speed>0.920000</speed>
</trkpt>
<trkpt lat="32.584274292" lon="35.017898560">
  <ele>167.380127</ele>
  <time>2011-10-13T07:55:15Z</time>
  <speed>0.860000</speed>
</trkpt>
<trkpt lat="32.584278107" lon="35.017860413">
  <ele>167.512939</ele>
  <time>2011-10-13T07:55:19Z</time>
  <speed>0.970000</speed>
</trkpt>
<trkpt lat="32.584281921" lon="35.017822266">
  <ele>167.180908</ele>
  <time>2011-10-13T07:55:22Z</time>
  <speed>1.200000</speed>
</trkpt>
<trkpt lat="32.584300995" lon="35.017795563">
  <ele>167.708252</ele>
  <time>2011-10-13T07:55:27Z</time>
  <speed>0.500000</speed>
</trkpt>
<trkpt lat="32.584293365" lon="35.017761230">
  <ele>167.555908</ele>
  <time>2011-10-13T07:55:32Z</time>
  <speed>0.830000</speed>
</trkpt>
<trkpt lat="32.584285736" lon="35.017723083">
  <ele>167.704346</ele>
  <time>2011-10-13T07:55:36Z</time>
  <speed>0.870000</speed>
</trkpt>
<trkpt lat="32.584281921" lon="35.017681122">
  <ele>167.884033</ele>
  <time>2011-10-13T07:55:41Z</time>
  <speed>0.950000</speed>
</trkpt>
<trkpt lat="32.584274292" lon="35.017646790">
  <ele>169.243408</ele>
  <time>2011-10-13T07:55:43Z</time>
  <speed>0.580000</speed>
</trkpt>
<trkpt lat="32.584270477" lon="35.017620087">
  <ele>170.704346</ele>
  <time>2011-10-13T07:55:45Z</time>
  <speed>0.700000</speed>
</trkpt>
<trkpt lat="32.584262848" lon="35.017581940">
  <ele>171.450439</ele>
  <time>2011-10-13T07:55:48Z</time>
  <speed>0.780000</speed>
</trkpt>
<trkpt lat="32.584262848" lon="35.017547607">
  <ele>171.278564</ele>
  <time>2011-10-13T07:55:52Z</time>
  <speed>0.830000</speed>
</trkpt>
<trkpt lat="32.584266663" lon="35.017509460">
  <ele>171.227783</ele>
  <time>2011-10-13T07:55:56Z</time>
  <speed>0.510000</speed>
</trkpt>
<trkpt lat="32.584262848" lon="35.017478943">
  <ele>171.673096</ele>
  <time>2011-10-13T07:56:04Z</time>
  <speed>1.040000</speed>
</trkpt>
<trkpt lat="32.584262848" lon="35.017444611">
  <ele>171.626221</ele>
  <time>2011-10-13T07:56:06Z</time>
  <speed>1.670000</speed>
</trkpt>
<trkpt lat="32.584270477" lon="35.017402649">
  <ele>171.497314</ele>
  <time>2011-10-13T07:56:08Z</time>
  <speed>1.580000</speed>
</trkpt>
<trkpt lat="32.584274292" lon="35.017353058">
  <ele>170.739502</ele>
  <time>2011-10-13T07:56:10Z</time>
  <speed>2.000000</speed>
</trkpt>
<trkpt lat="32.584285736" lon="35.017299652">
  <ele>170.790283</ele>
  <time>2011-10-13T07:56:12Z</time>
  <speed>1.770000</speed>
</trkpt>
<trkpt lat="32.584289551" lon="35.017265320">
  <ele>170.610596</ele>
  <time>2011-10-13T07:56:14Z</time>
  <speed>1.700000</speed>
</trkpt>
<trkpt lat="32.584293365" lon="35.017223358">
  <ele>170.391846</ele>
  <time>2011-10-13T07:56:16Z</time>
  <speed>1.750000</speed>
</trkpt>
<trkpt lat="32.584293365" lon="35.017185211">
  <ele>170.384033</ele>
  <time>2011-10-13T07:56:18Z</time>
  <speed>1.810000</speed>
</trkpt>
<trkpt lat="32.584297180" lon="35.017127991">
  <ele>170.427002</ele>
  <time>2011-10-13T07:56:20Z</time>
  <speed>1.970000</speed>
</trkpt>
<trkpt lat="32.584300995" lon="35.017082214">
  <ele>169.782471</ele>
  <time>2011-10-13T07:56:22Z</time>
  <speed>1.690000</speed>
</trkpt>
<trkpt lat="32.584293365" lon="35.017051697">
  <ele>169.774658</ele>
  <time>2011-10-13T07:56:24Z</time>
  <speed>1.910000</speed>
</trkpt>
<trkpt lat="32.584293365" lon="35.017005920">
  <ele>169.552002</ele>
  <time>2011-10-13T07:56:26Z</time>
  <speed>2.170000</speed>
</trkpt>
<trkpt lat="32.584293365" lon="35.016967773">
  <ele>169.829346</ele>
  <time>2011-10-13T07:56:28Z</time>
  <speed>1.730000</speed>
</trkpt>
<trkpt lat="32.584293365" lon="35.016914368">
  <ele>171.466064</ele>
  <time>2011-10-13T07:56:30Z</time>
  <speed>1.760000</speed>
</trkpt>
<trkpt lat="32.584293365" lon="35.016876221">
  <ele>173.766846</ele>
  <time>2011-10-13T07:56:31Z</time>
  <speed>2.010000</speed>
</trkpt>
<trkpt lat="32.584297180" lon="35.016822815">
  <ele>174.134033</ele>
  <time>2011-10-13T07:56:33Z</time>
  <speed>2.330000</speed>
</trkpt>
<trkpt lat="32.584297180" lon="35.016773224">
  <ele>174.192627</ele>
  <time>2011-10-13T07:56:35Z</time>
  <speed>2.120000</speed>
</trkpt>
<trkpt lat="32.584304810" lon="35.016716003">
  <ele>176.278564</ele>
  <time>2011-10-13T07:56:37Z</time>
  <speed>2.200000</speed>
</trkpt>
<trkpt lat="32.584316254" lon="35.016662598">
  <ele>178.083252</ele>
  <time>2011-10-13T07:56:39Z</time>
  <speed>2.340000</speed>
</trkpt>
<trkpt lat="32.584320068" lon="35.016613007">
  <ele>178.802002</ele>
  <time>2011-10-13T07:56:41Z</time>
  <speed>2.650000</speed>
</trkpt>
<trkpt lat="32.584331512" lon="35.016563416">
  <ele>178.829346</ele>
  <time>2011-10-13T07:56:43Z</time>
  <speed>2.150000</speed>
</trkpt>
<trkpt lat="32.584342957" lon="35.016510010">
  <ele>180.348877</ele>
  <time>2011-10-13T07:56:45Z</time>
  <speed>2.030000</speed>
</trkpt>
<trkpt lat="32.584346771" lon="35.016456604">
  <ele>179.774658</ele>
  <time>2011-10-13T07:56:47Z</time>
  <speed>2.440000</speed>
</trkpt>
<trkpt lat="32.584354401" lon="35.016407013">
  <ele>179.887939</ele>
  <time>2011-10-13T07:56:49Z</time>
  <speed>2.480000</speed>
</trkpt>
<trkpt lat="32.584358215" lon="35.016349792">
  <ele>178.997314</ele>
  <time>2011-10-13T07:56:51Z</time>
  <speed>2.500000</speed>
</trkpt>
<trkpt lat="32.584369659" lon="35.016296387">
  <ele>179.005127</ele>
  <time>2011-10-13T07:56:53Z</time>
  <speed>2.590000</speed>
</trkpt>
<trkpt lat="32.584384918" lon="35.016239166">
  <ele>178.298096</ele>
  <time>2011-10-13T07:56:55Z</time>
  <speed>2.650000</speed>
</trkpt>
<trkpt lat="32.584381104" lon="35.016181946">
  <ele>176.942627</ele>
  <time>2011-10-13T07:56:57Z</time>
  <speed>2.260000</speed>
</trkpt>
<trkpt lat="32.584396362" lon="35.016136169">
  <ele>176.399658</ele>
  <time>2011-10-13T07:56:59Z</time>
  <speed>2.220000</speed>
</trkpt>
<trkpt lat="32.584403992" lon="35.016078949">
  <ele>175.489502</ele>
  <time>2011-10-13T07:57:01Z</time>
  <speed>2.710000</speed>
</trkpt>
<trkpt lat="32.584403992" lon="35.016017914">
  <ele>174.321533</ele>
  <time>2011-10-13T07:57:03Z</time>
  <speed>2.820000</speed>
</trkpt>
<trkpt lat="32.584407806" lon="35.015987396">
  <ele>174.235596</ele>
  <time>2011-10-13T07:57:04Z</time>
  <speed>2.770000</speed>
</trkpt>
<trkpt lat="32.584407806" lon="35.015953064">
  <ele>174.122314</ele>
  <time>2011-10-13T07:57:05Z</time>
  <speed>2.860000</speed>
</trkpt>
<trkpt lat="32.584411621" lon="35.015899658">
  <ele>173.946533</ele>
  <time>2011-10-13T07:57:07Z</time>
  <speed>2.440000</speed>
</trkpt>
<trkpt lat="32.584423065" lon="35.015853882">
  <ele>173.887939</ele>
  <time>2011-10-13T07:57:09Z</time>
  <speed>2.310000</speed>
</trkpt>
<trkpt lat="32.584426880" lon="35.015804291">
  <ele>173.356689</ele>
  <time>2011-10-13T07:57:11Z</time>
  <speed>2.650000</speed>
</trkpt>
<trkpt lat="32.584426880" lon="35.015758514">
  <ele>175.243408</ele>
  <time>2011-10-13T07:57:12Z</time>
  <speed>3.030000</speed>
</trkpt>
<trkpt lat="32.584430695" lon="35.015724182">
  <ele>174.966064</ele>
  <time>2011-10-13T07:57:13Z</time>
  <speed>3.170000</speed>
</trkpt>
<trkpt lat="32.584434509" lon="35.015693665">
  <ele>175.012939</ele>
  <time>2011-10-13T07:57:14Z</time>
  <speed>3.220000</speed>
</trkpt>
<trkpt lat="32.584445953" lon="35.015655518">
  <ele>176.094971</ele>
  <time>2011-10-13T07:57:15Z</time>
  <speed>3.150000</speed>
</trkpt>
<trkpt lat="32.584449768" lon="35.015621185">
  <ele>175.899658</ele>
  <time>2011-10-13T07:57:16Z</time>
  <speed>3.080000</speed>
</trkpt>
<trkpt lat="32.584449768" lon="35.015583038">
  <ele>176.880127</ele>
  <time>2011-10-13T07:57:17Z</time>
  <speed>2.790000</speed>
</trkpt>
<trkpt lat="32.584449768" lon="35.015548706">
  <ele>176.927002</ele>
  <time>2011-10-13T07:57:18Z</time>
  <speed>3.200000</speed>
</trkpt>
<trkpt lat="32.584453583" lon="35.015506744">
  <ele>177.688721</ele>
  <time>2011-10-13T07:57:19Z</time>
  <speed>3.000000</speed>
</trkpt>
<trkpt lat="32.584453583" lon="35.015468597">
  <ele>177.469971</ele>
  <time>2011-10-13T07:57:20Z</time>
  <speed>3.210000</speed>
</trkpt>
<trkpt lat="32.584457397" lon="35.015430450">
  <ele>178.091064</ele>
  <time>2011-10-13T07:57:21Z</time>
  <speed>2.830000</speed>
</trkpt>
<trkpt lat="32.584461212" lon="35.015396118">
  <ele>177.645752</ele>
  <time>2011-10-13T07:57:22Z</time>
  <speed>3.290000</speed>
</trkpt>
<trkpt lat="32.584465027" lon="35.015361786">
  <ele>177.149658</ele>
  <time>2011-10-13T07:57:23Z</time>
  <speed>3.350000</speed>
</trkpt>
<trkpt lat="32.584465027" lon="35.015327454">
  <ele>176.981689</ele>
  <time>2011-10-13T07:57:24Z</time>
  <speed>3.390000</speed>
</trkpt>
<trkpt lat="32.584461212" lon="35.015289307">
  <ele>176.411377</ele>
  <time>2011-10-13T07:57:25Z</time>
  <speed>3.230000</speed>
</trkpt>
<trkpt lat="32.584461212" lon="35.015254974">
  <ele>175.911377</ele>
  <time>2011-10-13T07:57:26Z</time>
  <speed>3.420000</speed>
</trkpt>
<trkpt lat="32.584465027" lon="35.015220642">
  <ele>175.548096</ele>
  <time>2011-10-13T07:57:27Z</time>
  <speed>2.980000</speed>
</trkpt>
<trkpt lat="32.584465027" lon="35.015186310">
  <ele>175.028564</ele>
  <time>2011-10-13T07:57:28Z</time>
  <speed>3.220000</speed>
</trkpt>
<trkpt lat="32.584468842" lon="35.015151978">
  <ele>174.579346</ele>
  <time>2011-10-13T07:57:29Z</time>
  <speed>3.050000</speed>
</trkpt>
<trkpt lat="32.584468842" lon="35.015117645">
  <ele>174.216064</ele>
  <time>2011-10-13T07:57:30Z</time>
  <speed>2.900000</speed>
</trkpt>
<trkpt lat="32.584472656" lon="35.015056610">
  <ele>173.083252</ele>
  <time>2011-10-13T07:57:32Z</time>
  <speed>2.800000</speed>
</trkpt>
<trkpt lat="32.584472656" lon="35.015022278">
  <ele>172.618408</ele>
  <time>2011-10-13T07:57:33Z</time>
  <speed>2.990000</speed>
</trkpt>
<trkpt lat="32.584472656" lon="35.014961243">
  <ele>171.094971</ele>
  <time>2011-10-13T07:57:35Z</time>
  <speed>3.230000</speed>
</trkpt>
<trkpt lat="32.584472656" lon="35.014892578">
  <ele>170.009033</ele>
  <time>2011-10-13T07:57:37Z</time>
  <speed>3.230000</speed>
</trkpt>
<trkpt lat="32.584472656" lon="35.014854431">
  <ele>169.192627</ele>
  <time>2011-10-13T07:57:38Z</time>
  <speed>3.340000</speed>
</trkpt>
<trkpt lat="32.584472656" lon="35.014797211">
  <ele>168.927002</ele>
  <time>2011-10-13T07:57:40Z</time>
  <speed>2.470000</speed>
</trkpt>
<trkpt lat="32.584472656" lon="35.014759064">
  <ele>168.212158</ele>
  <time>2011-10-13T07:57:42Z</time>
  <speed>1.820000</speed>
</trkpt>
<trkpt lat="32.584472656" lon="35.014713287">
  <ele>167.079346</ele>
  <time>2011-10-13T07:57:44Z</time>
  <speed>2.130000</speed>
</trkpt>
<trkpt lat="32.584465027" lon="35.014663696">
  <ele>166.559814</ele>
  <time>2011-10-13T07:57:46Z</time>
  <speed>2.670000</speed>
</trkpt>
<trkpt lat="32.584472656" lon="35.014602661">
  <ele>166.774658</ele>
  <time>2011-10-13T07:57:48Z</time>
  <speed>2.740000</speed>
</trkpt>
<trkpt lat="32.584476471" lon="35.014549255">
  <ele>166.634033</ele>
  <time>2011-10-13T07:57:50Z</time>
  <speed>2.460000</speed>
</trkpt>
<trkpt lat="32.584480286" lon="35.014503479">
  <ele>166.528564</ele>
  <time>2011-10-13T07:57:52Z</time>
  <speed>2.530000</speed>
</trkpt>
<trkpt lat="32.584472656" lon="35.014442444">
  <ele>165.923096</ele>
  <time>2011-10-13T07:57:54Z</time>
  <speed>2.810000</speed>
</trkpt>
<trkpt lat="32.584476471" lon="35.014400482">
  <ele>165.997314</ele>
  <time>2011-10-13T07:57:55Z</time>
  <speed>2.840000</speed>
</trkpt>
<trkpt lat="32.584484100" lon="35.014343262">
  <ele>168.380127</ele>
  <time>2011-10-13T07:57:56Z</time>
  <speed>3.140000</speed>
</trkpt>
<trkpt lat="32.584487915" lon="35.014297485">
  <ele>169.223877</ele>
  <time>2011-10-13T07:57:57Z</time>
  <speed>3.130000</speed>
</trkpt>
<trkpt lat="32.584491730" lon="35.014259338">
  <ele>169.364502</ele>
  <time>2011-10-13T07:57:58Z</time>
  <speed>3.210000</speed>
</trkpt>
<trkpt lat="32.584491730" lon="35.014217377">
  <ele>169.962158</ele>
  <time>2011-10-13T07:57:59Z</time>
  <speed>3.210000</speed>
</trkpt>
<trkpt lat="32.584476471" lon="35.014156342">
  <ele>169.020752</ele>
  <time>2011-10-13T07:58:01Z</time>
  <speed>3.110000</speed>
</trkpt>
<trkpt lat="32.584468842" lon="35.014125824">
  <ele>168.286377</ele>
  <time>2011-10-13T07:58:02Z</time>
  <speed>3.300000</speed>
</trkpt>
<trkpt lat="32.584461212" lon="35.014091492">
  <ele>168.200439</ele>
  <time>2011-10-13T07:58:03Z</time>
  <speed>3.190000</speed>
</trkpt>
<trkpt lat="32.584453583" lon="35.014026642">
  <ele>167.825439</ele>
  <time>2011-10-13T07:58:05Z</time>
  <speed>3.140000</speed>
</trkpt>
<trkpt lat="32.584449768" lon="35.013992310">
  <ele>167.145752</ele>
  <time>2011-10-13T07:58:06Z</time>
  <speed>3.160000</speed>
</trkpt>
<trkpt lat="32.584442139" lon="35.013954163">
  <ele>166.544189</ele>
  <time>2011-10-13T07:58:07Z</time>
  <speed>3.240000</speed>
</trkpt>
<trkpt lat="32.584434509" lon="35.013919830">
  <ele>165.864502</ele>
  <time>2011-10-13T07:58:08Z</time>
  <speed>3.280000</speed>
</trkpt>
<trkpt lat="32.584423065" lon="35.013885498">
  <ele>164.802002</ele>
  <time>2011-10-13T07:58:09Z</time>
  <speed>3.160000</speed>
</trkpt>
<trkpt lat="32.584411621" lon="35.013854980">
  <ele>164.481689</ele>
  <time>2011-10-13T07:58:10Z</time>
  <speed>3.220000</speed>
</trkpt>
<trkpt lat="32.584400177" lon="35.013820648">
  <ele>163.887939</ele>
  <time>2011-10-13T07:58:11Z</time>
  <speed>3.260000</speed>
</trkpt>
<trkpt lat="32.584396362" lon="35.013786316">
  <ele>163.887939</ele>
  <time>2011-10-13T07:58:12Z</time>
  <speed>3.250000</speed>
</trkpt>
<trkpt lat="32.584392548" lon="35.013751984">
  <ele>163.735596</ele>
  <time>2011-10-13T07:58:13Z</time>
  <speed>3.270000</speed>
</trkpt>
<trkpt lat="32.584373474" lon="35.013698578">
  <ele>162.391846</ele>
  <time>2011-10-13T07:58:15Z</time>
  <speed>2.280000</speed>
</trkpt>
<trkpt lat="32.584365845" lon="35.013652802">
  <ele>162.052002</ele>
  <time>2011-10-13T07:58:17Z</time>
  <speed>1.490000</speed>
</trkpt>
<trkpt lat="32.584369659" lon="35.013614655">
  <ele>162.813721</ele>
  <time>2011-10-13T07:58:19Z</time>
  <speed>1.420000</speed>
</trkpt>
<trkpt lat="32.584384918" lon="35.013576508">
  <ele>165.325439</ele>
  <time>2011-10-13T07:58:21Z</time>
  <speed>1.650000</speed>
</trkpt>
<trkpt lat="32.584392548" lon="35.013538361">
  <ele>165.415283</ele>
  <time>2011-10-13T07:58:24Z</time>
  <speed>1.190000</speed>
</trkpt>
<trkpt lat="32.584407806" lon="35.013511658">
  <ele>164.759033</ele>
  <time>2011-10-13T07:58:26Z</time>
  <speed>1.360000</speed>
</trkpt>
<trkpt lat="32.584430695" lon="35.013477325">
  <ele>164.919189</ele>
  <time>2011-10-13T07:58:28Z</time>
  <speed>2.250000</speed>
</trkpt>
<trkpt lat="32.584453583" lon="35.013416290">
  <ele>164.262939</ele>
  <time>2011-10-13T07:58:30Z</time>
  <speed>4.060000</speed>
</trkpt>
<trkpt lat="32.584465027" lon="35.013370514">
  <ele>163.805908</ele>
  <time>2011-10-13T07:58:31Z</time>
  <speed>4.730000</speed>
</trkpt>
<trkpt lat="32.584480286" lon="35.013317108">
  <ele>163.708252</ele>
  <time>2011-10-13T07:58:32Z</time>
  <speed>5.180000</speed>
</trkpt>
<trkpt lat="32.584499359" lon="35.013256073">
  <ele>163.559814</ele>
  <time>2011-10-13T07:58:33Z</time>
  <speed>5.570000</speed>
</trkpt>
<trkpt lat="32.584518433" lon="35.013191223">
  <ele>163.032471</ele>
  <time>2011-10-13T07:58:34Z</time>
  <speed>6.150000</speed>
</trkpt>
<trkpt lat="32.584545135" lon="35.013130188">
  <ele>162.735596</ele>
  <time>2011-10-13T07:58:35Z</time>
  <speed>5.560000</speed>
</trkpt>
<trkpt lat="32.584564209" lon="35.013076782">
  <ele>162.891846</ele>
  <time>2011-10-13T07:58:36Z</time>
  <speed>4.480000</speed>
</trkpt>
<trkpt lat="32.584579468" lon="35.013034821">
  <ele>164.333252</ele>
  <time>2011-10-13T07:58:37Z</time>
  <speed>2.540000</speed>
</trkpt>
<trkpt lat="32.584583282" lon="35.012989044">
  <ele>163.868408</ele>
  <time>2011-10-13T07:58:39Z</time>
  <speed>1.160000</speed>
</trkpt>
<trkpt lat="32.584564209" lon="35.012962341">
  <ele>163.985596</ele>
  <time>2011-10-13T07:58:42Z</time>
  <speed>0.410000</speed>
</trkpt>
<trkpt lat="32.584571838" lon="35.012931824">
  <ele>164.755127</ele>
  <time>2011-10-13T07:59:54Z</time>
</trkpt>
<trkpt lat="32.584552765" lon="35.012905121">
  <ele>164.903564</ele>
  <time>2011-10-13T08:00:49Z</time>
  <speed>0.290000</speed>
</trkpt>
<trkpt lat="32.584545135" lon="35.012874603">
  <ele>166.122314</ele>
  <time>2011-10-13T08:01:03Z</time>
  <speed>0.110000</speed>
</trkpt>
<trkpt lat="32.584533691" lon="35.012863159">
  <ele>168.450439</ele>
  <time>2011-10-13T08:01:16Z</time>
  <speed>0.140000</speed>
</trkpt>
<trkpt lat="32.584518433" lon="35.012851715">
  <ele>170.938721</ele>
  <time>2011-10-13T08:01:27Z</time>
  <speed>0.150000</speed>
</trkpt>
<trkpt lat="32.584518433" lon="35.012840271">
  <ele>173.860596</ele>
  <time>2011-10-13T08:01:41Z</time>
  <speed>0.100000</speed>
</trkpt>
<trkpt lat="32.584499359" lon="35.012851715">
  <ele>176.169189</ele>
  <time>2011-10-13T08:01:56Z</time>
  <speed>0.250000</speed>
</trkpt>
<trkpt lat="32.584476471" lon="35.012863159">
  <ele>177.501221</ele>
  <time>2011-10-13T08:02:07Z</time>
  <speed>0.210000</speed>
</trkpt>
<trkpt lat="32.584491730" lon="35.012866974">
  <ele>180.282471</ele>
  <time>2011-10-13T08:02:31Z</time>
  <speed>0.330000</speed>
</trkpt>
<trkpt lat="32.584514618" lon="35.012847900">
  <ele>181.192627</ele>
  <time>2011-10-13T08:02:39Z</time>
  <speed>0.450000</speed>
</trkpt>
<trkpt lat="32.584541321" lon="35.012832642">
  <ele>182.204346</ele>
  <time>2011-10-13T08:02:48Z</time>
  <speed>0.200000</speed>
</trkpt>
<trkpt lat="32.584568024" lon="35.012809753">
  <ele>183.708252</ele>
  <time>2011-10-13T08:03:02Z</time>
  <speed>0.340000</speed>
</trkpt>
<trkpt lat="32.584602356" lon="35.012802124">
  <ele>184.610596</ele>
  <time>2011-10-13T08:03:12Z</time>
  <speed>0.350000</speed>
</trkpt>
<trkpt lat="32.584613800" lon="35.012767792">
  <ele>184.962158</ele>
  <time>2011-10-13T08:03:15Z</time>
  <speed>0.390000</speed>
</trkpt>
<trkpt lat="32.584636688" lon="35.012748718">
  <ele>185.305908</ele>
  <time>2011-10-13T08:03:18Z</time>
  <speed>0.400000</speed>
</trkpt>
<trkpt lat="32.584659576" lon="35.012729645">
  <ele>185.997314</ele>
  <time>2011-10-13T08:03:26Z</time>
  <speed>0.280000</speed>
</trkpt>
<trkpt lat="32.584644318" lon="35.012756348">
  <ele>187.270752</ele>
  <time>2011-10-13T08:03:39Z</time>
  <speed>0.330000</speed>
</trkpt>
<trkpt lat="32.584613800" lon="35.012771606">
  <ele>187.184814</ele>
  <time>2011-10-13T08:03:42Z</time>
  <speed>0.260000</speed>
</trkpt>
<trkpt lat="32.584609985" lon="35.012794495">
  <ele>189.282471</ele>
  <time>2011-10-13T08:04:01Z</time>
  <speed>0.050000</speed>
</trkpt>
<trkpt lat="32.584617615" lon="35.012825012">
  <ele>189.317627</ele>
  <time>2011-10-13T08:04:30Z</time>
  <speed>0.080000</speed>
</trkpt>
<trkpt lat="32.584617615" lon="35.012825012">
  <ele>186.212158</ele>
  <time>2011-10-13T08:04:58Z</time>
  <speed>0.190000</speed>
</trkpt>
<trkpt lat="32.584617615" lon="35.012817383">
  <ele>183.180908</ele>
  <time>2011-10-13T08:05:17Z</time>
  <speed>0.770000</speed>
</trkpt>
<trkpt lat="32.584648132" lon="35.012805939">
  <ele>182.946533</ele>
  <time>2011-10-13T08:05:20Z</time>
  <speed>1.970000</speed>
</trkpt>
<trkpt lat="32.584678650" lon="35.012809753">
  <ele>182.684814</ele>
  <time>2011-10-13T08:05:22Z</time>
  <speed>1.380000</speed>
</trkpt>
<trkpt lat="32.584697723" lon="35.012847900">
  <ele>181.509033</ele>
  <time>2011-10-13T08:05:24Z</time>
  <speed>1.690000</speed>
</trkpt>
<trkpt lat="32.584724426" lon="35.012893677">
  <ele>180.528564</ele>
  <time>2011-10-13T08:05:26Z</time>
  <speed>2.050000</speed>
</trkpt>
<trkpt lat="32.584770203" lon="35.012931824">
  <ele>179.415283</ele>
  <time>2011-10-13T08:05:28Z</time>
  <speed>3.040000</speed>
</trkpt>
<trkpt lat="32.584804535" lon="35.012943268">
  <ele>179.274658</ele>
  <time>2011-10-13T08:05:29Z</time>
  <speed>4.030000</speed>
</trkpt>
<trkpt lat="32.584842682" lon="35.012947083">
  <ele>178.731689</ele>
  <time>2011-10-13T08:05:30Z</time>
  <speed>3.920000</speed>
</trkpt>
<trkpt lat="32.584880829" lon="35.012950897">
  <ele>178.872314</ele>
  <time>2011-10-13T08:05:31Z</time>
  <speed>3.880000</speed>
</trkpt>
<trkpt lat="32.584918976" lon="35.012958527">
  <ele>178.294189</ele>
  <time>2011-10-13T08:05:32Z</time>
  <speed>4.040000</speed>
</trkpt>
<trkpt lat="32.584960938" lon="35.012973785">
  <ele>178.548096</ele>
  <time>2011-10-13T08:05:33Z</time>
  <speed>4.740000</speed>
</trkpt>
<trkpt lat="32.585002899" lon="35.012992859">
  <ele>178.122314</ele>
  <time>2011-10-13T08:05:34Z</time>
  <speed>4.660000</speed>
</trkpt>
<trkpt lat="32.585041046" lon="35.013011932">
  <ele>177.946533</ele>
  <time>2011-10-13T08:05:35Z</time>
  <speed>4.370000</speed>
</trkpt>
<trkpt lat="32.585071564" lon="35.013038635">
  <ele>177.731689</ele>
  <time>2011-10-13T08:05:36Z</time>
  <speed>4.220000</speed>
</trkpt>
<trkpt lat="32.585102081" lon="35.013069153">
  <ele>177.473877</ele>
  <time>2011-10-13T08:05:37Z</time>
  <speed>4.130000</speed>
</trkpt>
<trkpt lat="32.585136414" lon="35.013095856">
  <ele>176.571533</ele>
  <time>2011-10-13T08:05:38Z</time>
  <speed>4.530000</speed>
</trkpt>
<trkpt lat="32.585189819" lon="35.013122559">
  <ele>175.313721</ele>
  <time>2011-10-13T08:05:39Z</time>
  <speed>5.420000</speed>
</trkpt>
<trkpt lat="32.585243225" lon="35.013134003">
  <ele>174.270752</ele>
  <time>2011-10-13T08:05:40Z</time>
  <speed>5.790000</speed>
</trkpt>
<trkpt lat="32.585296631" lon="35.013141632">
  <ele>173.442627</ele>
  <time>2011-10-13T08:05:41Z</time>
  <speed>6.330000</speed>
</trkpt>
<trkpt lat="32.585353851" lon="35.013149261">
  <ele>173.083252</ele>
  <time>2011-10-13T08:05:42Z</time>
  <speed>5.950000</speed>
</trkpt>
<trkpt lat="32.585407257" lon="35.013153076">
  <ele>172.696533</ele>
  <time>2011-10-13T08:05:43Z</time>
  <speed>6.090000</speed>
</trkpt>
<trkpt lat="32.585441589" lon="35.013137817">
  <ele>171.954346</ele>
  <time>2011-10-13T08:05:44Z</time>
  <speed>5.470000</speed>
</trkpt>
<trkpt lat="32.585498810" lon="35.013118744">
  <ele>172.286377</ele>
  <time>2011-10-13T08:05:45Z</time>
  <speed>5.850000</speed>
</trkpt>
<trkpt lat="32.585544586" lon="35.013095856">
  <ele>172.067627</ele>
  <time>2011-10-13T08:05:46Z</time>
  <speed>4.340000</speed>
</trkpt>
<trkpt lat="32.585590363" lon="35.013103485">
  <ele>171.204346</ele>
  <time>2011-10-13T08:05:47Z</time>
  <speed>4.630000</speed>
</trkpt>
<trkpt lat="32.585639954" lon="35.013114929">
  <ele>170.942627</ele>
  <time>2011-10-13T08:05:48Z</time>
  <speed>5.040000</speed>
</trkpt>
<trkpt lat="32.585693359" lon="35.013118744">
  <ele>170.891846</ele>
  <time>2011-10-13T08:05:49Z</time>
  <speed>5.630000</speed>
</trkpt>
<trkpt lat="32.585746765" lon="35.013130188">
  <ele>169.610596</ele>
  <time>2011-10-13T08:05:50Z</time>
  <speed>5.170000</speed>
</trkpt>
<trkpt lat="32.585792542" lon="35.013149261">
  <ele>169.302002</ele>
  <time>2011-10-13T08:05:51Z</time>
  <speed>5.720000</speed>
</trkpt>
<trkpt lat="32.585842133" lon="35.013175964">
  <ele>168.973877</ele>
  <time>2011-10-13T08:05:52Z</time>
  <speed>5.510000</speed>
</trkpt>
<trkpt lat="32.585903168" lon="35.013195038">
  <ele>167.989502</ele>
  <time>2011-10-13T08:05:53Z</time>
  <speed>5.190000</speed>
</trkpt>
<trkpt lat="32.585960388" lon="35.013210297">
  <ele>167.442627</ele>
  <time>2011-10-13T08:05:54Z</time>
  <speed>5.120000</speed>
</trkpt>
<trkpt lat="32.586006165" lon="35.013217926">
  <ele>167.001221</ele>
  <time>2011-10-13T08:05:55Z</time>
  <speed>4.600000</speed>
</trkpt>
<trkpt lat="32.586048126" lon="35.013214111">
  <ele>165.962158</ele>
  <time>2011-10-13T08:05:56Z</time>
  <speed>5.160000</speed>
</trkpt>
<trkpt lat="32.586093903" lon="35.013202667">
  <ele>165.805908</ele>
  <time>2011-10-13T08:05:57Z</time>
  <speed>4.800000</speed>
</trkpt>
<trkpt lat="32.586135864" lon="35.013187408">
  <ele>165.626221</ele>
  <time>2011-10-13T08:05:58Z</time>
  <speed>5.420000</speed>
</trkpt>
<trkpt lat="32.586196899" lon="35.013172150">
  <ele>165.372314</ele>
  <time>2011-10-13T08:05:59Z</time>
  <speed>5.660000</speed>
</trkpt>
<trkpt lat="32.586246490" lon="35.013164520">
  <ele>165.509033</ele>
  <time>2011-10-13T08:06:00Z</time>
  <speed>5.720000</speed>
</trkpt>
<trkpt lat="32.586307526" lon="35.013153076">
  <ele>165.372314</ele>
  <time>2011-10-13T08:06:01Z</time>
  <speed>5.900000</speed>
</trkpt>
<trkpt lat="32.586360931" lon="35.013153076">
  <ele>165.016846</ele>
  <time>2011-10-13T08:06:02Z</time>
  <speed>5.320000</speed>
</trkpt>
<trkpt lat="32.586425781" lon="35.013164520">
  <ele>164.727783</ele>
  <time>2011-10-13T08:06:03Z</time>
  <speed>6.330000</speed>
</trkpt>
<trkpt lat="32.586483002" lon="35.013179779">
  <ele>164.184814</ele>
  <time>2011-10-13T08:06:04Z</time>
  <speed>6.610000</speed>
</trkpt>
<trkpt lat="32.586544037" lon="35.013175964">
  <ele>164.032471</ele>
  <time>2011-10-13T08:06:05Z</time>
  <speed>7.220000</speed>
</trkpt>
<trkpt lat="32.586608887" lon="35.013172150">
  <ele>163.786377</ele>
  <time>2011-10-13T08:06:06Z</time>
  <speed>6.750000</speed>
</trkpt>
<trkpt lat="32.586662292" lon="35.013179779">
  <ele>163.895752</ele>
  <time>2011-10-13T08:06:07Z</time>
  <speed>5.670000</speed>
</trkpt>
<trkpt lat="32.586711884" lon="35.013191223">
  <ele>162.036377</ele>
  <time>2011-10-13T08:06:08Z</time>
  <speed>5.260000</speed>
</trkpt>
<trkpt lat="32.586757660" lon="35.013198853">
  <ele>161.368408</ele>
  <time>2011-10-13T08:06:09Z</time>
  <speed>5.210000</speed>
</trkpt>
<trkpt lat="32.586807251" lon="35.013206482">
  <ele>161.243408</ele>
  <time>2011-10-13T08:06:10Z</time>
  <speed>5.090000</speed>
</trkpt>
<trkpt lat="32.586853027" lon="35.013233185">
  <ele>159.927002</ele>
  <time>2011-10-13T08:06:11Z</time>
  <speed>4.830000</speed>
</trkpt>
<trkpt lat="32.586891174" lon="35.013248444">
  <ele>159.282471</ele>
  <time>2011-10-13T08:06:12Z</time>
  <speed>4.250000</speed>
</trkpt>
<trkpt lat="32.586929321" lon="35.013252258">
  <ele>158.380127</ele>
  <time>2011-10-13T08:06:13Z</time>
  <speed>4.710000</speed>
</trkpt>
<trkpt lat="32.586971283" lon="35.013256073">
  <ele>157.927002</ele>
  <time>2011-10-13T08:06:14Z</time>
  <speed>4.540000</speed>
</trkpt>
<trkpt lat="32.587020874" lon="35.013248444">
  <ele>157.446533</ele>
  <time>2011-10-13T08:06:15Z</time>
  <speed>5.630000</speed>
</trkpt>
<trkpt lat="32.587070465" lon="35.013244629">
  <ele>156.942627</ele>
  <time>2011-10-13T08:06:16Z</time>
  <speed>5.310000</speed>
</trkpt>
<trkpt lat="32.587116241" lon="35.013244629">
  <ele>155.536377</ele>
  <time>2011-10-13T08:06:17Z</time>
  <speed>4.860000</speed>
</trkpt>
<trkpt lat="32.587173462" lon="35.013248444">
  <ele>154.751221</ele>
  <time>2011-10-13T08:06:18Z</time>
  <speed>5.950000</speed>
</trkpt>
<trkpt lat="32.587230682" lon="35.013259888">
  <ele>154.048096</ele>
  <time>2011-10-13T08:06:19Z</time>
  <speed>5.520000</speed>
</trkpt>
<trkpt lat="32.587276459" lon="35.013259888">
  <ele>153.380127</ele>
  <time>2011-10-13T08:06:20Z</time>
  <speed>5.040000</speed>
</trkpt>
<trkpt lat="32.587318420" lon="35.013263702">
  <ele>152.329346</ele>
  <time>2011-10-13T08:06:21Z</time>
  <speed>4.890000</speed>
</trkpt>
<trkpt lat="32.587360382" lon="35.013252258">
  <ele>147.294189</ele>
  <time>2011-10-13T08:06:22Z</time>
  <speed>4.970000</speed>
</trkpt>
<trkpt lat="32.587398529" lon="35.013244629">
  <ele>145.114502</ele>
  <time>2011-10-13T08:06:23Z</time>
  <speed>4.380000</speed>
</trkpt>
<trkpt lat="32.587444305" lon="35.013256073">
  <ele>143.665283</ele>
  <time>2011-10-13T08:06:24Z</time>
  <speed>4.400000</speed>
</trkpt>
<trkpt lat="32.587486267" lon="35.013263702">
  <ele>142.239502</ele>
  <time>2011-10-13T08:06:25Z</time>
  <speed>4.030000</speed>
</trkpt>
<trkpt lat="32.587528229" lon="35.013275146">
  <ele>141.442627</ele>
  <time>2011-10-13T08:06:26Z</time>
  <speed>3.990000</speed>
</trkpt>
<trkpt lat="32.587570190" lon="35.013282776">
  <ele>139.813721</ele>
  <time>2011-10-13T08:06:27Z</time>
  <speed>3.580000</speed>
</trkpt>
<trkpt lat="32.587600708" lon="35.013290405">
  <ele>137.993408</ele>
  <time>2011-10-13T08:06:28Z</time>
  <speed>2.900000</speed>
</trkpt>
<trkpt lat="32.587627411" lon="35.013313293">
  <ele>136.427002</ele>
  <time>2011-10-13T08:06:29Z</time>
  <speed>3.400000</speed>
</trkpt>
<trkpt lat="32.587650299" lon="35.013347626">
  <ele>136.856689</ele>
  <time>2011-10-13T08:06:30Z</time>
  <speed>3.500000</speed>
</trkpt>
<trkpt lat="32.587707520" lon="35.013366699">
  <ele>136.747314</ele>
  <time>2011-10-13T08:06:31Z</time>
  <speed>4.590000</speed>
</trkpt>
<trkpt lat="32.587745667" lon="35.013362885">
  <ele>135.567627</ele>
  <time>2011-10-13T08:06:32Z</time>
  <speed>3.790000</speed>
</trkpt>
<trkpt lat="32.587795258" lon="35.013339996">
  <ele>133.817627</ele>
  <time>2011-10-13T08:06:33Z</time>
  <speed>5.090000</speed>
</trkpt>
<trkpt lat="32.587821960" lon="35.013301849">
  <ele>131.477783</ele>
  <time>2011-10-13T08:06:34Z</time>
  <speed>4.760000</speed>
</trkpt>
<trkpt lat="32.587844849" lon="35.013256073">
  <ele>130.602783</ele>
  <time>2011-10-13T08:06:35Z</time>
  <speed>4.390000</speed>
</trkpt>
<trkpt lat="32.587863922" lon="35.013214111">
  <ele>128.759033</ele>
  <time>2011-10-13T08:06:36Z</time>
  <speed>4.740000</speed>
</trkpt>
<trkpt lat="32.587882996" lon="35.013172150">
  <ele>127.561157</ele>
  <time>2011-10-13T08:06:37Z</time>
  <speed>4.550000</speed>
</trkpt>
<trkpt lat="32.587898254" lon="35.013126373">
  <ele>126.477173</ele>
  <time>2011-10-13T08:06:38Z</time>
  <speed>4.200000</speed>
</trkpt>
<trkpt lat="32.587928772" lon="35.013076782">
  <ele>126.512329</ele>
  <time>2011-10-13T08:06:39Z</time>
  <speed>4.760000</speed>
</trkpt>
<trkpt lat="32.587959290" lon="35.013023376">
  <ele>124.838501</ele>
  <time>2011-10-13T08:06:40Z</time>
  <speed>5.250000</speed>
</trkpt>
<trkpt lat="32.587989807" lon="35.012966156">
  <ele>123.924438</ele>
  <time>2011-10-13T08:06:41Z</time>
  <speed>5.580000</speed>
</trkpt>
<trkpt lat="32.588020325" lon="35.012924194">
  <ele>123.522095</ele>
  <time>2011-10-13T08:06:42Z</time>
  <speed>4.910000</speed>
</trkpt>
<trkpt lat="32.588054657" lon="35.012882233">
  <ele>122.713501</ele>
  <time>2011-10-13T08:06:43Z</time>
  <speed>4.650000</speed>
</trkpt>
<trkpt lat="32.588081360" lon="35.012847900">
  <ele>122.018188</ele>
  <time>2011-10-13T08:06:44Z</time>
  <speed>3.960000</speed>
</trkpt>
<trkpt lat="32.588119507" lon="35.012805939">
  <ele>121.063110</ele>
  <time>2011-10-13T08:06:45Z</time>
  <speed>4.640000</speed>
</trkpt>
<trkpt lat="32.588169098" lon="35.012756348">
  <ele>119.824829</ele>
  <time>2011-10-13T08:06:46Z</time>
  <speed>4.560000</speed>
</trkpt>
<trkpt lat="32.588191986" lon="35.012702942">
  <ele>119.475220</ele>
  <time>2011-10-13T08:06:47Z</time>
  <speed>5.300000</speed>
</trkpt>
<trkpt lat="32.588211060" lon="35.012649536">
  <ele>118.590454</ele>
  <time>2011-10-13T08:06:48Z</time>
  <speed>5.130000</speed>
</trkpt>
<trkpt lat="32.588226318" lon="35.012596130">
  <ele>117.834595</ele>
  <time>2011-10-13T08:06:49Z</time>
  <speed>5.100000</speed>
</trkpt>
<trkpt lat="32.588241577" lon="35.012535095">
  <ele>117.291626</ele>
  <time>2011-10-13T08:06:50Z</time>
  <speed>5.800000</speed>
</trkpt>
<trkpt lat="32.588241577" lon="35.012474060">
  <ele>116.606079</ele>
  <time>2011-10-13T08:06:51Z</time>
  <speed>5.720000</speed>
</trkpt>
<trkpt lat="32.588249207" lon="35.012401581">
  <ele>115.311157</ele>
  <time>2011-10-13T08:06:52Z</time>
  <speed>5.680000</speed>
</trkpt>
<trkpt lat="32.588249207" lon="35.012336731">
  <ele>114.752563</ele>
  <time>2011-10-13T08:06:53Z</time>
  <speed>5.380000</speed>
</trkpt>
<trkpt lat="32.588256836" lon="35.012287140">
  <ele>114.674438</ele>
  <time>2011-10-13T08:06:54Z</time>
  <speed>3.730000</speed>
</trkpt>
<trkpt lat="32.588279724" lon="35.012252808">
  <ele>113.990845</ele>
  <time>2011-10-13T08:06:55Z</time>
  <speed>3.580000</speed>
</trkpt>
<trkpt lat="32.588314056" lon="35.012279510">
  <ele>112.578735</ele>
  <time>2011-10-13T08:06:57Z</time>
  <speed>3.760000</speed>
</trkpt>
<trkpt lat="32.588329315" lon="35.012321472">
  <ele>111.205688</ele>
  <time>2011-10-13T08:06:58Z</time>
  <speed>3.780000</speed>
</trkpt>
<trkpt lat="32.588356018" lon="35.012340546">
  <ele>110.576782</ele>
  <time>2011-10-13T08:06:59Z</time>
  <speed>3.140000</speed>
</trkpt>
<trkpt lat="32.588382721" lon="35.012317657">
  <ele>108.401001</ele>
  <time>2011-10-13T08:07:00Z</time>
  <speed>3.920000</speed>
</trkpt>
<trkpt lat="32.588405609" lon="35.012279510">
  <ele>106.957642</ele>
  <time>2011-10-13T08:07:01Z</time>
  <speed>4.360000</speed>
</trkpt>
<trkpt lat="32.588420868" lon="35.012226105">
  <ele>106.662720</ele>
  <time>2011-10-13T08:07:02Z</time>
  <speed>4.580000</speed>
</trkpt>
<trkpt lat="32.588428497" lon="35.012168884">
  <ele>105.401001</ele>
  <time>2011-10-13T08:07:03Z</time>
  <speed>5.420000</speed>
</trkpt>
<trkpt lat="32.588428497" lon="35.012111664">
  <ele>104.416626</ele>
  <time>2011-10-13T08:07:04Z</time>
  <speed>5.570000</speed>
</trkpt>
<trkpt lat="32.588432312" lon="35.012058258">
  <ele>103.908813</ele>
  <time>2011-10-13T08:07:05Z</time>
  <speed>5.270000</speed>
</trkpt>
<trkpt lat="32.588447571" lon="35.012012482">
  <ele>103.129517</ele>
  <time>2011-10-13T08:07:06Z</time>
  <speed>4.430000</speed>
</trkpt>
<trkpt lat="32.588470459" lon="35.011966705">
  <ele>101.908813</ele>
  <time>2011-10-13T08:07:07Z</time>
  <speed>4.750000</speed>
</trkpt>
<trkpt lat="32.588504791" lon="35.011924744">
  <ele>100.865845</ele>
  <time>2011-10-13T08:07:08Z</time>
  <speed>4.570000</speed>
</trkpt>
<trkpt lat="32.588531494" lon="35.011871338">
  <ele>100.922485</ele>
  <time>2011-10-13T08:07:09Z</time>
  <speed>3.890000</speed>
</trkpt>
<trkpt lat="32.588565826" lon="35.011840820">
  <ele>99.832642</ele>
  <time>2011-10-13T08:07:10Z</time>
  <speed>3.590000</speed>
</trkpt>
<trkpt lat="32.588592529" lon="35.011806488">
  <ele>98.869751</ele>
  <time>2011-10-13T08:07:11Z</time>
  <speed>3.380000</speed>
</trkpt>
<trkpt lat="32.588615417" lon="35.011775970">
  <ele>98.049438</ele>
  <time>2011-10-13T08:07:12Z</time>
  <speed>4.440000</speed>
</trkpt>
<trkpt lat="32.588653564" lon="35.011718750">
  <ele>96.557251</ele>
  <time>2011-10-13T08:07:13Z</time>
  <speed>4.910000</speed>
</trkpt>
<trkpt lat="32.588680267" lon="35.011661530">
  <ele>95.776001</ele>
  <time>2011-10-13T08:07:14Z</time>
  <speed>4.520000</speed>
</trkpt>
<trkpt lat="32.588691711" lon="35.011619568">
  <ele>95.135376</ele>
  <time>2011-10-13T08:07:15Z</time>
  <speed>3.970000</speed>
</trkpt>
<trkpt lat="32.588699341" lon="35.011577606">
  <ele>94.266235</ele>
  <time>2011-10-13T08:07:16Z</time>
  <speed>4.260000</speed>
</trkpt>
<trkpt lat="32.588714600" lon="35.011524200">
  <ele>93.602173</ele>
  <time>2011-10-13T08:07:17Z</time>
  <speed>5.010000</speed>
</trkpt>
<trkpt lat="32.588737488" lon="35.011478424">
  <ele>92.803345</ele>
  <time>2011-10-13T08:07:18Z</time>
  <speed>5.170000</speed>
</trkpt>
<trkpt lat="32.588756561" lon="35.011405945">
  <ele>93.084595</ele>
  <time>2011-10-13T08:07:19Z</time>
  <speed>5.880000</speed>
</trkpt>
<trkpt lat="32.588783264" lon="35.011352539">
  <ele>92.215454</ele>
  <time>2011-10-13T08:07:20Z</time>
  <speed>5.430000</speed>
</trkpt>
<trkpt lat="32.588813782" lon="35.011310577">
  <ele>91.270142</ele>
  <time>2011-10-13T08:07:21Z</time>
  <speed>4.520000</speed>
</trkpt>
<trkpt lat="32.588855743" lon="35.011260986">
  <ele>89.779907</ele>
  <time>2011-10-13T08:07:22Z</time>
  <speed>5.340000</speed>
</trkpt>
<trkpt lat="32.588871002" lon="35.011211395">
  <ele>88.365845</ele>
  <time>2011-10-13T08:07:23Z</time>
  <speed>4.960000</speed>
</trkpt>
<trkpt lat="32.588867188" lon="35.011150360">
  <ele>87.434204</ele>
  <time>2011-10-13T08:07:24Z</time>
  <speed>5.600000</speed>
</trkpt>
<trkpt lat="32.588855743" lon="35.011085510">
  <ele>86.401001</ele>
  <time>2011-10-13T08:07:25Z</time>
  <speed>5.370000</speed>
</trkpt>
<trkpt lat="32.588840485" lon="35.011032104">
  <ele>85.600220</ele>
  <time>2011-10-13T08:07:26Z</time>
  <speed>5.390000</speed>
</trkpt>
<trkpt lat="32.588821411" lon="35.010978699">
  <ele>84.809204</ele>
  <time>2011-10-13T08:07:27Z</time>
  <speed>5.430000</speed>
</trkpt>
<trkpt lat="32.588798523" lon="35.010910034">
  <ele>83.859985</ele>
  <time>2011-10-13T08:07:28Z</time>
  <speed>5.610000</speed>
</trkpt>
<trkpt lat="32.588779449" lon="35.010845184">
  <ele>82.781860</ele>
  <time>2011-10-13T08:07:29Z</time>
  <speed>4.250000</speed>
</trkpt>
<trkpt lat="32.588790894" lon="35.010791779">
  <ele>81.451782</ele>
  <time>2011-10-13T08:07:30Z</time>
  <speed>4.780000</speed>
</trkpt>
<trkpt lat="32.588813782" lon="35.010746002">
  <ele>80.457642</ele>
  <time>2011-10-13T08:07:31Z</time>
  <speed>5.360000</speed>
</trkpt>
<trkpt lat="32.588840485" lon="35.010692596">
  <ele>79.758423</ele>
  <time>2011-10-13T08:07:32Z</time>
  <speed>5.530000</speed>
</trkpt>
<trkpt lat="32.588867188" lon="35.010639191">
  <ele>78.754517</ele>
  <time>2011-10-13T08:07:33Z</time>
  <speed>5.450000</speed>
</trkpt>
<trkpt lat="32.588916779" lon="35.010597229">
  <ele>79.438110</ele>
  <time>2011-10-13T08:07:34Z</time>
  <speed>5.430000</speed>
</trkpt>
<trkpt lat="32.588966370" lon="35.010555267">
  <ele>81.305298</ele>
  <time>2011-10-13T08:07:35Z</time>
  <speed>5.530000</speed>
</trkpt>
<trkpt lat="32.589023590" lon="35.010543823">
  <ele>82.250610</ele>
  <time>2011-10-13T08:07:36Z</time>
  <speed>6.020000</speed>
</trkpt>
<trkpt lat="32.589076996" lon="35.010532379">
  <ele>81.422485</ele>
  <time>2011-10-13T08:07:37Z</time>
  <speed>5.470000</speed>
</trkpt>
<trkpt lat="32.589115143" lon="35.010513306">
  <ele>81.381470</ele>
  <time>2011-10-13T08:07:38Z</time>
  <speed>3.820000</speed>
</trkpt>
<trkpt lat="32.589145660" lon="35.010475159">
  <ele>80.879517</ele>
  <time>2011-10-13T08:07:39Z</time>
  <speed>4.380000</speed>
</trkpt>
<trkpt lat="32.589176178" lon="35.010437012">
  <ele>80.621704</ele>
  <time>2011-10-13T08:07:40Z</time>
  <speed>4.550000</speed>
</trkpt>
<trkpt lat="32.589202881" lon="35.010417938">
  <ele>80.281860</ele>
  <time>2011-10-13T08:07:41Z</time>
  <speed>2.990000</speed>
</trkpt>
<trkpt lat="32.589233398" lon="35.010410309">
  <ele>79.889282</ele>
  <time>2011-10-13T08:07:42Z</time>
  <speed>3.430000</speed>
</trkpt>
<trkpt lat="32.589267731" lon="35.010421753">
  <ele>80.307251</ele>
  <time>2011-10-13T08:07:43Z</time>
  <speed>3.990000</speed>
</trkpt>
<trkpt lat="32.589317322" lon="35.010433197">
  <ele>80.215454</ele>
  <time>2011-10-13T08:07:44Z</time>
  <speed>4.370000</speed>
</trkpt>
<trkpt lat="32.589370728" lon="35.010433197">
  <ele>80.162720</ele>
  <time>2011-10-13T08:07:45Z</time>
  <speed>5.780000</speed>
</trkpt>
<trkpt lat="32.589420319" lon="35.010433197">
  <ele>80.059204</ele>
  <time>2011-10-13T08:07:46Z</time>
  <speed>5.180000</speed>
</trkpt>
<trkpt lat="32.589462280" lon="35.010429382">
  <ele>80.756470</ele>
  <time>2011-10-13T08:07:47Z</time>
  <speed>4.670000</speed>
</trkpt>
<trkpt lat="32.589500427" lon="35.010429382">
  <ele>82.311157</ele>
  <time>2011-10-13T08:07:48Z</time>
  <speed>4.410000</speed>
</trkpt>
<trkpt lat="32.589542389" lon="35.010433197">
  <ele>82.213501</ele>
  <time>2011-10-13T08:07:49Z</time>
  <speed>4.610000</speed>
</trkpt>
<trkpt lat="32.589584351" lon="35.010437012">
  <ele>82.137329</ele>
  <time>2011-10-13T08:07:50Z</time>
  <speed>4.520000</speed>
</trkpt>
<trkpt lat="32.589622498" lon="35.010444641">
  <ele>83.289673</ele>
  <time>2011-10-13T08:07:51Z</time>
  <speed>4.280000</speed>
</trkpt>
<trkpt lat="32.589679718" lon="35.010448456">
  <ele>84.192017</ele>
  <time>2011-10-13T08:07:52Z</time>
  <speed>4.580000</speed>
</trkpt>
<trkpt lat="32.589721680" lon="35.010429382">
  <ele>86.387329</ele>
  <time>2011-10-13T08:07:53Z</time>
  <speed>4.790000</speed>
</trkpt>
<trkpt lat="32.589756012" lon="35.010425568">
  <ele>86.752563</ele>
  <time>2011-10-13T08:07:54Z</time>
  <speed>4.590000</speed>
</trkpt>
<trkpt lat="32.589797974" lon="35.010417938">
  <ele>85.598267</ele>
  <time>2011-10-13T08:07:55Z</time>
  <speed>4.650000</speed>
</trkpt>
<trkpt lat="32.589824677" lon="35.010433197">
  <ele>85.440063</ele>
  <time>2011-10-13T08:07:56Z</time>
  <speed>3.840000</speed>
</trkpt>
<trkpt lat="32.589855194" lon="35.010459900">
  <ele>84.861938</ele>
  <time>2011-10-13T08:07:57Z</time>
  <speed>4.000000</speed>
</trkpt>
<trkpt lat="32.589874268" lon="35.010498047">
  <ele>84.451782</ele>
  <time>2011-10-13T08:07:58Z</time>
  <speed>4.210000</speed>
</trkpt>
<trkpt lat="32.589927673" lon="35.010543823">
  <ele>84.291626</ele>
  <time>2011-10-13T08:07:59Z</time>
  <speed>5.620000</speed>
</trkpt>
<trkpt lat="32.589969635" lon="35.010581970">
  <ele>84.018188</ele>
  <time>2011-10-13T08:08:00Z</time>
  <speed>4.940000</speed>
</trkpt>
<trkpt lat="32.590011597" lon="35.010608673">
  <ele>83.777954</ele>
  <time>2011-10-13T08:08:01Z</time>
  <speed>4.520000</speed>
</trkpt>
<trkpt lat="32.590053558" lon="35.010631561">
  <ele>83.035767</ele>
  <time>2011-10-13T08:08:02Z</time>
  <speed>3.330000</speed>
</trkpt>
<trkpt lat="32.590042114" lon="35.010681152">
  <ele>82.291626</ele>
  <time>2011-10-13T08:08:04Z</time>
  <speed>3.080000</speed>
</trkpt>
<trkpt lat="32.590011597" lon="35.010696411">
  <ele>82.346313</ele>
  <time>2011-10-13T08:08:05Z</time>
  <speed>3.550000</speed>
</trkpt>
<trkpt lat="32.589984894" lon="35.010730743">
  <ele>82.190063</ele>
  <time>2011-10-13T08:08:06Z</time>
  <speed>4.490000</speed>
</trkpt>
<trkpt lat="32.589942932" lon="35.010784149">
  <ele>81.535767</ele>
  <time>2011-10-13T08:08:07Z</time>
  <speed>5.420000</speed>
</trkpt>
<trkpt lat="32.589912415" lon="35.010841370">
  <ele>81.223267</ele>
  <time>2011-10-13T08:08:08Z</time>
  <speed>6.960000</speed>
</trkpt>
<trkpt lat="32.589874268" lon="35.010906219">
  <ele>80.813110</ele>
  <time>2011-10-13T08:08:09Z</time>
  <speed>7.240000</speed>
</trkpt>
<trkpt lat="32.589847565" lon="35.010978699">
  <ele>80.834595</ele>
  <time>2011-10-13T08:08:10Z</time>
  <speed>4.030000</speed>
</trkpt>
<trkpt lat="32.589859009" lon="35.011016846">
  <ele>80.830688</ele>
  <time>2011-10-13T08:08:11Z</time>
  <speed>2.200000</speed>
</trkpt>
<trkpt lat="32.589893341" lon="35.011047363">
  <ele>81.197876</ele>
  <time>2011-10-13T08:08:13Z</time>
  <speed>1.780000</speed>
</trkpt>
<trkpt lat="32.589935303" lon="35.011051178">
  <ele>81.395142</ele>
  <time>2011-10-13T08:08:15Z</time>
  <speed>1.990000</speed>
</trkpt>
<trkpt lat="32.589965820" lon="35.011054993">
  <ele>81.401001</ele>
  <time>2011-10-13T08:08:16Z</time>
  <speed>2.190000</speed>
</trkpt>
<trkpt lat="32.590023041" lon="35.011070251">
  <ele>81.609985</ele>
  <time>2011-10-13T08:08:18Z</time>
  <speed>2.230000</speed>
</trkpt>
<trkpt lat="32.590053558" lon="35.011074066">
  <ele>81.678345</ele>
  <time>2011-10-13T08:08:19Z</time>
  <speed>2.550000</speed>
</trkpt>
<trkpt lat="32.590103149" lon="35.011077881">
  <ele>82.443970</ele>
  <time>2011-10-13T08:08:21Z</time>
  <speed>1.740000</speed>
</trkpt>
<trkpt lat="32.590141296" lon="35.011077881">
  <ele>82.014282</ele>
  <time>2011-10-13T08:08:23Z</time>
  <speed>1.450000</speed>
</trkpt>
<trkpt lat="32.590183258" lon="35.011074066">
  <ele>83.658813</ele>
  <time>2011-10-13T08:08:25Z</time>
  <speed>1.510000</speed>
</trkpt>
<trkpt lat="32.590221405" lon="35.011070251">
  <ele>84.692017</ele>
  <time>2011-10-13T08:08:27Z</time>
  <speed>1.990000</speed>
</trkpt>
<trkpt lat="32.590251923" lon="35.011070251">
  <ele>85.311157</ele>
  <time>2011-10-13T08:08:28Z</time>
  <speed>2.080000</speed>
</trkpt>
<trkpt lat="32.590278625" lon="35.011062622">
  <ele>85.250610</ele>
  <time>2011-10-13T08:08:29Z</time>
  <speed>2.280000</speed>
</trkpt>
<trkpt lat="32.590305328" lon="35.011058807">
  <ele>85.576782</ele>
  <time>2011-10-13T08:08:30Z</time>
  <speed>2.930000</speed>
</trkpt>
<trkpt lat="32.590332031" lon="35.011051178">
  <ele>85.389282</ele>
  <time>2011-10-13T08:08:31Z</time>
  <speed>3.430000</speed>
</trkpt>
<trkpt lat="32.590358734" lon="35.011047363">
  <ele>85.248657</ele>
  <time>2011-10-13T08:08:32Z</time>
  <speed>3.400000</speed>
</trkpt>
<trkpt lat="32.590389252" lon="35.011043549">
  <ele>85.654907</ele>
  <time>2011-10-13T08:08:33Z</time>
  <speed>3.880000</speed>
</trkpt>
<trkpt lat="32.590427399" lon="35.011043549">
  <ele>85.234985</ele>
  <time>2011-10-13T08:08:34Z</time>
  <speed>4.090000</speed>
</trkpt>
<trkpt lat="32.590473175" lon="35.011035919">
  <ele>84.590454</ele>
  <time>2011-10-13T08:08:35Z</time>
  <speed>4.610000</speed>
</trkpt>
<trkpt lat="32.590515137" lon="35.011024475">
  <ele>84.277954</ele>
  <time>2011-10-13T08:08:36Z</time>
  <speed>4.480000</speed>
</trkpt>
<trkpt lat="32.590560913" lon="35.011024475">
  <ele>84.494751</ele>
  <time>2011-10-13T08:08:37Z</time>
  <speed>5.020000</speed>
</trkpt>
<trkpt lat="32.590602875" lon="35.011028290">
  <ele>84.797485</ele>
  <time>2011-10-13T08:08:38Z</time>
  <speed>5.170000</speed>
</trkpt>
<trkpt lat="32.590660095" lon="35.011028290">
  <ele>84.401001</ele>
  <time>2011-10-13T08:08:39Z</time>
  <speed>5.750000</speed>
</trkpt>
<trkpt lat="32.590717316" lon="35.011032104">
  <ele>83.227173</ele>
  <time>2011-10-13T08:08:40Z</time>
  <speed>6.350000</speed>
</trkpt>
<trkpt lat="32.590778351" lon="35.011051178">
  <ele>80.180298</ele>
  <time>2011-10-13T08:08:41Z</time>
  <speed>6.050000</speed>
</trkpt>
<trkpt lat="32.590850830" lon="35.011058807">
  <ele>79.067017</ele>
  <time>2011-10-13T08:08:42Z</time>
  <speed>6.320000</speed>
</trkpt>
<trkpt lat="32.590908051" lon="35.011062622">
  <ele>78.943970</ele>
  <time>2011-10-13T08:08:43Z</time>
  <speed>6.250000</speed>
</trkpt>
<trkpt lat="32.590969086" lon="35.011062622">
  <ele>77.981079</ele>
  <time>2011-10-13T08:08:44Z</time>
  <speed>6.610000</speed>
</trkpt>
<trkpt lat="32.591033936" lon="35.011058807">
  <ele>76.875610</ele>
  <time>2011-10-13T08:08:45Z</time>
  <speed>6.940000</speed>
</trkpt>
<trkpt lat="32.591094971" lon="35.011051178">
  <ele>76.924438</ele>
  <time>2011-10-13T08:08:46Z</time>
  <speed>6.600000</speed>
</trkpt>
<trkpt lat="32.591167450" lon="35.011043549">
  <ele>76.567017</ele>
  <time>2011-10-13T08:08:47Z</time>
  <speed>7.380000</speed>
</trkpt>
<trkpt lat="32.591236115" lon="35.011028290">
  <ele>75.940063</ele>
  <time>2011-10-13T08:08:48Z</time>
  <speed>7.770000</speed>
</trkpt>
<trkpt lat="32.591327667" lon="35.011020660">
  <ele>76.547485</ele>
  <time>2011-10-13T08:08:49Z</time>
  <speed>7.790000</speed>
</trkpt>
<trkpt lat="32.591396332" lon="35.011009216">
  <ele>75.957642</ele>
  <time>2011-10-13T08:08:50Z</time>
  <speed>7.470000</speed>
</trkpt>
<trkpt lat="32.591453552" lon="35.010993958">
  <ele>74.627563</ele>
  <time>2011-10-13T08:08:51Z</time>
  <speed>7.390000</speed>
</trkpt>
<trkpt lat="32.591526031" lon="35.010978699">
  <ele>74.137329</ele>
  <time>2011-10-13T08:08:52Z</time>
  <speed>7.790000</speed>
</trkpt>
<trkpt lat="32.591598511" lon="35.010971069">
  <ele>73.348267</ele>
  <time>2011-10-13T08:08:53Z</time>
  <speed>7.860000</speed>
</trkpt>
<trkpt lat="32.591667175" lon="35.010959625">
  <ele>72.236938</ele>
  <time>2011-10-13T08:08:54Z</time>
  <speed>7.860000</speed>
</trkpt>
<trkpt lat="32.591735840" lon="35.010940552">
  <ele>71.172485</ele>
  <time>2011-10-13T08:08:55Z</time>
  <speed>7.510000</speed>
</trkpt>
<trkpt lat="32.591796875" lon="35.010913849">
  <ele>69.438110</ele>
  <time>2011-10-13T08:08:56Z</time>
  <speed>7.040000</speed>
</trkpt>
<trkpt lat="32.591857910" lon="35.010887146">
  <ele>67.967407</ele>
  <time>2011-10-13T08:08:57Z</time>
  <speed>6.980000</speed>
</trkpt>
<trkpt lat="32.591930389" lon="35.010837555">
  <ele>66.295532</ele>
  <time>2011-10-13T08:08:58Z</time>
  <speed>8.230000</speed>
</trkpt>
<trkpt lat="32.591995239" lon="35.010791779">
  <ele>64.895142</ele>
  <time>2011-10-13T08:08:59Z</time>
  <speed>8.130000</speed>
</trkpt>
<trkpt lat="32.592056274" lon="35.010757446">
  <ele>63.991516</ele>
  <time>2011-10-13T08:09:00Z</time>
  <speed>8.350000</speed>
</trkpt>
<trkpt lat="32.592128754" lon="35.010715485">
  <ele>63.250305</ele>
  <time>2011-10-13T08:09:01Z</time>
  <speed>8.000000</speed>
</trkpt>
<trkpt lat="32.592193604" lon="35.010684967">
  <ele>60.144836</ele>
  <time>2011-10-13T08:09:02Z</time>
  <speed>7.130000</speed>
</trkpt>
<trkpt lat="32.592258453" lon="35.010650635">
  <ele>59.201477</ele>
  <time>2011-10-13T08:09:03Z</time>
  <speed>7.040000</speed>
</trkpt>
<trkpt lat="32.592296600" lon="35.010612488">
  <ele>57.588196</ele>
  <time>2011-10-13T08:09:04Z</time>
  <speed>7.270000</speed>
</trkpt>
<trkpt lat="32.592350006" lon="35.010570526">
  <ele>56.662415</ele>
  <time>2011-10-13T08:09:05Z</time>
  <speed>7.180000</speed>
</trkpt>
<trkpt lat="32.592384338" lon="35.010524750">
  <ele>55.562805</ele>
  <time>2011-10-13T08:09:06Z</time>
  <speed>6.480000</speed>
</trkpt>
<trkpt lat="32.592422485" lon="35.010463715">
  <ele>54.504211</ele>
  <time>2011-10-13T08:09:07Z</time>
  <speed>6.630000</speed>
</trkpt>
<trkpt lat="32.592460632" lon="35.010398865">
  <ele>52.919250</ele>
  <time>2011-10-13T08:09:08Z</time>
  <speed>6.300000</speed>
</trkpt>
<trkpt lat="32.592491150" lon="35.010334015">
  <ele>52.008118</ele>
  <time>2011-10-13T08:09:09Z</time>
  <speed>6.470000</speed>
</trkpt>
<trkpt lat="32.592544556" lon="35.010238647">
  <ele>50.694641</ele>
  <time>2011-10-13T08:09:10Z</time>
  <speed>6.770000</speed>
</trkpt>
<trkpt lat="32.592586517" lon="35.010154724">
  <ele>49.494446</ele>
  <time>2011-10-13T08:09:11Z</time>
  <speed>7.240000</speed>
</trkpt>
<trkpt lat="32.592613220" lon="35.010082245">
  <ele>48.718079</ele>
  <time>2011-10-13T08:09:12Z</time>
  <speed>6.760000</speed>
</trkpt>
<trkpt lat="32.592636108" lon="35.010017395">
  <ele>47.933899</ele>
  <time>2011-10-13T08:09:13Z</time>
  <speed>6.590000</speed>
</trkpt>
<trkpt lat="32.592655182" lon="35.009948730">
  <ele>46.974915</ele>
  <time>2011-10-13T08:09:14Z</time>
  <speed>6.400000</speed>
</trkpt>
<trkpt lat="32.592674255" lon="35.009880066">
  <ele>46.047180</ele>
  <time>2011-10-13T08:09:15Z</time>
  <speed>6.370000</speed>
</trkpt>
<trkpt lat="32.592689514" lon="35.009803772">
  <ele>45.219055</ele>
  <time>2011-10-13T08:09:16Z</time>
  <speed>7.030000</speed>
</trkpt>
<trkpt lat="32.592693329" lon="35.009731293">
  <ele>44.285461</ele>
  <time>2011-10-13T08:09:17Z</time>
  <speed>6.240000</speed>
</trkpt>
<trkpt lat="32.592708588" lon="35.009654999">
  <ele>43.427063</ele>
  <time>2011-10-13T08:09:18Z</time>
  <speed>6.620000</speed>
</trkpt>
<trkpt lat="32.592723846" lon="35.009586334">
  <ele>42.374329</ele>
  <time>2011-10-13T08:09:19Z</time>
  <speed>6.320000</speed>
</trkpt>
<trkpt lat="32.592731476" lon="35.009510040">
  <ele>41.378235</ele>
  <time>2011-10-13T08:09:20Z</time>
  <speed>6.050000</speed>
</trkpt>
<trkpt lat="32.592739105" lon="35.009441376">
  <ele>40.339172</ele>
  <time>2011-10-13T08:09:21Z</time>
  <speed>6.630000</speed>
</trkpt>
<trkpt lat="32.592742920" lon="35.009368896">
  <ele>39.895813</ele>
  <time>2011-10-13T08:09:22Z</time>
  <speed>6.300000</speed>
</trkpt>
<trkpt lat="32.592754364" lon="35.009296417">
  <ele>39.421204</ele>
  <time>2011-10-13T08:09:23Z</time>
  <speed>6.150000</speed>
</trkpt>
<trkpt lat="32.592754364" lon="35.009220123">
  <ele>38.890930</ele>
  <time>2011-10-13T08:09:24Z</time>
  <speed>6.390000</speed>
</trkpt>
<trkpt lat="32.592742920" lon="35.009120941">
  <ele>40.462219</ele>
  <time>2011-10-13T08:09:25Z</time>
  <speed>6.760000</speed>
</trkpt>
<trkpt lat="32.592739105" lon="35.009044647">
  <ele>40.149719</ele>
  <time>2011-10-13T08:09:26Z</time>
  <speed>6.770000</speed>
</trkpt>
<trkpt lat="32.592735291" lon="35.008968353">
  <ele>39.302063</ele>
  <time>2011-10-13T08:09:27Z</time>
  <speed>6.710000</speed>
</trkpt>
<trkpt lat="32.592727661" lon="35.008892059">
  <ele>39.402649</ele>
  <time>2011-10-13T08:09:28Z</time>
  <speed>6.800000</speed>
</trkpt>
<trkpt lat="32.592716217" lon="35.008819580">
  <ele>38.808899</ele>
  <time>2011-10-13T08:09:29Z</time>
  <speed>6.330000</speed>
</trkpt>
<trkpt lat="32.592704773" lon="35.008754730">
  <ele>38.640930</ele>
  <time>2011-10-13T08:09:30Z</time>
  <speed>6.320000</speed>
</trkpt>
<trkpt lat="32.592693329" lon="35.008693695">
  <ele>37.665344</ele>
  <time>2011-10-13T08:09:31Z</time>
  <speed>6.170000</speed>
</trkpt>
<trkpt lat="32.592678070" lon="35.008632660">
  <ele>37.531555</ele>
  <time>2011-10-13T08:09:32Z</time>
  <speed>6.130000</speed>
</trkpt>
<trkpt lat="32.592662811" lon="35.008567810">
  <ele>37.012024</ele>
  <time>2011-10-13T08:09:33Z</time>
  <speed>5.820000</speed>
</trkpt>
<trkpt lat="32.592639923" lon="35.008510590">
  <ele>36.801086</ele>
  <time>2011-10-13T08:09:34Z</time>
  <speed>5.710000</speed>
</trkpt>
<trkpt lat="32.592617035" lon="35.008445740">
  <ele>36.723938</ele>
  <time>2011-10-13T08:09:35Z</time>
  <speed>5.990000</speed>
</trkpt>
<trkpt lat="32.592594147" lon="35.008384705">
  <ele>36.203430</ele>
  <time>2011-10-13T08:09:36Z</time>
  <speed>5.760000</speed>
</trkpt>
<trkpt lat="32.592567444" lon="35.008323669">
  <ele>36.388000</ele>
  <time>2011-10-13T08:09:37Z</time>
  <speed>5.470000</speed>
</trkpt>
<trkpt lat="32.592540741" lon="35.008262634">
  <ele>36.429016</ele>
  <time>2011-10-13T08:09:38Z</time>
  <speed>5.290000</speed>
</trkpt>
<trkpt lat="32.592514038" lon="35.008197784">
  <ele>37.250305</ele>
  <time>2011-10-13T08:09:39Z</time>
  <speed>5.440000</speed>
</trkpt>
<trkpt lat="32.592479706" lon="35.008152008">
  <ele>36.666321</ele>
  <time>2011-10-13T08:09:40Z</time>
  <speed>5.970000</speed>
</trkpt>
<trkpt lat="32.592445374" lon="35.008094788">
  <ele>36.166321</ele>
  <time>2011-10-13T08:09:41Z</time>
  <speed>5.760000</speed>
</trkpt>
<trkpt lat="32.592414856" lon="35.008049011">
  <ele>35.993469</ele>
  <time>2011-10-13T08:09:42Z</time>
  <speed>5.320000</speed>
</trkpt>
<trkpt lat="32.592384338" lon="35.008007050">
  <ele>36.243469</ele>
  <time>2011-10-13T08:09:43Z</time>
  <speed>4.820000</speed>
</trkpt>
<trkpt lat="32.592357635" lon="35.007965088">
  <ele>36.289368</ele>
  <time>2011-10-13T08:09:44Z</time>
  <speed>4.480000</speed>
</trkpt>
<trkpt lat="32.592327118" lon="35.007934570">
  <ele>36.173157</ele>
  <time>2011-10-13T08:09:45Z</time>
  <speed>4.430000</speed>
</trkpt>
<trkpt lat="32.592296600" lon="35.007904053">
  <ele>35.879211</ele>
  <time>2011-10-13T08:09:46Z</time>
  <speed>4.590000</speed>
</trkpt>
<trkpt lat="32.592266083" lon="35.007873535">
  <ele>35.748352</ele>
  <time>2011-10-13T08:09:47Z</time>
  <speed>4.390000</speed>
</trkpt>
<trkpt lat="32.592239380" lon="35.007839203">
  <ele>35.782532</ele>
  <time>2011-10-13T08:09:48Z</time>
  <speed>4.490000</speed>
</trkpt>
<trkpt lat="32.592208862" lon="35.007808685">
  <ele>36.141907</ele>
  <time>2011-10-13T08:09:49Z</time>
  <speed>4.400000</speed>
</trkpt>
<trkpt lat="32.592182159" lon="35.007778168">
  <ele>36.226868</ele>
  <time>2011-10-13T08:09:50Z</time>
  <speed>4.600000</speed>
</trkpt>
<trkpt lat="32.592155457" lon="35.007747650">
  <ele>36.539368</ele>
  <time>2011-10-13T08:09:51Z</time>
  <speed>4.520000</speed>
</trkpt>
<trkpt lat="32.592124939" lon="35.007713318">
  <ele>36.734680</ele>
  <time>2011-10-13T08:09:52Z</time>
  <speed>4.360000</speed>
</trkpt>
<trkpt lat="32.592094421" lon="35.007682800">
  <ele>37.241516</ele>
  <time>2011-10-13T08:09:53Z</time>
  <speed>4.330000</speed>
</trkpt>
<trkpt lat="32.592060089" lon="35.007652283">
  <ele>37.030579</ele>
  <time>2011-10-13T08:09:54Z</time>
  <speed>4.710000</speed>
</trkpt>
<trkpt lat="32.592025757" lon="35.007625580">
  <ele>36.254211</ele>
  <time>2011-10-13T08:09:55Z</time>
  <speed>4.240000</speed>
</trkpt>
<trkpt lat="32.591999054" lon="35.007595062">
  <ele>36.326477</ele>
  <time>2011-10-13T08:09:56Z</time>
  <speed>3.960000</speed>
</trkpt>
<trkpt lat="32.591964722" lon="35.007564545">
  <ele>37.977844</ele>
  <time>2011-10-13T08:09:57Z</time>
  <speed>4.370000</speed>
</trkpt>
<trkpt lat="32.591926575" lon="35.007541656">
  <ele>37.679993</ele>
  <time>2011-10-13T08:09:58Z</time>
  <speed>4.180000</speed>
</trkpt>
<trkpt lat="32.591892242" lon="35.007522583">
  <ele>37.983704</ele>
  <time>2011-10-13T08:09:59Z</time>
  <speed>3.950000</speed>
</trkpt>
<trkpt lat="32.591857910" lon="35.007507324">
  <ele>38.098938</ele>
  <time>2011-10-13T08:10:00Z</time>
  <speed>3.870000</speed>
</trkpt>
<trkpt lat="32.591827393" lon="35.007488251">
  <ele>38.154602</ele>
  <time>2011-10-13T08:10:01Z</time>
  <speed>3.850000</speed>
</trkpt>
<trkpt lat="32.591793060" lon="35.007472992">
  <ele>37.988586</ele>
  <time>2011-10-13T08:10:02Z</time>
  <speed>4.150000</speed>
</trkpt>
<trkpt lat="32.591762543" lon="35.007457733">
  <ele>38.043274</ele>
  <time>2011-10-13T08:10:03Z</time>
  <speed>3.930000</speed>
</trkpt>
<trkpt lat="32.591732025" lon="35.007438660">
  <ele>38.186829</ele>
  <time>2011-10-13T08:10:04Z</time>
  <speed>3.590000</speed>
</trkpt>
<trkpt lat="32.591701508" lon="35.007431030">
  <ele>37.826477</ele>
  <time>2011-10-13T08:10:05Z</time>
  <speed>3.560000</speed>
</trkpt>
<trkpt lat="32.591670990" lon="35.007415771">
  <ele>38.060852</ele>
  <time>2011-10-13T08:10:06Z</time>
  <speed>3.360000</speed>
</trkpt>
<trkpt lat="32.591644287" lon="35.007408142">
  <ele>38.250305</ele>
  <time>2011-10-13T08:10:07Z</time>
  <speed>3.390000</speed>
</trkpt>
<trkpt lat="32.591609955" lon="35.007396698">
  <ele>38.011047</ele>
  <time>2011-10-13T08:10:08Z</time>
  <speed>3.740000</speed>
</trkpt>
<trkpt lat="32.591579437" lon="35.007385254">
  <ele>38.031555</ele>
  <time>2011-10-13T08:10:09Z</time>
  <speed>3.740000</speed>
</trkpt>
<trkpt lat="32.591552734" lon="35.007373810">
  <ele>38.055969</ele>
  <time>2011-10-13T08:10:10Z</time>
  <speed>3.530000</speed>
</trkpt>
<trkpt lat="32.591526031" lon="35.007362366">
  <ele>38.102844</ele>
  <time>2011-10-13T08:10:11Z</time>
  <speed>3.270000</speed>
</trkpt>
<trkpt lat="32.591499329" lon="35.007354736">
  <ele>38.074524</ele>
  <time>2011-10-13T08:10:12Z</time>
  <speed>3.270000</speed>
</trkpt>
<trkpt lat="32.591445923" lon="35.007350922">
  <ele>38.115540</ele>
  <time>2011-10-13T08:10:14Z</time>
  <speed>2.730000</speed>
</trkpt>
<trkpt lat="32.591415405" lon="35.007366180">
  <ele>38.104797</ele>
  <time>2011-10-13T08:10:15Z</time>
  <speed>3.250000</speed>
</trkpt>
<trkpt lat="32.591381073" lon="35.007373810">
  <ele>38.283508</ele>
  <time>2011-10-13T08:10:16Z</time>
  <speed>3.530000</speed>
</trkpt>
<trkpt lat="32.591350555" lon="35.007381439">
  <ele>38.336243</ele>
  <time>2011-10-13T08:10:17Z</time>
  <speed>3.160000</speed>
</trkpt>
<trkpt lat="32.591320038" lon="35.007392883">
  <ele>38.485657</ele>
  <time>2011-10-13T08:10:18Z</time>
  <speed>3.040000</speed>
</trkpt>
<trkpt lat="32.591266632" lon="35.007396698">
  <ele>38.530579</ele>
  <time>2011-10-13T08:10:20Z</time>
  <speed>2.790000</speed>
</trkpt>
<trkpt lat="32.591217041" lon="35.007389069">
  <ele>38.604797</ele>
  <time>2011-10-13T08:10:22Z</time>
  <speed>2.860000</speed>
</trkpt>
<trkpt lat="32.591190338" lon="35.007381439">
  <ele>38.511047</ele>
  <time>2011-10-13T08:10:23Z</time>
  <speed>3.360000</speed>
</trkpt>
<trkpt lat="32.591159821" lon="35.007377625">
  <ele>38.541321</ele>
  <time>2011-10-13T08:10:24Z</time>
  <speed>3.130000</speed>
</trkpt>
<trkpt lat="32.591125488" lon="35.007369995">
  <ele>38.726868</ele>
  <time>2011-10-13T08:10:25Z</time>
  <speed>3.080000</speed>
</trkpt>
<trkpt lat="32.591094971" lon="35.007354736">
  <ele>38.841125</ele>
  <time>2011-10-13T08:10:26Z</time>
  <speed>2.850000</speed>
</trkpt>
<trkpt lat="32.591068268" lon="35.007343292">
  <ele>39.195618</ele>
  <time>2011-10-13T08:10:27Z</time>
  <speed>2.560000</speed>
</trkpt>
<trkpt lat="32.591041565" lon="35.007328033">
  <ele>39.327454</ele>
  <time>2011-10-13T08:10:28Z</time>
  <speed>2.840000</speed>
</trkpt>
<trkpt lat="32.591007233" lon="35.007316589">
  <ele>38.431946</ele>
  <time>2011-10-13T08:10:29Z</time>
  <speed>2.550000</speed>
</trkpt>
<trkpt lat="32.590969086" lon="35.007278442">
  <ele>38.389954</ele>
  <time>2011-10-13T08:10:31Z</time>
  <speed>2.690000</speed>
</trkpt>
<trkpt lat="32.590942383" lon="35.007228851">
  <ele>38.133118</ele>
  <time>2011-10-13T08:10:33Z</time>
  <speed>2.430000</speed>
</trkpt>
<trkpt lat="32.590919495" lon="35.007198334">
  <ele>37.715149</ele>
  <time>2011-10-13T08:10:34Z</time>
  <speed>3.020000</speed>
</trkpt>
<trkpt lat="32.590888977" lon="35.007175446">
  <ele>37.375305</ele>
  <time>2011-10-13T08:10:35Z</time>
  <speed>3.400000</speed>
</trkpt>
<trkpt lat="32.590858459" lon="35.007148743">
  <ele>37.185852</ele>
  <time>2011-10-13T08:10:36Z</time>
  <speed>3.070000</speed>
</trkpt>
<trkpt lat="32.590850830" lon="35.007114410">
  <ele>36.301086</ele>
  <time>2011-10-13T08:10:37Z</time>
  <speed>2.900000</speed>
</trkpt>
<trkpt lat="32.590843201" lon="35.007083893">
  <ele>35.887024</ele>
  <time>2011-10-13T08:10:38Z</time>
  <speed>3.020000</speed>
</trkpt>
<trkpt lat="32.590854645" lon="35.007030487">
  <ele>36.636047</ele>
  <time>2011-10-13T08:10:40Z</time>
  <speed>2.500000</speed>
</trkpt>
<trkpt lat="32.590866089" lon="35.006999969">
  <ele>37.074524</ele>
  <time>2011-10-13T08:10:41Z</time>
  <speed>2.690000</speed>
</trkpt>
<trkpt lat="32.590881348" lon="35.006973267">
  <ele>37.465149</ele>
  <time>2011-10-13T08:10:42Z</time>
  <speed>2.700000</speed>
</trkpt>
<trkpt lat="32.590919495" lon="35.006931305">
  <ele>39.157532</ele>
  <time>2011-10-13T08:10:44Z</time>
  <speed>2.940000</speed>
</trkpt>
<trkpt lat="32.590950012" lon="35.006916046">
  <ele>39.459290</ele>
  <time>2011-10-13T08:10:45Z</time>
  <speed>3.220000</speed>
</trkpt>
<trkpt lat="32.590980530" lon="35.006904602">
  <ele>39.915344</ele>
  <time>2011-10-13T08:10:46Z</time>
  <speed>3.890000</speed>
</trkpt>
<trkpt lat="32.591018677" lon="35.006885529">
  <ele>41.160461</ele>
  <time>2011-10-13T08:10:47Z</time>
  <speed>4.540000</speed>
</trkpt>
<trkpt lat="32.591056824" lon="35.006862640">
  <ele>42.579407</ele>
  <time>2011-10-13T08:10:48Z</time>
  <speed>4.660000</speed>
</trkpt>
<trkpt lat="32.591102600" lon="35.006832123">
  <ele>43.555969</ele>
  <time>2011-10-13T08:10:49Z</time>
  <speed>4.540000</speed>
</trkpt>
<trkpt lat="32.591140747" lon="35.006801605">
  <ele>43.392883</ele>
  <time>2011-10-13T08:10:50Z</time>
  <speed>4.780000</speed>
</trkpt>
<trkpt lat="32.591175079" lon="35.006771088">
  <ele>43.348938</ele>
  <time>2011-10-13T08:10:51Z</time>
  <speed>4.900000</speed>
</trkpt>
<trkpt lat="32.591217041" lon="35.006736755">
  <ele>43.572571</ele>
  <time>2011-10-13T08:10:52Z</time>
  <speed>5.160000</speed>
</trkpt>
<trkpt lat="32.591259003" lon="35.006702423">
  <ele>43.195618</ele>
  <time>2011-10-13T08:10:53Z</time>
  <speed>5.320000</speed>
</trkpt>
<trkpt lat="32.591297150" lon="35.006660461">
  <ele>42.871399</ele>
  <time>2011-10-13T08:10:54Z</time>
  <speed>5.320000</speed>
</trkpt>
<trkpt lat="32.591339111" lon="35.006626129">
  <ele>43.226868</ele>
  <time>2011-10-13T08:10:55Z</time>
  <speed>5.470000</speed>
</trkpt>
<trkpt lat="32.591381073" lon="35.006591797">
  <ele>42.870422</ele>
  <time>2011-10-13T08:10:56Z</time>
  <speed>5.320000</speed>
</trkpt>
<trkpt lat="32.591423035" lon="35.006553650">
  <ele>43.138000</ele>
  <time>2011-10-13T08:10:57Z</time>
  <speed>5.900000</speed>
</trkpt>
<trkpt lat="32.591464996" lon="35.006519318">
  <ele>43.263000</ele>
  <time>2011-10-13T08:10:58Z</time>
  <speed>5.750000</speed>
</trkpt>
<trkpt lat="32.591510773" lon="35.006484985">
  <ele>43.133118</ele>
  <time>2011-10-13T08:10:59Z</time>
  <speed>5.940000</speed>
</trkpt>
<trkpt lat="32.591552734" lon="35.006446838">
  <ele>42.888000</ele>
  <time>2011-10-13T08:11:00Z</time>
  <speed>6.210000</speed>
</trkpt>
<trkpt lat="32.591602325" lon="35.006408691">
  <ele>43.092102</ele>
  <time>2011-10-13T08:11:01Z</time>
  <speed>6.230000</speed>
</trkpt>
<trkpt lat="32.591648102" lon="35.006366730">
  <ele>42.886047</ele>
  <time>2011-10-13T08:11:02Z</time>
  <speed>6.300000</speed>
</trkpt>
<trkpt lat="32.591690063" lon="35.006324768">
  <ele>42.692688</ele>
  <time>2011-10-13T08:11:03Z</time>
  <speed>6.190000</speed>
</trkpt>
<trkpt lat="32.591728210" lon="35.006275177">
  <ele>42.118469</ele>
  <time>2011-10-13T08:11:04Z</time>
  <speed>6.070000</speed>
</trkpt>
<trkpt lat="32.591754913" lon="35.006221771">
  <ele>41.315735</ele>
  <time>2011-10-13T08:11:05Z</time>
  <speed>5.910000</speed>
</trkpt>
<trkpt lat="32.591766357" lon="35.006160736">
  <ele>40.916321</ele>
  <time>2011-10-13T08:11:06Z</time>
  <speed>6.000000</speed>
</trkpt>
<trkpt lat="32.591770172" lon="35.006088257">
  <ele>41.021790</ele>
  <time>2011-10-13T08:11:07Z</time>
  <speed>6.090000</speed>
</trkpt>
<trkpt lat="32.591766357" lon="35.006015778">
  <ele>40.682922</ele>
  <time>2011-10-13T08:11:08Z</time>
  <speed>6.010000</speed>
</trkpt>
<trkpt lat="32.591751099" lon="35.005943298">
  <ele>40.590149</ele>
  <time>2011-10-13T08:11:09Z</time>
  <speed>6.240000</speed>
</trkpt>
<trkpt lat="32.591732025" lon="35.005874634">
  <ele>40.266907</ele>
  <time>2011-10-13T08:11:10Z</time>
  <speed>6.420000</speed>
</trkpt>
<trkpt lat="32.591728210" lon="35.005802155">
  <ele>39.351868</ele>
  <time>2011-10-13T08:11:11Z</time>
  <speed>6.770000</speed>
</trkpt>
<trkpt lat="32.591735840" lon="35.005737305">
  <ele>38.984680</ele>
  <time>2011-10-13T08:11:12Z</time>
  <speed>6.110000</speed>
</trkpt>
<trkpt lat="32.591766357" lon="35.005680084">
  <ele>38.782532</ele>
  <time>2011-10-13T08:11:13Z</time>
  <speed>6.460000</speed>
</trkpt>
<trkpt lat="32.591804504" lon="35.005645752">
  <ele>39.880188</ele>
  <time>2011-10-13T08:11:14Z</time>
  <speed>4.510000</speed>
</trkpt>
<trkpt lat="32.591842651" lon="35.005634308">
  <ele>40.038391</ele>
  <time>2011-10-13T08:11:15Z</time>
  <speed>4.080000</speed>
</trkpt>
<trkpt lat="32.591873169" lon="35.005619049">
  <ele>40.441711</ele>
  <time>2011-10-13T08:11:16Z</time>
  <speed>3.370000</speed>
</trkpt>
<trkpt lat="32.591907501" lon="35.005619049">
  <ele>40.834290</ele>
  <time>2011-10-13T08:11:17Z</time>
  <speed>3.330000</speed>
</trkpt>
<trkpt lat="32.591941833" lon="35.005615234">
  <ele>41.147766</ele>
  <time>2011-10-13T08:11:18Z</time>
  <speed>3.210000</speed>
</trkpt>
<trkpt lat="32.591972351" lon="35.005607605">
  <ele>41.538391</ele>
  <time>2011-10-13T08:11:19Z</time>
  <speed>3.110000</speed>
</trkpt>
<trkpt lat="32.592021942" lon="35.005592346">
  <ele>42.059875</ele>
  <time>2011-10-13T08:11:21Z</time>
  <speed>3.070000</speed>
</trkpt>
<trkpt lat="32.592052460" lon="35.005580902">
  <ele>42.312805</ele>
  <time>2011-10-13T08:11:22Z</time>
  <speed>3.200000</speed>
</trkpt>
<trkpt lat="32.592082977" lon="35.005573273">
  <ele>42.920227</ele>
  <time>2011-10-13T08:11:23Z</time>
  <speed>2.970000</speed>
</trkpt>
<trkpt lat="32.592113495" lon="35.005569458">
  <ele>44.574524</ele>
  <time>2011-10-13T08:11:24Z</time>
  <speed>3.220000</speed>
</trkpt>
<trkpt lat="32.592144012" lon="35.005561829">
  <ele>45.283508</ele>
  <time>2011-10-13T08:11:25Z</time>
  <speed>3.170000</speed>
</trkpt>
<trkpt lat="32.592178345" lon="35.005554199">
  <ele>46.138000</ele>
  <time>2011-10-13T08:11:26Z</time>
  <speed>3.210000</speed>
</trkpt>
<trkpt lat="32.592205048" lon="35.005554199">
  <ele>47.134094</ele>
  <time>2011-10-13T08:11:27Z</time>
  <speed>3.030000</speed>
</trkpt>
<trkpt lat="32.592231750" lon="35.005546570">
  <ele>47.386047</ele>
  <time>2011-10-13T08:11:28Z</time>
  <speed>2.880000</speed>
</trkpt>
<trkpt lat="32.592285156" lon="35.005531311">
  <ele>47.662415</ele>
  <time>2011-10-13T08:11:30Z</time>
  <speed>2.490000</speed>
</trkpt>
<trkpt lat="32.592315674" lon="35.005527496">
  <ele>47.532532</ele>
  <time>2011-10-13T08:11:31Z</time>
  <speed>2.620000</speed>
</trkpt>
<trkpt lat="32.592350006" lon="35.005519867">
  <ele>47.725891</ele>
  <time>2011-10-13T08:11:32Z</time>
  <speed>2.650000</speed>
</trkpt>
<trkpt lat="32.592372894" lon="35.005508423">
  <ele>47.714172</ele>
  <time>2011-10-13T08:11:33Z</time>
  <speed>2.800000</speed>
</trkpt>
<trkpt lat="32.592407227" lon="35.005496979">
  <ele>48.045227</ele>
  <time>2011-10-13T08:11:34Z</time>
  <speed>2.880000</speed>
</trkpt>
<trkpt lat="32.592472076" lon="35.005470276">
  <ele>47.917297</ele>
  <time>2011-10-13T08:11:36Z</time>
  <speed>4.260000</speed>
</trkpt>
<trkpt lat="32.592506409" lon="35.005451202">
  <ele>48.101868</ele>
  <time>2011-10-13T08:11:37Z</time>
  <speed>4.780000</speed>
</trkpt>
<trkpt lat="32.592559814" lon="35.005424500">
  <ele>47.858704</ele>
  <time>2011-10-13T08:11:38Z</time>
  <speed>4.690000</speed>
</trkpt>
<trkpt lat="32.592632294" lon="35.005390167">
  <ele>48.865540</ele>
  <time>2011-10-13T08:11:39Z</time>
  <speed>3.820000</speed>
</trkpt>
<trkpt lat="32.592662811" lon="35.005378723">
  <ele>48.455383</ele>
  <time>2011-10-13T08:11:40Z</time>
  <speed>3.300000</speed>
</trkpt>
<trkpt lat="32.592689514" lon="35.005363464">
  <ele>48.823547</ele>
  <time>2011-10-13T08:11:41Z</time>
  <speed>2.530000</speed>
</trkpt>
<trkpt lat="32.592723846" lon="35.005340576">
  <ele>49.534485</ele>
  <time>2011-10-13T08:11:42Z</time>
  <speed>2.280000</speed>
</trkpt>
<trkpt lat="32.592758179" lon="35.005317688">
  <ele>49.821594</ele>
  <time>2011-10-13T08:11:44Z</time>
  <speed>2.500000</speed>
</trkpt>
<trkpt lat="32.592796326" lon="35.005298615">
  <ele>49.918274</ele>
  <time>2011-10-13T08:11:46Z</time>
  <speed>2.830000</speed>
</trkpt>
<trkpt lat="32.592853546" lon="35.005268097">
  <ele>49.859680</ele>
  <time>2011-10-13T08:11:48Z</time>
  <speed>3.250000</speed>
</trkpt>
<trkpt lat="32.592880249" lon="35.005256653">
  <ele>49.972961</ele>
  <time>2011-10-13T08:11:49Z</time>
  <speed>3.230000</speed>
</trkpt>
<trkpt lat="32.592929840" lon="35.005229950">
  <ele>49.555969</ele>
  <time>2011-10-13T08:11:51Z</time>
  <speed>3.220000</speed>
</trkpt>
<trkpt lat="32.592971802" lon="35.005195618">
  <ele>49.934875</ele>
  <time>2011-10-13T08:11:53Z</time>
  <speed>2.780000</speed>
</trkpt>
<trkpt lat="32.593009949" lon="35.005172729">
  <ele>49.831360</ele>
  <time>2011-10-13T08:11:55Z</time>
  <speed>2.480000</speed>
</trkpt>
<trkpt lat="32.593044281" lon="35.005161285">
  <ele>49.721985</ele>
  <time>2011-10-13T08:11:57Z</time>
  <speed>1.910000</speed>
</trkpt>
<trkpt lat="32.593074799" lon="35.005149841">
  <ele>49.913391</ele>
  <time>2011-10-13T08:11:59Z</time>
  <speed>1.720000</speed>
</trkpt>
<trkpt lat="32.593109131" lon="35.005134583">
  <ele>50.223938</ele>
  <time>2011-10-13T08:12:01Z</time>
  <speed>2.020000</speed>
</trkpt>
<trkpt lat="32.593147278" lon="35.005115509">
  <ele>49.969055</ele>
  <time>2011-10-13T08:12:03Z</time>
  <speed>1.780000</speed>
</trkpt>
<trkpt lat="32.593185425" lon="35.005100250">
  <ele>49.752258</ele>
  <time>2011-10-13T08:12:05Z</time>
  <speed>2.410000</speed>
</trkpt>
<trkpt lat="32.593215942" lon="35.005092621">
  <ele>49.374329</ele>
  <time>2011-10-13T08:12:07Z</time>
  <speed>1.860000</speed>
</trkpt>
<trkpt lat="32.593257904" lon="35.005077362">
  <ele>49.311829</ele>
  <time>2011-10-13T08:12:09Z</time>
  <speed>2.180000</speed>
</trkpt>
<trkpt lat="32.593292236" lon="35.005054474">
  <ele>49.451477</ele>
  <time>2011-10-13T08:12:11Z</time>
  <speed>2.430000</speed>
</trkpt>
<trkpt lat="32.593334198" lon="35.005031586">
  <ele>49.794250</ele>
  <time>2011-10-13T08:12:13Z</time>
  <speed>2.260000</speed>
</trkpt>
<trkpt lat="32.593372345" lon="35.005008698">
  <ele>50.329407</ele>
  <time>2011-10-13T08:12:15Z</time>
  <speed>2.480000</speed>
</trkpt>
<trkpt lat="32.593399048" lon="35.004997253">
  <ele>50.611633</ele>
  <time>2011-10-13T08:12:16Z</time>
  <speed>2.640000</speed>
</trkpt>
<trkpt lat="32.593444824" lon="35.004974365">
  <ele>51.366516</ele>
  <time>2011-10-13T08:12:18Z</time>
  <speed>2.540000</speed>
</trkpt>
<trkpt lat="32.593486786" lon="35.004951477">
  <ele>51.721985</ele>
  <time>2011-10-13T08:12:20Z</time>
  <speed>2.610000</speed>
</trkpt>
<trkpt lat="32.593524933" lon="35.004920959">
  <ele>51.596985</ele>
  <time>2011-10-13T08:12:22Z</time>
  <speed>2.700000</speed>
</trkpt>
<trkpt lat="32.593574524" lon="35.004894257">
  <ele>51.300110</ele>
  <time>2011-10-13T08:12:24Z</time>
  <speed>3.030000</speed>
</trkpt>
<trkpt lat="32.593616486" lon="35.004875183">
  <ele>51.860657</ele>
  <time>2011-10-13T08:12:26Z</time>
  <speed>2.880000</speed>
</trkpt>
<trkpt lat="32.593669891" lon="35.004867554">
  <ele>51.866516</ele>
  <time>2011-10-13T08:12:28Z</time>
  <speed>3.030000</speed>
</trkpt>
<trkpt lat="32.593715668" lon="35.004878998">
  <ele>52.007141</ele>
  <time>2011-10-13T08:12:30Z</time>
  <speed>2.620000</speed>
</trkpt>
<trkpt lat="32.593757629" lon="35.004898071">
  <ele>51.690735</ele>
  <time>2011-10-13T08:12:32Z</time>
  <speed>2.540000</speed>
</trkpt>
<trkpt lat="32.593784332" lon="35.004943848">
  <ele>52.211243</ele>
  <time>2011-10-13T08:12:34Z</time>
  <speed>2.740000</speed>
</trkpt>
<trkpt lat="32.593807220" lon="35.004970551">
  <ele>52.670227</ele>
  <time>2011-10-13T08:12:35Z</time>
  <speed>2.800000</speed>
</trkpt>
<trkpt lat="32.593830109" lon="35.005031586">
  <ele>53.012024</ele>
  <time>2011-10-13T08:12:37Z</time>
  <speed>3.140000</speed>
</trkpt>
<trkpt lat="32.593837738" lon="35.005062103">
  <ele>53.013977</ele>
  <time>2011-10-13T08:12:38Z</time>
  <speed>3.030000</speed>
</trkpt>
<trkpt lat="32.593849182" lon="35.005092621">
  <ele>52.972961</ele>
  <time>2011-10-13T08:12:39Z</time>
  <speed>3.040000</speed>
</trkpt>
<trkpt lat="32.593879700" lon="35.005149841">
  <ele>53.052063</ele>
  <time>2011-10-13T08:12:41Z</time>
  <speed>3.220000</speed>
</trkpt>
<trkpt lat="32.593898773" lon="35.005176544">
  <ele>53.303040</ele>
  <time>2011-10-13T08:12:42Z</time>
  <speed>3.020000</speed>
</trkpt>
<trkpt lat="32.593933105" lon="35.005229950">
  <ele>53.350891</ele>
  <time>2011-10-13T08:12:44Z</time>
  <speed>2.990000</speed>
</trkpt>
<trkpt lat="32.593955994" lon="35.005252838">
  <ele>53.122375</ele>
  <time>2011-10-13T08:12:45Z</time>
  <speed>3.080000</speed>
</trkpt>
<trkpt lat="32.593994141" lon="35.005294800">
  <ele>53.427063</ele>
  <time>2011-10-13T08:12:47Z</time>
  <speed>2.990000</speed>
</trkpt>
<trkpt lat="32.594017029" lon="35.005317688">
  <ele>53.707336</ele>
  <time>2011-10-13T08:12:48Z</time>
  <speed>2.920000</speed>
</trkpt>
<trkpt lat="32.594036102" lon="35.005340576">
  <ele>53.635071</ele>
  <time>2011-10-13T08:12:49Z</time>
  <speed>2.930000</speed>
</trkpt>
<trkpt lat="32.594066620" lon="35.005363464">
  <ele>53.759094</ele>
  <time>2011-10-13T08:12:50Z</time>
  <speed>2.930000</speed>
</trkpt>
<trkpt lat="32.594093323" lon="35.005386353">
  <ele>54.351868</ele>
  <time>2011-10-13T08:12:51Z</time>
  <speed>2.890000</speed>
</trkpt>
<trkpt lat="32.594120026" lon="35.005401611">
  <ele>54.513977</ele>
  <time>2011-10-13T08:12:52Z</time>
  <speed>2.920000</speed>
</trkpt>
<trkpt lat="32.594142914" lon="35.005420685">
  <ele>54.878235</ele>
  <time>2011-10-13T08:12:53Z</time>
  <speed>3.100000</speed>
</trkpt>
<trkpt lat="32.594169617" lon="35.005435944">
  <ele>55.215149</ele>
  <time>2011-10-13T08:12:54Z</time>
  <speed>3.020000</speed>
</trkpt>
<trkpt lat="32.594215393" lon="35.005462646">
  <ele>55.642883</ele>
  <time>2011-10-13T08:12:56Z</time>
  <speed>2.870000</speed>
</trkpt>
<trkpt lat="32.594257355" lon="35.005489349">
  <ele>56.667297</ele>
  <time>2011-10-13T08:12:58Z</time>
  <speed>2.890000</speed>
</trkpt>
<trkpt lat="32.594284058" lon="35.005500793">
  <ele>57.040344</ele>
  <time>2011-10-13T08:12:59Z</time>
  <speed>2.900000</speed>
</trkpt>
<trkpt lat="32.594329834" lon="35.005519867">
  <ele>57.238586</ele>
  <time>2011-10-13T08:13:01Z</time>
  <speed>2.970000</speed>
</trkpt>
<trkpt lat="32.594356537" lon="35.005531311">
  <ele>57.120422</ele>
  <time>2011-10-13T08:13:02Z</time>
  <speed>2.810000</speed>
</trkpt>
<trkpt lat="32.594398499" lon="35.005554199">
  <ele>57.114563</ele>
  <time>2011-10-13T08:13:04Z</time>
  <speed>2.570000</speed>
</trkpt>
<trkpt lat="32.594440460" lon="35.005577087">
  <ele>57.211243</ele>
  <time>2011-10-13T08:13:06Z</time>
  <speed>2.460000</speed>
</trkpt>
<trkpt lat="32.594463348" lon="35.005592346">
  <ele>57.580383</ele>
  <time>2011-10-13T08:13:07Z</time>
  <speed>2.690000</speed>
</trkpt>
<trkpt lat="32.594509125" lon="35.005622864">
  <ele>58.570618</ele>
  <time>2011-10-13T08:13:09Z</time>
  <speed>2.880000</speed>
</trkpt>
<trkpt lat="32.594554901" lon="35.005657196">
  <ele>58.773743</ele>
  <time>2011-10-13T08:13:11Z</time>
  <speed>2.900000</speed>
</trkpt>
<trkpt lat="32.594596863" lon="35.005687714">
  <ele>58.693665</ele>
  <time>2011-10-13T08:13:13Z</time>
  <speed>2.940000</speed>
</trkpt>
<trkpt lat="32.594642639" lon="35.005714417">
  <ele>58.335266</ele>
  <time>2011-10-13T08:13:15Z</time>
  <speed>2.990000</speed>
</trkpt>
<trkpt lat="32.594669342" lon="35.005725861">
  <ele>59.005188</ele>
  <time>2011-10-13T08:13:16Z</time>
  <speed>3.060000</speed>
</trkpt>
<trkpt lat="32.594692230" lon="35.005748749">
  <ele>58.501282</ele>
  <time>2011-10-13T08:13:17Z</time>
  <speed>2.880000</speed>
</trkpt>
<trkpt lat="32.594715118" lon="35.005767822">
  <ele>58.817688</ele>
  <time>2011-10-13T08:13:18Z</time>
  <speed>2.960000</speed>
</trkpt>
<trkpt lat="32.594738007" lon="35.005794525">
  <ele>59.248352</ele>
  <time>2011-10-13T08:13:19Z</time>
  <speed>3.090000</speed>
</trkpt>
<trkpt lat="32.594787598" lon="35.005821228">
  <ele>59.459290</ele>
  <time>2011-10-13T08:13:21Z</time>
  <speed>3.090000</speed>
</trkpt>
<trkpt lat="32.594833374" lon="35.005844116">
  <ele>59.039368</ele>
  <time>2011-10-13T08:13:23Z</time>
  <speed>3.110000</speed>
</trkpt>
<trkpt lat="32.594886780" lon="35.005863190">
  <ele>58.994446</ele>
  <time>2011-10-13T08:13:25Z</time>
  <speed>3.290000</speed>
</trkpt>
<trkpt lat="32.594913483" lon="35.005870819">
  <ele>58.663391</ele>
  <time>2011-10-13T08:13:26Z</time>
  <speed>3.030000</speed>
</trkpt>
<trkpt lat="32.594963074" lon="35.005882263">
  <ele>58.967102</ele>
  <time>2011-10-13T08:13:28Z</time>
  <speed>2.950000</speed>
</trkpt>
<trkpt lat="32.594993591" lon="35.005893707">
  <ele>59.176086</ele>
  <time>2011-10-13T08:13:29Z</time>
  <speed>3.100000</speed>
</trkpt>
<trkpt lat="32.595020294" lon="35.005901337">
  <ele>59.687805</ele>
  <time>2011-10-13T08:13:30Z</time>
  <speed>3.090000</speed>
</trkpt>
<trkpt lat="32.595050812" lon="35.005912781">
  <ele>60.046204</ele>
  <time>2011-10-13T08:13:31Z</time>
  <speed>3.350000</speed>
</trkpt>
<trkpt lat="32.595081329" lon="35.005912781">
  <ele>60.217102</ele>
  <time>2011-10-13T08:13:32Z</time>
  <speed>3.200000</speed>
</trkpt>
<trkpt lat="32.595111847" lon="35.005916595">
  <ele>60.637024</ele>
  <time>2011-10-13T08:13:33Z</time>
  <speed>3.350000</speed>
</trkpt>
<trkpt lat="32.595142365" lon="35.005908966">
  <ele>61.266907</ele>
  <time>2011-10-13T08:13:34Z</time>
  <speed>3.330000</speed>
</trkpt>
<trkpt lat="32.595172882" lon="35.005908966">
  <ele>61.790344</ele>
  <time>2011-10-13T08:13:35Z</time>
  <speed>3.010000</speed>
</trkpt>
<trkpt lat="32.595226288" lon="35.005901337">
  <ele>62.286438</ele>
  <time>2011-10-13T08:13:37Z</time>
  <speed>2.810000</speed>
</trkpt>
<trkpt lat="32.595252991" lon="35.005901337">
  <ele>62.505188</ele>
  <time>2011-10-13T08:13:38Z</time>
  <speed>3.210000</speed>
</trkpt>
<trkpt lat="32.595283508" lon="35.005901337">
  <ele>62.981750</ele>
  <time>2011-10-13T08:13:39Z</time>
  <speed>3.190000</speed>
</trkpt>
<trkpt lat="32.595310211" lon="35.005901337">
  <ele>63.276672</ele>
  <time>2011-10-13T08:13:40Z</time>
  <speed>3.020000</speed>
</trkpt>
<trkpt lat="32.595336914" lon="35.005912781">
  <ele>63.802063</ele>
  <time>2011-10-13T08:13:41Z</time>
  <speed>3.090000</speed>
</trkpt>
<trkpt lat="32.595378876" lon="35.005943298">
  <ele>63.728821</ele>
  <time>2011-10-13T08:13:43Z</time>
  <speed>3.210000</speed>
</trkpt>
<trkpt lat="32.595401764" lon="35.005962372">
  <ele>63.938782</ele>
  <time>2011-10-13T08:13:44Z</time>
  <speed>3.070000</speed>
</trkpt>
<trkpt lat="32.595424652" lon="35.005981445">
  <ele>64.006470</ele>
  <time>2011-10-13T08:13:45Z</time>
  <speed>2.850000</speed>
</trkpt>
<trkpt lat="32.595466614" lon="35.006011963">
  <ele>64.369751</ele>
  <time>2011-10-13T08:13:47Z</time>
  <speed>2.930000</speed>
</trkpt>
<trkpt lat="32.595512390" lon="35.006046295">
  <ele>64.895142</ele>
  <time>2011-10-13T08:13:49Z</time>
  <speed>3.310000</speed>
</trkpt>
<trkpt lat="32.595539093" lon="35.006061554">
  <ele>65.483032</ele>
  <time>2011-10-13T08:13:50Z</time>
  <speed>3.200000</speed>
</trkpt>
<trkpt lat="32.595565796" lon="35.006080627">
  <ele>65.649048</ele>
  <time>2011-10-13T08:13:51Z</time>
  <speed>3.290000</speed>
</trkpt>
<trkpt lat="32.595588684" lon="35.006095886">
  <ele>65.715454</ele>
  <time>2011-10-13T08:13:52Z</time>
  <speed>3.090000</speed>
</trkpt>
<trkpt lat="32.595630646" lon="35.006118774">
  <ele>65.961548</ele>
  <time>2011-10-13T08:13:54Z</time>
  <speed>3.080000</speed>
</trkpt>
<trkpt lat="32.595653534" lon="35.006134033">
  <ele>65.945923</ele>
  <time>2011-10-13T08:13:55Z</time>
  <speed>3.100000</speed>
</trkpt>
<trkpt lat="32.595684052" lon="35.006149292">
  <ele>65.930298</ele>
  <time>2011-10-13T08:13:56Z</time>
  <speed>3.010000</speed>
</trkpt>
<trkpt lat="32.595710754" lon="35.006164551">
  <ele>65.828735</ele>
  <time>2011-10-13T08:13:57Z</time>
  <speed>3.090000</speed>
</trkpt>
<trkpt lat="32.595760345" lon="35.006183624">
  <ele>66.391235</ele>
  <time>2011-10-13T08:13:59Z</time>
  <speed>3.130000</speed>
</trkpt>
<trkpt lat="32.595790863" lon="35.006191254">
  <ele>66.707642</ele>
  <time>2011-10-13T08:14:00Z</time>
  <speed>3.020000</speed>
</trkpt>
<trkpt lat="32.595817566" lon="35.006198883">
  <ele>67.043579</ele>
  <time>2011-10-13T08:14:01Z</time>
  <speed>2.920000</speed>
</trkpt>
<trkpt lat="32.595859528" lon="35.006217957">
  <ele>67.440063</ele>
  <time>2011-10-13T08:14:03Z</time>
  <speed>3.010000</speed>
</trkpt>
<trkpt lat="32.595890045" lon="35.006225586">
  <ele>67.719360</ele>
  <time>2011-10-13T08:14:04Z</time>
  <speed>3.090000</speed>
</trkpt>
<trkpt lat="32.595939636" lon="35.006237030">
  <ele>67.135376</ele>
  <time>2011-10-13T08:14:06Z</time>
  <speed>3.140000</speed>
</trkpt>
<trkpt lat="32.595966339" lon="35.006240845">
  <ele>67.563110</ele>
  <time>2011-10-13T08:14:07Z</time>
  <speed>3.280000</speed>
</trkpt>
<trkpt lat="32.595996857" lon="35.006240845">
  <ele>67.686157</ele>
  <time>2011-10-13T08:14:08Z</time>
  <speed>3.010000</speed>
</trkpt>
<trkpt lat="32.596054077" lon="35.006248474">
  <ele>66.920532</ele>
  <time>2011-10-13T08:14:10Z</time>
  <speed>2.870000</speed>
</trkpt>
<trkpt lat="32.596103668" lon="35.006248474">
  <ele>66.590454</ele>
  <time>2011-10-13T08:14:12Z</time>
  <speed>2.980000</speed>
</trkpt>
<trkpt lat="32.596157074" lon="35.006237030">
  <ele>66.942017</ele>
  <time>2011-10-13T08:14:14Z</time>
  <speed>3.140000</speed>
</trkpt>
<trkpt lat="32.596183777" lon="35.006229401">
  <ele>67.252563</ele>
  <time>2011-10-13T08:14:15Z</time>
  <speed>3.030000</speed>
</trkpt>
<trkpt lat="32.596240997" lon="35.006210327">
  <ele>67.893188</ele>
  <time>2011-10-13T08:14:17Z</time>
  <speed>3.160000</speed>
</trkpt>
<trkpt lat="32.596267700" lon="35.006206512">
  <ele>68.883423</ele>
  <time>2011-10-13T08:14:18Z</time>
  <speed>3.420000</speed>
</trkpt>
<trkpt lat="32.596302032" lon="35.006202698">
  <ele>68.844360</ele>
  <time>2011-10-13T08:14:19Z</time>
  <speed>3.030000</speed>
</trkpt>
<trkpt lat="32.596328735" lon="35.006195068">
  <ele>68.152954</ele>
  <time>2011-10-13T08:14:20Z</time>
  <speed>3.140000</speed>
</trkpt>
<trkpt lat="32.596359253" lon="35.006187439">
  <ele>68.033813</ele>
  <time>2011-10-13T08:14:21Z</time>
  <speed>3.090000</speed>
</trkpt>
<trkpt lat="32.596412659" lon="35.006172180">
  <ele>67.494751</ele>
  <time>2011-10-13T08:14:23Z</time>
  <speed>3.260000</speed>
</trkpt>
<trkpt lat="32.596443176" lon="35.006175995">
  <ele>67.199829</ele>
  <time>2011-10-13T08:14:24Z</time>
  <speed>2.970000</speed>
</trkpt>
<trkpt lat="32.596492767" lon="35.006164551">
  <ele>67.518188</ele>
  <time>2011-10-13T08:14:26Z</time>
  <speed>3.030000</speed>
</trkpt>
<trkpt lat="32.596527100" lon="35.006160736">
  <ele>67.344360</ele>
  <time>2011-10-13T08:14:27Z</time>
  <speed>2.740000</speed>
</trkpt>
<trkpt lat="32.596557617" lon="35.006156921">
  <ele>67.463501</ele>
  <time>2011-10-13T08:14:28Z</time>
  <speed>3.160000</speed>
</trkpt>
<trkpt lat="32.596588135" lon="35.006153107">
  <ele>68.090454</ele>
  <time>2011-10-13T08:14:29Z</time>
  <speed>3.060000</speed>
</trkpt>
<trkpt lat="32.596641541" lon="35.006153107">
  <ele>67.842407</ele>
  <time>2011-10-13T08:14:31Z</time>
  <speed>2.960000</speed>
</trkpt>
<trkpt lat="32.596672058" lon="35.006156921">
  <ele>67.484985</ele>
  <time>2011-10-13T08:14:32Z</time>
  <speed>3.120000</speed>
</trkpt>
<trkpt lat="32.596698761" lon="35.006153107">
  <ele>67.668579</ele>
  <time>2011-10-13T08:14:33Z</time>
  <speed>3.020000</speed>
</trkpt>
<trkpt lat="32.596729279" lon="35.006149292">
  <ele>67.522095</ele>
  <time>2011-10-13T08:14:34Z</time>
  <speed>2.920000</speed>
</trkpt>
<trkpt lat="32.596775055" lon="35.006149292">
  <ele>68.563110</ele>
  <time>2011-10-13T08:14:36Z</time>
  <speed>2.430000</speed>
</trkpt>
<trkpt lat="32.596824646" lon="35.006149292">
  <ele>69.658813</ele>
  <time>2011-10-13T08:14:38Z</time>
  <speed>2.630000</speed>
</trkpt>
<trkpt lat="32.596855164" lon="35.006145477">
  <ele>69.502563</ele>
  <time>2011-10-13T08:14:39Z</time>
  <speed>3.120000</speed>
</trkpt>
<trkpt lat="32.596885681" lon="35.006149292">
  <ele>69.024048</ele>
  <time>2011-10-13T08:14:40Z</time>
  <speed>2.970000</speed>
</trkpt>
<trkpt lat="32.596927643" lon="35.006149292">
  <ele>69.535767</ele>
  <time>2011-10-13T08:14:42Z</time>
  <speed>2.550000</speed>
</trkpt>
<trkpt lat="32.596973419" lon="35.006145477">
  <ele>70.061157</ele>
  <time>2011-10-13T08:14:44Z</time>
  <speed>2.630000</speed>
</trkpt>
<trkpt lat="32.597011566" lon="35.006134033">
  <ele>70.440063</ele>
  <time>2011-10-13T08:14:46Z</time>
  <speed>2.130000</speed>
</trkpt>
<trkpt lat="32.597045898" lon="35.006122589">
  <ele>70.533813</ele>
  <time>2011-10-13T08:14:48Z</time>
  <speed>2.080000</speed>
</trkpt>
<trkpt lat="32.597084045" lon="35.006111145">
  <ele>70.906860</ele>
  <time>2011-10-13T08:14:50Z</time>
  <speed>2.210000</speed>
</trkpt>
<trkpt lat="32.597118378" lon="35.006084442">
  <ele>70.938110</ele>
  <time>2011-10-13T08:14:52Z</time>
  <speed>1.810000</speed>
</trkpt>
<trkpt lat="32.597152710" lon="35.006053925">
  <ele>70.557251</ele>
  <time>2011-10-13T08:14:54Z</time>
  <speed>1.690000</speed>
</trkpt>
<trkpt lat="32.597164154" lon="35.006011963">
  <ele>70.682251</ele>
  <time>2011-10-13T08:14:56Z</time>
  <speed>1.970000</speed>
</trkpt>
<trkpt lat="32.597171783" lon="35.005973816">
  <ele>70.842407</ele>
  <time>2011-10-13T08:14:58Z</time>
  <speed>1.570000</speed>
</trkpt>
<trkpt lat="32.597171783" lon="35.005931854">
  <ele>71.367798</ele>
  <time>2011-10-13T08:15:00Z</time>
  <speed>1.430000</speed>
</trkpt>
<trkpt lat="32.597167969" lon="35.005893707">
  <ele>72.244751</ele>
  <time>2011-10-13T08:15:02Z</time>
  <speed>1.770000</speed>
</trkpt>
<trkpt lat="32.597171783" lon="35.005855560">
  <ele>73.057251</ele>
  <time>2011-10-13T08:15:04Z</time>
  <speed>1.470000</speed>
</trkpt>
<trkpt lat="32.597171783" lon="35.005817413">
  <ele>73.803345</ele>
  <time>2011-10-13T08:15:06Z</time>
  <speed>1.310000</speed>
</trkpt>
<trkpt lat="32.597164154" lon="35.005786896">
  <ele>74.104126</ele>
  <time>2011-10-13T08:15:08Z</time>
  <speed>1.880000</speed>
</trkpt>
<trkpt lat="32.597167969" lon="35.005748749">
  <ele>75.178345</ele>
  <time>2011-10-13T08:15:10Z</time>
  <speed>1.400000</speed>
</trkpt>
<trkpt lat="32.597164154" lon="35.005714417">
  <ele>75.983032</ele>
  <time>2011-10-13T08:15:12Z</time>
  <speed>1.680000</speed>
</trkpt>
<trkpt lat="32.597164154" lon="35.005680084">
  <ele>77.211548</ele>
  <time>2011-10-13T08:15:14Z</time>
  <speed>1.460000</speed>
</trkpt>
<trkpt lat="32.597164154" lon="35.005645752">
  <ele>78.272095</ele>
  <time>2011-10-13T08:15:16Z</time>
  <speed>1.530000</speed>
</trkpt>
<trkpt lat="32.597160339" lon="35.005611420">
  <ele>79.010376</ele>
  <time>2011-10-13T08:15:18Z</time>
  <speed>1.750000</speed>
</trkpt>
<trkpt lat="32.597145081" lon="35.005577087">
  <ele>78.908813</ele>
  <time>2011-10-13T08:15:20Z</time>
  <speed>1.650000</speed>
</trkpt>
<trkpt lat="32.597133636" lon="35.005538940">
  <ele>79.690063</ele>
  <time>2011-10-13T08:15:22Z</time>
  <speed>1.520000</speed>
</trkpt>
<trkpt lat="32.597133636" lon="35.005508423">
  <ele>80.664673</ele>
  <time>2011-10-13T08:15:24Z</time>
  <speed>1.500000</speed>
</trkpt>
<trkpt lat="32.597133636" lon="35.005477905">
  <ele>81.670532</ele>
  <time>2011-10-13T08:15:26Z</time>
  <speed>1.390000</speed>
</trkpt>
<trkpt lat="32.597122192" lon="35.005435944">
  <ele>81.723267</ele>
  <time>2011-10-13T08:15:29Z</time>
  <speed>1.420000</speed>
</trkpt>
<trkpt lat="32.597122192" lon="35.005405426">
  <ele>82.854126</ele>
  <time>2011-10-13T08:15:31Z</time>
  <speed>1.730000</speed>
</trkpt>
<trkpt lat="32.597114563" lon="35.005371094">
  <ele>83.340454</ele>
  <time>2011-10-13T08:15:33Z</time>
  <speed>1.560000</speed>
</trkpt>
<trkpt lat="32.597099304" lon="35.005340576">
  <ele>82.830688</ele>
  <time>2011-10-13T08:15:35Z</time>
  <speed>1.790000</speed>
</trkpt>
<trkpt lat="32.597095490" lon="35.005306244">
  <ele>83.137329</ele>
  <time>2011-10-13T08:15:37Z</time>
  <speed>1.800000</speed>
</trkpt>
<trkpt lat="32.597091675" lon="35.005268097">
  <ele>83.524048</ele>
  <time>2011-10-13T08:15:39Z</time>
  <speed>1.770000</speed>
</trkpt>
<trkpt lat="32.597087860" lon="35.005229950">
  <ele>83.817017</ele>
  <time>2011-10-13T08:15:41Z</time>
  <speed>1.620000</speed>
</trkpt>
<trkpt lat="32.597080231" lon="35.005195618">
  <ele>83.934204</ele>
  <time>2011-10-13T08:15:43Z</time>
  <speed>1.540000</speed>
</trkpt>
<trkpt lat="32.597080231" lon="35.005165100">
  <ele>84.682251</ele>
  <time>2011-10-13T08:15:45Z</time>
  <speed>1.650000</speed>
</trkpt>
<trkpt lat="32.597080231" lon="35.005126953">
  <ele>85.811157</ele>
  <time>2011-10-13T08:15:47Z</time>
  <speed>1.580000</speed>
</trkpt>
<trkpt lat="32.597080231" lon="35.005088806">
  <ele>86.623657</ele>
  <time>2011-10-13T08:15:49Z</time>
  <speed>1.560000</speed>
</trkpt>
<trkpt lat="32.597080231" lon="35.005043030">
  <ele>86.469360</ele>
  <time>2011-10-13T08:15:52Z</time>
  <speed>1.480000</speed>
</trkpt>
<trkpt lat="32.597076416" lon="35.005008698">
  <ele>86.031860</ele>
  <time>2011-10-13T08:15:54Z</time>
  <speed>1.500000</speed>
</trkpt>
<trkpt lat="32.597076416" lon="35.004974365">
  <ele>86.162720</ele>
  <time>2011-10-13T08:15:56Z</time>
  <speed>1.660000</speed>
</trkpt>
<trkpt lat="32.597072601" lon="35.004936218">
  <ele>86.951782</ele>
  <time>2011-10-13T08:15:58Z</time>
  <speed>1.730000</speed>
</trkpt>
<trkpt lat="32.597072601" lon="35.004898071">
  <ele>88.551392</ele>
  <time>2011-10-13T08:16:00Z</time>
  <speed>1.690000</speed>
</trkpt>
<trkpt lat="32.597064972" lon="35.004859924">
  <ele>88.692017</ele>
  <time>2011-10-13T08:16:02Z</time>
  <speed>1.950000</speed>
</trkpt>
<trkpt lat="32.597061157" lon="35.004821777">
  <ele>89.274048</ele>
  <time>2011-10-13T08:16:04Z</time>
  <speed>1.580000</speed>
</trkpt>
<trkpt lat="32.597068787" lon="35.004779816">
  <ele>90.108032</ele>
  <time>2011-10-13T08:16:07Z</time>
  <speed>1.660000</speed>
</trkpt>
<trkpt lat="32.597068787" lon="35.004737854">
  <ele>91.391235</ele>
  <time>2011-10-13T08:16:09Z</time>
  <speed>1.700000</speed>
</trkpt>
<trkpt lat="32.597076416" lon="35.004707336">
  <ele>92.149048</ele>
  <time>2011-10-13T08:16:11Z</time>
  <speed>1.460000</speed>
</trkpt>
<trkpt lat="32.597091675" lon="35.004680634">
  <ele>92.926392</ele>
  <time>2011-10-13T08:16:13Z</time>
  <speed>1.610000</speed>
</trkpt>
<trkpt lat="32.597091675" lon="35.004646301">
  <ele>93.701782</ele>
  <time>2011-10-13T08:16:15Z</time>
  <speed>1.470000</speed>
</trkpt>
<trkpt lat="32.597103119" lon="35.004596710">
  <ele>94.619751</ele>
  <time>2011-10-13T08:16:18Z</time>
  <speed>1.430000</speed>
</trkpt>
<trkpt lat="32.597099304" lon="35.004562378">
  <ele>95.205688</ele>
  <time>2011-10-13T08:16:20Z</time>
  <speed>1.170000</speed>
</trkpt>
<trkpt lat="32.597099304" lon="35.004520416">
  <ele>95.752563</ele>
  <time>2011-10-13T08:16:23Z</time>
  <speed>1.250000</speed>
</trkpt>
<trkpt lat="32.597114563" lon="35.004489899">
  <ele>96.793579</ele>
  <time>2011-10-13T08:16:26Z</time>
  <speed>1.060000</speed>
</trkpt>
<trkpt lat="32.597122192" lon="35.004447937">
  <ele>97.065063</ele>
  <time>2011-10-13T08:16:29Z</time>
  <speed>1.190000</speed>
</trkpt>
<trkpt lat="32.597122192" lon="35.004405975">
  <ele>96.822876</ele>
  <time>2011-10-13T08:16:32Z</time>
  <speed>1.110000</speed>
</trkpt>
<trkpt lat="32.597122192" lon="35.004364014">
  <ele>96.957642</ele>
  <time>2011-10-13T08:16:35Z</time>
  <speed>1.440000</speed>
</trkpt>
<trkpt lat="32.597106934" lon="35.004333496">
  <ele>96.727173</ele>
  <time>2011-10-13T08:16:37Z</time>
  <speed>1.520000</speed>
</trkpt>
<trkpt lat="32.597087860" lon="35.004302979">
  <ele>96.111938</ele>
  <time>2011-10-13T08:16:39Z</time>
  <speed>1.640000</speed>
</trkpt>
<trkpt lat="32.597068787" lon="35.004272461">
  <ele>95.901001</ele>
  <time>2011-10-13T08:16:41Z</time>
  <speed>1.310000</speed>
</trkpt>
<trkpt lat="32.597053528" lon="35.004249573">
  <ele>95.690063</ele>
  <time>2011-10-13T08:16:43Z</time>
  <speed>1.470000</speed>
</trkpt>
<trkpt lat="32.597034454" lon="35.004215240">
  <ele>95.692017</ele>
  <time>2011-10-13T08:16:45Z</time>
  <speed>1.690000</speed>
</trkpt>
<trkpt lat="32.597000122" lon="35.004184723">
  <ele>95.729126</ele>
  <time>2011-10-13T08:16:48Z</time>
  <speed>1.280000</speed>
</trkpt>
<trkpt lat="32.597007751" lon="35.004158020">
  <ele>94.346313</ele>
  <time>2011-10-13T08:16:52Z</time>
  <speed>1.140000</speed>
</trkpt>
<trkpt lat="32.597049713" lon="35.004180908">
  <ele>93.858032</ele>
  <time>2011-10-13T08:16:54Z</time>
  <speed>2.570000</speed>
</trkpt>
<trkpt lat="32.597080231" lon="35.004196167">
  <ele>94.168579</ele>
  <time>2011-10-13T08:16:55Z</time>
  <speed>3.410000</speed>
</trkpt>
<trkpt lat="32.597118378" lon="35.004219055">
  <ele>94.291626</ele>
  <time>2011-10-13T08:16:56Z</time>
  <speed>4.350000</speed>
</trkpt>
<trkpt lat="32.597167969" lon="35.004253387">
  <ele>94.420532</ele>
  <time>2011-10-13T08:16:57Z</time>
  <speed>5.810000</speed>
</trkpt>
<trkpt lat="32.597221375" lon="35.004283905">
  <ele>93.752563</ele>
  <time>2011-10-13T08:16:58Z</time>
  <speed>5.910000</speed>
</trkpt>
<trkpt lat="32.597274780" lon="35.004310608">
  <ele>93.744751</ele>
  <time>2011-10-13T08:16:59Z</time>
  <speed>6.550000</speed>
</trkpt>
<trkpt lat="32.597320557" lon="35.004318237">
  <ele>94.006470</ele>
  <time>2011-10-13T08:17:00Z</time>
  <speed>2.890000</speed>
</trkpt>
<trkpt lat="32.597358704" lon="35.004306793">
  <ele>93.887329</ele>
  <time>2011-10-13T08:17:02Z</time>
  <speed>1.150000</speed>
</trkpt>
<trkpt lat="32.597381592" lon="35.004310608">
  <ele>96.127563</ele>
  <time>2011-10-13T08:17:33Z</time>
  <speed>0.080000</speed>
</trkpt>
<trkpt lat="32.597389221" lon="35.004344940">
  <ele>97.186157</ele>
  <time>2011-10-13T08:17:34Z</time>
  <speed>0.080000</speed>
</trkpt>
<trkpt lat="32.597396851" lon="35.004367828">
  <ele>95.777954</ele>
  <time>2011-10-13T08:17:37Z</time>
  <speed>0.020000</speed>
</trkpt>
<trkpt lat="32.597404480" lon="35.004352570">
  <ele>93.121704</ele>
  <time>2011-10-13T08:17:43Z</time>
  <speed>0.010000</speed>
</trkpt>
</trkseg>
</trk>
</gpx>
